<?xml version='1.0' encoding='UTF-8'?><gpx version="1.1" creator="JPX - https://github.com/jenetics/jpx" xmlns="http://www.topografix.com/GPX/1/1"><trk><trkseg><trkpt lat="40.6451217" lon="14.8901317"><ele>44.0</ele><time>2026-04-26T07:04:00.877Z</time></trkpt><trkpt lat="40.6449783" lon="14.8904583"><ele>44.0</ele><time>2026-04-26T07:04:01.878Z</time></trkpt><trkpt lat="40.6448367" lon="14.8907917"><ele>45.0</ele><time>2026-04-26T07:04:02.877Z</time></trkpt><trkpt lat="40.6446983" lon="14.8911167"><ele>46.0</ele><time>2026-04-26T07:04:03.877Z</time></trkpt><trkpt lat="40.64455" lon="14.89145"><ele>45.0</ele><time>2026-04-26T07:04:04.878Z</time></trkpt><trkpt lat="40.6444033" lon="14.8917833"><ele>44.0</ele><time>2026-04-26T07:04:05.878Z</time></trkpt><trkpt lat="40.644255" lon="14.892115"><ele>44.0</ele><time>2026-04-26T07:04:06.878Z</time></trkpt><trkpt lat="40.644105" lon="14.89245"><ele>44.0</ele><time>2026-04-26T07:04:07.877Z</time></trkpt><trkpt lat="40.643955" lon="14.89278"><ele>43.5</ele><time>2026-04-26T07:04:08.878Z</time></trkpt><trkpt lat="40.6438033" lon="14.8931117"><ele>43.0</ele><time>2026-04-26T07:04:09.878Z</time></trkpt><trkpt lat="40.6436483" lon="14.8934467"><ele>42.0</ele><time>2026-04-26T07:04:10.877Z</time></trkpt><trkpt lat="40.6435" lon="14.89378"><ele>41.0</ele><time>2026-04-26T07:04:11.878Z</time></trkpt><trkpt lat="40.6433467" lon="14.8941117"><ele>41.0</ele><time>2026-04-26T07:04:12.878Z</time></trkpt><trkpt lat="40.6431917" lon="14.89444"><ele>41.0</ele><time>2026-04-26T07:04:13.878Z</time></trkpt><trkpt lat="40.6430417" lon="14.8947717"><ele>40.5</ele><time>2026-04-26T07:04:14.878Z</time></trkpt><trkpt lat="40.6428917" lon="14.8951067"><ele>40.0</ele><time>2026-04-26T07:04:15.878Z</time></trkpt><trkpt lat="40.6427383" lon="14.8954383"><ele>40.0</ele><time>2026-04-26T07:04:16.878Z</time></trkpt><trkpt lat="40.6425933" lon="14.895775"><ele>40.0</ele><time>2026-04-26T07:04:17.877Z</time></trkpt><trkpt lat="40.6424483" lon="14.89611"><ele>39.5</ele><time>2026-04-26T07:04:18.877Z</time></trkpt><trkpt lat="40.6423" lon="14.8964417"><ele>39.0</ele><time>2026-04-26T07:04:19.877Z</time></trkpt><trkpt lat="40.6421517" lon="14.8967717"><ele>39.0</ele><time>2026-04-26T07:04:20.878Z</time></trkpt><trkpt lat="40.642" lon="14.8971"><ele>39.0</ele><time>2026-04-26T07:04:21.878Z</time></trkpt><trkpt lat="40.6418467" lon="14.897425"><ele>38.0</ele><time>2026-04-26T07:04:22.878Z</time></trkpt><trkpt lat="40.6416983" lon="14.89776"><ele>37.0</ele><time>2026-04-26T07:04:23.877Z</time></trkpt><trkpt lat="40.6415467" lon="14.89809"><ele>37.5</ele><time>2026-04-26T07:04:24.878Z</time></trkpt><trkpt lat="40.6413967" lon="14.8984183"><ele>38.0</ele><time>2026-04-26T07:04:25.877Z</time></trkpt><trkpt lat="40.6412467" lon="14.89875"><ele>38.5</ele><time>2026-04-26T07:04:26.878Z</time></trkpt><trkpt lat="40.6410967" lon="14.8990783"><ele>39.0</ele><time>2026-04-26T07:04:27.877Z</time></trkpt><trkpt lat="40.640945" lon="14.8994117"><ele>39.0</ele><time>2026-04-26T07:04:28.878Z</time></trkpt><trkpt lat="40.6407933" lon="14.8997483"><ele>39.0</ele><time>2026-04-26T07:04:29.877Z</time></trkpt><trkpt lat="40.640645" lon="14.900075"><ele>39.5</ele><time>2026-04-26T07:04:30.877Z</time></trkpt><trkpt lat="40.64049" lon="14.9004017"><ele>40.0</ele><time>2026-04-26T07:04:31.877Z</time></trkpt><trkpt lat="40.640335" lon="14.90073"><ele>39.5</ele><time>2026-04-26T07:04:32.878Z</time></trkpt><trkpt lat="40.6401833" lon="14.9010533"><ele>39.0</ele><time>2026-04-26T07:04:33.878Z</time></trkpt><trkpt lat="40.6400317" lon="14.9013817"><ele>39.0</ele><time>2026-04-26T07:04:34.878Z</time></trkpt><trkpt lat="40.6398783" lon="14.901715"><ele>39.0</ele><time>2026-04-26T07:04:35.878Z</time></trkpt><trkpt lat="40.639725" lon="14.9020417"><ele>39.5</ele><time>2026-04-26T07:04:36.878Z</time></trkpt><trkpt lat="40.6395717" lon="14.9023733"><ele>40.0</ele><time>2026-04-26T07:04:37.877Z</time></trkpt><trkpt lat="40.639425" lon="14.9026983"><ele>40.0</ele><time>2026-04-26T07:04:38.877Z</time></trkpt><trkpt lat="40.639275" lon="14.9030317"><ele>40.0</ele><time>2026-04-26T07:04:39.878Z</time></trkpt><trkpt lat="40.6391167" lon="14.903375"><ele>39.5</ele><time>2026-04-26T07:04:40.878Z</time></trkpt><trkpt lat="40.6389567" lon="14.9037317"><ele>39.0</ele><time>2026-04-26T07:04:41.878Z</time></trkpt><trkpt lat="40.6387983" lon="14.9040883"><ele>39.5</ele><time>2026-04-26T07:04:42.878Z</time></trkpt><trkpt lat="40.6386367" lon="14.9044417"><ele>40.0</ele><time>2026-04-26T07:04:43.877Z</time></trkpt><trkpt lat="40.638475" lon="14.9047983"><ele>39.5</ele><time>2026-04-26T07:04:44.878Z</time></trkpt><trkpt lat="40.6383083" lon="14.9051667"><ele>39.0</ele><time>2026-04-26T07:04:45.878Z</time></trkpt><trkpt lat="40.6381383" lon="14.9055433"><ele>39.5</ele><time>2026-04-26T07:04:46.878Z</time></trkpt><trkpt lat="40.6379633" lon="14.9059333"><ele>40.0</ele><time>2026-04-26T07:04:47.878Z</time></trkpt><trkpt lat="40.6377883" lon="14.9063217"><ele>40.0</ele><time>2026-04-26T07:04:48.878Z</time></trkpt><trkpt lat="40.6376167" lon="14.9067183"><ele>40.0</ele><time>2026-04-26T07:04:49.877Z</time></trkpt><trkpt lat="40.63745" lon="14.9071133"><ele>40.0</ele><time>2026-04-26T07:04:50.877Z</time></trkpt><trkpt lat="40.637285" lon="14.9075117"><ele>40.0</ele><time>2026-04-26T07:04:51.878Z</time></trkpt><trkpt lat="40.6371217" lon="14.9079133"><ele>39.0</ele><time>2026-04-26T07:04:52.877Z</time></trkpt><trkpt lat="40.6369683" lon="14.9083183"><ele>38.0</ele><time>2026-04-26T07:04:53.878Z</time></trkpt><trkpt lat="40.6368167" lon="14.9087317"><ele>38.0</ele><time>2026-04-26T07:04:54.878Z</time></trkpt><trkpt lat="40.6366567" lon="14.909145"><ele>38.0</ele><time>2026-04-26T07:04:55.878Z</time></trkpt><trkpt lat="40.6365067" lon="14.9095617"><ele>37.5</ele><time>2026-04-26T07:04:56.878Z</time></trkpt><trkpt lat="40.6363667" lon="14.9099783"><ele>37.0</ele><time>2026-04-26T07:04:57.878Z</time></trkpt><trkpt lat="40.63623" lon="14.9104"><ele>38.0</ele><time>2026-04-26T07:04:58.878Z</time></trkpt><trkpt lat="40.63609" lon="14.91083"><ele>39.0</ele><time>2026-04-26T07:04:59.877Z</time></trkpt><trkpt lat="40.6359583" lon="14.9112467"><ele>39.0</ele><time>2026-04-26T07:05:00.877Z</time></trkpt><trkpt lat="40.6358233" lon="14.9116783"><ele>39.0</ele><time>2026-04-26T07:05:01.877Z</time></trkpt><trkpt lat="40.63569" lon="14.9121083"><ele>39.0</ele><time>2026-04-26T07:05:02.877Z</time></trkpt><trkpt lat="40.63555" lon="14.9125367"><ele>39.0</ele><time>2026-04-26T07:05:03.878Z</time></trkpt><trkpt lat="40.63541" lon="14.9129617"><ele>39.5</ele><time>2026-04-26T07:05:04.878Z</time></trkpt><trkpt lat="40.6352683" lon="14.9133867"><ele>40.0</ele><time>2026-04-26T07:05:05.877Z</time></trkpt><trkpt lat="40.6351317" lon="14.913815"><ele>40.0</ele><time>2026-04-26T07:05:06.878Z</time></trkpt><trkpt lat="40.6349933" lon="14.914235"><ele>40.0</ele><time>2026-04-26T07:05:07.877Z</time></trkpt><trkpt lat="40.6348517" lon="14.9146617"><ele>41.0</ele><time>2026-04-26T07:05:08.877Z</time></trkpt><trkpt lat="40.6347083" lon="14.9150867"><ele>42.0</ele><time>2026-04-26T07:05:09.877Z</time></trkpt><trkpt lat="40.6345683" lon="14.915515"><ele>42.0</ele><time>2026-04-26T07:05:10.878Z</time></trkpt><trkpt lat="40.6344217" lon="14.91594"><ele>42.0</ele><time>2026-04-26T07:05:11.877Z</time></trkpt><trkpt lat="40.6342817" lon="14.9163683"><ele>43.0</ele><time>2026-04-26T07:05:12.877Z</time></trkpt><trkpt lat="40.6341433" lon="14.916795"><ele>44.0</ele><time>2026-04-26T07:05:13.877Z</time></trkpt><trkpt lat="40.6340033" lon="14.9172167"><ele>44.5</ele><time>2026-04-26T07:05:14.878Z</time></trkpt><trkpt lat="40.6338617" lon="14.9176433"><ele>45.0</ele><time>2026-04-26T07:05:15.878Z</time></trkpt><trkpt lat="40.63372" lon="14.9180683"><ele>46.5</ele><time>2026-04-26T07:05:16.877Z</time></trkpt><trkpt lat="40.6335783" lon="14.9185"><ele>48.0</ele><time>2026-04-26T07:05:17.877Z</time></trkpt><trkpt lat="40.6334333" lon="14.9189267"><ele>47.5</ele><time>2026-04-26T07:05:18.878Z</time></trkpt><trkpt lat="40.6332883" lon="14.91936"><ele>47.0</ele><time>2026-04-26T07:05:19.877Z</time></trkpt><trkpt lat="40.6331433" lon="14.9197917"><ele>48.0</ele><time>2026-04-26T07:05:20.878Z</time></trkpt><trkpt lat="40.6329983" lon="14.92023"><ele>49.0</ele><time>2026-04-26T07:05:21.878Z</time></trkpt><trkpt lat="40.632855" lon="14.92067"><ele>48.5</ele><time>2026-04-26T07:05:22.877Z</time></trkpt><trkpt lat="40.6327083" lon="14.9211133"><ele>48.0</ele><time>2026-04-26T07:05:23.878Z</time></trkpt><trkpt lat="40.6325667" lon="14.9215533"><ele>49.0</ele><time>2026-04-26T07:05:24.877Z</time></trkpt><trkpt lat="40.6324233" lon="14.9219933"><ele>50.0</ele><time>2026-04-26T07:05:25.877Z</time></trkpt><trkpt lat="40.6322833" lon="14.9224317"><ele>51.0</ele><time>2026-04-26T07:05:26.877Z</time></trkpt><trkpt lat="40.632145" lon="14.9228667"><ele>52.0</ele><time>2026-04-26T07:05:27.877Z</time></trkpt><trkpt lat="40.63201" lon="14.9232733"><ele>51.0</ele><time>2026-04-26T07:05:28.877Z</time></trkpt><trkpt lat="40.6318833" lon="14.9236567"><ele>50.0</ele><time>2026-04-26T07:05:29.878Z</time></trkpt><trkpt lat="40.6317617" lon="14.9240267"><ele>50.5</ele><time>2026-04-26T07:05:30.877Z</time></trkpt><trkpt lat="40.63164" lon="14.9243967"><ele>51.0</ele><time>2026-04-26T07:05:31.878Z</time></trkpt><trkpt lat="40.63152" lon="14.9247633"><ele>52.0</ele><time>2026-04-26T07:05:32.878Z</time></trkpt><trkpt lat="40.6314" lon="14.925125"><ele>53.0</ele><time>2026-04-26T07:05:33.878Z</time></trkpt><trkpt lat="40.6312767" lon="14.9254933"><ele>53.0</ele><time>2026-04-26T07:05:34.877Z</time></trkpt><trkpt lat="40.63115" lon="14.9258733"><ele>53.0</ele><time>2026-04-26T07:05:35.877Z</time></trkpt><trkpt lat="40.6310183" lon="14.9262667"><ele>53.0</ele><time>2026-04-26T07:05:36.878Z</time></trkpt><trkpt lat="40.6308783" lon="14.9266717"><ele>53.0</ele><time>2026-04-26T07:05:37.877Z</time></trkpt><trkpt lat="40.63074" lon="14.9270833"><ele>54.0</ele><time>2026-04-26T07:05:38.878Z</time></trkpt><trkpt lat="40.6306033" lon="14.9275033"><ele>55.0</ele><time>2026-04-26T07:05:39.878Z</time></trkpt><trkpt lat="40.630465" lon="14.9279233"><ele>55.5</ele><time>2026-04-26T07:05:40.878Z</time></trkpt><trkpt lat="40.63032" lon="14.9283467"><ele>56.0</ele><time>2026-04-26T07:05:41.878Z</time></trkpt><trkpt lat="40.63018" lon="14.9287717"><ele>56.5</ele><time>2026-04-26T07:05:42.877Z</time></trkpt><trkpt lat="40.6300383" lon="14.92919"><ele>57.0</ele><time>2026-04-26T07:05:43.878Z</time></trkpt><trkpt lat="40.6298983" lon="14.929615"><ele>58.0</ele><time>2026-04-26T07:05:44.878Z</time></trkpt><trkpt lat="40.629755" lon="14.9300383"><ele>59.0</ele><time>2026-04-26T07:05:45.877Z</time></trkpt><trkpt lat="40.6296167" lon="14.930465"><ele>59.0</ele><time>2026-04-26T07:05:46.877Z</time></trkpt><trkpt lat="40.6294783" lon="14.9309017"><ele>59.0</ele><time>2026-04-26T07:05:47.877Z</time></trkpt><trkpt lat="40.6293533" lon="14.9313283"><ele>59.0</ele><time>2026-04-26T07:05:48.877Z</time></trkpt><trkpt lat="40.6292217" lon="14.93176"><ele>59.0</ele><time>2026-04-26T07:05:49.878Z</time></trkpt><trkpt lat="40.6291" lon="14.9321967"><ele>58.5</ele><time>2026-04-26T07:05:50.878Z</time></trkpt><trkpt lat="40.628985" lon="14.9326367"><ele>58.0</ele><time>2026-04-26T07:05:51.878Z</time></trkpt><trkpt lat="40.6288783" lon="14.93308"><ele>58.0</ele><time>2026-04-26T07:05:52.877Z</time></trkpt><trkpt lat="40.6287767" lon="14.9335333"><ele>58.0</ele><time>2026-04-26T07:05:53.878Z</time></trkpt><trkpt lat="40.628685" lon="14.9339883"><ele>57.0</ele><time>2026-04-26T07:05:54.878Z</time></trkpt><trkpt lat="40.6286033" lon="14.9344467"><ele>56.0</ele><time>2026-04-26T07:05:55.877Z</time></trkpt><trkpt lat="40.62853" lon="14.9349083"><ele>57.0</ele><time>2026-04-26T07:05:56.877Z</time></trkpt><trkpt lat="40.6284667" lon="14.9353667"><ele>58.0</ele><time>2026-04-26T07:05:57.878Z</time></trkpt><trkpt lat="40.6284183" lon="14.93583"><ele>59.0</ele><time>2026-04-26T07:05:58.878Z</time></trkpt><trkpt lat="40.6283767" lon="14.9363033"><ele>60.0</ele><time>2026-04-26T07:05:59.877Z</time></trkpt><trkpt lat="40.6283433" lon="14.9367667"><ele>60.0</ele><time>2026-04-26T07:06:00.878Z</time></trkpt><trkpt lat="40.6283167" lon="14.9372083"><ele>60.0</ele><time>2026-04-26T07:06:01.877Z</time></trkpt><trkpt lat="40.6282983" lon="14.9376333"><ele>61.5</ele><time>2026-04-26T07:06:02.877Z</time></trkpt><trkpt lat="40.62828" lon="14.9380467"><ele>63.0</ele><time>2026-04-26T07:06:03.878Z</time></trkpt><trkpt lat="40.62826" lon="14.9384517"><ele>63.5</ele><time>2026-04-26T07:06:04.877Z</time></trkpt><trkpt lat="40.6282417" lon="14.9388517"><ele>64.0</ele><time>2026-04-26T07:06:05.878Z</time></trkpt><trkpt lat="40.628225" lon="14.939255"><ele>64.0</ele><time>2026-04-26T07:06:06.877Z</time></trkpt><trkpt lat="40.6282067" lon="14.93966"><ele>64.0</ele><time>2026-04-26T07:06:07.877Z</time></trkpt><trkpt lat="40.62819" lon="14.940065"><ele>64.0</ele><time>2026-04-26T07:06:08.877Z</time></trkpt><trkpt lat="40.6281667" lon="14.94049"><ele>64.0</ele><time>2026-04-26T07:06:09.877Z</time></trkpt><trkpt lat="40.6281383" lon="14.9409283"><ele>64.5</ele><time>2026-04-26T07:06:10.878Z</time></trkpt><trkpt lat="40.6280967" lon="14.9413733"><ele>65.0</ele><time>2026-04-26T07:06:11.877Z</time></trkpt><trkpt lat="40.6280467" lon="14.94183"><ele>65.0</ele><time>2026-04-26T07:06:12.877Z</time></trkpt><trkpt lat="40.627985" lon="14.94229"><ele>65.0</ele><time>2026-04-26T07:06:13.877Z</time></trkpt><trkpt lat="40.6279167" lon="14.9427467"><ele>65.0</ele><time>2026-04-26T07:06:14.877Z</time></trkpt><trkpt lat="40.62784" lon="14.94321"><ele>65.0</ele><time>2026-04-26T07:06:15.878Z</time></trkpt><trkpt lat="40.6277483" lon="14.9436733"><ele>64.0</ele><time>2026-04-26T07:06:16.877Z</time></trkpt><trkpt lat="40.627645" lon="14.9441367"><ele>63.0</ele><time>2026-04-26T07:06:17.877Z</time></trkpt><trkpt lat="40.6275283" lon="14.944595"><ele>62.5</ele><time>2026-04-26T07:06:18.878Z</time></trkpt><trkpt lat="40.6274067" lon="14.94505"><ele>62.0</ele><time>2026-04-26T07:06:19.877Z</time></trkpt><trkpt lat="40.62727" lon="14.9455133"><ele>62.0</ele><time>2026-04-26T07:06:20.878Z</time></trkpt><trkpt lat="40.6271217" lon="14.9459667"><ele>62.0</ele><time>2026-04-26T07:06:21.877Z</time></trkpt><trkpt lat="40.6269683" lon="14.9464133"><ele>61.5</ele><time>2026-04-26T07:06:22.878Z</time></trkpt><trkpt lat="40.6268083" lon="14.9468633"><ele>61.0</ele><time>2026-04-26T07:06:23.878Z</time></trkpt><trkpt lat="40.62664" lon="14.94731"><ele>61.0</ele><time>2026-04-26T07:06:24.878Z</time></trkpt><trkpt lat="40.6264667" lon="14.947755"><ele>61.0</ele><time>2026-04-26T07:06:25.877Z</time></trkpt><trkpt lat="40.626295" lon="14.94819"><ele>60.5</ele><time>2026-04-26T07:06:26.877Z</time></trkpt><trkpt lat="40.62613" lon="14.94862"><ele>60.0</ele><time>2026-04-26T07:06:27.877Z</time></trkpt><trkpt lat="40.6259617" lon="14.9490467"><ele>60.0</ele><time>2026-04-26T07:06:28.877Z</time></trkpt><trkpt lat="40.6257917" lon="14.9494733"><ele>60.0</ele><time>2026-04-26T07:06:29.877Z</time></trkpt><trkpt lat="40.625625" lon="14.949905"><ele>60.0</ele><time>2026-04-26T07:06:30.877Z</time></trkpt><trkpt lat="40.6254533" lon="14.9503333"><ele>60.0</ele><time>2026-04-26T07:06:31.877Z</time></trkpt><trkpt lat="40.6252767" lon="14.9507667"><ele>61.0</ele><time>2026-04-26T07:06:32.877Z</time></trkpt><trkpt lat="40.6251017" lon="14.9512"><ele>62.0</ele><time>2026-04-26T07:06:33.878Z</time></trkpt><trkpt lat="40.6249317" lon="14.9516317"><ele>64.0</ele><time>2026-04-26T07:06:34.877Z</time></trkpt><trkpt lat="40.6247633" lon="14.9520667"><ele>66.0</ele><time>2026-04-26T07:06:35.878Z</time></trkpt><trkpt lat="40.6245983" lon="14.952505"><ele>66.0</ele><time>2026-04-26T07:06:36.878Z</time></trkpt><trkpt lat="40.6244333" lon="14.9529267"><ele>66.0</ele><time>2026-04-26T07:06:37.877Z</time></trkpt><trkpt lat="40.6242667" lon="14.9533467"><ele>66.0</ele><time>2026-04-26T07:06:38.878Z</time></trkpt><trkpt lat="40.6241017" lon="14.953775"><ele>66.0</ele><time>2026-04-26T07:06:39.877Z</time></trkpt><trkpt lat="40.623935" lon="14.9542033"><ele>65.5</ele><time>2026-04-26T07:06:40.877Z</time></trkpt><trkpt lat="40.62377" lon="14.9546417"><ele>65.0</ele><time>2026-04-26T07:06:41.877Z</time></trkpt><trkpt lat="40.6236083" lon="14.955085"><ele>65.0</ele><time>2026-04-26T07:06:42.878Z</time></trkpt><trkpt lat="40.6234467" lon="14.955535"><ele>65.0</ele><time>2026-04-26T07:06:43.877Z</time></trkpt><trkpt lat="40.6232883" lon="14.95599"><ele>65.0</ele><time>2026-04-26T07:06:44.877Z</time></trkpt><trkpt lat="40.623135" lon="14.9564467"><ele>65.0</ele><time>2026-04-26T07:06:45.878Z</time></trkpt><trkpt lat="40.62299" lon="14.9569033"><ele>65.0</ele><time>2026-04-26T07:06:46.878Z</time></trkpt><trkpt lat="40.622855" lon="14.9573633"><ele>65.0</ele><time>2026-04-26T07:06:47.877Z</time></trkpt><trkpt lat="40.6227267" lon="14.957815"><ele>63.5</ele><time>2026-04-26T07:06:48.877Z</time></trkpt><trkpt lat="40.6226033" lon="14.9582617"><ele>62.0</ele><time>2026-04-26T07:06:49.878Z</time></trkpt><trkpt lat="40.6224833" lon="14.9586967"><ele>61.5</ele><time>2026-04-26T07:06:50.877Z</time></trkpt><trkpt lat="40.6223667" lon="14.959115"><ele>61.0</ele><time>2026-04-26T07:06:51.878Z</time></trkpt><trkpt lat="40.6222567" lon="14.9595217"><ele>61.0</ele><time>2026-04-26T07:06:52.878Z</time></trkpt><trkpt lat="40.6221483" lon="14.95992"><ele>61.0</ele><time>2026-04-26T07:06:53.877Z</time></trkpt><trkpt lat="40.622045" lon="14.9603083"><ele>59.5</ele><time>2026-04-26T07:06:54.878Z</time></trkpt><trkpt lat="40.6219433" lon="14.9606883"><ele>58.0</ele><time>2026-04-26T07:06:55.877Z</time></trkpt><trkpt lat="40.6218433" lon="14.961065"><ele>58.0</ele><time>2026-04-26T07:06:56.878Z</time></trkpt><trkpt lat="40.62174" lon="14.9614367"><ele>58.0</ele><time>2026-04-26T07:06:57.878Z</time></trkpt><trkpt lat="40.6216417" lon="14.961815"><ele>57.5</ele><time>2026-04-26T07:06:58.877Z</time></trkpt><trkpt lat="40.62154" lon="14.9621983"><ele>57.0</ele><time>2026-04-26T07:06:59.877Z</time></trkpt><trkpt lat="40.6214383" lon="14.9625867"><ele>58.0</ele><time>2026-04-26T07:07:00.878Z</time></trkpt><trkpt lat="40.6213367" lon="14.9629883"><ele>59.0</ele><time>2026-04-26T07:07:01.878Z</time></trkpt><trkpt lat="40.6212333" lon="14.9634083"><ele>59.0</ele><time>2026-04-26T07:07:02.878Z</time></trkpt><trkpt lat="40.6211383" lon="14.9638417"><ele>59.0</ele><time>2026-04-26T07:07:03.878Z</time></trkpt><trkpt lat="40.6210483" lon="14.9642767"><ele>59.0</ele><time>2026-04-26T07:07:04.877Z</time></trkpt><trkpt lat="40.6209667" lon="14.9647233"><ele>59.0</ele><time>2026-04-26T07:07:05.878Z</time></trkpt><trkpt lat="40.6208917" lon="14.9651717"><ele>60.0</ele><time>2026-04-26T07:07:06.878Z</time></trkpt><trkpt lat="40.6208283" lon="14.9656217"><ele>61.0</ele><time>2026-04-26T07:07:07.878Z</time></trkpt><trkpt lat="40.6207717" lon="14.966075"><ele>62.0</ele><time>2026-04-26T07:07:08.878Z</time></trkpt><trkpt lat="40.6207283" lon="14.96653"><ele>63.0</ele><time>2026-04-26T07:07:09.877Z</time></trkpt><trkpt lat="40.6206917" lon="14.9669883"><ele>63.5</ele><time>2026-04-26T07:07:10.878Z</time></trkpt><trkpt lat="40.6206633" lon="14.9674567"><ele>64.0</ele><time>2026-04-26T07:07:11.877Z</time></trkpt><trkpt lat="40.6206367" lon="14.967925"><ele>64.0</ele><time>2026-04-26T07:07:12.878Z</time></trkpt><trkpt lat="40.6206133" lon="14.9683933"><ele>64.0</ele><time>2026-04-26T07:07:13.877Z</time></trkpt><trkpt lat="40.62059" lon="14.9688683"><ele>65.5</ele><time>2026-04-26T07:07:14.877Z</time></trkpt><trkpt lat="40.62057" lon="14.9693383"><ele>67.0</ele><time>2026-04-26T07:07:15.878Z</time></trkpt><trkpt lat="40.6205517" lon="14.9698133"><ele>67.5</ele><time>2026-04-26T07:07:16.877Z</time></trkpt><trkpt lat="40.6205333" lon="14.9702833"><ele>68.0</ele><time>2026-04-26T07:07:17.878Z</time></trkpt><trkpt lat="40.620515" lon="14.9707633"><ele>66.5</ele><time>2026-04-26T07:07:18.877Z</time></trkpt><trkpt lat="40.620495" lon="14.9712417"><ele>65.0</ele><time>2026-04-26T07:07:19.877Z</time></trkpt><trkpt lat="40.6204717" lon="14.9717183"><ele>65.0</ele><time>2026-04-26T07:07:20.878Z</time></trkpt><trkpt lat="40.620445" lon="14.9721983"><ele>65.0</ele><time>2026-04-26T07:07:21.877Z</time></trkpt><trkpt lat="40.6204117" lon="14.972675"><ele>67.0</ele><time>2026-04-26T07:07:22.877Z</time></trkpt><trkpt lat="40.6203617" lon="14.97315"><ele>69.0</ele><time>2026-04-26T07:07:23.877Z</time></trkpt><trkpt lat="40.62031" lon="14.973625"><ele>69.0</ele><time>2026-04-26T07:07:24.878Z</time></trkpt><trkpt lat="40.6202483" lon="14.9740983"><ele>69.0</ele><time>2026-04-26T07:07:25.877Z</time></trkpt><trkpt lat="40.62017" lon="14.9745617"><ele>68.5</ele><time>2026-04-26T07:07:26.877Z</time></trkpt><trkpt lat="40.6200767" lon="14.9750183"><ele>68.0</ele><time>2026-04-26T07:07:27.878Z</time></trkpt><trkpt lat="40.6199683" lon="14.975475"><ele>69.5</ele><time>2026-04-26T07:07:28.878Z</time></trkpt><trkpt lat="40.6198433" lon="14.9759283"><ele>71.0</ele><time>2026-04-26T07:07:29.878Z</time></trkpt><trkpt lat="40.6197083" lon="14.9763783"><ele>71.0</ele><time>2026-04-26T07:07:30.878Z</time></trkpt><trkpt lat="40.6195617" lon="14.9768233"><ele>71.0</ele><time>2026-04-26T07:07:31.877Z</time></trkpt><trkpt lat="40.61941" lon="14.977245"><ele>71.0</ele><time>2026-04-26T07:07:32.877Z</time></trkpt><trkpt lat="40.619245" lon="14.9776383"><ele>71.0</ele><time>2026-04-26T07:07:33.878Z</time></trkpt><trkpt lat="40.6190867" lon="14.9779983"><ele>71.0</ele><time>2026-04-26T07:07:34.878Z</time></trkpt><trkpt lat="40.6189367" lon="14.9783383"><ele>71.0</ele><time>2026-04-26T07:07:35.877Z</time></trkpt><trkpt lat="40.618785" lon="14.9786633"><ele>71.0</ele><time>2026-04-26T07:07:36.877Z</time></trkpt><trkpt lat="40.6186283" lon="14.9789833"><ele>71.0</ele><time>2026-04-26T07:07:37.878Z</time></trkpt><trkpt lat="40.61847" lon="14.9793117"><ele>71.0</ele><time>2026-04-26T07:07:38.877Z</time></trkpt><trkpt lat="40.6183133" lon="14.9796583"><ele>71.0</ele><time>2026-04-26T07:07:39.877Z</time></trkpt><trkpt lat="40.6181633" lon="14.98002"><ele>70.5</ele><time>2026-04-26T07:07:40.878Z</time></trkpt><trkpt lat="40.6180217" lon="14.9804083"><ele>70.0</ele><time>2026-04-26T07:07:41.877Z</time></trkpt><trkpt lat="40.6178883" lon="14.9808067"><ele>70.0</ele><time>2026-04-26T07:07:42.877Z</time></trkpt><trkpt lat="40.6177733" lon="14.981235"><ele>70.0</ele><time>2026-04-26T07:07:43.877Z</time></trkpt><trkpt lat="40.6176683" lon="14.9816733"><ele>71.0</ele><time>2026-04-26T07:07:44.877Z</time></trkpt><trkpt lat="40.6175867" lon="14.9821217"><ele>72.0</ele><time>2026-04-26T07:07:45.877Z</time></trkpt><trkpt lat="40.6175083" lon="14.982585"><ele>72.5</ele><time>2026-04-26T07:07:46.877Z</time></trkpt><trkpt lat="40.6174333" lon="14.98306"><ele>73.0</ele><time>2026-04-26T07:07:47.878Z</time></trkpt><trkpt lat="40.61737" lon="14.98353"><ele>71.5</ele><time>2026-04-26T07:07:48.878Z</time></trkpt><trkpt lat="40.617315" lon="14.984005"><ele>70.0</ele><time>2026-04-26T07:07:49.877Z</time></trkpt><trkpt lat="40.6172617" lon="14.9844767"><ele>69.5</ele><time>2026-04-26T07:07:50.878Z</time></trkpt><trkpt lat="40.617195" lon="14.9849417"><ele>69.0</ele><time>2026-04-26T07:07:51.878Z</time></trkpt><trkpt lat="40.6171133" lon="14.985405"><ele>69.0</ele><time>2026-04-26T07:07:52.878Z</time></trkpt><trkpt lat="40.6170133" lon="14.9858583"><ele>69.0</ele><time>2026-04-26T07:07:53.878Z</time></trkpt><trkpt lat="40.6169033" lon="14.9863083"><ele>71.5</ele><time>2026-04-26T07:07:54.877Z</time></trkpt><trkpt lat="40.6167767" lon="14.98675"><ele>74.0</ele><time>2026-04-26T07:07:55.877Z</time></trkpt><trkpt lat="40.6166333" lon="14.9871817"><ele>77.0</ele><time>2026-04-26T07:07:56.878Z</time></trkpt><trkpt lat="40.61647" lon="14.9876067"><ele>80.0</ele><time>2026-04-26T07:07:57.878Z</time></trkpt><trkpt lat="40.6162933" lon="14.9880217"><ele>82.0</ele><time>2026-04-26T07:07:58.877Z</time></trkpt><trkpt lat="40.6161" lon="14.9884267"><ele>84.0</ele><time>2026-04-26T07:07:59.877Z</time></trkpt><trkpt lat="40.6158967" lon="14.988825"><ele>88.5</ele><time>2026-04-26T07:08:00.878Z</time></trkpt><trkpt lat="40.615685" lon="14.9892167"><ele>93.0</ele><time>2026-04-26T07:08:01.878Z</time></trkpt><trkpt lat="40.6154683" lon="14.9896083"><ele>92.0</ele><time>2026-04-26T07:08:02.878Z</time></trkpt><trkpt lat="40.6152467" lon="14.9899983"><ele>91.0</ele><time>2026-04-26T07:08:03.878Z</time></trkpt><trkpt lat="40.6150283" lon="14.9903967"><ele>91.0</ele><time>2026-04-26T07:08:04.877Z</time></trkpt><trkpt lat="40.6148133" lon="14.9907817"><ele>91.0</ele><time>2026-04-26T07:08:05.878Z</time></trkpt><trkpt lat="40.6145967" lon="14.9911533"><ele>92.5</ele><time>2026-04-26T07:08:06.878Z</time></trkpt><trkpt lat="40.6143733" lon="14.99152"><ele>94.0</ele><time>2026-04-26T07:08:07.878Z</time></trkpt><trkpt lat="40.614135" lon="14.9918783"><ele>96.0</ele><time>2026-04-26T07:08:08.878Z</time></trkpt><trkpt lat="40.6138833" lon="14.9922317"><ele>98.0</ele><time>2026-04-26T07:08:09.878Z</time></trkpt><trkpt lat="40.6136167" lon="14.99257"><ele>98.0</ele><time>2026-04-26T07:08:10.877Z</time></trkpt><trkpt lat="40.6133417" lon="14.9929017"><ele>98.0</ele><time>2026-04-26T07:08:11.878Z</time></trkpt><trkpt lat="40.61306" lon="14.9932283"><ele>96.5</ele><time>2026-04-26T07:08:12.877Z</time></trkpt><trkpt lat="40.61278" lon="14.9935467"><ele>95.0</ele><time>2026-04-26T07:08:13.877Z</time></trkpt><trkpt lat="40.6124967" lon="14.9938633"><ele>93.0</ele><time>2026-04-26T07:08:14.877Z</time></trkpt><trkpt lat="40.6122117" lon="14.9941817"><ele>91.0</ele><time>2026-04-26T07:08:15.877Z</time></trkpt><trkpt lat="40.6119233" lon="14.9945"><ele>91.0</ele><time>2026-04-26T07:08:16.878Z</time></trkpt><trkpt lat="40.6116283" lon="14.9948167"><ele>91.0</ele><time>2026-04-26T07:08:17.877Z</time></trkpt><trkpt lat="40.6113367" lon="14.9951367"><ele>88.5</ele><time>2026-04-26T07:08:18.878Z</time></trkpt><trkpt lat="40.6110417" lon="14.99543"><ele>86.0</ele><time>2026-04-26T07:08:19.878Z</time></trkpt><trkpt lat="40.610735" lon="14.9957"><ele>84.0</ele><time>2026-04-26T07:08:20.878Z</time></trkpt><trkpt lat="40.61042" lon="14.995955"><ele>82.0</ele><time>2026-04-26T07:08:21.877Z</time></trkpt><trkpt lat="40.6100933" lon="14.99619"><ele>82.0</ele><time>2026-04-26T07:08:22.878Z</time></trkpt><trkpt lat="40.60976" lon="14.9964217"><ele>82.0</ele><time>2026-04-26T07:08:23.878Z</time></trkpt><trkpt lat="40.6094167" lon="14.996645"><ele>82.0</ele><time>2026-04-26T07:08:24.877Z</time></trkpt><trkpt lat="40.609075" lon="14.99687"><ele>82.0</ele><time>2026-04-26T07:08:25.878Z</time></trkpt><trkpt lat="40.60874" lon="14.997095"><ele>82.5</ele><time>2026-04-26T07:08:26.878Z</time></trkpt><trkpt lat="40.6084167" lon="14.997315"><ele>83.0</ele><time>2026-04-26T07:08:27.877Z</time></trkpt><trkpt lat="40.6081033" lon="14.9975317"><ele>81.5</ele><time>2026-04-26T07:08:28.877Z</time></trkpt><trkpt lat="40.6077967" lon="14.9977533"><ele>80.0</ele><time>2026-04-26T07:08:29.878Z</time></trkpt><trkpt lat="40.6074967" lon="14.99799"><ele>80.0</ele><time>2026-04-26T07:08:30.878Z</time></trkpt><trkpt lat="40.6071983" lon="14.99825"><ele>80.0</ele><time>2026-04-26T07:08:31.877Z</time></trkpt><trkpt lat="40.6069067" lon="14.9985317"><ele>80.5</ele><time>2026-04-26T07:08:32.877Z</time></trkpt><trkpt lat="40.6066217" lon="14.99883"><ele>81.0</ele><time>2026-04-26T07:08:33.878Z</time></trkpt><trkpt lat="40.6063383" lon="14.9991367"><ele>81.5</ele><time>2026-04-26T07:08:34.877Z</time></trkpt><trkpt lat="40.6060533" lon="14.9994517"><ele>82.0</ele><time>2026-04-26T07:08:35.877Z</time></trkpt><trkpt lat="40.60577" lon="14.9997717"><ele>82.0</ele><time>2026-04-26T07:08:36.877Z</time></trkpt><trkpt lat="40.6054867" lon="15.0000933"><ele>82.0</ele><time>2026-04-26T07:08:37.877Z</time></trkpt><trkpt lat="40.605205" lon="15.0004167"><ele>80.5</ele><time>2026-04-26T07:08:38.877Z</time></trkpt><trkpt lat="40.6049233" lon="15.0007367"><ele>79.0</ele><time>2026-04-26T07:08:39.878Z</time></trkpt><trkpt lat="40.60464" lon="15.0010567"><ele>79.0</ele><time>2026-04-26T07:08:40.878Z</time></trkpt><trkpt lat="40.6043533" lon="15.0013717"><ele>79.0</ele><time>2026-04-26T07:08:41.877Z</time></trkpt><trkpt lat="40.6040617" lon="15.001685"><ele>79.0</ele><time>2026-04-26T07:08:42.878Z</time></trkpt><trkpt lat="40.6037733" lon="15.002005"><ele>79.0</ele><time>2026-04-26T07:08:43.878Z</time></trkpt><trkpt lat="40.6034917" lon="15.0023283"><ele>78.0</ele><time>2026-04-26T07:08:44.877Z</time></trkpt><trkpt lat="40.6032133" lon="15.0026517"><ele>77.0</ele><time>2026-04-26T07:08:45.878Z</time></trkpt><trkpt lat="40.602945" lon="15.0029833"><ele>76.5</ele><time>2026-04-26T07:08:46.878Z</time></trkpt><trkpt lat="40.6026833" lon="15.0033217"><ele>76.0</ele><time>2026-04-26T07:08:47.877Z</time></trkpt><trkpt lat="40.6024317" lon="15.00367"><ele>76.0</ele><time>2026-04-26T07:08:48.877Z</time></trkpt><trkpt lat="40.602195" lon="15.004035"><ele>76.0</ele><time>2026-04-26T07:08:49.878Z</time></trkpt><trkpt lat="40.6019683" lon="15.0044167"><ele>76.0</ele><time>2026-04-26T07:08:50.877Z</time></trkpt><trkpt lat="40.6017617" lon="15.004815"><ele>76.0</ele><time>2026-04-26T07:08:51.878Z</time></trkpt><trkpt lat="40.6015767" lon="15.00523"><ele>76.0</ele><time>2026-04-26T07:08:52.877Z</time></trkpt><trkpt lat="40.6014117" lon="15.005655"><ele>76.0</ele><time>2026-04-26T07:08:53.877Z</time></trkpt><trkpt lat="40.6012633" lon="15.0060933"><ele>75.5</ele><time>2026-04-26T07:08:54.878Z</time></trkpt><trkpt lat="40.6011383" lon="15.0065383"><ele>75.0</ele><time>2026-04-26T07:08:55.877Z</time></trkpt><trkpt lat="40.6010317" lon="15.0069917"><ele>75.0</ele><time>2026-04-26T07:08:56.877Z</time></trkpt><trkpt lat="40.6009483" lon="15.0074433"><ele>75.0</ele><time>2026-04-26T07:08:57.878Z</time></trkpt><trkpt lat="40.6008817" lon="15.0079067"><ele>78.0</ele><time>2026-04-26T07:08:58.878Z</time></trkpt><trkpt lat="40.600835" lon="15.0083683"><ele>81.0</ele><time>2026-04-26T07:08:59.878Z</time></trkpt><trkpt lat="40.600805" lon="15.008835"><ele>81.5</ele><time>2026-04-26T07:09:00.877Z</time></trkpt><trkpt lat="40.6007933" lon="15.0093"><ele>82.0</ele><time>2026-04-26T07:09:01.877Z</time></trkpt><trkpt lat="40.6008033" lon="15.0097717"><ele>81.0</ele><time>2026-04-26T07:09:02.878Z</time></trkpt><trkpt lat="40.6008217" lon="15.010245"><ele>80.0</ele><time>2026-04-26T07:09:03.877Z</time></trkpt><trkpt lat="40.6008483" lon="15.0107183"><ele>81.0</ele><time>2026-04-26T07:09:04.877Z</time></trkpt><trkpt lat="40.6008767" lon="15.0111883"><ele>82.0</ele><time>2026-04-26T07:09:05.877Z</time></trkpt><trkpt lat="40.600905" lon="15.0116617"><ele>83.0</ele><time>2026-04-26T07:09:06.878Z</time></trkpt><trkpt lat="40.6009333" lon="15.0121317"><ele>84.0</ele><time>2026-04-26T07:09:07.878Z</time></trkpt><trkpt lat="40.6009667" lon="15.0126033"><ele>84.0</ele><time>2026-04-26T07:09:08.877Z</time></trkpt><trkpt lat="40.6010017" lon="15.0130767"><ele>84.0</ele><time>2026-04-26T07:09:09.878Z</time></trkpt><trkpt lat="40.601045" lon="15.0135517"><ele>83.0</ele><time>2026-04-26T07:09:10.877Z</time></trkpt><trkpt lat="40.6010983" lon="15.0140217"><ele>82.0</ele><time>2026-04-26T07:09:11.878Z</time></trkpt><trkpt lat="40.6011617" lon="15.0144883"><ele>90.0</ele><time>2026-04-26T07:09:12.878Z</time></trkpt><trkpt lat="40.6012367" lon="15.0149533"><ele>98.0</ele><time>2026-04-26T07:09:13.878Z</time></trkpt><trkpt lat="40.6013183" lon="15.0154167"><ele>96.0</ele><time>2026-04-26T07:09:14.878Z</time></trkpt><trkpt lat="40.601395" lon="15.015885"><ele>94.0</ele><time>2026-04-26T07:09:15.877Z</time></trkpt><trkpt lat="40.60147" lon="15.0163467"><ele>93.0</ele><time>2026-04-26T07:09:16.877Z</time></trkpt><trkpt lat="40.6015483" lon="15.01681"><ele>92.0</ele><time>2026-04-26T07:09:17.878Z</time></trkpt><trkpt lat="40.6016233" lon="15.017265"><ele>90.5</ele><time>2026-04-26T07:09:18.877Z</time></trkpt><trkpt lat="40.6016983" lon="15.0177283"><ele>89.0</ele><time>2026-04-26T07:09:19.878Z</time></trkpt><trkpt lat="40.6017717" lon="15.0181867"><ele>86.5</ele><time>2026-04-26T07:09:20.878Z</time></trkpt><trkpt lat="40.6018467" lon="15.0186467"><ele>84.0</ele><time>2026-04-26T07:09:21.878Z</time></trkpt><trkpt lat="40.6019183" lon="15.0191067"><ele>81.5</ele><time>2026-04-26T07:09:22.877Z</time></trkpt><trkpt lat="40.60199" lon="15.0195733"><ele>79.0</ele><time>2026-04-26T07:09:23.877Z</time></trkpt><trkpt lat="40.6020667" lon="15.0200367"><ele>89.0</ele><time>2026-04-26T07:09:24.878Z</time></trkpt><trkpt lat="40.602145" lon="15.0204933"><ele>99.0</ele><time>2026-04-26T07:09:25.877Z</time></trkpt><trkpt lat="40.60222" lon="15.0209567"><ele>99.0</ele><time>2026-04-26T07:09:26.878Z</time></trkpt><trkpt lat="40.6022967" lon="15.0214267"><ele>99.0</ele><time>2026-04-26T07:09:27.878Z</time></trkpt><trkpt lat="40.602375" lon="15.0218917"><ele>94.5</ele><time>2026-04-26T07:09:28.878Z</time></trkpt><trkpt lat="40.6024517" lon="15.0223567"><ele>90.0</ele><time>2026-04-26T07:09:29.878Z</time></trkpt><trkpt lat="40.6025283" lon="15.0228217"><ele>88.0</ele><time>2026-04-26T07:09:30.877Z</time></trkpt><trkpt lat="40.602605" lon="15.0232867"><ele>86.0</ele><time>2026-04-26T07:09:31.877Z</time></trkpt><trkpt lat="40.6026783" lon="15.02376"><ele>84.0</ele><time>2026-04-26T07:09:32.878Z</time></trkpt><trkpt lat="40.6027483" lon="15.0242367"><ele>82.0</ele><time>2026-04-26T07:09:33.877Z</time></trkpt><trkpt lat="40.60282" lon="15.024715"><ele>87.0</ele><time>2026-04-26T07:09:34.878Z</time></trkpt><trkpt lat="40.6028867" lon="15.0251967"><ele>92.0</ele><time>2026-04-26T07:09:35.877Z</time></trkpt><trkpt lat="40.6029467" lon="15.0256783"><ele>90.5</ele><time>2026-04-26T07:09:36.877Z</time></trkpt><trkpt lat="40.6029967" lon="15.02616"><ele>89.0</ele><time>2026-04-26T07:09:37.878Z</time></trkpt><trkpt lat="40.6030367" lon="15.0266433"><ele>91.0</ele><time>2026-04-26T07:09:38.878Z</time></trkpt><trkpt lat="40.6030683" lon="15.0271333"><ele>93.0</ele><time>2026-04-26T07:09:39.878Z</time></trkpt><trkpt lat="40.6030933" lon="15.0276333"><ele>94.5</ele><time>2026-04-26T07:09:40.878Z</time></trkpt><trkpt lat="40.6031183" lon="15.0281267"><ele>96.0</ele><time>2026-04-26T07:09:41.878Z</time></trkpt><trkpt lat="40.6031417" lon="15.0286017"><ele>97.0</ele><time>2026-04-26T07:09:42.878Z</time></trkpt><trkpt lat="40.6031633" lon="15.0290533"><ele>98.0</ele><time>2026-04-26T07:09:43.877Z</time></trkpt><trkpt lat="40.603185" lon="15.029485"><ele>98.0</ele><time>2026-04-26T07:09:44.877Z</time></trkpt><trkpt lat="40.603215" lon="15.0299017"><ele>98.0</ele><time>2026-04-26T07:09:45.878Z</time></trkpt><trkpt lat="40.6032417" lon="15.03031"><ele>99.5</ele><time>2026-04-26T07:09:46.877Z</time></trkpt><trkpt lat="40.603275" lon="15.03071"><ele>101.0</ele><time>2026-04-26T07:09:47.877Z</time></trkpt><trkpt lat="40.6033083" lon="15.0311017"><ele>101.0</ele><time>2026-04-26T07:09:48.878Z</time></trkpt><trkpt lat="40.6033517" lon="15.0314933"><ele>101.0</ele><time>2026-04-26T07:09:49.877Z</time></trkpt><trkpt lat="40.6034133" lon="15.0318883"><ele>99.5</ele><time>2026-04-26T07:09:50.877Z</time></trkpt><trkpt lat="40.603485" lon="15.032295"><ele>98.0</ele><time>2026-04-26T07:09:51.878Z</time></trkpt><trkpt lat="40.6035667" lon="15.0327183"><ele>101.5</ele><time>2026-04-26T07:09:52.878Z</time></trkpt><trkpt lat="40.6036667" lon="15.033145"><ele>105.0</ele><time>2026-04-26T07:09:53.877Z</time></trkpt><trkpt lat="40.60379" lon="15.03358"><ele>105.0</ele><time>2026-04-26T07:09:54.877Z</time></trkpt><trkpt lat="40.6039233" lon="15.0340233"><ele>105.0</ele><time>2026-04-26T07:09:55.877Z</time></trkpt><trkpt lat="40.6040683" lon="15.0344733"><ele>100.5</ele><time>2026-04-26T07:09:56.878Z</time></trkpt><trkpt lat="40.6042283" lon="15.0349183"><ele>96.0</ele><time>2026-04-26T07:09:57.878Z</time></trkpt><trkpt lat="40.604395" lon="15.0353617"><ele>100.5</ele><time>2026-04-26T07:09:58.877Z</time></trkpt><trkpt lat="40.60456" lon="15.0358033"><ele>105.0</ele><time>2026-04-26T07:09:59.877Z</time></trkpt><trkpt lat="40.6047233" lon="15.0362467"><ele>100.0</ele><time>2026-04-26T07:10:00.877Z</time></trkpt><trkpt lat="40.6048883" lon="15.036685"><ele>95.0</ele><time>2026-04-26T07:10:01.878Z</time></trkpt><trkpt lat="40.6050517" lon="15.037125"><ele>91.5</ele><time>2026-04-26T07:10:02.877Z</time></trkpt><trkpt lat="40.605215" lon="15.037565"><ele>88.0</ele><time>2026-04-26T07:10:03.878Z</time></trkpt><trkpt lat="40.60538" lon="15.038005"><ele>97.5</ele><time>2026-04-26T07:10:04.878Z</time></trkpt><trkpt lat="40.6055383" lon="15.03845"><ele>107.0</ele><time>2026-04-26T07:10:05.878Z</time></trkpt><trkpt lat="40.6057" lon="15.0388933"><ele>103.5</ele><time>2026-04-26T07:10:06.878Z</time></trkpt><trkpt lat="40.60586" lon="15.0393383"><ele>100.0</ele><time>2026-04-26T07:10:07.878Z</time></trkpt><trkpt lat="40.60602" lon="15.0397883"><ele>110.0</ele><time>2026-04-26T07:10:08.877Z</time></trkpt><trkpt lat="40.6061767" lon="15.040245"><ele>120.0</ele><time>2026-04-26T07:10:09.878Z</time></trkpt><trkpt lat="40.6063267" lon="15.0406933"><ele>114.0</ele><time>2026-04-26T07:10:10.877Z</time></trkpt><trkpt lat="40.6064633" lon="15.041145"><ele>108.0</ele><time>2026-04-26T07:10:11.878Z</time></trkpt><trkpt lat="40.60658" lon="15.0415917"><ele>102.0</ele><time>2026-04-26T07:10:12.878Z</time></trkpt><trkpt lat="40.6066767" lon="15.0420417"><ele>96.0</ele><time>2026-04-26T07:10:13.878Z</time></trkpt><trkpt lat="40.6067617" lon="15.0424933"><ele>90.5</ele><time>2026-04-26T07:10:14.877Z</time></trkpt><trkpt lat="40.6068367" lon="15.0429533"><ele>85.0</ele><time>2026-04-26T07:10:15.878Z</time></trkpt><trkpt lat="40.6069067" lon="15.0434167"><ele>85.5</ele><time>2026-04-26T07:10:16.878Z</time></trkpt><trkpt lat="40.6069717" lon="15.04388"><ele>86.0</ele><time>2026-04-26T07:10:17.878Z</time></trkpt><trkpt lat="40.60704" lon="15.04434"><ele>86.0</ele><time>2026-04-26T07:10:18.877Z</time></trkpt><trkpt lat="40.60711" lon="15.0448033"><ele>86.0</ele><time>2026-04-26T07:10:19.877Z</time></trkpt><trkpt lat="40.6071783" lon="15.045275"><ele>82.5</ele><time>2026-04-26T07:10:20.877Z</time></trkpt><trkpt lat="40.6072467" lon="15.0457533"><ele>79.0</ele><time>2026-04-26T07:10:21.878Z</time></trkpt><trkpt lat="40.6073183" lon="15.0462367"><ele>78.0</ele><time>2026-04-26T07:10:22.878Z</time></trkpt><trkpt lat="40.6073883" lon="15.04672"><ele>77.0</ele><time>2026-04-26T07:10:23.878Z</time></trkpt><trkpt lat="40.607455" lon="15.0471967"><ele>77.0</ele><time>2026-04-26T07:10:24.878Z</time></trkpt><trkpt lat="40.6075183" lon="15.0476617"><ele>77.0</ele><time>2026-04-26T07:10:25.877Z</time></trkpt><trkpt lat="40.6075817" lon="15.0481233"><ele>77.0</ele><time>2026-04-26T07:10:26.878Z</time></trkpt><trkpt lat="40.6076367" lon="15.0485883"><ele>77.0</ele><time>2026-04-26T07:10:27.877Z</time></trkpt><trkpt lat="40.6076767" lon="15.04906"><ele>77.5</ele><time>2026-04-26T07:10:28.877Z</time></trkpt><trkpt lat="40.6077083" lon="15.049525"><ele>78.0</ele><time>2026-04-26T07:10:29.878Z</time></trkpt><trkpt lat="40.6077267" lon="15.0499933"><ele>77.0</ele><time>2026-04-26T07:10:30.878Z</time></trkpt><trkpt lat="40.6077383" lon="15.0504383"><ele>76.0</ele><time>2026-04-26T07:10:31.877Z</time></trkpt><trkpt lat="40.6077383" lon="15.0508567"><ele>75.5</ele><time>2026-04-26T07:10:32.878Z</time></trkpt><trkpt lat="40.6077317" lon="15.051255"><ele>75.0</ele><time>2026-04-26T07:10:33.878Z</time></trkpt><trkpt lat="40.6077183" lon="15.051625"><ele>77.0</ele><time>2026-04-26T07:10:34.878Z</time></trkpt><trkpt lat="40.607695" lon="15.0519717"><ele>79.0</ele><time>2026-04-26T07:10:35.878Z</time></trkpt><trkpt lat="40.6076733" lon="15.0522817"><ele>79.0</ele><time>2026-04-26T07:10:36.878Z</time></trkpt><trkpt lat="40.6076617" lon="15.0525433"><ele>79.0</ele><time>2026-04-26T07:10:37.877Z</time></trkpt><trkpt lat="40.6076533" lon="15.052765"><ele>79.0</ele><time>2026-04-26T07:10:38.877Z</time></trkpt><trkpt lat="40.6076567" lon="15.052965"><ele>79.0</ele><time>2026-04-26T07:10:39.878Z</time></trkpt><trkpt lat="40.6076583" lon="15.053165"><ele>79.0</ele><time>2026-04-26T07:10:40.878Z</time></trkpt><trkpt lat="40.6076617" lon="15.0533633"><ele>79.0</ele><time>2026-04-26T07:10:41.878Z</time></trkpt><trkpt lat="40.60766" lon="15.0535533"><ele>79.0</ele><time>2026-04-26T07:10:42.877Z</time></trkpt><trkpt lat="40.6076617" lon="15.05373"><ele>79.25</ele><time>2026-04-26T07:10:43.878Z</time></trkpt><trkpt lat="40.60767" lon="15.053905"><ele>79.5</ele><time>2026-04-26T07:10:44.878Z</time></trkpt><trkpt lat="40.6076767" lon="15.0540967"><ele>79.75</ele><time>2026-04-26T07:10:45.877Z</time></trkpt><trkpt lat="40.60768" lon="15.0543117"><ele>80.0</ele><time>2026-04-26T07:10:46.877Z</time></trkpt><trkpt lat="40.607675" lon="15.0545483"><ele>80.0</ele><time>2026-04-26T07:10:47.878Z</time></trkpt><trkpt lat="40.60767" lon="15.05482"><ele>80.0</ele><time>2026-04-26T07:10:48.877Z</time></trkpt><trkpt lat="40.607665" lon="15.0551117"><ele>80.0</ele><time>2026-04-26T07:10:49.878Z</time></trkpt><trkpt lat="40.6076733" lon="15.0554483"><ele>80.5</ele><time>2026-04-26T07:10:50.877Z</time></trkpt><trkpt lat="40.6076767" lon="15.0558083"><ele>81.0</ele><time>2026-04-26T07:10:51.877Z</time></trkpt><trkpt lat="40.607695" lon="15.05619"><ele>81.0</ele><time>2026-04-26T07:10:52.878Z</time></trkpt><trkpt lat="40.6077133" lon="15.0565883"><ele>81.0</ele><time>2026-04-26T07:10:53.878Z</time></trkpt><trkpt lat="40.60773" lon="15.057"><ele>79.5</ele><time>2026-04-26T07:10:54.878Z</time></trkpt><trkpt lat="40.6077417" lon="15.05743"><ele>78.0</ele><time>2026-04-26T07:10:55.878Z</time></trkpt><trkpt lat="40.6077467" lon="15.0578717"><ele>77.5</ele><time>2026-04-26T07:10:56.878Z</time></trkpt><trkpt lat="40.607745" lon="15.0583233"><ele>77.0</ele><time>2026-04-26T07:10:57.877Z</time></trkpt><trkpt lat="40.607735" lon="15.0587867"><ele>77.0</ele><time>2026-04-26T07:10:58.877Z</time></trkpt><trkpt lat="40.6077183" lon="15.0592567"><ele>77.0</ele><time>2026-04-26T07:10:59.877Z</time></trkpt><trkpt lat="40.6077117" lon="15.0597233"><ele>77.0</ele><time>2026-04-26T07:11:00.877Z</time></trkpt><trkpt lat="40.607715" lon="15.0601967"><ele>77.0</ele><time>2026-04-26T07:11:01.877Z</time></trkpt><trkpt lat="40.60771" lon="15.0606817"><ele>77.0</ele><time>2026-04-26T07:11:02.877Z</time></trkpt><trkpt lat="40.60771" lon="15.0611667"><ele>77.0</ele><time>2026-04-26T07:11:03.878Z</time></trkpt><trkpt lat="40.6077067" lon="15.0616517"><ele>77.0</ele><time>2026-04-26T07:11:04.877Z</time></trkpt><trkpt lat="40.607705" lon="15.0621433"><ele>77.0</ele><time>2026-04-26T07:11:05.878Z</time></trkpt><trkpt lat="40.6077" lon="15.0626367"><ele>76.0</ele><time>2026-04-26T07:11:06.878Z</time></trkpt><trkpt lat="40.6077" lon="15.0631317"><ele>75.0</ele><time>2026-04-26T07:11:07.878Z</time></trkpt><trkpt lat="40.6077" lon="15.0636283"><ele>73.0</ele><time>2026-04-26T07:11:08.877Z</time></trkpt><trkpt lat="40.6077" lon="15.0641233"><ele>71.0</ele><time>2026-04-26T07:11:09.878Z</time></trkpt><trkpt lat="40.6077017" lon="15.0646167"><ele>71.0</ele><time>2026-04-26T07:11:10.878Z</time></trkpt><trkpt lat="40.6076983" lon="15.0651183"><ele>71.0</ele><time>2026-04-26T07:11:11.877Z</time></trkpt><trkpt lat="40.6076967" lon="15.0656217"><ele>70.5</ele><time>2026-04-26T07:11:12.878Z</time></trkpt><trkpt lat="40.607695" lon="15.0661217"><ele>70.0</ele><time>2026-04-26T07:11:13.878Z</time></trkpt><trkpt lat="40.6076933" lon="15.06661"><ele>69.5</ele><time>2026-04-26T07:11:14.877Z</time></trkpt><trkpt lat="40.6076983" lon="15.06709"><ele>69.0</ele><time>2026-04-26T07:11:15.877Z</time></trkpt><trkpt lat="40.6077083" lon="15.06756"><ele>69.0</ele><time>2026-04-26T07:11:16.877Z</time></trkpt><trkpt lat="40.6077233" lon="15.0680267"><ele>69.0</ele><time>2026-04-26T07:11:17.877Z</time></trkpt><trkpt lat="40.6077433" lon="15.0684883"><ele>69.0</ele><time>2026-04-26T07:11:18.877Z</time></trkpt><trkpt lat="40.6077683" lon="15.068945"><ele>69.0</ele><time>2026-04-26T07:11:19.877Z</time></trkpt><trkpt lat="40.6078017" lon="15.0694017"><ele>70.0</ele><time>2026-04-26T07:11:20.878Z</time></trkpt><trkpt lat="40.6078417" lon="15.0698533"><ele>71.0</ele><time>2026-04-26T07:11:21.877Z</time></trkpt><trkpt lat="40.607885" lon="15.070305"><ele>71.0</ele><time>2026-04-26T07:11:22.878Z</time></trkpt><trkpt lat="40.607935" lon="15.0707533"><ele>71.0</ele><time>2026-04-26T07:11:23.878Z</time></trkpt><trkpt lat="40.60799" lon="15.0712"><ele>73.5</ele><time>2026-04-26T07:11:24.877Z</time></trkpt><trkpt lat="40.608055" lon="15.0716383"><ele>76.0</ele><time>2026-04-26T07:11:25.878Z</time></trkpt><trkpt lat="40.6081183" lon="15.072075"><ele>76.0</ele><time>2026-04-26T07:11:26.877Z</time></trkpt><trkpt lat="40.6081933" lon="15.0725033"><ele>76.0</ele><time>2026-04-26T07:11:27.878Z</time></trkpt><trkpt lat="40.6082683" lon="15.072945"><ele>75.5</ele><time>2026-04-26T07:11:28.878Z</time></trkpt><trkpt lat="40.6083483" lon="15.0733817"><ele>75.0</ele><time>2026-04-26T07:11:29.878Z</time></trkpt><trkpt lat="40.60843" lon="15.073825"><ele>77.0</ele><time>2026-04-26T07:11:30.877Z</time></trkpt><trkpt lat="40.60851" lon="15.07427"><ele>79.0</ele><time>2026-04-26T07:11:31.878Z</time></trkpt><trkpt lat="40.608595" lon="15.0747233"><ele>79.5</ele><time>2026-04-26T07:11:32.877Z</time></trkpt><trkpt lat="40.6086933" lon="15.0751683"><ele>80.0</ele><time>2026-04-26T07:11:33.878Z</time></trkpt><trkpt lat="40.6087817" lon="15.0755967"><ele>80.5</ele><time>2026-04-26T07:11:34.877Z</time></trkpt><trkpt lat="40.6088683" lon="15.0760333"><ele>81.0</ele><time>2026-04-26T07:11:35.878Z</time></trkpt><trkpt lat="40.6089517" lon="15.0764683"><ele>81.0</ele><time>2026-04-26T07:11:36.877Z</time></trkpt><trkpt lat="40.6090367" lon="15.0769083"><ele>81.0</ele><time>2026-04-26T07:11:37.877Z</time></trkpt><trkpt lat="40.60912" lon="15.0773483"><ele>81.5</ele><time>2026-04-26T07:11:38.878Z</time></trkpt><trkpt lat="40.609205" lon="15.07779"><ele>82.0</ele><time>2026-04-26T07:11:39.878Z</time></trkpt><trkpt lat="40.6092883" lon="15.078235"><ele>84.0</ele><time>2026-04-26T07:11:40.878Z</time></trkpt><trkpt lat="40.609365" lon="15.0786867"><ele>86.0</ele><time>2026-04-26T07:11:41.877Z</time></trkpt><trkpt lat="40.609435" lon="15.0791417"><ele>86.5</ele><time>2026-04-26T07:11:42.877Z</time></trkpt><trkpt lat="40.6094867" lon="15.079605"><ele>87.0</ele><time>2026-04-26T07:11:43.877Z</time></trkpt><trkpt lat="40.6095283" lon="15.08007"><ele>88.0</ele><time>2026-04-26T07:11:44.878Z</time></trkpt><trkpt lat="40.6095683" lon="15.0805433"><ele>89.0</ele><time>2026-04-26T07:11:45.877Z</time></trkpt><trkpt lat="40.6095933" lon="15.0810233"><ele>89.5</ele><time>2026-04-26T07:11:46.877Z</time></trkpt><trkpt lat="40.6096183" lon="15.081505"><ele>90.0</ele><time>2026-04-26T07:11:47.878Z</time></trkpt><trkpt lat="40.60964" lon="15.0819833"><ele>90.5</ele><time>2026-04-26T07:11:48.877Z</time></trkpt><trkpt lat="40.6096533" lon="15.0824617"><ele>91.0</ele><time>2026-04-26T07:11:49.877Z</time></trkpt><trkpt lat="40.60966" lon="15.0829433"><ele>90.5</ele><time>2026-04-26T07:11:50.878Z</time></trkpt><trkpt lat="40.609655" lon="15.083425"><ele>90.0</ele><time>2026-04-26T07:11:51.878Z</time></trkpt><trkpt lat="40.6096467" lon="15.0839117"><ele>90.0</ele><time>2026-04-26T07:11:52.877Z</time></trkpt><trkpt lat="40.6096317" lon="15.0843967"><ele>90.0</ele><time>2026-04-26T07:11:53.877Z</time></trkpt><trkpt lat="40.60961" lon="15.0848783"><ele>88.5</ele><time>2026-04-26T07:11:54.878Z</time></trkpt><trkpt lat="40.6095833" lon="15.0853617"><ele>87.0</ele><time>2026-04-26T07:11:55.878Z</time></trkpt><trkpt lat="40.6095517" lon="15.0858417"><ele>87.0</ele><time>2026-04-26T07:11:56.877Z</time></trkpt><trkpt lat="40.6095217" lon="15.086315"><ele>87.0</ele><time>2026-04-26T07:11:57.878Z</time></trkpt><trkpt lat="40.6094933" lon="15.0867867"><ele>87.0</ele><time>2026-04-26T07:11:58.877Z</time></trkpt><trkpt lat="40.6094617" lon="15.087255"><ele>87.0</ele><time>2026-04-26T07:11:59.877Z</time></trkpt><trkpt lat="40.6094333" lon="15.087715"><ele>88.5</ele><time>2026-04-26T07:12:00.878Z</time></trkpt><trkpt lat="40.609405" lon="15.0881833"><ele>90.0</ele><time>2026-04-26T07:12:01.878Z</time></trkpt><trkpt lat="40.609365" lon="15.08865"><ele>92.0</ele><time>2026-04-26T07:12:02.878Z</time></trkpt><trkpt lat="40.6093133" lon="15.0891267"><ele>94.0</ele><time>2026-04-26T07:12:03.878Z</time></trkpt><trkpt lat="40.609245" lon="15.0895883"><ele>95.0</ele><time>2026-04-26T07:12:04.877Z</time></trkpt><trkpt lat="40.609175" lon="15.0900583"><ele>96.0</ele><time>2026-04-26T07:12:05.878Z</time></trkpt><trkpt lat="40.6090733" lon="15.0905283"><ele>96.0</ele><time>2026-04-26T07:12:06.878Z</time></trkpt><trkpt lat="40.6089567" lon="15.090995"><ele>96.0</ele><time>2026-04-26T07:12:07.877Z</time></trkpt><trkpt lat="40.6088317" lon="15.0914667"><ele>96.0</ele><time>2026-04-26T07:12:08.877Z</time></trkpt><trkpt lat="40.6086917" lon="15.09193"><ele>96.0</ele><time>2026-04-26T07:12:09.877Z</time></trkpt><trkpt lat="40.6085433" lon="15.092395"><ele>95.5</ele><time>2026-04-26T07:12:10.877Z</time></trkpt><trkpt lat="40.6083867" lon="15.092855"><ele>95.0</ele><time>2026-04-26T07:12:11.878Z</time></trkpt><trkpt lat="40.6082283" lon="15.0933183"><ele>95.0</ele><time>2026-04-26T07:12:12.878Z</time></trkpt><trkpt lat="40.608065" lon="15.0937817"><ele>95.0</ele><time>2026-04-26T07:12:13.877Z</time></trkpt><trkpt lat="40.6079133" lon="15.0942367"><ele>95.0</ele><time>2026-04-26T07:12:14.878Z</time></trkpt><trkpt lat="40.6077667" lon="15.0946817"><ele>95.0</ele><time>2026-04-26T07:12:15.878Z</time></trkpt><trkpt lat="40.60763" lon="15.0951117"><ele>95.5</ele><time>2026-04-26T07:12:16.878Z</time></trkpt><trkpt lat="40.6075" lon="15.095535"><ele>96.0</ele><time>2026-04-26T07:12:17.878Z</time></trkpt><trkpt lat="40.6073717" lon="15.0959533"><ele>96.0</ele><time>2026-04-26T07:12:18.877Z</time></trkpt><trkpt lat="40.6072517" lon="15.0963733"><ele>96.0</ele><time>2026-04-26T07:12:19.878Z</time></trkpt><trkpt lat="40.6071433" lon="15.0967883"><ele>96.0</ele><time>2026-04-26T07:12:20.877Z</time></trkpt><trkpt lat="40.6070383" lon="15.097205"><ele>96.0</ele><time>2026-04-26T07:12:21.878Z</time></trkpt><trkpt lat="40.6069367" lon="15.0976267"><ele>96.0</ele><time>2026-04-26T07:12:22.878Z</time></trkpt><trkpt lat="40.6068467" lon="15.0980483"><ele>96.0</ele><time>2026-04-26T07:12:23.877Z</time></trkpt><trkpt lat="40.6067583" lon="15.09847"><ele>96.0</ele><time>2026-04-26T07:12:24.878Z</time></trkpt><trkpt lat="40.6066733" lon="15.098895"><ele>96.0</ele><time>2026-04-26T07:12:25.877Z</time></trkpt><trkpt lat="40.60659" lon="15.09932"><ele>96.0</ele><time>2026-04-26T07:12:26.878Z</time></trkpt><trkpt lat="40.60651" lon="15.0997483"><ele>96.0</ele><time>2026-04-26T07:12:27.877Z</time></trkpt><trkpt lat="40.6064317" lon="15.10018"><ele>96.0</ele><time>2026-04-26T07:12:28.878Z</time></trkpt><trkpt lat="40.606355" lon="15.100615"><ele>96.0</ele><time>2026-04-26T07:12:29.878Z</time></trkpt><trkpt lat="40.6062817" lon="15.1010517"><ele>96.0</ele><time>2026-04-26T07:12:30.878Z</time></trkpt><trkpt lat="40.6062067" lon="15.1014883"><ele>96.0</ele><time>2026-04-26T07:12:31.877Z</time></trkpt><trkpt lat="40.6061383" lon="15.101925"><ele>96.0</ele><time>2026-04-26T07:12:32.878Z</time></trkpt><trkpt lat="40.6060817" lon="15.1023717"><ele>96.0</ele><time>2026-04-26T07:12:33.877Z</time></trkpt><trkpt lat="40.60604" lon="15.1028167"><ele>97.0</ele><time>2026-04-26T07:12:34.878Z</time></trkpt><trkpt lat="40.60601" lon="15.1032683"><ele>98.0</ele><time>2026-04-26T07:12:35.877Z</time></trkpt><trkpt lat="40.6059933" lon="15.1037233"><ele>98.5</ele><time>2026-04-26T07:12:36.877Z</time></trkpt><trkpt lat="40.6059917" lon="15.1041833"><ele>99.0</ele><time>2026-04-26T07:12:37.878Z</time></trkpt><trkpt lat="40.6059967" lon="15.1046433"><ele>99.5</ele><time>2026-04-26T07:12:38.877Z</time></trkpt><trkpt lat="40.60601" lon="15.1051"><ele>100.0</ele><time>2026-04-26T07:12:39.878Z</time></trkpt><trkpt lat="40.606035" lon="15.1055533"><ele>99.5</ele><time>2026-04-26T07:12:40.878Z</time></trkpt><trkpt lat="40.6060633" lon="15.10599"><ele>99.0</ele><time>2026-04-26T07:12:41.878Z</time></trkpt><trkpt lat="40.6060883" lon="15.1064117"><ele>96.5</ele><time>2026-04-26T07:12:42.877Z</time></trkpt><trkpt lat="40.6061117" lon="15.106825"><ele>94.0</ele><time>2026-04-26T07:12:43.878Z</time></trkpt><trkpt lat="40.6061333" lon="15.1072333"><ele>94.0</ele><time>2026-04-26T07:12:44.878Z</time></trkpt><trkpt lat="40.60616" lon="15.1076367"><ele>94.0</ele><time>2026-04-26T07:12:45.877Z</time></trkpt><trkpt lat="40.6061867" lon="15.108045"><ele>97.0</ele><time>2026-04-26T07:12:46.877Z</time></trkpt><trkpt lat="40.6062133" lon="15.108455"><ele>100.0</ele><time>2026-04-26T07:12:47.877Z</time></trkpt><trkpt lat="40.60624" lon="15.1088683"><ele>102.0</ele><time>2026-04-26T07:12:48.877Z</time></trkpt><trkpt lat="40.6062633" lon="15.10928"><ele>104.0</ele><time>2026-04-26T07:12:49.877Z</time></trkpt><trkpt lat="40.606285" lon="15.1097"><ele>104.5</ele><time>2026-04-26T07:12:50.877Z</time></trkpt><trkpt lat="40.6063117" lon="15.110115"><ele>105.0</ele><time>2026-04-26T07:12:51.878Z</time></trkpt><trkpt lat="40.6063367" lon="15.1105333"><ele>104.5</ele><time>2026-04-26T07:12:52.877Z</time></trkpt><trkpt lat="40.6063583" lon="15.110955"><ele>104.0</ele><time>2026-04-26T07:12:53.878Z</time></trkpt><trkpt lat="40.606385" lon="15.1113783"><ele>104.5</ele><time>2026-04-26T07:12:54.878Z</time></trkpt><trkpt lat="40.6064067" lon="15.111795"><ele>105.0</ele><time>2026-04-26T07:12:55.877Z</time></trkpt><trkpt lat="40.6064317" lon="15.112215"><ele>106.0</ele><time>2026-04-26T07:12:56.878Z</time></trkpt><trkpt lat="40.6064617" lon="15.112635"><ele>107.0</ele><time>2026-04-26T07:12:57.877Z</time></trkpt><trkpt lat="40.606485" lon="15.1130517"><ele>107.0</ele><time>2026-04-26T07:12:58.878Z</time></trkpt><trkpt lat="40.606505" lon="15.1134683"><ele>107.0</ele><time>2026-04-26T07:12:59.877Z</time></trkpt><trkpt lat="40.6065283" lon="15.1138867"><ele>107.0</ele><time>2026-04-26T07:13:00.877Z</time></trkpt><trkpt lat="40.6065517" lon="15.1143033"><ele>107.0</ele><time>2026-04-26T07:13:01.877Z</time></trkpt><trkpt lat="40.6065767" lon="15.114725"><ele>107.5</ele><time>2026-04-26T07:13:02.877Z</time></trkpt><trkpt lat="40.6066117" lon="15.115135"><ele>108.0</ele><time>2026-04-26T07:13:03.878Z</time></trkpt><trkpt lat="40.6066367" lon="15.1155517"><ele>106.5</ele><time>2026-04-26T07:13:04.877Z</time></trkpt><trkpt lat="40.6066617" lon="15.115965"><ele>105.0</ele><time>2026-04-26T07:13:05.878Z</time></trkpt><trkpt lat="40.6066867" lon="15.1163833"><ele>105.0</ele><time>2026-04-26T07:13:06.877Z</time></trkpt><trkpt lat="40.6067183" lon="15.1168"><ele>105.0</ele><time>2026-04-26T07:13:07.878Z</time></trkpt><trkpt lat="40.6067533" lon="15.1172217"><ele>106.5</ele><time>2026-04-26T07:13:08.878Z</time></trkpt><trkpt lat="40.6067933" lon="15.1176417"><ele>108.0</ele><time>2026-04-26T07:13:09.878Z</time></trkpt><trkpt lat="40.6068317" lon="15.1180617"><ele>108.0</ele><time>2026-04-26T07:13:10.877Z</time></trkpt><trkpt lat="40.606865" lon="15.1184883"><ele>108.0</ele><time>2026-04-26T07:13:11.877Z</time></trkpt><trkpt lat="40.6069" lon="15.1189133"><ele>107.5</ele><time>2026-04-26T07:13:12.878Z</time></trkpt><trkpt lat="40.606935" lon="15.119335"><ele>107.0</ele><time>2026-04-26T07:13:13.878Z</time></trkpt><trkpt lat="40.6069717" lon="15.11976"><ele>108.0</ele><time>2026-04-26T07:13:14.877Z</time></trkpt><trkpt lat="40.607005" lon="15.1201883"><ele>109.0</ele><time>2026-04-26T07:13:15.877Z</time></trkpt><trkpt lat="40.6070433" lon="15.1206133"><ele>107.5</ele><time>2026-04-26T07:13:16.877Z</time></trkpt><trkpt lat="40.6070817" lon="15.1210367"><ele>106.0</ele><time>2026-04-26T07:13:17.877Z</time></trkpt><trkpt lat="40.60712" lon="15.1214583"><ele>104.5</ele><time>2026-04-26T07:13:18.877Z</time></trkpt><trkpt lat="40.607155" lon="15.12187"><ele>103.0</ele><time>2026-04-26T07:13:19.878Z</time></trkpt><trkpt lat="40.6071883" lon="15.1222817"><ele>96.0</ele><time>2026-04-26T07:13:20.878Z</time></trkpt><trkpt lat="40.607225" lon="15.1226883"><ele>89.0</ele><time>2026-04-26T07:13:21.877Z</time></trkpt><trkpt lat="40.6072583" lon="15.1230933"><ele>88.5</ele><time>2026-04-26T07:13:22.878Z</time></trkpt><trkpt lat="40.6072917" lon="15.123495"><ele>88.0</ele><time>2026-04-26T07:13:23.877Z</time></trkpt><trkpt lat="40.60732" lon="15.123895"><ele>93.5</ele><time>2026-04-26T07:13:24.877Z</time></trkpt><trkpt lat="40.6073533" lon="15.1243"><ele>99.0</ele><time>2026-04-26T07:13:25.878Z</time></trkpt><trkpt lat="40.6073917" lon="15.12471"><ele>100.5</ele><time>2026-04-26T07:13:26.877Z</time></trkpt><trkpt lat="40.6074317" lon="15.1251233"><ele>102.0</ele><time>2026-04-26T07:13:27.878Z</time></trkpt><trkpt lat="40.6074767" lon="15.12554"><ele>101.0</ele><time>2026-04-26T07:13:28.878Z</time></trkpt><trkpt lat="40.60752" lon="15.12596"><ele>100.0</ele><time>2026-04-26T07:13:29.878Z</time></trkpt><trkpt lat="40.6075717" lon="15.12638"><ele>100.0</ele><time>2026-04-26T07:13:30.878Z</time></trkpt><trkpt lat="40.60763" lon="15.1267933"><ele>100.0</ele><time>2026-04-26T07:13:31.878Z</time></trkpt><trkpt lat="40.6077017" lon="15.127225"><ele>99.5</ele><time>2026-04-26T07:13:32.877Z</time></trkpt><trkpt lat="40.6077783" lon="15.1276567"><ele>99.0</ele><time>2026-04-26T07:13:33.878Z</time></trkpt><trkpt lat="40.60786" lon="15.1280883"><ele>89.0</ele><time>2026-04-26T07:13:34.877Z</time></trkpt><trkpt lat="40.6079483" lon="15.128515"><ele>79.0</ele><time>2026-04-26T07:13:35.877Z</time></trkpt><trkpt lat="40.6080433" lon="15.1289333"><ele>68.5</ele><time>2026-04-26T07:13:36.878Z</time></trkpt><trkpt lat="40.6081517" lon="15.1293467"><ele>58.0</ele><time>2026-04-26T07:13:37.878Z</time></trkpt><trkpt lat="40.60827" lon="15.1297633"><ele>57.0</ele><time>2026-04-26T07:13:38.878Z</time></trkpt><trkpt lat="40.608395" lon="15.1301767"><ele>56.0</ele><time>2026-04-26T07:13:39.877Z</time></trkpt><trkpt lat="40.6085233" lon="15.13059"><ele>64.5</ele><time>2026-04-26T07:13:40.878Z</time></trkpt><trkpt lat="40.6086617" lon="15.130995"><ele>73.0</ele><time>2026-04-26T07:13:41.878Z</time></trkpt><trkpt lat="40.6088067" lon="15.1313983"><ele>81.5</ele><time>2026-04-26T07:13:42.877Z</time></trkpt><trkpt lat="40.6089633" lon="15.1317967"><ele>90.0</ele><time>2026-04-26T07:13:43.878Z</time></trkpt><trkpt lat="40.6091283" lon="15.132195"><ele>95.5</ele><time>2026-04-26T07:13:44.878Z</time></trkpt><trkpt lat="40.609285" lon="15.132595"><ele>101.0</ele><time>2026-04-26T07:13:45.878Z</time></trkpt><trkpt lat="40.6094417" lon="15.1329867"><ele>101.0</ele><time>2026-04-26T07:13:46.878Z</time></trkpt><trkpt lat="40.609595" lon="15.1333617"><ele>101.0</ele><time>2026-04-26T07:13:47.877Z</time></trkpt><trkpt lat="40.6097733" lon="15.1337717"><ele>94.5</ele><time>2026-04-26T07:13:48.877Z</time></trkpt><trkpt lat="40.6099817" lon="15.1341683"><ele>88.0</ele><time>2026-04-26T07:13:49.877Z</time></trkpt><trkpt lat="40.610205" lon="15.13453"><ele>85.5</ele><time>2026-04-26T07:13:50.877Z</time></trkpt><trkpt lat="40.6103933" lon="15.1349933"><ele>83.0</ele><time>2026-04-26T07:13:51.876Z</time></trkpt><trkpt lat="40.6105683" lon="15.1354117"><ele>78.0</ele><time>2026-04-26T07:13:52.876Z</time></trkpt><trkpt lat="40.6107517" lon="15.1358367"><ele>73.0</ele><time>2026-04-26T07:13:53.876Z</time></trkpt><trkpt lat="40.61094" lon="15.1362633"><ele>71.0</ele><time>2026-04-26T07:13:54.876Z</time></trkpt><trkpt lat="40.6111267" lon="15.13669"><ele>69.0</ele><time>2026-04-26T07:13:55.877Z</time></trkpt><trkpt lat="40.6113167" lon="15.1371183"><ele>68.0</ele><time>2026-04-26T07:13:56.876Z</time></trkpt><trkpt lat="40.6115067" lon="15.1375517"><ele>67.0</ele><time>2026-04-26T07:13:57.877Z</time></trkpt><trkpt lat="40.611695" lon="15.137985"><ele>66.5</ele><time>2026-04-26T07:13:58.876Z</time></trkpt><trkpt lat="40.6118833" lon="15.13842"><ele>66.0</ele><time>2026-04-26T07:13:59.877Z</time></trkpt><trkpt lat="40.6120683" lon="15.1388483"><ele>69.0</ele><time>2026-04-26T07:14:00.877Z</time></trkpt><trkpt lat="40.612255" lon="15.13928"><ele>72.0</ele><time>2026-04-26T07:14:01.876Z</time></trkpt><trkpt lat="40.6124333" lon="15.13972"><ele>70.5</ele><time>2026-04-26T07:14:02.877Z</time></trkpt><trkpt lat="40.612595" lon="15.140165"><ele>69.0</ele><time>2026-04-26T07:14:03.877Z</time></trkpt><trkpt lat="40.612755" lon="15.1406133"><ele>72.0</ele><time>2026-04-26T07:14:04.876Z</time></trkpt><trkpt lat="40.612895" lon="15.1410667"><ele>75.0</ele><time>2026-04-26T07:14:05.876Z</time></trkpt><trkpt lat="40.613025" lon="15.1415217"><ele>71.5</ele><time>2026-04-26T07:14:06.877Z</time></trkpt><trkpt lat="40.613135" lon="15.1419917"><ele>68.0</ele><time>2026-04-26T07:14:07.876Z</time></trkpt><trkpt lat="40.6132333" lon="15.1424517"><ele>65.0</ele><time>2026-04-26T07:14:08.876Z</time></trkpt><trkpt lat="40.6133117" lon="15.1429217"><ele>62.0</ele><time>2026-04-26T07:14:09.877Z</time></trkpt><trkpt lat="40.6133717" lon="15.14339"><ele>60.5</ele><time>2026-04-26T07:14:10.876Z</time></trkpt><trkpt lat="40.613415" lon="15.1438617"><ele>59.0</ele><time>2026-04-26T07:14:11.877Z</time></trkpt><trkpt lat="40.613445" lon="15.14434"><ele>58.5</ele><time>2026-04-26T07:14:12.876Z</time></trkpt><trkpt lat="40.6134567" lon="15.1448183"><ele>58.0</ele><time>2026-04-26T07:14:13.876Z</time></trkpt><trkpt lat="40.6134583" lon="15.1453017"><ele>58.5</ele><time>2026-04-26T07:14:14.877Z</time></trkpt><trkpt lat="40.6134533" lon="15.1457883"><ele>59.0</ele><time>2026-04-26T07:14:15.877Z</time></trkpt><trkpt lat="40.6134467" lon="15.1462767"><ele>60.0</ele><time>2026-04-26T07:14:16.877Z</time></trkpt><trkpt lat="40.6134333" lon="15.1467667"><ele>61.0</ele><time>2026-04-26T07:14:17.877Z</time></trkpt><trkpt lat="40.6134217" lon="15.14727"><ele>61.5</ele><time>2026-04-26T07:14:18.877Z</time></trkpt><trkpt lat="40.613415" lon="15.1477717"><ele>62.0</ele><time>2026-04-26T07:14:19.877Z</time></trkpt><trkpt lat="40.613415" lon="15.148275"><ele>62.5</ele><time>2026-04-26T07:14:20.876Z</time></trkpt><trkpt lat="40.6134333" lon="15.1487717"><ele>63.0</ele><time>2026-04-26T07:14:21.876Z</time></trkpt><trkpt lat="40.6134667" lon="15.1492667"><ele>63.0</ele><time>2026-04-26T07:14:22.877Z</time></trkpt><trkpt lat="40.61352" lon="15.1497533"><ele>63.0</ele><time>2026-04-26T07:14:23.877Z</time></trkpt><trkpt lat="40.6135833" lon="15.1502417"><ele>69.0</ele><time>2026-04-26T07:14:24.876Z</time></trkpt><trkpt lat="40.6136617" lon="15.1507233"><ele>75.0</ele><time>2026-04-26T07:14:25.877Z</time></trkpt><trkpt lat="40.6137533" lon="15.1512017"><ele>71.0</ele><time>2026-04-26T07:14:26.877Z</time></trkpt><trkpt lat="40.6138617" lon="15.1516783"><ele>67.0</ele><time>2026-04-26T07:14:27.877Z</time></trkpt><trkpt lat="40.6139717" lon="15.1521533"><ele>63.5</ele><time>2026-04-26T07:14:28.876Z</time></trkpt><trkpt lat="40.6140817" lon="15.1526233"><ele>60.0</ele><time>2026-04-26T07:14:29.877Z</time></trkpt><trkpt lat="40.6141983" lon="15.1530867"><ele>57.5</ele><time>2026-04-26T07:14:30.877Z</time></trkpt><trkpt lat="40.6143183" lon="15.1535367"><ele>55.0</ele><time>2026-04-26T07:14:31.877Z</time></trkpt><trkpt lat="40.6144383" lon="15.1539733"><ele>55.0</ele><time>2026-04-26T07:14:32.877Z</time></trkpt><trkpt lat="40.614555" lon="15.15441"><ele>55.0</ele><time>2026-04-26T07:14:33.877Z</time></trkpt><trkpt lat="40.614665" lon="15.15484"><ele>53.5</ele><time>2026-04-26T07:14:34.877Z</time></trkpt><trkpt lat="40.6147683" lon="15.155265"><ele>52.0</ele><time>2026-04-26T07:14:35.877Z</time></trkpt><trkpt lat="40.6148817" lon="15.1556817"><ele>53.0</ele><time>2026-04-26T07:14:36.876Z</time></trkpt><trkpt lat="40.6149933" lon="15.1560983"><ele>54.0</ele><time>2026-04-26T07:14:37.877Z</time></trkpt><trkpt lat="40.6151" lon="15.1565117"><ele>53.0</ele><time>2026-04-26T07:14:38.876Z</time></trkpt><trkpt lat="40.6152083" lon="15.1569267"><ele>52.0</ele><time>2026-04-26T07:14:39.877Z</time></trkpt><trkpt lat="40.6153217" lon="15.1573383"><ele>50.5</ele><time>2026-04-26T07:14:40.877Z</time></trkpt><trkpt lat="40.6154317" lon="15.1577483"><ele>49.0</ele><time>2026-04-26T07:14:41.876Z</time></trkpt><trkpt lat="40.61554" lon="15.1581583"><ele>49.5</ele><time>2026-04-26T07:14:42.876Z</time></trkpt><trkpt lat="40.6156517" lon="15.1585617"><ele>50.0</ele><time>2026-04-26T07:14:43.877Z</time></trkpt><trkpt lat="40.6157633" lon="15.1589683"><ele>50.5</ele><time>2026-04-26T07:14:44.876Z</time></trkpt><trkpt lat="40.6158733" lon="15.1593733"><ele>51.0</ele><time>2026-04-26T07:14:45.876Z</time></trkpt><trkpt lat="40.615985" lon="15.159775"><ele>51.5</ele><time>2026-04-26T07:14:46.877Z</time></trkpt><trkpt lat="40.616095" lon="15.1601867"><ele>52.0</ele><time>2026-04-26T07:14:47.877Z</time></trkpt><trkpt lat="40.6161983" lon="15.1605983"><ele>52.5</ele><time>2026-04-26T07:14:48.876Z</time></trkpt><trkpt lat="40.6163067" lon="15.1610067"><ele>53.0</ele><time>2026-04-26T07:14:49.877Z</time></trkpt><trkpt lat="40.6164117" lon="15.1614167"><ele>52.5</ele><time>2026-04-26T07:14:50.877Z</time></trkpt><trkpt lat="40.61652" lon="15.1618283"><ele>52.0</ele><time>2026-04-26T07:14:51.876Z</time></trkpt><trkpt lat="40.61663" lon="15.162235"><ele>52.5</ele><time>2026-04-26T07:14:52.877Z</time></trkpt><trkpt lat="40.6167417" lon="15.1626417"><ele>53.0</ele><time>2026-04-26T07:14:53.876Z</time></trkpt><trkpt lat="40.6168517" lon="15.16305"><ele>53.0</ele><time>2026-04-26T07:14:54.877Z</time></trkpt><trkpt lat="40.6169667" lon="15.1634567"><ele>53.0</ele><time>2026-04-26T07:14:55.877Z</time></trkpt><trkpt lat="40.6170733" lon="15.163865"><ele>52.0</ele><time>2026-04-26T07:14:56.877Z</time></trkpt><trkpt lat="40.6171783" lon="15.164275"><ele>51.0</ele><time>2026-04-26T07:14:57.876Z</time></trkpt><trkpt lat="40.6172883" lon="15.164685"><ele>51.0</ele><time>2026-04-26T07:14:58.877Z</time></trkpt><trkpt lat="40.6173933" lon="15.1650983"><ele>51.0</ele><time>2026-04-26T07:14:59.877Z</time></trkpt><trkpt lat="40.6175033" lon="15.165505"><ele>50.5</ele><time>2026-04-26T07:15:00.876Z</time></trkpt><trkpt lat="40.61761" lon="15.165915"><ele>50.0</ele><time>2026-04-26T07:15:01.876Z</time></trkpt><trkpt lat="40.6177183" lon="15.1663217"><ele>51.0</ele><time>2026-04-26T07:15:02.876Z</time></trkpt><trkpt lat="40.6178233" lon="15.1667317"><ele>52.0</ele><time>2026-04-26T07:15:03.876Z</time></trkpt><trkpt lat="40.6179333" lon="15.1671383"><ele>51.5</ele><time>2026-04-26T07:15:04.876Z</time></trkpt><trkpt lat="40.618045" lon="15.1675483"><ele>51.0</ele><time>2026-04-26T07:15:05.877Z</time></trkpt><trkpt lat="40.618155" lon="15.1679567"><ele>51.0</ele><time>2026-04-26T07:15:06.877Z</time></trkpt><trkpt lat="40.6182683" lon="15.1683617"><ele>51.0</ele><time>2026-04-26T07:15:07.876Z</time></trkpt><trkpt lat="40.618385" lon="15.1687667"><ele>52.0</ele><time>2026-04-26T07:15:08.877Z</time></trkpt><trkpt lat="40.6185033" lon="15.1691733"><ele>53.0</ele><time>2026-04-26T07:15:09.876Z</time></trkpt><trkpt lat="40.618625" lon="15.1695783"><ele>55.0</ele><time>2026-04-26T07:15:10.876Z</time></trkpt><trkpt lat="40.6187483" lon="15.16998"><ele>57.0</ele><time>2026-04-26T07:15:11.877Z</time></trkpt><trkpt lat="40.6188817" lon="15.170375"><ele>57.5</ele><time>2026-04-26T07:15:12.877Z</time></trkpt><trkpt lat="40.61902" lon="15.170765"><ele>58.0</ele><time>2026-04-26T07:15:13.876Z</time></trkpt><trkpt lat="40.6191667" lon="15.171155"><ele>60.0</ele><time>2026-04-26T07:15:14.876Z</time></trkpt><trkpt lat="40.6193133" lon="15.1715417"><ele>62.0</ele><time>2026-04-26T07:15:15.877Z</time></trkpt><trkpt lat="40.6194633" lon="15.171925"><ele>68.5</ele><time>2026-04-26T07:15:16.877Z</time></trkpt><trkpt lat="40.619615" lon="15.1723017"><ele>75.0</ele><time>2026-04-26T07:15:17.876Z</time></trkpt><trkpt lat="40.6197717" lon="15.172675"><ele>78.0</ele><time>2026-04-26T07:15:18.876Z</time></trkpt><trkpt lat="40.6199333" lon="15.17304"><ele>81.0</ele><time>2026-04-26T07:15:19.877Z</time></trkpt><trkpt lat="40.6201" lon="15.1734017"><ele>82.5</ele><time>2026-04-26T07:15:20.876Z</time></trkpt><trkpt lat="40.62026" lon="15.17377"><ele>84.0</ele><time>2026-04-26T07:15:21.876Z</time></trkpt><trkpt lat="40.62042" lon="15.1741383"><ele>94.5</ele><time>2026-04-26T07:15:22.876Z</time></trkpt><trkpt lat="40.6205783" lon="15.174505"><ele>105.0</ele><time>2026-04-26T07:15:23.876Z</time></trkpt><trkpt lat="40.620735" lon="15.1748767"><ele>109.0</ele><time>2026-04-26T07:15:24.876Z</time></trkpt><trkpt lat="40.62089" lon="15.1752517"><ele>113.0</ele><time>2026-04-26T07:15:25.876Z</time></trkpt><trkpt lat="40.6210467" lon="15.175625"><ele>71.0</ele><time>2026-04-26T07:15:26.877Z</time></trkpt><trkpt lat="40.6249433" lon="15.1811717"><ele>69.0</ele><time>2026-04-26T07:15:43.877Z</time></trkpt><trkpt lat="40.6251183" lon="15.181525"><ele>67.0</ele><time>2026-04-26T07:15:44.878Z</time></trkpt><trkpt lat="40.6252983" lon="15.181885"><ele>66.5</ele><time>2026-04-26T07:15:45.878Z</time></trkpt><trkpt lat="40.62547" lon="15.1822517"><ele>66.0</ele><time>2026-04-26T07:15:46.877Z</time></trkpt><trkpt lat="40.6256383" lon="15.1826217"><ele>65.5</ele><time>2026-04-26T07:15:47.877Z</time></trkpt><trkpt lat="40.6257983" lon="15.1829967"><ele>65.0</ele><time>2026-04-26T07:15:48.878Z</time></trkpt><trkpt lat="40.62595" lon="15.1833817"><ele>65.0</ele><time>2026-04-26T07:15:49.877Z</time></trkpt><trkpt lat="40.62609" lon="15.18377"><ele>65.0</ele><time>2026-04-26T07:15:50.877Z</time></trkpt><trkpt lat="40.6262217" lon="15.18417"><ele>65.0</ele><time>2026-04-26T07:15:51.878Z</time></trkpt><trkpt lat="40.62634" lon="15.184575"><ele>65.0</ele><time>2026-04-26T07:15:52.878Z</time></trkpt><trkpt lat="40.6264483" lon="15.184985"><ele>65.0</ele><time>2026-04-26T07:15:53.877Z</time></trkpt><trkpt lat="40.626545" lon="15.1853967"><ele>65.0</ele><time>2026-04-26T07:15:54.878Z</time></trkpt><trkpt lat="40.626635" lon="15.1858083"><ele>63.0</ele><time>2026-04-26T07:15:55.878Z</time></trkpt><trkpt lat="40.626715" lon="15.1862317"><ele>61.0</ele><time>2026-04-26T07:15:56.878Z</time></trkpt><trkpt lat="40.6267883" lon="15.186655"><ele>61.0</ele><time>2026-04-26T07:15:57.877Z</time></trkpt><trkpt lat="40.62685" lon="15.1870783"><ele>61.0</ele><time>2026-04-26T07:15:58.877Z</time></trkpt><trkpt lat="40.6269033" lon="15.1875017"><ele>61.0</ele><time>2026-04-26T07:15:59.877Z</time></trkpt><trkpt lat="40.626945" lon="15.1879283"><ele>61.0</ele><time>2026-04-26T07:16:00.877Z</time></trkpt><trkpt lat="40.6269817" lon="15.1883567"><ele>62.5</ele><time>2026-04-26T07:16:01.878Z</time></trkpt><trkpt lat="40.6269983" lon="15.1887917"><ele>64.0</ele><time>2026-04-26T07:16:02.877Z</time></trkpt><trkpt lat="40.6270083" lon="15.18923"><ele>64.0</ele><time>2026-04-26T07:16:03.878Z</time></trkpt><trkpt lat="40.6270117" lon="15.1896667"><ele>64.0</ele><time>2026-04-26T07:16:04.877Z</time></trkpt><trkpt lat="40.627005" lon="15.1900983"><ele>63.0</ele><time>2026-04-26T07:16:05.877Z</time></trkpt><trkpt lat="40.6269883" lon="15.1905333"><ele>62.0</ele><time>2026-04-26T07:16:06.878Z</time></trkpt><trkpt lat="40.6269617" lon="15.190965"><ele>62.0</ele><time>2026-04-26T07:16:07.877Z</time></trkpt><trkpt lat="40.6269283" lon="15.1913967"><ele>62.0</ele><time>2026-04-26T07:16:08.877Z</time></trkpt><trkpt lat="40.62689" lon="15.1918217"><ele>62.5</ele><time>2026-04-26T07:16:09.877Z</time></trkpt><trkpt lat="40.626845" lon="15.1922517"><ele>63.0</ele><time>2026-04-26T07:16:10.877Z</time></trkpt><trkpt lat="40.6268017" lon="15.19268"><ele>64.0</ele><time>2026-04-26T07:16:11.877Z</time></trkpt><trkpt lat="40.6267517" lon="15.1931067"><ele>65.0</ele><time>2026-04-26T07:16:12.878Z</time></trkpt><trkpt lat="40.6267033" lon="15.1935317"><ele>67.0</ele><time>2026-04-26T07:16:13.878Z</time></trkpt><trkpt lat="40.6266483" lon="15.1939567"><ele>69.0</ele><time>2026-04-26T07:16:14.878Z</time></trkpt><trkpt lat="40.62659" lon="15.1943867"><ele>70.5</ele><time>2026-04-26T07:16:15.878Z</time></trkpt><trkpt lat="40.6265267" lon="15.1948117"><ele>72.0</ele><time>2026-04-26T07:16:16.878Z</time></trkpt><trkpt lat="40.6264617" lon="15.1952183"><ele>73.0</ele><time>2026-04-26T07:16:17.878Z</time></trkpt><trkpt lat="40.6264017" lon="15.1956117"><ele>74.0</ele><time>2026-04-26T07:16:18.878Z</time></trkpt><trkpt lat="40.626345" lon="15.1960033"><ele>76.0</ele><time>2026-04-26T07:16:19.878Z</time></trkpt><trkpt lat="40.6262933" lon="15.1963883"><ele>78.0</ele><time>2026-04-26T07:16:20.878Z</time></trkpt><trkpt lat="40.6262467" lon="15.1967767"><ele>79.0</ele><time>2026-04-26T07:16:21.878Z</time></trkpt><trkpt lat="40.6262083" lon="15.19716"><ele>80.0</ele><time>2026-04-26T07:16:22.877Z</time></trkpt><trkpt lat="40.6261733" lon="15.19754"><ele>80.0</ele><time>2026-04-26T07:16:23.878Z</time></trkpt><trkpt lat="40.6261483" lon="15.1979217"><ele>80.0</ele><time>2026-04-26T07:16:24.877Z</time></trkpt><trkpt lat="40.62613" lon="15.1983033"><ele>76.0</ele><time>2026-04-26T07:16:25.878Z</time></trkpt><trkpt lat="40.626115" lon="15.198685"><ele>72.0</ele><time>2026-04-26T07:16:26.878Z</time></trkpt><trkpt lat="40.6261083" lon="15.19907"><ele>72.0</ele><time>2026-04-26T07:16:27.878Z</time></trkpt><trkpt lat="40.6261033" lon="15.1994567"><ele>72.0</ele><time>2026-04-26T07:16:28.877Z</time></trkpt><trkpt lat="40.6261117" lon="15.1998483"><ele>72.5</ele><time>2026-04-26T07:16:29.877Z</time></trkpt><trkpt lat="40.62612" lon="15.2002417"><ele>73.0</ele><time>2026-04-26T07:16:30.878Z</time></trkpt><trkpt lat="40.6261367" lon="15.200635"><ele>81.5</ele><time>2026-04-26T07:16:31.878Z</time></trkpt><trkpt lat="40.6261617" lon="15.2010283"><ele>90.0</ele><time>2026-04-26T07:16:32.877Z</time></trkpt><trkpt lat="40.6261933" lon="15.2014217"><ele>92.5</ele><time>2026-04-26T07:16:33.878Z</time></trkpt><trkpt lat="40.6262283" lon="15.201835"><ele>95.0</ele><time>2026-04-26T07:16:34.877Z</time></trkpt><trkpt lat="40.6262617" lon="15.202245"><ele>96.5</ele><time>2026-04-26T07:16:35.878Z</time></trkpt><trkpt lat="40.6262933" lon="15.202655"><ele>98.0</ele><time>2026-04-26T07:16:36.877Z</time></trkpt><trkpt lat="40.6263333" lon="15.2030733"><ele>99.0</ele><time>2026-04-26T07:16:37.878Z</time></trkpt><trkpt lat="40.6263867" lon="15.2035"><ele>100.0</ele><time>2026-04-26T07:16:38.877Z</time></trkpt><trkpt lat="40.6264367" lon="15.203905"><ele>98.0</ele><time>2026-04-26T07:16:39.877Z</time></trkpt><trkpt lat="40.6264783" lon="15.2042967"><ele>96.0</ele><time>2026-04-26T07:16:40.878Z</time></trkpt><trkpt lat="40.62652" lon="15.2046717"><ele>93.5</ele><time>2026-04-26T07:16:41.877Z</time></trkpt><trkpt lat="40.62656" lon="15.205025"><ele>91.0</ele><time>2026-04-26T07:16:42.877Z</time></trkpt><trkpt lat="40.626605" lon="15.2054017"><ele>86.0</ele><time>2026-04-26T07:16:43.878Z</time></trkpt><trkpt lat="40.6266567" lon="15.2057767"><ele>81.0</ele><time>2026-04-26T07:16:44.877Z</time></trkpt><trkpt lat="40.6268567" lon="15.2060383"><ele>82.5</ele><time>2026-04-26T07:16:45.878Z</time></trkpt><trkpt lat="40.627085" lon="15.206475"><ele>84.0</ele><time>2026-04-26T07:16:46.878Z</time></trkpt><trkpt lat="40.627185" lon="15.20686"><ele>80.5</ele><time>2026-04-26T07:16:47.877Z</time></trkpt><trkpt lat="40.62727" lon="15.20724"><ele>77.0</ele><time>2026-04-26T07:16:48.878Z</time></trkpt><trkpt lat="40.6273517" lon="15.2076183"><ele>77.0</ele><time>2026-04-26T07:16:49.877Z</time></trkpt><trkpt lat="40.6274333" lon="15.2079983"><ele>77.0</ele><time>2026-04-26T07:16:50.877Z</time></trkpt><trkpt lat="40.6275117" lon="15.20838"><ele>77.0</ele><time>2026-04-26T07:16:51.878Z</time></trkpt><trkpt lat="40.6275967" lon="15.2087567"><ele>77.0</ele><time>2026-04-26T07:16:52.878Z</time></trkpt><trkpt lat="40.6276767" lon="15.209135"><ele>77.0</ele><time>2026-04-26T07:16:53.877Z</time></trkpt><trkpt lat="40.62775" lon="15.2095133"><ele>77.0</ele><time>2026-04-26T07:16:54.878Z</time></trkpt><trkpt lat="40.627825" lon="15.20988"><ele>86.5</ele><time>2026-04-26T07:16:55.877Z</time></trkpt><trkpt lat="40.6278867" lon="15.21025"><ele>96.0</ele><time>2026-04-26T07:16:56.878Z</time></trkpt><trkpt lat="40.6279333" lon="15.2106183"><ele>96.5</ele><time>2026-04-26T07:16:57.878Z</time></trkpt><trkpt lat="40.627995" lon="15.21098"><ele>97.0</ele><time>2026-04-26T07:16:58.878Z</time></trkpt><trkpt lat="40.628055" lon="15.2113433"><ele>100.0</ele><time>2026-04-26T07:16:59.877Z</time></trkpt><trkpt lat="40.6281117" lon="15.2117067"><ele>103.0</ele><time>2026-04-26T07:17:00.877Z</time></trkpt><trkpt lat="40.62817" lon="15.2120717"><ele>105.5</ele><time>2026-04-26T07:17:01.878Z</time></trkpt><trkpt lat="40.6282233" lon="15.2124317"><ele>108.0</ele><time>2026-04-26T07:17:02.877Z</time></trkpt><trkpt lat="40.6282767" lon="15.2127933"><ele>110.5</ele><time>2026-04-26T07:17:03.877Z</time></trkpt><trkpt lat="40.6283317" lon="15.2131567"><ele>113.0</ele><time>2026-04-26T07:17:04.878Z</time></trkpt><trkpt lat="40.6283867" lon="15.2135217"><ele>81.0</ele><time>2026-04-26T07:17:05.878Z</time></trkpt><trkpt lat="40.6284517" lon="15.2225283"><ele>81.0</ele><time>2026-04-26T07:17:25.881Z</time></trkpt><trkpt lat="40.6284133" lon="15.22293"><ele>81.0</ele><time>2026-04-26T07:17:26.88Z</time></trkpt><trkpt lat="40.6284" lon="15.2233367"><ele>77.0</ele><time>2026-04-26T07:17:27.881Z</time></trkpt><trkpt lat="40.628395" lon="15.2237517"><ele>73.0</ele><time>2026-04-26T07:17:28.881Z</time></trkpt><trkpt lat="40.6283983" lon="15.22416"><ele>74.0</ele><time>2026-04-26T07:17:29.881Z</time></trkpt><trkpt lat="40.6284" lon="15.224575"><ele>75.0</ele><time>2026-04-26T07:17:30.88Z</time></trkpt><trkpt lat="40.6284017" lon="15.2249933"><ele>75.0</ele><time>2026-04-26T07:17:31.881Z</time></trkpt><trkpt lat="40.62841" lon="15.2254133"><ele>75.0</ele><time>2026-04-26T07:17:32.88Z</time></trkpt><trkpt lat="40.6284183" lon="15.2258183"><ele>75.0</ele><time>2026-04-26T07:17:33.88Z</time></trkpt><trkpt lat="40.628425" lon="15.22623"><ele>75.0</ele><time>2026-04-26T07:17:34.88Z</time></trkpt><trkpt lat="40.62843" lon="15.2266417"><ele>74.5</ele><time>2026-04-26T07:17:35.88Z</time></trkpt><trkpt lat="40.628435" lon="15.2270517"><ele>74.0</ele><time>2026-04-26T07:17:36.881Z</time></trkpt><trkpt lat="40.6284367" lon="15.22746"><ele>75.5</ele><time>2026-04-26T07:17:37.881Z</time></trkpt><trkpt lat="40.6284367" lon="15.2278667"><ele>77.0</ele><time>2026-04-26T07:17:38.881Z</time></trkpt><trkpt lat="40.6284367" lon="15.2282683"><ele>79.5</ele><time>2026-04-26T07:17:39.881Z</time></trkpt><trkpt lat="40.6284367" lon="15.22868"><ele>82.0</ele><time>2026-04-26T07:17:40.88Z</time></trkpt><trkpt lat="40.6284383" lon="15.2290883"><ele>87.0</ele><time>2026-04-26T07:17:41.881Z</time></trkpt><trkpt lat="40.628435" lon="15.2295"><ele>92.0</ele><time>2026-04-26T07:17:42.881Z</time></trkpt><trkpt lat="40.6284267" lon="15.2299067"><ele>95.5</ele><time>2026-04-26T07:17:43.881Z</time></trkpt><trkpt lat="40.62841" lon="15.2303133"><ele>99.0</ele><time>2026-04-26T07:17:44.881Z</time></trkpt><trkpt lat="40.6283883" lon="15.2307217"><ele>101.5</ele><time>2026-04-26T07:17:45.88Z</time></trkpt><trkpt lat="40.628355" lon="15.2311317"><ele>104.0</ele><time>2026-04-26T07:17:46.88Z</time></trkpt><trkpt lat="40.62832" lon="15.2315333"><ele>105.0</ele><time>2026-04-26T07:17:47.881Z</time></trkpt><trkpt lat="40.6282683" lon="15.2319383"><ele>106.0</ele><time>2026-04-26T07:17:48.881Z</time></trkpt><trkpt lat="40.6282083" lon="15.2323383"><ele>106.0</ele><time>2026-04-26T07:17:49.88Z</time></trkpt><trkpt lat="40.6281383" lon="15.2327317"><ele>106.0</ele><time>2026-04-26T07:17:50.881Z</time></trkpt><trkpt lat="40.62806" lon="15.2331117"><ele>106.5</ele><time>2026-04-26T07:17:51.881Z</time></trkpt><trkpt lat="40.6279783" lon="15.23348"><ele>107.0</ele><time>2026-04-26T07:17:52.88Z</time></trkpt><trkpt lat="40.62788" lon="15.233845"><ele>112.0</ele><time>2026-04-26T07:17:53.881Z</time></trkpt><trkpt lat="40.6277833" lon="15.2342033"><ele>117.0</ele><time>2026-04-26T07:17:54.881Z</time></trkpt><trkpt lat="40.6276733" lon="15.2345533"><ele>115.0</ele><time>2026-04-26T07:17:55.88Z</time></trkpt><trkpt lat="40.62755" lon="15.2348933"><ele>113.0</ele><time>2026-04-26T07:17:56.88Z</time></trkpt><trkpt lat="40.627415" lon="15.235225"><ele>113.0</ele><time>2026-04-26T07:17:57.88Z</time></trkpt><trkpt lat="40.6272867" lon="15.2355483"><ele>113.0</ele><time>2026-04-26T07:17:58.881Z</time></trkpt><trkpt lat="40.627145" lon="15.2358683"><ele>110.0</ele><time>2026-04-26T07:17:59.88Z</time></trkpt><trkpt lat="40.626995" lon="15.23618"><ele>107.0</ele><time>2026-04-26T07:18:00.88Z</time></trkpt><trkpt lat="40.6268383" lon="15.2364867"><ele>114.5</ele><time>2026-04-26T07:18:01.88Z</time></trkpt><trkpt lat="40.62667" lon="15.2367833"><ele>122.0</ele><time>2026-04-26T07:18:02.881Z</time></trkpt><trkpt lat="40.6264917" lon="15.23708"><ele>117.5</ele><time>2026-04-26T07:18:03.88Z</time></trkpt><trkpt lat="40.6263033" lon="15.23737"><ele>113.0</ele><time>2026-04-26T07:18:04.88Z</time></trkpt><trkpt lat="40.6261117" lon="15.2376483"><ele>127.0</ele><time>2026-04-26T07:18:05.88Z</time></trkpt><trkpt lat="40.6259183" lon="15.23793"><ele>141.0</ele><time>2026-04-26T07:18:06.88Z</time></trkpt><trkpt lat="40.62571" lon="15.2382117"><ele>141.0</ele><time>2026-04-26T07:18:07.881Z</time></trkpt><trkpt lat="40.625505" lon="15.2384933"><ele>141.0</ele><time>2026-04-26T07:18:08.88Z</time></trkpt><trkpt lat="40.6253067" lon="15.23877"><ele>154.0</ele><time>2026-04-26T07:18:09.881Z</time></trkpt><trkpt lat="40.6251067" lon="15.2390483"><ele>167.0</ele><time>2026-04-26T07:18:10.881Z</time></trkpt><trkpt lat="40.6249067" lon="15.2393383"><ele>167.0</ele><time>2026-04-26T07:18:11.88Z</time></trkpt><trkpt lat="40.6247017" lon="15.2396383"><ele>167.0</ele><time>2026-04-26T07:18:12.881Z</time></trkpt><trkpt lat="40.6244917" lon="15.2399417"><ele>166.0</ele><time>2026-04-26T07:18:13.88Z</time></trkpt><trkpt lat="40.62427" lon="15.240255"><ele>165.0</ele><time>2026-04-26T07:18:14.88Z</time></trkpt><trkpt lat="40.6240583" lon="15.2405617"><ele>154.5</ele><time>2026-04-26T07:18:15.881Z</time></trkpt><trkpt lat="40.6238483" lon="15.240865"><ele>144.0</ele><time>2026-04-26T07:18:16.88Z</time></trkpt><trkpt lat="40.61777" lon="15.2442667"><ele>133.0</ele><time>2026-04-26T07:18:37.877Z</time></trkpt><trkpt lat="40.6175083" lon="15.24447"><ele>122.0</ele><time>2026-04-26T07:18:38.877Z</time></trkpt><trkpt lat="40.6172517" lon="15.244655"><ele>118.0</ele><time>2026-04-26T07:18:39.878Z</time></trkpt><trkpt lat="40.6169933" lon="15.2448417"><ele>114.0</ele><time>2026-04-26T07:18:40.877Z</time></trkpt><trkpt lat="40.6167317" lon="15.2450467"><ele>123.0</ele><time>2026-04-26T07:18:41.877Z</time></trkpt><trkpt lat="40.6164733" lon="15.2452483"><ele>132.0</ele><time>2026-04-26T07:18:42.877Z</time></trkpt><trkpt lat="40.6162217" lon="15.2454517"><ele>143.5</ele><time>2026-04-26T07:18:43.877Z</time></trkpt><trkpt lat="40.615975" lon="15.2456483"><ele>155.0</ele><time>2026-04-26T07:18:44.877Z</time></trkpt><trkpt lat="40.615735" lon="15.2458417"><ele>155.0</ele><time>2026-04-26T07:18:45.877Z</time></trkpt><trkpt lat="40.615545" lon="15.2459867"><ele>155.0</ele><time>2026-04-26T07:18:46.877Z</time></trkpt><trkpt lat="40.6153067" lon="15.24617"><ele>154.0</ele><time>2026-04-26T07:18:47.878Z</time></trkpt><trkpt lat="40.61507" lon="15.2463517"><ele>153.0</ele><time>2026-04-26T07:18:48.878Z</time></trkpt><trkpt lat="40.6148317" lon="15.2465317"><ele>153.0</ele><time>2026-04-26T07:18:49.877Z</time></trkpt><trkpt lat="40.6145933" lon="15.2467117"><ele>153.0</ele><time>2026-04-26T07:18:50.878Z</time></trkpt><trkpt lat="40.614355" lon="15.2468933"><ele>160.0</ele><time>2026-04-26T07:18:51.878Z</time></trkpt><trkpt lat="40.6141233" lon="15.2470683"><ele>167.0</ele><time>2026-04-26T07:18:52.878Z</time></trkpt><trkpt lat="40.6138933" lon="15.247235"><ele>125.0</ele><time>2026-04-26T07:18:53.877Z</time></trkpt><trkpt lat="40.6126667" lon="15.25275"><ele>121.5</ele><time>2026-04-26T07:19:05.877Z</time></trkpt><trkpt lat="40.6125717" lon="15.2531433"><ele>118.0</ele><time>2026-04-26T07:19:06.877Z</time></trkpt><trkpt lat="40.6125067" lon="15.2535617"><ele>116.5</ele><time>2026-04-26T07:19:07.877Z</time></trkpt><trkpt lat="40.6124633" lon="15.2539717"><ele>115.0</ele><time>2026-04-26T07:19:08.877Z</time></trkpt><trkpt lat="40.6124417" lon="15.2543883"><ele>113.0</ele><time>2026-04-26T07:19:09.878Z</time></trkpt><trkpt lat="40.61243" lon="15.254805"><ele>111.0</ele><time>2026-04-26T07:19:10.877Z</time></trkpt><trkpt lat="40.6124317" lon="15.25522"><ele>108.5</ele><time>2026-04-26T07:19:11.877Z</time></trkpt><trkpt lat="40.6124383" lon="15.255635"><ele>106.0</ele><time>2026-04-26T07:19:12.877Z</time></trkpt><trkpt lat="40.6124567" lon="15.25605"><ele>102.0</ele><time>2026-04-26T07:19:13.878Z</time></trkpt><trkpt lat="40.6124817" lon="15.2564583"><ele>98.0</ele><time>2026-04-26T07:19:14.877Z</time></trkpt><trkpt lat="40.61251" lon="15.2568733"><ele>98.5</ele><time>2026-04-26T07:19:15.877Z</time></trkpt><trkpt lat="40.6125483" lon="15.25729"><ele>99.0</ele><time>2026-04-26T07:19:16.878Z</time></trkpt><trkpt lat="40.6125917" lon="15.2577033"><ele>99.0</ele><time>2026-04-26T07:19:17.878Z</time></trkpt><trkpt lat="40.612645" lon="15.2581083"><ele>99.0</ele><time>2026-04-26T07:19:18.877Z</time></trkpt><trkpt lat="40.6126967" lon="15.2585183"><ele>100.5</ele><time>2026-04-26T07:19:19.878Z</time></trkpt><trkpt lat="40.61275" lon="15.2589367"><ele>102.0</ele><time>2026-04-26T07:19:20.878Z</time></trkpt><trkpt lat="40.6128067" lon="15.25935"><ele>100.5</ele><time>2026-04-26T07:19:21.877Z</time></trkpt><trkpt lat="40.612865" lon="15.2597633"><ele>99.0</ele><time>2026-04-26T07:19:22.877Z</time></trkpt><trkpt lat="40.612915" lon="15.2601733"><ele>106.5</ele><time>2026-04-26T07:19:23.877Z</time></trkpt><trkpt lat="40.61297" lon="15.260585"><ele>114.0</ele><time>2026-04-26T07:19:24.878Z</time></trkpt><trkpt lat="40.613025" lon="15.2609883"><ele>123.0</ele><time>2026-04-26T07:19:25.878Z</time></trkpt><trkpt lat="40.61308" lon="15.261395"><ele>132.0</ele><time>2026-04-26T07:19:26.877Z</time></trkpt><trkpt lat="40.6131383" lon="15.2617983"><ele>136.5</ele><time>2026-04-26T07:19:27.877Z</time></trkpt><trkpt lat="40.6132017" lon="15.2622017"><ele>141.0</ele><time>2026-04-26T07:19:28.878Z</time></trkpt><trkpt lat="40.613265" lon="15.2626067"><ele>140.5</ele><time>2026-04-26T07:19:29.877Z</time></trkpt><trkpt lat="40.6133233" lon="15.2630133"><ele>140.0</ele><time>2026-04-26T07:19:30.878Z</time></trkpt><trkpt lat="40.6133817" lon="15.2634217"><ele>140.0</ele><time>2026-04-26T07:19:31.878Z</time></trkpt><trkpt lat="40.6134367" lon="15.2638317"><ele>140.0</ele><time>2026-04-26T07:19:32.877Z</time></trkpt><trkpt lat="40.61349" lon="15.2642417"><ele>141.0</ele><time>2026-04-26T07:19:33.878Z</time></trkpt><trkpt lat="40.6135433" lon="15.2646533"><ele>142.0</ele><time>2026-04-26T07:19:34.877Z</time></trkpt><trkpt lat="40.6135983" lon="15.26505"><ele>139.5</ele><time>2026-04-26T07:19:35.877Z</time></trkpt><trkpt lat="40.6136517" lon="15.26543"><ele>137.0</ele><time>2026-04-26T07:19:36.877Z</time></trkpt><trkpt lat="40.6137033" lon="15.2658083"><ele>148.5</ele><time>2026-04-26T07:19:37.877Z</time></trkpt><trkpt lat="40.6137533" lon="15.2661867"><ele>160.0</ele><time>2026-04-26T07:19:38.877Z</time></trkpt><trkpt lat="40.6138083" lon="15.2665617"><ele>160.0</ele><time>2026-04-26T07:19:39.877Z</time></trkpt><trkpt lat="40.613865" lon="15.2669367"><ele>160.0</ele><time>2026-04-26T07:19:40.878Z</time></trkpt><trkpt lat="40.613915" lon="15.2673183"><ele>160.5</ele><time>2026-04-26T07:19:41.877Z</time></trkpt><trkpt lat="40.6139683" lon="15.2677017"><ele>161.0</ele><time>2026-04-26T07:19:42.877Z</time></trkpt><trkpt lat="40.6140183" lon="15.2680867"><ele>162.5</ele><time>2026-04-26T07:19:43.877Z</time></trkpt><trkpt lat="40.6140717" lon="15.26847"><ele>164.0</ele><time>2026-04-26T07:19:44.878Z</time></trkpt><trkpt lat="40.6141217" lon="15.2688617"><ele>166.0</ele><time>2026-04-26T07:19:45.877Z</time></trkpt><trkpt lat="40.61417" lon="15.269255"><ele>168.0</ele><time>2026-04-26T07:19:46.878Z</time></trkpt><trkpt lat="40.6142233" lon="15.2696517"><ele>170.0</ele><time>2026-04-26T07:19:47.878Z</time></trkpt><trkpt lat="40.614265" lon="15.2700433"><ele>172.0</ele><time>2026-04-26T07:19:48.878Z</time></trkpt><trkpt lat="40.61431" lon="15.2704433"><ele>171.5</ele><time>2026-04-26T07:19:49.878Z</time></trkpt><trkpt lat="40.6143483" lon="15.2708417"><ele>171.0</ele><time>2026-04-26T07:19:50.877Z</time></trkpt><trkpt lat="40.6143783" lon="15.2712383"><ele>169.5</ele><time>2026-04-26T07:19:51.877Z</time></trkpt><trkpt lat="40.61441" lon="15.2716367"><ele>168.0</ele><time>2026-04-26T07:19:52.877Z</time></trkpt><trkpt lat="40.6144317" lon="15.272035"><ele>168.0</ele><time>2026-04-26T07:19:53.877Z</time></trkpt><trkpt lat="40.6144483" lon="15.2724383"><ele>168.0</ele><time>2026-04-26T07:19:54.877Z</time></trkpt><trkpt lat="40.6144533" lon="15.27284"><ele>168.0</ele><time>2026-04-26T07:19:55.877Z</time></trkpt><trkpt lat="40.6144483" lon="15.2732517"><ele>168.0</ele><time>2026-04-26T07:19:56.877Z</time></trkpt><trkpt lat="40.6144317" lon="15.2736633"><ele>169.0</ele><time>2026-04-26T07:19:57.878Z</time></trkpt><trkpt lat="40.6144083" lon="15.2740733"><ele>170.0</ele><time>2026-04-26T07:19:58.877Z</time></trkpt><trkpt lat="40.614375" lon="15.2744833"><ele>169.0</ele><time>2026-04-26T07:19:59.878Z</time></trkpt><trkpt lat="40.6143417" lon="15.2748883"><ele>168.0</ele><time>2026-04-26T07:20:00.878Z</time></trkpt><trkpt lat="40.6143" lon="15.2752883"><ele>167.5</ele><time>2026-04-26T07:20:01.878Z</time></trkpt><trkpt lat="40.6142517" lon="15.2756817"><ele>167.0</ele><time>2026-04-26T07:20:02.878Z</time></trkpt><trkpt lat="40.6142017" lon="15.276065"><ele>166.0</ele><time>2026-04-26T07:20:03.878Z</time></trkpt><trkpt lat="40.61414" lon="15.2764567"><ele>165.0</ele><time>2026-04-26T07:20:04.878Z</time></trkpt><trkpt lat="40.6140633" lon="15.2768417"><ele>165.0</ele><time>2026-04-26T07:20:05.877Z</time></trkpt><trkpt lat="40.6139833" lon="15.2772117"><ele>165.0</ele><time>2026-04-26T07:20:06.877Z</time></trkpt><trkpt lat="40.6139" lon="15.2775867"><ele>165.5</ele><time>2026-04-26T07:20:07.877Z</time></trkpt><trkpt lat="40.6138017" lon="15.2779533"><ele>166.0</ele><time>2026-04-26T07:20:08.878Z</time></trkpt><trkpt lat="40.6136983" lon="15.27832"><ele>164.5</ele><time>2026-04-26T07:20:09.878Z</time></trkpt><trkpt lat="40.61359" lon="15.2786867"><ele>163.0</ele><time>2026-04-26T07:20:10.878Z</time></trkpt><trkpt lat="40.6134717" lon="15.279045"><ele>166.0</ele><time>2026-04-26T07:20:11.878Z</time></trkpt><trkpt lat="40.613345" lon="15.279405"><ele>169.0</ele><time>2026-04-26T07:20:12.877Z</time></trkpt><trkpt lat="40.6132133" lon="15.2797583"><ele>168.0</ele><time>2026-04-26T07:20:13.877Z</time></trkpt><trkpt lat="40.6130733" lon="15.2801117"><ele>167.0</ele><time>2026-04-26T07:20:14.878Z</time></trkpt><trkpt lat="40.612925" lon="15.2804667"><ele>165.0</ele><time>2026-04-26T07:20:15.877Z</time></trkpt><trkpt lat="40.6127733" lon="15.28082"><ele>163.0</ele><time>2026-04-26T07:20:16.878Z</time></trkpt><trkpt lat="40.6126217" lon="15.2811667"><ele>163.0</ele><time>2026-04-26T07:20:17.877Z</time></trkpt><trkpt lat="40.612465" lon="15.281515"><ele>163.0</ele><time>2026-04-26T07:20:18.877Z</time></trkpt><trkpt lat="40.6123083" lon="15.2818583"><ele>163.0</ele><time>2026-04-26T07:20:19.878Z</time></trkpt><trkpt lat="40.6121417" lon="15.2822"><ele>163.0</ele><time>2026-04-26T07:20:20.878Z</time></trkpt><trkpt lat="40.6119783" lon="15.2825433"><ele>162.0</ele><time>2026-04-26T07:20:21.878Z</time></trkpt><trkpt lat="40.61181" lon="15.2828867"><ele>161.0</ele><time>2026-04-26T07:20:22.878Z</time></trkpt><trkpt lat="40.611645" lon="15.2832233"><ele>161.0</ele><time>2026-04-26T07:20:23.878Z</time></trkpt><trkpt lat="40.611485" lon="15.283565"><ele>161.0</ele><time>2026-04-26T07:20:24.877Z</time></trkpt><trkpt lat="40.6113317" lon="15.283915"><ele>161.5</ele><time>2026-04-26T07:20:25.878Z</time></trkpt><trkpt lat="40.6111883" lon="15.284265"><ele>162.0</ele><time>2026-04-26T07:20:26.877Z</time></trkpt><trkpt lat="40.6110533" lon="15.2846133"><ele>152.5</ele><time>2026-04-26T07:20:27.878Z</time></trkpt><trkpt lat="40.6109217" lon="15.284965"><ele>143.0</ele><time>2026-04-26T07:20:28.877Z</time></trkpt><trkpt lat="40.6108" lon="15.28532"><ele>143.5</ele><time>2026-04-26T07:20:29.877Z</time></trkpt><trkpt lat="40.6106817" lon="15.2856833"><ele>144.0</ele><time>2026-04-26T07:20:30.877Z</time></trkpt><trkpt lat="40.6105717" lon="15.2860433"><ele>144.0</ele><time>2026-04-26T07:20:31.877Z</time></trkpt><trkpt lat="40.6104633" lon="15.286405"><ele>144.0</ele><time>2026-04-26T07:20:32.877Z</time></trkpt><trkpt lat="40.6103683" lon="15.286765"><ele>152.5</ele><time>2026-04-26T07:20:33.878Z</time></trkpt><trkpt lat="40.6102783" lon="15.287135"><ele>161.0</ele><time>2026-04-26T07:20:34.878Z</time></trkpt><trkpt lat="40.610205" lon="15.2875067"><ele>161.5</ele><time>2026-04-26T07:20:35.877Z</time></trkpt><trkpt lat="40.6101417" lon="15.2878767"><ele>162.0</ele><time>2026-04-26T07:20:36.877Z</time></trkpt><trkpt lat="40.6100867" lon="15.2882483"><ele>162.0</ele><time>2026-04-26T07:20:37.878Z</time></trkpt><trkpt lat="40.6100467" lon="15.2886183"><ele>162.0</ele><time>2026-04-26T07:20:38.877Z</time></trkpt><trkpt lat="40.610015" lon="15.2889817"><ele>163.0</ele><time>2026-04-26T07:20:39.878Z</time></trkpt><trkpt lat="40.6099883" lon="15.2893333"><ele>164.0</ele><time>2026-04-26T07:20:40.877Z</time></trkpt><trkpt lat="40.6099617" lon="15.28967"><ele>165.5</ele><time>2026-04-26T07:20:41.877Z</time></trkpt><trkpt lat="40.6099267" lon="15.2899983"><ele>167.0</ele><time>2026-04-26T07:20:42.877Z</time></trkpt><trkpt lat="40.60988" lon="15.29031"><ele>168.0</ele><time>2026-04-26T07:20:43.877Z</time></trkpt><trkpt lat="40.6098083" lon="15.29062"><ele>169.0</ele><time>2026-04-26T07:20:44.878Z</time></trkpt><trkpt lat="40.6097083" lon="15.2909183"><ele>169.0</ele><time>2026-04-26T07:20:45.878Z</time></trkpt><trkpt lat="40.609575" lon="15.29119"><ele>169.0</ele><time>2026-04-26T07:20:46.877Z</time></trkpt><trkpt lat="40.609415" lon="15.2914267"><ele>172.5</ele><time>2026-04-26T07:20:47.877Z</time></trkpt><trkpt lat="40.609235" lon="15.2916433"><ele>176.0</ele><time>2026-04-26T07:20:48.878Z</time></trkpt><trkpt lat="40.6090433" lon="15.2918383"><ele>176.0</ele><time>2026-04-26T07:20:49.877Z</time></trkpt><trkpt lat="40.6088733" lon="15.292025"><ele>176.0</ele><time>2026-04-26T07:20:50.877Z</time></trkpt><trkpt lat="40.6087317" lon="15.2922167"><ele>176.0</ele><time>2026-04-26T07:20:51.878Z</time></trkpt><trkpt lat="40.6086283" lon="15.2924083"><ele>176.33333333333331</ele><time>2026-04-26T07:20:52.878Z</time></trkpt><trkpt lat="40.6085667" lon="15.2926217"><ele>176.66666666666666</ele><time>2026-04-26T07:20:53.877Z</time></trkpt><trkpt lat="40.60856" lon="15.2928367"><ele>177.0</ele><time>2026-04-26T07:20:54.878Z</time></trkpt><trkpt lat="40.6085917" lon="15.2930467"><ele>177.66666666666666</ele><time>2026-04-26T07:20:55.877Z</time></trkpt><trkpt lat="40.6086617" lon="15.2932467"><ele>178.33333333333331</ele><time>2026-04-26T07:20:56.878Z</time></trkpt><trkpt lat="40.6087717" lon="15.2934167"><ele>179.0</ele><time>2026-04-26T07:20:57.878Z</time></trkpt><trkpt lat="40.60892" lon="15.2935467"><ele>179.0</ele><time>2026-04-26T07:20:58.878Z</time></trkpt><trkpt lat="40.6090917" lon="15.2936583"><ele>179.0</ele><time>2026-04-26T07:20:59.878Z</time></trkpt><trkpt lat="40.6092883" lon="15.29375"><ele>179.0</ele><time>2026-04-26T07:21:00.877Z</time></trkpt><trkpt lat="40.6094983" lon="15.29382"><ele>178.0</ele><time>2026-04-26T07:21:01.877Z</time></trkpt><trkpt lat="40.6096867" lon="15.2938917"><ele>177.0</ele><time>2026-04-26T07:21:02.877Z</time></trkpt><trkpt lat="40.6098417" lon="15.2939583"><ele>176.0</ele><time>2026-04-26T07:21:03.877Z</time></trkpt><trkpt lat="40.60998" lon="15.2940083"><ele>176.0</ele><time>2026-04-26T07:21:04.877Z</time></trkpt><trkpt lat="40.6100983" lon="15.2940567"><ele>176.0</ele><time>2026-04-26T07:21:05.877Z</time></trkpt><trkpt lat="40.61021" lon="15.294105"><ele>176.0</ele><time>2026-04-26T07:21:06.878Z</time></trkpt><trkpt lat="40.610315" lon="15.2941533"><ele>176.0</ele><time>2026-04-26T07:21:07.878Z</time></trkpt><trkpt lat="40.6104117" lon="15.2942033"><ele>175.4</ele><time>2026-04-26T07:21:08.878Z</time></trkpt><trkpt lat="40.6105" lon="15.29426"><ele>174.8</ele><time>2026-04-26T07:21:09.877Z</time></trkpt><trkpt lat="40.6105817" lon="15.2943267"><ele>174.20000000000002</ele><time>2026-04-26T07:21:10.877Z</time></trkpt><trkpt lat="40.61065" lon="15.2944"><ele>173.60000000000002</ele><time>2026-04-26T07:21:11.877Z</time></trkpt><trkpt lat="40.61071" lon="15.2944783"><ele>173.0</ele><time>2026-04-26T07:21:12.877Z</time></trkpt><trkpt lat="40.610765" lon="15.29456"><ele>173.0</ele><time>2026-04-26T07:21:13.877Z</time></trkpt><trkpt lat="40.6108117" lon="15.2946517"><ele>173.0</ele><time>2026-04-26T07:21:14.878Z</time></trkpt><trkpt lat="40.6108567" lon="15.294745"><ele>173.0</ele><time>2026-04-26T07:21:15.877Z</time></trkpt><trkpt lat="40.6108967" lon="15.2948417"><ele>173.0</ele><time>2026-04-26T07:21:16.877Z</time></trkpt><trkpt lat="40.6109283" lon="15.2949517"><ele>173.0</ele><time>2026-04-26T07:21:17.877Z</time></trkpt><trkpt lat="40.61095" lon="15.295075"><ele>173.0</ele><time>2026-04-26T07:21:18.877Z</time></trkpt><trkpt lat="40.61096" lon="15.2952067"><ele>173.25</ele><time>2026-04-26T07:21:19.878Z</time></trkpt><trkpt lat="40.6109567" lon="15.2953417"><ele>173.5</ele><time>2026-04-26T07:21:20.878Z</time></trkpt><trkpt lat="40.6109433" lon="15.2954867"><ele>173.75</ele><time>2026-04-26T07:21:21.878Z</time></trkpt><trkpt lat="40.6109167" lon="15.29564"><ele>174.0</ele><time>2026-04-26T07:21:22.877Z</time></trkpt><trkpt lat="40.6108733" lon="15.2958"><ele>175.0</ele><time>2026-04-26T07:21:23.877Z</time></trkpt><trkpt lat="40.6108167" lon="15.2959667"><ele>176.0</ele><time>2026-04-26T07:21:24.877Z</time></trkpt><trkpt lat="40.6107467" lon="15.29615"><ele>177.0</ele><time>2026-04-26T07:21:25.877Z</time></trkpt><trkpt lat="40.6106767" lon="15.296345"><ele>178.0</ele><time>2026-04-26T07:21:26.878Z</time></trkpt><trkpt lat="40.6106067" lon="15.29655"><ele>179.0</ele><time>2026-04-26T07:21:27.878Z</time></trkpt><trkpt lat="40.6105383" lon="15.2967483"><ele>180.0</ele><time>2026-04-26T07:21:28.878Z</time></trkpt><trkpt lat="40.6104733" lon="15.2969733"><ele>180.0</ele><time>2026-04-26T07:21:29.877Z</time></trkpt><trkpt lat="40.6103983" lon="15.29721"><ele>180.0</ele><time>2026-04-26T07:21:30.877Z</time></trkpt><trkpt lat="40.6103183" lon="15.2974433"><ele>180.0</ele><time>2026-04-26T07:21:31.877Z</time></trkpt><trkpt lat="40.6102383" lon="15.2976767"><ele>180.0</ele><time>2026-04-26T07:21:32.877Z</time></trkpt><trkpt lat="40.6101633" lon="15.2979017"><ele>180.0</ele><time>2026-04-26T07:21:33.877Z</time></trkpt><trkpt lat="40.6101" lon="15.29811"><ele>180.0</ele><time>2026-04-26T07:21:34.877Z</time></trkpt><trkpt lat="40.61004" lon="15.29831"><ele>180.33333333333334</ele><time>2026-04-26T07:21:35.878Z</time></trkpt><trkpt lat="40.60999" lon="15.29851"><ele>180.66666666666669</ele><time>2026-04-26T07:21:36.877Z</time></trkpt><trkpt lat="40.6099433" lon="15.29871"><ele>181.0</ele><time>2026-04-26T07:21:37.877Z</time></trkpt><trkpt lat="40.6099" lon="15.2989083"><ele>180.0</ele><time>2026-04-26T07:21:38.877Z</time></trkpt><trkpt lat="40.60986" lon="15.2991033"><ele>179.0</ele><time>2026-04-26T07:21:39.878Z</time></trkpt><trkpt lat="40.6098" lon="15.29928"><ele>178.0</ele><time>2026-04-26T07:21:40.877Z</time></trkpt><trkpt lat="40.6097133" lon="15.2994217"><ele>177.0</ele><time>2026-04-26T07:21:41.877Z</time></trkpt><trkpt lat="40.6096" lon="15.2995167"><ele>173.75</ele><time>2026-04-26T07:21:42.877Z</time></trkpt><trkpt lat="40.60947" lon="15.2995517"><ele>170.5</ele><time>2026-04-26T07:21:43.878Z</time></trkpt><trkpt lat="40.6093467" lon="15.2995333"><ele>167.25</ele><time>2026-04-26T07:21:44.877Z</time></trkpt><trkpt lat="40.6092417" lon="15.2994617"><ele>164.0</ele><time>2026-04-26T07:21:45.878Z</time></trkpt><trkpt lat="40.6091583" lon="15.2993683"><ele>164.0</ele><time>2026-04-26T07:21:46.878Z</time></trkpt><trkpt lat="40.609095" lon="15.299245"><ele>164.0</ele><time>2026-04-26T07:21:47.878Z</time></trkpt><trkpt lat="40.609055" lon="15.2991033"><ele>164.0</ele><time>2026-04-26T07:21:48.877Z</time></trkpt><trkpt lat="40.60904" lon="15.298945"><ele>164.0</ele><time>2026-04-26T07:21:49.877Z</time></trkpt><trkpt lat="40.6090467" lon="15.29878"><ele>165.5</ele><time>2026-04-26T07:21:50.877Z</time></trkpt><trkpt lat="40.6090733" lon="15.2986117"><ele>167.0</ele><time>2026-04-26T07:21:51.878Z</time></trkpt><trkpt lat="40.6091217" lon="15.2984467"><ele>168.5</ele><time>2026-04-26T07:21:52.878Z</time></trkpt><trkpt lat="40.60918" lon="15.2982833"><ele>170.0</ele><time>2026-04-26T07:21:53.877Z</time></trkpt><trkpt lat="40.6092467" lon="15.29812"><ele>169.25</ele><time>2026-04-26T07:21:54.877Z</time></trkpt><trkpt lat="40.609315" lon="15.297955"><ele>168.5</ele><time>2026-04-26T07:21:55.877Z</time></trkpt><trkpt lat="40.6093833" lon="15.2977817"><ele>167.75</ele><time>2026-04-26T07:21:56.878Z</time></trkpt><trkpt lat="40.60945" lon="15.2976"><ele>167.0</ele><time>2026-04-26T07:21:57.877Z</time></trkpt><trkpt lat="40.6095117" lon="15.2974167"><ele>170.66666666666666</ele><time>2026-04-26T07:21:58.878Z</time></trkpt><trkpt lat="40.60957" lon="15.2972233"><ele>174.33333333333334</ele><time>2026-04-26T07:21:59.878Z</time></trkpt><trkpt lat="40.6096283" lon="15.297035"><ele>178.0</ele><time>2026-04-26T07:22:00.877Z</time></trkpt><trkpt lat="40.60968" lon="15.2968633"><ele>178.0</ele><time>2026-04-26T07:22:01.877Z</time></trkpt><trkpt lat="40.6097267" lon="15.2967333"><ele>178.0</ele><time>2026-04-26T07:22:02.877Z</time></trkpt><trkpt lat="40.60977" lon="15.2966533"><ele>178.0</ele><time>2026-04-26T07:22:03.877Z</time></trkpt><trkpt lat="40.6098617" lon="15.29658"><ele>178.0</ele><time>2026-04-26T07:22:05.877Z</time></trkpt><trkpt lat="40.6099883" lon="15.2965783"><ele>178.0</ele><time>2026-04-26T07:22:07.877Z</time></trkpt><trkpt lat="40.610115" lon="15.296635"><ele>178.0</ele><time>2026-04-26T07:22:09.877Z</time></trkpt><trkpt lat="40.610195" lon="15.296675"><ele>178.0</ele><time>2026-04-26T07:22:10.877Z</time></trkpt><trkpt lat="40.61028" lon="15.2967217"><ele>178.0</ele><time>2026-04-26T07:22:11.877Z</time></trkpt><trkpt lat="40.61037" lon="15.2967683"><ele>178.0</ele><time>2026-04-26T07:22:12.877Z</time></trkpt><trkpt lat="40.6104667" lon="15.2968167"><ele>178.0</ele><time>2026-04-26T07:22:13.878Z</time></trkpt><trkpt lat="40.610575" lon="15.2968717"><ele>178.4</ele><time>2026-04-26T07:22:14.877Z</time></trkpt><trkpt lat="40.6106867" lon="15.296935"><ele>178.8</ele><time>2026-04-26T07:22:15.877Z</time></trkpt><trkpt lat="40.6107933" lon="15.29699"><ele>179.2</ele><time>2026-04-26T07:22:16.877Z</time></trkpt><trkpt lat="40.6108867" lon="15.2970433"><ele>179.6</ele><time>2026-04-26T07:22:17.878Z</time></trkpt><trkpt lat="40.6109683" lon="15.2970967"><ele>180.0</ele><time>2026-04-26T07:22:18.878Z</time></trkpt><trkpt lat="40.6110333" lon="15.2971567"><ele>180.0</ele><time>2026-04-26T07:22:19.877Z</time></trkpt><trkpt lat="40.6110783" lon="15.2972233"><ele>180.0</ele><time>2026-04-26T07:22:20.877Z</time></trkpt><trkpt lat="40.61117" lon="15.2973367"><ele>180.0</ele><time>2026-04-26T07:22:22.877Z</time></trkpt><trkpt lat="40.6112767" lon="15.2973617"><ele>180.0</ele><time>2026-04-26T07:22:24.877Z</time></trkpt><trkpt lat="40.6113833" lon="15.2973333"><ele>180.0</ele><time>2026-04-26T07:22:26.877Z</time></trkpt><trkpt lat="40.6114467" lon="15.29741"><ele>180.5</ele><time>2026-04-26T07:22:29.877Z</time></trkpt><trkpt lat="40.6113733" lon="15.2974983"><ele>181.0</ele><time>2026-04-26T07:22:32.878Z</time></trkpt><trkpt lat="40.6112967" lon="15.2975667"><ele>181.5</ele><time>2026-04-26T07:22:34.877Z</time></trkpt><trkpt lat="40.6112283" lon="15.2976267"><ele>182.0</ele><time>2026-04-26T07:22:36.878Z</time></trkpt><trkpt lat="40.6112683" lon="15.2976933"><ele>182.5</ele><time>2026-04-26T07:44:35.875Z</time></trkpt><trkpt lat="40.6113083" lon="15.2976117"><ele>183.0</ele><time>2026-04-26T07:44:38.874Z</time></trkpt><trkpt lat="40.6113467" lon="15.297525"><ele>183.0</ele><time>2026-04-26T07:44:41.875Z</time></trkpt><trkpt lat="40.611415" lon="15.2974583"><ele>183.0</ele><time>2026-04-26T07:45:29.875Z</time></trkpt><trkpt lat="40.6114517" lon="15.29738"><ele>183.0</ele><time>2026-04-26T07:45:31.874Z</time></trkpt><trkpt lat="40.61143" lon="15.2972783"><ele>183.0</ele><time>2026-04-26T07:45:33.874Z</time></trkpt><trkpt lat="40.6113717" lon="15.2971433"><ele>183.0</ele><time>2026-04-26T07:45:35.875Z</time></trkpt><trkpt lat="40.61134" lon="15.2969933"><ele>183.0</ele><time>2026-04-26T07:45:37.875Z</time></trkpt><trkpt lat="40.61134" lon="15.296825"><ele>183.0</ele><time>2026-04-26T07:45:39.875Z</time></trkpt><trkpt lat="40.611355" lon="15.2967367"><ele>183.0</ele><time>2026-04-26T07:45:40.875Z</time></trkpt><trkpt lat="40.6113683" lon="15.2966433"><ele>183.0</ele><time>2026-04-26T07:45:41.875Z</time></trkpt><trkpt lat="40.6113867" lon="15.2965467"><ele>183.0</ele><time>2026-04-26T07:45:42.875Z</time></trkpt><trkpt lat="40.6114" lon="15.29645"><ele>183.0</ele><time>2026-04-26T07:45:43.874Z</time></trkpt><trkpt lat="40.6114133" lon="15.296345"><ele>181.8</ele><time>2026-04-26T07:45:44.874Z</time></trkpt><trkpt lat="40.611425" lon="15.2962333"><ele>180.60000000000002</ele><time>2026-04-26T07:45:45.874Z</time></trkpt><trkpt lat="40.6114367" lon="15.2961217"><ele>179.39999999999998</ele><time>2026-04-26T07:45:46.875Z</time></trkpt><trkpt lat="40.6114433" lon="15.296"><ele>178.2</ele><time>2026-04-26T07:45:47.875Z</time></trkpt><trkpt lat="40.611445" lon="15.2958733"><ele>177.0</ele><time>2026-04-26T07:45:48.875Z</time></trkpt><trkpt lat="40.6114483" lon="15.2957417"><ele>177.0</ele><time>2026-04-26T07:45:49.874Z</time></trkpt><trkpt lat="40.611445" lon="15.2956117"><ele>177.0</ele><time>2026-04-26T07:45:50.874Z</time></trkpt><trkpt lat="40.61143" lon="15.2954867"><ele>177.0</ele><time>2026-04-26T07:45:51.875Z</time></trkpt><trkpt lat="40.6114117" lon="15.2953567"><ele>177.0</ele><time>2026-04-26T07:45:52.875Z</time></trkpt><trkpt lat="40.611385" lon="15.29523"><ele>177.0</ele><time>2026-04-26T07:45:53.875Z</time></trkpt><trkpt lat="40.61135" lon="15.2951067"><ele>176.39999999999998</ele><time>2026-04-26T07:45:54.875Z</time></trkpt><trkpt lat="40.61131" lon="15.2949883"><ele>175.79999999999998</ele><time>2026-04-26T07:45:55.875Z</time></trkpt><trkpt lat="40.6112633" lon="15.294875"><ele>175.2</ele><time>2026-04-26T07:45:56.875Z</time></trkpt><trkpt lat="40.6112217" lon="15.2947633"><ele>174.6</ele><time>2026-04-26T07:45:57.874Z</time></trkpt><trkpt lat="40.611185" lon="15.2946567"><ele>174.0</ele><time>2026-04-26T07:45:58.875Z</time></trkpt><trkpt lat="40.6111533" lon="15.29456"><ele>173.85714285714286</ele><time>2026-04-26T07:45:59.875Z</time></trkpt><trkpt lat="40.61113" lon="15.294475"><ele>173.71428571428572</ele><time>2026-04-26T07:46:00.874Z</time></trkpt><trkpt lat="40.6111033" lon="15.2943983"><ele>173.57142857142856</ele><time>2026-04-26T07:46:01.875Z</time></trkpt><trkpt lat="40.611105" lon="15.2942633"><ele>173.42857142857144</ele><time>2026-04-26T07:46:03.874Z</time></trkpt><trkpt lat="40.611145" lon="15.2941683"><ele>173.2857142857143</ele><time>2026-04-26T07:46:05.874Z</time></trkpt><trkpt lat="40.6111717" lon="15.29409"><ele>173.14285714285714</ele><time>2026-04-26T07:46:07.875Z</time></trkpt><trkpt lat="40.6111733" lon="15.2940067"><ele>173.0</ele><time>2026-04-26T07:46:09.875Z</time></trkpt><trkpt lat="40.6111417" lon="15.293895"><ele>173.0</ele><time>2026-04-26T07:46:12.874Z</time></trkpt><trkpt lat="40.611105" lon="15.293815"><ele>173.0</ele><time>2026-04-26T07:46:15.875Z</time></trkpt><trkpt lat="40.6110733" lon="15.2937383"><ele>173.0</ele><time>2026-04-26T07:46:18.874Z</time></trkpt><trkpt lat="40.6109483" lon="15.29378"><ele>173.0</ele><time>2026-04-26T07:52:33.873Z</time></trkpt><trkpt lat="40.6108783" lon="15.2937983"><ele>173.0</ele><time>2026-04-26T07:52:36.873Z</time></trkpt><trkpt lat="40.6108433" lon="15.2939183"><ele>173.0</ele><time>2026-04-26T07:52:41.873Z</time></trkpt><trkpt lat="40.6108867" lon="15.2940767"><ele>173.0</ele><time>2026-04-26T07:52:43.873Z</time></trkpt><trkpt lat="40.6109233" lon="15.2941567"><ele>173.0</ele><time>2026-04-26T07:52:44.874Z</time></trkpt><trkpt lat="40.6109617" lon="15.294245"><ele>173.0</ele><time>2026-04-26T07:52:45.873Z</time></trkpt><trkpt lat="40.611005" lon="15.2943433"><ele>173.0</ele><time>2026-04-26T07:52:46.873Z</time></trkpt><trkpt lat="40.6110533" lon="15.2944467"><ele>173.0</ele><time>2026-04-26T07:52:47.874Z</time></trkpt><trkpt lat="40.6111017" lon="15.294555"><ele>173.0</ele><time>2026-04-26T07:52:48.874Z</time></trkpt><trkpt lat="40.61115" lon="15.2946633"><ele>173.2</ele><time>2026-04-26T07:52:49.874Z</time></trkpt><trkpt lat="40.6111967" lon="15.2947783"><ele>173.4</ele><time>2026-04-26T07:52:50.873Z</time></trkpt><trkpt lat="40.6112433" lon="15.2949"><ele>173.6</ele><time>2026-04-26T07:52:51.873Z</time></trkpt><trkpt lat="40.61128" lon="15.295025"><ele>173.79999999999998</ele><time>2026-04-26T07:52:52.874Z</time></trkpt><trkpt lat="40.6113217" lon="15.2951483"><ele>174.0</ele><time>2026-04-26T07:52:53.873Z</time></trkpt><trkpt lat="40.6113517" lon="15.2952733"><ele>174.0</ele><time>2026-04-26T07:52:54.874Z</time></trkpt><trkpt lat="40.6113767" lon="15.2953967"><ele>174.0</ele><time>2026-04-26T07:52:55.874Z</time></trkpt><trkpt lat="40.6113917" lon="15.295525"><ele>174.0</ele><time>2026-04-26T07:52:56.874Z</time></trkpt><trkpt lat="40.6114017" lon="15.2956483"><ele>174.0</ele><time>2026-04-26T07:52:57.874Z</time></trkpt><trkpt lat="40.6114083" lon="15.2957683"><ele>174.0</ele><time>2026-04-26T07:52:58.873Z</time></trkpt><trkpt lat="40.6114083" lon="15.2958867"><ele>174.6</ele><time>2026-04-26T07:52:59.874Z</time></trkpt><trkpt lat="40.6114033" lon="15.296005"><ele>175.2</ele><time>2026-04-26T07:53:00.874Z</time></trkpt><trkpt lat="40.6113933" lon="15.2961183"><ele>175.79999999999998</ele><time>2026-04-26T07:53:01.874Z</time></trkpt><trkpt lat="40.6113783" lon="15.296235"><ele>176.39999999999998</ele><time>2026-04-26T07:53:02.873Z</time></trkpt><trkpt lat="40.6113617" lon="15.296355"><ele>177.0</ele><time>2026-04-26T07:53:03.873Z</time></trkpt><trkpt lat="40.6113433" lon="15.29648"><ele>178.0</ele><time>2026-04-26T07:53:04.874Z</time></trkpt><trkpt lat="40.6113217" lon="15.2966083"><ele>179.0</ele><time>2026-04-26T07:53:05.874Z</time></trkpt><trkpt lat="40.6112983" lon="15.29673"><ele>180.0</ele><time>2026-04-26T07:53:06.873Z</time></trkpt><trkpt lat="40.611275" lon="15.296835"><ele>181.0</ele><time>2026-04-26T07:53:07.874Z</time></trkpt><trkpt lat="40.6112467" lon="15.296925"><ele>182.0</ele><time>2026-04-26T07:53:08.873Z</time></trkpt><trkpt lat="40.611205" lon="15.2969983"><ele>183.0</ele><time>2026-04-26T07:53:09.873Z</time></trkpt><trkpt lat="40.6111667" lon="15.297065"><ele>183.14285714285714</ele><time>2026-04-26T07:53:10.874Z</time></trkpt><trkpt lat="40.6111283" lon="15.2971317"><ele>183.28571428571428</ele><time>2026-04-26T07:53:11.874Z</time></trkpt><trkpt lat="40.6111083" lon="15.2972117"><ele>183.42857142857144</ele><time>2026-04-26T07:53:12.873Z</time></trkpt><trkpt lat="40.6111133" lon="15.2972983"><ele>183.57142857142856</ele><time>2026-04-26T07:53:13.874Z</time></trkpt><trkpt lat="40.6111217" lon="15.29739"><ele>183.7142857142857</ele><time>2026-04-26T07:53:14.874Z</time></trkpt><trkpt lat="40.6111267" lon="15.29749"><ele>183.85714285714286</ele><time>2026-04-26T07:53:15.873Z</time></trkpt><trkpt lat="40.611115" lon="15.2975933"><ele>184.0</ele><time>2026-04-26T07:53:16.873Z</time></trkpt><trkpt lat="40.6110933" lon="15.2977017"><ele>184.0</ele><time>2026-04-26T07:53:17.874Z</time></trkpt><trkpt lat="40.61107" lon="15.2978217"><ele>184.0</ele><time>2026-04-26T07:53:18.873Z</time></trkpt><trkpt lat="40.6110383" lon="15.2979533"><ele>184.0</ele><time>2026-04-26T07:53:19.874Z</time></trkpt><trkpt lat="40.6110033" lon="15.2980967"><ele>184.0</ele><time>2026-04-26T07:53:20.873Z</time></trkpt><trkpt lat="40.6109683" lon="15.2982517"><ele>184.0</ele><time>2026-04-26T07:53:21.874Z</time></trkpt><trkpt lat="40.6109283" lon="15.2984183"><ele>184.25</ele><time>2026-04-26T07:53:22.874Z</time></trkpt><trkpt lat="40.61089" lon="15.2985867"><ele>184.5</ele><time>2026-04-26T07:53:23.874Z</time></trkpt><trkpt lat="40.6108483" lon="15.2987717"><ele>184.75</ele><time>2026-04-26T07:53:24.873Z</time></trkpt><trkpt lat="40.6107983" lon="15.2989667"><ele>185.0</ele><time>2026-04-26T07:53:25.874Z</time></trkpt><trkpt lat="40.6107483" lon="15.299165"><ele>185.66666666666666</ele><time>2026-04-26T07:53:26.874Z</time></trkpt><trkpt lat="40.6107017" lon="15.2993633"><ele>186.33333333333334</ele><time>2026-04-26T07:53:27.874Z</time></trkpt><trkpt lat="40.610655" lon="15.2995783"><ele>187.0</ele><time>2026-04-26T07:53:28.873Z</time></trkpt><trkpt lat="40.6106233" lon="15.2997967"><ele>188.0</ele><time>2026-04-26T07:53:29.873Z</time></trkpt><trkpt lat="40.610585" lon="15.3000133"><ele>189.0</ele><time>2026-04-26T07:53:30.874Z</time></trkpt><trkpt lat="40.6105533" lon="15.3002317"><ele>190.0</ele><time>2026-04-26T07:53:31.873Z</time></trkpt><trkpt lat="40.6105367" lon="15.3004583"><ele>188.0</ele><time>2026-04-26T07:53:32.874Z</time></trkpt><trkpt lat="40.6105233" lon="15.3006883"><ele>186.0</ele><time>2026-04-26T07:53:33.873Z</time></trkpt><trkpt lat="40.610515" lon="15.3009233"><ele>184.0</ele><time>2026-04-26T07:53:34.873Z</time></trkpt><trkpt lat="40.6105167" lon="15.3011617"><ele>184.0</ele><time>2026-04-26T07:53:35.874Z</time></trkpt><trkpt lat="40.61053" lon="15.3014033"><ele>184.0</ele><time>2026-04-26T07:53:36.873Z</time></trkpt><trkpt lat="40.610555" lon="15.3016467"><ele>184.0</ele><time>2026-04-26T07:53:37.874Z</time></trkpt><trkpt lat="40.610585" lon="15.3018983"><ele>182.33333333333334</ele><time>2026-04-26T07:53:38.874Z</time></trkpt><trkpt lat="40.610625" lon="15.3021483"><ele>180.66666666666666</ele><time>2026-04-26T07:53:39.874Z</time></trkpt><trkpt lat="40.610675" lon="15.3023917"><ele>179.0</ele><time>2026-04-26T07:53:40.873Z</time></trkpt><trkpt lat="40.6107367" lon="15.302635"><ele>177.0</ele><time>2026-04-26T07:53:41.873Z</time></trkpt><trkpt lat="40.6108067" lon="15.3028683"><ele>175.0</ele><time>2026-04-26T07:53:42.873Z</time></trkpt><trkpt lat="40.6108817" lon="15.3031"><ele>173.0</ele><time>2026-04-26T07:53:43.873Z</time></trkpt><trkpt lat="40.6109617" lon="15.3033233"><ele>172.66666666666666</ele><time>2026-04-26T07:53:44.872Z</time></trkpt><trkpt lat="40.6110483" lon="15.3035417"><ele>172.33333333333334</ele><time>2026-04-26T07:53:45.872Z</time></trkpt><trkpt lat="40.6111333" lon="15.303765"><ele>172.0</ele><time>2026-04-26T07:53:46.872Z</time></trkpt><trkpt lat="40.611215" lon="15.3039833"><ele>172.0</ele><time>2026-04-26T07:53:47.873Z</time></trkpt><trkpt lat="40.6112983" lon="15.3042033"><ele>172.0</ele><time>2026-04-26T07:53:48.872Z</time></trkpt><trkpt lat="40.61138" lon="15.304415"><ele>172.0</ele><time>2026-04-26T07:53:49.873Z</time></trkpt><trkpt lat="40.611455" lon="15.3046283"><ele>170.0</ele><time>2026-04-26T07:53:50.872Z</time></trkpt><trkpt lat="40.6115167" lon="15.3048517"><ele>168.0</ele><time>2026-04-26T07:53:51.873Z</time></trkpt><trkpt lat="40.6115617" lon="15.305075"><ele>166.0</ele><time>2026-04-26T07:53:52.873Z</time></trkpt><trkpt lat="40.6115967" lon="15.3052883"><ele>166.0</ele><time>2026-04-26T07:53:53.873Z</time></trkpt><trkpt lat="40.6116167" lon="15.3054917"><ele>166.0</ele><time>2026-04-26T07:53:54.872Z</time></trkpt><trkpt lat="40.6116217" lon="15.3056933"><ele>166.0</ele><time>2026-04-26T07:53:55.873Z</time></trkpt><trkpt lat="40.611615" lon="15.3058933"><ele>164.0</ele><time>2026-04-26T07:53:56.872Z</time></trkpt><trkpt lat="40.6116017" lon="15.3060967"><ele>162.0</ele><time>2026-04-26T07:53:57.873Z</time></trkpt><trkpt lat="40.61158" lon="15.3063033"><ele>160.0</ele><time>2026-04-26T07:53:58.873Z</time></trkpt><trkpt lat="40.61155" lon="15.3065067"><ele>159.66666666666669</ele><time>2026-04-26T07:53:59.873Z</time></trkpt><trkpt lat="40.6115117" lon="15.3067083"><ele>159.33333333333334</ele><time>2026-04-26T07:54:00.873Z</time></trkpt><trkpt lat="40.611455" lon="15.3069017"><ele>159.0</ele><time>2026-04-26T07:54:01.873Z</time></trkpt><trkpt lat="40.611385" lon="15.3071"><ele>158.66666666666666</ele><time>2026-04-26T07:54:02.873Z</time></trkpt><trkpt lat="40.611295" lon="15.3072883"><ele>158.33333333333331</ele><time>2026-04-26T07:54:03.873Z</time></trkpt><trkpt lat="40.6111917" lon="15.3074767"><ele>158.0</ele><time>2026-04-26T07:54:04.872Z</time></trkpt><trkpt lat="40.6110767" lon="15.3076567"><ele>155.66666666666666</ele><time>2026-04-26T07:54:05.872Z</time></trkpt><trkpt lat="40.6109533" lon="15.30783"><ele>153.33333333333334</ele><time>2026-04-26T07:54:06.873Z</time></trkpt><trkpt lat="40.6108267" lon="15.3079983"><ele>151.0</ele><time>2026-04-26T07:54:07.873Z</time></trkpt><trkpt lat="40.6106933" lon="15.3081717"><ele>148.66666666666669</ele><time>2026-04-26T07:54:08.872Z</time></trkpt><trkpt lat="40.6105567" lon="15.30835"><ele>146.33333333333334</ele><time>2026-04-26T07:54:09.872Z</time></trkpt><trkpt lat="40.6104217" lon="15.3085367"><ele>144.0</ele><time>2026-04-26T07:54:10.873Z</time></trkpt><trkpt lat="40.6102817" lon="15.3087233"><ele>142.33333333333334</ele><time>2026-04-26T07:54:11.872Z</time></trkpt><trkpt lat="40.6101433" lon="15.30891"><ele>140.66666666666669</ele><time>2026-04-26T07:54:12.872Z</time></trkpt><trkpt lat="40.609995" lon="15.3090983"><ele>139.0</ele><time>2026-04-26T07:54:13.873Z</time></trkpt><trkpt lat="40.6098467" lon="15.3093017"><ele>139.0</ele><time>2026-04-26T07:54:14.873Z</time></trkpt><trkpt lat="40.6096933" lon="15.3094983"><ele>139.0</ele><time>2026-04-26T07:54:15.873Z</time></trkpt><trkpt lat="40.609545" lon="15.3096967"><ele>139.0</ele><time>2026-04-26T07:54:16.873Z</time></trkpt><trkpt lat="40.6094033" lon="15.3098817"><ele>137.66666666666669</ele><time>2026-04-26T07:54:17.872Z</time></trkpt><trkpt lat="40.6092633" lon="15.3100617"><ele>136.33333333333334</ele><time>2026-04-26T07:54:18.872Z</time></trkpt><trkpt lat="40.6091283" lon="15.3102417"><ele>135.0</ele><time>2026-04-26T07:54:19.873Z</time></trkpt><trkpt lat="40.6089917" lon="15.3104383"><ele>135.66666666666666</ele><time>2026-04-26T07:54:20.872Z</time></trkpt><trkpt lat="40.6088567" lon="15.3106383"><ele>136.33333333333331</ele><time>2026-04-26T07:54:21.873Z</time></trkpt><trkpt lat="40.6087317" lon="15.3108483"><ele>137.0</ele><time>2026-04-26T07:54:22.873Z</time></trkpt><trkpt lat="40.60861" lon="15.3110733"><ele>137.0</ele><time>2026-04-26T07:54:23.873Z</time></trkpt><trkpt lat="40.6085" lon="15.3113117"><ele>137.0</ele><time>2026-04-26T07:54:24.872Z</time></trkpt><trkpt lat="40.6083933" lon="15.31156"><ele>137.0</ele><time>2026-04-26T07:54:25.872Z</time></trkpt><trkpt lat="40.6082983" lon="15.3118117"><ele>138.66666666666666</ele><time>2026-04-26T07:54:26.873Z</time></trkpt><trkpt lat="40.6082033" lon="15.3120683"><ele>140.33333333333334</ele><time>2026-04-26T07:54:27.872Z</time></trkpt><trkpt lat="40.608115" lon="15.3123167"><ele>142.0</ele><time>2026-04-26T07:54:28.872Z</time></trkpt><trkpt lat="40.608025" lon="15.3125667"><ele>141.33333333333334</ele><time>2026-04-26T07:54:29.873Z</time></trkpt><trkpt lat="40.6079367" lon="15.312815"><ele>140.66666666666666</ele><time>2026-04-26T07:54:30.873Z</time></trkpt><trkpt lat="40.607845" lon="15.313065"><ele>140.0</ele><time>2026-04-26T07:54:31.873Z</time></trkpt><trkpt lat="40.6077467" lon="15.3133133"><ele>140.0</ele><time>2026-04-26T07:54:32.872Z</time></trkpt><trkpt lat="40.6076517" lon="15.3135667"><ele>140.0</ele><time>2026-04-26T07:54:33.872Z</time></trkpt><trkpt lat="40.607545" lon="15.3138267"><ele>140.0</ele><time>2026-04-26T07:54:34.872Z</time></trkpt><trkpt lat="40.607445" lon="15.3140867"><ele>141.66666666666666</ele><time>2026-04-26T07:54:35.873Z</time></trkpt><trkpt lat="40.6073483" lon="15.3143467"><ele>143.33333333333334</ele><time>2026-04-26T07:54:36.872Z</time></trkpt><trkpt lat="40.6072533" lon="15.3146133"><ele>145.0</ele><time>2026-04-26T07:54:37.873Z</time></trkpt><trkpt lat="40.6071533" lon="15.3148833"><ele>142.5</ele><time>2026-04-26T07:54:38.873Z</time></trkpt><trkpt lat="40.6070583" lon="15.315155"><ele>140.0</ele><time>2026-04-26T07:54:39.872Z</time></trkpt><trkpt lat="40.6069617" lon="15.3154283"><ele>141.0</ele><time>2026-04-26T07:54:40.873Z</time></trkpt><trkpt lat="40.6068617" lon="15.3157"><ele>142.0</ele><time>2026-04-26T07:54:41.873Z</time></trkpt><trkpt lat="40.6067583" lon="15.315975"><ele>142.0</ele><time>2026-04-26T07:54:42.872Z</time></trkpt><trkpt lat="40.60665" lon="15.31625"><ele>142.0</ele><time>2026-04-26T07:54:43.873Z</time></trkpt><trkpt lat="40.606545" lon="15.3165267"><ele>145.0</ele><time>2026-04-26T07:54:44.872Z</time></trkpt><trkpt lat="40.6064433" lon="15.3168067"><ele>148.0</ele><time>2026-04-26T07:54:45.872Z</time></trkpt><trkpt lat="40.6063367" lon="15.317085"><ele>150.5</ele><time>2026-04-26T07:54:46.872Z</time></trkpt><trkpt lat="40.6062333" lon="15.3173617"><ele>153.0</ele><time>2026-04-26T07:54:47.873Z</time></trkpt><trkpt lat="40.60613" lon="15.3176417"><ele>149.5</ele><time>2026-04-26T07:54:48.873Z</time></trkpt><trkpt lat="40.60603" lon="15.3179267"><ele>146.0</ele><time>2026-04-26T07:54:49.873Z</time></trkpt><trkpt lat="40.605925" lon="15.3182083"><ele>146.0</ele><time>2026-04-26T07:54:50.873Z</time></trkpt><trkpt lat="40.605825" lon="15.31849"><ele>146.0</ele><time>2026-04-26T07:54:51.872Z</time></trkpt><trkpt lat="40.60572" lon="15.3187667"><ele>148.5</ele><time>2026-04-26T07:54:52.872Z</time></trkpt><trkpt lat="40.605625" lon="15.3190517"><ele>151.0</ele><time>2026-04-26T07:54:53.873Z</time></trkpt><trkpt lat="40.605535" lon="15.319335"><ele>151.0</ele><time>2026-04-26T07:54:54.872Z</time></trkpt><trkpt lat="40.6054467" lon="15.3196217"><ele>151.0</ele><time>2026-04-26T07:54:55.873Z</time></trkpt><trkpt lat="40.60536" lon="15.3199133"><ele>145.5</ele><time>2026-04-26T07:54:56.872Z</time></trkpt><trkpt lat="40.605265" lon="15.320205"><ele>140.0</ele><time>2026-04-26T07:54:57.873Z</time></trkpt><trkpt lat="40.6051633" lon="15.32048"><ele>141.0</ele><time>2026-04-26T07:54:58.872Z</time></trkpt><trkpt lat="40.6050517" lon="15.3207617"><ele>142.0</ele><time>2026-04-26T07:54:59.873Z</time></trkpt><trkpt lat="40.6049367" lon="15.3210417"><ele>142.0</ele><time>2026-04-26T07:55:00.873Z</time></trkpt><trkpt lat="40.6048133" lon="15.3213217"><ele>142.0</ele><time>2026-04-26T07:55:01.872Z</time></trkpt><trkpt lat="40.6046833" lon="15.321595"><ele>141.0</ele><time>2026-04-26T07:55:02.872Z</time></trkpt><trkpt lat="40.6045483" lon="15.3218667"><ele>140.0</ele><time>2026-04-26T07:55:03.872Z</time></trkpt><trkpt lat="40.6044133" lon="15.32213"><ele>142.5</ele><time>2026-04-26T07:55:04.872Z</time></trkpt><trkpt lat="40.604275" lon="15.3223883"><ele>145.0</ele><time>2026-04-26T07:55:05.873Z</time></trkpt><trkpt lat="40.604135" lon="15.3226433"><ele>145.0</ele><time>2026-04-26T07:55:06.873Z</time></trkpt><trkpt lat="40.6039933" lon="15.3228967"><ele>145.0</ele><time>2026-04-26T07:55:07.872Z</time></trkpt><trkpt lat="40.6038533" lon="15.3231467"><ele>147.0</ele><time>2026-04-26T07:55:08.873Z</time></trkpt><trkpt lat="40.6037167" lon="15.3233983"><ele>149.0</ele><time>2026-04-26T07:55:09.872Z</time></trkpt><trkpt lat="40.6035767" lon="15.32365"><ele>146.0</ele><time>2026-04-26T07:55:10.873Z</time></trkpt><trkpt lat="40.6034433" lon="15.3239017"><ele>143.0</ele><time>2026-04-26T07:55:11.872Z</time></trkpt><trkpt lat="40.603305" lon="15.3241617"><ele>143.0</ele><time>2026-04-26T07:55:12.872Z</time></trkpt><trkpt lat="40.6031783" lon="15.3244283"><ele>143.0</ele><time>2026-04-26T07:55:13.873Z</time></trkpt><trkpt lat="40.6030667" lon="15.32471"><ele>145.0</ele><time>2026-04-26T07:55:14.873Z</time></trkpt><trkpt lat="40.6029733" lon="15.32499"><ele>147.0</ele><time>2026-04-26T07:55:15.873Z</time></trkpt><trkpt lat="40.6028867" lon="15.3252683"><ele>145.66666666666666</ele><time>2026-04-26T07:55:16.873Z</time></trkpt><trkpt lat="40.6028183" lon="15.325545"><ele>144.33333333333331</ele><time>2026-04-26T07:55:17.872Z</time></trkpt><trkpt lat="40.602755" lon="15.32583"><ele>143.0</ele><time>2026-04-26T07:55:18.873Z</time></trkpt><trkpt lat="40.6027117" lon="15.326125"><ele>143.0</ele><time>2026-04-26T07:55:19.872Z</time></trkpt><trkpt lat="40.6026783" lon="15.3264317"><ele>143.0</ele><time>2026-04-26T07:55:20.873Z</time></trkpt><trkpt lat="40.6026567" lon="15.3267417"><ele>143.0</ele><time>2026-04-26T07:55:21.872Z</time></trkpt><trkpt lat="40.6026417" lon="15.32704"><ele>143.0</ele><time>2026-04-26T07:55:22.872Z</time></trkpt><trkpt lat="40.6026183" lon="15.3273167"><ele>143.0</ele><time>2026-04-26T07:55:23.873Z</time></trkpt><trkpt lat="40.6025983" lon="15.32758"><ele>143.66666666666666</ele><time>2026-04-26T07:55:24.872Z</time></trkpt><trkpt lat="40.6025867" lon="15.3278317"><ele>144.33333333333334</ele><time>2026-04-26T07:55:25.873Z</time></trkpt><trkpt lat="40.602575" lon="15.32807"><ele>145.0</ele><time>2026-04-26T07:55:26.873Z</time></trkpt><trkpt lat="40.6025567" lon="15.3283"><ele>145.0</ele><time>2026-04-26T07:55:27.873Z</time></trkpt><trkpt lat="40.6025283" lon="15.3285233"><ele>145.0</ele><time>2026-04-26T07:55:28.873Z</time></trkpt><trkpt lat="40.6024917" lon="15.32875"><ele>145.0</ele><time>2026-04-26T07:55:29.872Z</time></trkpt><trkpt lat="40.602455" lon="15.3289817"><ele>145.33333333333334</ele><time>2026-04-26T07:55:30.873Z</time></trkpt><trkpt lat="40.6024083" lon="15.3292233"><ele>145.66666666666666</ele><time>2026-04-26T07:55:31.873Z</time></trkpt><trkpt lat="40.6023483" lon="15.3294633"><ele>146.0</ele><time>2026-04-26T07:55:32.872Z</time></trkpt><trkpt lat="40.6022783" lon="15.3297083"><ele>146.66666666666666</ele><time>2026-04-26T07:55:33.873Z</time></trkpt><trkpt lat="40.6021967" lon="15.329945"><ele>147.33333333333334</ele><time>2026-04-26T07:55:34.872Z</time></trkpt><trkpt lat="40.6021067" lon="15.33018"><ele>148.0</ele><time>2026-04-26T07:55:35.872Z</time></trkpt><trkpt lat="40.6020117" lon="15.3304"><ele>146.33333333333334</ele><time>2026-04-26T07:55:36.873Z</time></trkpt><trkpt lat="40.60191" lon="15.3306083"><ele>144.66666666666666</ele><time>2026-04-26T07:55:37.873Z</time></trkpt><trkpt lat="40.6017917" lon="15.330815"><ele>143.0</ele><time>2026-04-26T07:55:38.873Z</time></trkpt><trkpt lat="40.6016667" lon="15.3310117"><ele>143.0</ele><time>2026-04-26T07:55:39.872Z</time></trkpt><trkpt lat="40.6015467" lon="15.33122"><ele>143.0</ele><time>2026-04-26T07:55:40.872Z</time></trkpt><trkpt lat="40.601425" lon="15.3314333"><ele>143.0</ele><time>2026-04-26T07:55:41.872Z</time></trkpt><trkpt lat="40.6012933" lon="15.3316533"><ele>141.33333333333331</ele><time>2026-04-26T07:55:42.872Z</time></trkpt><trkpt lat="40.601155" lon="15.3318817"><ele>139.66666666666666</ele><time>2026-04-26T07:55:43.872Z</time></trkpt><trkpt lat="40.6010217" lon="15.3321"><ele>138.0</ele><time>2026-04-26T07:55:44.872Z</time></trkpt><trkpt lat="40.60088" lon="15.332335"><ele>143.0</ele><time>2026-04-26T07:55:45.872Z</time></trkpt><trkpt lat="40.6007367" lon="15.3325717"><ele>148.0</ele><time>2026-04-26T07:55:46.873Z</time></trkpt><trkpt lat="40.60059" lon="15.3328083"><ele>148.0</ele><time>2026-04-26T07:55:47.872Z</time></trkpt><trkpt lat="40.6004417" lon="15.33305"><ele>148.0</ele><time>2026-04-26T07:55:48.872Z</time></trkpt><trkpt lat="40.6002933" lon="15.33329"><ele>145.0</ele><time>2026-04-26T07:55:49.872Z</time></trkpt><trkpt lat="40.6001417" lon="15.3335217"><ele>142.0</ele><time>2026-04-26T07:55:50.872Z</time></trkpt><trkpt lat="40.5999833" lon="15.3337467"><ele>148.5</ele><time>2026-04-26T07:55:51.872Z</time></trkpt><trkpt lat="40.5998267" lon="15.333975"><ele>155.0</ele><time>2026-04-26T07:55:52.872Z</time></trkpt><trkpt lat="40.5996667" lon="15.3342083"><ele>155.0</ele><time>2026-04-26T07:55:53.872Z</time></trkpt><trkpt lat="40.5995033" lon="15.3344433"><ele>155.0</ele><time>2026-04-26T07:55:54.873Z</time></trkpt><trkpt lat="40.5993417" lon="15.3346867"><ele>154.0</ele><time>2026-04-26T07:55:55.873Z</time></trkpt><trkpt lat="40.5991783" lon="15.3349317"><ele>153.0</ele><time>2026-04-26T07:55:56.872Z</time></trkpt><trkpt lat="40.5990067" lon="15.3351733"><ele>153.0</ele><time>2026-04-26T07:55:57.873Z</time></trkpt><trkpt lat="40.5988367" lon="15.335415"><ele>153.0</ele><time>2026-04-26T07:55:58.872Z</time></trkpt><trkpt lat="40.59867" lon="15.33566"><ele>150.0</ele><time>2026-04-26T07:55:59.873Z</time></trkpt><trkpt lat="40.5985033" lon="15.3359083"><ele>147.0</ele><time>2026-04-26T07:56:00.873Z</time></trkpt><trkpt lat="40.5983333" lon="15.33616"><ele>150.5</ele><time>2026-04-26T07:56:01.873Z</time></trkpt><trkpt lat="40.5981633" lon="15.336405"><ele>154.0</ele><time>2026-04-26T07:56:02.872Z</time></trkpt><trkpt lat="40.5979983" lon="15.3366517"><ele>148.5</ele><time>2026-04-26T07:56:03.872Z</time></trkpt><trkpt lat="40.5978291" lon="15.3368978"><ele>143.0</ele><time>2026-04-26T07:56:04.873Z</time></trkpt><trkpt lat="40.5976631" lon="15.3371408"><ele>147.5</ele><time>2026-04-26T07:56:05.873Z</time></trkpt><trkpt lat="40.5975011" lon="15.33738"><ele>152.0</ele><time>2026-04-26T07:56:06.872Z</time></trkpt><trkpt lat="40.5973413" lon="15.3376133"><ele>152.0</ele><time>2026-04-26T07:56:07.872Z</time></trkpt><trkpt lat="40.5971871" lon="15.3378591"><ele>152.0</ele><time>2026-04-26T07:56:08.872Z</time></trkpt><trkpt lat="40.5970405" lon="15.3381151"><ele>149.5</ele><time>2026-04-26T07:56:09.872Z</time></trkpt><trkpt lat="40.5969061" lon="15.3383778"><ele>147.0</ele><time>2026-04-26T07:56:10.872Z</time></trkpt><trkpt lat="40.5967757" lon="15.3386444"><ele>149.0</ele><time>2026-04-26T07:56:11.872Z</time></trkpt><trkpt lat="40.5966539" lon="15.3389103"><ele>151.0</ele><time>2026-04-26T07:56:12.873Z</time></trkpt><trkpt lat="40.5965351" lon="15.3391681"><ele>151.0</ele><time>2026-04-26T07:56:13.872Z</time></trkpt><trkpt lat="40.5964216" lon="15.3394232"><ele>151.0</ele><time>2026-04-26T07:56:14.872Z</time></trkpt><trkpt lat="40.5963133" lon="15.339684"><ele>149.0</ele><time>2026-04-26T07:56:15.872Z</time></trkpt><trkpt lat="40.5962178" lon="15.3399592"><ele>147.0</ele><time>2026-04-26T07:56:16.873Z</time></trkpt><trkpt lat="40.5961348" lon="15.3402387"><ele>147.0</ele><time>2026-04-26T07:56:17.872Z</time></trkpt><trkpt lat="40.5960584" lon="15.3405268"><ele>147.0</ele><time>2026-04-26T07:56:18.873Z</time></trkpt><trkpt lat="40.5959907" lon="15.3408283"><ele>149.5</ele><time>2026-04-26T07:56:19.872Z</time></trkpt><trkpt lat="40.5959315" lon="15.3411408"><ele>152.0</ele><time>2026-04-26T07:56:20.872Z</time></trkpt><trkpt lat="40.5958845" lon="15.3414599"><ele>154.5</ele><time>2026-04-26T07:56:21.873Z</time></trkpt><trkpt lat="40.5958484" lon="15.3417838"><ele>157.0</ele><time>2026-04-26T07:56:22.872Z</time></trkpt><trkpt lat="40.5958274" lon="15.3421144"><ele>159.0</ele><time>2026-04-26T07:56:23.873Z</time></trkpt><trkpt lat="40.5958133" lon="15.3424499"><ele>161.0</ele><time>2026-04-26T07:56:24.873Z</time></trkpt><trkpt lat="40.5958035" lon="15.3427851"><ele>161.5</ele><time>2026-04-26T07:56:25.873Z</time></trkpt><trkpt lat="40.595795" lon="15.3431211"><ele>162.0</ele><time>2026-04-26T07:56:26.872Z</time></trkpt><trkpt lat="40.5957878" lon="15.3434608"><ele>162.0</ele><time>2026-04-26T07:56:27.872Z</time></trkpt><trkpt lat="40.5957774" lon="15.3437986"><ele>162.0</ele><time>2026-04-26T07:56:28.872Z</time></trkpt><trkpt lat="40.5957684" lon="15.3441378"><ele>161.5</ele><time>2026-04-26T07:56:29.872Z</time></trkpt><trkpt lat="40.5957633" lon="15.3444786"><ele>161.0</ele><time>2026-04-26T07:56:30.873Z</time></trkpt><trkpt lat="40.5957573" lon="15.3448212"><ele>162.5</ele><time>2026-04-26T07:56:31.872Z</time></trkpt><trkpt lat="40.5957427" lon="15.3451644"><ele>164.0</ele><time>2026-04-26T07:56:32.873Z</time></trkpt><trkpt lat="40.595729" lon="15.3455119"><ele>164.5</ele><time>2026-04-26T07:56:33.872Z</time></trkpt><trkpt lat="40.5957166" lon="15.3458593"><ele>165.0</ele><time>2026-04-26T07:56:34.873Z</time></trkpt><trkpt lat="40.5957024" lon="15.3462012"><ele>163.0</ele><time>2026-04-26T07:56:35.873Z</time></trkpt><trkpt lat="40.5956934" lon="15.3465304"><ele>161.0</ele><time>2026-04-26T07:56:36.872Z</time></trkpt><trkpt lat="40.5956897" lon="15.3468365"><ele>161.0</ele><time>2026-04-26T07:56:37.872Z</time></trkpt><trkpt lat="40.5956875" lon="15.3471281"><ele>161.0</ele><time>2026-04-26T07:56:38.872Z</time></trkpt><trkpt lat="40.5956789" lon="15.3474206"><ele>161.0</ele><time>2026-04-26T07:56:39.873Z</time></trkpt><trkpt lat="40.5956774" lon="15.3477116"><ele>161.0</ele><time>2026-04-26T07:56:40.873Z</time></trkpt><trkpt lat="40.5956861" lon="15.3479964"><ele>161.0</ele><time>2026-04-26T07:56:41.872Z</time></trkpt><trkpt lat="40.5957094" lon="15.3482662"><ele>161.0</ele><time>2026-04-26T07:56:42.872Z</time></trkpt><trkpt lat="40.5957434" lon="15.3485146"><ele>161.33333333333331</ele><time>2026-04-26T07:56:43.873Z</time></trkpt><trkpt lat="40.5957829" lon="15.3487368"><ele>161.66666666666666</ele><time>2026-04-26T07:56:44.873Z</time></trkpt><trkpt lat="40.595829" lon="15.3489417"><ele>162.0</ele><time>2026-04-26T07:56:45.873Z</time></trkpt><trkpt lat="40.595881" lon="15.3491396"><ele>160.33333333333334</ele><time>2026-04-26T07:56:46.873Z</time></trkpt><trkpt lat="40.5959448" lon="15.3493336"><ele>158.66666666666669</ele><time>2026-04-26T07:56:47.873Z</time></trkpt><trkpt lat="40.5960146" lon="15.3495328"><ele>157.0</ele><time>2026-04-26T07:56:48.872Z</time></trkpt><trkpt lat="40.5960995" lon="15.3497287"><ele>155.33333333333334</ele><time>2026-04-26T07:56:49.873Z</time></trkpt><trkpt lat="40.596195" lon="15.3499219"><ele>153.66666666666666</ele><time>2026-04-26T07:56:50.873Z</time></trkpt><trkpt lat="40.5963011" lon="15.3501113"><ele>152.0</ele><time>2026-04-26T07:56:51.873Z</time></trkpt><trkpt lat="40.5964117" lon="15.3503"><ele>152.0</ele><time>2026-04-26T07:56:52.873Z</time></trkpt><trkpt lat="40.596515" lon="15.3504817"><ele>152.0</ele><time>2026-04-26T07:56:53.872Z</time></trkpt><trkpt lat="40.59661" lon="15.3506667"><ele>152.0</ele><time>2026-04-26T07:56:54.873Z</time></trkpt><trkpt lat="40.5967" lon="15.35086"><ele>152.0</ele><time>2026-04-26T07:56:55.872Z</time></trkpt><trkpt lat="40.59677" lon="15.3510617"><ele>152.0</ele><time>2026-04-26T07:56:56.872Z</time></trkpt><trkpt lat="40.59683" lon="15.3512717"><ele>152.0</ele><time>2026-04-26T07:56:57.872Z</time></trkpt><trkpt lat="40.5968833" lon="15.3514867"><ele>152.33333333333331</ele><time>2026-04-26T07:56:58.873Z</time></trkpt><trkpt lat="40.5969283" lon="15.35171"><ele>152.66666666666666</ele><time>2026-04-26T07:56:59.873Z</time></trkpt><trkpt lat="40.5969717" lon="15.3519267"><ele>153.0</ele><time>2026-04-26T07:57:00.872Z</time></trkpt><trkpt lat="40.59701" lon="15.3521533"><ele>155.66666666666666</ele><time>2026-04-26T07:57:01.873Z</time></trkpt><trkpt lat="40.5970433" lon="15.3523933"><ele>158.33333333333331</ele><time>2026-04-26T07:57:02.872Z</time></trkpt><trkpt lat="40.597085" lon="15.3526317"><ele>161.0</ele><time>2026-04-26T07:57:03.872Z</time></trkpt><trkpt lat="40.5971417" lon="15.3528667"><ele>161.0</ele><time>2026-04-26T07:57:04.873Z</time></trkpt><trkpt lat="40.5971983" lon="15.3531033"><ele>161.0</ele><time>2026-04-26T07:57:05.872Z</time></trkpt><trkpt lat="40.597255" lon="15.3533333"><ele>161.0</ele><time>2026-04-26T07:57:06.873Z</time></trkpt><trkpt lat="40.5973117" lon="15.3535783"><ele>161.0</ele><time>2026-04-26T07:57:07.872Z</time></trkpt><trkpt lat="40.5973967" lon="15.35386"><ele>161.0</ele><time>2026-04-26T07:57:08.873Z</time></trkpt><trkpt lat="40.5973783" lon="15.3541833"><ele>160.0</ele><time>2026-04-26T07:57:09.873Z</time></trkpt><trkpt lat="40.5974033" lon="15.3545167"><ele>159.0</ele><time>2026-04-26T07:57:10.872Z</time></trkpt><trkpt lat="40.5974467" lon="15.3548217"><ele>158.0</ele><time>2026-04-26T07:57:11.872Z</time></trkpt><trkpt lat="40.5974883" lon="15.355115"><ele>157.0</ele><time>2026-04-26T07:57:12.873Z</time></trkpt><trkpt lat="40.5975317" lon="15.355405"><ele>157.0</ele><time>2026-04-26T07:57:13.873Z</time></trkpt><trkpt lat="40.5975783" lon="15.3556933"><ele>157.0</ele><time>2026-04-26T07:57:14.873Z</time></trkpt><trkpt lat="40.5976233" lon="15.3559867"><ele>157.0</ele><time>2026-04-26T07:57:15.873Z</time></trkpt><trkpt lat="40.5976767" lon="15.356275"><ele>157.0</ele><time>2026-04-26T07:57:16.872Z</time></trkpt><trkpt lat="40.59772" lon="15.3565767"><ele>156.5</ele><time>2026-04-26T07:57:17.873Z</time></trkpt><trkpt lat="40.5977533" lon="15.3568867"><ele>156.0</ele><time>2026-04-26T07:57:18.872Z</time></trkpt><trkpt lat="40.5977817" lon="15.3572017"><ele>155.5</ele><time>2026-04-26T07:57:19.872Z</time></trkpt><trkpt lat="40.5978" lon="15.35752"><ele>155.0</ele><time>2026-04-26T07:57:20.873Z</time></trkpt><trkpt lat="40.597815" lon="15.3578383"><ele>155.5</ele><time>2026-04-26T07:57:21.873Z</time></trkpt><trkpt lat="40.59782" lon="15.3581633"><ele>156.0</ele><time>2026-04-26T07:57:22.872Z</time></trkpt><trkpt lat="40.5978167" lon="15.3584917"><ele>156.0</ele><time>2026-04-26T07:57:23.873Z</time></trkpt><trkpt lat="40.5978183" lon="15.3588067"><ele>156.0</ele><time>2026-04-26T07:57:24.873Z</time></trkpt><trkpt lat="40.5978167" lon="15.35911"><ele>156.0</ele><time>2026-04-26T07:57:25.872Z</time></trkpt><trkpt lat="40.5978133" lon="15.359425"><ele>156.0</ele><time>2026-04-26T07:57:26.873Z</time></trkpt><trkpt lat="40.5978067" lon="15.3597467"><ele>156.0</ele><time>2026-04-26T07:57:27.872Z</time></trkpt><trkpt lat="40.5978017" lon="15.360065"><ele>156.0</ele><time>2026-04-26T07:57:28.873Z</time></trkpt><trkpt lat="40.5978" lon="15.3603917"><ele>156.0</ele><time>2026-04-26T07:57:29.872Z</time></trkpt><trkpt lat="40.5978" lon="15.3607167"><ele>156.0</ele><time>2026-04-26T07:57:30.872Z</time></trkpt><trkpt lat="40.5977967" lon="15.361045"><ele>159.0</ele><time>2026-04-26T07:57:31.873Z</time></trkpt><trkpt lat="40.59779" lon="15.3613767"><ele>162.0</ele><time>2026-04-26T07:57:32.873Z</time></trkpt><trkpt lat="40.5977817" lon="15.36171"><ele>162.0</ele><time>2026-04-26T07:57:33.873Z</time></trkpt><trkpt lat="40.59777" lon="15.3620417"><ele>162.0</ele><time>2026-04-26T07:57:34.872Z</time></trkpt><trkpt lat="40.59776" lon="15.3623717"><ele>164.5</ele><time>2026-04-26T07:57:35.873Z</time></trkpt><trkpt lat="40.5977583" lon="15.3626967"><ele>167.0</ele><time>2026-04-26T07:57:36.872Z</time></trkpt><trkpt lat="40.5977567" lon="15.363005"><ele>165.66666666666666</ele><time>2026-04-26T07:57:37.872Z</time></trkpt><trkpt lat="40.5977583" lon="15.3633017"><ele>164.33333333333334</ele><time>2026-04-26T07:57:38.872Z</time></trkpt><trkpt lat="40.5977683" lon="15.3635917"><ele>163.0</ele><time>2026-04-26T07:57:39.873Z</time></trkpt><trkpt lat="40.5977917" lon="15.3638783"><ele>171.5</ele><time>2026-04-26T07:57:40.873Z</time></trkpt><trkpt lat="40.5978383" lon="15.36417"><ele>180.0</ele><time>2026-04-26T07:57:41.873Z</time></trkpt><trkpt lat="40.5978978" lon="15.3644605"><ele>177.66666666666666</ele><time>2026-04-26T07:57:42.873Z</time></trkpt><trkpt lat="40.5979705" lon="15.3647406"><ele>175.33333333333331</ele><time>2026-04-26T07:57:43.873Z</time></trkpt><trkpt lat="40.5980599" lon="15.3649994"><ele>173.0</ele><time>2026-04-26T07:57:44.873Z</time></trkpt><trkpt lat="40.5981672" lon="15.3652426"><ele>173.0</ele><time>2026-04-26T07:57:45.872Z</time></trkpt><trkpt lat="40.5982814" lon="15.3654725"><ele>173.0</ele><time>2026-04-26T07:57:46.872Z</time></trkpt><trkpt lat="40.5983995" lon="15.3656904"><ele>173.0</ele><time>2026-04-26T07:57:47.873Z</time></trkpt><trkpt lat="40.5985163" lon="15.3659109"><ele>173.0</ele><time>2026-04-26T07:57:48.872Z</time></trkpt><trkpt lat="40.5986333" lon="15.3661338"><ele>173.0</ele><time>2026-04-26T07:57:49.873Z</time></trkpt><trkpt lat="40.5987453" lon="15.3663507"><ele>173.0</ele><time>2026-04-26T07:57:50.872Z</time></trkpt><trkpt lat="40.5988579" lon="15.3665684"><ele>173.0</ele><time>2026-04-26T07:57:51.873Z</time></trkpt><trkpt lat="40.5989678" lon="15.3667916"><ele>173.0</ele><time>2026-04-26T07:57:52.872Z</time></trkpt><trkpt lat="40.5990734" lon="15.367016"><ele>173.0</ele><time>2026-04-26T07:57:53.872Z</time></trkpt><trkpt lat="40.5991684" lon="15.3672592"><ele>170.66666666666666</ele><time>2026-04-26T07:57:54.872Z</time></trkpt><trkpt lat="40.599247" lon="15.367513"><ele>168.33333333333334</ele><time>2026-04-26T07:57:55.873Z</time></trkpt><trkpt lat="40.5993071" lon="15.3677775"><ele>166.0</ele><time>2026-04-26T07:57:56.872Z</time></trkpt><trkpt lat="40.5993564" lon="15.3680541"><ele>165.0</ele><time>2026-04-26T07:57:57.873Z</time></trkpt><trkpt lat="40.5994042" lon="15.368336"><ele>164.0</ele><time>2026-04-26T07:57:58.872Z</time></trkpt><trkpt lat="40.59945" lon="15.3686216"><ele>163.0</ele><time>2026-04-26T07:57:59.872Z</time></trkpt><trkpt lat="40.5994988" lon="15.3689065"><ele>167.66666666666669</ele><time>2026-04-26T07:58:00.873Z</time></trkpt><trkpt lat="40.5995462" lon="15.3691955"><ele>172.33333333333334</ele><time>2026-04-26T07:58:01.873Z</time></trkpt><trkpt lat="40.5995955" lon="15.3694822"><ele>177.0</ele><time>2026-04-26T07:58:02.872Z</time></trkpt><trkpt lat="40.5996452" lon="15.3697688"><ele>177.0</ele><time>2026-04-26T07:58:03.872Z</time></trkpt><trkpt lat="40.5996942" lon="15.3700602"><ele>177.0</ele><time>2026-04-26T07:58:04.873Z</time></trkpt><trkpt lat="40.5997451" lon="15.3703466"><ele>176.33333333333334</ele><time>2026-04-26T07:58:05.872Z</time></trkpt><trkpt lat="40.5997947" lon="15.3706183"><ele>175.66666666666669</ele><time>2026-04-26T07:58:06.873Z</time></trkpt><trkpt lat="40.5998417" lon="15.3708811"><ele>175.0</ele><time>2026-04-26T07:58:07.873Z</time></trkpt><trkpt lat="40.5998942" lon="15.3711445"><ele>174.33333333333334</ele><time>2026-04-26T07:58:08.873Z</time></trkpt><trkpt lat="40.5999565" lon="15.3714102"><ele>173.66666666666666</ele><time>2026-04-26T07:58:09.872Z</time></trkpt><trkpt lat="40.6000345" lon="15.3716736"><ele>173.0</ele><time>2026-04-26T07:58:10.872Z</time></trkpt><trkpt lat="40.6001336" lon="15.3719324"><ele>173.0</ele><time>2026-04-26T07:58:11.873Z</time></trkpt><trkpt lat="40.6002561" lon="15.372179"><ele>173.0</ele><time>2026-04-26T07:58:12.872Z</time></trkpt><trkpt lat="40.6003928" lon="15.3724189"><ele>177.0</ele><time>2026-04-26T07:58:13.872Z</time></trkpt><trkpt lat="40.600545" lon="15.3726432"><ele>181.0</ele><time>2026-04-26T07:58:14.872Z</time></trkpt><trkpt lat="40.6007136" lon="15.3728546"><ele>175.5</ele><time>2026-04-26T07:58:15.872Z</time></trkpt><trkpt lat="40.6008967" lon="15.3730472"><ele>170.0</ele><time>2026-04-26T07:58:16.872Z</time></trkpt><trkpt lat="40.6010805" lon="15.3732176"><ele>173.66666666666666</ele><time>2026-04-26T07:58:17.872Z</time></trkpt><trkpt lat="40.6012561" lon="15.373374"><ele>177.33333333333334</ele><time>2026-04-26T07:58:18.872Z</time></trkpt><trkpt lat="40.6014179" lon="15.3735208"><ele>181.0</ele><time>2026-04-26T07:58:19.873Z</time></trkpt><trkpt lat="40.6015717" lon="15.3736654"><ele>181.0</ele><time>2026-04-26T07:58:20.872Z</time></trkpt><trkpt lat="40.6017186" lon="15.3738062"><ele>181.0</ele><time>2026-04-26T07:58:21.872Z</time></trkpt><trkpt lat="40.6018644" lon="15.3739457"><ele>181.0</ele><time>2026-04-26T07:58:22.872Z</time></trkpt><trkpt lat="40.6020103" lon="15.3740911"><ele>179.0</ele><time>2026-04-26T07:58:23.872Z</time></trkpt><trkpt lat="40.6021541" lon="15.3742372"><ele>177.0</ele><time>2026-04-26T07:58:24.873Z</time></trkpt><trkpt lat="40.6022921" lon="15.3743822"><ele>175.0</ele><time>2026-04-26T07:58:25.872Z</time></trkpt><trkpt lat="40.6024178" lon="15.3745281"><ele>175.0</ele><time>2026-04-26T07:58:26.872Z</time></trkpt><trkpt lat="40.6025357" lon="15.3746821"><ele>175.0</ele><time>2026-04-26T07:58:27.873Z</time></trkpt><trkpt lat="40.6026502" lon="15.374849"><ele>175.0</ele><time>2026-04-26T07:58:28.873Z</time></trkpt><trkpt lat="40.6027683" lon="15.3750354"><ele>174.33333333333334</ele><time>2026-04-26T07:58:29.873Z</time></trkpt><trkpt lat="40.6028939" lon="15.3752394"><ele>173.66666666666666</ele><time>2026-04-26T07:58:30.872Z</time></trkpt><trkpt lat="40.6030198" lon="15.3754524"><ele>173.0</ele><time>2026-04-26T07:58:31.873Z</time></trkpt><trkpt lat="40.6031443" lon="15.3756681"><ele>173.0</ele><time>2026-04-26T07:58:32.873Z</time></trkpt><trkpt lat="40.6032721" lon="15.3758824"><ele>173.0</ele><time>2026-04-26T07:58:33.872Z</time></trkpt><trkpt lat="40.6034019" lon="15.3760913"><ele>173.0</ele><time>2026-04-26T07:58:34.872Z</time></trkpt><trkpt lat="40.6035304" lon="15.3762998"><ele>171.0</ele><time>2026-04-26T07:58:35.872Z</time></trkpt><trkpt lat="40.6036603" lon="15.376507"><ele>169.0</ele><time>2026-04-26T07:58:36.873Z</time></trkpt><trkpt lat="40.6037864" lon="15.3767191"><ele>167.0</ele><time>2026-04-26T07:58:37.873Z</time></trkpt><trkpt lat="40.6039155" lon="15.3769285"><ele>171.33333333333331</ele><time>2026-04-26T07:58:38.872Z</time></trkpt><trkpt lat="40.6040519" lon="15.3771316"><ele>175.66666666666666</ele><time>2026-04-26T07:58:39.873Z</time></trkpt><trkpt lat="40.6041975" lon="15.3773298"><ele>180.0</ele><time>2026-04-26T07:58:40.873Z</time></trkpt><trkpt lat="40.6043473" lon="15.3775234"><ele>181.0</ele><time>2026-04-26T07:58:41.872Z</time></trkpt><trkpt lat="40.6045072" lon="15.3777003"><ele>182.0</ele><time>2026-04-26T07:58:42.872Z</time></trkpt><trkpt lat="40.6046667" lon="15.3778782"><ele>183.0</ele><time>2026-04-26T07:58:43.873Z</time></trkpt><trkpt lat="40.6048221" lon="15.3780572"><ele>183.0</ele><time>2026-04-26T07:58:44.872Z</time></trkpt><trkpt lat="40.6049759" lon="15.378237"><ele>183.0</ele><time>2026-04-26T07:58:45.872Z</time></trkpt><trkpt lat="40.6051274" lon="15.3784186"><ele>183.0</ele><time>2026-04-26T07:58:46.872Z</time></trkpt><trkpt lat="40.6052776" lon="15.378602"><ele>184.33333333333334</ele><time>2026-04-26T07:58:47.872Z</time></trkpt><trkpt lat="40.6054341" lon="15.3787853"><ele>185.66666666666669</ele><time>2026-04-26T07:58:48.873Z</time></trkpt><trkpt lat="40.6055923" lon="15.3789673"><ele>187.0</ele><time>2026-04-26T07:58:49.873Z</time></trkpt><trkpt lat="40.6057516" lon="15.379155"><ele>187.0</ele><time>2026-04-26T07:58:50.872Z</time></trkpt><trkpt lat="40.6059066" lon="15.3793457"><ele>187.0</ele><time>2026-04-26T07:58:51.872Z</time></trkpt><trkpt lat="40.6060674" lon="15.3795343"><ele>187.0</ele><time>2026-04-26T07:58:52.873Z</time></trkpt><trkpt lat="40.6062268" lon="15.3797241"><ele>188.0</ele><time>2026-04-26T07:58:53.872Z</time></trkpt><trkpt lat="40.6063857" lon="15.3799085"><ele>189.0</ele><time>2026-04-26T07:58:54.873Z</time></trkpt><trkpt lat="40.606544" lon="15.3800943"><ele>190.0</ele><time>2026-04-26T07:58:55.872Z</time></trkpt><trkpt lat="40.6067063" lon="15.3802834"><ele>190.0</ele><time>2026-04-26T07:58:56.872Z</time></trkpt><trkpt lat="40.6068697" lon="15.3804701"><ele>190.0</ele><time>2026-04-26T07:58:57.872Z</time></trkpt><trkpt lat="40.6070282" lon="15.3806676"><ele>190.0</ele><time>2026-04-26T07:58:58.873Z</time></trkpt><trkpt lat="40.60719" lon="15.3808633"><ele>190.66666666666669</ele><time>2026-04-26T07:58:59.872Z</time></trkpt><trkpt lat="40.6073531" lon="15.3810537"><ele>191.33333333333334</ele><time>2026-04-26T07:59:00.873Z</time></trkpt><trkpt lat="40.6075169" lon="15.381242"><ele>192.0</ele><time>2026-04-26T07:59:01.872Z</time></trkpt><trkpt lat="40.6076748" lon="15.3814269"><ele>190.66666666666666</ele><time>2026-04-26T07:59:02.872Z</time></trkpt><trkpt lat="40.6078255" lon="15.3816068"><ele>189.33333333333331</ele><time>2026-04-26T07:59:03.872Z</time></trkpt><trkpt lat="40.6079716" lon="15.3817907"><ele>188.0</ele><time>2026-04-26T07:59:04.873Z</time></trkpt><trkpt lat="40.6081095" lon="15.3819851"><ele>192.0</ele><time>2026-04-26T07:59:05.873Z</time></trkpt><trkpt lat="40.6082386" lon="15.3821913"><ele>196.0</ele><time>2026-04-26T07:59:06.873Z</time></trkpt><trkpt lat="40.6083617" lon="15.3824119"><ele>200.0</ele><time>2026-04-26T07:59:07.872Z</time></trkpt><trkpt lat="40.6084784" lon="15.3826444"><ele>200.0</ele><time>2026-04-26T07:59:08.873Z</time></trkpt><trkpt lat="40.6085943" lon="15.3828805"><ele>200.0</ele><time>2026-04-26T07:59:09.873Z</time></trkpt><trkpt lat="40.6087119" lon="15.3831204"><ele>200.0</ele><time>2026-04-26T07:59:10.872Z</time></trkpt><trkpt lat="40.6088344" lon="15.383356"><ele>202.0</ele><time>2026-04-26T07:59:11.872Z</time></trkpt><trkpt lat="40.6089594" lon="15.3835937"><ele>204.0</ele><time>2026-04-26T07:59:12.873Z</time></trkpt><trkpt lat="40.609081" lon="15.3838337"><ele>206.0</ele><time>2026-04-26T07:59:13.872Z</time></trkpt><trkpt lat="40.6092024" lon="15.3840767"><ele>206.0</ele><time>2026-04-26T07:59:14.872Z</time></trkpt><trkpt lat="40.6093238" lon="15.3843201"><ele>206.0</ele><time>2026-04-26T07:59:15.873Z</time></trkpt><trkpt lat="40.609449" lon="15.3845582"><ele>206.0</ele><time>2026-04-26T07:59:16.872Z</time></trkpt><trkpt lat="40.6095743" lon="15.3847883"><ele>208.33333333333334</ele><time>2026-04-26T07:59:17.872Z</time></trkpt><trkpt lat="40.6096967" lon="15.3850173"><ele>210.66666666666669</ele><time>2026-04-26T07:59:18.872Z</time></trkpt><trkpt lat="40.609815" lon="15.3852401"><ele>213.0</ele><time>2026-04-26T07:59:19.872Z</time></trkpt><trkpt lat="40.6099297" lon="15.3854587"><ele>212.0</ele><time>2026-04-26T07:59:20.872Z</time></trkpt><trkpt lat="40.6100404" lon="15.385669"><ele>211.0</ele><time>2026-04-26T07:59:21.873Z</time></trkpt><trkpt lat="40.6101433" lon="15.3858739"><ele>210.0</ele><time>2026-04-26T07:59:22.872Z</time></trkpt><trkpt lat="40.61024" lon="15.3860721"><ele>209.66666666666669</ele><time>2026-04-26T07:59:23.872Z</time></trkpt><trkpt lat="40.6103317" lon="15.3862606"><ele>209.33333333333334</ele><time>2026-04-26T07:59:24.872Z</time></trkpt><trkpt lat="40.610417" lon="15.3864405"><ele>209.0</ele><time>2026-04-26T07:59:25.873Z</time></trkpt><trkpt lat="40.6104992" lon="15.3866123"><ele>209.0</ele><time>2026-04-26T07:59:26.873Z</time></trkpt><trkpt lat="40.6105753" lon="15.3867771"><ele>209.0</ele><time>2026-04-26T07:59:27.872Z</time></trkpt><trkpt lat="40.6106502" lon="15.3869365"><ele>209.0</ele><time>2026-04-26T07:59:28.873Z</time></trkpt><trkpt lat="40.6107204" lon="15.3870873"><ele>209.0</ele><time>2026-04-26T07:59:29.872Z</time></trkpt><trkpt lat="40.6107784" lon="15.3872349"><ele>208.25</ele><time>2026-04-26T07:59:30.872Z</time></trkpt><trkpt lat="40.6108375" lon="15.3873867"><ele>207.5</ele><time>2026-04-26T07:59:31.872Z</time></trkpt><trkpt lat="40.6108975" lon="15.3875436"><ele>206.75</ele><time>2026-04-26T07:59:32.872Z</time></trkpt><trkpt lat="40.6109529" lon="15.3877139"><ele>206.0</ele><time>2026-04-26T07:59:33.873Z</time></trkpt><trkpt lat="40.6109984" lon="15.3879033"><ele>205.66666666666669</ele><time>2026-04-26T07:59:34.873Z</time></trkpt><trkpt lat="40.6110316" lon="15.3881089"><ele>205.33333333333331</ele><time>2026-04-26T07:59:35.873Z</time></trkpt><trkpt lat="40.6110469" lon="15.3883297"><ele>205.0</ele><time>2026-04-26T07:59:36.873Z</time></trkpt><trkpt lat="40.6110491" lon="15.3885584"><ele>205.0</ele><time>2026-04-26T07:59:37.872Z</time></trkpt><trkpt lat="40.6110397" lon="15.3887969"><ele>205.0</ele><time>2026-04-26T07:59:38.872Z</time></trkpt><trkpt lat="40.6110197" lon="15.3890396"><ele>205.0</ele><time>2026-04-26T07:59:39.873Z</time></trkpt><trkpt lat="40.610991" lon="15.3892889"><ele>200.33333333333331</ele><time>2026-04-26T07:59:40.873Z</time></trkpt><trkpt lat="40.6109615" lon="15.3895397"><ele>195.66666666666666</ele><time>2026-04-26T07:59:41.872Z</time></trkpt><trkpt lat="40.6109326" lon="15.3897909"><ele>191.0</ele><time>2026-04-26T07:59:42.872Z</time></trkpt><trkpt lat="40.6109028" lon="15.3900427"><ele>195.0</ele><time>2026-04-26T07:59:43.872Z</time></trkpt><trkpt lat="40.610873" lon="15.3902901"><ele>199.0</ele><time>2026-04-26T07:59:44.872Z</time></trkpt><trkpt lat="40.6108442" lon="15.3905379"><ele>203.0</ele><time>2026-04-26T07:59:45.873Z</time></trkpt><trkpt lat="40.6108195" lon="15.3907767"><ele>203.0</ele><time>2026-04-26T07:59:46.873Z</time></trkpt><trkpt lat="40.6107947" lon="15.3910142"><ele>203.0</ele><time>2026-04-26T07:59:47.872Z</time></trkpt><trkpt lat="40.6107673" lon="15.3912532"><ele>203.0</ele><time>2026-04-26T07:59:48.872Z</time></trkpt><trkpt lat="40.610736" lon="15.3914968"><ele>208.0</ele><time>2026-04-26T07:59:49.873Z</time></trkpt><trkpt lat="40.6107038" lon="15.3917446"><ele>213.0</ele><time>2026-04-26T07:59:50.873Z</time></trkpt><trkpt lat="40.6106712" lon="15.3919925"><ele>218.0</ele><time>2026-04-26T07:59:51.873Z</time></trkpt><trkpt lat="40.6106436" lon="15.3922454"><ele>220.33333333333334</ele><time>2026-04-26T07:59:52.872Z</time></trkpt><trkpt lat="40.6106189" lon="15.3925004"><ele>222.66666666666669</ele><time>2026-04-26T07:59:53.873Z</time></trkpt><trkpt lat="40.6106019" lon="15.3927483"><ele>225.0</ele><time>2026-04-26T07:59:54.872Z</time></trkpt><trkpt lat="40.6106025" lon="15.392999"><ele>223.33333333333331</ele><time>2026-04-26T07:59:55.873Z</time></trkpt><trkpt lat="40.6106199" lon="15.3932505"><ele>221.66666666666666</ele><time>2026-04-26T07:59:56.872Z</time></trkpt><trkpt lat="40.610642" lon="15.393498"><ele>220.0</ele><time>2026-04-26T07:59:57.873Z</time></trkpt><trkpt lat="40.6106633" lon="15.3937373"><ele>221.0</ele><time>2026-04-26T07:59:58.873Z</time></trkpt><trkpt lat="40.6106748" lon="15.3939679"><ele>222.0</ele><time>2026-04-26T07:59:59.872Z</time></trkpt><trkpt lat="40.6106717" lon="15.3941917"><ele>223.0</ele><time>2026-04-26T08:00:00.872Z</time></trkpt><trkpt lat="40.6106583" lon="15.3944167"><ele>223.0</ele><time>2026-04-26T08:00:01.872Z</time></trkpt><trkpt lat="40.6106233" lon="15.3946483"><ele>223.0</ele><time>2026-04-26T08:00:02.872Z</time></trkpt><trkpt lat="40.610575" lon="15.394875"><ele>223.0</ele><time>2026-04-26T08:00:03.872Z</time></trkpt><trkpt lat="40.61051" lon="15.39511"><ele>223.33333333333331</ele><time>2026-04-26T08:00:04.872Z</time></trkpt><trkpt lat="40.6104333" lon="15.39534"><ele>223.66666666666669</ele><time>2026-04-26T08:00:05.872Z</time></trkpt><trkpt lat="40.6103433" lon="15.3955633"><ele>224.0</ele><time>2026-04-26T08:00:06.872Z</time></trkpt><trkpt lat="40.6102317" lon="15.3957717"><ele>221.0</ele><time>2026-04-26T08:00:07.873Z</time></trkpt><trkpt lat="40.6100983" lon="15.395955"><ele>218.0</ele><time>2026-04-26T08:00:08.872Z</time></trkpt><trkpt lat="40.6099467" lon="15.3961233"><ele>215.0</ele><time>2026-04-26T08:00:09.873Z</time></trkpt><trkpt lat="40.609785" lon="15.3962733"><ele>217.66666666666669</ele><time>2026-04-26T08:00:10.872Z</time></trkpt><trkpt lat="40.6096117" lon="15.3963983"><ele>220.33333333333331</ele><time>2026-04-26T08:00:11.872Z</time></trkpt><trkpt lat="40.60943" lon="15.3965067"><ele>223.0</ele><time>2026-04-26T08:00:12.872Z</time></trkpt><trkpt lat="40.6092383" lon="15.3965867"><ele>223.0</ele><time>2026-04-26T08:00:13.873Z</time></trkpt><trkpt lat="40.60904" lon="15.3966483"><ele>223.0</ele><time>2026-04-26T08:00:14.872Z</time></trkpt><trkpt lat="40.6088383" lon="15.3967033"><ele>223.0</ele><time>2026-04-26T08:00:15.872Z</time></trkpt><trkpt lat="40.6086283" lon="15.3967617"><ele>223.33333333333331</ele><time>2026-04-26T08:00:16.872Z</time></trkpt><trkpt lat="40.6084217" lon="15.3968067"><ele>223.66666666666669</ele><time>2026-04-26T08:00:17.872Z</time></trkpt><trkpt lat="40.6082133" lon="15.396845"><ele>224.0</ele><time>2026-04-26T08:00:18.872Z</time></trkpt><trkpt lat="40.6080033" lon="15.3968883"><ele>225.66666666666669</ele><time>2026-04-26T08:00:19.873Z</time></trkpt><trkpt lat="40.60779" lon="15.3969133"><ele>227.33333333333331</ele><time>2026-04-26T08:00:20.872Z</time></trkpt><trkpt lat="40.60759" lon="15.39692"><ele>229.0</ele><time>2026-04-26T08:00:21.872Z</time></trkpt><trkpt lat="40.60739" lon="15.3969"><ele>229.0</ele><time>2026-04-26T08:00:22.872Z</time></trkpt><trkpt lat="40.6071867" lon="15.3968783"><ele>229.0</ele><time>2026-04-26T08:00:23.873Z</time></trkpt><trkpt lat="40.6069817" lon="15.3968317"><ele>229.0</ele><time>2026-04-26T08:00:24.873Z</time></trkpt><trkpt lat="40.606775" lon="15.3967817"><ele>230.66666666666666</ele><time>2026-04-26T08:00:25.873Z</time></trkpt><trkpt lat="40.606575" lon="15.39674"><ele>232.33333333333331</ele><time>2026-04-26T08:00:26.872Z</time></trkpt><trkpt lat="40.6063783" lon="15.3966983"><ele>234.0</ele><time>2026-04-26T08:00:27.873Z</time></trkpt><trkpt lat="40.6061817" lon="15.3966533"><ele>236.33333333333331</ele><time>2026-04-26T08:00:28.872Z</time></trkpt><trkpt lat="40.6059933" lon="15.396595"><ele>238.66666666666666</ele><time>2026-04-26T08:00:29.872Z</time></trkpt><trkpt lat="40.6058017" lon="15.3965233"><ele>241.0</ele><time>2026-04-26T08:00:30.873Z</time></trkpt><trkpt lat="40.6056233" lon="15.3964433"><ele>241.0</ele><time>2026-04-26T08:00:31.873Z</time></trkpt><trkpt lat="40.6054483" lon="15.3963633"><ele>241.0</ele><time>2026-04-26T08:00:32.873Z</time></trkpt><trkpt lat="40.6052733" lon="15.396285"><ele>241.0</ele><time>2026-04-26T08:00:33.873Z</time></trkpt><trkpt lat="40.60509" lon="15.3962217"><ele>238.33333333333331</ele><time>2026-04-26T08:00:34.872Z</time></trkpt><trkpt lat="40.6049017" lon="15.3961883"><ele>235.66666666666669</ele><time>2026-04-26T08:00:35.873Z</time></trkpt><trkpt lat="40.60471" lon="15.3961717"><ele>233.0</ele><time>2026-04-26T08:00:36.873Z</time></trkpt><trkpt lat="40.604515" lon="15.3961717"><ele>233.0</ele><time>2026-04-26T08:00:37.873Z</time></trkpt><trkpt lat="40.6043067" lon="15.3961833"><ele>233.0</ele><time>2026-04-26T08:00:38.872Z</time></trkpt><trkpt lat="40.6041017" lon="15.3962"><ele>233.0</ele><time>2026-04-26T08:00:39.873Z</time></trkpt><trkpt lat="40.6038883" lon="15.39624"><ele>233.0</ele><time>2026-04-26T08:00:40.873Z</time></trkpt><trkpt lat="40.6036817" lon="15.3963017"><ele>233.0</ele><time>2026-04-26T08:00:41.872Z</time></trkpt><trkpt lat="40.6034767" lon="15.3963817"><ele>233.0</ele><time>2026-04-26T08:00:42.872Z</time></trkpt><trkpt lat="40.60327" lon="15.396465"><ele>235.66666666666669</ele><time>2026-04-26T08:00:43.872Z</time></trkpt><trkpt lat="40.603065" lon="15.3965533"><ele>238.33333333333331</ele><time>2026-04-26T08:00:44.872Z</time></trkpt><trkpt lat="40.6028617" lon="15.39663"><ele>241.0</ele><time>2026-04-26T08:00:45.873Z</time></trkpt><trkpt lat="40.6026583" lon="15.396705"><ele>242.0</ele><time>2026-04-26T08:00:46.873Z</time></trkpt><trkpt lat="40.60245" lon="15.3967717"><ele>243.0</ele><time>2026-04-26T08:00:47.873Z</time></trkpt><trkpt lat="40.6022433" lon="15.3968183"><ele>244.0</ele><time>2026-04-26T08:00:48.872Z</time></trkpt><trkpt lat="40.6020433" lon="15.396845"><ele>244.66666666666666</ele><time>2026-04-26T08:00:49.873Z</time></trkpt><trkpt lat="40.60184" lon="15.3968533"><ele>245.33333333333331</ele><time>2026-04-26T08:00:50.872Z</time></trkpt><trkpt lat="40.6016433" lon="15.396845"><ele>246.0</ele><time>2026-04-26T08:00:51.873Z</time></trkpt><trkpt lat="40.6014433" lon="15.396815"><ele>246.0</ele><time>2026-04-26T08:00:52.873Z</time></trkpt><trkpt lat="40.60125" lon="15.3967533"><ele>246.0</ele><time>2026-04-26T08:00:53.872Z</time></trkpt><trkpt lat="40.60106" lon="15.3966633"><ele>246.0</ele><time>2026-04-26T08:00:54.873Z</time></trkpt><trkpt lat="40.6008667" lon="15.3965617"><ele>248.0</ele><time>2026-04-26T08:00:55.872Z</time></trkpt><trkpt lat="40.600675" lon="15.3964533"><ele>250.0</ele><time>2026-04-26T08:00:56.872Z</time></trkpt><trkpt lat="40.60048" lon="15.396345"><ele>252.0</ele><time>2026-04-26T08:00:57.872Z</time></trkpt><trkpt lat="40.6002883" lon="15.3962367"><ele>253.0</ele><time>2026-04-26T08:00:58.872Z</time></trkpt><trkpt lat="40.600095" lon="15.3961283"><ele>254.0</ele><time>2026-04-26T08:00:59.872Z</time></trkpt><trkpt lat="40.5999" lon="15.39602"><ele>255.0</ele><time>2026-04-26T08:01:00.873Z</time></trkpt><trkpt lat="40.599705" lon="15.395915"><ele>255.0</ele><time>2026-04-26T08:01:01.873Z</time></trkpt><trkpt lat="40.5995117" lon="15.39581"><ele>255.0</ele><time>2026-04-26T08:01:02.873Z</time></trkpt><trkpt lat="40.5993167" lon="15.3957033"><ele>255.0</ele><time>2026-04-26T08:01:03.873Z</time></trkpt><trkpt lat="40.5991267" lon="15.3956017"><ele>255.66666666666669</ele><time>2026-04-26T08:01:04.873Z</time></trkpt><trkpt lat="40.598935" lon="15.3954967"><ele>256.33333333333337</ele><time>2026-04-26T08:01:05.872Z</time></trkpt><trkpt lat="40.5987433" lon="15.3953917"><ele>257.0</ele><time>2026-04-26T08:01:06.872Z</time></trkpt><trkpt lat="40.598545" lon="15.3953017"><ele>261.0</ele><time>2026-04-26T08:01:07.872Z</time></trkpt><trkpt lat="40.5983417" lon="15.3952333"><ele>265.0</ele><time>2026-04-26T08:01:08.873Z</time></trkpt><trkpt lat="40.5981333" lon="15.39519"><ele>269.0</ele><time>2026-04-26T08:01:09.873Z</time></trkpt><trkpt lat="40.5979233" lon="15.395175"><ele>271.33333333333337</ele><time>2026-04-26T08:01:10.872Z</time></trkpt><trkpt lat="40.5977133" lon="15.3951917"><ele>273.6666666666667</ele><time>2026-04-26T08:01:11.873Z</time></trkpt><trkpt lat="40.5975017" lon="15.3952283"><ele>276.0</ele><time>2026-04-26T08:01:12.872Z</time></trkpt><trkpt lat="40.5972983" lon="15.3952917"><ele>276.0</ele><time>2026-04-26T08:01:13.872Z</time></trkpt><trkpt lat="40.5971017" lon="15.3953833"><ele>276.0</ele><time>2026-04-26T08:01:14.873Z</time></trkpt><trkpt lat="40.596905" lon="15.395495"><ele>276.0</ele><time>2026-04-26T08:01:15.872Z</time></trkpt><trkpt lat="40.5967167" lon="15.3956283"><ele>279.3333333333333</ele><time>2026-04-26T08:01:16.873Z</time></trkpt><trkpt lat="40.5965383" lon="15.39579"><ele>282.66666666666663</ele><time>2026-04-26T08:01:17.872Z</time></trkpt><trkpt lat="40.5963717" lon="15.3959733"><ele>286.0</ele><time>2026-04-26T08:01:18.873Z</time></trkpt><trkpt lat="40.5962133" lon="15.396175"><ele>286.66666666666663</ele><time>2026-04-26T08:01:19.872Z</time></trkpt><trkpt lat="40.596075" lon="15.3963933"><ele>287.3333333333333</ele><time>2026-04-26T08:01:20.873Z</time></trkpt><trkpt lat="40.5959517" lon="15.396635"><ele>288.0</ele><time>2026-04-26T08:01:21.872Z</time></trkpt><trkpt lat="40.59584" lon="15.396885"><ele>288.0</ele><time>2026-04-26T08:01:22.873Z</time></trkpt><trkpt lat="40.595735" lon="15.3971383"><ele>288.0</ele><time>2026-04-26T08:01:23.872Z</time></trkpt><trkpt lat="40.59564" lon="15.3973917"><ele>288.0</ele><time>2026-04-26T08:01:24.873Z</time></trkpt><trkpt lat="40.5955417" lon="15.397645"><ele>291.0</ele><time>2026-04-26T08:01:25.873Z</time></trkpt><trkpt lat="40.5954433" lon="15.397895"><ele>294.0</ele><time>2026-04-26T08:01:26.873Z</time></trkpt><trkpt lat="40.59534" lon="15.398145"><ele>297.0</ele><time>2026-04-26T08:01:27.873Z</time></trkpt><trkpt lat="40.5952417" lon="15.3983933"><ele>297.3333333333333</ele><time>2026-04-26T08:01:28.872Z</time></trkpt><trkpt lat="40.5951417" lon="15.3986417"><ele>297.66666666666663</ele><time>2026-04-26T08:01:29.872Z</time></trkpt><trkpt lat="40.5950367" lon="15.3988817"><ele>298.0</ele><time>2026-04-26T08:01:30.872Z</time></trkpt><trkpt lat="40.5949033" lon="15.3991117"><ele>301.0</ele><time>2026-04-26T08:01:31.872Z</time></trkpt><trkpt lat="40.594755" lon="15.399325"><ele>304.0</ele><time>2026-04-26T08:01:32.872Z</time></trkpt><trkpt lat="40.594595" lon="15.3995183"><ele>307.0</ele><time>2026-04-26T08:01:33.872Z</time></trkpt><trkpt lat="40.5944283" lon="15.3996983"><ele>309.0</ele><time>2026-04-26T08:01:34.872Z</time></trkpt><trkpt lat="40.5942517" lon="15.3998633"><ele>311.0</ele><time>2026-04-26T08:01:35.872Z</time></trkpt><trkpt lat="40.594065" lon="15.4000033"><ele>313.0</ele><time>2026-04-26T08:01:36.872Z</time></trkpt><trkpt lat="40.5938717" lon="15.4001233"><ele>313.0</ele><time>2026-04-26T08:01:37.873Z</time></trkpt><trkpt lat="40.5936783" lon="15.400235"><ele>313.0</ele><time>2026-04-26T08:01:38.873Z</time></trkpt><trkpt lat="40.59348" lon="15.4003533"><ele>313.0</ele><time>2026-04-26T08:01:39.873Z</time></trkpt><trkpt lat="40.5932833" lon="15.400475"><ele>314.3333333333333</ele><time>2026-04-26T08:01:40.872Z</time></trkpt><trkpt lat="40.5930867" lon="15.4006017"><ele>315.6666666666667</ele><time>2026-04-26T08:01:41.872Z</time></trkpt><trkpt lat="40.5928917" lon="15.40073"><ele>317.0</ele><time>2026-04-26T08:01:42.873Z</time></trkpt><trkpt lat="40.5927017" lon="15.4008583"><ele>317.0</ele><time>2026-04-26T08:01:43.873Z</time></trkpt><trkpt lat="40.5925217" lon="15.4010017"><ele>317.0</ele><time>2026-04-26T08:01:44.872Z</time></trkpt><trkpt lat="40.59235" lon="15.4011617"><ele>317.0</ele><time>2026-04-26T08:01:45.873Z</time></trkpt><trkpt lat="40.5921933" lon="15.4013367"><ele>319.0</ele><time>2026-04-26T08:01:46.873Z</time></trkpt><trkpt lat="40.59205" lon="15.4015267"><ele>321.0</ele><time>2026-04-26T08:01:47.872Z</time></trkpt><trkpt lat="40.5919183" lon="15.4017333"><ele>323.0</ele><time>2026-04-26T08:01:48.872Z</time></trkpt><trkpt lat="40.5918" lon="15.40195"><ele>325.0</ele><time>2026-04-26T08:01:49.873Z</time></trkpt><trkpt lat="40.5916867" lon="15.40218"><ele>327.0</ele><time>2026-04-26T08:01:50.872Z</time></trkpt><trkpt lat="40.5915933" lon="15.4024283"><ele>329.0</ele><time>2026-04-26T08:01:51.872Z</time></trkpt><trkpt lat="40.591505" lon="15.4026833"><ele>329.0</ele><time>2026-04-26T08:01:52.872Z</time></trkpt><trkpt lat="40.5914383" lon="15.4029483"><ele>329.0</ele><time>2026-04-26T08:01:53.873Z</time></trkpt><trkpt lat="40.5913767" lon="15.4032217"><ele>329.0</ele><time>2026-04-26T08:01:54.873Z</time></trkpt><trkpt lat="40.59131" lon="15.4034933"><ele>331.0</ele><time>2026-04-26T08:01:55.873Z</time></trkpt><trkpt lat="40.5912433" lon="15.403765"><ele>333.0</ele><time>2026-04-26T08:01:56.873Z</time></trkpt><trkpt lat="40.5911767" lon="15.4040417"><ele>335.0</ele><time>2026-04-26T08:01:57.873Z</time></trkpt><trkpt lat="40.5911117" lon="15.4043183"><ele>335.6666666666667</ele><time>2026-04-26T08:01:58.873Z</time></trkpt><trkpt lat="40.591045" lon="15.4045983"><ele>336.3333333333333</ele><time>2026-04-26T08:01:59.872Z</time></trkpt><trkpt lat="40.590975" lon="15.4048783"><ele>337.0</ele><time>2026-04-26T08:02:00.873Z</time></trkpt><trkpt lat="40.590905" lon="15.4051583"><ele>338.66666666666663</ele><time>2026-04-26T08:02:01.872Z</time></trkpt><trkpt lat="40.5908383" lon="15.4054383"><ele>340.3333333333333</ele><time>2026-04-26T08:02:02.872Z</time></trkpt><trkpt lat="40.5907717" lon="15.4057183"><ele>342.0</ele><time>2026-04-26T08:02:03.873Z</time></trkpt><trkpt lat="40.59071" lon="15.405995"><ele>344.3333333333333</ele><time>2026-04-26T08:02:04.873Z</time></trkpt><trkpt lat="40.5906483" lon="15.4062683"><ele>346.66666666666663</ele><time>2026-04-26T08:02:05.873Z</time></trkpt><trkpt lat="40.59058" lon="15.4065333"><ele>349.0</ele><time>2026-04-26T08:02:06.873Z</time></trkpt><trkpt lat="40.590505" lon="15.406795"><ele>351.0</ele><time>2026-04-26T08:02:07.873Z</time></trkpt><trkpt lat="40.5904167" lon="15.4070417"><ele>353.0</ele><time>2026-04-26T08:02:08.872Z</time></trkpt><trkpt lat="40.5903117" lon="15.4072767"><ele>355.0</ele><time>2026-04-26T08:02:09.872Z</time></trkpt><trkpt lat="40.5901883" lon="15.4074967"><ele>357.0</ele><time>2026-04-26T08:02:10.873Z</time></trkpt><trkpt lat="40.590045" lon="15.4076967"><ele>359.0</ele><time>2026-04-26T08:02:11.872Z</time></trkpt><trkpt lat="40.5898833" lon="15.4078783"><ele>361.0</ele><time>2026-04-26T08:02:12.872Z</time></trkpt><trkpt lat="40.5897117" lon="15.4080433"><ele>362.3333333333333</ele><time>2026-04-26T08:02:13.872Z</time></trkpt><trkpt lat="40.5895367" lon="15.4082017"><ele>363.6666666666667</ele><time>2026-04-26T08:02:14.872Z</time></trkpt><trkpt lat="40.5893583" lon="15.4083567"><ele>365.0</ele><time>2026-04-26T08:02:15.873Z</time></trkpt><trkpt lat="40.5891833" lon="15.408515"><ele>366.0</ele><time>2026-04-26T08:02:16.873Z</time></trkpt><trkpt lat="40.5890083" lon="15.4086833"><ele>367.0</ele><time>2026-04-26T08:02:17.872Z</time></trkpt><trkpt lat="40.5888367" lon="15.408845"><ele>368.0</ele><time>2026-04-26T08:02:18.872Z</time></trkpt><trkpt lat="40.5886617" lon="15.4090067"><ele>369.6666666666667</ele><time>2026-04-26T08:02:19.872Z</time></trkpt><trkpt lat="40.5884833" lon="15.4091717"><ele>371.3333333333333</ele><time>2026-04-26T08:02:20.873Z</time></trkpt><trkpt lat="40.588305" lon="15.4093333"><ele>373.0</ele><time>2026-04-26T08:02:21.872Z</time></trkpt><trkpt lat="40.5881233" lon="15.409495"><ele>373.0</ele><time>2026-04-26T08:02:22.872Z</time></trkpt><trkpt lat="40.58794" lon="15.409655"><ele>373.0</ele><time>2026-04-26T08:02:23.873Z</time></trkpt><trkpt lat="40.5877517" lon="15.4098167"><ele>373.0</ele><time>2026-04-26T08:02:24.872Z</time></trkpt><trkpt lat="40.5875667" lon="15.40997"><ele>374.66666666666663</ele><time>2026-04-26T08:02:25.872Z</time></trkpt><trkpt lat="40.587375" lon="15.4101167"><ele>376.3333333333333</ele><time>2026-04-26T08:02:26.873Z</time></trkpt><trkpt lat="40.587185" lon="15.41027"><ele>378.0</ele><time>2026-04-26T08:02:27.873Z</time></trkpt><trkpt lat="40.586995" lon="15.4104233"><ele>381.33333333333337</ele><time>2026-04-26T08:02:28.873Z</time></trkpt><trkpt lat="40.5868067" lon="15.4105817"><ele>384.6666666666667</ele><time>2026-04-26T08:02:29.873Z</time></trkpt><trkpt lat="40.5866167" lon="15.41074"><ele>388.0</ele><time>2026-04-26T08:02:30.872Z</time></trkpt><trkpt lat="40.586425" lon="15.4108967"><ele>388.0</ele><time>2026-04-26T08:02:31.873Z</time></trkpt><trkpt lat="40.58623" lon="15.4110533"><ele>388.0</ele><time>2026-04-26T08:02:32.872Z</time></trkpt><trkpt lat="40.5860333" lon="15.411215"><ele>392.5</ele><time>2026-04-26T08:02:33.872Z</time></trkpt><trkpt lat="40.585845" lon="15.411385"><ele>397.0</ele><time>2026-04-26T08:02:34.873Z</time></trkpt><trkpt lat="40.5856633" lon="15.4115633"><ele>397.0</ele><time>2026-04-26T08:02:35.872Z</time></trkpt><trkpt lat="40.5854967" lon="15.4117617"><ele>397.0</ele><time>2026-04-26T08:02:36.872Z</time></trkpt><trkpt lat="40.5853283" lon="15.4119767"><ele>398.5</ele><time>2026-04-26T08:02:37.872Z</time></trkpt><trkpt lat="40.585165" lon="15.412195"><ele>400.0</ele><time>2026-04-26T08:02:38.873Z</time></trkpt><trkpt lat="40.5850017" lon="15.41241"><ele>400.0</ele><time>2026-04-26T08:02:39.873Z</time></trkpt><trkpt lat="40.5848383" lon="15.4126217"><ele>400.0</ele><time>2026-04-26T08:02:40.872Z</time></trkpt><trkpt lat="40.5846767" lon="15.4128283"><ele>401.33333333333337</ele><time>2026-04-26T08:02:41.873Z</time></trkpt><trkpt lat="40.58452" lon="15.413035"><ele>402.66666666666663</ele><time>2026-04-26T08:02:42.872Z</time></trkpt><trkpt lat="40.5843617" lon="15.413245"><ele>404.0</ele><time>2026-04-26T08:02:43.872Z</time></trkpt><trkpt lat="40.584205" lon="15.4134583"><ele>406.0</ele><time>2026-04-26T08:02:44.872Z</time></trkpt><trkpt lat="40.5840533" lon="15.4136733"><ele>408.0</ele><time>2026-04-26T08:02:45.872Z</time></trkpt><trkpt lat="40.5839067" lon="15.4138983"><ele>410.0</ele><time>2026-04-26T08:02:46.873Z</time></trkpt><trkpt lat="40.5837767" lon="15.4141367"><ele>410.0</ele><time>2026-04-26T08:02:47.872Z</time></trkpt><trkpt lat="40.583665" lon="15.41439"><ele>410.0</ele><time>2026-04-26T08:02:48.872Z</time></trkpt><trkpt lat="40.5835717" lon="15.4146533"><ele>410.0</ele><time>2026-04-26T08:02:49.873Z</time></trkpt><trkpt lat="40.5834933" lon="15.4149283"><ele>410.0</ele><time>2026-04-26T08:02:50.873Z</time></trkpt><trkpt lat="40.5834283" lon="15.4152117"><ele>410.0</ele><time>2026-04-26T08:02:51.873Z</time></trkpt><trkpt lat="40.5833833" lon="15.415485"><ele>410.0</ele><time>2026-04-26T08:02:52.873Z</time></trkpt><trkpt lat="40.5833417" lon="15.41575"><ele>410.3333333333333</ele><time>2026-04-26T08:02:53.873Z</time></trkpt><trkpt lat="40.583305" lon="15.4160117"><ele>410.66666666666663</ele><time>2026-04-26T08:02:54.872Z</time></trkpt><trkpt lat="40.5832733" lon="15.4162733"><ele>411.0</ele><time>2026-04-26T08:02:55.873Z</time></trkpt><trkpt lat="40.5832383" lon="15.41653"><ele>410.0</ele><time>2026-04-26T08:02:56.873Z</time></trkpt><trkpt lat="40.5832067" lon="15.4167733"><ele>409.0</ele><time>2026-04-26T08:02:57.873Z</time></trkpt><trkpt lat="40.5831683" lon="15.41701"><ele>408.0</ele><time>2026-04-26T08:02:58.873Z</time></trkpt><trkpt lat="40.583135" lon="15.41724"><ele>407.0</ele><time>2026-04-26T08:02:59.872Z</time></trkpt><trkpt lat="40.5831033" lon="15.4174633"><ele>406.0</ele><time>2026-04-26T08:03:00.872Z</time></trkpt><trkpt lat="40.583075" lon="15.4176783"><ele>405.0</ele><time>2026-04-26T08:03:01.873Z</time></trkpt><trkpt lat="40.583045" lon="15.4178817"><ele>405.0</ele><time>2026-04-26T08:03:02.873Z</time></trkpt><trkpt lat="40.5830167" lon="15.4180833"><ele>405.0</ele><time>2026-04-26T08:03:03.872Z</time></trkpt><trkpt lat="40.58299" lon="15.4182833"><ele>405.0</ele><time>2026-04-26T08:03:04.873Z</time></trkpt><trkpt lat="40.582965" lon="15.418485"><ele>405.0</ele><time>2026-04-26T08:03:05.873Z</time></trkpt><trkpt lat="40.5829383" lon="15.41869"><ele>405.0</ele><time>2026-04-26T08:03:06.872Z</time></trkpt><trkpt lat="40.5829067" lon="15.4188933"><ele>405.0</ele><time>2026-04-26T08:03:07.873Z</time></trkpt><trkpt lat="40.58287" lon="15.4190967"><ele>404.33333333333337</ele><time>2026-04-26T08:03:08.872Z</time></trkpt><trkpt lat="40.582825" lon="15.4192917"><ele>403.6666666666667</ele><time>2026-04-26T08:03:09.872Z</time></trkpt><trkpt lat="40.5827733" lon="15.4194817"><ele>403.0</ele><time>2026-04-26T08:03:10.872Z</time></trkpt><trkpt lat="40.5827167" lon="15.419655"><ele>403.0</ele><time>2026-04-26T08:03:11.873Z</time></trkpt><trkpt lat="40.5826583" lon="15.4198183"><ele>403.0</ele><time>2026-04-26T08:03:12.873Z</time></trkpt><trkpt lat="40.582595" lon="15.419975"><ele>403.0</ele><time>2026-04-26T08:03:13.873Z</time></trkpt><trkpt lat="40.5825217" lon="15.42013"><ele>403.0</ele><time>2026-04-26T08:03:14.872Z</time></trkpt><trkpt lat="40.582445" lon="15.4202933"><ele>403.0</ele><time>2026-04-26T08:03:15.873Z</time></trkpt><trkpt lat="40.5823633" lon="15.4204533"><ele>403.0</ele><time>2026-04-26T08:03:16.872Z</time></trkpt><trkpt lat="40.5822783" lon="15.420615"><ele>403.0</ele><time>2026-04-26T08:03:17.873Z</time></trkpt><trkpt lat="40.5821967" lon="15.4207783"><ele>403.0</ele><time>2026-04-26T08:03:18.873Z</time></trkpt><trkpt lat="40.5821133" lon="15.42095"><ele>403.0</ele><time>2026-04-26T08:03:19.873Z</time></trkpt><trkpt lat="40.58203" lon="15.4211217"><ele>403.0</ele><time>2026-04-26T08:03:20.872Z</time></trkpt><trkpt lat="40.581945" lon="15.4212883"><ele>403.0</ele><time>2026-04-26T08:03:21.873Z</time></trkpt><trkpt lat="40.5818633" lon="15.4214567"><ele>400.33333333333337</ele><time>2026-04-26T08:03:22.872Z</time></trkpt><trkpt lat="40.5817817" lon="15.421625"><ele>397.66666666666663</ele><time>2026-04-26T08:03:23.872Z</time></trkpt><trkpt lat="40.5817017" lon="15.4218017"><ele>395.0</ele><time>2026-04-26T08:03:24.873Z</time></trkpt><trkpt lat="40.5816317" lon="15.421985"><ele>396.3333333333333</ele><time>2026-04-26T08:03:25.872Z</time></trkpt><trkpt lat="40.5815667" lon="15.422175"><ele>397.66666666666663</ele><time>2026-04-26T08:03:26.873Z</time></trkpt><trkpt lat="40.5815067" lon="15.4223717"><ele>399.0</ele><time>2026-04-26T08:03:27.872Z</time></trkpt><trkpt lat="40.581455" lon="15.4225683"><ele>399.0</ele><time>2026-04-26T08:03:28.872Z</time></trkpt><trkpt lat="40.5814133" lon="15.422765"><ele>399.0</ele><time>2026-04-26T08:03:29.872Z</time></trkpt><trkpt lat="40.581375" lon="15.4229717"><ele>399.0</ele><time>2026-04-26T08:03:30.872Z</time></trkpt><trkpt lat="40.581345" lon="15.423175"><ele>400.0</ele><time>2026-04-26T08:03:31.872Z</time></trkpt><trkpt lat="40.581315" lon="15.4233817"><ele>401.0</ele><time>2026-04-26T08:03:32.872Z</time></trkpt><trkpt lat="40.5812883" lon="15.423585"><ele>402.0</ele><time>2026-04-26T08:03:33.873Z</time></trkpt><trkpt lat="40.5812617" lon="15.4237833"><ele>401.5</ele><time>2026-04-26T08:03:34.872Z</time></trkpt><trkpt lat="40.5812367" lon="15.42398"><ele>401.0</ele><time>2026-04-26T08:03:35.872Z</time></trkpt><trkpt lat="40.5812083" lon="15.42417"><ele>400.5</ele><time>2026-04-26T08:03:36.873Z</time></trkpt><trkpt lat="40.5811783" lon="15.424355"><ele>400.0</ele><time>2026-04-26T08:03:37.872Z</time></trkpt><trkpt lat="40.581155" lon="15.424535"><ele>397.5</ele><time>2026-04-26T08:03:38.873Z</time></trkpt><trkpt lat="40.581135" lon="15.4247117"><ele>395.0</ele><time>2026-04-26T08:03:39.873Z</time></trkpt><trkpt lat="40.5811133" lon="15.42489"><ele>392.5</ele><time>2026-04-26T08:03:40.872Z</time></trkpt><trkpt lat="40.58109" lon="15.425065"><ele>390.0</ele><time>2026-04-26T08:03:41.872Z</time></trkpt><trkpt lat="40.581065" lon="15.4252333"><ele>390.0</ele><time>2026-04-26T08:03:42.872Z</time></trkpt><trkpt lat="40.5810317" lon="15.42539"><ele>390.0</ele><time>2026-04-26T08:03:43.873Z</time></trkpt><trkpt lat="40.5809933" lon="15.4255283"><ele>390.0</ele><time>2026-04-26T08:03:44.872Z</time></trkpt><trkpt lat="40.58096" lon="15.42564"><ele>390.0</ele><time>2026-04-26T08:03:45.872Z</time></trkpt><trkpt lat="40.5809333" lon="15.4257233"><ele>390.0</ele><time>2026-04-26T08:03:46.872Z</time></trkpt><trkpt lat="40.5809067" lon="15.4258033"><ele>390.8</ele><time>2026-04-26T08:03:48.873Z</time></trkpt><trkpt lat="40.5809733" lon="15.4259067"><ele>391.6</ele><time>2026-04-26T08:03:58.872Z</time></trkpt><trkpt lat="40.581085" lon="15.425995"><ele>392.4</ele><time>2026-04-26T08:04:00.873Z</time></trkpt><trkpt lat="40.58114" lon="15.4260633"><ele>393.2</ele><time>2026-04-26T08:04:01.872Z</time></trkpt><trkpt lat="40.581195" lon="15.426135"><ele>394.0</ele><time>2026-04-26T08:04:02.873Z</time></trkpt><trkpt lat="40.5812433" lon="15.4262233"><ele>396.83333333333337</ele><time>2026-04-26T08:04:03.873Z</time></trkpt><trkpt lat="40.58129" lon="15.4263133"><ele>399.6666666666667</ele><time>2026-04-26T08:04:04.872Z</time></trkpt><trkpt lat="40.5813383" lon="15.426395"><ele>402.5</ele><time>2026-04-26T08:04:05.872Z</time></trkpt><trkpt lat="40.5813933" lon="15.42646"><ele>405.33333333333337</ele><time>2026-04-26T08:04:06.872Z</time></trkpt><trkpt lat="40.581455" lon="15.4265133"><ele>408.1666666666667</ele><time>2026-04-26T08:04:07.872Z</time></trkpt><trkpt lat="40.581515" lon="15.426565"><ele>411.0</ele><time>2026-04-26T08:04:08.872Z</time></trkpt><trkpt lat="40.581575" lon="15.4266233"><ele>411.0</ele><time>2026-04-26T08:04:09.872Z</time></trkpt><trkpt lat="40.5816383" lon="15.4266883"><ele>411.0</ele><time>2026-04-26T08:04:10.872Z</time></trkpt><trkpt lat="40.5817" lon="15.4267467"><ele>411.0</ele><time>2026-04-26T08:04:11.873Z</time></trkpt><trkpt lat="40.5817683" lon="15.4267983"><ele>411.0</ele><time>2026-04-26T08:04:12.872Z</time></trkpt><trkpt lat="40.5818333" lon="15.4268533"><ele>411.0</ele><time>2026-04-26T08:04:13.873Z</time></trkpt><trkpt lat="40.5818933" lon="15.4269033"><ele>411.0</ele><time>2026-04-26T08:04:14.873Z</time></trkpt><trkpt lat="40.5819417" lon="15.42696"><ele>411.0</ele><time>2026-04-26T08:04:15.873Z</time></trkpt><trkpt lat="40.581975" lon="15.4270783"><ele>411.6</ele><time>2026-04-26T08:04:17.873Z</time></trkpt><trkpt lat="40.58192" lon="15.427215"><ele>412.20000000000005</ele><time>2026-04-26T08:04:19.872Z</time></trkpt><trkpt lat="40.5818733" lon="15.4272967"><ele>412.79999999999995</ele><time>2026-04-26T08:04:20.872Z</time></trkpt><trkpt lat="40.5818217" lon="15.427385"><ele>413.4</ele><time>2026-04-26T08:04:21.873Z</time></trkpt><trkpt lat="40.581755" lon="15.4274783"><ele>414.0</ele><time>2026-04-26T08:04:22.872Z</time></trkpt><trkpt lat="40.5816833" lon="15.42758"><ele>414.0</ele><time>2026-04-26T08:04:23.872Z</time></trkpt><trkpt lat="40.58161" lon="15.4276833"><ele>414.0</ele><time>2026-04-26T08:04:24.872Z</time></trkpt><trkpt lat="40.5815367" lon="15.4277933"><ele>414.0</ele><time>2026-04-26T08:04:25.872Z</time></trkpt><trkpt lat="40.581465" lon="15.427915"><ele>414.0</ele><time>2026-04-26T08:04:26.873Z</time></trkpt><trkpt lat="40.5814033" lon="15.4280417"><ele>413.0</ele><time>2026-04-26T08:04:27.872Z</time></trkpt><trkpt lat="40.5813467" lon="15.428175"><ele>412.0</ele><time>2026-04-26T08:04:28.872Z</time></trkpt><trkpt lat="40.5812917" lon="15.4283083"><ele>411.0</ele><time>2026-04-26T08:04:29.872Z</time></trkpt><trkpt lat="40.581235" lon="15.4284417"><ele>410.0</ele><time>2026-04-26T08:04:30.872Z</time></trkpt><trkpt lat="40.5811817" lon="15.4285617"><ele>409.99999999999994</ele><time>2026-04-26T08:04:31.873Z</time></trkpt><trkpt lat="40.58113" lon="15.4286633"><ele>410.0</ele><time>2026-04-26T08:04:32.872Z</time></trkpt><trkpt lat="40.58107" lon="15.4287533"><ele>410.0</ele><time>2026-04-26T08:04:33.873Z</time></trkpt><trkpt lat="40.5810117" lon="15.42883"><ele>410.0</ele><time>2026-04-26T08:04:34.872Z</time></trkpt><trkpt lat="40.5809617" lon="15.428895"><ele>409.99999999999994</ele><time>2026-04-26T08:04:35.872Z</time></trkpt><trkpt lat="40.5809117" lon="15.4289483"><ele>410.0</ele><time>2026-04-26T08:04:36.872Z</time></trkpt><trkpt lat="40.58086" lon="15.4290117"><ele>410.99999999999994</ele><time>2026-04-26T08:04:37.873Z</time></trkpt><trkpt lat="40.58081" lon="15.429095"><ele>412.0</ele><time>2026-04-26T08:04:38.873Z</time></trkpt><trkpt lat="40.58077" lon="15.4291933"><ele>413.0</ele><time>2026-04-26T08:04:39.872Z</time></trkpt><trkpt lat="40.58074" lon="15.4293067"><ele>414.0</ele><time>2026-04-26T08:04:40.872Z</time></trkpt><trkpt lat="40.5807117" lon="15.4294183"><ele>414.99999999999994</ele><time>2026-04-26T08:04:41.872Z</time></trkpt><trkpt lat="40.5806867" lon="15.4295333"><ele>416.0</ele><time>2026-04-26T08:04:42.872Z</time></trkpt><trkpt lat="40.5806483" lon="15.42964"><ele>417.6</ele><time>2026-04-26T08:04:43.873Z</time></trkpt><trkpt lat="40.5806083" lon="15.4297567"><ele>419.20000000000005</ele><time>2026-04-26T08:04:44.873Z</time></trkpt><trkpt lat="40.5805683" lon="15.429875"><ele>420.79999999999995</ele><time>2026-04-26T08:04:45.872Z</time></trkpt><trkpt lat="40.58053" lon="15.4300017"><ele>422.4</ele><time>2026-04-26T08:04:46.873Z</time></trkpt><trkpt lat="40.5804983" lon="15.4301333"><ele>424.0</ele><time>2026-04-26T08:04:47.872Z</time></trkpt><trkpt lat="40.58047" lon="15.4302717"><ele>424.0</ele><time>2026-04-26T08:04:48.873Z</time></trkpt><trkpt lat="40.58045" lon="15.4304017"><ele>424.0</ele><time>2026-04-26T08:04:49.872Z</time></trkpt><trkpt lat="40.5804367" lon="15.430505"><ele>424.0</ele><time>2026-04-26T08:04:50.873Z</time></trkpt><trkpt lat="40.5804083" lon="15.430655"><ele>424.0</ele><time>2026-04-26T08:04:52.873Z</time></trkpt><trkpt lat="40.58036" lon="15.430815"><ele>424.0</ele><time>2026-04-26T08:04:54.872Z</time></trkpt><trkpt lat="40.5803433" lon="15.430915"><ele>423.83333333333337</ele><time>2026-04-26T08:04:55.872Z</time></trkpt><trkpt lat="40.580325" lon="15.4310283"><ele>423.6666666666667</ele><time>2026-04-26T08:04:56.872Z</time></trkpt><trkpt lat="40.5803017" lon="15.43115"><ele>423.5</ele><time>2026-04-26T08:04:57.871Z</time></trkpt><trkpt lat="40.5802717" lon="15.43127"><ele>423.33333333333337</ele><time>2026-04-26T08:04:58.871Z</time></trkpt><trkpt lat="40.5802417" lon="15.4313717"><ele>423.1666666666667</ele><time>2026-04-26T08:04:59.871Z</time></trkpt><trkpt lat="40.5802133" lon="15.4314467"><ele>423.0</ele><time>2026-04-26T08:05:00.872Z</time></trkpt><trkpt lat="40.58018" lon="15.4315383"><ele>423.0</ele><time>2026-04-26T08:05:02.872Z</time></trkpt><trkpt lat="40.5802067" lon="15.4314517"><ele>423.0</ele><time>2026-04-26T08:08:28.872Z</time></trkpt><trkpt lat="40.5802533" lon="15.4313067"><ele>423.0</ele><time>2026-04-26T08:08:29.872Z</time></trkpt><trkpt lat="40.5802983" lon="15.4311517"><ele>423.0</ele><time>2026-04-26T08:08:30.871Z</time></trkpt><trkpt lat="40.5803233" lon="15.4310233"><ele>423.0</ele><time>2026-04-26T08:08:31.871Z</time></trkpt><trkpt lat="40.5803433" lon="15.4309033"><ele>423.1666666666667</ele><time>2026-04-26T08:08:32.871Z</time></trkpt><trkpt lat="40.5803633" lon="15.4308017"><ele>423.33333333333337</ele><time>2026-04-26T08:08:33.872Z</time></trkpt><trkpt lat="40.5804033" lon="15.430685"><ele>423.5</ele><time>2026-04-26T08:08:35.872Z</time></trkpt><trkpt lat="40.5804267" lon="15.4305533"><ele>423.6666666666667</ele><time>2026-04-26T08:08:37.871Z</time></trkpt><trkpt lat="40.58044" lon="15.4304533"><ele>423.83333333333337</ele><time>2026-04-26T08:08:38.872Z</time></trkpt><trkpt lat="40.5804567" lon="15.430345"><ele>424.0</ele><time>2026-04-26T08:08:39.871Z</time></trkpt><trkpt lat="40.5804767" lon="15.4302383"><ele>424.00000000000006</ele><time>2026-04-26T08:08:40.871Z</time></trkpt><trkpt lat="40.5804967" lon="15.430135"><ele>424.0</ele><time>2026-04-26T08:08:41.872Z</time></trkpt><trkpt lat="40.580515" lon="15.4300417"><ele>424.0</ele><time>2026-04-26T08:08:42.872Z</time></trkpt><trkpt lat="40.58053" lon="15.4299583"><ele>424.0</ele><time>2026-04-26T08:08:43.872Z</time></trkpt><trkpt lat="40.5805683" lon="15.42982"><ele>424.00000000000006</ele><time>2026-04-26T08:08:45.871Z</time></trkpt><trkpt lat="40.5806117" lon="15.4297167"><ele>424.0</ele><time>2026-04-26T08:08:47.871Z</time></trkpt><trkpt lat="40.580655" lon="15.429625"><ele>422.4</ele><time>2026-04-26T08:08:49.872Z</time></trkpt><trkpt lat="40.5806933" lon="15.42949"><ele>420.79999999999995</ele><time>2026-04-26T08:08:51.871Z</time></trkpt><trkpt lat="40.58073" lon="15.42933"><ele>419.20000000000005</ele><time>2026-04-26T08:08:53.872Z</time></trkpt><trkpt lat="40.580755" lon="15.4292283"><ele>417.6</ele><time>2026-04-26T08:08:54.872Z</time></trkpt><trkpt lat="40.5807917" lon="15.42912"><ele>416.0</ele><time>2026-04-26T08:08:55.871Z</time></trkpt><trkpt lat="40.580835" lon="15.4290367"><ele>416.0</ele><time>2026-04-26T08:08:56.872Z</time></trkpt><trkpt lat="40.58089" lon="15.4289683"><ele>416.0</ele><time>2026-04-26T08:08:57.872Z</time></trkpt><trkpt lat="40.5809433" lon="15.4289133"><ele>416.0</ele><time>2026-04-26T08:08:58.871Z</time></trkpt><trkpt lat="40.5810417" lon="15.4287983"><ele>416.0</ele><time>2026-04-26T08:09:00.872Z</time></trkpt><trkpt lat="40.5811" lon="15.4287167"><ele>416.0</ele><time>2026-04-26T08:09:01.872Z</time></trkpt><trkpt lat="40.58116" lon="15.4286167"><ele>417.25</ele><time>2026-04-26T08:09:02.872Z</time></trkpt><trkpt lat="40.58122" lon="15.4284883"><ele>418.5</ele><time>2026-04-26T08:09:03.872Z</time></trkpt><trkpt lat="40.58128" lon="15.4283417"><ele>419.75</ele><time>2026-04-26T08:09:04.872Z</time></trkpt><trkpt lat="40.58134" lon="15.428195"><ele>421.0</ele><time>2026-04-26T08:09:05.872Z</time></trkpt><trkpt lat="40.5814017" lon="15.4280617"><ele>419.25</ele><time>2026-04-26T08:09:06.871Z</time></trkpt><trkpt lat="40.5814633" lon="15.4279333"><ele>417.5</ele><time>2026-04-26T08:09:07.871Z</time></trkpt><trkpt lat="40.581535" lon="15.4278083"><ele>415.75</ele><time>2026-04-26T08:09:08.872Z</time></trkpt><trkpt lat="40.5816167" lon="15.4276883"><ele>414.0</ele><time>2026-04-26T08:09:09.872Z</time></trkpt><trkpt lat="40.581695" lon="15.4275667"><ele>414.0</ele><time>2026-04-26T08:09:10.871Z</time></trkpt><trkpt lat="40.5817667" lon="15.42746"><ele>414.0</ele><time>2026-04-26T08:09:11.871Z</time></trkpt><trkpt lat="40.581835" lon="15.427365"><ele>414.0</ele><time>2026-04-26T08:09:12.872Z</time></trkpt><trkpt lat="40.5818917" lon="15.4272683"><ele>414.0</ele><time>2026-04-26T08:09:13.872Z</time></trkpt><trkpt lat="40.581945" lon="15.427175"><ele>414.0</ele><time>2026-04-26T08:09:14.871Z</time></trkpt><trkpt lat="40.58198" lon="15.4271"><ele>413.4</ele><time>2026-04-26T08:09:15.871Z</time></trkpt><trkpt lat="40.58197" lon="15.4269817"><ele>412.79999999999995</ele><time>2026-04-26T08:09:17.871Z</time></trkpt><trkpt lat="40.581885" lon="15.4268933"><ele>412.20000000000005</ele><time>2026-04-26T08:09:19.871Z</time></trkpt><trkpt lat="40.58182" lon="15.4268333"><ele>411.6</ele><time>2026-04-26T08:09:20.872Z</time></trkpt><trkpt lat="40.5817483" lon="15.426765"><ele>411.0</ele><time>2026-04-26T08:09:21.872Z</time></trkpt><trkpt lat="40.5816767" lon="15.426705"><ele>411.0</ele><time>2026-04-26T08:09:22.872Z</time></trkpt><trkpt lat="40.5816067" lon="15.4266433"><ele>411.0</ele><time>2026-04-26T08:09:23.872Z</time></trkpt><trkpt lat="40.58153" lon="15.4265817"><ele>411.0</ele><time>2026-04-26T08:09:24.872Z</time></trkpt><trkpt lat="40.581455" lon="15.4265133"><ele>411.0</ele><time>2026-04-26T08:09:25.872Z</time></trkpt><trkpt lat="40.581385" lon="15.42644"><ele>411.0</ele><time>2026-04-26T08:09:26.871Z</time></trkpt><trkpt lat="40.58132" lon="15.4263517"><ele>411.0</ele><time>2026-04-26T08:09:27.872Z</time></trkpt><trkpt lat="40.5812617" lon="15.4262433"><ele>410.20000000000005</ele><time>2026-04-26T08:09:28.871Z</time></trkpt><trkpt lat="40.581205" lon="15.42614"><ele>409.40000000000003</ele><time>2026-04-26T08:09:29.871Z</time></trkpt><trkpt lat="40.5811417" lon="15.4260517"><ele>408.6</ele><time>2026-04-26T08:09:30.872Z</time></trkpt><trkpt lat="40.5810833" lon="15.4259817"><ele>407.8</ele><time>2026-04-26T08:09:31.871Z</time></trkpt><trkpt lat="40.581" lon="15.4259033"><ele>407.0</ele><time>2026-04-26T08:09:33.872Z</time></trkpt><trkpt lat="40.5808917" lon="15.4258933"><ele>405.3333333333333</ele><time>2026-04-26T08:09:49.872Z</time></trkpt><trkpt lat="40.5808267" lon="15.4259983"><ele>403.66666666666663</ele><time>2026-04-26T08:09:51.872Z</time></trkpt><trkpt lat="40.5807933" lon="15.42608"><ele>402.0</ele><time>2026-04-26T08:09:52.871Z</time></trkpt><trkpt lat="40.58076" lon="15.4261683"><ele>400.33333333333337</ele><time>2026-04-26T08:09:53.871Z</time></trkpt><trkpt lat="40.5807233" lon="15.42627"><ele>398.6666666666667</ele><time>2026-04-26T08:09:54.871Z</time></trkpt><trkpt lat="40.5806817" lon="15.42638"><ele>397.0</ele><time>2026-04-26T08:09:55.871Z</time></trkpt><trkpt lat="40.58064" lon="15.4264967"><ele>397.0</ele><time>2026-04-26T08:09:56.871Z</time></trkpt><trkpt lat="40.5805983" lon="15.4266183"><ele>397.0</ele><time>2026-04-26T08:09:57.871Z</time></trkpt><trkpt lat="40.5805517" lon="15.4267467"><ele>397.0</ele><time>2026-04-26T08:09:58.871Z</time></trkpt><trkpt lat="40.5805033" lon="15.4268783"><ele>397.0</ele><time>2026-04-26T08:09:59.872Z</time></trkpt><trkpt lat="40.5804567" lon="15.42701"><ele>397.0</ele><time>2026-04-26T08:10:00.871Z</time></trkpt><trkpt lat="40.580405" lon="15.42715"><ele>396.0</ele><time>2026-04-26T08:10:01.872Z</time></trkpt><trkpt lat="40.58035" lon="15.4272933"><ele>395.0</ele><time>2026-04-26T08:10:02.872Z</time></trkpt><trkpt lat="40.5802967" lon="15.427445"><ele>394.0</ele><time>2026-04-26T08:10:03.872Z</time></trkpt><trkpt lat="40.58024" lon="15.4275983"><ele>393.0</ele><time>2026-04-26T08:10:04.871Z</time></trkpt><trkpt lat="40.5801783" lon="15.42776"><ele>393.0</ele><time>2026-04-26T08:10:05.872Z</time></trkpt><trkpt lat="40.5801183" lon="15.42792"><ele>393.0</ele><time>2026-04-26T08:10:06.872Z</time></trkpt><trkpt lat="40.5800533" lon="15.4280767"><ele>393.0</ele><time>2026-04-26T08:10:07.871Z</time></trkpt><trkpt lat="40.5799783" lon="15.4282317"><ele>393.0</ele><time>2026-04-26T08:10:08.871Z</time></trkpt><trkpt lat="40.579895" lon="15.4283833"><ele>394.0</ele><time>2026-04-26T08:10:09.871Z</time></trkpt><trkpt lat="40.5798033" lon="15.4285383"><ele>395.0</ele><time>2026-04-26T08:10:10.872Z</time></trkpt><trkpt lat="40.5797067" lon="15.4286883"><ele>396.0</ele><time>2026-04-26T08:10:11.871Z</time></trkpt><trkpt lat="40.5796083" lon="15.42884"><ele>395.33333333333337</ele><time>2026-04-26T08:10:12.871Z</time></trkpt><trkpt lat="40.57951" lon="15.4289883"><ele>394.6666666666667</ele><time>2026-04-26T08:10:13.872Z</time></trkpt><trkpt lat="40.5794033" lon="15.4291467"><ele>394.0</ele><time>2026-04-26T08:10:14.872Z</time></trkpt><trkpt lat="40.5793" lon="15.429295"><ele>394.0</ele><time>2026-04-26T08:10:15.872Z</time></trkpt><trkpt lat="40.5791917" lon="15.4294333"><ele>394.0</ele><time>2026-04-26T08:10:16.872Z</time></trkpt><trkpt lat="40.5790833" lon="15.4295683"><ele>394.0</ele><time>2026-04-26T08:10:17.871Z</time></trkpt><trkpt lat="40.5789767" lon="15.4297033"><ele>394.0</ele><time>2026-04-26T08:10:18.872Z</time></trkpt><trkpt lat="40.57887" lon="15.4298417"><ele>394.0</ele><time>2026-04-26T08:10:19.871Z</time></trkpt><trkpt lat="40.5787617" lon="15.4299917"><ele>394.0</ele><time>2026-04-26T08:10:20.871Z</time></trkpt><trkpt lat="40.578655" lon="15.4301383"><ele>394.0</ele><time>2026-04-26T08:10:21.871Z</time></trkpt><trkpt lat="40.5785533" lon="15.4302867"><ele>394.0</ele><time>2026-04-26T08:10:22.872Z</time></trkpt><trkpt lat="40.578465" lon="15.4304467"><ele>394.0</ele><time>2026-04-26T08:10:23.872Z</time></trkpt><trkpt lat="40.578385" lon="15.4306133"><ele>394.0</ele><time>2026-04-26T08:10:24.871Z</time></trkpt><trkpt lat="40.578315" lon="15.4307833"><ele>394.0</ele><time>2026-04-26T08:10:25.872Z</time></trkpt><trkpt lat="40.5782483" lon="15.4309583"><ele>396.0</ele><time>2026-04-26T08:10:26.872Z</time></trkpt><trkpt lat="40.57818" lon="15.43113"><ele>398.0</ele><time>2026-04-26T08:10:27.871Z</time></trkpt><trkpt lat="40.5781083" lon="15.431295"><ele>400.0</ele><time>2026-04-26T08:10:28.871Z</time></trkpt><trkpt lat="40.578035" lon="15.4314633"><ele>402.0</ele><time>2026-04-26T08:10:29.871Z</time></trkpt><trkpt lat="40.5779617" lon="15.431635"><ele>401.0</ele><time>2026-04-26T08:10:30.872Z</time></trkpt><trkpt lat="40.57789" lon="15.43181"><ele>400.0</ele><time>2026-04-26T08:10:31.871Z</time></trkpt><trkpt lat="40.5778167" lon="15.4319883"><ele>399.0</ele><time>2026-04-26T08:10:32.871Z</time></trkpt><trkpt lat="40.5777383" lon="15.4321717"><ele>402.66666666666663</ele><time>2026-04-26T08:10:33.872Z</time></trkpt><trkpt lat="40.5776567" lon="15.4323517"><ele>406.3333333333333</ele><time>2026-04-26T08:10:34.872Z</time></trkpt><trkpt lat="40.5775783" lon="15.4325383"><ele>410.0</ele><time>2026-04-26T08:10:35.872Z</time></trkpt><trkpt lat="40.5774983" lon="15.4327233"><ele>410.0</ele><time>2026-04-26T08:10:36.872Z</time></trkpt><trkpt lat="40.5774167" lon="15.4329083"><ele>410.0</ele><time>2026-04-26T08:10:37.872Z</time></trkpt><trkpt lat="40.577335" lon="15.4330933"><ele>410.0</ele><time>2026-04-26T08:10:38.871Z</time></trkpt><trkpt lat="40.5772483" lon="15.4332767"><ele>410.25</ele><time>2026-04-26T08:10:39.871Z</time></trkpt><trkpt lat="40.5771633" lon="15.43345"><ele>410.5</ele><time>2026-04-26T08:10:40.872Z</time></trkpt><trkpt lat="40.5770817" lon="15.433615"><ele>410.75</ele><time>2026-04-26T08:10:41.872Z</time></trkpt><trkpt lat="40.5770133" lon="15.43377"><ele>411.0</ele><time>2026-04-26T08:10:42.871Z</time></trkpt><trkpt lat="40.5769483" lon="15.4339067"><ele>412.6</ele><time>2026-04-26T08:10:43.872Z</time></trkpt><trkpt lat="40.5768917" lon="15.4340133"><ele>414.20000000000005</ele><time>2026-04-26T08:10:44.871Z</time></trkpt><trkpt lat="40.5768483" lon="15.4340867"><ele>415.79999999999995</ele><time>2026-04-26T08:10:45.872Z</time></trkpt><trkpt lat="40.5768" lon="15.4341567"><ele>417.4</ele><time>2026-04-26T08:10:47.872Z</time></trkpt><trkpt lat="40.57683" lon="15.434255"><ele>419.0</ele><time>2026-04-26T08:10:52.871Z</time></trkpt><trkpt lat="40.5769683" lon="15.434265"><ele>420.2</ele><time>2026-04-26T08:10:54.872Z</time></trkpt><trkpt lat="40.57707" lon="15.4342483"><ele>421.4</ele><time>2026-04-26T08:10:55.871Z</time></trkpt><trkpt lat="40.5771767" lon="15.434215"><ele>422.6</ele><time>2026-04-26T08:10:56.872Z</time></trkpt><trkpt lat="40.5772867" lon="15.4341683"><ele>423.8</ele><time>2026-04-26T08:10:57.872Z</time></trkpt><trkpt lat="40.5773933" lon="15.43412"><ele>425.0</ele><time>2026-04-26T08:10:58.871Z</time></trkpt><trkpt lat="40.5774933" lon="15.4340817"><ele>425.0</ele><time>2026-04-26T08:10:59.872Z</time></trkpt><trkpt lat="40.5776067" lon="15.43405"><ele>425.0</ele><time>2026-04-26T08:11:00.872Z</time></trkpt><trkpt lat="40.57774" lon="15.4340233"><ele>425.0</ele><time>2026-04-26T08:11:01.871Z</time></trkpt><trkpt lat="40.5778783" lon="15.4339967"><ele>425.0</ele><time>2026-04-26T08:11:02.871Z</time></trkpt><trkpt lat="40.5780117" lon="15.4339767"><ele>426.8</ele><time>2026-04-26T08:11:03.871Z</time></trkpt><trkpt lat="40.5781367" lon="15.4339667"><ele>428.6</ele><time>2026-04-26T08:11:04.871Z</time></trkpt><trkpt lat="40.5782483" lon="15.433965"><ele>430.4</ele><time>2026-04-26T08:11:05.872Z</time></trkpt><trkpt lat="40.5783433" lon="15.4339617"><ele>432.2</ele><time>2026-04-26T08:11:06.872Z</time></trkpt><trkpt lat="40.5784417" lon="15.43398"><ele>434.0</ele><time>2026-04-26T08:11:07.871Z</time></trkpt><trkpt lat="40.57855" lon="15.434"><ele>434.0</ele><time>2026-04-26T08:11:08.872Z</time></trkpt><trkpt lat="40.5786667" lon="15.43402"><ele>434.0</ele><time>2026-04-26T08:11:09.871Z</time></trkpt><trkpt lat="40.5787783" lon="15.4340383"><ele>434.0</ele><time>2026-04-26T08:11:10.872Z</time></trkpt><trkpt lat="40.578885" lon="15.43405"><ele>434.0</ele><time>2026-04-26T08:11:11.871Z</time></trkpt><trkpt lat="40.5789833" lon="15.43406"><ele>434.0</ele><time>2026-04-26T08:11:12.872Z</time></trkpt><trkpt lat="40.5790817" lon="15.434065"><ele>436.0</ele><time>2026-04-26T08:11:13.872Z</time></trkpt><trkpt lat="40.5791783" lon="15.4340617"><ele>438.0</ele><time>2026-04-26T08:11:14.871Z</time></trkpt><trkpt lat="40.579265" lon="15.4340533"><ele>440.0</ele><time>2026-04-26T08:11:15.871Z</time></trkpt><trkpt lat="40.579355" lon="15.43404"><ele>442.0</ele><time>2026-04-26T08:11:16.871Z</time></trkpt><trkpt lat="40.579445" lon="15.43403"><ele>444.0</ele><time>2026-04-26T08:11:17.871Z</time></trkpt><trkpt lat="40.5795483" lon="15.43402"><ele>445.0</ele><time>2026-04-26T08:11:18.871Z</time></trkpt><trkpt lat="40.5796533" lon="15.4340167"><ele>446.0</ele><time>2026-04-26T08:11:19.871Z</time></trkpt><trkpt lat="40.5797567" lon="15.4340233"><ele>447.0</ele><time>2026-04-26T08:11:20.872Z</time></trkpt><trkpt lat="40.5798567" lon="15.4340367"><ele>448.0</ele><time>2026-04-26T08:11:21.871Z</time></trkpt><trkpt lat="40.5799533" lon="15.4340533"><ele>449.0</ele><time>2026-04-26T08:11:22.872Z</time></trkpt><trkpt lat="40.5800483" lon="15.434075"><ele>449.0</ele><time>2026-04-26T08:11:23.871Z</time></trkpt><trkpt lat="40.5801367" lon="15.4340983"><ele>449.0</ele><time>2026-04-26T08:11:24.872Z</time></trkpt><trkpt lat="40.5802183" lon="15.4341283"><ele>449.0</ele><time>2026-04-26T08:11:25.871Z</time></trkpt><trkpt lat="40.5802967" lon="15.43418"><ele>449.0</ele><time>2026-04-26T08:11:26.872Z</time></trkpt><trkpt lat="40.5803783" lon="15.4342533"><ele>449.0</ele><time>2026-04-26T08:11:27.872Z</time></trkpt><trkpt lat="40.5804633" lon="15.4343367"><ele>450.6</ele><time>2026-04-26T08:11:28.871Z</time></trkpt><trkpt lat="40.58055" lon="15.4344267"><ele>452.2</ele><time>2026-04-26T08:11:29.871Z</time></trkpt><trkpt lat="40.5806233" lon="15.4344967"><ele>453.80000000000007</ele><time>2026-04-26T08:11:30.871Z</time></trkpt><trkpt lat="40.5806883" lon="15.4345467"><ele>455.40000000000003</ele><time>2026-04-26T08:11:31.872Z</time></trkpt><trkpt lat="40.5808033" lon="15.4345733"><ele>457.0</ele><time>2026-04-26T08:11:33.871Z</time></trkpt><trkpt lat="40.5809" lon="15.4345017"><ele>457.0</ele><time>2026-04-26T08:11:35.872Z</time></trkpt><trkpt lat="40.5809717" lon="15.4343767"><ele>457.00000000000006</ele><time>2026-04-26T08:11:37.872Z</time></trkpt><trkpt lat="40.5810367" lon="15.4342633"><ele>457.00000000000006</ele><time>2026-04-26T08:11:39.871Z</time></trkpt><trkpt lat="40.5811333" lon="15.43417"><ele>457.0</ele><time>2026-04-26T08:11:41.871Z</time></trkpt><trkpt lat="40.5812" lon="15.4341217"><ele>457.0</ele><time>2026-04-26T08:11:42.871Z</time></trkpt><trkpt lat="40.5812683" lon="15.4340767"><ele>459.50000000000006</ele><time>2026-04-26T08:11:43.872Z</time></trkpt><trkpt lat="40.581335" lon="15.4340317"><ele>462.0</ele><time>2026-04-26T08:11:44.872Z</time></trkpt><trkpt lat="40.58139" lon="15.4339783"><ele>464.5</ele><time>2026-04-26T08:11:45.872Z</time></trkpt><trkpt lat="40.581435" lon="15.4339067"><ele>467.0</ele><time>2026-04-26T08:11:46.872Z</time></trkpt><trkpt lat="40.5814833" lon="15.4338217"><ele>469.50000000000006</ele><time>2026-04-26T08:11:47.872Z</time></trkpt><trkpt lat="40.5815317" lon="15.4337317"><ele>472.0</ele><time>2026-04-26T08:11:48.871Z</time></trkpt><trkpt lat="40.5815883" lon="15.433635"><ele>472.00000000000006</ele><time>2026-04-26T08:11:49.872Z</time></trkpt><trkpt lat="40.5816433" lon="15.4335467"><ele>472.0</ele><time>2026-04-26T08:11:50.872Z</time></trkpt><trkpt lat="40.5816967" lon="15.4334717"><ele>472.0</ele><time>2026-04-26T08:11:51.871Z</time></trkpt><trkpt lat="40.5817567" lon="15.4334217"><ele>472.0</ele><time>2026-04-26T08:11:52.872Z</time></trkpt><trkpt lat="40.58184" lon="15.4333667"><ele>472.00000000000006</ele><time>2026-04-26T08:11:54.872Z</time></trkpt><trkpt lat="40.581935" lon="15.43332"><ele>472.0</ele><time>2026-04-26T08:12:52.872Z</time></trkpt><trkpt lat="40.582035" lon="15.4332883"><ele>475.33333333333337</ele><time>2026-04-26T08:12:54.872Z</time></trkpt><trkpt lat="40.5820983" lon="15.4332767"><ele>478.6666666666667</ele><time>2026-04-26T08:12:55.872Z</time></trkpt><trkpt lat="40.582175" lon="15.4332717"><ele>482.0</ele><time>2026-04-26T08:12:56.872Z</time></trkpt><trkpt lat="40.5822633" lon="15.4332817"><ele>485.33333333333337</ele><time>2026-04-26T08:12:57.871Z</time></trkpt><trkpt lat="40.5823667" lon="15.4332867"><ele>488.6666666666667</ele><time>2026-04-26T08:12:58.871Z</time></trkpt><trkpt lat="40.5824683" lon="15.4332817"><ele>492.0</ele><time>2026-04-26T08:12:59.871Z</time></trkpt><trkpt lat="40.5825717" lon="15.43326"><ele>492.0</ele><time>2026-04-26T08:13:00.872Z</time></trkpt><trkpt lat="40.582675" lon="15.4332367"><ele>492.00000000000006</ele><time>2026-04-26T08:13:01.871Z</time></trkpt><trkpt lat="40.5827683" lon="15.4332017"><ele>492.00000000000006</ele><time>2026-04-26T08:13:02.872Z</time></trkpt><trkpt lat="40.5828533" lon="15.4331633"><ele>492.0</ele><time>2026-04-26T08:13:03.872Z</time></trkpt><trkpt lat="40.5829383" lon="15.4331217"><ele>492.0</ele><time>2026-04-26T08:13:04.872Z</time></trkpt><trkpt lat="40.58302" lon="15.433065"><ele>494.25</ele><time>2026-04-26T08:13:05.872Z</time></trkpt><trkpt lat="40.5831033" lon="15.4329883"><ele>496.5</ele><time>2026-04-26T08:13:06.871Z</time></trkpt><trkpt lat="40.5831967" lon="15.4328917"><ele>498.75</ele><time>2026-04-26T08:13:07.871Z</time></trkpt><trkpt lat="40.583295" lon="15.4327883"><ele>501.0</ele><time>2026-04-26T08:13:08.871Z</time></trkpt><trkpt lat="40.5833917" lon="15.43267"><ele>501.0</ele><time>2026-04-26T08:13:09.872Z</time></trkpt><trkpt lat="40.5834667" lon="15.4325767"><ele>501.0</ele><time>2026-04-26T08:13:10.871Z</time></trkpt><trkpt lat="40.583525" lon="15.432505"><ele>501.0</ele><time>2026-04-26T08:13:11.872Z</time></trkpt><trkpt lat="40.5835967" lon="15.4324183"><ele>501.0</ele><time>2026-04-26T08:13:13.871Z</time></trkpt><trkpt lat="40.583645" lon="15.4323617"><ele>501.0</ele><time>2026-04-26T08:13:15.872Z</time></trkpt><trkpt lat="40.5837433" lon="15.4322733"><ele>504.0</ele><time>2026-04-26T08:13:17.871Z</time></trkpt><trkpt lat="40.5838117" lon="15.4322017"><ele>507.0</ele><time>2026-04-26T08:13:18.872Z</time></trkpt><trkpt lat="40.5838767" lon="15.432125"><ele>510.0</ele><time>2026-04-26T08:13:19.872Z</time></trkpt><trkpt lat="40.5839367" lon="15.4320417"><ele>513.0</ele><time>2026-04-26T08:13:20.871Z</time></trkpt><trkpt lat="40.5839967" lon="15.4319517"><ele>516.0</ele><time>2026-04-26T08:13:21.872Z</time></trkpt><trkpt lat="40.584065" lon="15.4318383"><ele>516.0</ele><time>2026-04-26T08:13:22.872Z</time></trkpt><trkpt lat="40.5841367" lon="15.4317167"><ele>516.0</ele><time>2026-04-26T08:13:23.872Z</time></trkpt><trkpt lat="40.5842017" lon="15.4316083"><ele>516.0</ele><time>2026-04-26T08:13:24.872Z</time></trkpt><trkpt lat="40.58425" lon="15.431515"><ele>516.0</ele><time>2026-04-26T08:13:25.871Z</time></trkpt><trkpt lat="40.5842917" lon="15.4314383"><ele>516.0</ele><time>2026-04-26T08:13:26.872Z</time></trkpt><trkpt lat="40.5843533" lon="15.4313317"><ele>514.5</ele><time>2026-04-26T08:13:28.871Z</time></trkpt><trkpt lat="40.5844" lon="15.4312583"><ele>513.0</ele><time>2026-04-26T08:13:30.871Z</time></trkpt><trkpt lat="40.5844533" lon="15.43115"><ele>511.5</ele><time>2026-04-26T08:13:58.871Z</time></trkpt><trkpt lat="40.5844983" lon="15.431075"><ele>510.0</ele><time>2026-04-26T08:13:59.872Z</time></trkpt><trkpt lat="40.5845483" lon="15.43099"><ele>508.5</ele><time>2026-04-26T08:14:00.872Z</time></trkpt><trkpt lat="40.5846183" lon="15.4308867"><ele>507.0</ele><time>2026-04-26T08:14:01.871Z</time></trkpt><trkpt lat="40.5847017" lon="15.4307817"><ele>511.20000000000005</ele><time>2026-04-26T08:14:02.871Z</time></trkpt><trkpt lat="40.5847683" lon="15.4306883"><ele>515.4000000000001</ele><time>2026-04-26T08:14:03.871Z</time></trkpt><trkpt lat="40.584835" lon="15.4306017"><ele>519.5999999999999</ele><time>2026-04-26T08:14:04.871Z</time></trkpt><trkpt lat="40.5849017" lon="15.4305117"><ele>523.8</ele><time>2026-04-26T08:14:05.871Z</time></trkpt><trkpt lat="40.5849633" lon="15.430415"><ele>528.0</ele><time>2026-04-26T08:14:06.871Z</time></trkpt><trkpt lat="40.5850267" lon="15.43032"><ele>528.0</ele><time>2026-04-26T08:14:07.872Z</time></trkpt><trkpt lat="40.5850817" lon="15.4302333"><ele>528.0</ele><time>2026-04-26T08:14:08.872Z</time></trkpt><trkpt lat="40.5851233" lon="15.43014"><ele>528.0</ele><time>2026-04-26T08:14:09.871Z</time></trkpt><trkpt lat="40.585155" lon="15.4300367"><ele>528.0</ele><time>2026-04-26T08:14:10.872Z</time></trkpt><trkpt lat="40.58519" lon="15.42993"><ele>528.0</ele><time>2026-04-26T08:14:11.872Z</time></trkpt><trkpt lat="40.58523" lon="15.4298283"><ele>528.0</ele><time>2026-04-26T08:14:12.871Z</time></trkpt><trkpt lat="40.5852767" lon="15.4297317"><ele>528.0</ele><time>2026-04-26T08:14:13.871Z</time></trkpt><trkpt lat="40.5853283" lon="15.4296433"><ele>528.0</ele><time>2026-04-26T08:14:14.872Z</time></trkpt><trkpt lat="40.5853767" lon="15.4295517"><ele>528.0</ele><time>2026-04-26T08:14:15.872Z</time></trkpt><trkpt lat="40.5854217" lon="15.4294583"><ele>528.0</ele><time>2026-04-26T08:14:16.872Z</time></trkpt><trkpt lat="40.5854583" lon="15.4293583"><ele>528.0</ele><time>2026-04-26T08:14:17.872Z</time></trkpt><trkpt lat="40.5855017" lon="15.4292533"><ele>528.0</ele><time>2026-04-26T08:14:18.872Z</time></trkpt><trkpt lat="40.5855467" lon="15.4291433"><ele>531.4</ele><time>2026-04-26T08:14:19.871Z</time></trkpt><trkpt lat="40.585595" lon="15.429035"><ele>534.8</ele><time>2026-04-26T08:14:20.872Z</time></trkpt><trkpt lat="40.5856467" lon="15.428925"><ele>538.2</ele><time>2026-04-26T08:14:21.872Z</time></trkpt><trkpt lat="40.5857" lon="15.4288117"><ele>541.6</ele><time>2026-04-26T08:14:22.872Z</time></trkpt><trkpt lat="40.5857517" lon="15.4287033"><ele>545.0</ele><time>2026-04-26T08:14:23.871Z</time></trkpt><trkpt lat="40.5857983" lon="15.4286"><ele>545.0</ele><time>2026-04-26T08:14:24.871Z</time></trkpt><trkpt lat="40.5858367" lon="15.4284967"><ele>545.0</ele><time>2026-04-26T08:14:25.87Z</time></trkpt><trkpt lat="40.58587" lon="15.42841"><ele>545.0</ele><time>2026-04-26T08:14:26.871Z</time></trkpt><trkpt lat="40.585905" lon="15.428315"><ele>545.0</ele><time>2026-04-26T08:14:28.871Z</time></trkpt><trkpt lat="40.5859717" lon="15.4282333"><ele>545.0</ele><time>2026-04-26T08:14:41.87Z</time></trkpt><trkpt lat="40.5860567" lon="15.4281567"><ele>545.0</ele><time>2026-04-26T08:14:43.871Z</time></trkpt><trkpt lat="40.5861317" lon="15.4280933"><ele>548.5</ele><time>2026-04-26T08:14:45.871Z</time></trkpt><trkpt lat="40.5861783" lon="15.4280067"><ele>552.0</ele><time>2026-04-26T08:14:47.87Z</time></trkpt><trkpt lat="40.5862167" lon="15.427935"><ele>555.5</ele><time>2026-04-26T08:14:49.871Z</time></trkpt><trkpt lat="40.5862567" lon="15.427855"><ele>559.0</ele><time>2026-04-26T08:14:52.871Z</time></trkpt><trkpt lat="40.5863017" lon="15.42777"><ele>562.5</ele><time>2026-04-26T08:14:55.871Z</time></trkpt><trkpt lat="40.58635" lon="15.4276367"><ele>566.0</ele><time>2026-04-26T08:14:57.87Z</time></trkpt><trkpt lat="40.5863917" lon="15.4274833"><ele>566.0</ele><time>2026-04-26T08:14:59.87Z</time></trkpt><trkpt lat="40.58641" lon="15.4273983"><ele>566.0</ele><time>2026-04-26T08:15:00.87Z</time></trkpt><trkpt lat="40.586465" lon="15.42725"><ele>566.0</ele><time>2026-04-26T08:15:02.871Z</time></trkpt><trkpt lat="40.58654" lon="15.42712"><ele>566.0</ele><time>2026-04-26T08:15:04.87Z</time></trkpt><trkpt lat="40.5866283" lon="15.4270083"><ele>566.0</ele><time>2026-04-26T08:15:06.871Z</time></trkpt><trkpt lat="40.5867167" lon="15.4268933"><ele>564.3333333333333</ele><time>2026-04-26T08:15:08.871Z</time></trkpt><trkpt lat="40.5867483" lon="15.426815"><ele>562.6666666666666</ele><time>2026-04-26T08:15:09.871Z</time></trkpt><trkpt lat="40.5867783" lon="15.4267367"><ele>561.0</ele><time>2026-04-26T08:15:10.87Z</time></trkpt><trkpt lat="40.5868283" lon="15.4265867"><ele>559.3333333333334</ele><time>2026-04-26T08:15:12.871Z</time></trkpt><trkpt lat="40.5868567" lon="15.4265083"><ele>557.6666666666667</ele><time>2026-04-26T08:15:13.87Z</time></trkpt><trkpt lat="40.5868833" lon="15.42643"><ele>556.0</ele><time>2026-04-26T08:15:14.871Z</time></trkpt><trkpt lat="40.5869083" lon="15.4263517"><ele>554.5</ele><time>2026-04-26T08:15:15.871Z</time></trkpt><trkpt lat="40.586965" lon="15.4262083"><ele>553.0</ele><time>2026-04-26T08:15:17.871Z</time></trkpt><trkpt lat="40.5870283" lon="15.4261017"><ele>551.5</ele><time>2026-04-26T08:15:19.871Z</time></trkpt><trkpt lat="40.587095" lon="15.42598"><ele>550.0</ele><time>2026-04-26T08:15:21.87Z</time></trkpt><trkpt lat="40.5871617" lon="15.4258433"><ele>555.2</ele><time>2026-04-26T08:15:23.871Z</time></trkpt><trkpt lat="40.5872133" lon="15.4257267"><ele>560.4</ele><time>2026-04-26T08:15:25.87Z</time></trkpt><trkpt lat="40.5872683" lon="15.42561"><ele>565.6</ele><time>2026-04-26T08:15:27.871Z</time></trkpt><trkpt lat="40.58733" lon="15.4255"><ele>570.8</ele><time>2026-04-26T08:15:29.871Z</time></trkpt><trkpt lat="40.5874083" lon="15.4253933"><ele>576.0</ele><time>2026-04-26T08:15:31.87Z</time></trkpt><trkpt lat="40.5874933" lon="15.4252817"><ele>576.0</ele><time>2026-04-26T08:15:33.87Z</time></trkpt><trkpt lat="40.5875367" lon="15.42521"><ele>576.0</ele><time>2026-04-26T08:15:34.871Z</time></trkpt><trkpt lat="40.5875817" lon="15.4251417"><ele>576.0</ele><time>2026-04-26T08:15:35.871Z</time></trkpt><trkpt lat="40.5876533" lon="15.4250317"><ele>576.0</ele><time>2026-04-26T08:15:37.87Z</time></trkpt><trkpt lat="40.58772" lon="15.4249317"><ele>576.0</ele><time>2026-04-26T08:15:39.871Z</time></trkpt><trkpt lat="40.58777" lon="15.4248583"><ele>576.0</ele><time>2026-04-26T08:15:41.871Z</time></trkpt><trkpt lat="40.5878633" lon="15.4248067"><ele>576.8</ele><time>2026-04-26T08:18:21.87Z</time></trkpt><trkpt lat="40.5879033" lon="15.42472"><ele>577.6</ele><time>2026-04-26T08:18:24.87Z</time></trkpt><trkpt lat="40.58795" lon="15.4245683"><ele>578.4</ele><time>2026-04-26T08:18:26.87Z</time></trkpt><trkpt lat="40.5879833" lon="15.4244783"><ele>579.2</ele><time>2026-04-26T08:18:27.871Z</time></trkpt><trkpt lat="40.58802" lon="15.4244017"><ele>580.0</ele><time>2026-04-26T08:18:28.871Z</time></trkpt><trkpt lat="40.5880883" lon="15.42428"><ele>580.0</ele><time>2026-04-26T08:18:30.871Z</time></trkpt><trkpt lat="40.5881383" lon="15.4241817"><ele>580.0</ele><time>2026-04-26T08:18:32.87Z</time></trkpt><trkpt lat="40.5881783" lon="15.4241033"><ele>580.0</ele><time>2026-04-26T08:18:34.87Z</time></trkpt><trkpt lat="40.5882117" lon="15.42403"><ele>580.0</ele><time>2026-04-26T08:18:37.87Z</time></trkpt><trkpt lat="40.5882267" lon="15.423935"><ele>580.0</ele><time>2026-04-26T08:20:12.871Z</time></trkpt><trkpt lat="40.58826" lon="15.4238383"><ele>580.0</ele><time>2026-04-26T08:20:14.871Z</time></trkpt><trkpt lat="40.5883033" lon="15.42374"><ele>579.8333333333334</ele><time>2026-04-26T08:20:17.871Z</time></trkpt><trkpt lat="40.5883567" lon="15.4236633"><ele>579.6666666666667</ele><time>2026-04-26T08:20:20.871Z</time></trkpt><trkpt lat="40.58841" lon="15.4235883"><ele>579.5</ele><time>2026-04-26T08:20:22.871Z</time></trkpt><trkpt lat="40.588485" lon="15.4235283"><ele>579.3333333333334</ele><time>2026-04-26T08:20:24.871Z</time></trkpt><trkpt lat="40.5885667" lon="15.4235017"><ele>579.1666666666666</ele><time>2026-04-26T08:20:26.871Z</time></trkpt><trkpt lat="40.5886367" lon="15.4234833"><ele>579.0</ele><time>2026-04-26T08:20:28.87Z</time></trkpt><trkpt lat="40.5887083" lon="15.42347"><ele>577.1666666666666</ele><time>2026-04-26T08:20:32.871Z</time></trkpt><trkpt lat="40.588775" lon="15.4234567"><ele>575.3333333333334</ele><time>2026-04-26T08:20:35.871Z</time></trkpt><trkpt lat="40.58886" lon="15.4234467"><ele>573.5</ele><time>2026-04-26T08:20:38.871Z</time></trkpt><trkpt lat="40.58895" lon="15.4234217"><ele>571.6666666666667</ele><time>2026-04-26T08:20:41.87Z</time></trkpt><trkpt lat="40.5890333" lon="15.423405"><ele>569.8333333333334</ele><time>2026-04-26T08:20:44.871Z</time></trkpt><trkpt lat="40.5891183" lon="15.4233967"><ele>568.0</ele><time>2026-04-26T08:20:47.87Z</time></trkpt><trkpt lat="40.5892" lon="15.4234167"><ele>568.0</ele><time>2026-04-26T08:20:50.87Z</time></trkpt><trkpt lat="40.5892783" lon="15.4234217"><ele>568.0</ele><time>2026-04-26T08:20:53.87Z</time></trkpt><trkpt lat="40.5893483" lon="15.42343"><ele>568.0</ele><time>2026-04-26T08:20:56.87Z</time></trkpt><trkpt lat="40.58942" lon="15.4234183"><ele>568.0</ele><time>2026-04-26T08:21:00.87Z</time></trkpt><trkpt lat="40.5894883" lon="15.4233967"><ele>568.0</ele><time>2026-04-26T08:21:02.869Z</time></trkpt><trkpt lat="40.5895667" lon="15.4233817"><ele>568.0</ele><time>2026-04-26T08:21:04.869Z</time></trkpt><trkpt lat="40.5896517" lon="15.423375"><ele>565.1666666666667</ele><time>2026-04-26T08:21:06.87Z</time></trkpt><trkpt lat="40.5897417" lon="15.4233633"><ele>562.3333333333334</ele><time>2026-04-26T08:21:08.869Z</time></trkpt><trkpt lat="40.5898217" lon="15.4233617"><ele>559.5</ele><time>2026-04-26T08:21:10.87Z</time></trkpt><trkpt lat="40.5898983" lon="15.4233667"><ele>556.6666666666666</ele><time>2026-04-26T08:21:12.869Z</time></trkpt><trkpt lat="40.5899783" lon="15.42338"><ele>553.8333333333333</ele><time>2026-04-26T08:21:14.87Z</time></trkpt><trkpt lat="40.5900683" lon="15.4233933"><ele>551.0</ele><time>2026-04-26T08:21:16.87Z</time></trkpt><trkpt lat="40.5901567" lon="15.423405"><ele>551.0</ele><time>2026-04-26T08:21:18.869Z</time></trkpt><trkpt lat="40.5902233" lon="15.423415"><ele>551.0</ele><time>2026-04-26T08:21:20.869Z</time></trkpt><trkpt lat="40.5901517" lon="15.42342"><ele>551.0</ele><time>2026-04-26T08:31:19.867Z</time></trkpt><trkpt lat="40.5900383" lon="15.4234183"><ele>551.0</ele><time>2026-04-26T08:31:21.868Z</time></trkpt><trkpt lat="40.5899133" lon="15.423415"><ele>551.0</ele><time>2026-04-26T08:31:23.868Z</time></trkpt><trkpt lat="40.5898383" lon="15.4234167"><ele>550.9999999999999</ele><time>2026-04-26T08:31:24.867Z</time></trkpt><trkpt lat="40.5897617" lon="15.4234133"><ele>551.0</ele><time>2026-04-26T08:31:25.867Z</time></trkpt><trkpt lat="40.5896883" lon="15.4234067"><ele>551.0</ele><time>2026-04-26T08:31:26.868Z</time></trkpt><trkpt lat="40.589615" lon="15.4234"><ele>551.0</ele><time>2026-04-26T08:31:27.868Z</time></trkpt><trkpt lat="40.5895417" lon="15.4234"><ele>551.0</ele><time>2026-04-26T08:31:28.868Z</time></trkpt><trkpt lat="40.58947" lon="15.4234067"><ele>550.9999999999999</ele><time>2026-04-26T08:31:29.868Z</time></trkpt><trkpt lat="40.5894" lon="15.4234167"><ele>551.0</ele><time>2026-04-26T08:31:30.868Z</time></trkpt><trkpt lat="40.58933" lon="15.4234267"><ele>553.4285714285713</ele><time>2026-04-26T08:31:31.867Z</time></trkpt><trkpt lat="40.5892617" lon="15.42343"><ele>555.8571428571429</ele><time>2026-04-26T08:31:32.868Z</time></trkpt><trkpt lat="40.5891917" lon="15.4234217"><ele>558.2857142857142</ele><time>2026-04-26T08:31:33.867Z</time></trkpt><trkpt lat="40.58912" lon="15.4234117"><ele>560.7142857142857</ele><time>2026-04-26T08:31:34.868Z</time></trkpt><trkpt lat="40.5890517" lon="15.4234117"><ele>563.1428571428571</ele><time>2026-04-26T08:31:35.868Z</time></trkpt><trkpt lat="40.58898" lon="15.423425"><ele>565.5714285714286</ele><time>2026-04-26T08:31:36.867Z</time></trkpt><trkpt lat="40.5888983" lon="15.4234417"><ele>568.0</ele><time>2026-04-26T08:31:37.867Z</time></trkpt><trkpt lat="40.5888133" lon="15.4234617"><ele>568.0</ele><time>2026-04-26T08:31:38.867Z</time></trkpt><trkpt lat="40.5887283" lon="15.4234817"><ele>568.0</ele><time>2026-04-26T08:31:39.868Z</time></trkpt><trkpt lat="40.5886383" lon="15.4234983"><ele>568.0</ele><time>2026-04-26T08:31:40.868Z</time></trkpt><trkpt lat="40.5885283" lon="15.423535"><ele>568.0</ele><time>2026-04-26T08:31:41.867Z</time></trkpt><trkpt lat="40.5884383" lon="15.42358"><ele>568.0</ele><time>2026-04-26T08:31:42.867Z</time></trkpt><trkpt lat="40.5883683" lon="15.423635"><ele>569.8333333333334</ele><time>2026-04-26T08:31:43.867Z</time></trkpt><trkpt lat="40.5883117" lon="15.4237033"><ele>571.6666666666667</ele><time>2026-04-26T08:31:44.868Z</time></trkpt><trkpt lat="40.5882617" lon="15.4237883"><ele>573.5</ele><time>2026-04-26T08:31:45.868Z</time></trkpt><trkpt lat="40.588235" lon="15.4238867"><ele>575.3333333333334</ele><time>2026-04-26T08:31:46.867Z</time></trkpt><trkpt lat="40.588215" lon="15.4239683"><ele>577.1666666666666</ele><time>2026-04-26T08:31:47.868Z</time></trkpt><trkpt lat="40.5881733" lon="15.4241067"><ele>579.0</ele><time>2026-04-26T08:31:49.867Z</time></trkpt><trkpt lat="40.5881383" lon="15.424185"><ele>579.1666666666666</ele><time>2026-04-26T08:31:50.868Z</time></trkpt><trkpt lat="40.588105" lon="15.4242667"><ele>579.3333333333334</ele><time>2026-04-26T08:31:51.867Z</time></trkpt><trkpt lat="40.5880733" lon="15.4243417"><ele>579.5</ele><time>2026-04-26T08:31:52.868Z</time></trkpt><trkpt lat="40.5880333" lon="15.424415"><ele>579.6666666666667</ele><time>2026-04-26T08:31:53.868Z</time></trkpt><trkpt lat="40.5879717" lon="15.4245533"><ele>579.8333333333334</ele><time>2026-04-26T08:31:55.868Z</time></trkpt><trkpt lat="40.5879317" lon="15.4246817"><ele>580.0</ele><time>2026-04-26T08:31:57.868Z</time></trkpt><trkpt lat="40.5879083" lon="15.42478"><ele>580.0</ele><time>2026-04-26T08:31:59.868Z</time></trkpt><trkpt lat="40.5879383" lon="15.4246817"><ele>580.0</ele><time>2026-04-26T08:38:20.866Z</time></trkpt><trkpt lat="40.5879783" lon="15.4245817"><ele>580.0</ele><time>2026-04-26T08:38:22.866Z</time></trkpt><trkpt lat="40.5880233" lon="15.4244617"><ele>580.0</ele><time>2026-04-26T08:38:24.866Z</time></trkpt><trkpt lat="40.5880733" lon="15.4243533"><ele>580.0</ele><time>2026-04-26T08:38:26.867Z</time></trkpt><trkpt lat="40.5881133" lon="15.42427"><ele>580.0</ele><time>2026-04-26T08:38:28.867Z</time></trkpt><trkpt lat="40.5881533" lon="15.4241817"><ele>580.0</ele><time>2026-04-26T08:38:30.866Z</time></trkpt><trkpt lat="40.5881967" lon="15.424095"><ele>580.0</ele><time>2026-04-26T08:38:32.867Z</time></trkpt><trkpt lat="40.5882283" lon="15.4240133"><ele>580.0</ele><time>2026-04-26T08:38:34.866Z</time></trkpt><trkpt lat="40.5882533" lon="15.4239133"><ele>580.0</ele><time>2026-04-26T08:38:37.866Z</time></trkpt><trkpt lat="40.58828" lon="15.423825"><ele>580.0</ele><time>2026-04-26T08:38:40.866Z</time></trkpt><trkpt lat="40.58832" lon="15.4237317"><ele>580.0</ele><time>2026-04-26T08:38:43.867Z</time></trkpt><trkpt lat="40.5883667" lon="15.4236583"><ele>579.8</ele><time>2026-04-26T08:38:45.866Z</time></trkpt><trkpt lat="40.5884417" lon="15.4235817"><ele>579.6</ele><time>2026-04-26T08:38:47.866Z</time></trkpt><trkpt lat="40.5885383" lon="15.4235333"><ele>579.4</ele><time>2026-04-26T08:38:49.867Z</time></trkpt><trkpt lat="40.5886317" lon="15.4235133"><ele>579.2</ele><time>2026-04-26T08:38:51.867Z</time></trkpt><trkpt lat="40.5887117" lon="15.42349"><ele>579.0</ele><time>2026-04-26T08:38:53.867Z</time></trkpt><trkpt lat="40.588805" lon="15.4234667"><ele>577.1666666666666</ele><time>2026-04-26T08:38:55.866Z</time></trkpt><trkpt lat="40.58888" lon="15.4234533"><ele>575.3333333333334</ele><time>2026-04-26T08:38:57.866Z</time></trkpt><trkpt lat="40.5889767" lon="15.423455"><ele>573.5</ele><time>2026-04-26T08:39:00.867Z</time></trkpt><trkpt lat="40.5890567" lon="15.4234383"><ele>571.6666666666667</ele><time>2026-04-26T08:39:02.867Z</time></trkpt><trkpt lat="40.58913" lon="15.42343"><ele>569.8333333333334</ele><time>2026-04-26T08:39:04.867Z</time></trkpt><trkpt lat="40.5892217" lon="15.4234317"><ele>568.0</ele><time>2026-04-26T08:39:06.866Z</time></trkpt><trkpt lat="40.5893067" lon="15.42344"><ele>568.0</ele><time>2026-04-26T08:39:08.866Z</time></trkpt><trkpt lat="40.5894033" lon="15.42343"><ele>568.0</ele><time>2026-04-26T08:39:10.866Z</time></trkpt><trkpt lat="40.589515" lon="15.4234033"><ele>568.0</ele><time>2026-04-26T08:39:12.867Z</time></trkpt><trkpt lat="40.5896333" lon="15.42339"><ele>568.0</ele><time>2026-04-26T08:39:14.867Z</time></trkpt><trkpt lat="40.5896967" lon="15.4233917"><ele>568.0</ele><time>2026-04-26T08:39:15.867Z</time></trkpt><trkpt lat="40.5897667" lon="15.42339"><ele>565.1666666666667</ele><time>2026-04-26T08:39:16.866Z</time></trkpt><trkpt lat="40.5898367" lon="15.423395"><ele>562.3333333333334</ele><time>2026-04-26T08:39:17.867Z</time></trkpt><trkpt lat="40.589905" lon="15.4234"><ele>559.5</ele><time>2026-04-26T08:39:18.867Z</time></trkpt><trkpt lat="40.5899733" lon="15.423415"><ele>556.6666666666666</ele><time>2026-04-26T08:39:19.866Z</time></trkpt><trkpt lat="40.5900367" lon="15.423425"><ele>553.8333333333333</ele><time>2026-04-26T08:39:20.866Z</time></trkpt><trkpt lat="40.590155" lon="15.42344"><ele>551.0</ele><time>2026-04-26T08:39:22.867Z</time></trkpt><trkpt lat="40.5902583" lon="15.423455"><ele>551.0</ele><time>2026-04-26T08:39:24.866Z</time></trkpt><trkpt lat="40.5903267" lon="15.4234633"><ele>551.0</ele><time>2026-04-26T08:48:09.866Z</time></trkpt><trkpt lat="40.59026" lon="15.4235333"><ele>551.0</ele><time>2026-04-26T08:48:13.864Z</time></trkpt><trkpt lat="40.5901767" lon="15.4234933"><ele>551.0</ele><time>2026-04-26T08:48:15.864Z</time></trkpt><trkpt lat="40.5900733" lon="15.4234567"><ele>551.0</ele><time>2026-04-26T08:48:17.865Z</time></trkpt><trkpt lat="40.5899817" lon="15.42343"><ele>551.0</ele><time>2026-04-26T08:48:19.864Z</time></trkpt><trkpt lat="40.5898933" lon="15.42341"><ele>551.0</ele><time>2026-04-26T08:48:21.864Z</time></trkpt><trkpt lat="40.589785" lon="15.4233933"><ele>551.0</ele><time>2026-04-26T08:48:23.864Z</time></trkpt><trkpt lat="40.5896933" lon="15.4234067"><ele>551.0</ele><time>2026-04-26T08:49:21.864Z</time></trkpt><trkpt lat="40.5896167" lon="15.4234483"><ele>551.0</ele><time>2026-04-26T08:49:24.864Z</time></trkpt><trkpt lat="40.58954" lon="15.4234583"><ele>551.0</ele><time>2026-04-26T08:49:27.865Z</time></trkpt><trkpt lat="40.58946" lon="15.4234717"><ele>551.0</ele><time>2026-04-26T08:49:30.864Z</time></trkpt><trkpt lat="40.5893617" lon="15.42345"><ele>553.8333333333333</ele><time>2026-04-26T08:49:36.865Z</time></trkpt><trkpt lat="40.5892767" lon="15.4234333"><ele>556.6666666666666</ele><time>2026-04-26T08:49:38.864Z</time></trkpt><trkpt lat="40.58919" lon="15.4234133"><ele>559.5</ele><time>2026-04-26T08:49:40.865Z</time></trkpt><trkpt lat="40.5890883" lon="15.4234033"><ele>562.3333333333334</ele><time>2026-04-26T08:49:42.865Z</time></trkpt><trkpt lat="40.589025" lon="15.4234117"><ele>565.1666666666667</ele><time>2026-04-26T08:49:43.864Z</time></trkpt><trkpt lat="40.5889583" lon="15.4234183"><ele>568.0</ele><time>2026-04-26T08:49:44.865Z</time></trkpt><trkpt lat="40.5888917" lon="15.4234333"><ele>568.0</ele><time>2026-04-26T08:49:45.865Z</time></trkpt><trkpt lat="40.5888217" lon="15.4234483"><ele>568.0</ele><time>2026-04-26T08:49:46.865Z</time></trkpt><trkpt lat="40.5887467" lon="15.4234583"><ele>568.0</ele><time>2026-04-26T08:49:47.865Z</time></trkpt><trkpt lat="40.58867" lon="15.42348"><ele>568.0</ele><time>2026-04-26T08:49:48.864Z</time></trkpt><trkpt lat="40.58859" lon="15.423515"><ele>568.0</ele><time>2026-04-26T08:49:49.864Z</time></trkpt><trkpt lat="40.5885117" lon="15.42355"><ele>568.0</ele><time>2026-04-26T08:49:50.865Z</time></trkpt><trkpt lat="40.588445" lon="15.423595"><ele>569.8333333333334</ele><time>2026-04-26T08:49:51.865Z</time></trkpt><trkpt lat="40.5883833" lon="15.4236617"><ele>571.6666666666667</ele><time>2026-04-26T08:49:52.864Z</time></trkpt><trkpt lat="40.588335" lon="15.4237367"><ele>573.5</ele><time>2026-04-26T08:49:53.865Z</time></trkpt><trkpt lat="40.5882933" lon="15.4238183"><ele>575.3333333333334</ele><time>2026-04-26T08:49:54.864Z</time></trkpt><trkpt lat="40.5882617" lon="15.4238983"><ele>577.1666666666666</ele><time>2026-04-26T08:49:55.864Z</time></trkpt><trkpt lat="40.58822" lon="15.4240533"><ele>579.0</ele><time>2026-04-26T08:49:57.864Z</time></trkpt><trkpt lat="40.5881833" lon="15.4241333"><ele>579.2</ele><time>2026-04-26T08:49:58.864Z</time></trkpt><trkpt lat="40.5881533" lon="15.4242067"><ele>579.4</ele><time>2026-04-26T08:49:59.865Z</time></trkpt><trkpt lat="40.58811" lon="15.4243267"><ele>579.6</ele><time>2026-04-26T08:50:01.864Z</time></trkpt><trkpt lat="40.58806" lon="15.42444"><ele>579.8</ele><time>2026-04-26T08:50:03.864Z</time></trkpt><trkpt lat="40.588" lon="15.424575"><ele>580.0</ele><time>2026-04-26T08:50:05.864Z</time></trkpt><trkpt lat="40.58795" lon="15.424705"><ele>580.1666666666667</ele><time>2026-04-26T08:50:07.865Z</time></trkpt><trkpt lat="40.5879067" lon="15.4248233"><ele>580.3333333333334</ele><time>2026-04-26T08:50:09.864Z</time></trkpt><trkpt lat="40.5878767" lon="15.4249317"><ele>580.5</ele><time>2026-04-26T08:50:11.865Z</time></trkpt><trkpt lat="40.5878567" lon="15.425015"><ele>580.6666666666666</ele><time>2026-04-26T08:50:21.864Z</time></trkpt><trkpt lat="40.5878017" lon="15.4251433"><ele>580.8333333333333</ele><time>2026-04-26T08:50:24.865Z</time></trkpt><trkpt lat="40.5877717" lon="15.42523"><ele>581.0</ele><time>2026-04-26T08:50:25.864Z</time></trkpt><trkpt lat="40.587745" lon="15.4253217"><ele>580.2857142857143</ele><time>2026-04-26T08:50:26.865Z</time></trkpt><trkpt lat="40.5877233" lon="15.4254167"><ele>579.5714285714286</ele><time>2026-04-26T08:50:27.865Z</time></trkpt><trkpt lat="40.5877133" lon="15.42551"><ele>578.8571428571429</ele><time>2026-04-26T08:50:28.864Z</time></trkpt><trkpt lat="40.5877117" lon="15.425595"><ele>578.1428571428571</ele><time>2026-04-26T08:50:29.865Z</time></trkpt><trkpt lat="40.5877233" lon="15.4256767"><ele>577.4285714285714</ele><time>2026-04-26T08:50:30.865Z</time></trkpt><trkpt lat="40.5877383" lon="15.4257633"><ele>576.7142857142858</ele><time>2026-04-26T08:50:31.864Z</time></trkpt><trkpt lat="40.5877483" lon="15.42585"><ele>576.0</ele><time>2026-04-26T08:50:32.864Z</time></trkpt><trkpt lat="40.5877583" lon="15.4259467"><ele>577.8333333333334</ele><time>2026-04-26T08:50:33.864Z</time></trkpt><trkpt lat="40.5877683" lon="15.4260483"><ele>579.6666666666666</ele><time>2026-04-26T08:50:34.865Z</time></trkpt><trkpt lat="40.5877717" lon="15.42616"><ele>581.5</ele><time>2026-04-26T08:50:35.864Z</time></trkpt><trkpt lat="40.58777" lon="15.4262767"><ele>583.3333333333333</ele><time>2026-04-26T08:50:36.864Z</time></trkpt><trkpt lat="40.5877567" lon="15.4264"><ele>585.1666666666666</ele><time>2026-04-26T08:50:37.864Z</time></trkpt><trkpt lat="40.5877433" lon="15.4265033"><ele>587.0</ele><time>2026-04-26T08:50:38.864Z</time></trkpt><trkpt lat="40.5877417" lon="15.4265917"><ele>588.0</ele><time>2026-04-26T08:50:39.864Z</time></trkpt><trkpt lat="40.5877583" lon="15.4267583"><ele>589.0</ele><time>2026-04-26T08:50:41.865Z</time></trkpt><trkpt lat="40.5877833" lon="15.42686"><ele>590.0</ele><time>2026-04-26T08:50:42.864Z</time></trkpt><trkpt lat="40.5878167" lon="15.426975"><ele>591.0</ele><time>2026-04-26T08:50:43.864Z</time></trkpt><trkpt lat="40.58786" lon="15.4270967"><ele>592.0</ele><time>2026-04-26T08:50:44.865Z</time></trkpt><trkpt lat="40.58792" lon="15.4272333"><ele>599.2</ele><time>2026-04-26T08:50:45.864Z</time></trkpt><trkpt lat="40.5879767" lon="15.427385"><ele>606.4000000000001</ele><time>2026-04-26T08:50:46.865Z</time></trkpt><trkpt lat="40.5880267" lon="15.427515"><ele>613.5999999999999</ele><time>2026-04-26T08:50:47.865Z</time></trkpt><trkpt lat="40.58806" lon="15.427625"><ele>620.8</ele><time>2026-04-26T08:50:48.864Z</time></trkpt><trkpt lat="40.58808" lon="15.4277167"><ele>628.0</ele><time>2026-04-26T08:50:49.865Z</time></trkpt><trkpt lat="40.5881133" lon="15.4278667"><ele>628.0</ele><time>2026-04-26T08:50:51.865Z</time></trkpt><trkpt lat="40.5881233" lon="15.42795"><ele>628.0</ele><time>2026-04-26T08:50:52.864Z</time></trkpt><trkpt lat="40.5881433" lon="15.4280883"><ele>628.0</ele><time>2026-04-26T08:50:54.865Z</time></trkpt><trkpt lat="40.588125" lon="15.4282"><ele>628.0</ele><time>2026-04-26T08:50:56.864Z</time></trkpt><trkpt lat="40.5881017" lon="15.4283467"><ele>628.0</ele><time>2026-04-26T08:50:58.865Z</time></trkpt><trkpt lat="40.588055" lon="15.4284933"><ele>630.1666666666667</ele><time>2026-04-26T08:51:00.864Z</time></trkpt><trkpt lat="40.5879767" lon="15.42858"><ele>632.3333333333334</ele><time>2026-04-26T08:51:02.864Z</time></trkpt><trkpt lat="40.58792" lon="15.4286317"><ele>634.5</ele><time>2026-04-26T08:51:04.864Z</time></trkpt><trkpt lat="40.58799" lon="15.42869"><ele>636.6666666666666</ele><time>2026-04-26T08:51:14.865Z</time></trkpt><trkpt lat="40.5880767" lon="15.4286683"><ele>638.8333333333333</ele><time>2026-04-26T08:51:27.865Z</time></trkpt><trkpt lat="40.5881533" lon="15.428615"><ele>641.0</ele><time>2026-04-26T08:51:30.865Z</time></trkpt><trkpt lat="40.5882183" lon="15.4285317"><ele>641.0</ele><time>2026-04-26T08:51:32.864Z</time></trkpt><trkpt lat="40.588265" lon="15.42847"><ele>641.0</ele><time>2026-04-26T08:51:33.864Z</time></trkpt><trkpt lat="40.58831" lon="15.4283917"><ele>641.0</ele><time>2026-04-26T08:51:34.864Z</time></trkpt><trkpt lat="40.5883483" lon="15.428305"><ele>641.0</ele><time>2026-04-26T08:51:35.864Z</time></trkpt><trkpt lat="40.5883883" lon="15.4282067"><ele>641.0</ele><time>2026-04-26T08:51:36.864Z</time></trkpt><trkpt lat="40.5884167" lon="15.4281033"><ele>641.0</ele><time>2026-04-26T08:51:37.864Z</time></trkpt><trkpt lat="40.5884333" lon="15.4280017"><ele>640.6666666666666</ele><time>2026-04-26T08:51:38.864Z</time></trkpt><trkpt lat="40.5884483" lon="15.4278933"><ele>640.3333333333333</ele><time>2026-04-26T08:51:39.865Z</time></trkpt><trkpt lat="40.58847" lon="15.4278033"><ele>640.0</ele><time>2026-04-26T08:51:40.865Z</time></trkpt><trkpt lat="40.5884933" lon="15.4277117"><ele>639.6666666666666</ele><time>2026-04-26T08:51:41.864Z</time></trkpt><trkpt lat="40.5885483" lon="15.4275817"><ele>639.3333333333334</ele><time>2026-04-26T08:51:43.865Z</time></trkpt><trkpt lat="40.5886183" lon="15.4274783"><ele>639.0</ele><time>2026-04-26T08:51:45.864Z</time></trkpt><trkpt lat="40.5887083" lon="15.4274183"><ele>639.0</ele><time>2026-04-26T08:51:47.865Z</time></trkpt><trkpt lat="40.58882" lon="15.4274233"><ele>639.0</ele><time>2026-04-26T08:51:49.865Z</time></trkpt><trkpt lat="40.5889117" lon="15.4274667"><ele>639.0</ele><time>2026-04-26T08:51:51.865Z</time></trkpt><trkpt lat="40.588955" lon="15.4275783"><ele>639.0</ele><time>2026-04-26T08:51:53.865Z</time></trkpt><trkpt lat="40.588945" lon="15.427725"><ele>639.0</ele><time>2026-04-26T08:51:55.864Z</time></trkpt><trkpt lat="40.58893" lon="15.42789"><ele>641.1666666666666</ele><time>2026-04-26T08:51:57.864Z</time></trkpt><trkpt lat="40.588915" lon="15.4279783"><ele>643.3333333333334</ele><time>2026-04-26T08:51:58.864Z</time></trkpt><trkpt lat="40.5888933" lon="15.4280667"><ele>645.5</ele><time>2026-04-26T08:51:59.864Z</time></trkpt><trkpt lat="40.588875" lon="15.42815"><ele>647.6666666666667</ele><time>2026-04-26T08:52:00.864Z</time></trkpt><trkpt lat="40.5888583" lon="15.4282983"><ele>649.8333333333334</ele><time>2026-04-26T08:52:02.865Z</time></trkpt><trkpt lat="40.5888467" lon="15.4284167"><ele>652.0</ele><time>2026-04-26T08:52:04.864Z</time></trkpt><trkpt lat="40.5888333" lon="15.4285417"><ele>652.0</ele><time>2026-04-26T08:52:06.865Z</time></trkpt><trkpt lat="40.58881" lon="15.4286867"><ele>652.0</ele><time>2026-04-26T08:52:08.865Z</time></trkpt><trkpt lat="40.588795" lon="15.42877"><ele>652.0</ele><time>2026-04-26T08:52:09.864Z</time></trkpt><trkpt lat="40.5887683" lon="15.4289333"><ele>652.0</ele><time>2026-04-26T08:52:11.865Z</time></trkpt><trkpt lat="40.5887517" lon="15.42903"><ele>652.0</ele><time>2026-04-26T08:52:12.864Z</time></trkpt><trkpt lat="40.5887317" lon="15.42913"><ele>652.8333333333334</ele><time>2026-04-26T08:52:13.865Z</time></trkpt><trkpt lat="40.588705" lon="15.4292433"><ele>653.6666666666667</ele><time>2026-04-26T08:52:14.865Z</time></trkpt><trkpt lat="40.5886833" lon="15.4293583"><ele>654.5</ele><time>2026-04-26T08:52:15.865Z</time></trkpt><trkpt lat="40.58866" lon="15.42948"><ele>655.3333333333334</ele><time>2026-04-26T08:52:16.864Z</time></trkpt><trkpt lat="40.58864" lon="15.429595"><ele>656.1666666666666</ele><time>2026-04-26T08:52:17.864Z</time></trkpt><trkpt lat="40.588615" lon="15.429695"><ele>657.0</ele><time>2026-04-26T08:52:18.865Z</time></trkpt><trkpt lat="40.5885933" lon="15.4297817"><ele>659.8</ele><time>2026-04-26T08:52:19.865Z</time></trkpt><trkpt lat="40.58857" lon="15.429905"><ele>662.6</ele><time>2026-04-26T08:52:21.864Z</time></trkpt><trkpt lat="40.5885417" lon="15.43005"><ele>665.4</ele><time>2026-04-26T08:52:58.865Z</time></trkpt><trkpt lat="40.5885183" lon="15.4302033"><ele>668.1999999999999</ele><time>2026-04-26T08:53:00.864Z</time></trkpt><trkpt lat="40.5885067" lon="15.4302983"><ele>671.0</ele><time>2026-04-26T08:53:01.865Z</time></trkpt><trkpt lat="40.58849" lon="15.430395"><ele>673.0</ele><time>2026-04-26T08:53:02.864Z</time></trkpt><trkpt lat="40.5884733" lon="15.4304833"><ele>675.0</ele><time>2026-04-26T08:53:03.864Z</time></trkpt><trkpt lat="40.5884483" lon="15.4305617"><ele>677.0</ele><time>2026-04-26T08:53:04.865Z</time></trkpt><trkpt lat="40.5884017" lon="15.4306533"><ele>679.0</ele><time>2026-04-26T08:53:06.865Z</time></trkpt><trkpt lat="40.5883933" lon="15.4307417"><ele>681.0</ele><time>2026-04-26T08:53:09.864Z</time></trkpt><trkpt lat="40.58847" lon="15.43074"><ele>683.0</ele><time>2026-04-26T08:53:12.864Z</time></trkpt><trkpt lat="40.58855" lon="15.430695"><ele>685.0</ele><time>2026-04-26T08:53:14.865Z</time></trkpt><trkpt lat="40.5886517" lon="15.4306617"><ele>685.0</ele><time>2026-04-26T08:53:16.865Z</time></trkpt><trkpt lat="40.588755" lon="15.4306283"><ele>685.0</ele><time>2026-04-26T08:53:18.865Z</time></trkpt><trkpt lat="40.5888583" lon="15.4306433"><ele>685.0</ele><time>2026-04-26T08:53:20.864Z</time></trkpt><trkpt lat="40.5889217" lon="15.4307167"><ele>685.0</ele><time>2026-04-26T08:53:22.865Z</time></trkpt><trkpt lat="40.5889633" lon="15.4308467"><ele>685.0</ele><time>2026-04-26T08:53:24.865Z</time></trkpt><trkpt lat="40.58899" lon="15.4310217"><ele>685.0</ele><time>2026-04-26T08:53:26.864Z</time></trkpt><trkpt lat="40.5890017" lon="15.4311267"><ele>685.0</ele><time>2026-04-26T08:53:27.864Z</time></trkpt><trkpt lat="40.5890183" lon="15.431225"><ele>685.0</ele><time>2026-04-26T08:53:28.865Z</time></trkpt><trkpt lat="40.58904" lon="15.4313067"><ele>685.0</ele><time>2026-04-26T08:53:29.864Z</time></trkpt><trkpt lat="40.589075" lon="15.4314017"><ele>685.0</ele><time>2026-04-26T08:53:30.865Z</time></trkpt><trkpt lat="40.589115" lon="15.4315133"><ele>685.0</ele><time>2026-04-26T08:53:31.864Z</time></trkpt><trkpt lat="40.5891567" lon="15.4316433"><ele>687.8</ele><time>2026-04-26T08:53:32.865Z</time></trkpt><trkpt lat="40.5891933" lon="15.4317733"><ele>690.6</ele><time>2026-04-26T08:53:33.865Z</time></trkpt><trkpt lat="40.5892217" lon="15.4318867"><ele>693.4000000000001</ele><time>2026-04-26T08:53:34.864Z</time></trkpt><trkpt lat="40.5892433" lon="15.4319967"><ele>696.2</ele><time>2026-04-26T08:53:35.865Z</time></trkpt><trkpt lat="40.5892567" lon="15.4321033"><ele>699.0</ele><time>2026-04-26T08:53:36.864Z</time></trkpt><trkpt lat="40.5892633" lon="15.4322167"><ele>702.0</ele><time>2026-04-26T08:53:37.865Z</time></trkpt><trkpt lat="40.5892583" lon="15.4323333"><ele>705.0</ele><time>2026-04-26T08:53:38.865Z</time></trkpt><trkpt lat="40.5892483" lon="15.432475"><ele>708.0</ele><time>2026-04-26T08:53:39.865Z</time></trkpt><trkpt lat="40.5892383" lon="15.432635"><ele>711.0</ele><time>2026-04-26T08:53:40.864Z</time></trkpt><trkpt lat="40.5892433" lon="15.4328067"><ele>714.0</ele><time>2026-04-26T08:53:41.865Z</time></trkpt><trkpt lat="40.5892617" lon="15.432995"><ele>716.2</ele><time>2026-04-26T08:53:42.865Z</time></trkpt><trkpt lat="40.5892867" lon="15.433165"><ele>718.4000000000001</ele><time>2026-04-26T08:53:43.864Z</time></trkpt><trkpt lat="40.5893117" lon="15.4333233"><ele>720.6</ele><time>2026-04-26T08:53:44.865Z</time></trkpt><trkpt lat="40.5893367" lon="15.433455"><ele>722.8</ele><time>2026-04-26T08:53:45.865Z</time></trkpt><trkpt lat="40.5893567" lon="15.4335533"><ele>725.0</ele><time>2026-04-26T08:53:46.864Z</time></trkpt><trkpt lat="40.5893767" lon="15.4336433"><ele>725.0</ele><time>2026-04-26T08:53:47.865Z</time></trkpt><trkpt lat="40.5893917" lon="15.4337267"><ele>725.0</ele><time>2026-04-26T08:53:48.865Z</time></trkpt><trkpt lat="40.5894133" lon="15.433805"><ele>725.0</ele><time>2026-04-26T08:53:49.865Z</time></trkpt><trkpt lat="40.5894333" lon="15.433885"><ele>725.0</ele><time>2026-04-26T08:53:50.864Z</time></trkpt><trkpt lat="40.589455" lon="15.433965"><ele>725.0</ele><time>2026-04-26T08:53:51.865Z</time></trkpt><trkpt lat="40.5894833" lon="15.4340433"><ele>725.0</ele><time>2026-04-26T08:53:52.865Z</time></trkpt><trkpt lat="40.58951" lon="15.4341217"><ele>725.0</ele><time>2026-04-26T08:53:53.864Z</time></trkpt><trkpt lat="40.5895417" lon="15.4342017"><ele>724.0</ele><time>2026-04-26T08:53:54.863Z</time></trkpt><trkpt lat="40.58958" lon="15.4342933"><ele>723.0</ele><time>2026-04-26T08:53:55.863Z</time></trkpt><trkpt lat="40.5896267" lon="15.4343967"><ele>722.0</ele><time>2026-04-26T08:53:56.864Z</time></trkpt><trkpt lat="40.5896683" lon="15.4345183"><ele>721.0</ele><time>2026-04-26T08:53:57.863Z</time></trkpt><trkpt lat="40.5897067" lon="15.4346533"><ele>720.0</ele><time>2026-04-26T08:53:58.864Z</time></trkpt><trkpt lat="40.58976" lon="15.4348033"><ele>720.0</ele><time>2026-04-26T08:53:59.863Z</time></trkpt><trkpt lat="40.5898117" lon="15.43494"><ele>720.0</ele><time>2026-04-26T08:54:00.864Z</time></trkpt><trkpt lat="40.5898683" lon="15.4350533"><ele>720.0</ele><time>2026-04-26T08:54:01.864Z</time></trkpt><trkpt lat="40.58992" lon="15.4351533"><ele>720.0</ele><time>2026-04-26T08:54:02.863Z</time></trkpt><trkpt lat="40.5899633" lon="15.435265"><ele>720.0</ele><time>2026-04-26T08:54:03.864Z</time></trkpt><trkpt lat="40.5899983" lon="15.435385"><ele>724.25</ele><time>2026-04-26T08:54:04.863Z</time></trkpt><trkpt lat="40.5900267" lon="15.4355133"><ele>728.5</ele><time>2026-04-26T08:54:05.864Z</time></trkpt><trkpt lat="40.5900583" lon="15.4356717"><ele>732.75</ele><time>2026-04-26T08:54:06.863Z</time></trkpt><trkpt lat="40.5900867" lon="15.4358317"><ele>737.0</ele><time>2026-04-26T08:54:07.863Z</time></trkpt><trkpt lat="40.5901133" lon="15.4359783"><ele>737.0</ele><time>2026-04-26T08:54:08.863Z</time></trkpt><trkpt lat="40.590135" lon="15.43609"><ele>737.0</ele><time>2026-04-26T08:54:09.863Z</time></trkpt><trkpt lat="40.59015" lon="15.4361883"><ele>737.0</ele><time>2026-04-26T08:54:10.863Z</time></trkpt><trkpt lat="40.590155" lon="15.4362817"><ele>737.0</ele><time>2026-04-26T08:54:11.864Z</time></trkpt><trkpt lat="40.5901483" lon="15.43637"><ele>737.0</ele><time>2026-04-26T08:54:12.863Z</time></trkpt><trkpt lat="40.59012" lon="15.436505"><ele>737.0</ele><time>2026-04-26T08:54:14.863Z</time></trkpt><trkpt lat="40.5901033" lon="15.436605"><ele>737.2</ele><time>2026-04-26T08:54:19.864Z</time></trkpt><trkpt lat="40.59008" lon="15.436725"><ele>737.4000000000001</ele><time>2026-04-26T08:54:21.863Z</time></trkpt><trkpt lat="40.5900483" lon="15.43682"><ele>737.5999999999999</ele><time>2026-04-26T08:54:22.863Z</time></trkpt><trkpt lat="40.5900233" lon="15.436925"><ele>737.8</ele><time>2026-04-26T08:54:23.864Z</time></trkpt><trkpt lat="40.589995" lon="15.4370483"><ele>738.0</ele><time>2026-04-26T08:54:24.863Z</time></trkpt><trkpt lat="40.5899617" lon="15.437175"><ele>738.0</ele><time>2026-04-26T08:54:25.864Z</time></trkpt><trkpt lat="40.589925" lon="15.4372917"><ele>738.0</ele><time>2026-04-26T08:54:26.864Z</time></trkpt><trkpt lat="40.58989" lon="15.43741"><ele>738.0</ele><time>2026-04-26T08:54:27.863Z</time></trkpt><trkpt lat="40.5898483" lon="15.4375233"><ele>738.0</ele><time>2026-04-26T08:54:28.863Z</time></trkpt><trkpt lat="40.5898033" lon="15.4376433"><ele>738.0</ele><time>2026-04-26T08:54:29.864Z</time></trkpt><trkpt lat="40.5897567" lon="15.437775"><ele>738.0</ele><time>2026-04-26T08:54:30.863Z</time></trkpt><trkpt lat="40.5897117" lon="15.437905"><ele>738.0</ele><time>2026-04-26T08:54:31.863Z</time></trkpt><trkpt lat="40.589675" lon="15.4380267"><ele>738.0</ele><time>2026-04-26T08:54:32.863Z</time></trkpt><trkpt lat="40.58964" lon="15.4381467"><ele>738.0</ele><time>2026-04-26T08:54:33.863Z</time></trkpt><trkpt lat="40.5896117" lon="15.43826"><ele>738.0</ele><time>2026-04-26T08:54:34.864Z</time></trkpt><trkpt lat="40.589575" lon="15.4383683"><ele>736.4</ele><time>2026-04-26T08:54:35.863Z</time></trkpt><trkpt lat="40.589525" lon="15.43847"><ele>734.8</ele><time>2026-04-26T08:54:36.864Z</time></trkpt><trkpt lat="40.5894533" lon="15.4385967"><ele>733.2</ele><time>2026-04-26T08:54:37.863Z</time></trkpt><trkpt lat="40.5893833" lon="15.4387183"><ele>731.6</ele><time>2026-04-26T08:54:38.863Z</time></trkpt><trkpt lat="40.5893283" lon="15.4388233"><ele>730.0</ele><time>2026-04-26T08:54:39.863Z</time></trkpt><trkpt lat="40.5892933" lon="15.438935"><ele>737.8</ele><time>2026-04-26T08:54:40.864Z</time></trkpt><trkpt lat="40.5892633" lon="15.4390617"><ele>745.6</ele><time>2026-04-26T08:54:41.863Z</time></trkpt><trkpt lat="40.589265" lon="15.4392083"><ele>753.4000000000001</ele><time>2026-04-26T08:54:42.863Z</time></trkpt><trkpt lat="40.589275" lon="15.4393617"><ele>761.2</ele><time>2026-04-26T08:54:43.864Z</time></trkpt><trkpt lat="40.5892917" lon="15.4394833"><ele>769.0</ele><time>2026-04-26T08:54:44.864Z</time></trkpt><trkpt lat="40.589295" lon="15.4395767"><ele>766.2</ele><time>2026-04-26T08:54:45.864Z</time></trkpt><trkpt lat="40.589285" lon="15.4396617"><ele>763.4000000000001</ele><time>2026-04-26T08:54:46.864Z</time></trkpt><trkpt lat="40.5892083" lon="15.439815"><ele>760.6</ele><time>2026-04-26T08:54:48.864Z</time></trkpt><trkpt lat="40.589145" lon="15.4398917"><ele>757.8</ele><time>2026-04-26T08:54:49.864Z</time></trkpt><trkpt lat="40.5890733" lon="15.4399667"><ele>755.0</ele><time>2026-04-26T08:54:50.863Z</time></trkpt><trkpt lat="40.5889983" lon="15.4400467"><ele>755.0</ele><time>2026-04-26T08:54:51.864Z</time></trkpt><trkpt lat="40.5889333" lon="15.4401217"><ele>755.0</ele><time>2026-04-26T08:54:52.863Z</time></trkpt><trkpt lat="40.58888" lon="15.4401917"><ele>755.0</ele><time>2026-04-26T08:54:53.864Z</time></trkpt><trkpt lat="40.5888" lon="15.44029"><ele>755.0</ele><time>2026-04-26T08:54:55.863Z</time></trkpt><trkpt lat="40.588715" lon="15.4403733"><ele>755.0</ele><time>2026-04-26T08:54:57.864Z</time></trkpt><trkpt lat="40.58861" lon="15.4404883"><ele>760.1428571428571</ele><time>2026-04-26T08:54:59.864Z</time></trkpt><trkpt lat="40.5885517" lon="15.4405533"><ele>765.2857142857143</ele><time>2026-04-26T08:55:00.864Z</time></trkpt><trkpt lat="40.588495" lon="15.44062"><ele>770.4285714285714</ele><time>2026-04-26T08:55:01.863Z</time></trkpt><trkpt lat="40.5884433" lon="15.4406917"><ele>775.5714285714286</ele><time>2026-04-26T08:55:02.863Z</time></trkpt><trkpt lat="40.5883933" lon="15.4407483"><ele>780.7142857142858</ele><time>2026-04-26T08:55:03.863Z</time></trkpt><trkpt lat="40.5883417" lon="15.4408117"><ele>785.8571428571429</ele><time>2026-04-26T08:55:04.863Z</time></trkpt><trkpt lat="40.588285" lon="15.44088"><ele>791.0</ele><time>2026-04-26T08:55:05.863Z</time></trkpt><trkpt lat="40.5882217" lon="15.4409683"><ele>791.0000000000001</ele><time>2026-04-26T08:55:06.864Z</time></trkpt><trkpt lat="40.5881667" lon="15.4410567"><ele>791.0</ele><time>2026-04-26T08:55:07.864Z</time></trkpt><trkpt lat="40.5881167" lon="15.4411417"><ele>791.0</ele><time>2026-04-26T08:55:08.863Z</time></trkpt><trkpt lat="40.5880783" lon="15.441215"><ele>791.0</ele><time>2026-04-26T08:55:09.864Z</time></trkpt><trkpt lat="40.5880533" lon="15.4413217"><ele>791.0000000000001</ele><time>2026-04-26T08:55:11.864Z</time></trkpt><trkpt lat="40.5880667" lon="15.4414467"><ele>791.0</ele><time>2026-04-26T08:55:13.863Z</time></trkpt><trkpt lat="40.5880917" lon="15.4415233"><ele>791.8333333333334</ele><time>2026-04-26T08:55:14.864Z</time></trkpt><trkpt lat="40.5881333" lon="15.4416033"><ele>792.6666666666667</ele><time>2026-04-26T08:55:15.864Z</time></trkpt><trkpt lat="40.5881733" lon="15.4416867"><ele>793.5</ele><time>2026-04-26T08:55:16.863Z</time></trkpt><trkpt lat="40.5882233" lon="15.4417883"><ele>794.3333333333333</ele><time>2026-04-26T08:55:17.863Z</time></trkpt><trkpt lat="40.5882717" lon="15.4418983"><ele>795.1666666666666</ele><time>2026-04-26T08:55:18.864Z</time></trkpt><trkpt lat="40.5883233" lon="15.4420133"><ele>796.0</ele><time>2026-04-26T08:55:19.864Z</time></trkpt><trkpt lat="40.5883733" lon="15.4421433"><ele>800.0</ele><time>2026-04-26T08:55:20.863Z</time></trkpt><trkpt lat="40.5884283" lon="15.4422783"><ele>804.0</ele><time>2026-04-26T08:55:21.863Z</time></trkpt><trkpt lat="40.588485" lon="15.4424033"><ele>808.0</ele><time>2026-04-26T08:55:22.864Z</time></trkpt><trkpt lat="40.5885483" lon="15.44251"><ele>812.0</ele><time>2026-04-26T08:55:23.863Z</time></trkpt><trkpt lat="40.5886" lon="15.4425983"><ele>816.0</ele><time>2026-04-26T08:55:24.864Z</time></trkpt><trkpt lat="40.588645" lon="15.44267"><ele>812.3333333333334</ele><time>2026-04-26T08:55:25.864Z</time></trkpt><trkpt lat="40.588685" lon="15.4427367"><ele>808.6666666666667</ele><time>2026-04-26T08:55:26.863Z</time></trkpt><trkpt lat="40.5887367" lon="15.4428067"><ele>805.0</ele><time>2026-04-26T08:55:27.863Z</time></trkpt><trkpt lat="40.5887917" lon="15.44289"><ele>801.3333333333334</ele><time>2026-04-26T08:55:28.864Z</time></trkpt><trkpt lat="40.5888483" lon="15.4429883"><ele>797.6666666666667</ele><time>2026-04-26T08:55:29.864Z</time></trkpt><trkpt lat="40.5888933" lon="15.4430767"><ele>794.0</ele><time>2026-04-26T08:55:30.863Z</time></trkpt><trkpt lat="40.5889317" lon="15.4431567"><ele>794.0</ele><time>2026-04-26T08:55:31.863Z</time></trkpt><trkpt lat="40.5889767" lon="15.4432783"><ele>794.0</ele><time>2026-04-26T08:55:33.863Z</time></trkpt><trkpt lat="40.5890117" lon="15.4434"><ele>794.0</ele><time>2026-04-26T08:55:35.863Z</time></trkpt><trkpt lat="40.5890017" lon="15.4435317"><ele>794.0</ele><time>2026-04-26T08:55:37.863Z</time></trkpt><trkpt lat="40.5889617" lon="15.443675"><ele>794.0</ele><time>2026-04-26T08:55:39.863Z</time></trkpt><trkpt lat="40.5889233" lon="15.44379"><ele>795.2</ele><time>2026-04-26T08:55:41.864Z</time></trkpt><trkpt lat="40.58887" lon="15.4438817"><ele>796.4000000000001</ele><time>2026-04-26T08:57:18.863Z</time></trkpt><trkpt lat="40.5888383" lon="15.44405"><ele>797.6</ele><time>2026-04-26T08:57:20.863Z</time></trkpt><trkpt lat="40.588795" lon="15.4441883"><ele>798.8</ele><time>2026-04-26T08:57:21.863Z</time></trkpt><trkpt lat="40.5887567" lon="15.4443233"><ele>800.0</ele><time>2026-04-26T08:57:22.863Z</time></trkpt><trkpt lat="40.58871" lon="15.4444783"><ele>809.5</ele><time>2026-04-26T08:57:23.864Z</time></trkpt><trkpt lat="40.5886667" lon="15.4446317"><ele>819.0</ele><time>2026-04-26T08:57:24.863Z</time></trkpt><trkpt lat="40.588635" lon="15.4447767"><ele>828.5</ele><time>2026-04-26T08:57:25.863Z</time></trkpt><trkpt lat="40.5885917" lon="15.44491"><ele>838.0</ele><time>2026-04-26T08:57:26.864Z</time></trkpt><trkpt lat="40.58854" lon="15.445045"><ele>838.0</ele><time>2026-04-26T08:57:27.864Z</time></trkpt><trkpt lat="40.5884917" lon="15.4451867"><ele>838.0</ele><time>2026-04-26T08:57:28.864Z</time></trkpt><trkpt lat="40.58845" lon="15.4453317"><ele>838.0</ele><time>2026-04-26T08:57:29.864Z</time></trkpt><trkpt lat="40.58842" lon="15.445465"><ele>838.0</ele><time>2026-04-26T08:57:30.864Z</time></trkpt><trkpt lat="40.5883833" lon="15.4455783"><ele>838.0</ele><time>2026-04-26T08:57:31.864Z</time></trkpt><trkpt lat="40.5883417" lon="15.4456867"><ele>836.5999999999999</ele><time>2026-04-26T08:57:32.864Z</time></trkpt><trkpt lat="40.5883067" lon="15.445785"><ele>835.1999999999999</ele><time>2026-04-26T08:57:33.864Z</time></trkpt><trkpt lat="40.588265" lon="15.4459033"><ele>833.8</ele><time>2026-04-26T08:57:34.863Z</time></trkpt><trkpt lat="40.5882233" lon="15.4460283"><ele>832.4</ele><time>2026-04-26T08:57:35.864Z</time></trkpt><trkpt lat="40.588195" lon="15.4461667"><ele>831.0</ele><time>2026-04-26T08:57:36.863Z</time></trkpt><trkpt lat="40.5881767" lon="15.4463"><ele>828.5999999999999</ele><time>2026-04-26T08:57:37.863Z</time></trkpt><trkpt lat="40.58815" lon="15.446405"><ele>826.2</ele><time>2026-04-26T08:57:38.864Z</time></trkpt><trkpt lat="40.58812" lon="15.4465017"><ele>823.8</ele><time>2026-04-26T08:57:39.863Z</time></trkpt><trkpt lat="40.58809" lon="15.44658"><ele>821.4000000000001</ele><time>2026-04-26T08:57:40.864Z</time></trkpt><trkpt lat="40.5880217" lon="15.446695"><ele>819.0</ele><time>2026-04-26T08:57:42.863Z</time></trkpt><trkpt lat="40.587935" lon="15.4468017"><ele>819.0</ele><time>2026-04-26T08:57:44.863Z</time></trkpt><trkpt lat="40.58788" lon="15.4468667"><ele>819.0</ele><time>2026-04-26T08:57:45.863Z</time></trkpt><trkpt lat="40.5878267" lon="15.44695"><ele>819.0</ele><time>2026-04-26T08:57:46.864Z</time></trkpt><trkpt lat="40.58778" lon="15.4470367"><ele>819.0</ele><time>2026-04-26T08:57:47.864Z</time></trkpt><trkpt lat="40.5877467" lon="15.4471333"><ele>819.0</ele><time>2026-04-26T08:57:48.864Z</time></trkpt><trkpt lat="40.5877133" lon="15.447225"><ele>819.0</ele><time>2026-04-26T08:57:49.863Z</time></trkpt><trkpt lat="40.5876567" lon="15.4473083"><ele>823.1666666666666</ele><time>2026-04-26T08:57:50.863Z</time></trkpt><trkpt lat="40.5876" lon="15.4473783"><ele>827.3333333333333</ele><time>2026-04-26T08:57:51.863Z</time></trkpt><trkpt lat="40.5875367" lon="15.4474467"><ele>831.5</ele><time>2026-04-26T08:57:52.863Z</time></trkpt><trkpt lat="40.5874683" lon="15.44752"><ele>835.6666666666666</ele><time>2026-04-26T08:57:53.864Z</time></trkpt><trkpt lat="40.5873833" lon="15.4475917"><ele>839.8333333333333</ele><time>2026-04-26T08:57:54.864Z</time></trkpt><trkpt lat="40.5873083" lon="15.4476517"><ele>844.0</ele><time>2026-04-26T08:57:55.863Z</time></trkpt><trkpt lat="40.58724" lon="15.4477017"><ele>844.0</ele><time>2026-04-26T08:57:56.863Z</time></trkpt><trkpt lat="40.5871717" lon="15.4477483"><ele>844.0</ele><time>2026-04-26T08:57:57.863Z</time></trkpt><trkpt lat="40.5870883" lon="15.44779"><ele>844.0</ele><time>2026-04-26T08:57:58.863Z</time></trkpt><trkpt lat="40.587" lon="15.4478233"><ele>844.0</ele><time>2026-04-26T08:57:59.864Z</time></trkpt><trkpt lat="40.586895" lon="15.4478517"><ele>844.0</ele><time>2026-04-26T08:58:00.863Z</time></trkpt><trkpt lat="40.5867767" lon="15.4478817"><ele>847.8333333333333</ele><time>2026-04-26T08:58:01.864Z</time></trkpt><trkpt lat="40.5866667" lon="15.4479067"><ele>851.6666666666666</ele><time>2026-04-26T08:58:02.863Z</time></trkpt><trkpt lat="40.5865767" lon="15.447925"><ele>855.5</ele><time>2026-04-26T08:58:03.863Z</time></trkpt><trkpt lat="40.5864833" lon="15.4479433"><ele>859.3333333333333</ele><time>2026-04-26T08:58:04.863Z</time></trkpt><trkpt lat="40.5864" lon="15.4479483"><ele>863.1666666666666</ele><time>2026-04-26T08:58:05.864Z</time></trkpt><trkpt lat="40.5863317" lon="15.4479583"><ele>867.0</ele><time>2026-04-26T08:58:06.863Z</time></trkpt><trkpt lat="40.5862217" lon="15.4479383"><ele>866.8</ele><time>2026-04-26T08:58:08.863Z</time></trkpt><trkpt lat="40.5861183" lon="15.4478783"><ele>866.6</ele><time>2026-04-26T08:58:10.863Z</time></trkpt><trkpt lat="40.5860483" lon="15.4477317"><ele>866.3999999999999</ele><time>2026-04-26T08:58:12.863Z</time></trkpt><trkpt lat="40.5860183" lon="15.44762"><ele>866.1999999999999</ele><time>2026-04-26T08:58:13.863Z</time></trkpt><trkpt lat="40.585975" lon="15.4474933"><ele>866.0</ele><time>2026-04-26T08:58:14.864Z</time></trkpt><trkpt lat="40.585935" lon="15.4474017"><ele>866.0</ele><time>2026-04-26T08:58:15.863Z</time></trkpt><trkpt lat="40.58585" lon="15.4473067"><ele>865.9999999999999</ele><time>2026-04-26T08:58:17.863Z</time></trkpt><trkpt lat="40.5857267" lon="15.4472617"><ele>865.9999999999999</ele><time>2026-04-26T08:58:19.863Z</time></trkpt><trkpt lat="40.5856483" lon="15.4472567"><ele>866.0</ele><time>2026-04-26T08:58:20.863Z</time></trkpt><trkpt lat="40.58557" lon="15.4472883"><ele>866.0</ele><time>2026-04-26T08:58:21.863Z</time></trkpt><trkpt lat="40.5854867" lon="15.4473583"><ele>866.0</ele><time>2026-04-26T08:58:22.863Z</time></trkpt><trkpt lat="40.585405" lon="15.44745"><ele>866.0</ele><time>2026-04-26T08:58:23.864Z</time></trkpt><trkpt lat="40.585325" lon="15.4475767"><ele>866.0</ele><time>2026-04-26T08:58:24.864Z</time></trkpt><trkpt lat="40.58524" lon="15.4477067"><ele>866.0</ele><time>2026-04-26T08:58:25.863Z</time></trkpt><trkpt lat="40.58516" lon="15.4478433"><ele>868.25</ele><time>2026-04-26T08:58:26.863Z</time></trkpt><trkpt lat="40.5850883" lon="15.447995"><ele>870.5</ele><time>2026-04-26T08:58:27.864Z</time></trkpt><trkpt lat="40.5850183" lon="15.4481617"><ele>872.75</ele><time>2026-04-26T08:58:28.864Z</time></trkpt><trkpt lat="40.5849567" lon="15.4483067"><ele>875.0</ele><time>2026-04-26T08:58:29.863Z</time></trkpt><trkpt lat="40.584915" lon="15.4484"><ele>875.0</ele><time>2026-04-26T08:58:30.863Z</time></trkpt><trkpt lat="40.5848483" lon="15.4484517"><ele>875.0</ele><time>2026-04-26T08:58:41.863Z</time></trkpt><trkpt lat="40.584765" lon="15.44844"><ele>875.0</ele><time>2026-04-26T08:58:44.864Z</time></trkpt><trkpt lat="40.5848017" lon="15.4485367"><ele>875.0</ele><time>2026-04-26T09:14:24.865Z</time></trkpt><trkpt lat="40.5847783" lon="15.4486483"><ele>875.0</ele><time>2026-04-26T09:14:26.864Z</time></trkpt><trkpt lat="40.5847567" lon="15.4488033"><ele>875.6666666666667</ele><time>2026-04-26T09:14:28.864Z</time></trkpt><trkpt lat="40.5847433" lon="15.4489667"><ele>876.3333333333334</ele><time>2026-04-26T09:14:30.865Z</time></trkpt><trkpt lat="40.58474" lon="15.449055"><ele>877.0</ele><time>2026-04-26T09:14:31.865Z</time></trkpt><trkpt lat="40.58474" lon="15.4491383"><ele>877.6666666666667</ele><time>2026-04-26T09:14:32.864Z</time></trkpt><trkpt lat="40.584735" lon="15.449225"><ele>878.3333333333334</ele><time>2026-04-26T09:14:33.864Z</time></trkpt><trkpt lat="40.58473" lon="15.4493117"><ele>879.0</ele><time>2026-04-26T09:14:34.864Z</time></trkpt><trkpt lat="40.5847283" lon="15.4493983"><ele>879.0</ele><time>2026-04-26T09:14:35.865Z</time></trkpt><trkpt lat="40.58473" lon="15.4494817"><ele>879.0</ele><time>2026-04-26T09:14:36.865Z</time></trkpt><trkpt lat="40.5847183" lon="15.44964"><ele>879.0</ele><time>2026-04-26T09:14:38.865Z</time></trkpt><trkpt lat="40.5847083" lon="15.4497233"><ele>879.0</ele><time>2026-04-26T09:14:39.865Z</time></trkpt><trkpt lat="40.584685" lon="15.4498717"><ele>879.0</ele><time>2026-04-26T09:14:41.865Z</time></trkpt><trkpt lat="40.5846733" lon="15.4499533"><ele>879.0</ele><time>2026-04-26T09:14:42.864Z</time></trkpt><trkpt lat="40.5846567" lon="15.450045"><ele>880.0</ele><time>2026-04-26T09:14:43.864Z</time></trkpt><trkpt lat="40.58464" lon="15.45013"><ele>881.0</ele><time>2026-04-26T09:14:44.864Z</time></trkpt><trkpt lat="40.584625" lon="15.4502183"><ele>882.0</ele><time>2026-04-26T09:14:45.865Z</time></trkpt><trkpt lat="40.5846183" lon="15.4503033"><ele>883.0</ele><time>2026-04-26T09:14:46.864Z</time></trkpt><trkpt lat="40.5846083" lon="15.4504617"><ele>884.0</ele><time>2026-04-26T09:14:48.865Z</time></trkpt><trkpt lat="40.5845967" lon="15.4506017"><ele>885.0</ele><time>2026-04-26T09:14:50.864Z</time></trkpt><trkpt lat="40.58457" lon="15.4507267"><ele>885.0</ele><time>2026-04-26T09:14:52.864Z</time></trkpt><trkpt lat="40.58455" lon="15.45082"><ele>885.0</ele><time>2026-04-26T09:14:54.864Z</time></trkpt><trkpt lat="40.5845117" lon="15.4509233"><ele>885.0</ele><time>2026-04-26T09:17:24.865Z</time></trkpt><trkpt lat="40.5844767" lon="15.4510483"><ele>885.0</ele><time>2026-04-26T09:17:26.865Z</time></trkpt><trkpt lat="40.5844533" lon="15.4511267"><ele>885.0</ele><time>2026-04-26T09:17:27.865Z</time></trkpt><trkpt lat="40.58443" lon="15.4512067"><ele>885.0</ele><time>2026-04-26T09:17:28.865Z</time></trkpt><trkpt lat="40.5844033" lon="15.4512833"><ele>887.0</ele><time>2026-04-26T09:17:29.865Z</time></trkpt><trkpt lat="40.58435" lon="15.4514367"><ele>889.0</ele><time>2026-04-26T09:17:31.865Z</time></trkpt><trkpt lat="40.5843033" lon="15.4515683"><ele>891.0</ele><time>2026-04-26T09:17:33.865Z</time></trkpt><trkpt lat="40.5842683" lon="15.4516867"><ele>893.0</ele><time>2026-04-26T09:17:35.865Z</time></trkpt><trkpt lat="40.5842333" lon="15.45182"><ele>895.0</ele><time>2026-04-26T09:17:37.864Z</time></trkpt><trkpt lat="40.5842067" lon="15.4519083"><ele>895.0</ele><time>2026-04-26T09:17:38.864Z</time></trkpt><trkpt lat="40.58417" lon="15.4520083"><ele>895.0</ele><time>2026-04-26T09:17:39.864Z</time></trkpt><trkpt lat="40.584125" lon="15.452105"><ele>895.0</ele><time>2026-04-26T09:17:40.865Z</time></trkpt><trkpt lat="40.58409" lon="15.4521883"><ele>895.0</ele><time>2026-04-26T09:17:41.865Z</time></trkpt><trkpt lat="40.5840583" lon="15.4522667"><ele>895.0</ele><time>2026-04-26T09:17:42.865Z</time></trkpt><trkpt lat="40.5840233" lon="15.4523433"><ele>895.0</ele><time>2026-04-26T09:17:43.864Z</time></trkpt><trkpt lat="40.5839883" lon="15.4524133"><ele>895.0</ele><time>2026-04-26T09:17:44.864Z</time></trkpt><trkpt lat="40.5839183" lon="15.4525433"><ele>894.8333333333333</ele><time>2026-04-26T09:17:46.864Z</time></trkpt><trkpt lat="40.58389" lon="15.4526183"><ele>894.6666666666666</ele><time>2026-04-26T09:17:47.865Z</time></trkpt><trkpt lat="40.5838683" lon="15.452705"><ele>894.5</ele><time>2026-04-26T09:17:48.865Z</time></trkpt><trkpt lat="40.583845" lon="15.45279"><ele>894.3333333333333</ele><time>2026-04-26T09:17:49.864Z</time></trkpt><trkpt lat="40.5838217" lon="15.4528683"><ele>894.1666666666666</ele><time>2026-04-26T09:17:50.865Z</time></trkpt><trkpt lat="40.5837767" lon="15.4530117"><ele>894.0</ele><time>2026-04-26T09:17:52.864Z</time></trkpt><trkpt lat="40.5837517" lon="15.4530967"><ele>894.0</ele><time>2026-04-26T09:17:53.865Z</time></trkpt><trkpt lat="40.583725" lon="15.4531883"><ele>894.0</ele><time>2026-04-26T09:17:54.864Z</time></trkpt><trkpt lat="40.5836983" lon="15.4532717"><ele>894.0</ele><time>2026-04-26T09:17:55.865Z</time></trkpt><trkpt lat="40.583665" lon="15.4533567"><ele>894.0</ele><time>2026-04-26T09:17:56.865Z</time></trkpt><trkpt lat="40.58362" lon="15.45346"><ele>894.0</ele><time>2026-04-26T09:17:57.865Z</time></trkpt><trkpt lat="40.583565" lon="15.4535833"><ele>894.0</ele><time>2026-04-26T09:17:58.865Z</time></trkpt><trkpt lat="40.5835117" lon="15.4537083"><ele>897.4000000000001</ele><time>2026-04-26T09:17:59.865Z</time></trkpt><trkpt lat="40.5834633" lon="15.45382"><ele>900.8000000000001</ele><time>2026-04-26T09:18:00.865Z</time></trkpt><trkpt lat="40.583415" lon="15.453935"><ele>904.1999999999999</ele><time>2026-04-26T09:18:01.864Z</time></trkpt><trkpt lat="40.583365" lon="15.4540633"><ele>907.5999999999999</ele><time>2026-04-26T09:18:02.864Z</time></trkpt><trkpt lat="40.5833133" lon="15.4541917"><ele>911.0</ele><time>2026-04-26T09:18:03.864Z</time></trkpt><trkpt lat="40.5832683" lon="15.4543067"><ele>911.0000000000001</ele><time>2026-04-26T09:18:04.864Z</time></trkpt><trkpt lat="40.5832267" lon="15.45441"><ele>911.0</ele><time>2026-04-26T09:18:05.864Z</time></trkpt><trkpt lat="40.5831867" lon="15.4545067"><ele>911.0</ele><time>2026-04-26T09:18:06.864Z</time></trkpt><trkpt lat="40.58315" lon="15.4545983"><ele>911.0</ele><time>2026-04-26T09:18:07.865Z</time></trkpt><trkpt lat="40.583115" lon="15.4546717"><ele>911.0000000000001</ele><time>2026-04-26T09:18:08.865Z</time></trkpt><trkpt lat="40.5830683" lon="15.4547783"><ele>911.0</ele><time>2026-04-26T09:18:10.864Z</time></trkpt><trkpt lat="40.583025" lon="15.4548883"><ele>910.3333333333334</ele><time>2026-04-26T09:22:33.865Z</time></trkpt><trkpt lat="40.5829783" lon="15.454965"><ele>909.6666666666667</ele><time>2026-04-26T09:22:34.864Z</time></trkpt><trkpt lat="40.58293" lon="15.4550383"><ele>909.0</ele><time>2026-04-26T09:22:35.865Z</time></trkpt><trkpt lat="40.5828833" lon="15.4551083"><ele>908.3333333333333</ele><time>2026-04-26T09:22:36.865Z</time></trkpt><trkpt lat="40.582835" lon="15.4551733"><ele>907.6666666666666</ele><time>2026-04-26T09:22:37.864Z</time></trkpt><trkpt lat="40.5827867" lon="15.45523"><ele>907.0</ele><time>2026-04-26T09:22:38.865Z</time></trkpt><trkpt lat="40.5827183" lon="15.4553283"><ele>906.6666666666666</ele><time>2026-04-26T09:22:40.865Z</time></trkpt><trkpt lat="40.5826683" lon="15.45541"><ele>906.3333333333333</ele><time>2026-04-26T09:22:42.864Z</time></trkpt><trkpt lat="40.582625" lon="15.4554817"><ele>906.0</ele><time>2026-04-26T09:22:44.865Z</time></trkpt><trkpt lat="40.582565" lon="15.4556017"><ele>905.6666666666667</ele><time>2026-04-26T09:28:14.865Z</time></trkpt><trkpt lat="40.5825117" lon="15.455695"><ele>905.3333333333334</ele><time>2026-04-26T09:28:16.865Z</time></trkpt><trkpt lat="40.5824783" lon="15.455785"><ele>905.0</ele><time>2026-04-26T09:28:18.865Z</time></trkpt><trkpt lat="40.5824417" lon="15.455875"><ele>906.8333333333334</ele><time>2026-04-26T09:28:20.866Z</time></trkpt><trkpt lat="40.5824033" lon="15.4559517"><ele>908.6666666666667</ele><time>2026-04-26T09:28:22.866Z</time></trkpt><trkpt lat="40.5823517" lon="15.4560383"><ele>910.5</ele><time>2026-04-26T09:28:25.865Z</time></trkpt><trkpt lat="40.5823567" lon="15.4561233"><ele>912.3333333333333</ele><time>2026-04-26T09:28:46.865Z</time></trkpt><trkpt lat="40.582385" lon="15.45604"><ele>914.1666666666666</ele><time>2026-04-26T09:28:52.865Z</time></trkpt><trkpt lat="40.5824267" lon="15.455935"><ele>916.0</ele><time>2026-04-26T09:29:41.866Z</time></trkpt><trkpt lat="40.582455" lon="15.4558217"><ele>916.0</ele><time>2026-04-26T09:29:43.865Z</time></trkpt><trkpt lat="40.5824967" lon="15.4557017"><ele>915.9999999999999</ele><time>2026-04-26T09:29:45.865Z</time></trkpt><trkpt lat="40.58256" lon="15.4555817"><ele>915.9999999999999</ele><time>2026-04-26T09:29:47.866Z</time></trkpt><trkpt lat="40.58263" lon="15.4554467"><ele>916.0</ele><time>2026-04-26T09:29:49.865Z</time></trkpt><trkpt lat="40.5826667" lon="15.4553767"><ele>916.0</ele><time>2026-04-26T09:29:50.866Z</time></trkpt><trkpt lat="40.5827433" lon="15.4552533"><ele>914.4999999999999</ele><time>2026-04-26T09:29:52.865Z</time></trkpt><trkpt lat="40.5828283" lon="15.4551283"><ele>913.0</ele><time>2026-04-26T09:29:54.865Z</time></trkpt><trkpt lat="40.582875" lon="15.4550617"><ele>911.5</ele><time>2026-04-26T09:29:55.865Z</time></trkpt><trkpt lat="40.582925" lon="15.4549917"><ele>910.0</ele><time>2026-04-26T09:29:56.865Z</time></trkpt><trkpt lat="40.5829683" lon="15.45492"><ele>908.4999999999999</ele><time>2026-04-26T09:29:57.866Z</time></trkpt><trkpt lat="40.5830117" lon="15.4548467"><ele>907.0</ele><time>2026-04-26T09:29:58.865Z</time></trkpt><trkpt lat="40.58305" lon="15.4547733"><ele>907.0</ele><time>2026-04-26T09:29:59.866Z</time></trkpt><trkpt lat="40.5831083" lon="15.45464"><ele>907.0</ele><time>2026-04-26T09:30:01.865Z</time></trkpt><trkpt lat="40.5831533" lon="15.4545317"><ele>907.0</ele><time>2026-04-26T09:30:03.865Z</time></trkpt><trkpt lat="40.5832117" lon="15.4544183"><ele>907.0</ele><time>2026-04-26T09:31:00.865Z</time></trkpt><trkpt lat="40.583255" lon="15.45431"><ele>907.0</ele><time>2026-04-26T09:31:02.865Z</time></trkpt><trkpt lat="40.5832833" lon="15.4542333"><ele>907.6666666666666</ele><time>2026-04-26T09:31:03.866Z</time></trkpt><trkpt lat="40.58332" lon="15.454145"><ele>908.3333333333333</ele><time>2026-04-26T09:31:04.866Z</time></trkpt><trkpt lat="40.583355" lon="15.4540567"><ele>909.0</ele><time>2026-04-26T09:31:05.866Z</time></trkpt><trkpt lat="40.58339" lon="15.4539633"><ele>909.6666666666667</ele><time>2026-04-26T09:31:06.865Z</time></trkpt><trkpt lat="40.5834333" lon="15.453865"><ele>910.3333333333334</ele><time>2026-04-26T09:31:07.865Z</time></trkpt><trkpt lat="40.5834717" lon="15.45377"><ele>911.0</ele><time>2026-04-26T09:31:08.866Z</time></trkpt><trkpt lat="40.58351" lon="15.4536833"><ele>909.8571428571429</ele><time>2026-04-26T09:31:09.865Z</time></trkpt><trkpt lat="40.58354" lon="15.4536033"><ele>908.7142857142857</ele><time>2026-04-26T09:31:10.865Z</time></trkpt><trkpt lat="40.5835767" lon="15.4535267"><ele>907.5714285714286</ele><time>2026-04-26T09:31:11.865Z</time></trkpt><trkpt lat="40.5836117" lon="15.45345"><ele>906.4285714285714</ele><time>2026-04-26T09:31:12.865Z</time></trkpt><trkpt lat="40.5836483" lon="15.4533767"><ele>905.2857142857142</ele><time>2026-04-26T09:31:13.865Z</time></trkpt><trkpt lat="40.5836833" lon="15.4533"><ele>904.1428571428571</ele><time>2026-04-26T09:31:14.865Z</time></trkpt><trkpt lat="40.583715" lon="15.4532283"><ele>903.0</ele><time>2026-04-26T09:31:15.865Z</time></trkpt><trkpt lat="40.58377" lon="15.4530717"><ele>901.8</ele><time>2026-04-26T09:31:17.865Z</time></trkpt><trkpt lat="40.5837967" lon="15.4529917"><ele>900.5999999999999</ele><time>2026-04-26T09:31:18.866Z</time></trkpt><trkpt lat="40.5838433" lon="15.4528517"><ele>899.4000000000001</ele><time>2026-04-26T09:31:20.865Z</time></trkpt><trkpt lat="40.583885" lon="15.4527083"><ele>898.2</ele><time>2026-04-26T09:31:22.866Z</time></trkpt><trkpt lat="40.5839233" lon="15.4525817"><ele>897.0</ele><time>2026-04-26T09:31:24.865Z</time></trkpt><trkpt lat="40.58397" lon="15.45247"><ele>897.0</ele><time>2026-04-26T09:31:26.866Z</time></trkpt><trkpt lat="40.5840033" lon="15.45239"><ele>897.0</ele><time>2026-04-26T09:31:27.865Z</time></trkpt><trkpt lat="40.58404" lon="15.4523"><ele>897.0</ele><time>2026-04-26T09:31:28.865Z</time></trkpt><trkpt lat="40.5840783" lon="15.4522067"><ele>897.0</ele><time>2026-04-26T09:31:29.865Z</time></trkpt><trkpt lat="40.584115" lon="15.4521167"><ele>897.0</ele><time>2026-04-26T09:31:30.866Z</time></trkpt><trkpt lat="40.5841517" lon="15.452025"><ele>897.0</ele><time>2026-04-26T09:31:31.865Z</time></trkpt><trkpt lat="40.58419" lon="15.4519183"><ele>896.6666666666666</ele><time>2026-04-26T09:31:32.866Z</time></trkpt><trkpt lat="40.5842267" lon="15.4518067"><ele>896.3333333333333</ele><time>2026-04-26T09:31:33.866Z</time></trkpt><trkpt lat="40.5842533" lon="15.4517083"><ele>896.0</ele><time>2026-04-26T09:31:34.865Z</time></trkpt><trkpt lat="40.5842783" lon="15.4516167"><ele>895.6666666666666</ele><time>2026-04-26T09:31:35.865Z</time></trkpt><trkpt lat="40.5843083" lon="15.4515233"><ele>895.3333333333333</ele><time>2026-04-26T09:31:36.866Z</time></trkpt><trkpt lat="40.5843383" lon="15.4514283"><ele>895.0</ele><time>2026-04-26T09:31:37.865Z</time></trkpt><trkpt lat="40.5843683" lon="15.4513333"><ele>894.6666666666666</ele><time>2026-04-26T09:31:38.866Z</time></trkpt><trkpt lat="40.5844" lon="15.4512367"><ele>894.3333333333333</ele><time>2026-04-26T09:31:39.866Z</time></trkpt><trkpt lat="40.584435" lon="15.4511267"><ele>894.0</ele><time>2026-04-26T09:31:40.865Z</time></trkpt><trkpt lat="40.58447" lon="15.451015"><ele>893.6666666666667</ele><time>2026-04-26T09:31:41.865Z</time></trkpt><trkpt lat="40.5845033" lon="15.4509117"><ele>893.3333333333334</ele><time>2026-04-26T09:31:42.865Z</time></trkpt><trkpt lat="40.5845283" lon="15.4508183"><ele>893.0</ele><time>2026-04-26T09:31:43.866Z</time></trkpt><trkpt lat="40.584555" lon="15.45069"><ele>891.4</ele><time>2026-04-26T09:31:45.866Z</time></trkpt><trkpt lat="40.5845717" lon="15.4505833"><ele>889.8</ele><time>2026-04-26T09:31:47.865Z</time></trkpt><trkpt lat="40.584585" lon="15.45047"><ele>888.2</ele><time>2026-04-26T09:31:49.866Z</time></trkpt><trkpt lat="40.5845983" lon="15.4503383"><ele>886.6</ele><time>2026-04-26T09:31:51.866Z</time></trkpt><trkpt lat="40.5846117" lon="15.4502083"><ele>885.0</ele><time>2026-04-26T09:31:53.866Z</time></trkpt><trkpt lat="40.5846267" lon="15.450095"><ele>885.0</ele><time>2026-04-26T09:31:55.865Z</time></trkpt><trkpt lat="40.5846433" lon="15.4499933"><ele>885.0</ele><time>2026-04-26T09:31:57.865Z</time></trkpt><trkpt lat="40.5846583" lon="15.4499067"><ele>885.0</ele><time>2026-04-26T09:31:59.865Z</time></trkpt><trkpt lat="40.5846667" lon="15.4498017"><ele>885.0</ele><time>2026-04-26T09:32:01.865Z</time></trkpt><trkpt lat="40.5846817" lon="15.44967"><ele>885.0</ele><time>2026-04-26T09:32:03.865Z</time></trkpt><trkpt lat="40.5846917" lon="15.449585"><ele>885.0</ele><time>2026-04-26T09:32:04.866Z</time></trkpt><trkpt lat="40.5846983" lon="15.4494817"><ele>883.8</ele><time>2026-04-26T09:32:05.865Z</time></trkpt><trkpt lat="40.584705" lon="15.4493733"><ele>882.6</ele><time>2026-04-26T09:32:06.865Z</time></trkpt><trkpt lat="40.5847033" lon="15.44928"><ele>881.4000000000001</ele><time>2026-04-26T09:32:07.865Z</time></trkpt><trkpt lat="40.5847067" lon="15.4491167"><ele>880.2</ele><time>2026-04-26T09:32:09.866Z</time></trkpt><trkpt lat="40.584715" lon="15.44897"><ele>879.0</ele><time>2026-04-26T09:32:11.865Z</time></trkpt><trkpt lat="40.5847217" lon="15.448835"><ele>878.3333333333334</ele><time>2026-04-26T09:32:13.866Z</time></trkpt><trkpt lat="40.5847383" lon="15.4487067"><ele>877.6666666666667</ele><time>2026-04-26T09:32:15.865Z</time></trkpt><trkpt lat="40.5847567" lon="15.448585"><ele>877.0</ele><time>2026-04-26T09:32:17.865Z</time></trkpt><trkpt lat="40.584765" lon="15.4484867"><ele>876.3333333333334</ele><time>2026-04-26T09:32:19.865Z</time></trkpt><trkpt lat="40.5848083" lon="15.448425"><ele>875.6666666666667</ele><time>2026-04-26T09:32:21.865Z</time></trkpt><trkpt lat="40.584875" lon="15.4484617"><ele>875.0</ele><time>2026-04-26T09:32:24.866Z</time></trkpt><trkpt lat="40.5848983" lon="15.4485667"><ele>875.0000000000001</ele><time>2026-04-26T09:32:27.866Z</time></trkpt><trkpt lat="40.5848967" lon="15.4486783"><ele>875.0</ele><time>2026-04-26T09:36:17.865Z</time></trkpt><trkpt lat="40.58489" lon="15.4487767"><ele>875.0</ele><time>2026-04-26T09:36:18.865Z</time></trkpt><trkpt lat="40.58489" lon="15.4488833"><ele>875.0</ele><time>2026-04-26T09:36:19.865Z</time></trkpt><trkpt lat="40.584895" lon="15.448995"><ele>875.0000000000001</ele><time>2026-04-26T09:36:20.865Z</time></trkpt><trkpt lat="40.5848983" lon="15.4491083"><ele>875.0</ele><time>2026-04-26T09:36:21.864Z</time></trkpt><trkpt lat="40.5849067" lon="15.44922"><ele>875.8</ele><time>2026-04-26T09:36:22.865Z</time></trkpt><trkpt lat="40.5849067" lon="15.4493433"><ele>876.6</ele><time>2026-04-26T09:36:23.865Z</time></trkpt><trkpt lat="40.5849133" lon="15.4494617"><ele>877.4000000000001</ele><time>2026-04-26T09:36:24.864Z</time></trkpt><trkpt lat="40.58492" lon="15.4495833"><ele>878.2</ele><time>2026-04-26T09:36:25.864Z</time></trkpt><trkpt lat="40.584935" lon="15.449715"><ele>879.0</ele><time>2026-04-26T09:36:26.865Z</time></trkpt><trkpt lat="40.5849533" lon="15.4498517"><ele>880.2</ele><time>2026-04-26T09:36:27.864Z</time></trkpt><trkpt lat="40.5849717" lon="15.4499917"><ele>881.4000000000001</ele><time>2026-04-26T09:36:28.864Z</time></trkpt><trkpt lat="40.5849867" lon="15.45012"><ele>882.6</ele><time>2026-04-26T09:36:29.864Z</time></trkpt><trkpt lat="40.5850033" lon="15.450245"><ele>883.8</ele><time>2026-04-26T09:36:30.865Z</time></trkpt><trkpt lat="40.5850183" lon="15.4503767"><ele>885.0</ele><time>2026-04-26T09:36:31.864Z</time></trkpt><trkpt lat="40.58503" lon="15.450515"><ele>885.0</ele><time>2026-04-26T09:36:32.865Z</time></trkpt><trkpt lat="40.58503" lon="15.450655"><ele>885.0</ele><time>2026-04-26T09:36:33.865Z</time></trkpt><trkpt lat="40.585015" lon="15.4508033"><ele>885.0</ele><time>2026-04-26T09:36:34.864Z</time></trkpt><trkpt lat="40.5849817" lon="15.4509583"><ele>885.0</ele><time>2026-04-26T09:36:35.864Z</time></trkpt><trkpt lat="40.5849433" lon="15.45112"><ele>885.0</ele><time>2026-04-26T09:36:36.864Z</time></trkpt><trkpt lat="40.5848933" lon="15.4512817"><ele>885.0</ele><time>2026-04-26T09:36:37.864Z</time></trkpt><trkpt lat="40.5848483" lon="15.4514533"><ele>885.0</ele><time>2026-04-26T09:36:38.864Z</time></trkpt><trkpt lat="40.5848017" lon="15.4516083"><ele>885.0</ele><time>2026-04-26T09:36:39.864Z</time></trkpt><trkpt lat="40.58476" lon="15.4517583"><ele>883.0</ele><time>2026-04-26T09:36:40.864Z</time></trkpt><trkpt lat="40.5847233" lon="15.4519"><ele>881.0</ele><time>2026-04-26T09:36:41.864Z</time></trkpt><trkpt lat="40.584695" lon="15.45205"><ele>879.0</ele><time>2026-04-26T09:36:42.865Z</time></trkpt><trkpt lat="40.584675" lon="15.45219"><ele>877.0</ele><time>2026-04-26T09:36:43.865Z</time></trkpt><trkpt lat="40.58466" lon="15.4523317"><ele>875.0</ele><time>2026-04-26T09:36:44.864Z</time></trkpt><trkpt lat="40.5846517" lon="15.4524733"><ele>872.2</ele><time>2026-04-26T09:36:45.865Z</time></trkpt><trkpt lat="40.5846583" lon="15.45261"><ele>869.4</ele><time>2026-04-26T09:36:46.865Z</time></trkpt><trkpt lat="40.5846733" lon="15.4527467"><ele>866.5999999999999</ele><time>2026-04-26T09:36:47.865Z</time></trkpt><trkpt lat="40.5846933" lon="15.4528733"><ele>863.8</ele><time>2026-04-26T09:36:48.864Z</time></trkpt><trkpt lat="40.5847067" lon="15.4529983"><ele>861.0</ele><time>2026-04-26T09:36:49.864Z</time></trkpt><trkpt lat="40.5846983" lon="15.4531133"><ele>858.8</ele><time>2026-04-26T09:36:50.864Z</time></trkpt><trkpt lat="40.5846717" lon="15.4532317"><ele>856.5999999999999</ele><time>2026-04-26T09:36:51.865Z</time></trkpt><trkpt lat="40.58463" lon="15.453355"><ele>854.4</ele><time>2026-04-26T09:36:52.864Z</time></trkpt><trkpt lat="40.5845783" lon="15.4534917"><ele>852.2</ele><time>2026-04-26T09:36:53.865Z</time></trkpt><trkpt lat="40.5845333" lon="15.4536317"><ele>850.0</ele><time>2026-04-26T09:36:54.864Z</time></trkpt><trkpt lat="40.5844917" lon="15.4537783"><ele>857.75</ele><time>2026-04-26T09:36:55.865Z</time></trkpt><trkpt lat="40.5844517" lon="15.4539333"><ele>865.5</ele><time>2026-04-26T09:36:56.865Z</time></trkpt><trkpt lat="40.584415" lon="15.45409"><ele>873.25</ele><time>2026-04-26T09:36:57.865Z</time></trkpt><trkpt lat="40.5843717" lon="15.4542483"><ele>881.0</ele><time>2026-04-26T09:36:58.865Z</time></trkpt><trkpt lat="40.5843333" lon="15.4544067"><ele>881.0</ele><time>2026-04-26T09:36:59.864Z</time></trkpt><trkpt lat="40.5842933" lon="15.4545733"><ele>881.0</ele><time>2026-04-26T09:37:00.864Z</time></trkpt><trkpt lat="40.584255" lon="15.45473"><ele>881.0</ele><time>2026-04-26T09:37:01.865Z</time></trkpt><trkpt lat="40.584225" lon="15.4548817"><ele>881.0</ele><time>2026-04-26T09:37:02.865Z</time></trkpt><trkpt lat="40.5842067" lon="15.4550367"><ele>879.0</ele><time>2026-04-26T09:37:03.865Z</time></trkpt><trkpt lat="40.5841833" lon="15.4551817"><ele>876.9999999999999</ele><time>2026-04-26T09:37:04.865Z</time></trkpt><trkpt lat="40.5841583" lon="15.4553217"><ele>874.9999999999999</ele><time>2026-04-26T09:37:05.865Z</time></trkpt><trkpt lat="40.584135" lon="15.4554567"><ele>873.0</ele><time>2026-04-26T09:37:06.865Z</time></trkpt><trkpt lat="40.5841117" lon="15.4555967"><ele>871.0</ele><time>2026-04-26T09:37:07.864Z</time></trkpt><trkpt lat="40.58409" lon="15.45572"><ele>868.0</ele><time>2026-04-26T09:37:08.864Z</time></trkpt><trkpt lat="40.58407" lon="15.4558367"><ele>864.9999999999999</ele><time>2026-04-26T09:37:09.864Z</time></trkpt><trkpt lat="40.5840317" lon="15.4559517"><ele>861.9999999999999</ele><time>2026-04-26T09:37:10.865Z</time></trkpt><trkpt lat="40.583995" lon="15.45606"><ele>859.0</ele><time>2026-04-26T09:37:11.864Z</time></trkpt><trkpt lat="40.5839517" lon="15.456175"><ele>856.0</ele><time>2026-04-26T09:37:12.864Z</time></trkpt><trkpt lat="40.58391" lon="15.4563"><ele>853.1999999999999</ele><time>2026-04-26T09:37:13.865Z</time></trkpt><trkpt lat="40.5838633" lon="15.456425"><ele>850.3999999999999</ele><time>2026-04-26T09:37:14.864Z</time></trkpt><trkpt lat="40.58383" lon="15.4565317"><ele>847.6</ele><time>2026-04-26T09:37:15.865Z</time></trkpt><trkpt lat="40.5838183" lon="15.4566433"><ele>844.8</ele><time>2026-04-26T09:37:16.864Z</time></trkpt><trkpt lat="40.5838183" lon="15.4567683"><ele>842.0</ele><time>2026-04-26T09:37:17.864Z</time></trkpt><trkpt lat="40.5838333" lon="15.4569067"><ele>842.0</ele><time>2026-04-26T09:37:18.865Z</time></trkpt><trkpt lat="40.58386" lon="15.4570483"><ele>842.0</ele><time>2026-04-26T09:37:19.864Z</time></trkpt><trkpt lat="40.58388" lon="15.4571833"><ele>842.0</ele><time>2026-04-26T09:37:20.864Z</time></trkpt><trkpt lat="40.5839033" lon="15.4573217"><ele>842.0</ele><time>2026-04-26T09:37:21.865Z</time></trkpt><trkpt lat="40.5839167" lon="15.457455"><ele>842.0</ele><time>2026-04-26T09:37:22.864Z</time></trkpt><trkpt lat="40.58392" lon="15.45759"><ele>840.8</ele><time>2026-04-26T09:37:23.864Z</time></trkpt><trkpt lat="40.5839217" lon="15.4577267"><ele>839.6</ele><time>2026-04-26T09:37:24.865Z</time></trkpt><trkpt lat="40.58393" lon="15.457865"><ele>838.4</ele><time>2026-04-26T09:37:25.865Z</time></trkpt><trkpt lat="40.5839617" lon="15.4579933"><ele>837.1999999999999</ele><time>2026-04-26T09:37:26.864Z</time></trkpt><trkpt lat="40.5839983" lon="15.458115"><ele>836.0</ele><time>2026-04-26T09:37:27.864Z</time></trkpt><trkpt lat="40.58403" lon="15.458235"><ele>836.0</ele><time>2026-04-26T09:37:28.864Z</time></trkpt><trkpt lat="40.58406" lon="15.4583567"><ele>836.0</ele><time>2026-04-26T09:37:29.865Z</time></trkpt><trkpt lat="40.5840817" lon="15.458485"><ele>836.0</ele><time>2026-04-26T09:37:30.864Z</time></trkpt><trkpt lat="40.5840933" lon="15.4586117"><ele>836.0</ele><time>2026-04-26T09:37:31.865Z</time></trkpt><trkpt lat="40.5841" lon="15.4587383"><ele>836.0</ele><time>2026-04-26T09:37:32.865Z</time></trkpt><trkpt lat="40.5841" lon="15.4588683"><ele>835.1999999999999</ele><time>2026-04-26T09:37:33.865Z</time></trkpt><trkpt lat="40.5841067" lon="15.4590017"><ele>834.4</ele><time>2026-04-26T09:37:34.865Z</time></trkpt><trkpt lat="40.5841017" lon="15.4591483"><ele>833.6</ele><time>2026-04-26T09:37:35.865Z</time></trkpt><trkpt lat="40.584095" lon="15.4592967"><ele>832.8</ele><time>2026-04-26T09:37:36.865Z</time></trkpt><trkpt lat="40.5840833" lon="15.4594567"><ele>832.0</ele><time>2026-04-26T09:37:37.865Z</time></trkpt><trkpt lat="40.58407" lon="15.4596083"><ele>830.25</ele><time>2026-04-26T09:37:38.864Z</time></trkpt><trkpt lat="40.5840533" lon="15.4597733"><ele>828.5</ele><time>2026-04-26T09:37:39.864Z</time></trkpt><trkpt lat="40.584035" lon="15.4599367"><ele>826.75</ele><time>2026-04-26T09:37:40.864Z</time></trkpt><trkpt lat="40.5840217" lon="15.4600967"><ele>825.0</ele><time>2026-04-26T09:37:41.865Z</time></trkpt><trkpt lat="40.584005" lon="15.46026"><ele>825.0</ele><time>2026-04-26T09:37:42.865Z</time></trkpt><trkpt lat="40.5839867" lon="15.460425"><ele>825.0</ele><time>2026-04-26T09:37:43.865Z</time></trkpt><trkpt lat="40.5839683" lon="15.46059"><ele>825.0</ele><time>2026-04-26T09:37:44.865Z</time></trkpt><trkpt lat="40.5839517" lon="15.4607433"><ele>825.0</ele><time>2026-04-26T09:37:45.864Z</time></trkpt><trkpt lat="40.583925" lon="15.46089"><ele>822.8</ele><time>2026-04-26T09:37:46.865Z</time></trkpt><trkpt lat="40.5839083" lon="15.4610267"><ele>820.6</ele><time>2026-04-26T09:37:47.865Z</time></trkpt><trkpt lat="40.5838917" lon="15.4611783"><ele>818.4000000000001</ele><time>2026-04-26T09:37:48.865Z</time></trkpt><trkpt lat="40.5838867" lon="15.46132"><ele>816.2</ele><time>2026-04-26T09:37:49.864Z</time></trkpt><trkpt lat="40.5838933" lon="15.4614617"><ele>814.0</ele><time>2026-04-26T09:37:50.865Z</time></trkpt><trkpt lat="40.5839017" lon="15.4616267"><ele>811.75</ele><time>2026-04-26T09:37:51.865Z</time></trkpt><trkpt lat="40.58392" lon="15.4617867"><ele>809.5</ele><time>2026-04-26T09:37:52.865Z</time></trkpt><trkpt lat="40.5839433" lon="15.46195"><ele>807.25</ele><time>2026-04-26T09:37:53.865Z</time></trkpt><trkpt lat="40.5839733" lon="15.4621167"><ele>805.0</ele><time>2026-04-26T09:37:54.865Z</time></trkpt><trkpt lat="40.5840117" lon="15.4622783"><ele>804.25</ele><time>2026-04-26T09:37:55.865Z</time></trkpt><trkpt lat="40.5840567" lon="15.4624333"><ele>803.5</ele><time>2026-04-26T09:37:56.864Z</time></trkpt><trkpt lat="40.5840967" lon="15.46258"><ele>802.75</ele><time>2026-04-26T09:37:57.865Z</time></trkpt><trkpt lat="40.5841283" lon="15.46271"><ele>802.0</ele><time>2026-04-26T09:37:58.864Z</time></trkpt><trkpt lat="40.5841633" lon="15.4628417"><ele>800.8</ele><time>2026-04-26T09:37:59.864Z</time></trkpt><trkpt lat="40.58419" lon="15.4629833"><ele>799.6</ele><time>2026-04-26T09:38:00.865Z</time></trkpt><trkpt lat="40.584215" lon="15.4631183"><ele>798.4</ele><time>2026-04-26T09:38:01.865Z</time></trkpt><trkpt lat="40.5842233" lon="15.4632567"><ele>797.1999999999999</ele><time>2026-04-26T09:38:02.865Z</time></trkpt><trkpt lat="40.584215" lon="15.4633933"><ele>796.0</ele><time>2026-04-26T09:38:03.864Z</time></trkpt><trkpt lat="40.5841883" lon="15.4635333"><ele>796.0</ele><time>2026-04-26T09:38:04.865Z</time></trkpt><trkpt lat="40.58415" lon="15.4636717"><ele>796.0</ele><time>2026-04-26T09:38:05.864Z</time></trkpt><trkpt lat="40.5841133" lon="15.463805"><ele>796.0</ele><time>2026-04-26T09:38:06.864Z</time></trkpt><trkpt lat="40.5840867" lon="15.4639433"><ele>796.0</ele><time>2026-04-26T09:38:07.864Z</time></trkpt><trkpt lat="40.584075" lon="15.4641033"><ele>793.25</ele><time>2026-04-26T09:38:08.865Z</time></trkpt><trkpt lat="40.5840683" lon="15.46427"><ele>790.5</ele><time>2026-04-26T09:38:09.864Z</time></trkpt><trkpt lat="40.58408" lon="15.4644367"><ele>787.75</ele><time>2026-04-26T09:38:10.865Z</time></trkpt><trkpt lat="40.5840933" lon="15.4646267"><ele>785.0</ele><time>2026-04-26T09:38:11.864Z</time></trkpt><trkpt lat="40.5841033" lon="15.464825"><ele>784.0</ele><time>2026-04-26T09:38:12.865Z</time></trkpt><trkpt lat="40.5841033" lon="15.4650417"><ele>783.0</ele><time>2026-04-26T09:38:13.864Z</time></trkpt><trkpt lat="40.5841083" lon="15.4652517"><ele>782.0</ele><time>2026-04-26T09:38:14.865Z</time></trkpt><trkpt lat="40.584115" lon="15.4654667"><ele>782.0</ele><time>2026-04-26T09:38:15.865Z</time></trkpt><trkpt lat="40.584125" lon="15.465665"><ele>782.0</ele><time>2026-04-26T09:38:16.865Z</time></trkpt><trkpt lat="40.5841367" lon="15.465855"><ele>782.0</ele><time>2026-04-26T09:38:17.864Z</time></trkpt><trkpt lat="40.5841417" lon="15.466035"><ele>782.0</ele><time>2026-04-26T09:38:18.865Z</time></trkpt><trkpt lat="40.5841433" lon="15.4662083"><ele>781.5</ele><time>2026-04-26T09:38:19.864Z</time></trkpt><trkpt lat="40.58415" lon="15.4663733"><ele>781.0</ele><time>2026-04-26T09:38:20.864Z</time></trkpt><trkpt lat="40.5841567" lon="15.466545"><ele>780.5</ele><time>2026-04-26T09:38:21.864Z</time></trkpt><trkpt lat="40.5841767" lon="15.4667183"><ele>780.0</ele><time>2026-04-26T09:38:22.865Z</time></trkpt><trkpt lat="40.5842117" lon="15.46689"><ele>780.0</ele><time>2026-04-26T09:38:23.864Z</time></trkpt><trkpt lat="40.5842567" lon="15.4670633"><ele>780.0</ele><time>2026-04-26T09:38:24.865Z</time></trkpt><trkpt lat="40.5843" lon="15.4672267"><ele>780.0</ele><time>2026-04-26T09:38:25.864Z</time></trkpt><trkpt lat="40.58433" lon="15.4673867"><ele>780.0</ele><time>2026-04-26T09:38:26.864Z</time></trkpt><trkpt lat="40.5843367" lon="15.46755"><ele>783.0</ele><time>2026-04-26T09:38:27.864Z</time></trkpt><trkpt lat="40.58434" lon="15.4677317"><ele>786.0</ele><time>2026-04-26T09:38:28.864Z</time></trkpt><trkpt lat="40.5843483" lon="15.467935"><ele>789.0</ele><time>2026-04-26T09:38:29.864Z</time></trkpt><trkpt lat="40.58436" lon="15.4681433"><ele>792.6666666666667</ele><time>2026-04-26T09:38:30.865Z</time></trkpt><trkpt lat="40.58437" lon="15.4683583"><ele>796.3333333333334</ele><time>2026-04-26T09:38:31.864Z</time></trkpt><trkpt lat="40.5843717" lon="15.4685783"><ele>800.0</ele><time>2026-04-26T09:38:32.865Z</time></trkpt><trkpt lat="40.5843633" lon="15.468795"><ele>801.6666666666667</ele><time>2026-04-26T09:38:33.865Z</time></trkpt><trkpt lat="40.5843667" lon="15.4690017"><ele>803.3333333333333</ele><time>2026-04-26T09:38:34.865Z</time></trkpt><trkpt lat="40.5843833" lon="15.4692083"><ele>805.0</ele><time>2026-04-26T09:38:35.864Z</time></trkpt><trkpt lat="40.584395" lon="15.4694067"><ele>805.0</ele><time>2026-04-26T09:38:36.865Z</time></trkpt><trkpt lat="40.584395" lon="15.46959"><ele>805.0</ele><time>2026-04-26T09:38:37.864Z</time></trkpt><trkpt lat="40.5843867" lon="15.4697517"><ele>805.0</ele><time>2026-04-26T09:38:38.865Z</time></trkpt><trkpt lat="40.5843667" lon="15.469905"><ele>805.0</ele><time>2026-04-26T09:38:39.865Z</time></trkpt><trkpt lat="40.5843583" lon="15.4700617"><ele>805.25</ele><time>2026-04-26T09:38:40.865Z</time></trkpt><trkpt lat="40.5843467" lon="15.4702283"><ele>805.5</ele><time>2026-04-26T09:38:41.864Z</time></trkpt><trkpt lat="40.584325" lon="15.4703917"><ele>805.75</ele><time>2026-04-26T09:38:42.865Z</time></trkpt><trkpt lat="40.5842983" lon="15.4705633"><ele>806.0</ele><time>2026-04-26T09:38:43.864Z</time></trkpt><trkpt lat="40.584255" lon="15.470735"><ele>806.0</ele><time>2026-04-26T09:38:44.864Z</time></trkpt><trkpt lat="40.5842167" lon="15.4709133"><ele>806.0</ele><time>2026-04-26T09:38:45.864Z</time></trkpt><trkpt lat="40.58418" lon="15.47108"><ele>806.0</ele><time>2026-04-26T09:38:46.864Z</time></trkpt><trkpt lat="40.5841533" lon="15.4712267"><ele>806.0</ele><time>2026-04-26T09:38:47.865Z</time></trkpt><trkpt lat="40.584135" lon="15.4713667"><ele>804.8</ele><time>2026-04-26T09:38:48.864Z</time></trkpt><trkpt lat="40.58412" lon="15.4715033"><ele>803.5999999999999</ele><time>2026-04-26T09:38:49.864Z</time></trkpt><trkpt lat="40.5840983" lon="15.47164"><ele>802.4</ele><time>2026-04-26T09:38:50.865Z</time></trkpt><trkpt lat="40.5840633" lon="15.4717667"><ele>801.2</ele><time>2026-04-26T09:38:51.864Z</time></trkpt><trkpt lat="40.5840233" lon="15.471885"><ele>800.0</ele><time>2026-04-26T09:38:52.864Z</time></trkpt><trkpt lat="40.5839867" lon="15.4719933"><ele>800.0000000000001</ele><time>2026-04-26T09:38:53.864Z</time></trkpt><trkpt lat="40.583955" lon="15.4720967"><ele>800.0</ele><time>2026-04-26T09:38:54.864Z</time></trkpt><trkpt lat="40.5839283" lon="15.4721933"><ele>800.0</ele><time>2026-04-26T09:38:55.865Z</time></trkpt><trkpt lat="40.5839067" lon="15.4722883"><ele>800.0</ele><time>2026-04-26T09:38:56.864Z</time></trkpt><trkpt lat="40.5838867" lon="15.472375"><ele>800.0</ele><time>2026-04-26T09:38:57.864Z</time></trkpt><trkpt lat="40.5838667" lon="15.472455"><ele>800.0000000000001</ele><time>2026-04-26T09:38:58.864Z</time></trkpt><trkpt lat="40.5838367" lon="15.4725367"><ele>800.0</ele><time>2026-04-26T09:38:59.864Z</time></trkpt><trkpt lat="40.5838017" lon="15.4726183"><ele>800.2857142857143</ele><time>2026-04-26T09:39:00.864Z</time></trkpt><trkpt lat="40.583765" lon="15.4726967"><ele>800.5714285714286</ele><time>2026-04-26T09:39:01.865Z</time></trkpt><trkpt lat="40.583725" lon="15.47277"><ele>800.8571428571429</ele><time>2026-04-26T09:39:02.865Z</time></trkpt><trkpt lat="40.58368" lon="15.472845"><ele>801.1428571428571</ele><time>2026-04-26T09:39:03.864Z</time></trkpt><trkpt lat="40.58363" lon="15.47292"><ele>801.4285714285714</ele><time>2026-04-26T09:39:04.865Z</time></trkpt><trkpt lat="40.5835783" lon="15.4729883"><ele>801.7142857142858</ele><time>2026-04-26T09:39:05.865Z</time></trkpt><trkpt lat="40.5835233" lon="15.4730567"><ele>802.0</ele><time>2026-04-26T09:39:06.864Z</time></trkpt><trkpt lat="40.5834683" lon="15.4731233"><ele>802.0</ele><time>2026-04-26T09:39:07.864Z</time></trkpt><trkpt lat="40.5834133" lon="15.4731833"><ele>802.0</ele><time>2026-04-26T09:39:08.865Z</time></trkpt><trkpt lat="40.5833583" lon="15.4732417"><ele>802.0</ele><time>2026-04-26T09:39:09.864Z</time></trkpt><trkpt lat="40.5833033" lon="15.473295"><ele>802.0</ele><time>2026-04-26T09:39:10.864Z</time></trkpt><trkpt lat="40.5832467" lon="15.473345"><ele>802.0</ele><time>2026-04-26T09:39:11.864Z</time></trkpt><trkpt lat="40.58318" lon="15.473385"><ele>802.0</ele><time>2026-04-26T09:39:12.865Z</time></trkpt><trkpt lat="40.5831083" lon="15.4734133"><ele>802.0</ele><time>2026-04-26T09:39:13.865Z</time></trkpt><trkpt lat="40.5830283" lon="15.4734367"><ele>801.9999999999999</ele><time>2026-04-26T09:39:14.864Z</time></trkpt><trkpt lat="40.58295" lon="15.4734533"><ele>802.0</ele><time>2026-04-26T09:39:15.865Z</time></trkpt><trkpt lat="40.58287" lon="15.4734583"><ele>802.0</ele><time>2026-04-26T09:39:16.865Z</time></trkpt><trkpt lat="40.5827817" lon="15.473465"><ele>802.0</ele><time>2026-04-26T09:39:17.865Z</time></trkpt><trkpt lat="40.5826867" lon="15.4734717"><ele>801.9999999999999</ele><time>2026-04-26T09:39:18.864Z</time></trkpt><trkpt lat="40.5825917" lon="15.4734683"><ele>802.0</ele><time>2026-04-26T09:39:19.865Z</time></trkpt><trkpt lat="40.5825017" lon="15.47345"><ele>803.4000000000001</ele><time>2026-04-26T09:39:20.865Z</time></trkpt><trkpt lat="40.5824117" lon="15.473415"><ele>804.8000000000001</ele><time>2026-04-26T09:39:21.865Z</time></trkpt><trkpt lat="40.582325" lon="15.4733633"><ele>806.2</ele><time>2026-04-26T09:39:22.864Z</time></trkpt><trkpt lat="40.5822433" lon="15.4732983"><ele>807.6</ele><time>2026-04-26T09:39:23.865Z</time></trkpt><trkpt lat="40.5821667" lon="15.4732283"><ele>809.0</ele><time>2026-04-26T09:39:24.865Z</time></trkpt><trkpt lat="40.5821" lon="15.473145"><ele>809.0000000000001</ele><time>2026-04-26T09:39:25.864Z</time></trkpt><trkpt lat="40.5820383" lon="15.4730733"><ele>809.0</ele><time>2026-04-26T09:39:26.864Z</time></trkpt><trkpt lat="40.5819717" lon="15.4730083"><ele>809.0</ele><time>2026-04-26T09:39:27.864Z</time></trkpt><trkpt lat="40.5818967" lon="15.4729567"><ele>809.0</ele><time>2026-04-26T09:39:28.865Z</time></trkpt><trkpt lat="40.581815" lon="15.4729233"><ele>809.0000000000001</ele><time>2026-04-26T09:39:29.864Z</time></trkpt><trkpt lat="40.58173" lon="15.4728867"><ele>809.0</ele><time>2026-04-26T09:39:30.865Z</time></trkpt><trkpt lat="40.5816433" lon="15.4728467"><ele>809.0</ele><time>2026-04-26T09:39:31.865Z</time></trkpt><trkpt lat="40.58155" lon="15.4728117"><ele>809.0</ele><time>2026-04-26T09:39:32.864Z</time></trkpt><trkpt lat="40.581455" lon="15.4727867"><ele>809.0</ele><time>2026-04-26T09:39:33.864Z</time></trkpt><trkpt lat="40.5813567" lon="15.4727717"><ele>809.0</ele><time>2026-04-26T09:39:34.864Z</time></trkpt><trkpt lat="40.5812633" lon="15.4727617"><ele>809.0</ele><time>2026-04-26T09:39:35.865Z</time></trkpt><trkpt lat="40.5811733" lon="15.4727617"><ele>809.0000000000001</ele><time>2026-04-26T09:39:36.865Z</time></trkpt><trkpt lat="40.581085" lon="15.47277"><ele>809.0</ele><time>2026-04-26T09:39:37.865Z</time></trkpt><trkpt lat="40.5809967" lon="15.4727783"><ele>809.0</ele><time>2026-04-26T09:39:38.864Z</time></trkpt><trkpt lat="40.58092" lon="15.4727783"><ele>809.0</ele><time>2026-04-26T09:39:39.865Z</time></trkpt><trkpt lat="40.5808467" lon="15.4727667"><ele>809.0000000000001</ele><time>2026-04-26T09:39:40.865Z</time></trkpt><trkpt lat="40.5807767" lon="15.472755"><ele>809.0</ele><time>2026-04-26T09:39:41.865Z</time></trkpt><trkpt lat="40.58071" lon="15.4727567"><ele>809.0</ele><time>2026-04-26T09:39:42.865Z</time></trkpt><trkpt lat="40.580645" lon="15.4727833"><ele>809.0</ele><time>2026-04-26T09:39:43.864Z</time></trkpt><trkpt lat="40.5805833" lon="15.4728333"><ele>809.0</ele><time>2026-04-26T09:39:44.864Z</time></trkpt><trkpt lat="40.5805267" lon="15.472895"><ele>809.0</ele><time>2026-04-26T09:39:45.865Z</time></trkpt><trkpt lat="40.5804817" lon="15.472965"><ele>809.0</ele><time>2026-04-26T09:39:46.864Z</time></trkpt><trkpt lat="40.58044" lon="15.4730417"><ele>809.0</ele><time>2026-04-26T09:39:47.864Z</time></trkpt><trkpt lat="40.5804017" lon="15.4731217"><ele>809.0</ele><time>2026-04-26T09:39:48.865Z</time></trkpt><trkpt lat="40.5803667" lon="15.4732067"><ele>807.5000000000001</ele><time>2026-04-26T09:39:49.864Z</time></trkpt><trkpt lat="40.5803367" lon="15.4732967"><ele>806.0</ele><time>2026-04-26T09:39:50.865Z</time></trkpt><trkpt lat="40.5803067" lon="15.47339"><ele>804.5</ele><time>2026-04-26T09:39:51.865Z</time></trkpt><trkpt lat="40.5802767" lon="15.4734867"><ele>803.0</ele><time>2026-04-26T09:39:52.864Z</time></trkpt><trkpt lat="40.5802433" lon="15.4735833"><ele>801.5000000000001</ele><time>2026-04-26T09:39:53.864Z</time></trkpt><trkpt lat="40.580205" lon="15.4736833"><ele>800.0</ele><time>2026-04-26T09:39:54.864Z</time></trkpt><trkpt lat="40.5801667" lon="15.47379"><ele>799.0</ele><time>2026-04-26T09:39:55.864Z</time></trkpt><trkpt lat="40.5801183" lon="15.4738967"><ele>798.0</ele><time>2026-04-26T09:39:56.865Z</time></trkpt><trkpt lat="40.5800617" lon="15.474005"><ele>797.0</ele><time>2026-04-26T09:39:57.864Z</time></trkpt><trkpt lat="40.5800067" lon="15.4741133"><ele>796.0</ele><time>2026-04-26T09:39:58.865Z</time></trkpt><trkpt lat="40.5799417" lon="15.4742233"><ele>795.0</ele><time>2026-04-26T09:39:59.864Z</time></trkpt><trkpt lat="40.5798717" lon="15.4743317"><ele>795.0</ele><time>2026-04-26T09:40:00.864Z</time></trkpt><trkpt lat="40.5797917" lon="15.47444"><ele>795.0</ele><time>2026-04-26T09:40:01.865Z</time></trkpt><trkpt lat="40.579705" lon="15.4745567"><ele>795.0</ele><time>2026-04-26T09:40:02.865Z</time></trkpt><trkpt lat="40.5796283" lon="15.4746817"><ele>795.0</ele><time>2026-04-26T09:40:03.864Z</time></trkpt><trkpt lat="40.5795667" lon="15.4747967"><ele>793.0</ele><time>2026-04-26T09:40:04.865Z</time></trkpt><trkpt lat="40.57952" lon="15.474895"><ele>791.0</ele><time>2026-04-26T09:40:05.864Z</time></trkpt><trkpt lat="40.5794583" lon="15.474975"><ele>789.0</ele><time>2026-04-26T09:40:06.864Z</time></trkpt><trkpt lat="40.5793817" lon="15.4750383"><ele>787.0</ele><time>2026-04-26T09:40:07.864Z</time></trkpt><trkpt lat="40.5792867" lon="15.4750917"><ele>785.0</ele><time>2026-04-26T09:40:08.865Z</time></trkpt><trkpt lat="40.5791883" lon="15.4751367"><ele>783.0</ele><time>2026-04-26T09:40:09.864Z</time></trkpt><trkpt lat="40.57909" lon="15.4751783"><ele>781.0</ele><time>2026-04-26T09:40:10.865Z</time></trkpt><trkpt lat="40.578995" lon="15.47521"><ele>779.0</ele><time>2026-04-26T09:40:11.864Z</time></trkpt><trkpt lat="40.5788983" lon="15.4752333"><ele>777.0</ele><time>2026-04-26T09:40:12.864Z</time></trkpt><trkpt lat="40.5788017" lon="15.4752567"><ele>775.0</ele><time>2026-04-26T09:40:13.865Z</time></trkpt><trkpt lat="40.5786967" lon="15.4752583"><ele>771.8</ele><time>2026-04-26T09:40:14.865Z</time></trkpt><trkpt lat="40.5785967" lon="15.475245"><ele>768.6</ele><time>2026-04-26T09:40:15.864Z</time></trkpt><trkpt lat="40.5784933" lon="15.4752183"><ele>765.4000000000001</ele><time>2026-04-26T09:40:16.865Z</time></trkpt><trkpt lat="40.5783933" lon="15.47519"><ele>762.2</ele><time>2026-04-26T09:40:17.865Z</time></trkpt><trkpt lat="40.5782933" lon="15.475165"><ele>759.0</ele><time>2026-04-26T09:40:18.864Z</time></trkpt><trkpt lat="40.578195" lon="15.475155"><ele>759.0</ele><time>2026-04-26T09:40:19.864Z</time></trkpt><trkpt lat="40.5781017" lon="15.47516"><ele>759.0</ele><time>2026-04-26T09:40:20.865Z</time></trkpt><trkpt lat="40.5780083" lon="15.475175"><ele>759.0</ele><time>2026-04-26T09:40:21.865Z</time></trkpt><trkpt lat="40.577915" lon="15.475215"><ele>759.0</ele><time>2026-04-26T09:40:22.865Z</time></trkpt><trkpt lat="40.5778233" lon="15.47527"><ele>759.0</ele><time>2026-04-26T09:40:23.864Z</time></trkpt><trkpt lat="40.5777367" lon="15.4753333"><ele>755.8000000000001</ele><time>2026-04-26T09:40:24.864Z</time></trkpt><trkpt lat="40.57765" lon="15.47541"><ele>752.6</ele><time>2026-04-26T09:40:25.865Z</time></trkpt><trkpt lat="40.5775683" lon="15.4755017"><ele>749.4</ele><time>2026-04-26T09:40:26.865Z</time></trkpt><trkpt lat="40.5774967" lon="15.475585"><ele>746.2</ele><time>2026-04-26T09:40:27.864Z</time></trkpt><trkpt lat="40.5774367" lon="15.4756717"><ele>743.0</ele><time>2026-04-26T09:40:28.865Z</time></trkpt><trkpt lat="40.5773833" lon="15.4757417"><ele>742.4</ele><time>2026-04-26T09:40:29.865Z</time></trkpt><trkpt lat="40.5773283" lon="15.4758"><ele>741.8</ele><time>2026-04-26T09:40:30.864Z</time></trkpt><trkpt lat="40.5772433" lon="15.4758783"><ele>741.2</ele><time>2026-04-26T09:40:32.864Z</time></trkpt><trkpt lat="40.5771717" lon="15.47596"><ele>740.6</ele><time>2026-04-26T09:40:35.864Z</time></trkpt><trkpt lat="40.5771117" lon="15.4761017"><ele>740.0</ele><time>2026-04-26T09:40:37.864Z</time></trkpt><trkpt lat="40.5770767" lon="15.4762083"><ele>739.0</ele><time>2026-04-26T09:40:38.865Z</time></trkpt><trkpt lat="40.5770433" lon="15.4763283"><ele>738.0</ele><time>2026-04-26T09:40:39.865Z</time></trkpt><trkpt lat="40.577005" lon="15.4764567"><ele>737.0</ele><time>2026-04-26T09:40:40.864Z</time></trkpt><trkpt lat="40.5769583" lon="15.4765817"><ele>736.0</ele><time>2026-04-26T09:40:41.865Z</time></trkpt><trkpt lat="40.5768967" lon="15.4767017"><ele>735.0</ele><time>2026-04-26T09:40:42.864Z</time></trkpt><trkpt lat="40.5768217" lon="15.476825"><ele>732.0</ele><time>2026-04-26T09:40:43.865Z</time></trkpt><trkpt lat="40.57676" lon="15.4769483"><ele>729.0</ele><time>2026-04-26T09:40:44.864Z</time></trkpt><trkpt lat="40.5766933" lon="15.477075"><ele>726.0</ele><time>2026-04-26T09:40:45.864Z</time></trkpt><trkpt lat="40.576625" lon="15.4771833"><ele>723.0</ele><time>2026-04-26T09:40:46.865Z</time></trkpt><trkpt lat="40.5765567" lon="15.4772883"><ele>720.0</ele><time>2026-04-26T09:40:47.864Z</time></trkpt><trkpt lat="40.5764783" lon="15.477385"><ele>720.0</ele><time>2026-04-26T09:40:48.865Z</time></trkpt><trkpt lat="40.576395" lon="15.477485"><ele>720.0</ele><time>2026-04-26T09:40:49.864Z</time></trkpt><trkpt lat="40.5763167" lon="15.477585"><ele>720.0</ele><time>2026-04-26T09:40:50.864Z</time></trkpt><trkpt lat="40.57624" lon="15.4776867"><ele>720.0</ele><time>2026-04-26T09:40:51.865Z</time></trkpt><trkpt lat="40.5761683" lon="15.4777817"><ele>720.0</ele><time>2026-04-26T09:40:52.864Z</time></trkpt><trkpt lat="40.5760933" lon="15.4778717"><ele>718.4</ele><time>2026-04-26T09:40:53.864Z</time></trkpt><trkpt lat="40.576015" lon="15.4779633"><ele>716.8</ele><time>2026-04-26T09:40:54.865Z</time></trkpt><trkpt lat="40.5759383" lon="15.4780583"><ele>715.2</ele><time>2026-04-26T09:40:55.864Z</time></trkpt><trkpt lat="40.5758633" lon="15.4781667"><ele>713.6</ele><time>2026-04-26T09:40:56.864Z</time></trkpt><trkpt lat="40.57579" lon="15.4782817"><ele>712.0</ele><time>2026-04-26T09:40:57.864Z</time></trkpt><trkpt lat="40.5757233" lon="15.4783967"><ele>712.0</ele><time>2026-04-26T09:40:58.865Z</time></trkpt><trkpt lat="40.5756517" lon="15.4785117"><ele>712.0</ele><time>2026-04-26T09:40:59.865Z</time></trkpt><trkpt lat="40.5755833" lon="15.47862"><ele>712.0</ele><time>2026-04-26T09:41:00.865Z</time></trkpt><trkpt lat="40.5755083" lon="15.4787217"><ele>712.0</ele><time>2026-04-26T09:41:01.865Z</time></trkpt><trkpt lat="40.5754267" lon="15.4788183"><ele>712.0</ele><time>2026-04-26T09:41:02.864Z</time></trkpt><trkpt lat="40.57534" lon="15.4789133"><ele>709.8</ele><time>2026-04-26T09:41:03.865Z</time></trkpt><trkpt lat="40.575255" lon="15.47901"><ele>707.6</ele><time>2026-04-26T09:41:04.864Z</time></trkpt><trkpt lat="40.5751867" lon="15.4791133"><ele>705.4</ele><time>2026-04-26T09:41:05.865Z</time></trkpt><trkpt lat="40.5751233" lon="15.4792267"><ele>703.1999999999999</ele><time>2026-04-26T09:41:06.864Z</time></trkpt><trkpt lat="40.57507" lon="15.4793417"><ele>701.0</ele><time>2026-04-26T09:41:07.864Z</time></trkpt><trkpt lat="40.5750117" lon="15.4794467"><ele>701.0</ele><time>2026-04-26T09:41:08.865Z</time></trkpt><trkpt lat="40.5749433" lon="15.47953"><ele>701.0</ele><time>2026-04-26T09:41:09.864Z</time></trkpt><trkpt lat="40.5748733" lon="15.4795883"><ele>701.0</ele><time>2026-04-26T09:41:10.864Z</time></trkpt><trkpt lat="40.574805" lon="15.479625"><ele>701.0</ele><time>2026-04-26T09:41:11.864Z</time></trkpt><trkpt lat="40.5746933" lon="15.4796817"><ele>701.0</ele><time>2026-04-26T09:41:33.865Z</time></trkpt><trkpt lat="40.574575" lon="15.479715"><ele>703.0</ele><time>2026-04-26T09:41:35.864Z</time></trkpt><trkpt lat="40.5745" lon="15.4797233"><ele>705.0</ele><time>2026-04-26T09:41:36.865Z</time></trkpt><trkpt lat="40.5744167" lon="15.4797183"><ele>707.0</ele><time>2026-04-26T09:41:37.864Z</time></trkpt><trkpt lat="40.5743133" lon="15.479705"><ele>709.0</ele><time>2026-04-26T09:41:38.864Z</time></trkpt><trkpt lat="40.574195" lon="15.4796967"><ele>711.0</ele><time>2026-04-26T09:41:39.864Z</time></trkpt><trkpt lat="40.5740733" lon="15.47968"><ele>711.0</ele><time>2026-04-26T09:41:40.864Z</time></trkpt><trkpt lat="40.5739567" lon="15.47966"><ele>711.0</ele><time>2026-04-26T09:41:41.864Z</time></trkpt><trkpt lat="40.573845" lon="15.4796467"><ele>711.0</ele><time>2026-04-26T09:41:42.865Z</time></trkpt><trkpt lat="40.57374" lon="15.4796667"><ele>711.0</ele><time>2026-04-26T09:41:43.865Z</time></trkpt><trkpt lat="40.5736433" lon="15.4797133"><ele>711.0</ele><time>2026-04-26T09:41:44.864Z</time></trkpt><trkpt lat="40.57356" lon="15.4797933"><ele>710.1999999999999</ele><time>2026-04-26T09:41:45.865Z</time></trkpt><trkpt lat="40.5734967" lon="15.4798967"><ele>709.4</ele><time>2026-04-26T09:41:46.865Z</time></trkpt><trkpt lat="40.573455" lon="15.48002"><ele>708.6</ele><time>2026-04-26T09:41:47.864Z</time></trkpt><trkpt lat="40.5734383" lon="15.4801517"><ele>707.8</ele><time>2026-04-26T09:41:48.864Z</time></trkpt><trkpt lat="40.573435" lon="15.4802933"><ele>707.0</ele><time>2026-04-26T09:41:49.864Z</time></trkpt><trkpt lat="40.57343" lon="15.480445"><ele>707.0</ele><time>2026-04-26T09:41:50.865Z</time></trkpt><trkpt lat="40.57342" lon="15.480595"><ele>707.0</ele><time>2026-04-26T09:41:51.865Z</time></trkpt><trkpt lat="40.5734183" lon="15.4807517"><ele>707.0</ele><time>2026-04-26T09:41:52.865Z</time></trkpt><trkpt lat="40.5734017" lon="15.4809117"><ele>707.0</ele><time>2026-04-26T09:41:53.864Z</time></trkpt><trkpt lat="40.57338" lon="15.48107"><ele>707.0</ele><time>2026-04-26T09:41:54.864Z</time></trkpt><trkpt lat="40.5733383" lon="15.4812233"><ele>707.0</ele><time>2026-04-26T09:41:55.864Z</time></trkpt><trkpt lat="40.573285" lon="15.4813733"><ele>707.0</ele><time>2026-04-26T09:41:56.865Z</time></trkpt><trkpt lat="40.5732083" lon="15.481505"><ele>707.0</ele><time>2026-04-26T09:41:57.864Z</time></trkpt><trkpt lat="40.5731133" lon="15.4816283"><ele>706.75</ele><time>2026-04-26T09:41:58.864Z</time></trkpt><trkpt lat="40.5730017" lon="15.4817433"><ele>706.5</ele><time>2026-04-26T09:41:59.865Z</time></trkpt><trkpt lat="40.5728883" lon="15.4818517"><ele>706.25</ele><time>2026-04-26T09:42:00.864Z</time></trkpt><trkpt lat="40.5727833" lon="15.48196"><ele>706.0</ele><time>2026-04-26T09:42:01.864Z</time></trkpt><trkpt lat="40.5726817" lon="15.48207"><ele>707.25</ele><time>2026-04-26T09:42:02.865Z</time></trkpt><trkpt lat="40.5725917" lon="15.4821917"><ele>708.5</ele><time>2026-04-26T09:42:03.865Z</time></trkpt><trkpt lat="40.5725083" lon="15.4823117"><ele>709.75</ele><time>2026-04-26T09:42:04.865Z</time></trkpt><trkpt lat="40.57243" lon="15.4824417"><ele>711.0</ele><time>2026-04-26T09:42:05.864Z</time></trkpt><trkpt lat="40.5723467" lon="15.48256"><ele>711.0</ele><time>2026-04-26T09:42:06.864Z</time></trkpt><trkpt lat="40.5722517" lon="15.48266"><ele>711.0</ele><time>2026-04-26T09:42:07.865Z</time></trkpt><trkpt lat="40.5721483" lon="15.4827367"><ele>711.0</ele><time>2026-04-26T09:42:08.864Z</time></trkpt><trkpt lat="40.572035" lon="15.482795"><ele>711.0</ele><time>2026-04-26T09:42:09.865Z</time></trkpt><trkpt lat="40.5719167" lon="15.4828433"><ele>710.5</ele><time>2026-04-26T09:42:10.864Z</time></trkpt><trkpt lat="40.5718033" lon="15.482895"><ele>710.0</ele><time>2026-04-26T09:42:11.865Z</time></trkpt><trkpt lat="40.5716883" lon="15.4829583"><ele>709.5</ele><time>2026-04-26T09:42:12.864Z</time></trkpt><trkpt lat="40.57157" lon="15.483035"><ele>709.0</ele><time>2026-04-26T09:42:13.865Z</time></trkpt><trkpt lat="40.5714567" lon="15.48312"><ele>709.75</ele><time>2026-04-26T09:42:14.865Z</time></trkpt><trkpt lat="40.57134" lon="15.4832033"><ele>710.5</ele><time>2026-04-26T09:42:15.865Z</time></trkpt><trkpt lat="40.5712283" lon="15.48328"><ele>711.25</ele><time>2026-04-26T09:42:16.865Z</time></trkpt><trkpt lat="40.571125" lon="15.4833633"><ele>712.0</ele><time>2026-04-26T09:42:17.865Z</time></trkpt><trkpt lat="40.57103" lon="15.483445"><ele>712.0</ele><time>2026-04-26T09:42:18.864Z</time></trkpt><trkpt lat="40.5709367" lon="15.4835283"><ele>712.0</ele><time>2026-04-26T09:42:19.865Z</time></trkpt><trkpt lat="40.570845" lon="15.4836117"><ele>712.0</ele><time>2026-04-26T09:42:20.864Z</time></trkpt><trkpt lat="40.5707617" lon="15.4836933"><ele>712.0</ele><time>2026-04-26T09:42:21.864Z</time></trkpt><trkpt lat="40.5706733" lon="15.48378"><ele>712.0</ele><time>2026-04-26T09:42:22.864Z</time></trkpt><trkpt lat="40.570585" lon="15.4838667"><ele>711.2</ele><time>2026-04-26T09:42:23.864Z</time></trkpt><trkpt lat="40.57049" lon="15.483945"><ele>710.4000000000001</ele><time>2026-04-26T09:42:24.865Z</time></trkpt><trkpt lat="40.5703933" lon="15.484005"><ele>709.5999999999999</ele><time>2026-04-26T09:42:25.864Z</time></trkpt><trkpt lat="40.5702933" lon="15.4840567"><ele>708.8</ele><time>2026-04-26T09:42:26.865Z</time></trkpt><trkpt lat="40.5701883" lon="15.4841117"><ele>708.0</ele><time>2026-04-26T09:42:27.865Z</time></trkpt><trkpt lat="40.5700783" lon="15.4841583"><ele>707.8</ele><time>2026-04-26T09:42:28.864Z</time></trkpt><trkpt lat="40.5699683" lon="15.4842017"><ele>707.5999999999999</ele><time>2026-04-26T09:42:29.864Z</time></trkpt><trkpt lat="40.569855" lon="15.484245"><ele>707.4000000000001</ele><time>2026-04-26T09:42:30.865Z</time></trkpt><trkpt lat="40.5697467" lon="15.484285"><ele>707.2</ele><time>2026-04-26T09:42:31.864Z</time></trkpt><trkpt lat="40.5696533" lon="15.48433"><ele>707.0</ele><time>2026-04-26T09:42:32.865Z</time></trkpt><trkpt lat="40.569565" lon="15.4843883"><ele>707.2</ele><time>2026-04-26T09:42:33.865Z</time></trkpt><trkpt lat="40.5694883" lon="15.4844717"><ele>707.4000000000001</ele><time>2026-04-26T09:42:34.864Z</time></trkpt><trkpt lat="40.56943" lon="15.4845683"><ele>707.5999999999999</ele><time>2026-04-26T09:42:35.865Z</time></trkpt><trkpt lat="40.5693983" lon="15.48469"><ele>707.8</ele><time>2026-04-26T09:42:36.865Z</time></trkpt><trkpt lat="40.5694017" lon="15.4848167"><ele>708.0</ele><time>2026-04-26T09:42:37.864Z</time></trkpt><trkpt lat="40.5694317" lon="15.4849383"><ele>706.5</ele><time>2026-04-26T09:42:38.865Z</time></trkpt><trkpt lat="40.5694683" lon="15.4850667"><ele>705.0</ele><time>2026-04-26T09:42:39.865Z</time></trkpt><trkpt lat="40.569495" lon="15.485185"><ele>703.5</ele><time>2026-04-26T09:42:40.864Z</time></trkpt><trkpt lat="40.56951" lon="15.4853"><ele>702.0</ele><time>2026-04-26T09:42:41.864Z</time></trkpt><trkpt lat="40.5695183" lon="15.48541"><ele>700.5</ele><time>2026-04-26T09:42:42.865Z</time></trkpt><trkpt lat="40.5695233" lon="15.4855017"><ele>699.0</ele><time>2026-04-26T09:42:43.865Z</time></trkpt><trkpt lat="40.5695333" lon="15.4856133"><ele>699.0</ele><time>2026-04-26T09:42:45.865Z</time></trkpt><trkpt lat="40.5695317" lon="15.4857183"><ele>699.0</ele><time>2026-04-26T09:42:49.865Z</time></trkpt><trkpt lat="40.5695483" lon="15.4858167"><ele>699.0</ele><time>2026-04-26T09:43:51.865Z</time></trkpt><trkpt lat="40.5695683" lon="15.4859117"><ele>699.0</ele><time>2026-04-26T09:43:52.864Z</time></trkpt><trkpt lat="40.5695867" lon="15.4860183"><ele>699.0</ele><time>2026-04-26T09:43:53.864Z</time></trkpt><trkpt lat="40.569605" lon="15.48615"><ele>699.0</ele><time>2026-04-26T09:43:54.865Z</time></trkpt><trkpt lat="40.56962" lon="15.4863"><ele>698.75</ele><time>2026-04-26T09:43:55.865Z</time></trkpt><trkpt lat="40.5696267" lon="15.48646"><ele>698.5</ele><time>2026-04-26T09:43:56.865Z</time></trkpt><trkpt lat="40.5696233" lon="15.48662"><ele>698.25</ele><time>2026-04-26T09:43:57.865Z</time></trkpt><trkpt lat="40.5696133" lon="15.4867883"><ele>698.0</ele><time>2026-04-26T09:43:58.864Z</time></trkpt><trkpt lat="40.56962" lon="15.486965"><ele>699.0</ele><time>2026-04-26T09:43:59.865Z</time></trkpt><trkpt lat="40.5696383" lon="15.4871483"><ele>700.0</ele><time>2026-04-26T09:44:00.865Z</time></trkpt><trkpt lat="40.5696383" lon="15.4873333"><ele>701.0</ele><time>2026-04-26T09:44:01.864Z</time></trkpt><trkpt lat="40.5696217" lon="15.4875367"><ele>702.0</ele><time>2026-04-26T09:44:02.864Z</time></trkpt><trkpt lat="40.5696233" lon="15.4877617"><ele>704.3333333333334</ele><time>2026-04-26T09:44:03.865Z</time></trkpt><trkpt lat="40.5696333" lon="15.487995"><ele>706.6666666666667</ele><time>2026-04-26T09:44:04.864Z</time></trkpt><trkpt lat="40.569635" lon="15.4882333"><ele>709.0</ele><time>2026-04-26T09:44:05.864Z</time></trkpt><trkpt lat="40.569645" lon="15.4884717"><ele>709.0</ele><time>2026-04-26T09:44:06.865Z</time></trkpt><trkpt lat="40.5696617" lon="15.4886983"><ele>709.0</ele><time>2026-04-26T09:44:07.864Z</time></trkpt><trkpt lat="40.5697017" lon="15.4889133"><ele>709.0</ele><time>2026-04-26T09:44:08.864Z</time></trkpt><trkpt lat="40.56974" lon="15.4891133"><ele>712.6666666666667</ele><time>2026-04-26T09:44:09.864Z</time></trkpt><trkpt lat="40.5697483" lon="15.4893"><ele>716.3333333333334</ele><time>2026-04-26T09:44:10.865Z</time></trkpt><trkpt lat="40.5697367" lon="15.4894967"><ele>720.0</ele><time>2026-04-26T09:44:11.864Z</time></trkpt><trkpt lat="40.5697217" lon="15.4897083"><ele>720.6666666666666</ele><time>2026-04-26T09:44:12.865Z</time></trkpt><trkpt lat="40.569725" lon="15.4899117"><ele>721.3333333333333</ele><time>2026-04-26T09:44:13.864Z</time></trkpt><trkpt lat="40.5697233" lon="15.4901083"><ele>722.0</ele><time>2026-04-26T09:44:14.865Z</time></trkpt><trkpt lat="40.5697083" lon="15.4903083"><ele>721.5</ele><time>2026-04-26T09:44:15.865Z</time></trkpt><trkpt lat="40.5696967" lon="15.49051"><ele>721.0</ele><time>2026-04-26T09:44:16.865Z</time></trkpt><trkpt lat="40.5696967" lon="15.4907067"><ele>720.5</ele><time>2026-04-26T09:44:17.864Z</time></trkpt><trkpt lat="40.5696867" lon="15.490875"><ele>720.0</ele><time>2026-04-26T09:44:18.864Z</time></trkpt><trkpt lat="40.569655" lon="15.491035"><ele>720.0</ele><time>2026-04-26T09:44:19.864Z</time></trkpt><trkpt lat="40.5696167" lon="15.4911767"><ele>720.0</ele><time>2026-04-26T09:44:20.864Z</time></trkpt><trkpt lat="40.569565" lon="15.491315"><ele>720.0</ele><time>2026-04-26T09:44:21.865Z</time></trkpt><trkpt lat="40.5695283" lon="15.4914533"><ele>720.0</ele><time>2026-04-26T09:44:22.864Z</time></trkpt><trkpt lat="40.569485" lon="15.491595"><ele>732.0</ele><time>2026-04-26T09:44:23.864Z</time></trkpt><trkpt lat="40.569435" lon="15.491735"><ele>744.0</ele><time>2026-04-26T09:44:24.865Z</time></trkpt><trkpt lat="40.5693867" lon="15.4918683"><ele>756.0</ele><time>2026-04-26T09:44:25.864Z</time></trkpt><trkpt lat="40.5693767" lon="15.4919967"><ele>768.0</ele><time>2026-04-26T09:44:26.865Z</time></trkpt><trkpt lat="40.5694" lon="15.4921217"><ele>780.0</ele><time>2026-04-26T09:44:27.865Z</time></trkpt><trkpt lat="40.56946" lon="15.4922517"><ele>768.25</ele><time>2026-04-26T09:44:28.864Z</time></trkpt><trkpt lat="40.569535" lon="15.4924"><ele>756.5</ele><time>2026-04-26T09:44:29.864Z</time></trkpt><trkpt lat="40.5696067" lon="15.4925567"><ele>744.75</ele><time>2026-04-26T09:44:30.865Z</time></trkpt><trkpt lat="40.5696483" lon="15.492725"><ele>733.0</ele><time>2026-04-26T09:44:31.865Z</time></trkpt><trkpt lat="40.5696667" lon="15.4928933"><ele>734.5999999999999</ele><time>2026-04-26T09:44:32.864Z</time></trkpt><trkpt lat="40.5696817" lon="15.4930617"><ele>736.1999999999999</ele><time>2026-04-26T09:44:33.864Z</time></trkpt><trkpt lat="40.5696933" lon="15.4932183"><ele>737.8</ele><time>2026-04-26T09:44:34.865Z</time></trkpt><trkpt lat="40.5696883" lon="15.493345"><ele>739.4</ele><time>2026-04-26T09:44:35.865Z</time></trkpt><trkpt lat="40.56966" lon="15.4934517"><ele>741.0</ele><time>2026-04-26T09:44:36.864Z</time></trkpt><trkpt lat="40.5696033" lon="15.4935133"><ele>747.5</ele><time>2026-04-26T09:44:37.865Z</time></trkpt><trkpt lat="40.569525" lon="15.4935167"><ele>754.0</ele><time>2026-04-26T09:44:38.864Z</time></trkpt><trkpt lat="40.5694533" lon="15.4934767"><ele>760.5</ele><time>2026-04-26T09:44:39.865Z</time></trkpt><trkpt lat="40.5693883" lon="15.4934217"><ele>767.0</ele><time>2026-04-26T09:44:40.865Z</time></trkpt><trkpt lat="40.5693167" lon="15.4933717"><ele>773.5</ele><time>2026-04-26T09:44:41.865Z</time></trkpt><trkpt lat="40.569245" lon="15.4933567"><ele>780.0</ele><time>2026-04-26T09:44:42.864Z</time></trkpt><trkpt lat="40.5691667" lon="15.4933733"><ele>780.0</ele><time>2026-04-26T09:44:43.864Z</time></trkpt><trkpt lat="40.5691" lon="15.4934333"><ele>780.0</ele><time>2026-04-26T09:44:44.864Z</time></trkpt><trkpt lat="40.56904" lon="15.4935117"><ele>780.0</ele><time>2026-04-26T09:44:45.865Z</time></trkpt><trkpt lat="40.5690067" lon="15.493625"><ele>780.0</ele><time>2026-04-26T09:44:46.864Z</time></trkpt><trkpt lat="40.5690017" lon="15.4937467"><ele>780.0</ele><time>2026-04-26T09:44:47.865Z</time></trkpt><trkpt lat="40.5690333" lon="15.4938817"><ele>780.75</ele><time>2026-04-26T09:44:48.865Z</time></trkpt><trkpt lat="40.569105" lon="15.49404"><ele>781.5</ele><time>2026-04-26T09:44:49.865Z</time></trkpt><trkpt lat="40.5691867" lon="15.4942117"><ele>782.25</ele><time>2026-04-26T09:44:50.865Z</time></trkpt><trkpt lat="40.5692583" lon="15.4943833"><ele>783.0</ele><time>2026-04-26T09:44:51.865Z</time></trkpt><trkpt lat="40.5693233" lon="15.49455"><ele>784.4</ele><time>2026-04-26T09:44:52.864Z</time></trkpt><trkpt lat="40.5693733" lon="15.4946983"><ele>785.8</ele><time>2026-04-26T09:44:53.865Z</time></trkpt><trkpt lat="40.569395" lon="15.4948083"><ele>787.2</ele><time>2026-04-26T09:44:54.864Z</time></trkpt><trkpt lat="40.5693283" lon="15.4949217"><ele>788.6</ele><time>2026-04-26T09:44:56.864Z</time></trkpt><trkpt lat="40.5692517" lon="15.4949183"><ele>790.0</ele><time>2026-04-26T09:44:57.865Z</time></trkpt><trkpt lat="40.5691867" lon="15.4948583"><ele>790.0</ele><time>2026-04-26T09:44:58.865Z</time></trkpt><trkpt lat="40.5691233" lon="15.4947467"><ele>790.0</ele><time>2026-04-26T09:44:59.864Z</time></trkpt><trkpt lat="40.569065" lon="15.49461"><ele>790.0</ele><time>2026-04-26T09:45:00.864Z</time></trkpt><trkpt lat="40.5689983" lon="15.4944767"><ele>790.0</ele><time>2026-04-26T09:45:01.864Z</time></trkpt><trkpt lat="40.568905" lon="15.494375"><ele>788.25</ele><time>2026-04-26T09:45:02.864Z</time></trkpt><trkpt lat="40.5688183" lon="15.4942667"><ele>786.5</ele><time>2026-04-26T09:45:03.865Z</time></trkpt><trkpt lat="40.5687133" lon="15.4941433"><ele>784.75</ele><time>2026-04-26T09:45:04.864Z</time></trkpt><trkpt lat="40.5686417" lon="15.4939733"><ele>783.0</ele><time>2026-04-26T09:45:05.865Z</time></trkpt><trkpt lat="40.5685667" lon="15.493815"><ele>788.25</ele><time>2026-04-26T09:45:06.865Z</time></trkpt><trkpt lat="40.568495" lon="15.49366"><ele>793.5</ele><time>2026-04-26T09:45:07.864Z</time></trkpt><trkpt lat="40.5684333" lon="15.4935117"><ele>798.75</ele><time>2026-04-26T09:45:08.865Z</time></trkpt><trkpt lat="40.5683767" lon="15.4933733"><ele>804.0</ele><time>2026-04-26T09:45:09.864Z</time></trkpt><trkpt lat="40.5683417" lon="15.4932283"><ele>804.0</ele><time>2026-04-26T09:45:10.864Z</time></trkpt><trkpt lat="40.5683267" lon="15.49308"><ele>804.0</ele><time>2026-04-26T09:45:11.864Z</time></trkpt><trkpt lat="40.5683217" lon="15.4929267"><ele>804.0</ele><time>2026-04-26T09:45:12.864Z</time></trkpt><trkpt lat="40.568325" lon="15.492785"><ele>804.0</ele><time>2026-04-26T09:45:13.865Z</time></trkpt><trkpt lat="40.56831" lon="15.4926617"><ele>804.0</ele><time>2026-04-26T09:45:14.865Z</time></trkpt><trkpt lat="40.5682883" lon="15.492555"><ele>804.2</ele><time>2026-04-26T09:45:15.865Z</time></trkpt><trkpt lat="40.5682517" lon="15.4924433"><ele>804.4000000000001</ele><time>2026-04-26T09:45:17.865Z</time></trkpt><trkpt lat="40.5681667" lon="15.49241"><ele>804.6</ele><time>2026-04-26T09:45:23.865Z</time></trkpt><trkpt lat="40.56805" lon="15.49239"><ele>804.8</ele><time>2026-04-26T09:45:25.864Z</time></trkpt><trkpt lat="40.56796" lon="15.4923533"><ele>805.0</ele><time>2026-04-26T09:45:27.865Z</time></trkpt><trkpt lat="40.567885" lon="15.4923333"><ele>805.1666666666666</ele><time>2026-04-26T09:45:29.865Z</time></trkpt><trkpt lat="40.5678117" lon="15.492315"><ele>805.3333333333333</ele><time>2026-04-26T09:45:31.864Z</time></trkpt><trkpt lat="40.5677433" lon="15.4923067"><ele>805.5</ele><time>2026-04-26T09:45:33.864Z</time></trkpt><trkpt lat="40.56767" lon="15.492325"><ele>805.6666666666667</ele><time>2026-04-26T09:45:35.865Z</time></trkpt><trkpt lat="40.5675967" lon="15.492415"><ele>805.8333333333334</ele><time>2026-04-26T09:45:37.865Z</time></trkpt><trkpt lat="40.5675333" lon="15.4925317"><ele>806.0</ele><time>2026-04-26T09:45:39.864Z</time></trkpt><trkpt lat="40.5674967" lon="15.4926"><ele>806.0000000000001</ele><time>2026-04-26T09:45:40.865Z</time></trkpt><trkpt lat="40.5674533" lon="15.492675"><ele>806.0</ele><time>2026-04-26T09:45:41.864Z</time></trkpt><trkpt lat="40.56741" lon="15.4927567"><ele>806.0</ele><time>2026-04-26T09:45:42.865Z</time></trkpt><trkpt lat="40.567365" lon="15.4928383"><ele>806.0</ele><time>2026-04-26T09:45:43.864Z</time></trkpt><trkpt lat="40.56732" lon="15.49292"><ele>806.0000000000001</ele><time>2026-04-26T09:45:44.864Z</time></trkpt><trkpt lat="40.5672767" lon="15.4930083"><ele>806.0</ele><time>2026-04-26T09:45:45.864Z</time></trkpt><trkpt lat="40.5672333" lon="15.4931033"><ele>806.6666666666667</ele><time>2026-04-26T09:45:46.864Z</time></trkpt><trkpt lat="40.5671933" lon="15.4932083"><ele>807.3333333333334</ele><time>2026-04-26T09:45:47.864Z</time></trkpt><trkpt lat="40.56715" lon="15.4933067"><ele>808.0</ele><time>2026-04-26T09:45:48.865Z</time></trkpt><trkpt lat="40.5671083" lon="15.4934083"><ele>808.6666666666667</ele><time>2026-04-26T09:45:49.865Z</time></trkpt><trkpt lat="40.56707" lon="15.4935033"><ele>809.3333333333334</ele><time>2026-04-26T09:45:50.864Z</time></trkpt><trkpt lat="40.567035" lon="15.4935933"><ele>810.0</ele><time>2026-04-26T09:45:51.865Z</time></trkpt><trkpt lat="40.5669983" lon="15.4936867"><ele>807.6666666666666</ele><time>2026-04-26T09:45:52.864Z</time></trkpt><trkpt lat="40.5669633" lon="15.49378"><ele>805.3333333333333</ele><time>2026-04-26T09:45:53.865Z</time></trkpt><trkpt lat="40.56693" lon="15.4938767"><ele>803.0</ele><time>2026-04-26T09:45:54.864Z</time></trkpt><trkpt lat="40.5668967" lon="15.4939683"><ele>800.6666666666666</ele><time>2026-04-26T09:45:55.865Z</time></trkpt><trkpt lat="40.566855" lon="15.4940583"><ele>798.3333333333333</ele><time>2026-04-26T09:45:56.865Z</time></trkpt><trkpt lat="40.5668217" lon="15.4941483"><ele>796.0</ele><time>2026-04-26T09:45:57.865Z</time></trkpt><trkpt lat="40.566785" lon="15.49424"><ele>795.9999999999999</ele><time>2026-04-26T09:45:58.864Z</time></trkpt><trkpt lat="40.5667417" lon="15.4943267"><ele>796.0</ele><time>2026-04-26T09:45:59.865Z</time></trkpt><trkpt lat="40.56671" lon="15.4944167"><ele>796.0</ele><time>2026-04-26T09:46:00.864Z</time></trkpt><trkpt lat="40.5666933" lon="15.4945133"><ele>796.0</ele><time>2026-04-26T09:46:01.865Z</time></trkpt><trkpt lat="40.5666983" lon="15.4946133"><ele>795.9999999999999</ele><time>2026-04-26T09:46:02.865Z</time></trkpt><trkpt lat="40.5667183" lon="15.4947183"><ele>796.0</ele><time>2026-04-26T09:46:03.865Z</time></trkpt><trkpt lat="40.5667433" lon="15.4948217"><ele>795.5999999999999</ele><time>2026-04-26T09:46:04.864Z</time></trkpt><trkpt lat="40.56677" lon="15.4949317"><ele>795.2</ele><time>2026-04-26T09:46:05.864Z</time></trkpt><trkpt lat="40.5667983" lon="15.4950383"><ele>794.8</ele><time>2026-04-26T09:46:06.865Z</time></trkpt><trkpt lat="40.5668217" lon="15.495155"><ele>794.4000000000001</ele><time>2026-04-26T09:46:07.865Z</time></trkpt><trkpt lat="40.5668417" lon="15.49528"><ele>794.0</ele><time>2026-04-26T09:46:08.864Z</time></trkpt><trkpt lat="40.5668517" lon="15.49541"><ele>793.2</ele><time>2026-04-26T09:46:09.864Z</time></trkpt><trkpt lat="40.5668533" lon="15.4955467"><ele>792.4000000000001</ele><time>2026-04-26T09:46:10.864Z</time></trkpt><trkpt lat="40.5668367" lon="15.4956833"><ele>791.6</ele><time>2026-04-26T09:46:11.864Z</time></trkpt><trkpt lat="40.56681" lon="15.4958117"><ele>790.8</ele><time>2026-04-26T09:46:12.864Z</time></trkpt><trkpt lat="40.566765" lon="15.4959267"><ele>790.0</ele><time>2026-04-26T09:46:13.864Z</time></trkpt><trkpt lat="40.5667133" lon="15.49603"><ele>789.9999999999999</ele><time>2026-04-26T09:46:14.864Z</time></trkpt><trkpt lat="40.566655" lon="15.4961133"><ele>790.0</ele><time>2026-04-26T09:46:15.864Z</time></trkpt><trkpt lat="40.5665883" lon="15.49618"><ele>790.0</ele><time>2026-04-26T09:46:16.864Z</time></trkpt><trkpt lat="40.5665217" lon="15.4962317"><ele>790.0</ele><time>2026-04-26T09:46:17.865Z</time></trkpt><trkpt lat="40.56645" lon="15.4962767"><ele>789.9999999999999</ele><time>2026-04-26T09:46:18.865Z</time></trkpt><trkpt lat="40.5663683" lon="15.4963117"><ele>790.0</ele><time>2026-04-26T09:46:19.864Z</time></trkpt><trkpt lat="40.5662817" lon="15.4963433"><ele>789.2</ele><time>2026-04-26T09:46:20.864Z</time></trkpt><trkpt lat="40.5661883" lon="15.4963717"><ele>788.4</ele><time>2026-04-26T09:46:21.864Z</time></trkpt><trkpt lat="40.5660983" lon="15.496385"><ele>787.5999999999999</ele><time>2026-04-26T09:46:22.865Z</time></trkpt><trkpt lat="40.5660083" lon="15.49637"><ele>786.8</ele><time>2026-04-26T09:46:23.865Z</time></trkpt><trkpt lat="40.56592" lon="15.4963283"><ele>786.0</ele><time>2026-04-26T09:46:24.864Z</time></trkpt><trkpt lat="40.56583" lon="15.496295"><ele>786.0</ele><time>2026-04-26T09:46:25.864Z</time></trkpt><trkpt lat="40.565745" lon="15.4962817"><ele>786.0</ele><time>2026-04-26T09:46:26.864Z</time></trkpt><trkpt lat="40.5656633" lon="15.49629"><ele>786.0</ele><time>2026-04-26T09:46:27.865Z</time></trkpt><trkpt lat="40.5655917" lon="15.4963267"><ele>786.0</ele><time>2026-04-26T09:46:28.864Z</time></trkpt><trkpt lat="40.565525" lon="15.4963867"><ele>786.0</ele><time>2026-04-26T09:46:29.864Z</time></trkpt><trkpt lat="40.565475" lon="15.496465"><ele>786.0</ele><time>2026-04-26T09:46:30.864Z</time></trkpt><trkpt lat="40.5654533" lon="15.4965583"><ele>786.0</ele><time>2026-04-26T09:46:31.864Z</time></trkpt><trkpt lat="40.56546" lon="15.49666"><ele>786.0</ele><time>2026-04-26T09:46:32.865Z</time></trkpt><trkpt lat="40.5654667" lon="15.4967783"><ele>786.0</ele><time>2026-04-26T09:46:33.865Z</time></trkpt><trkpt lat="40.5654733" lon="15.49689"><ele>786.0</ele><time>2026-04-26T09:46:34.864Z</time></trkpt><trkpt lat="40.5654567" lon="15.496995"><ele>786.0</ele><time>2026-04-26T09:46:35.865Z</time></trkpt><trkpt lat="40.565415" lon="15.4970983"><ele>786.0</ele><time>2026-04-26T09:46:36.864Z</time></trkpt><trkpt lat="40.5653683" lon="15.49717"><ele>785.0000000000001</ele><time>2026-04-26T09:46:37.864Z</time></trkpt><trkpt lat="40.56532" lon="15.497235"><ele>784.0</ele><time>2026-04-26T09:46:38.865Z</time></trkpt><trkpt lat="40.5652683" lon="15.497295"><ele>783.0</ele><time>2026-04-26T09:46:39.864Z</time></trkpt><trkpt lat="40.5652217" lon="15.497355"><ele>782.0</ele><time>2026-04-26T09:46:40.864Z</time></trkpt><trkpt lat="40.5651733" lon="15.49742"><ele>781.0</ele><time>2026-04-26T09:46:41.865Z</time></trkpt><trkpt lat="40.5651283" lon="15.4974883"><ele>780.0000000000001</ele><time>2026-04-26T09:46:42.864Z</time></trkpt><trkpt lat="40.5650783" lon="15.49756"><ele>779.0</ele><time>2026-04-26T09:46:43.865Z</time></trkpt><trkpt lat="40.5650317" lon="15.4976333"><ele>779.0</ele><time>2026-04-26T09:46:44.864Z</time></trkpt><trkpt lat="40.5649767" lon="15.4977183"><ele>779.0</ele><time>2026-04-26T09:46:45.865Z</time></trkpt><trkpt lat="40.5649167" lon="15.4978083"><ele>779.0</ele><time>2026-04-26T09:46:46.865Z</time></trkpt><trkpt lat="40.5648367" lon="15.497875"><ele>779.0</ele><time>2026-04-26T09:46:47.865Z</time></trkpt><trkpt lat="40.5647467" lon="15.49791"><ele>779.0</ele><time>2026-04-26T09:46:48.864Z</time></trkpt><trkpt lat="40.5646467" lon="15.49788"><ele>779.0000000000001</ele><time>2026-04-26T09:46:49.865Z</time></trkpt><trkpt lat="40.5645567" lon="15.497835"><ele>779.0</ele><time>2026-04-26T09:46:50.865Z</time></trkpt><trkpt lat="40.5644733" lon="15.497795"><ele>779.0</ele><time>2026-04-26T09:46:51.865Z</time></trkpt><trkpt lat="40.564395" lon="15.4977783"><ele>779.0</ele><time>2026-04-26T09:46:52.865Z</time></trkpt><trkpt lat="40.5643133" lon="15.4977783"><ele>779.0000000000001</ele><time>2026-04-26T09:46:53.863Z</time></trkpt><trkpt lat="40.5642367" lon="15.4977967"><ele>779.0</ele><time>2026-04-26T09:46:54.863Z</time></trkpt><trkpt lat="40.564165" lon="15.4978383"><ele>778.1666666666667</ele><time>2026-04-26T09:46:55.863Z</time></trkpt><trkpt lat="40.5641033" lon="15.4978917"><ele>777.3333333333334</ele><time>2026-04-26T09:46:56.864Z</time></trkpt><trkpt lat="40.56405" lon="15.4979483"><ele>776.5</ele><time>2026-04-26T09:46:57.863Z</time></trkpt><trkpt lat="40.5640017" lon="15.4980033"><ele>775.6666666666667</ele><time>2026-04-26T09:46:58.864Z</time></trkpt><trkpt lat="40.56393" lon="15.49809"><ele>774.8333333333334</ele><time>2026-04-26T09:47:00.863Z</time></trkpt><trkpt lat="40.56387" lon="15.49818"><ele>774.0</ele><time>2026-04-26T09:47:45.864Z</time></trkpt><trkpt lat="40.56379" lon="15.498265"><ele>772.0</ele><time>2026-04-26T09:47:47.863Z</time></trkpt><trkpt lat="40.563685" lon="15.4983233"><ele>770.0</ele><time>2026-04-26T09:47:49.864Z</time></trkpt><trkpt lat="40.5636217" lon="15.4983283"><ele>768.0</ele><time>2026-04-26T09:47:50.863Z</time></trkpt><trkpt lat="40.56355" lon="15.498325"><ele>766.0</ele><time>2026-04-26T09:47:51.864Z</time></trkpt><trkpt lat="40.5634783" lon="15.4983117"><ele>764.0</ele><time>2026-04-26T09:47:52.863Z</time></trkpt><trkpt lat="40.5634017" lon="15.4982933"><ele>762.0</ele><time>2026-04-26T09:47:53.864Z</time></trkpt><trkpt lat="40.5633217" lon="15.49829"><ele>762.0</ele><time>2026-04-26T09:47:54.864Z</time></trkpt><trkpt lat="40.5632517" lon="15.4983167"><ele>762.0</ele><time>2026-04-26T09:47:55.863Z</time></trkpt><trkpt lat="40.5631867" lon="15.4983533"><ele>762.0</ele><time>2026-04-26T09:47:56.864Z</time></trkpt><trkpt lat="40.56313" lon="15.4984117"><ele>762.0</ele><time>2026-04-26T09:47:57.863Z</time></trkpt><trkpt lat="40.563085" lon="15.4984767"><ele>762.0</ele><time>2026-04-26T09:47:58.863Z</time></trkpt><trkpt lat="40.563035" lon="15.4986"><ele>762.0</ele><time>2026-04-26T09:48:00.863Z</time></trkpt><trkpt lat="40.562945" lon="15.4985833"><ele>762.0</ele><time>2026-04-26T09:48:03.864Z</time></trkpt><trkpt lat="40.562875" lon="15.498495"><ele>762.0</ele><time>2026-04-26T09:48:05.863Z</time></trkpt><trkpt lat="40.5628133" lon="15.4984133"><ele>762.0</ele><time>2026-04-26T09:48:07.864Z</time></trkpt><trkpt lat="40.5627567" lon="15.498335"><ele>762.0</ele><time>2026-04-26T09:48:09.863Z</time></trkpt><trkpt lat="40.56287" lon="15.4987067"><ele>762.0</ele><time>2026-04-26T09:52:17.882Z</time></trkpt><trkpt lat="40.562945" lon="15.4987017"><ele>762.0</ele><time>2026-04-26T09:53:23.881Z</time></trkpt><trkpt lat="40.56303" lon="15.49867"><ele>762.0</ele><time>2026-04-26T09:54:13.88Z</time></trkpt><trkpt lat="40.563065" lon="15.498595"><ele>762.0</ele><time>2026-04-26T09:54:15.88Z</time></trkpt><trkpt lat="40.5631033" lon="15.4985167"><ele>762.0</ele><time>2026-04-26T09:54:17.881Z</time></trkpt><trkpt lat="40.5631467" lon="15.498435"><ele>762.0</ele><time>2026-04-26T09:54:19.88Z</time></trkpt><trkpt lat="40.5631917" lon="15.49837"><ele>762.0</ele><time>2026-04-26T09:54:21.88Z</time></trkpt><trkpt lat="40.5632533" lon="15.4983333"><ele>762.0</ele><time>2026-04-26T09:54:23.881Z</time></trkpt><trkpt lat="40.563335" lon="15.498335"><ele>762.0</ele><time>2026-04-26T09:54:25.88Z</time></trkpt><trkpt lat="40.5634183" lon="15.4983483"><ele>762.0</ele><time>2026-04-26T09:54:27.88Z</time></trkpt><trkpt lat="40.5634933" lon="15.49837"><ele>762.0</ele><time>2026-04-26T09:54:29.881Z</time></trkpt><trkpt lat="40.56357" lon="15.49838"><ele>762.0</ele><time>2026-04-26T09:54:31.881Z</time></trkpt><trkpt lat="40.563645" lon="15.498375"><ele>762.0</ele><time>2026-04-26T09:54:33.88Z</time></trkpt><trkpt lat="40.563725" lon="15.4984133"><ele>762.0</ele><time>2026-04-26T09:54:36.881Z</time></trkpt><trkpt lat="40.563735" lon="15.4985133"><ele>762.0</ele><time>2026-04-26T09:54:39.881Z</time></trkpt><trkpt lat="40.5636833" lon="15.4986283"><ele>762.0</ele><time>2026-04-26T09:55:06.881Z</time></trkpt><trkpt lat="40.5636417" lon="15.498755"><ele>762.0</ele><time>2026-04-26T09:55:08.88Z</time></trkpt><trkpt lat="40.563615" lon="15.4988683"><ele>762.0</ele><time>2026-04-26T09:55:10.881Z</time></trkpt><trkpt lat="40.5636" lon="15.4989717"><ele>763.0</ele><time>2026-04-26T09:55:12.881Z</time></trkpt><trkpt lat="40.5636167" lon="15.49908"><ele>764.0</ele><time>2026-04-26T09:55:14.881Z</time></trkpt><trkpt lat="40.5636467" lon="15.499215"><ele>765.0</ele><time>2026-04-26T09:55:16.881Z</time></trkpt><trkpt lat="40.5636583" lon="15.4992967"><ele>766.0</ele><time>2026-04-26T09:55:17.881Z</time></trkpt><trkpt lat="40.5636717" lon="15.4993867"><ele>767.0</ele><time>2026-04-26T09:55:18.88Z</time></trkpt><trkpt lat="40.56371" lon="15.49954"><ele>768.0</ele><time>2026-04-26T09:55:20.88Z</time></trkpt><trkpt lat="40.563745" lon="15.49961"><ele>770.8571428571428</ele><time>2026-04-26T09:55:21.88Z</time></trkpt><trkpt lat="40.5637883" lon="15.4996733"><ele>773.7142857142857</ele><time>2026-04-26T09:55:22.881Z</time></trkpt><trkpt lat="40.56383" lon="15.49974"><ele>776.5714285714286</ele><time>2026-04-26T09:55:23.88Z</time></trkpt><trkpt lat="40.5638683" lon="15.4998067"><ele>779.4285714285713</ele><time>2026-04-26T09:55:24.88Z</time></trkpt><trkpt lat="40.5639083" lon="15.4998783"><ele>782.2857142857143</ele><time>2026-04-26T09:55:25.88Z</time></trkpt><trkpt lat="40.563935" lon="15.4999583"><ele>785.1428571428571</ele><time>2026-04-26T09:55:26.88Z</time></trkpt><trkpt lat="40.56396" lon="15.50004"><ele>788.0</ele><time>2026-04-26T09:55:27.88Z</time></trkpt><trkpt lat="40.5639817" lon="15.5001233"><ele>788.0000000000001</ele><time>2026-04-26T09:55:28.88Z</time></trkpt><trkpt lat="40.564005" lon="15.5002167"><ele>788.0</ele><time>2026-04-26T09:55:29.881Z</time></trkpt><trkpt lat="40.5640317" lon="15.5003117"><ele>788.0</ele><time>2026-04-26T09:55:30.881Z</time></trkpt><trkpt lat="40.564065" lon="15.5004067"><ele>788.0</ele><time>2026-04-26T09:55:31.88Z</time></trkpt><trkpt lat="40.564105" lon="15.5004983"><ele>788.0000000000001</ele><time>2026-04-26T09:55:32.881Z</time></trkpt><trkpt lat="40.564155" lon="15.500585"><ele>788.0</ele><time>2026-04-26T09:55:33.88Z</time></trkpt><trkpt lat="40.5642067" lon="15.500665"><ele>788.8571428571429</ele><time>2026-04-26T09:55:34.88Z</time></trkpt><trkpt lat="40.5642567" lon="15.5007383"><ele>789.7142857142858</ele><time>2026-04-26T09:55:35.881Z</time></trkpt><trkpt lat="40.5643083" lon="15.50081"><ele>790.5714285714286</ele><time>2026-04-26T09:55:36.881Z</time></trkpt><trkpt lat="40.5643567" lon="15.50088"><ele>791.4285714285714</ele><time>2026-04-26T09:55:37.88Z</time></trkpt><trkpt lat="40.5644117" lon="15.5009483"><ele>792.2857142857142</ele><time>2026-04-26T09:55:38.881Z</time></trkpt><trkpt lat="40.5644683" lon="15.50101"><ele>793.1428571428571</ele><time>2026-04-26T09:55:39.88Z</time></trkpt><trkpt lat="40.56453" lon="15.5010667"><ele>794.0</ele><time>2026-04-26T09:55:40.88Z</time></trkpt><trkpt lat="40.5645917" lon="15.5011267"><ele>794.8333333333334</ele><time>2026-04-26T09:55:41.88Z</time></trkpt><trkpt lat="40.56465" lon="15.5011917"><ele>795.6666666666667</ele><time>2026-04-26T09:55:42.881Z</time></trkpt><trkpt lat="40.5646967" lon="15.5012483"><ele>796.5</ele><time>2026-04-26T09:55:43.881Z</time></trkpt><trkpt lat="40.5647317" lon="15.50136"><ele>797.3333333333333</ele><time>2026-04-26T09:55:45.881Z</time></trkpt><trkpt lat="40.5646967" lon="15.5015117"><ele>798.1666666666666</ele><time>2026-04-26T09:55:47.881Z</time></trkpt><trkpt lat="40.5646667" lon="15.5016067"><ele>799.0</ele><time>2026-04-26T09:55:48.881Z</time></trkpt><trkpt lat="40.56463" lon="15.5017067"><ele>799.0</ele><time>2026-04-26T09:55:49.881Z</time></trkpt><trkpt lat="40.564595" lon="15.501805"><ele>799.0</ele><time>2026-04-26T09:55:50.881Z</time></trkpt><trkpt lat="40.56456" lon="15.5019133"><ele>799.0</ele><time>2026-04-26T09:55:51.88Z</time></trkpt><trkpt lat="40.5645217" lon="15.5020217"><ele>799.0</ele><time>2026-04-26T09:55:52.88Z</time></trkpt><trkpt lat="40.5644817" lon="15.5021333"><ele>799.0</ele><time>2026-04-26T09:55:53.88Z</time></trkpt><trkpt lat="40.5644283" lon="15.5022467"><ele>799.2</ele><time>2026-04-26T09:55:54.881Z</time></trkpt><trkpt lat="40.564375" lon="15.5023567"><ele>799.4000000000001</ele><time>2026-04-26T09:55:55.881Z</time></trkpt><trkpt lat="40.5643183" lon="15.5024767"><ele>799.6</ele><time>2026-04-26T09:55:56.88Z</time></trkpt><trkpt lat="40.5642583" lon="15.5025917"><ele>799.8</ele><time>2026-04-26T09:55:57.881Z</time></trkpt><trkpt lat="40.5642067" lon="15.502705"><ele>800.0</ele><time>2026-04-26T09:55:58.881Z</time></trkpt><trkpt lat="40.564155" lon="15.5028183"><ele>800.0000000000001</ele><time>2026-04-26T09:55:59.88Z</time></trkpt><trkpt lat="40.5641067" lon="15.50292"><ele>800.0</ele><time>2026-04-26T09:56:00.88Z</time></trkpt><trkpt lat="40.5640683" lon="15.5030083"><ele>800.0</ele><time>2026-04-26T09:56:01.88Z</time></trkpt><trkpt lat="40.5640283" lon="15.5030867"><ele>800.0</ele><time>2026-04-26T09:56:02.881Z</time></trkpt><trkpt lat="40.56398" lon="15.503165"><ele>800.0000000000001</ele><time>2026-04-26T09:56:03.88Z</time></trkpt><trkpt lat="40.5639217" lon="15.503245"><ele>800.0</ele><time>2026-04-26T09:56:04.88Z</time></trkpt><trkpt lat="40.5638483" lon="15.5033267"><ele>800.0</ele><time>2026-04-26T09:56:05.881Z</time></trkpt><trkpt lat="40.5637617" lon="15.5033883"><ele>800.0</ele><time>2026-04-26T09:56:06.88Z</time></trkpt><trkpt lat="40.5636667" lon="15.5034417"><ele>800.0</ele><time>2026-04-26T09:56:07.881Z</time></trkpt><trkpt lat="40.563565" lon="15.5034867"><ele>800.0</ele><time>2026-04-26T09:56:08.88Z</time></trkpt><trkpt lat="40.56346" lon="15.5035317"><ele>800.0</ele><time>2026-04-26T09:56:09.881Z</time></trkpt><trkpt lat="40.56335" lon="15.503585"><ele>799.6</ele><time>2026-04-26T09:56:10.88Z</time></trkpt><trkpt lat="40.5632433" lon="15.5036383"><ele>799.2</ele><time>2026-04-26T09:56:11.881Z</time></trkpt><trkpt lat="40.56314" lon="15.50369"><ele>798.8</ele><time>2026-04-26T09:56:12.88Z</time></trkpt><trkpt lat="40.563045" lon="15.50374"><ele>798.4</ele><time>2026-04-26T09:56:13.88Z</time></trkpt><trkpt lat="40.5629583" lon="15.5037833"><ele>798.0</ele><time>2026-04-26T09:56:14.881Z</time></trkpt><trkpt lat="40.5628733" lon="15.5038217"><ele>798.5714285714286</ele><time>2026-04-26T09:56:15.881Z</time></trkpt><trkpt lat="40.562795" lon="15.5038567"><ele>799.1428571428571</ele><time>2026-04-26T09:56:16.88Z</time></trkpt><trkpt lat="40.562725" lon="15.5038817"><ele>799.7142857142858</ele><time>2026-04-26T09:56:17.881Z</time></trkpt><trkpt lat="40.5626633" lon="15.50391"><ele>800.2857142857142</ele><time>2026-04-26T09:56:18.881Z</time></trkpt><trkpt lat="40.5626017" lon="15.5039533"><ele>800.8571428571429</ele><time>2026-04-26T09:56:19.88Z</time></trkpt><trkpt lat="40.562545" lon="15.504015"><ele>801.4285714285714</ele><time>2026-04-26T09:56:20.881Z</time></trkpt><trkpt lat="40.5624933" lon="15.5041"><ele>802.0</ele><time>2026-04-26T09:56:21.881Z</time></trkpt><trkpt lat="40.562445" lon="15.5042017"><ele>802.0</ele><time>2026-04-26T09:56:22.881Z</time></trkpt><trkpt lat="40.562395" lon="15.5043133"><ele>802.0</ele><time>2026-04-26T09:56:23.881Z</time></trkpt><trkpt lat="40.562335" lon="15.5044367"><ele>802.0</ele><time>2026-04-26T09:56:24.88Z</time></trkpt><trkpt lat="40.5622683" lon="15.50457"><ele>802.0</ele><time>2026-04-26T09:56:25.881Z</time></trkpt><trkpt lat="40.5621983" lon="15.50471"><ele>803.25</ele><time>2026-04-26T09:56:26.88Z</time></trkpt><trkpt lat="40.5621283" lon="15.5048533"><ele>804.5</ele><time>2026-04-26T09:56:27.881Z</time></trkpt><trkpt lat="40.5620633" lon="15.5049933"><ele>805.75</ele><time>2026-04-26T09:56:28.88Z</time></trkpt><trkpt lat="40.5619967" lon="15.50513"><ele>807.0</ele><time>2026-04-26T09:56:29.88Z</time></trkpt><trkpt lat="40.5619283" lon="15.5052617"><ele>807.0</ele><time>2026-04-26T09:56:30.881Z</time></trkpt><trkpt lat="40.56186" lon="15.5053933"><ele>807.0</ele><time>2026-04-26T09:56:31.881Z</time></trkpt><trkpt lat="40.561795" lon="15.5055133"><ele>807.0</ele><time>2026-04-26T09:56:32.881Z</time></trkpt><trkpt lat="40.5617317" lon="15.505635"><ele>807.0</ele><time>2026-04-26T09:56:33.881Z</time></trkpt><trkpt lat="40.56167" lon="15.5057617"><ele>809.5</ele><time>2026-04-26T09:56:34.881Z</time></trkpt><trkpt lat="40.5616083" lon="15.5058933"><ele>812.0</ele><time>2026-04-26T09:56:35.88Z</time></trkpt><trkpt lat="40.56154" lon="15.5060267"><ele>814.5</ele><time>2026-04-26T09:56:36.881Z</time></trkpt><trkpt lat="40.561475" lon="15.5061583"><ele>817.0</ele><time>2026-04-26T09:56:37.88Z</time></trkpt><trkpt lat="40.56141" lon="15.50629"><ele>817.2</ele><time>2026-04-26T09:56:38.881Z</time></trkpt><trkpt lat="40.5613383" lon="15.5064233"><ele>817.4000000000001</ele><time>2026-04-26T09:56:39.881Z</time></trkpt><trkpt lat="40.561275" lon="15.50655"><ele>817.5999999999999</ele><time>2026-04-26T09:56:40.88Z</time></trkpt><trkpt lat="40.56121" lon="15.5066483"><ele>817.8</ele><time>2026-04-26T09:56:41.881Z</time></trkpt><trkpt lat="40.5611483" lon="15.5067317"><ele>818.0</ele><time>2026-04-26T09:56:42.881Z</time></trkpt><trkpt lat="40.5610767" lon="15.506795"><ele>818.0</ele><time>2026-04-26T09:56:43.881Z</time></trkpt><trkpt lat="40.561" lon="15.5068367"><ele>818.0</ele><time>2026-04-26T09:56:44.88Z</time></trkpt><trkpt lat="40.5609133" lon="15.5068467"><ele>818.0</ele><time>2026-04-26T09:56:45.88Z</time></trkpt><trkpt lat="40.5608117" lon="15.5068567"><ele>818.0</ele><time>2026-04-26T09:56:46.881Z</time></trkpt><trkpt lat="40.56071" lon="15.506865"><ele>818.0</ele><time>2026-04-26T09:56:47.881Z</time></trkpt><trkpt lat="40.5606067" lon="15.5068667"><ele>818.0</ele><time>2026-04-26T09:56:48.881Z</time></trkpt><trkpt lat="40.5604983" lon="15.506875"><ele>818.0</ele><time>2026-04-26T09:56:49.88Z</time></trkpt><trkpt lat="40.56038" lon="15.50689"><ele>818.0</ele><time>2026-04-26T09:56:50.88Z</time></trkpt><trkpt lat="40.560265" lon="15.5069033"><ele>818.0</ele><time>2026-04-26T09:56:51.881Z</time></trkpt><trkpt lat="40.5601467" lon="15.5069133"><ele>818.0</ele><time>2026-04-26T09:56:52.88Z</time></trkpt><trkpt lat="40.560025" lon="15.5069117"><ele>818.0</ele><time>2026-04-26T09:56:53.881Z</time></trkpt><trkpt lat="40.5599" lon="15.50691"><ele>818.0</ele><time>2026-04-26T09:56:54.88Z</time></trkpt><trkpt lat="40.559775" lon="15.50691"><ele>818.0</ele><time>2026-04-26T09:56:55.88Z</time></trkpt><trkpt lat="40.5596467" lon="15.5069017"><ele>819.0</ele><time>2026-04-26T09:56:56.881Z</time></trkpt><trkpt lat="40.5595233" lon="15.5068967"><ele>820.0</ele><time>2026-04-26T09:56:57.88Z</time></trkpt><trkpt lat="40.5593967" lon="15.50689"><ele>821.0</ele><time>2026-04-26T09:56:58.881Z</time></trkpt><trkpt lat="40.5592767" lon="15.5068833"><ele>822.0</ele><time>2026-04-26T09:56:59.881Z</time></trkpt><trkpt lat="40.5591583" lon="15.5068767"><ele>822.0</ele><time>2026-04-26T09:57:00.88Z</time></trkpt><trkpt lat="40.5590483" lon="15.5068583"><ele>822.0</ele><time>2026-04-26T09:57:01.88Z</time></trkpt><trkpt lat="40.5589467" lon="15.5068433"><ele>822.0</ele><time>2026-04-26T09:57:02.881Z</time></trkpt><trkpt lat="40.5588517" lon="15.5068183"><ele>822.0</ele><time>2026-04-26T09:57:03.88Z</time></trkpt><trkpt lat="40.5587567" lon="15.5067867"><ele>822.0</ele><time>2026-04-26T09:57:04.881Z</time></trkpt><trkpt lat="40.5586667" lon="15.50675"><ele>824.0</ele><time>2026-04-26T09:57:05.88Z</time></trkpt><trkpt lat="40.55857" lon="15.5067017"><ele>826.0</ele><time>2026-04-26T09:57:06.881Z</time></trkpt><trkpt lat="40.5584817" lon="15.5066483"><ele>828.0</ele><time>2026-04-26T09:57:07.881Z</time></trkpt><trkpt lat="40.5583917" lon="15.5066"><ele>830.0</ele><time>2026-04-26T09:57:08.88Z</time></trkpt><trkpt lat="40.5583083" lon="15.5065667"><ele>832.0</ele><time>2026-04-26T09:57:09.88Z</time></trkpt><trkpt lat="40.55823" lon="15.5065517"><ele>832.0</ele><time>2026-04-26T09:57:10.88Z</time></trkpt><trkpt lat="40.5581533" lon="15.5065583"><ele>832.0</ele><time>2026-04-26T09:57:11.881Z</time></trkpt><trkpt lat="40.55807" lon="15.5065833"><ele>832.0</ele><time>2026-04-26T09:57:12.881Z</time></trkpt><trkpt lat="40.5579833" lon="15.5066117"><ele>832.0</ele><time>2026-04-26T09:57:13.88Z</time></trkpt><trkpt lat="40.55789" lon="15.5066433"><ele>832.0</ele><time>2026-04-26T09:57:14.881Z</time></trkpt><trkpt lat="40.55779" lon="15.5066717"><ele>832.2</ele><time>2026-04-26T09:57:15.88Z</time></trkpt><trkpt lat="40.55768" lon="15.5066867"><ele>832.4000000000001</ele><time>2026-04-26T09:57:16.881Z</time></trkpt><trkpt lat="40.557585" lon="15.5067117"><ele>832.5999999999999</ele><time>2026-04-26T09:57:17.88Z</time></trkpt><trkpt lat="40.5574883" lon="15.50673"><ele>832.8</ele><time>2026-04-26T09:57:18.881Z</time></trkpt><trkpt lat="40.5573867" lon="15.5067533"><ele>833.0</ele><time>2026-04-26T09:57:19.881Z</time></trkpt><trkpt lat="40.5572833" lon="15.50679"><ele>833.0</ele><time>2026-04-26T09:57:20.88Z</time></trkpt><trkpt lat="40.5571767" lon="15.5068333"><ele>833.0</ele><time>2026-04-26T09:57:21.881Z</time></trkpt><trkpt lat="40.557075" lon="15.506875"><ele>833.0</ele><time>2026-04-26T09:57:22.881Z</time></trkpt><trkpt lat="40.5569717" lon="15.5069217"><ele>833.0</ele><time>2026-04-26T09:57:23.88Z</time></trkpt><trkpt lat="40.5568667" lon="15.5069567"><ele>833.0</ele><time>2026-04-26T09:57:24.881Z</time></trkpt><trkpt lat="40.556765" lon="15.5069917"><ele>832.75</ele><time>2026-04-26T09:57:25.88Z</time></trkpt><trkpt lat="40.5566617" lon="15.5070233"><ele>832.5</ele><time>2026-04-26T09:57:26.88Z</time></trkpt><trkpt lat="40.5565533" lon="15.5070567"><ele>832.25</ele><time>2026-04-26T09:57:27.881Z</time></trkpt><trkpt lat="40.55644" lon="15.5070833"><ele>832.0</ele><time>2026-04-26T09:57:28.88Z</time></trkpt><trkpt lat="40.5563233" lon="15.5071133"><ele>839.75</ele><time>2026-04-26T09:57:29.881Z</time></trkpt><trkpt lat="40.5562033" lon="15.5071433"><ele>847.5</ele><time>2026-04-26T09:57:30.88Z</time></trkpt><trkpt lat="40.556085" lon="15.5071867"><ele>855.25</ele><time>2026-04-26T09:57:31.881Z</time></trkpt><trkpt lat="40.5559717" lon="15.5072217"><ele>863.0</ele><time>2026-04-26T09:57:32.881Z</time></trkpt><trkpt lat="40.5558583" lon="15.50726"><ele>864.5</ele><time>2026-04-26T09:57:33.88Z</time></trkpt><trkpt lat="40.5557467" lon="15.5073067"><ele>866.0</ele><time>2026-04-26T09:57:34.88Z</time></trkpt><trkpt lat="40.55564" lon="15.5073633"><ele>867.5</ele><time>2026-04-26T09:57:35.88Z</time></trkpt><trkpt lat="40.55553" lon="15.5074367"><ele>869.0</ele><time>2026-04-26T09:57:36.88Z</time></trkpt><trkpt lat="40.55542" lon="15.5075117"><ele>866.25</ele><time>2026-04-26T09:57:37.881Z</time></trkpt><trkpt lat="40.5553117" lon="15.5075767"><ele>863.5</ele><time>2026-04-26T09:57:38.881Z</time></trkpt><trkpt lat="40.5552017" lon="15.5076217"><ele>860.75</ele><time>2026-04-26T09:57:39.881Z</time></trkpt><trkpt lat="40.55509" lon="15.5076533"><ele>858.0</ele><time>2026-04-26T09:57:40.88Z</time></trkpt><trkpt lat="40.5549717" lon="15.5076933"><ele>858.0</ele><time>2026-04-26T09:57:41.88Z</time></trkpt><trkpt lat="40.5548533" lon="15.507755"><ele>858.0</ele><time>2026-04-26T09:57:42.881Z</time></trkpt><trkpt lat="40.5547433" lon="15.5078267"><ele>858.0</ele><time>2026-04-26T09:57:43.88Z</time></trkpt><trkpt lat="40.554635" lon="15.5079017"><ele>858.0</ele><time>2026-04-26T09:57:44.881Z</time></trkpt><trkpt lat="40.5545217" lon="15.5079717"><ele>866.5</ele><time>2026-04-26T09:57:45.881Z</time></trkpt><trkpt lat="40.5544083" lon="15.5080283"><ele>875.0</ele><time>2026-04-26T09:57:46.881Z</time></trkpt><trkpt lat="40.554295" lon="15.5080717"><ele>883.5</ele><time>2026-04-26T09:57:47.88Z</time></trkpt><trkpt lat="40.554185" lon="15.5081017"><ele>892.0</ele><time>2026-04-26T09:57:48.881Z</time></trkpt><trkpt lat="40.5540767" lon="15.5081317"><ele>892.0</ele><time>2026-04-26T09:57:49.88Z</time></trkpt><trkpt lat="40.55397" lon="15.5081633"><ele>892.0</ele><time>2026-04-26T09:57:50.881Z</time></trkpt><trkpt lat="40.55387" lon="15.5081983"><ele>892.0</ele><time>2026-04-26T09:57:51.88Z</time></trkpt><trkpt lat="40.55377" lon="15.50823"><ele>892.0</ele><time>2026-04-26T09:57:52.88Z</time></trkpt><trkpt lat="40.5536733" lon="15.5082617"><ele>892.0</ele><time>2026-04-26T09:57:53.88Z</time></trkpt><trkpt lat="40.5535733" lon="15.5082933"><ele>889.6</ele><time>2026-04-26T09:57:54.881Z</time></trkpt><trkpt lat="40.5534717" lon="15.5083283"><ele>887.2</ele><time>2026-04-26T09:57:55.88Z</time></trkpt><trkpt lat="40.55337" lon="15.508365"><ele>884.8</ele><time>2026-04-26T09:57:56.881Z</time></trkpt><trkpt lat="40.553275" lon="15.5084"><ele>882.4</ele><time>2026-04-26T09:57:57.881Z</time></trkpt><trkpt lat="40.5531833" lon="15.5084367"><ele>880.0</ele><time>2026-04-26T09:57:58.88Z</time></trkpt><trkpt lat="40.5530917" lon="15.5084767"><ele>880.0</ele><time>2026-04-26T09:57:59.881Z</time></trkpt><trkpt lat="40.5529967" lon="15.50851"><ele>880.0</ele><time>2026-04-26T09:58:00.88Z</time></trkpt><trkpt lat="40.5529017" lon="15.5085467"><ele>880.0</ele><time>2026-04-26T09:58:01.88Z</time></trkpt><trkpt lat="40.552805" lon="15.5085817"><ele>880.0</ele><time>2026-04-26T09:58:02.881Z</time></trkpt><trkpt lat="40.5527067" lon="15.5086217"><ele>880.0</ele><time>2026-04-26T09:58:03.881Z</time></trkpt><trkpt lat="40.5526067" lon="15.50866"><ele>878.0</ele><time>2026-04-26T09:58:04.88Z</time></trkpt><trkpt lat="40.5525033" lon="15.5086933"><ele>876.0</ele><time>2026-04-26T09:58:05.88Z</time></trkpt><trkpt lat="40.5524017" lon="15.5087283"><ele>874.0</ele><time>2026-04-26T09:58:06.881Z</time></trkpt><trkpt lat="40.552305" lon="15.5087683"><ele>872.0</ele><time>2026-04-26T09:58:07.881Z</time></trkpt><trkpt lat="40.55221" lon="15.5088117"><ele>870.0</ele><time>2026-04-26T09:58:08.881Z</time></trkpt><trkpt lat="40.5521217" lon="15.5088533"><ele>871.8333333333334</ele><time>2026-04-26T09:58:09.88Z</time></trkpt><trkpt lat="40.5520383" lon="15.5088983"><ele>873.6666666666667</ele><time>2026-04-26T09:58:10.881Z</time></trkpt><trkpt lat="40.5519667" lon="15.5089617"><ele>875.5</ele><time>2026-04-26T09:58:11.88Z</time></trkpt><trkpt lat="40.5519017" lon="15.5090417"><ele>877.3333333333334</ele><time>2026-04-26T09:58:12.88Z</time></trkpt><trkpt lat="40.5518433" lon="15.5091267"><ele>879.1666666666667</ele><time>2026-04-26T09:58:13.88Z</time></trkpt><trkpt lat="40.5517933" lon="15.5092167"><ele>881.0</ele><time>2026-04-26T09:58:14.88Z</time></trkpt><trkpt lat="40.5517417" lon="15.5093117"><ele>881.0</ele><time>2026-04-26T09:58:15.88Z</time></trkpt><trkpt lat="40.5516883" lon="15.5094067"><ele>880.9999999999999</ele><time>2026-04-26T09:58:16.88Z</time></trkpt><trkpt lat="40.5516367" lon="15.50951"><ele>880.9999999999999</ele><time>2026-04-26T09:58:17.881Z</time></trkpt><trkpt lat="40.551585" lon="15.5096133"><ele>881.0</ele><time>2026-04-26T09:58:18.88Z</time></trkpt><trkpt lat="40.5515317" lon="15.5097183"><ele>881.0</ele><time>2026-04-26T09:58:19.881Z</time></trkpt><trkpt lat="40.5514783" lon="15.5098233"><ele>878.8</ele><time>2026-04-26T09:58:20.881Z</time></trkpt><trkpt lat="40.551425" lon="15.5099283"><ele>876.5999999999999</ele><time>2026-04-26T09:58:21.881Z</time></trkpt><trkpt lat="40.5513667" lon="15.5100317"><ele>874.4</ele><time>2026-04-26T09:58:22.88Z</time></trkpt><trkpt lat="40.5513133" lon="15.51014"><ele>872.2</ele><time>2026-04-26T09:58:23.881Z</time></trkpt><trkpt lat="40.5512683" lon="15.5102417"><ele>870.0</ele><time>2026-04-26T09:58:24.881Z</time></trkpt><trkpt lat="40.5512067" lon="15.5103517"><ele>873.0</ele><time>2026-04-26T09:58:26.881Z</time></trkpt><trkpt lat="40.5511767" lon="15.5104383"><ele>876.0</ele><time>2026-04-26T09:58:30.88Z</time></trkpt><trkpt lat="40.5511433" lon="15.5105167"><ele>879.0</ele><time>2026-04-26T09:58:33.881Z</time></trkpt><trkpt lat="40.5511067" lon="15.5106583"><ele>882.0</ele><time>2026-04-26T09:59:44.881Z</time></trkpt><trkpt lat="40.551075" lon="15.51074"><ele>885.0</ele><time>2026-04-26T09:59:45.881Z</time></trkpt><trkpt lat="40.5510417" lon="15.51083"><ele>888.0</ele><time>2026-04-26T09:59:46.88Z</time></trkpt><trkpt lat="40.5510033" lon="15.5109233"><ele>888.0</ele><time>2026-04-26T09:59:47.88Z</time></trkpt><trkpt lat="40.55096" lon="15.511025"><ele>888.0</ele><time>2026-04-26T09:59:48.88Z</time></trkpt><trkpt lat="40.55091" lon="15.5111317"><ele>888.0</ele><time>2026-04-26T09:59:49.88Z</time></trkpt><trkpt lat="40.5508683" lon="15.5112467"><ele>888.0</ele><time>2026-04-26T09:59:50.88Z</time></trkpt><trkpt lat="40.5508317" lon="15.5113617"><ele>888.0</ele><time>2026-04-26T09:59:51.88Z</time></trkpt><trkpt lat="40.550795" lon="15.511485"><ele>891.5999999999999</ele><time>2026-04-26T09:59:52.88Z</time></trkpt><trkpt lat="40.5507583" lon="15.5116017"><ele>895.1999999999999</ele><time>2026-04-26T09:59:53.881Z</time></trkpt><trkpt lat="40.5507167" lon="15.51172"><ele>898.8</ele><time>2026-04-26T09:59:54.88Z</time></trkpt><trkpt lat="40.5506683" lon="15.51183"><ele>902.4</ele><time>2026-04-26T09:59:55.88Z</time></trkpt><trkpt lat="40.55061" lon="15.51193"><ele>906.0</ele><time>2026-04-26T09:59:56.88Z</time></trkpt><trkpt lat="40.55055" lon="15.5120267"><ele>903.4</ele><time>2026-04-26T09:59:57.88Z</time></trkpt><trkpt lat="40.5504967" lon="15.512125"><ele>900.8</ele><time>2026-04-26T09:59:58.881Z</time></trkpt><trkpt lat="40.550435" lon="15.512225"><ele>898.1999999999999</ele><time>2026-04-26T09:59:59.881Z</time></trkpt><trkpt lat="40.5503717" lon="15.51232"><ele>895.5999999999999</ele><time>2026-04-26T10:00:00.88Z</time></trkpt><trkpt lat="40.5503117" lon="15.5124183"><ele>893.0</ele><time>2026-04-26T10:00:01.88Z</time></trkpt><trkpt lat="40.5502517" lon="15.5125283"><ele>893.0</ele><time>2026-04-26T10:00:02.881Z</time></trkpt><trkpt lat="40.5501933" lon="15.5126333"><ele>893.0</ele><time>2026-04-26T10:00:03.88Z</time></trkpt><trkpt lat="40.5501367" lon="15.5127433"><ele>893.0</ele><time>2026-04-26T10:00:04.88Z</time></trkpt><trkpt lat="40.5500867" lon="15.5128583"><ele>893.0</ele><time>2026-04-26T10:00:05.88Z</time></trkpt><trkpt lat="40.55005" lon="15.512985"><ele>893.0</ele><time>2026-04-26T10:00:06.88Z</time></trkpt><trkpt lat="40.5500183" lon="15.5131083"><ele>896.8</ele><time>2026-04-26T10:00:07.881Z</time></trkpt><trkpt lat="40.5500017" lon="15.5132367"><ele>900.5999999999999</ele><time>2026-04-26T10:00:08.88Z</time></trkpt><trkpt lat="40.549985" lon="15.5133633"><ele>904.4000000000001</ele><time>2026-04-26T10:00:09.881Z</time></trkpt><trkpt lat="40.5499717" lon="15.51349"><ele>908.2</ele><time>2026-04-26T10:00:10.88Z</time></trkpt><trkpt lat="40.5499567" lon="15.5136133"><ele>912.0</ele><time>2026-04-26T10:00:11.88Z</time></trkpt><trkpt lat="40.5499383" lon="15.5137367"><ele>914.6</ele><time>2026-04-26T10:00:12.88Z</time></trkpt><trkpt lat="40.5499133" lon="15.5138633"><ele>917.2</ele><time>2026-04-26T10:00:13.881Z</time></trkpt><trkpt lat="40.549885" lon="15.5139867"><ele>919.8</ele><time>2026-04-26T10:00:14.88Z</time></trkpt><trkpt lat="40.5498567" lon="15.5141167"><ele>922.4</ele><time>2026-04-26T10:00:15.881Z</time></trkpt><trkpt lat="40.5498317" lon="15.5142483"><ele>925.0</ele><time>2026-04-26T10:00:16.88Z</time></trkpt><trkpt lat="40.54981" lon="15.51438"><ele>925.0</ele><time>2026-04-26T10:00:17.881Z</time></trkpt><trkpt lat="40.54979" lon="15.5145167"><ele>925.0</ele><time>2026-04-26T10:00:18.88Z</time></trkpt><trkpt lat="40.54977" lon="15.514655"><ele>925.0</ele><time>2026-04-26T10:00:19.88Z</time></trkpt><trkpt lat="40.5497517" lon="15.51479"><ele>925.0</ele><time>2026-04-26T10:00:20.881Z</time></trkpt><trkpt lat="40.5497367" lon="15.5149217"><ele>925.0</ele><time>2026-04-26T10:00:21.88Z</time></trkpt><trkpt lat="40.549725" lon="15.5150517"><ele>925.2</ele><time>2026-04-26T10:00:22.88Z</time></trkpt><trkpt lat="40.549715" lon="15.5151783"><ele>925.4</ele><time>2026-04-26T10:00:23.88Z</time></trkpt><trkpt lat="40.5497067" lon="15.5153067"><ele>925.5999999999999</ele><time>2026-04-26T10:00:24.881Z</time></trkpt><trkpt lat="40.5496983" lon="15.51543"><ele>925.8</ele><time>2026-04-26T10:00:25.881Z</time></trkpt><trkpt lat="40.5496917" lon="15.5155417"><ele>926.0</ele><time>2026-04-26T10:00:26.88Z</time></trkpt><trkpt lat="40.5496933" lon="15.5156567"><ele>926.1999999999999</ele><time>2026-04-26T10:00:27.88Z</time></trkpt><trkpt lat="40.549695" lon="15.5157767"><ele>926.3999999999999</ele><time>2026-04-26T10:00:28.88Z</time></trkpt><trkpt lat="40.5496967" lon="15.5158983"><ele>926.6</ele><time>2026-04-26T10:00:29.881Z</time></trkpt><trkpt lat="40.5496967" lon="15.5160117"><ele>926.8</ele><time>2026-04-26T10:00:30.88Z</time></trkpt><trkpt lat="40.5496917" lon="15.5161367"><ele>927.0</ele><time>2026-04-26T10:00:31.88Z</time></trkpt><trkpt lat="40.549685" lon="15.51626"><ele>927.1666666666666</ele><time>2026-04-26T10:00:32.88Z</time></trkpt><trkpt lat="40.549675" lon="15.5163867"><ele>927.3333333333333</ele><time>2026-04-26T10:00:33.88Z</time></trkpt><trkpt lat="40.5496617" lon="15.51651"><ele>927.5</ele><time>2026-04-26T10:00:34.88Z</time></trkpt><trkpt lat="40.5496467" lon="15.51662"><ele>927.6666666666666</ele><time>2026-04-26T10:00:35.88Z</time></trkpt><trkpt lat="40.54963" lon="15.5167233"><ele>927.8333333333333</ele><time>2026-04-26T10:00:36.881Z</time></trkpt><trkpt lat="40.54961" lon="15.5168233"><ele>928.0</ele><time>2026-04-26T10:00:37.88Z</time></trkpt><trkpt lat="40.549595" lon="15.5169217"><ele>927.9999999999999</ele><time>2026-04-26T10:00:38.879Z</time></trkpt><trkpt lat="40.5495833" lon="15.5170183"><ele>928.0</ele><time>2026-04-26T10:00:39.879Z</time></trkpt><trkpt lat="40.5495683" lon="15.5171033"><ele>928.0</ele><time>2026-04-26T10:00:40.88Z</time></trkpt><trkpt lat="40.5495533" lon="15.5171967"><ele>928.0</ele><time>2026-04-26T10:00:41.88Z</time></trkpt><trkpt lat="40.5495367" lon="15.5172883"><ele>927.9999999999999</ele><time>2026-04-26T10:00:42.88Z</time></trkpt><trkpt lat="40.5495217" lon="15.5173817"><ele>928.0</ele><time>2026-04-26T10:00:43.88Z</time></trkpt><trkpt lat="40.5494933" lon="15.5175233"><ele>928.5999999999999</ele><time>2026-04-26T10:00:45.879Z</time></trkpt><trkpt lat="40.5494683" lon="15.5176333"><ele>929.1999999999999</ele><time>2026-04-26T10:00:47.88Z</time></trkpt><trkpt lat="40.54945" lon="15.5177483"><ele>929.8</ele><time>2026-04-26T10:00:49.88Z</time></trkpt><trkpt lat="40.5494367" lon="15.5179083"><ele>930.4</ele><time>2026-04-26T10:00:51.879Z</time></trkpt><trkpt lat="40.54943" lon="15.5180133"><ele>931.0</ele><time>2026-04-26T10:00:52.88Z</time></trkpt><trkpt lat="40.549425" lon="15.5181183"><ele>932.0</ele><time>2026-04-26T10:00:53.88Z</time></trkpt><trkpt lat="40.54942" lon="15.5182333"><ele>932.9999999999999</ele><time>2026-04-26T10:00:54.88Z</time></trkpt><trkpt lat="40.549415" lon="15.51835"><ele>933.9999999999999</ele><time>2026-04-26T10:00:55.88Z</time></trkpt><trkpt lat="40.5494167" lon="15.5184683"><ele>935.0</ele><time>2026-04-26T10:00:56.879Z</time></trkpt><trkpt lat="40.549415" lon="15.5185917"><ele>936.0</ele><time>2026-04-26T10:00:57.879Z</time></trkpt><trkpt lat="40.54941" lon="15.51872"><ele>936.8333333333334</ele><time>2026-04-26T10:00:58.88Z</time></trkpt><trkpt lat="40.5494083" lon="15.518845"><ele>937.6666666666667</ele><time>2026-04-26T10:00:59.879Z</time></trkpt><trkpt lat="40.549405" lon="15.5189617"><ele>938.5</ele><time>2026-04-26T10:01:00.88Z</time></trkpt><trkpt lat="40.5494017" lon="15.51907"><ele>939.3333333333334</ele><time>2026-04-26T10:01:01.879Z</time></trkpt><trkpt lat="40.5494017" lon="15.5191617"><ele>940.1666666666667</ele><time>2026-04-26T10:01:02.879Z</time></trkpt><trkpt lat="40.5493967" lon="15.5192933"><ele>941.0</ele><time>2026-04-26T10:01:04.88Z</time></trkpt><trkpt lat="40.5493933" lon="15.5193917"><ele>941.0</ele><time>2026-04-26T10:01:07.88Z</time></trkpt><trkpt lat="40.5493967" lon="15.519505"><ele>940.9999999999999</ele><time>2026-04-26T10:01:15.879Z</time></trkpt><trkpt lat="40.5493917" lon="15.519655"><ele>940.9999999999999</ele><time>2026-04-26T10:01:17.88Z</time></trkpt><trkpt lat="40.5493883" lon="15.5198167"><ele>941.0</ele><time>2026-04-26T10:01:19.88Z</time></trkpt><trkpt lat="40.5493867" lon="15.519955"><ele>941.0</ele><time>2026-04-26T10:01:21.88Z</time></trkpt><trkpt lat="40.5494283" lon="15.5200767"><ele>940.6666666666667</ele><time>2026-04-26T10:01:23.88Z</time></trkpt><trkpt lat="40.5494667" lon="15.52016"><ele>940.3333333333334</ele><time>2026-04-26T10:01:24.879Z</time></trkpt><trkpt lat="40.54951" lon="15.520255"><ele>940.0</ele><time>2026-04-26T10:01:25.879Z</time></trkpt><trkpt lat="40.5495617" lon="15.5203467"><ele>939.6666666666667</ele><time>2026-04-26T10:01:26.879Z</time></trkpt><trkpt lat="40.5496083" lon="15.5204517"><ele>939.3333333333334</ele><time>2026-04-26T10:01:27.88Z</time></trkpt><trkpt lat="40.5496483" lon="15.5205617"><ele>939.0</ele><time>2026-04-26T10:01:28.879Z</time></trkpt><trkpt lat="40.5496883" lon="15.5206767"><ele>940.0</ele><time>2026-04-26T10:01:29.879Z</time></trkpt><trkpt lat="40.549725" lon="15.520785"><ele>941.0000000000001</ele><time>2026-04-26T10:01:30.879Z</time></trkpt><trkpt lat="40.5497617" lon="15.5208967"><ele>942.0000000000001</ele><time>2026-04-26T10:01:31.88Z</time></trkpt><trkpt lat="40.5498017" lon="15.52101"><ele>943.0</ele><time>2026-04-26T10:01:32.88Z</time></trkpt><trkpt lat="40.54984" lon="15.5211233"><ele>944.0</ele><time>2026-04-26T10:01:33.879Z</time></trkpt><trkpt lat="40.5498667" lon="15.52122"><ele>944.6666666666667</ele><time>2026-04-26T10:01:34.88Z</time></trkpt><trkpt lat="40.5498967" lon="15.521295"><ele>945.3333333333334</ele><time>2026-04-26T10:01:35.879Z</time></trkpt><trkpt lat="40.54993" lon="15.5213683"><ele>946.0</ele><time>2026-04-26T10:01:36.88Z</time></trkpt><trkpt lat="40.54997" lon="15.5215033"><ele>946.6666666666667</ele><time>2026-04-26T10:01:38.88Z</time></trkpt><trkpt lat="40.5499933" lon="15.5215833"><ele>947.3333333333334</ele><time>2026-04-26T10:01:40.879Z</time></trkpt><trkpt lat="40.55002" lon="15.5216683"><ele>948.0</ele><time>2026-04-26T10:01:42.879Z</time></trkpt><trkpt lat="40.55007" lon="15.5218133"><ele>948.0</ele><time>2026-04-26T10:01:44.88Z</time></trkpt><trkpt lat="40.5500983" lon="15.5218933"><ele>948.0</ele><time>2026-04-26T10:01:45.879Z</time></trkpt><trkpt lat="40.5501283" lon="15.5219733"><ele>948.0</ele><time>2026-04-26T10:01:46.88Z</time></trkpt><trkpt lat="40.5501933" lon="15.5220967"><ele>948.0</ele><time>2026-04-26T10:01:48.88Z</time></trkpt><trkpt lat="40.5502717" lon="15.522175"><ele>948.0</ele><time>2026-04-26T10:01:50.88Z</time></trkpt><trkpt lat="40.5503767" lon="15.5222367"><ele>947.3333333333334</ele><time>2026-04-26T10:01:52.88Z</time></trkpt><trkpt lat="40.5504483" lon="15.5222617"><ele>946.6666666666667</ele><time>2026-04-26T10:01:53.88Z</time></trkpt><trkpt lat="40.5505417" lon="15.522275"><ele>946.0</ele><time>2026-04-26T10:01:54.879Z</time></trkpt><trkpt lat="40.5506383" lon="15.52229"><ele>945.3333333333334</ele><time>2026-04-26T10:01:55.88Z</time></trkpt><trkpt lat="40.55073" lon="15.522315"><ele>944.6666666666667</ele><time>2026-04-26T10:01:56.879Z</time></trkpt><trkpt lat="40.5508033" lon="15.5223683"><ele>944.0</ele><time>2026-04-26T10:01:57.879Z</time></trkpt><trkpt lat="40.55086" lon="15.522425"><ele>944.0</ele><time>2026-04-26T10:01:58.879Z</time></trkpt><trkpt lat="40.550945" lon="15.5224983"><ele>944.0000000000001</ele><time>2026-04-26T10:02:00.879Z</time></trkpt><trkpt lat="40.5510267" lon="15.5225533"><ele>944.0000000000001</ele><time>2026-04-26T10:02:02.88Z</time></trkpt><trkpt lat="40.551095" lon="15.5226083"><ele>944.0</ele><time>2026-04-26T10:02:04.88Z</time></trkpt><trkpt lat="40.551145" lon="15.5227333"><ele>944.0</ele><time>2026-04-26T10:02:06.88Z</time></trkpt><trkpt lat="40.551165" lon="15.522885"><ele>943.5000000000001</ele><time>2026-04-26T10:02:08.879Z</time></trkpt><trkpt lat="40.5511633" lon="15.52297"><ele>943.0</ele><time>2026-04-26T10:02:09.88Z</time></trkpt><trkpt lat="40.5511617" lon="15.5230567"><ele>942.5</ele><time>2026-04-26T10:02:10.88Z</time></trkpt><trkpt lat="40.5511667" lon="15.5231467"><ele>942.0</ele><time>2026-04-26T10:02:11.88Z</time></trkpt><trkpt lat="40.5511967" lon="15.5232883"><ele>941.5000000000001</ele><time>2026-04-26T10:02:13.88Z</time></trkpt><trkpt lat="40.5512633" lon="15.5234233"><ele>941.0</ele><time>2026-04-26T10:02:15.88Z</time></trkpt><trkpt lat="40.5513017" lon="15.5234917"><ele>943.1666666666667</ele><time>2026-04-26T10:02:16.879Z</time></trkpt><trkpt lat="40.55136" lon="15.5235683"><ele>945.3333333333334</ele><time>2026-04-26T10:02:18.88Z</time></trkpt><trkpt lat="40.55143" lon="15.5235833"><ele>947.5</ele><time>2026-04-26T10:02:20.88Z</time></trkpt><trkpt lat="40.5515167" lon="15.5236033"><ele>949.6666666666667</ele><time>2026-04-26T10:02:23.88Z</time></trkpt><trkpt lat="40.55158" lon="15.523645"><ele>951.8333333333334</ele><time>2026-04-26T10:02:26.879Z</time></trkpt><trkpt lat="40.5516383" lon="15.5237333"><ele>954.0</ele><time>2026-04-26T10:02:29.88Z</time></trkpt><trkpt lat="40.5516983" lon="15.5237667"><ele>954.0</ele><time>2026-04-26T10:02:31.88Z</time></trkpt><trkpt lat="40.55176" lon="15.52379"><ele>954.0</ele><time>2026-04-26T10:02:33.88Z</time></trkpt><trkpt lat="40.551825" lon="15.523815"><ele>954.0</ele><time>2026-04-26T10:02:35.88Z</time></trkpt><trkpt lat="40.551905" lon="15.52385"><ele>954.0</ele><time>2026-04-26T10:02:37.879Z</time></trkpt><trkpt lat="40.5520017" lon="15.52389"><ele>954.0</ele><time>2026-04-26T10:02:39.88Z</time></trkpt><trkpt lat="40.55213" lon="15.5239183"><ele>954.0</ele><time>2026-04-26T10:02:41.88Z</time></trkpt><trkpt lat="40.5522" lon="15.5239417"><ele>957.4285714285713</ele><time>2026-04-26T10:02:42.88Z</time></trkpt><trkpt lat="40.552265" lon="15.52396"><ele>960.8571428571428</ele><time>2026-04-26T10:02:43.88Z</time></trkpt><trkpt lat="40.5523283" lon="15.52398"><ele>964.2857142857142</ele><time>2026-04-26T10:02:44.88Z</time></trkpt><trkpt lat="40.5523983" lon="15.5239983"><ele>967.7142857142858</ele><time>2026-04-26T10:02:45.88Z</time></trkpt><trkpt lat="40.5524717" lon="15.5240217"><ele>971.1428571428572</ele><time>2026-04-26T10:02:46.88Z</time></trkpt><trkpt lat="40.5525383" lon="15.524055"><ele>974.5714285714287</ele><time>2026-04-26T10:02:47.879Z</time></trkpt><trkpt lat="40.5525983" lon="15.5240983"><ele>978.0</ele><time>2026-04-26T10:02:48.88Z</time></trkpt><trkpt lat="40.5526967" lon="15.5241533"><ele>978.0</ele><time>2026-04-26T10:02:50.879Z</time></trkpt><trkpt lat="40.5528017" lon="15.5241633"><ele>978.0</ele><time>2026-04-26T10:02:52.88Z</time></trkpt><trkpt lat="40.5529283" lon="15.5241683"><ele>978.0</ele><time>2026-04-26T10:02:54.879Z</time></trkpt><trkpt lat="40.5529917" lon="15.5241683"><ele>978.0</ele><time>2026-04-26T10:02:55.88Z</time></trkpt><trkpt lat="40.553115" lon="15.5241783"><ele>978.0</ele><time>2026-04-26T10:02:57.88Z</time></trkpt><trkpt lat="40.553235" lon="15.5241717"><ele>981.6666666666666</ele><time>2026-04-26T10:02:59.88Z</time></trkpt><trkpt lat="40.5533517" lon="15.5241933"><ele>985.3333333333333</ele><time>2026-04-26T10:03:01.88Z</time></trkpt><trkpt lat="40.5534717" lon="15.5242317"><ele>989.0</ele><time>2026-04-26T10:03:03.88Z</time></trkpt><trkpt lat="40.553535" lon="15.5242467"><ele>992.6666666666666</ele><time>2026-04-26T10:03:04.88Z</time></trkpt><trkpt lat="40.5536" lon="15.524265"><ele>996.3333333333333</ele><time>2026-04-26T10:03:05.879Z</time></trkpt><trkpt lat="40.5536667" lon="15.5242833"><ele>1000.0</ele><time>2026-04-26T10:03:06.88Z</time></trkpt><trkpt lat="40.5537717" lon="15.52429"><ele>999.9999999999999</ele><time>2026-04-26T10:03:08.879Z</time></trkpt><trkpt lat="40.5537967" lon="15.52421"><ele>1000.0</ele><time>2026-04-26T10:03:11.879Z</time></trkpt><trkpt lat="40.5537833" lon="15.5242933"><ele>1000.0</ele><time>2026-04-26T10:14:43.878Z</time></trkpt><trkpt lat="40.55371" lon="15.5242817"><ele>1000.0</ele><time>2026-04-26T10:14:47.877Z</time></trkpt><trkpt lat="40.55363" lon="15.5242567"><ele>999.9999999999999</ele><time>2026-04-26T10:14:51.878Z</time></trkpt><trkpt lat="40.5535567" lon="15.5242433"><ele>1000.0</ele><time>2026-04-26T10:14:54.878Z</time></trkpt><trkpt lat="40.5534683" lon="15.5242167"><ele>999.9999999999999</ele><time>2026-04-26T10:14:57.877Z</time></trkpt><trkpt lat="40.5533933" lon="15.52419"><ele>1000.0</ele><time>2026-04-26T10:15:00.878Z</time></trkpt><trkpt lat="40.5533083" lon="15.524175"><ele>1000.0</ele><time>2026-04-26T10:15:03.877Z</time></trkpt><trkpt lat="40.553225" lon="15.5241717"><ele>1000.0</ele><time>2026-04-26T10:15:06.878Z</time></trkpt><trkpt lat="40.5531433" lon="15.524175"><ele>999.9999999999999</ele><time>2026-04-26T10:15:09.878Z</time></trkpt><trkpt lat="40.553055" lon="15.5241617"><ele>1000.0</ele><time>2026-04-26T10:15:12.878Z</time></trkpt><trkpt lat="40.5529833" lon="15.5241567"><ele>999.9999999999999</ele><time>2026-04-26T10:15:14.878Z</time></trkpt><trkpt lat="40.5528933" lon="15.52415"><ele>1000.0</ele><time>2026-04-26T10:15:16.877Z</time></trkpt><trkpt lat="40.5528117" lon="15.5241417"><ele>1000.0</ele><time>2026-04-26T10:15:18.878Z</time></trkpt><trkpt lat="40.552725" lon="15.524145"><ele>1000.0</ele><time>2026-04-26T10:15:21.877Z</time></trkpt><trkpt lat="40.55265" lon="15.5241117"><ele>999.9999999999999</ele><time>2026-04-26T10:15:23.877Z</time></trkpt><trkpt lat="40.55257" lon="15.5240633"><ele>1000.0</ele><time>2026-04-26T10:15:25.877Z</time></trkpt><trkpt lat="40.5524933" lon="15.5240133"><ele>996.3333333333333</ele><time>2026-04-26T10:15:27.878Z</time></trkpt><trkpt lat="40.552415" lon="15.52399"><ele>992.6666666666666</ele><time>2026-04-26T10:15:29.878Z</time></trkpt><trkpt lat="40.5523433" lon="15.523975"><ele>989.0</ele><time>2026-04-26T10:15:31.877Z</time></trkpt><trkpt lat="40.5522683" lon="15.523955"><ele>985.3333333333333</ele><time>2026-04-26T10:15:33.878Z</time></trkpt><trkpt lat="40.55218" lon="15.5239233"><ele>981.6666666666666</ele><time>2026-04-26T10:15:35.877Z</time></trkpt><trkpt lat="40.5520817" lon="15.523895"><ele>978.0</ele><time>2026-04-26T10:15:37.878Z</time></trkpt><trkpt lat="40.5519833" lon="15.5238683"><ele>974.3333333333334</ele><time>2026-04-26T10:15:39.878Z</time></trkpt><trkpt lat="40.5518933" lon="15.5238317"><ele>970.6666666666667</ele><time>2026-04-26T10:15:41.877Z</time></trkpt><trkpt lat="40.551825" lon="15.5238017"><ele>967.0</ele><time>2026-04-26T10:15:43.878Z</time></trkpt><trkpt lat="40.55176" lon="15.52377"><ele>963.3333333333334</ele><time>2026-04-26T10:15:45.877Z</time></trkpt><trkpt lat="40.5516983" lon="15.5237433"><ele>959.6666666666667</ele><time>2026-04-26T10:15:47.877Z</time></trkpt><trkpt lat="40.5516217" lon="15.5236933"><ele>956.0</ele><time>2026-04-26T10:15:50.877Z</time></trkpt><trkpt lat="40.551565" lon="15.523615"><ele>956.0</ele><time>2026-04-26T10:15:53.878Z</time></trkpt><trkpt lat="40.5515017" lon="15.52357"><ele>955.9999999999999</ele><time>2026-04-26T10:15:56.878Z</time></trkpt><trkpt lat="40.5514117" lon="15.5235667"><ele>955.9999999999999</ele><time>2026-04-26T10:15:59.878Z</time></trkpt><trkpt lat="40.5513267" lon="15.5234967"><ele>956.0</ele><time>2026-04-26T10:16:02.878Z</time></trkpt><trkpt lat="40.5512667" lon="15.523395"><ele>956.0</ele><time>2026-04-26T10:16:04.877Z</time></trkpt><trkpt lat="40.5512133" lon="15.5232933"><ele>953.5999999999999</ele><time>2026-04-26T10:16:06.878Z</time></trkpt><trkpt lat="40.551185" lon="15.5231933"><ele>951.1999999999999</ele><time>2026-04-26T10:16:08.877Z</time></trkpt><trkpt lat="40.551175" lon="15.5230717"><ele>948.8000000000001</ele><time>2026-04-26T10:16:10.877Z</time></trkpt><trkpt lat="40.5511783" lon="15.5229317"><ele>946.4000000000001</ele><time>2026-04-26T10:16:12.878Z</time></trkpt><trkpt lat="40.5511767" lon="15.522785"><ele>944.0</ele><time>2026-04-26T10:16:14.878Z</time></trkpt><trkpt lat="40.5511333" lon="15.5226633"><ele>944.0</ele><time>2026-04-26T10:16:16.878Z</time></trkpt><trkpt lat="40.5510767" lon="15.52258"><ele>944.0000000000001</ele><time>2026-04-26T10:16:18.878Z</time></trkpt><trkpt lat="40.5510067" lon="15.5225383"><ele>944.0000000000001</ele><time>2026-04-26T10:16:20.877Z</time></trkpt><trkpt lat="40.55092" lon="15.5224617"><ele>944.0</ele><time>2026-04-26T10:29:40.875Z</time></trkpt><trkpt lat="40.550825" lon="15.5223867"><ele>944.0</ele><time>2026-04-26T10:29:42.875Z</time></trkpt><trkpt lat="40.5507333" lon="15.5223083"><ele>944.0</ele><time>2026-04-26T10:29:44.874Z</time></trkpt><trkpt lat="40.5506133" lon="15.5222767"><ele>944.0000000000001</ele><time>2026-04-26T10:29:46.875Z</time></trkpt><trkpt lat="40.5504933" lon="15.52225"><ele>944.0000000000001</ele><time>2026-04-26T10:29:48.875Z</time></trkpt><trkpt lat="40.550425" lon="15.5222317"><ele>944.0</ele><time>2026-04-26T10:29:49.874Z</time></trkpt><trkpt lat="40.5503617" lon="15.5222167"><ele>944.0</ele><time>2026-04-26T10:29:50.874Z</time></trkpt><trkpt lat="40.5502483" lon="15.5221733"><ele>944.3333333333334</ele><time>2026-04-26T10:29:52.875Z</time></trkpt><trkpt lat="40.5501617" lon="15.52207"><ele>944.6666666666667</ele><time>2026-04-26T10:29:54.874Z</time></trkpt><trkpt lat="40.5501233" lon="15.5220033"><ele>945.0</ele><time>2026-04-26T10:29:55.873Z</time></trkpt><trkpt lat="40.550065" lon="15.5218533"><ele>945.3333333333333</ele><time>2026-04-26T10:29:57.873Z</time></trkpt><trkpt lat="40.55004" lon="15.5217717"><ele>945.6666666666666</ele><time>2026-04-26T10:29:58.874Z</time></trkpt><trkpt lat="40.5500217" lon="15.52169"><ele>946.0</ele><time>2026-04-26T10:29:59.874Z</time></trkpt><trkpt lat="40.5499983" lon="15.52161"><ele>946.4</ele><time>2026-04-26T10:30:00.873Z</time></trkpt><trkpt lat="40.5499567" lon="15.521455"><ele>946.8</ele><time>2026-04-26T10:30:02.873Z</time></trkpt><trkpt lat="40.549935" lon="15.5213733"><ele>947.1999999999999</ele><time>2026-04-26T10:30:03.873Z</time></trkpt><trkpt lat="40.54989" lon="15.5212167"><ele>947.5999999999999</ele><time>2026-04-26T10:30:05.874Z</time></trkpt><trkpt lat="40.5498667" lon="15.5211383"><ele>948.0</ele><time>2026-04-26T10:30:06.873Z</time></trkpt><trkpt lat="40.549815" lon="15.5209867"><ele>947.0</ele><time>2026-04-26T10:30:08.873Z</time></trkpt><trkpt lat="40.5497617" lon="15.5208433"><ele>946.0</ele><time>2026-04-26T10:30:10.873Z</time></trkpt><trkpt lat="40.5497117" lon="15.520705"><ele>945.0</ele><time>2026-04-26T10:30:12.874Z</time></trkpt><trkpt lat="40.54966" lon="15.52058"><ele>944.0</ele><time>2026-04-26T10:30:14.874Z</time></trkpt><trkpt lat="40.5496117" lon="15.5204533"><ele>944.0</ele><time>2026-04-26T10:30:16.873Z</time></trkpt><trkpt lat="40.5495533" lon="15.5203317"><ele>944.0000000000001</ele><time>2026-04-26T10:30:18.873Z</time></trkpt><trkpt lat="40.549495" lon="15.520205"><ele>944.0000000000001</ele><time>2026-04-26T10:30:20.873Z</time></trkpt><trkpt lat="40.5494383" lon="15.5200933"><ele>944.0</ele><time>2026-04-26T10:30:22.874Z</time></trkpt><trkpt lat="40.5493967" lon="15.5200183"><ele>944.0</ele><time>2026-04-26T10:30:24.874Z</time></trkpt><trkpt lat="40.5493833" lon="15.5199117"><ele>943.5000000000001</ele><time>2026-04-26T10:30:28.874Z</time></trkpt><trkpt lat="40.54938" lon="15.5198217"><ele>943.0</ele><time>2026-04-26T10:30:31.874Z</time></trkpt><trkpt lat="40.5493967" lon="15.5197117"><ele>942.5</ele><time>2026-04-26T10:30:34.874Z</time></trkpt><trkpt lat="40.54941" lon="15.5195983"><ele>942.0</ele><time>2026-04-26T10:30:37.873Z</time></trkpt><trkpt lat="40.5494083" lon="15.5195033"><ele>941.5000000000001</ele><time>2026-04-26T10:30:40.874Z</time></trkpt><trkpt lat="40.5494117" lon="15.519415"><ele>941.0</ele><time>2026-04-26T10:30:42.873Z</time></trkpt><trkpt lat="40.5494167" lon="15.519275"><ele>940.9999999999999</ele><time>2026-04-26T10:30:44.874Z</time></trkpt><trkpt lat="40.5494217" lon="15.5191883"><ele>941.0</ele><time>2026-04-26T10:30:45.873Z</time></trkpt><trkpt lat="40.549425" lon="15.5190983"><ele>940.9999999999999</ele><time>2026-04-26T10:30:46.874Z</time></trkpt><trkpt lat="40.549425" lon="15.519005"><ele>940.9999999999999</ele><time>2026-04-26T10:30:47.873Z</time></trkpt><trkpt lat="40.5494233" lon="15.518905"><ele>941.0</ele><time>2026-04-26T10:30:48.874Z</time></trkpt><trkpt lat="40.5494217" lon="15.5188067"><ele>940.9999999999999</ele><time>2026-04-26T10:30:49.874Z</time></trkpt><trkpt lat="40.5494217" lon="15.5187067"><ele>940.9999999999999</ele><time>2026-04-26T10:30:50.873Z</time></trkpt><trkpt lat="40.54942" lon="15.5186083"><ele>940.1666666666667</ele><time>2026-04-26T10:30:51.874Z</time></trkpt><trkpt lat="40.5494183" lon="15.5185083"><ele>939.3333333333334</ele><time>2026-04-26T10:30:52.873Z</time></trkpt><trkpt lat="40.5494217" lon="15.5184083"><ele>938.5</ele><time>2026-04-26T10:30:53.874Z</time></trkpt><trkpt lat="40.5494217" lon="15.51832"><ele>937.6666666666667</ele><time>2026-04-26T10:30:54.874Z</time></trkpt><trkpt lat="40.5494267" lon="15.5182317"><ele>936.8333333333334</ele><time>2026-04-26T10:30:55.873Z</time></trkpt><trkpt lat="40.54943" lon="15.5181483"><ele>936.0</ele><time>2026-04-26T10:30:56.873Z</time></trkpt><trkpt lat="40.549435" lon="15.5179933"><ele>935.1666666666666</ele><time>2026-04-26T10:30:58.873Z</time></trkpt><trkpt lat="40.5494333" lon="15.5178683"><ele>934.3333333333333</ele><time>2026-04-26T10:31:00.873Z</time></trkpt><trkpt lat="40.5493983" lon="15.51779"><ele>933.5</ele><time>2026-04-26T10:31:02.874Z</time></trkpt><trkpt lat="40.5493183" lon="15.5177233"><ele>932.6666666666666</ele><time>2026-04-26T10:34:06.873Z</time></trkpt><trkpt lat="40.5492967" lon="15.517625"><ele>931.8333333333333</ele><time>2026-04-26T10:34:08.873Z</time></trkpt><trkpt lat="40.54929" lon="15.5175067"><ele>931.0</ele><time>2026-04-26T10:34:10.873Z</time></trkpt><trkpt lat="40.5492933" lon="15.517375"><ele>930.9999999999999</ele><time>2026-04-26T10:34:12.872Z</time></trkpt><trkpt lat="40.5492867" lon="15.51725"><ele>931.0</ele><time>2026-04-26T10:34:14.873Z</time></trkpt><trkpt lat="40.5492867" lon="15.5171433"><ele>931.0</ele><time>2026-04-26T10:34:16.873Z</time></trkpt><trkpt lat="40.5492883" lon="15.5170467"><ele>931.0</ele><time>2026-04-26T10:34:18.873Z</time></trkpt><trkpt lat="40.5492917" lon="15.5169483"><ele>930.9999999999999</ele><time>2026-04-26T10:34:20.873Z</time></trkpt><trkpt lat="40.5493" lon="15.5168417"><ele>931.0</ele><time>2026-04-26T10:34:22.872Z</time></trkpt><trkpt lat="40.5493033" lon="15.5167483"><ele>929.8</ele><time>2026-04-26T10:34:24.872Z</time></trkpt><trkpt lat="40.5493" lon="15.5166417"><ele>928.5999999999999</ele><time>2026-04-26T10:34:26.873Z</time></trkpt><trkpt lat="40.5492967" lon="15.5165333"><ele>927.4</ele><time>2026-04-26T10:34:28.873Z</time></trkpt><trkpt lat="40.5492967" lon="15.5164217"><ele>926.2</ele><time>2026-04-26T10:34:30.873Z</time></trkpt><trkpt lat="40.5493" lon="15.5163267"><ele>925.0</ele><time>2026-04-26T10:34:32.873Z</time></trkpt><trkpt lat="40.5493067" lon="15.516155"><ele>923.6666666666666</ele><time>2026-04-26T10:34:45.872Z</time></trkpt><trkpt lat="40.5493067" lon="15.51602"><ele>922.3333333333333</ele><time>2026-04-26T10:34:47.873Z</time></trkpt><trkpt lat="40.5493" lon="15.5158983"><ele>921.0</ele><time>2026-04-26T10:34:49.872Z</time></trkpt><trkpt lat="40.5492833" lon="15.5157867"><ele>919.6666666666667</ele><time>2026-04-26T10:34:51.872Z</time></trkpt><trkpt lat="40.54926" lon="15.515675"><ele>918.3333333333334</ele><time>2026-04-26T10:34:53.873Z</time></trkpt><trkpt lat="40.5492367" lon="15.5155817"><ele>917.0</ele><time>2026-04-26T10:34:55.872Z</time></trkpt><trkpt lat="40.549215" lon="15.5154833"><ele>917.0000000000001</ele><time>2026-04-26T10:34:58.872Z</time></trkpt><trkpt lat="40.5491933" lon="15.5153667"><ele>917.0</ele><time>2026-04-26T10:35:01.873Z</time></trkpt><trkpt lat="40.5491767" lon="15.5152717"><ele>917.0</ele><time>2026-04-26T10:35:03.873Z</time></trkpt><trkpt lat="40.549145" lon="15.5151867"><ele>917.0</ele><time>2026-04-26T10:35:05.872Z</time></trkpt><trkpt lat="40.549145" lon="15.515285"><ele>917.0000000000001</ele><time>2026-04-26T10:42:14.871Z</time></trkpt><trkpt lat="40.54917" lon="15.5154183"><ele>917.0</ele><time>2026-04-26T10:42:16.872Z</time></trkpt><trkpt lat="40.5492067" lon="15.5155433"><ele>917.0</ele><time>2026-04-26T10:42:18.871Z</time></trkpt><trkpt lat="40.5492467" lon="15.5156567"><ele>917.0</ele><time>2026-04-26T10:42:20.871Z</time></trkpt><trkpt lat="40.5492867" lon="15.515815"><ele>917.0</ele><time>2026-04-26T10:42:22.872Z</time></trkpt><trkpt lat="40.5493017" lon="15.5159017"><ele>917.0</ele><time>2026-04-26T10:42:23.872Z</time></trkpt><trkpt lat="40.5493067" lon="15.516055"><ele>917.0</ele><time>2026-04-26T10:42:25.872Z</time></trkpt><trkpt lat="40.5492967" lon="15.5162417"><ele>918.3333333333334</ele><time>2026-04-26T10:42:27.871Z</time></trkpt><trkpt lat="40.5492917" lon="15.5163517"><ele>919.6666666666667</ele><time>2026-04-26T10:42:28.871Z</time></trkpt><trkpt lat="40.5492883" lon="15.5164633"><ele>921.0</ele><time>2026-04-26T10:42:29.872Z</time></trkpt><trkpt lat="40.54929" lon="15.51658"><ele>922.3333333333333</ele><time>2026-04-26T10:42:30.871Z</time></trkpt><trkpt lat="40.5492933" lon="15.5166767"><ele>923.6666666666666</ele><time>2026-04-26T10:42:31.872Z</time></trkpt><trkpt lat="40.5492967" lon="15.5167717"><ele>925.0</ele><time>2026-04-26T10:42:32.872Z</time></trkpt><trkpt lat="40.5492917" lon="15.5168617"><ele>924.9999999999999</ele><time>2026-04-26T10:42:33.871Z</time></trkpt><trkpt lat="40.5492833" lon="15.51696"><ele>925.0</ele><time>2026-04-26T10:42:34.871Z</time></trkpt><trkpt lat="40.5492833" lon="15.5170633"><ele>925.0</ele><time>2026-04-26T10:42:35.872Z</time></trkpt><trkpt lat="40.549285" lon="15.517155"><ele>925.0</ele><time>2026-04-26T10:42:36.871Z</time></trkpt><trkpt lat="40.5492883" lon="15.5172533"><ele>924.9999999999999</ele><time>2026-04-26T10:42:37.871Z</time></trkpt><trkpt lat="40.5492967" lon="15.5173583"><ele>925.0</ele><time>2026-04-26T10:42:38.872Z</time></trkpt><trkpt lat="40.5493" lon="15.517465"><ele>925.9999999999999</ele><time>2026-04-26T10:42:39.871Z</time></trkpt><trkpt lat="40.5492967" lon="15.5175667"><ele>927.0</ele><time>2026-04-26T10:42:40.871Z</time></trkpt><trkpt lat="40.54931" lon="15.517705"><ele>928.0</ele><time>2026-04-26T10:42:42.871Z</time></trkpt><trkpt lat="40.549335" lon="15.5178067"><ele>929.0</ele><time>2026-04-26T10:42:45.872Z</time></trkpt><trkpt lat="40.5492867" lon="15.5178617"><ele>929.9999999999999</ele><time>2026-04-26T10:42:47.871Z</time></trkpt><trkpt lat="40.5492" lon="15.5179067"><ele>931.0</ele><time>2026-04-26T10:42:49.871Z</time></trkpt><trkpt lat="40.54914" lon="15.5179333"><ele>931.8333333333333</ele><time>2026-04-26T10:42:50.872Z</time></trkpt><trkpt lat="40.5490783" lon="15.5179667"><ele>932.6666666666666</ele><time>2026-04-26T10:42:51.871Z</time></trkpt><trkpt lat="40.54901" lon="15.5180083"><ele>933.5</ele><time>2026-04-26T10:42:52.872Z</time></trkpt><trkpt lat="40.54894" lon="15.5180517"><ele>934.3333333333333</ele><time>2026-04-26T10:42:53.872Z</time></trkpt><trkpt lat="40.5488717" lon="15.5180983"><ele>935.1666666666666</ele><time>2026-04-26T10:42:54.872Z</time></trkpt><trkpt lat="40.5488017" lon="15.5181433"><ele>936.0</ele><time>2026-04-26T10:42:55.872Z</time></trkpt><trkpt lat="40.548725" lon="15.5181867"><ele>936.8</ele><time>2026-04-26T10:42:56.871Z</time></trkpt><trkpt lat="40.548645" lon="15.5182333"><ele>937.5999999999999</ele><time>2026-04-26T10:42:57.871Z</time></trkpt><trkpt lat="40.5485617" lon="15.5182783"><ele>938.4</ele><time>2026-04-26T10:42:58.872Z</time></trkpt><trkpt lat="40.5484783" lon="15.5183283"><ele>939.2</ele><time>2026-04-26T10:42:59.872Z</time></trkpt><trkpt lat="40.5483967" lon="15.5183833"><ele>940.0</ele><time>2026-04-26T10:43:00.872Z</time></trkpt><trkpt lat="40.5483133" lon="15.5184417"><ele>939.9999999999999</ele><time>2026-04-26T10:43:01.872Z</time></trkpt><trkpt lat="40.5482333" lon="15.5185067"><ele>940.0</ele><time>2026-04-26T10:43:02.87Z</time></trkpt><trkpt lat="40.5481533" lon="15.5185683"><ele>940.0</ele><time>2026-04-26T10:43:03.871Z</time></trkpt><trkpt lat="40.548075" lon="15.5186283"><ele>940.0</ele><time>2026-04-26T10:43:04.87Z</time></trkpt><trkpt lat="40.5480017" lon="15.518685"><ele>939.9999999999999</ele><time>2026-04-26T10:43:05.87Z</time></trkpt><trkpt lat="40.547925" lon="15.5187383"><ele>940.0</ele><time>2026-04-26T10:43:06.871Z</time></trkpt><trkpt lat="40.5478467" lon="15.518795"><ele>941.8</ele><time>2026-04-26T10:43:07.871Z</time></trkpt><trkpt lat="40.5477667" lon="15.5188567"><ele>943.6</ele><time>2026-04-26T10:43:08.871Z</time></trkpt><trkpt lat="40.5476867" lon="15.5189267"><ele>945.4000000000001</ele><time>2026-04-26T10:43:09.871Z</time></trkpt><trkpt lat="40.547605" lon="15.5190033"><ele>947.2</ele><time>2026-04-26T10:43:10.87Z</time></trkpt><trkpt lat="40.54752" lon="15.51909"><ele>949.0</ele><time>2026-04-26T10:43:11.87Z</time></trkpt><trkpt lat="40.54745" lon="15.5191717"><ele>948.9999999999999</ele><time>2026-04-26T10:43:12.87Z</time></trkpt><trkpt lat="40.547395" lon="15.519235"><ele>949.0</ele><time>2026-04-26T10:43:13.87Z</time></trkpt><trkpt lat="40.54734" lon="15.5193033"><ele>949.0</ele><time>2026-04-26T10:43:14.871Z</time></trkpt><trkpt lat="40.5472883" lon="15.5193767"><ele>949.0</ele><time>2026-04-26T10:43:15.87Z</time></trkpt><trkpt lat="40.5472367" lon="15.5194583"><ele>948.9999999999999</ele><time>2026-04-26T10:43:16.871Z</time></trkpt><trkpt lat="40.54719" lon="15.5195467"><ele>949.0</ele><time>2026-04-26T10:43:17.871Z</time></trkpt><trkpt lat="40.54714" lon="15.5196383"><ele>948.8333333333333</ele><time>2026-04-26T10:43:18.871Z</time></trkpt><trkpt lat="40.547085" lon="15.5197233"><ele>948.6666666666666</ele><time>2026-04-26T10:43:19.871Z</time></trkpt><trkpt lat="40.5470283" lon="15.5198083"><ele>948.5</ele><time>2026-04-26T10:43:20.87Z</time></trkpt><trkpt lat="40.5469733" lon="15.5198933"><ele>948.3333333333333</ele><time>2026-04-26T10:43:21.87Z</time></trkpt><trkpt lat="40.5469167" lon="15.5199783"><ele>948.1666666666666</ele><time>2026-04-26T10:43:22.871Z</time></trkpt><trkpt lat="40.5468583" lon="15.520065"><ele>948.0</ele><time>2026-04-26T10:43:23.871Z</time></trkpt><trkpt lat="40.5467983" lon="15.5201517"><ele>953.0</ele><time>2026-04-26T10:43:24.87Z</time></trkpt><trkpt lat="40.546735" lon="15.520235"><ele>958.0</ele><time>2026-04-26T10:43:25.871Z</time></trkpt><trkpt lat="40.5466683" lon="15.5203233"><ele>963.0</ele><time>2026-04-26T10:43:26.87Z</time></trkpt><trkpt lat="40.5466017" lon="15.5204133"><ele>968.0</ele><time>2026-04-26T10:43:27.87Z</time></trkpt><trkpt lat="40.5465283" lon="15.5205"><ele>973.0</ele><time>2026-04-26T10:43:28.871Z</time></trkpt><trkpt lat="40.54645" lon="15.5205783"><ele>974.5999999999999</ele><time>2026-04-26T10:43:29.87Z</time></trkpt><trkpt lat="40.5463633" lon="15.5206383"><ele>976.1999999999999</ele><time>2026-04-26T10:43:30.87Z</time></trkpt><trkpt lat="40.5462717" lon="15.5206783"><ele>977.8</ele><time>2026-04-26T10:43:31.87Z</time></trkpt><trkpt lat="40.5461767" lon="15.5206933"><ele>979.4</ele><time>2026-04-26T10:43:32.87Z</time></trkpt><trkpt lat="40.5460783" lon="15.5206933"><ele>981.0</ele><time>2026-04-26T10:43:33.87Z</time></trkpt><trkpt lat="40.5459767" lon="15.5206917"><ele>984.5999999999999</ele><time>2026-04-26T10:43:34.871Z</time></trkpt><trkpt lat="40.5458833" lon="15.5206967"><ele>988.1999999999999</ele><time>2026-04-26T10:43:35.871Z</time></trkpt><trkpt lat="40.5457933" lon="15.520715"><ele>991.8000000000001</ele><time>2026-04-26T10:43:36.871Z</time></trkpt><trkpt lat="40.54571" lon="15.52075"><ele>995.4000000000001</ele><time>2026-04-26T10:43:37.871Z</time></trkpt><trkpt lat="40.5456267" lon="15.5207967"><ele>999.0</ele><time>2026-04-26T10:43:38.871Z</time></trkpt><trkpt lat="40.5455483" lon="15.5208567"><ele>999.0</ele><time>2026-04-26T10:43:39.871Z</time></trkpt><trkpt lat="40.5454733" lon="15.5209267"><ele>999.0000000000001</ele><time>2026-04-26T10:43:40.87Z</time></trkpt><trkpt lat="40.5454" lon="15.5209967"><ele>999.0000000000001</ele><time>2026-04-26T10:43:41.87Z</time></trkpt><trkpt lat="40.5453233" lon="15.521055"><ele>999.0</ele><time>2026-04-26T10:43:42.871Z</time></trkpt><trkpt lat="40.54524" lon="15.5211117"><ele>999.0</ele><time>2026-04-26T10:43:43.871Z</time></trkpt><trkpt lat="40.5451483" lon="15.5211583"><ele>1000.8000000000001</ele><time>2026-04-26T10:43:44.87Z</time></trkpt><trkpt lat="40.5450567" lon="15.521215"><ele>1002.6000000000001</ele><time>2026-04-26T10:43:45.871Z</time></trkpt><trkpt lat="40.5449667" lon="15.5212733"><ele>1004.4</ele><time>2026-04-26T10:43:46.871Z</time></trkpt><trkpt lat="40.5448783" lon="15.5213333"><ele>1006.2</ele><time>2026-04-26T10:43:47.87Z</time></trkpt><trkpt lat="40.54479" lon="15.52139"><ele>1008.0</ele><time>2026-04-26T10:43:48.871Z</time></trkpt><trkpt lat="40.5447083" lon="15.52145"><ele>1012.1666666666666</ele><time>2026-04-26T10:43:49.871Z</time></trkpt><trkpt lat="40.5446283" lon="15.52151"><ele>1016.3333333333333</ele><time>2026-04-26T10:43:50.871Z</time></trkpt><trkpt lat="40.544555" lon="15.521575"><ele>1020.5</ele><time>2026-04-26T10:43:51.871Z</time></trkpt><trkpt lat="40.5444817" lon="15.5216383"><ele>1024.6666666666665</ele><time>2026-04-26T10:43:52.871Z</time></trkpt><trkpt lat="40.54441" lon="15.5217083"><ele>1028.8333333333333</ele><time>2026-04-26T10:43:53.87Z</time></trkpt><trkpt lat="40.5443483" lon="15.52179"><ele>1033.0</ele><time>2026-04-26T10:43:54.87Z</time></trkpt><trkpt lat="40.544295" lon="15.5218767"><ele>1033.1666666666665</ele><time>2026-04-26T10:43:55.87Z</time></trkpt><trkpt lat="40.544255" lon="15.5219467"><ele>1033.3333333333333</ele><time>2026-04-26T10:43:56.871Z</time></trkpt><trkpt lat="40.54417" lon="15.5220667"><ele>1033.5</ele><time>2026-04-26T10:43:58.87Z</time></trkpt><trkpt lat="40.544125" lon="15.5221267"><ele>1033.6666666666667</ele><time>2026-04-26T10:43:59.87Z</time></trkpt><trkpt lat="40.5440817" lon="15.5221917"><ele>1033.8333333333335</ele><time>2026-04-26T10:44:00.87Z</time></trkpt><trkpt lat="40.5440317" lon="15.5222517"><ele>1034.0</ele><time>2026-04-26T10:44:01.871Z</time></trkpt><trkpt lat="40.5439767" lon="15.5223117"><ele>1036.3333333333335</ele><time>2026-04-26T10:44:02.871Z</time></trkpt><trkpt lat="40.54391" lon="15.5223583"><ele>1038.6666666666667</ele><time>2026-04-26T10:44:03.87Z</time></trkpt><trkpt lat="40.5438317" lon="15.522375"><ele>1041.0</ele><time>2026-04-26T10:44:04.87Z</time></trkpt><trkpt lat="40.5437483" lon="15.5223817"><ele>1043.3333333333333</ele><time>2026-04-26T10:44:05.871Z</time></trkpt><trkpt lat="40.5436583" lon="15.522415"><ele>1045.6666666666665</ele><time>2026-04-26T10:44:06.87Z</time></trkpt><trkpt lat="40.5435733" lon="15.52248"><ele>1048.0</ele><time>2026-04-26T10:44:07.871Z</time></trkpt><trkpt lat="40.5434867" lon="15.5225683"><ele>1048.0</ele><time>2026-04-26T10:44:08.871Z</time></trkpt><trkpt lat="40.5434083" lon="15.5226383"><ele>1048.0</ele><time>2026-04-26T10:44:09.871Z</time></trkpt><trkpt lat="40.5433467" lon="15.5226833"><ele>1048.0</ele><time>2026-04-26T10:44:10.871Z</time></trkpt><trkpt lat="40.5432867" lon="15.52271"><ele>1048.0</ele><time>2026-04-26T10:44:11.87Z</time></trkpt><trkpt lat="40.5431717" lon="15.5227817"><ele>1048.0</ele><time>2026-04-26T10:44:13.87Z</time></trkpt><trkpt lat="40.5430733" lon="15.5228617"><ele>1049.0</ele><time>2026-04-26T10:44:15.87Z</time></trkpt><trkpt lat="40.5430017" lon="15.522935"><ele>1050.0</ele><time>2026-04-26T10:44:17.87Z</time></trkpt><trkpt lat="40.5429517" lon="15.5229867"><ele>1051.0</ele><time>2026-04-26T10:44:19.871Z</time></trkpt><trkpt lat="40.5428883" lon="15.5230633"><ele>1052.0</ele><time>2026-04-26T10:45:07.87Z</time></trkpt><trkpt lat="40.542835" lon="15.5231083"><ele>1053.0</ele><time>2026-04-26T10:45:08.871Z</time></trkpt><trkpt lat="40.54278" lon="15.5231633"><ele>1054.0</ele><time>2026-04-26T10:45:09.871Z</time></trkpt><trkpt lat="40.5427217" lon="15.5232267"><ele>1055.0</ele><time>2026-04-26T10:45:10.871Z</time></trkpt><trkpt lat="40.5426567" lon="15.5232883"><ele>1055.0</ele><time>2026-04-26T10:45:11.871Z</time></trkpt><trkpt lat="40.5425867" lon="15.5233467"><ele>1055.0</ele><time>2026-04-26T10:45:12.871Z</time></trkpt><trkpt lat="40.5425067" lon="15.5233833"><ele>1055.0</ele><time>2026-04-26T10:45:13.87Z</time></trkpt><trkpt lat="40.5424217" lon="15.5234183"><ele>1055.0</ele><time>2026-04-26T10:45:14.87Z</time></trkpt><trkpt lat="40.5423367" lon="15.5234567"><ele>1055.0</ele><time>2026-04-26T10:45:15.87Z</time></trkpt><trkpt lat="40.54225" lon="15.5235017"><ele>1055.0</ele><time>2026-04-26T10:45:16.871Z</time></trkpt><trkpt lat="40.54216" lon="15.5235617"><ele>1055.0</ele><time>2026-04-26T10:45:17.87Z</time></trkpt><trkpt lat="40.5420767" lon="15.5236217"><ele>1055.0</ele><time>2026-04-26T10:45:18.87Z</time></trkpt><trkpt lat="40.542" lon="15.5236883"><ele>1055.0</ele><time>2026-04-26T10:45:19.871Z</time></trkpt><trkpt lat="40.5419267" lon="15.5237583"><ele>1055.0</ele><time>2026-04-26T10:45:20.87Z</time></trkpt><trkpt lat="40.5418517" lon="15.52381"><ele>1055.0</ele><time>2026-04-26T10:45:21.87Z</time></trkpt><trkpt lat="40.541775" lon="15.5238517"><ele>1055.0</ele><time>2026-04-26T10:45:22.871Z</time></trkpt><trkpt lat="40.5417067" lon="15.52389"><ele>1058.0</ele><time>2026-04-26T10:45:23.87Z</time></trkpt><trkpt lat="40.5416267" lon="15.5239583"><ele>1061.0</ele><time>2026-04-26T10:45:25.871Z</time></trkpt><trkpt lat="40.5415683" lon="15.5240533"><ele>1064.0</ele><time>2026-04-26T10:45:27.871Z</time></trkpt><trkpt lat="40.5414983" lon="15.5241917"><ele>1067.0</ele><time>2026-04-26T10:45:29.87Z</time></trkpt><trkpt lat="40.5414533" lon="15.52427"><ele>1070.0</ele><time>2026-04-26T10:45:30.871Z</time></trkpt><trkpt lat="40.5414033" lon="15.5243567"><ele>1070.0</ele><time>2026-04-26T10:45:31.87Z</time></trkpt><trkpt lat="40.54135" lon="15.5244483"><ele>1070.0</ele><time>2026-04-26T10:45:32.87Z</time></trkpt><trkpt lat="40.5412983" lon="15.5245433"><ele>1070.0</ele><time>2026-04-26T10:45:33.87Z</time></trkpt><trkpt lat="40.541245" lon="15.52464"><ele>1070.0</ele><time>2026-04-26T10:45:34.87Z</time></trkpt><trkpt lat="40.541195" lon="15.52474"><ele>1070.0</ele><time>2026-04-26T10:45:35.87Z</time></trkpt><trkpt lat="40.54115" lon="15.5248467"><ele>1070.3333333333335</ele><time>2026-04-26T10:45:36.871Z</time></trkpt><trkpt lat="40.54111" lon="15.524945"><ele>1070.6666666666667</ele><time>2026-04-26T10:45:37.87Z</time></trkpt><trkpt lat="40.5410717" lon="15.5250367"><ele>1071.0</ele><time>2026-04-26T10:45:38.871Z</time></trkpt><trkpt lat="40.5410367" lon="15.5251233"><ele>1071.3333333333333</ele><time>2026-04-26T10:45:39.871Z</time></trkpt><trkpt lat="40.541005" lon="15.5251983"><ele>1071.6666666666665</ele><time>2026-04-26T10:45:40.871Z</time></trkpt><trkpt lat="40.5409417" lon="15.52532"><ele>1072.0</ele><time>2026-04-26T10:45:42.871Z</time></trkpt><trkpt lat="40.54088" lon="15.52544"><ele>1072.0</ele><time>2026-04-26T10:45:44.87Z</time></trkpt><trkpt lat="40.5408167" lon="15.525575"><ele>1072.0</ele><time>2026-04-26T10:45:46.87Z</time></trkpt><trkpt lat="40.54078" lon="15.5256433"><ele>1072.0</ele><time>2026-04-26T10:45:47.87Z</time></trkpt><trkpt lat="40.54074" lon="15.52571"><ele>1072.0</ele><time>2026-04-26T10:45:48.87Z</time></trkpt><trkpt lat="40.5407017" lon="15.52578"><ele>1072.0</ele><time>2026-04-26T10:45:49.871Z</time></trkpt><trkpt lat="40.5406233" lon="15.5258833"><ele>1072.0</ele><time>2026-04-26T10:45:51.871Z</time></trkpt><trkpt lat="40.540535" lon="15.5259717"><ele>1072.0</ele><time>2026-04-26T10:45:53.87Z</time></trkpt><trkpt lat="40.5404467" lon="15.5260517"><ele>1072.0</ele><time>2026-04-26T10:45:55.87Z</time></trkpt><trkpt lat="40.5403617" lon="15.5261533"><ele>1072.0</ele><time>2026-04-26T10:45:57.871Z</time></trkpt><trkpt lat="40.540315" lon="15.5262167"><ele>1072.0</ele><time>2026-04-26T10:45:58.87Z</time></trkpt><trkpt lat="40.5402717" lon="15.5262833"><ele>1072.0</ele><time>2026-04-26T10:45:59.871Z</time></trkpt><trkpt lat="40.54023" lon="15.5263533"><ele>1072.0</ele><time>2026-04-26T10:46:00.87Z</time></trkpt><trkpt lat="40.54015" lon="15.5264633"><ele>1072.3333333333333</ele><time>2026-04-26T10:46:02.871Z</time></trkpt><trkpt lat="40.54006" lon="15.52655"><ele>1072.6666666666665</ele><time>2026-04-26T10:46:04.87Z</time></trkpt><trkpt lat="40.540005" lon="15.5265967"><ele>1073.0</ele><time>2026-04-26T10:46:07.871Z</time></trkpt><trkpt lat="40.539955" lon="15.5266483"><ele>1073.3333333333333</ele><time>2026-04-26T10:46:40.87Z</time></trkpt><trkpt lat="40.5398717" lon="15.526755"><ele>1073.6666666666667</ele><time>2026-04-26T10:46:42.87Z</time></trkpt><trkpt lat="40.5398233" lon="15.526815"><ele>1074.0</ele><time>2026-04-26T10:46:43.87Z</time></trkpt><trkpt lat="40.5397717" lon="15.5268783"><ele>1074.0</ele><time>2026-04-26T10:46:44.871Z</time></trkpt><trkpt lat="40.5397183" lon="15.52695"><ele>1074.0</ele><time>2026-04-26T10:46:45.871Z</time></trkpt><trkpt lat="40.5396667" lon="15.5270283"><ele>1074.0</ele><time>2026-04-26T10:46:46.87Z</time></trkpt><trkpt lat="40.5396167" lon="15.5271033"><ele>1074.0</ele><time>2026-04-26T10:46:47.871Z</time></trkpt><trkpt lat="40.53956" lon="15.5271767"><ele>1074.0</ele><time>2026-04-26T10:46:48.87Z</time></trkpt><trkpt lat="40.5394983" lon="15.52724"><ele>1074.0</ele><time>2026-04-26T10:46:49.87Z</time></trkpt><trkpt lat="40.53944" lon="15.5272967"><ele>1072.5</ele><time>2026-04-26T10:46:50.87Z</time></trkpt><trkpt lat="40.539385" lon="15.527355"><ele>1071.0</ele><time>2026-04-26T10:46:51.871Z</time></trkpt><trkpt lat="40.5393233" lon="15.5274133"><ele>1069.5</ele><time>2026-04-26T10:46:52.87Z</time></trkpt><trkpt lat="40.53926" lon="15.5274683"><ele>1068.0</ele><time>2026-04-26T10:46:53.87Z</time></trkpt><trkpt lat="40.5391933" lon="15.5275217"><ele>1066.5</ele><time>2026-04-26T10:46:54.871Z</time></trkpt><trkpt lat="40.5391283" lon="15.527575"><ele>1065.0</ele><time>2026-04-26T10:46:55.87Z</time></trkpt><trkpt lat="40.539065" lon="15.5276283"><ele>1065.0</ele><time>2026-04-26T10:46:56.87Z</time></trkpt><trkpt lat="40.539005" lon="15.52768"><ele>1065.0</ele><time>2026-04-26T10:46:57.871Z</time></trkpt><trkpt lat="40.53895" lon="15.5277333"><ele>1065.0</ele><time>2026-04-26T10:46:58.871Z</time></trkpt><trkpt lat="40.5388967" lon="15.5277833"><ele>1065.0</ele><time>2026-04-26T10:46:59.871Z</time></trkpt><trkpt lat="40.5388417" lon="15.5278317"><ele>1065.0</ele><time>2026-04-26T10:47:00.871Z</time></trkpt><trkpt lat="40.538785" lon="15.52788"><ele>1065.0</ele><time>2026-04-26T10:47:01.871Z</time></trkpt><trkpt lat="40.538725" lon="15.5279367"><ele>1065.0</ele><time>2026-04-26T10:47:02.871Z</time></trkpt><trkpt lat="40.538665" lon="15.527995"><ele>1064.3333333333333</ele><time>2026-04-26T10:47:03.87Z</time></trkpt><trkpt lat="40.538605" lon="15.52806"><ele>1063.6666666666667</ele><time>2026-04-26T10:47:04.87Z</time></trkpt><trkpt lat="40.5385467" lon="15.5281233"><ele>1063.0</ele><time>2026-04-26T10:47:05.87Z</time></trkpt><trkpt lat="40.53849" lon="15.528185"><ele>1062.3333333333335</ele><time>2026-04-26T10:47:06.871Z</time></trkpt><trkpt lat="40.5384383" lon="15.5282433"><ele>1061.6666666666667</ele><time>2026-04-26T10:47:07.87Z</time></trkpt><trkpt lat="40.5383717" lon="15.5283583"><ele>1061.0</ele><time>2026-04-26T10:47:09.871Z</time></trkpt><trkpt lat="40.538375" lon="15.5284867"><ele>1061.0</ele><time>2026-04-26T10:47:11.87Z</time></trkpt><trkpt lat="40.5384067" lon="15.52864"><ele>1061.0</ele><time>2026-04-26T10:47:13.87Z</time></trkpt><trkpt lat="40.538405" lon="15.52879"><ele>1061.0</ele><time>2026-04-26T10:47:15.871Z</time></trkpt><trkpt lat="40.5384" lon="15.5289283"><ele>1061.0</ele><time>2026-04-26T10:47:17.87Z</time></trkpt><trkpt lat="40.5383583" lon="15.5290383"><ele>1061.0</ele><time>2026-04-26T10:47:19.871Z</time></trkpt><trkpt lat="40.53826" lon="15.529115"><ele>1060.857142857143</ele><time>2026-04-26T10:47:21.871Z</time></trkpt><trkpt lat="40.5382" lon="15.5291517"><ele>1060.7142857142858</ele><time>2026-04-26T10:47:22.87Z</time></trkpt><trkpt lat="40.538135" lon="15.5291883"><ele>1060.5714285714284</ele><time>2026-04-26T10:47:23.871Z</time></trkpt><trkpt lat="40.53807" lon="15.5292283"><ele>1060.4285714285716</ele><time>2026-04-26T10:47:24.87Z</time></trkpt><trkpt lat="40.538005" lon="15.5292717"><ele>1060.2857142857142</ele><time>2026-04-26T10:47:25.871Z</time></trkpt><trkpt lat="40.5379367" lon="15.52932"><ele>1060.142857142857</ele><time>2026-04-26T10:47:26.87Z</time></trkpt><trkpt lat="40.53787" lon="15.52937"><ele>1060.0</ele><time>2026-04-26T10:47:27.871Z</time></trkpt><trkpt lat="40.5378017" lon="15.5294233"><ele>1061.0</ele><time>2026-04-26T10:47:28.87Z</time></trkpt><trkpt lat="40.5377367" lon="15.52948"><ele>1062.0</ele><time>2026-04-26T10:47:29.87Z</time></trkpt><trkpt lat="40.5376783" lon="15.529535"><ele>1063.0</ele><time>2026-04-26T10:47:30.871Z</time></trkpt><trkpt lat="40.5375917" lon="15.5296167"><ele>1064.0</ele><time>2026-04-26T10:47:32.87Z</time></trkpt><trkpt lat="40.537525" lon="15.529695"><ele>1065.0</ele><time>2026-04-26T10:47:44.87Z</time></trkpt><trkpt lat="40.537455" lon="15.5297817"><ele>1066.0</ele><time>2026-04-26T10:47:46.871Z</time></trkpt><trkpt lat="40.537375" lon="15.529885"><ele>1066.2</ele><time>2026-04-26T10:47:48.87Z</time></trkpt><trkpt lat="40.5372883" lon="15.52999"><ele>1066.3999999999999</ele><time>2026-04-26T10:47:50.87Z</time></trkpt><trkpt lat="40.5371883" lon="15.5300483"><ele>1066.6</ele><time>2026-04-26T10:47:52.87Z</time></trkpt><trkpt lat="40.53707" lon="15.530115"><ele>1066.8</ele><time>2026-04-26T10:47:54.871Z</time></trkpt><trkpt lat="40.537005" lon="15.53015"><ele>1067.0</ele><time>2026-04-26T10:47:55.87Z</time></trkpt><trkpt lat="40.5369417" lon="15.53019"><ele>1068.4</ele><time>2026-04-26T10:47:56.871Z</time></trkpt><trkpt lat="40.5368817" lon="15.5302283"><ele>1069.8000000000002</ele><time>2026-04-26T10:47:57.87Z</time></trkpt><trkpt lat="40.5368233" lon="15.5302633"><ele>1071.2</ele><time>2026-04-26T10:47:58.871Z</time></trkpt><trkpt lat="40.5367183" lon="15.5303433"><ele>1072.6000000000001</ele><time>2026-04-26T10:48:00.871Z</time></trkpt><trkpt lat="40.5366267" lon="15.530445"><ele>1074.0</ele><time>2026-04-26T10:48:02.87Z</time></trkpt><trkpt lat="40.5365333" lon="15.530545"><ele>1074.6000000000001</ele><time>2026-04-26T10:48:04.869Z</time></trkpt><trkpt lat="40.5364433" lon="15.5306483"><ele>1075.2</ele><time>2026-04-26T10:48:06.869Z</time></trkpt><trkpt lat="40.5363633" lon="15.530775"><ele>1075.8000000000002</ele><time>2026-04-26T10:48:08.869Z</time></trkpt><trkpt lat="40.5363283" lon="15.5308467"><ele>1076.4</ele><time>2026-04-26T10:48:09.87Z</time></trkpt><trkpt lat="40.53626" lon="15.530985"><ele>1077.0</ele><time>2026-04-26T10:48:11.869Z</time></trkpt><trkpt lat="40.5362033" lon="15.5311183"><ele>1078.6</ele><time>2026-04-26T10:48:13.87Z</time></trkpt><trkpt lat="40.5361783" lon="15.53127"><ele>1080.2</ele><time>2026-04-26T10:48:15.869Z</time></trkpt><trkpt lat="40.5361567" lon="15.5314267"><ele>1081.8</ele><time>2026-04-26T10:48:17.869Z</time></trkpt><trkpt lat="40.5361417" lon="15.5315333"><ele>1083.4</ele><time>2026-04-26T10:48:19.869Z</time></trkpt><trkpt lat="40.53612" lon="15.5316317"><ele>1085.0</ele><time>2026-04-26T10:48:21.87Z</time></trkpt><trkpt lat="40.5360817" lon="15.531725"><ele>1085.0</ele><time>2026-04-26T10:48:23.87Z</time></trkpt><trkpt lat="40.5360317" lon="15.5318417"><ele>1085.0</ele><time>2026-04-26T10:48:25.869Z</time></trkpt><trkpt lat="40.536005" lon="15.531925"><ele>1085.0</ele><time>2026-04-26T10:48:27.87Z</time></trkpt><trkpt lat="40.5359517" lon="15.5320217"><ele>1085.0</ele><time>2026-04-26T10:48:45.869Z</time></trkpt><trkpt lat="40.535885" lon="15.5321367"><ele>1085.0</ele><time>2026-04-26T10:48:47.87Z</time></trkpt><trkpt lat="40.5358417" lon="15.53221"><ele>1085.0</ele><time>2026-04-26T10:48:48.87Z</time></trkpt><trkpt lat="40.535795" lon="15.532285"><ele>1085.857142857143</ele><time>2026-04-26T10:48:49.869Z</time></trkpt><trkpt lat="40.5357467" lon="15.532355"><ele>1086.7142857142858</ele><time>2026-04-26T10:48:50.87Z</time></trkpt><trkpt lat="40.5356967" lon="15.532425"><ele>1087.5714285714284</ele><time>2026-04-26T10:48:51.87Z</time></trkpt><trkpt lat="40.5356483" lon="15.5324933"><ele>1088.4285714285716</ele><time>2026-04-26T10:48:52.869Z</time></trkpt><trkpt lat="40.5356017" lon="15.532565"><ele>1089.2857142857142</ele><time>2026-04-26T10:48:53.869Z</time></trkpt><trkpt lat="40.5355567" lon="15.5326383"><ele>1090.142857142857</ele><time>2026-04-26T10:48:54.869Z</time></trkpt><trkpt lat="40.535515" lon="15.532715"><ele>1091.0</ele><time>2026-04-26T10:48:55.87Z</time></trkpt><trkpt lat="40.535475" lon="15.532785"><ele>1091.0</ele><time>2026-04-26T10:48:56.869Z</time></trkpt><trkpt lat="40.535435" lon="15.532855"><ele>1091.0</ele><time>2026-04-26T10:48:57.869Z</time></trkpt><trkpt lat="40.5354" lon="15.53294"><ele>1091.0</ele><time>2026-04-26T10:48:58.869Z</time></trkpt><trkpt lat="40.53536" lon="15.5330233"><ele>1091.0</ele><time>2026-04-26T10:48:59.87Z</time></trkpt><trkpt lat="40.5353167" lon="15.5331067"><ele>1091.0</ele><time>2026-04-26T10:49:00.869Z</time></trkpt><trkpt lat="40.5352717" lon="15.5331817"><ele>1091.0</ele><time>2026-04-26T10:49:01.869Z</time></trkpt><trkpt lat="40.5352233" lon="15.5332467"><ele>1091.0</ele><time>2026-04-26T10:49:02.87Z</time></trkpt><trkpt lat="40.53518" lon="15.5333167"><ele>1092.2</ele><time>2026-04-26T10:49:03.87Z</time></trkpt><trkpt lat="40.53513" lon="15.53339"><ele>1093.3999999999999</ele><time>2026-04-26T10:49:04.87Z</time></trkpt><trkpt lat="40.5350667" lon="15.5334717"><ele>1094.6</ele><time>2026-04-26T10:49:05.87Z</time></trkpt><trkpt lat="40.5349867" lon="15.5335617"><ele>1095.8</ele><time>2026-04-26T10:49:06.869Z</time></trkpt><trkpt lat="40.5348983" lon="15.5336617"><ele>1097.0</ele><time>2026-04-26T10:49:07.87Z</time></trkpt><trkpt lat="40.5348217" lon="15.5337583"><ele>1098.6666666666667</ele><time>2026-04-26T10:49:08.869Z</time></trkpt><trkpt lat="40.5347567" lon="15.5338467"><ele>1100.3333333333335</ele><time>2026-04-26T10:49:09.87Z</time></trkpt><trkpt lat="40.5346933" lon="15.53393"><ele>1102.0</ele><time>2026-04-26T10:49:10.869Z</time></trkpt><trkpt lat="40.53463" lon="15.5340083"><ele>1103.6666666666667</ele><time>2026-04-26T10:49:11.87Z</time></trkpt><trkpt lat="40.5345633" lon="15.5340733"><ele>1105.3333333333333</ele><time>2026-04-26T10:49:12.869Z</time></trkpt><trkpt lat="40.5344867" lon="15.53412"><ele>1107.0</ele><time>2026-04-26T10:49:13.869Z</time></trkpt><trkpt lat="40.5344117" lon="15.53417"><ele>1108.3333333333333</ele><time>2026-04-26T10:49:14.869Z</time></trkpt><trkpt lat="40.5343517" lon="15.5342317"><ele>1109.6666666666667</ele><time>2026-04-26T10:49:15.869Z</time></trkpt><trkpt lat="40.5342967" lon="15.5343067"><ele>1111.0</ele><time>2026-04-26T10:49:16.869Z</time></trkpt><trkpt lat="40.5342417" lon="15.5344017"><ele>1112.3333333333335</ele><time>2026-04-26T10:49:17.869Z</time></trkpt><trkpt lat="40.5341917" lon="15.5345167"><ele>1113.6666666666667</ele><time>2026-04-26T10:49:18.869Z</time></trkpt><trkpt lat="40.5341517" lon="15.5346283"><ele>1115.0</ele><time>2026-04-26T10:49:19.869Z</time></trkpt><trkpt lat="40.534125" lon="15.53475"><ele>1116.2</ele><time>2026-04-26T10:49:20.87Z</time></trkpt><trkpt lat="40.5340883" lon="15.534865"><ele>1117.4</ele><time>2026-04-26T10:49:21.869Z</time></trkpt><trkpt lat="40.53405" lon="15.5349683"><ele>1118.6</ele><time>2026-04-26T10:49:22.87Z</time></trkpt><trkpt lat="40.5340067" lon="15.5350717"><ele>1119.8</ele><time>2026-04-26T10:49:23.869Z</time></trkpt><trkpt lat="40.5339583" lon="15.53517"><ele>1121.0</ele><time>2026-04-26T10:49:24.869Z</time></trkpt><trkpt lat="40.5339083" lon="15.5352683"><ele>1121.0</ele><time>2026-04-26T10:49:25.869Z</time></trkpt><trkpt lat="40.53386" lon="15.5353533"><ele>1121.0</ele><time>2026-04-26T10:49:26.869Z</time></trkpt><trkpt lat="40.5338167" lon="15.5354167"><ele>1121.0</ele><time>2026-04-26T10:49:27.869Z</time></trkpt><trkpt lat="40.5337283" lon="15.535505"><ele>1121.0</ele><time>2026-04-26T10:49:29.87Z</time></trkpt><trkpt lat="40.5336717" lon="15.5355467"><ele>1121.0</ele><time>2026-04-26T10:49:30.87Z</time></trkpt><trkpt lat="40.5335983" lon="15.5355933"><ele>1121.0</ele><time>2026-04-26T10:49:31.87Z</time></trkpt><trkpt lat="40.5335217" lon="15.535635"><ele>1123.8333333333335</ele><time>2026-04-26T10:49:32.869Z</time></trkpt><trkpt lat="40.533445" lon="15.5356817"><ele>1126.6666666666667</ele><time>2026-04-26T10:49:33.87Z</time></trkpt><trkpt lat="40.5333633" lon="15.5357333"><ele>1129.5</ele><time>2026-04-26T10:49:34.869Z</time></trkpt><trkpt lat="40.5332933" lon="15.535785"><ele>1132.3333333333333</ele><time>2026-04-26T10:49:35.869Z</time></trkpt><trkpt lat="40.533225" lon="15.5358317"><ele>1135.1666666666665</ele><time>2026-04-26T10:49:36.87Z</time></trkpt><trkpt lat="40.5331567" lon="15.5358717"><ele>1138.0</ele><time>2026-04-26T10:49:37.87Z</time></trkpt><trkpt lat="40.5330817" lon="15.5359117"><ele>1138.0</ele><time>2026-04-26T10:49:38.87Z</time></trkpt><trkpt lat="40.5330083" lon="15.5359483"><ele>1138.0</ele><time>2026-04-26T10:49:39.869Z</time></trkpt><trkpt lat="40.532935" lon="15.535975"><ele>1138.0</ele><time>2026-04-26T10:49:40.87Z</time></trkpt><trkpt lat="40.5328433" lon="15.5360083"><ele>1138.0</ele><time>2026-04-26T10:49:41.869Z</time></trkpt><trkpt lat="40.5327417" lon="15.536055"><ele>1138.0</ele><time>2026-04-26T10:49:42.87Z</time></trkpt><trkpt lat="40.532665" lon="15.5360917"><ele>1138.0</ele><time>2026-04-26T10:49:43.87Z</time></trkpt><trkpt lat="40.53256" lon="15.536105"><ele>1139.8</ele><time>2026-04-26T10:49:45.87Z</time></trkpt><trkpt lat="40.5325033" lon="15.5360383"><ele>1141.6</ele><time>2026-04-26T10:49:49.87Z</time></trkpt><trkpt lat="40.53242" lon="15.5360133"><ele>1143.4</ele><time>2026-04-26T10:54:45.87Z</time></trkpt><trkpt lat="40.53229" lon="15.5360617"><ele>1145.2</ele><time>2026-04-26T10:54:47.868Z</time></trkpt><trkpt lat="40.5322117" lon="15.53607"><ele>1147.0</ele><time>2026-04-26T10:54:48.868Z</time></trkpt><trkpt lat="40.5321233" lon="15.5360667"><ele>1146.3333333333333</ele><time>2026-04-26T10:54:49.869Z</time></trkpt><trkpt lat="40.53204" lon="15.536055"><ele>1145.6666666666665</ele><time>2026-04-26T10:54:50.868Z</time></trkpt><trkpt lat="40.5319617" lon="15.536055"><ele>1145.0</ele><time>2026-04-26T10:54:51.868Z</time></trkpt><trkpt lat="40.53189" lon="15.5360683"><ele>1144.3333333333333</ele><time>2026-04-26T10:54:52.869Z</time></trkpt><trkpt lat="40.531785" lon="15.5361583"><ele>1143.6666666666667</ele><time>2026-04-26T10:54:54.869Z</time></trkpt><trkpt lat="40.5317233" lon="15.53624"><ele>1143.0</ele><time>2026-04-26T10:54:55.868Z</time></trkpt><trkpt lat="40.5316633" lon="15.53635"><ele>1143.3333333333333</ele><time>2026-04-26T10:54:56.869Z</time></trkpt><trkpt lat="40.5316083" lon="15.536455"><ele>1143.6666666666667</ele><time>2026-04-26T10:54:57.869Z</time></trkpt><trkpt lat="40.5315433" lon="15.5365367"><ele>1144.0</ele><time>2026-04-26T10:54:58.869Z</time></trkpt><trkpt lat="40.531475" lon="15.5366033"><ele>1144.3333333333335</ele><time>2026-04-26T10:54:59.868Z</time></trkpt><trkpt lat="40.531395" lon="15.5366383"><ele>1144.6666666666667</ele><time>2026-04-26T10:55:00.869Z</time></trkpt><trkpt lat="40.5313033" lon="15.5366517"><ele>1145.0</ele><time>2026-04-26T10:55:01.869Z</time></trkpt><trkpt lat="40.5311933" lon="15.5366533"><ele>1145.0</ele><time>2026-04-26T10:55:02.869Z</time></trkpt><trkpt lat="40.5310933" lon="15.5366583"><ele>1145.0</ele><time>2026-04-26T10:55:03.869Z</time></trkpt><trkpt lat="40.5310067" lon="15.536675"><ele>1145.0</ele><time>2026-04-26T10:55:04.868Z</time></trkpt><trkpt lat="40.530935" lon="15.5366917"><ele>1145.0</ele><time>2026-04-26T10:55:05.868Z</time></trkpt><trkpt lat="40.5308367" lon="15.5367217"><ele>1145.0</ele><time>2026-04-26T10:55:07.868Z</time></trkpt><trkpt lat="40.5307743" lon="15.5367615"><ele>1145.0</ele><time>2026-04-26T10:55:09.868Z</time></trkpt><trkpt lat="40.5307226" lon="15.5368095"><ele>1145.0</ele><time>2026-04-26T10:55:11.869Z</time></trkpt><trkpt lat="40.5306678" lon="15.5368772"><ele>1145.0</ele><time>2026-04-26T10:55:15.893Z</time></trkpt><trkpt lat="40.5305965" lon="15.5369339"><ele>1145.0</ele><time>2026-04-26T10:55:17.871Z</time></trkpt><trkpt lat="40.5305632" lon="15.5370348"><ele>1145.0</ele><time>2026-04-26T10:55:55.929Z</time></trkpt><trkpt lat="40.5305116" lon="15.5370972"><ele>1145.0</ele><time>2026-04-26T10:55:56.868Z</time></trkpt><trkpt lat="40.5304698" lon="15.5371596"><ele>1145.0</ele><time>2026-04-26T10:55:57.869Z</time></trkpt><trkpt lat="40.5303987" lon="15.5372772"><ele>1142.1666666666667</ele><time>2026-04-26T10:55:59.869Z</time></trkpt><trkpt lat="40.5303331" lon="15.5373785"><ele>1139.3333333333335</ele><time>2026-04-26T10:56:01.868Z</time></trkpt><trkpt lat="40.5302799" lon="15.5374692"><ele>1136.5</ele><time>2026-04-26T10:56:03.868Z</time></trkpt><trkpt lat="40.5302315" lon="15.5375457"><ele>1133.6666666666667</ele><time>2026-04-26T10:56:05.868Z</time></trkpt><trkpt lat="40.5301804" lon="15.5376115"><ele>1130.8333333333333</ele><time>2026-04-26T10:56:07.869Z</time></trkpt><trkpt lat="40.5301368" lon="15.5376804"><ele>1128.0</ele><time>2026-04-26T10:56:10.838Z</time></trkpt><trkpt lat="40.5300973" lon="15.5377462"><ele>1128.0</ele><time>2026-04-26T10:56:14.869Z</time></trkpt><trkpt lat="40.5300583" lon="15.5378583"><ele>1128.0</ele><time>2026-04-26T10:56:39.868Z</time></trkpt><trkpt lat="40.5299967" lon="15.538"><ele>1128.0</ele><time>2026-04-26T10:56:41.868Z</time></trkpt><trkpt lat="40.5299633" lon="15.538075"><ele>1128.0</ele><time>2026-04-26T10:56:42.868Z</time></trkpt><trkpt lat="40.52992" lon="15.5381567"><ele>1128.0</ele><time>2026-04-26T10:56:43.868Z</time></trkpt><trkpt lat="40.5298783" lon="15.5382467"><ele>1128.0</ele><time>2026-04-26T10:56:44.869Z</time></trkpt><trkpt lat="40.529835" lon="15.5383333"><ele>1128.3333333333333</ele><time>2026-04-26T10:56:45.869Z</time></trkpt><trkpt lat="40.5297967" lon="15.5384183"><ele>1128.6666666666667</ele><time>2026-04-26T10:56:46.869Z</time></trkpt><trkpt lat="40.529765" lon="15.53849"><ele>1129.0</ele><time>2026-04-26T10:56:47.869Z</time></trkpt><trkpt lat="40.5297283" lon="15.5385583"><ele>1129.3333333333335</ele><time>2026-04-26T10:56:48.868Z</time></trkpt><trkpt lat="40.5296667" lon="15.53867"><ele>1129.6666666666667</ele><time>2026-04-26T10:56:50.868Z</time></trkpt><trkpt lat="40.5296317" lon="15.5387583"><ele>1130.0</ele><time>2026-04-26T10:56:52.868Z</time></trkpt><trkpt lat="40.529605" lon="15.5388433"><ele>1130.6666666666667</ele><time>2026-04-26T10:56:55.869Z</time></trkpt><trkpt lat="40.5295717" lon="15.5389417"><ele>1131.3333333333335</ele><time>2026-04-26T10:57:02.868Z</time></trkpt><trkpt lat="40.529525" lon="15.5390333"><ele>1132.0</ele><time>2026-04-26T10:57:04.869Z</time></trkpt><trkpt lat="40.5294783" lon="15.5391183"><ele>1132.6666666666667</ele><time>2026-04-26T10:57:06.868Z</time></trkpt><trkpt lat="40.5294367" lon="15.5391867"><ele>1133.3333333333333</ele><time>2026-04-26T10:57:08.868Z</time></trkpt><trkpt lat="40.5293917" lon="15.5392583"><ele>1134.0</ele><time>2026-04-26T10:57:11.869Z</time></trkpt><trkpt lat="40.5293483" lon="15.539335"><ele>1129.6000000000001</ele><time>2026-04-26T10:57:14.868Z</time></trkpt><trkpt lat="40.5293067" lon="15.53941"><ele>1125.2</ele><time>2026-04-26T10:57:16.868Z</time></trkpt><trkpt lat="40.5292567" lon="15.539495"><ele>1120.8000000000002</ele><time>2026-04-26T10:57:18.868Z</time></trkpt><trkpt lat="40.529195" lon="15.53959"><ele>1116.4</ele><time>2026-04-26T10:57:20.869Z</time></trkpt><trkpt lat="40.5291267" lon="15.5397117"><ele>1112.0</ele><time>2026-04-26T10:57:22.869Z</time></trkpt><trkpt lat="40.529045" lon="15.5398417"><ele>1111.8333333333335</ele><time>2026-04-26T10:57:24.868Z</time></trkpt><trkpt lat="40.5289983" lon="15.539915"><ele>1111.6666666666667</ele><time>2026-04-26T10:57:25.868Z</time></trkpt><trkpt lat="40.5289433" lon="15.5399917"><ele>1111.5</ele><time>2026-04-26T10:57:26.868Z</time></trkpt><trkpt lat="40.5288817" lon="15.5400683"><ele>1111.3333333333333</ele><time>2026-04-26T10:57:27.869Z</time></trkpt><trkpt lat="40.528825" lon="15.5401383"><ele>1111.1666666666665</ele><time>2026-04-26T10:57:28.869Z</time></trkpt><trkpt lat="40.5287667" lon="15.5401933"><ele>1111.0</ele><time>2026-04-26T10:57:29.869Z</time></trkpt><trkpt lat="40.5287133" lon="15.54024"><ele>1109.5</ele><time>2026-04-26T10:57:30.868Z</time></trkpt><trkpt lat="40.5286267" lon="15.5403283"><ele>1108.0</ele><time>2026-04-26T10:57:32.868Z</time></trkpt><trkpt lat="40.5285767" lon="15.54041"><ele>1106.5</ele><time>2026-04-26T10:57:34.869Z</time></trkpt><trkpt lat="40.52853" lon="15.5404983"><ele>1105.0</ele><time>2026-04-26T10:57:44.869Z</time></trkpt><trkpt lat="40.5284817" lon="15.540585"><ele>1103.5</ele><time>2026-04-26T10:57:46.869Z</time></trkpt><trkpt lat="40.5284333" lon="15.5406633"><ele>1102.0</ele><time>2026-04-26T10:57:49.868Z</time></trkpt><trkpt lat="40.52839" lon="15.54074"><ele>1102.0</ele><time>2026-04-26T10:57:52.869Z</time></trkpt><trkpt lat="40.5283533" lon="15.5408133"><ele>1102.0</ele><time>2026-04-26T10:57:54.869Z</time></trkpt><trkpt lat="40.52833" lon="15.54091"><ele>1102.0</ele><time>2026-04-26T10:57:57.868Z</time></trkpt><trkpt lat="40.5282733" lon="15.5409933"><ele>1102.0</ele><time>2026-04-26T10:58:00.868Z</time></trkpt><trkpt lat="40.5283367" lon="15.5409483"><ele>1102.0</ele><time>2026-04-26T10:58:41.868Z</time></trkpt><trkpt lat="40.5284167" lon="15.5408583"><ele>1102.0</ele><time>2026-04-26T10:58:44.869Z</time></trkpt><trkpt lat="40.5284783" lon="15.5407483"><ele>1102.0</ele><time>2026-04-26T10:58:46.869Z</time></trkpt><trkpt lat="40.5285383" lon="15.5406467"><ele>1102.0</ele><time>2026-04-26T10:58:48.869Z</time></trkpt><trkpt lat="40.5286" lon="15.5405333"><ele>1102.0</ele><time>2026-04-26T10:58:50.868Z</time></trkpt><trkpt lat="40.5286583" lon="15.54042"><ele>1102.0</ele><time>2026-04-26T10:58:52.869Z</time></trkpt><trkpt lat="40.5287217" lon="15.5403317"><ele>1102.0</ele><time>2026-04-26T10:58:54.868Z</time></trkpt><trkpt lat="40.5287967" lon="15.5402567"><ele>1104.25</ele><time>2026-04-26T10:58:56.868Z</time></trkpt><trkpt lat="40.5288867" lon="15.5401733"><ele>1106.5</ele><time>2026-04-26T10:58:58.868Z</time></trkpt><trkpt lat="40.528975" lon="15.540075"><ele>1108.75</ele><time>2026-04-26T10:59:00.868Z</time></trkpt><trkpt lat="40.5290583" lon="15.5399767"><ele>1111.0</ele><time>2026-04-26T10:59:02.868Z</time></trkpt><trkpt lat="40.52914" lon="15.539875"><ele>1111.0</ele><time>2026-04-26T10:59:04.868Z</time></trkpt><trkpt lat="40.5292183" lon="15.539745"><ele>1111.0</ele><time>2026-04-26T10:59:06.869Z</time></trkpt><trkpt lat="40.5292583" lon="15.5396767"><ele>1111.0</ele><time>2026-04-26T10:59:07.868Z</time></trkpt><trkpt lat="40.5292967" lon="15.53961"><ele>1111.0</ele><time>2026-04-26T10:59:08.868Z</time></trkpt><trkpt lat="40.5293333" lon="15.5395417"><ele>1111.0</ele><time>2026-04-26T10:59:09.869Z</time></trkpt><trkpt lat="40.5294017" lon="15.5394117"><ele>1111.0</ele><time>2026-04-26T10:59:11.868Z</time></trkpt><trkpt lat="40.5294633" lon="15.539295"><ele>1111.1666666666665</ele><time>2026-04-26T10:59:13.868Z</time></trkpt><trkpt lat="40.5295183" lon="15.5391833"><ele>1111.3333333333333</ele><time>2026-04-26T10:59:15.869Z</time></trkpt><trkpt lat="40.5295717" lon="15.5390917"><ele>1111.5</ele><time>2026-04-26T10:59:17.869Z</time></trkpt><trkpt lat="40.5295233" lon="15.539155"><ele>1111.6666666666667</ele><time>2026-04-26T11:02:00.868Z</time></trkpt><trkpt lat="40.5294617" lon="15.5392783"><ele>1111.8333333333335</ele><time>2026-04-26T11:02:02.868Z</time></trkpt><trkpt lat="40.5294217" lon="15.5393467"><ele>1112.0</ele><time>2026-04-26T11:02:03.867Z</time></trkpt><trkpt lat="40.5293783" lon="15.5394283"><ele>1112.0</ele><time>2026-04-26T11:02:04.868Z</time></trkpt><trkpt lat="40.5293333" lon="15.53951"><ele>1112.0</ele><time>2026-04-26T11:02:05.867Z</time></trkpt><trkpt lat="40.5292917" lon="15.539585"><ele>1112.0</ele><time>2026-04-26T11:02:06.868Z</time></trkpt><trkpt lat="40.5292517" lon="15.5396617"><ele>1112.0</ele><time>2026-04-26T11:02:07.868Z</time></trkpt><trkpt lat="40.5292067" lon="15.53974"><ele>1112.0</ele><time>2026-04-26T11:02:08.868Z</time></trkpt><trkpt lat="40.529155" lon="15.53982"><ele>1112.0</ele><time>2026-04-26T11:02:09.868Z</time></trkpt><trkpt lat="40.5290983" lon="15.5399017"><ele>1111.8333333333335</ele><time>2026-04-26T11:02:10.868Z</time></trkpt><trkpt lat="40.5290417" lon="15.53998"><ele>1111.6666666666667</ele><time>2026-04-26T11:02:11.867Z</time></trkpt><trkpt lat="40.528985" lon="15.5400467"><ele>1111.5</ele><time>2026-04-26T11:02:12.868Z</time></trkpt><trkpt lat="40.5289317" lon="15.5401117"><ele>1111.3333333333333</ele><time>2026-04-26T11:02:13.867Z</time></trkpt><trkpt lat="40.528865" lon="15.540175"><ele>1111.1666666666665</ele><time>2026-04-26T11:02:14.868Z</time></trkpt><trkpt lat="40.5288017" lon="15.540235"><ele>1111.0</ele><time>2026-04-26T11:02:15.868Z</time></trkpt><trkpt lat="40.5287433" lon="15.54029"><ele>1109.5</ele><time>2026-04-26T11:02:16.867Z</time></trkpt><trkpt lat="40.5286883" lon="15.5403517"><ele>1108.0</ele><time>2026-04-26T11:02:17.868Z</time></trkpt><trkpt lat="40.52864" lon="15.5404167"><ele>1106.5</ele><time>2026-04-26T11:02:18.868Z</time></trkpt><trkpt lat="40.5286017" lon="15.5404833"><ele>1105.0</ele><time>2026-04-26T11:02:19.867Z</time></trkpt><trkpt lat="40.528535" lon="15.5405933"><ele>1103.5</ele><time>2026-04-26T11:02:21.868Z</time></trkpt><trkpt lat="40.5284833" lon="15.5407017"><ele>1102.0</ele><time>2026-04-26T11:02:23.868Z</time></trkpt><trkpt lat="40.5284217" lon="15.54082"><ele>1102.0</ele><time>2026-04-26T11:02:25.867Z</time></trkpt><trkpt lat="40.5283567" lon="15.5409183"><ele>1102.0</ele><time>2026-04-26T11:02:27.867Z</time></trkpt><trkpt lat="40.528245" lon="15.541005"><ele>1102.0</ele><time>2026-04-26T11:02:29.868Z</time></trkpt><trkpt lat="40.5281733" lon="15.54105"><ele>1102.0</ele><time>2026-04-26T11:02:30.868Z</time></trkpt><trkpt lat="40.528095" lon="15.5411"><ele>1102.0</ele><time>2026-04-26T11:02:31.867Z</time></trkpt><trkpt lat="40.5280167" lon="15.5411567"><ele>1102.0</ele><time>2026-04-26T11:02:32.868Z</time></trkpt><trkpt lat="40.527945" lon="15.5412133"><ele>1102.0</ele><time>2026-04-26T11:02:33.867Z</time></trkpt><trkpt lat="40.5278733" lon="15.5412767"><ele>1102.0</ele><time>2026-04-26T11:02:34.868Z</time></trkpt><trkpt lat="40.5277983" lon="15.5413433"><ele>1102.0</ele><time>2026-04-26T11:02:35.868Z</time></trkpt><trkpt lat="40.5277167" lon="15.541405"><ele>1102.0</ele><time>2026-04-26T11:02:36.867Z</time></trkpt><trkpt lat="40.5276483" lon="15.541475"><ele>1102.0</ele><time>2026-04-26T11:02:37.868Z</time></trkpt><trkpt lat="40.5275817" lon="15.541555"><ele>1101.0</ele><time>2026-04-26T11:02:38.868Z</time></trkpt><trkpt lat="40.527515" lon="15.54163"><ele>1100.0</ele><time>2026-04-26T11:02:39.868Z</time></trkpt><trkpt lat="40.5274483" lon="15.5417017"><ele>1099.0</ele><time>2026-04-26T11:02:40.868Z</time></trkpt><trkpt lat="40.5273767" lon="15.5417767"><ele>1098.0</ele><time>2026-04-26T11:02:41.868Z</time></trkpt><trkpt lat="40.5272967" lon="15.5418467"><ele>1097.0</ele><time>2026-04-26T11:02:42.868Z</time></trkpt><trkpt lat="40.527215" lon="15.54191"><ele>1097.0</ele><time>2026-04-26T11:02:43.868Z</time></trkpt><trkpt lat="40.527135" lon="15.5419567"><ele>1097.0</ele><time>2026-04-26T11:02:44.868Z</time></trkpt><trkpt lat="40.5270567" lon="15.5419833"><ele>1097.0</ele><time>2026-04-26T11:02:45.867Z</time></trkpt><trkpt lat="40.5269767" lon="15.5420117"><ele>1097.0</ele><time>2026-04-26T11:02:46.867Z</time></trkpt><trkpt lat="40.5269017" lon="15.542055"><ele>1097.0</ele><time>2026-04-26T11:02:47.867Z</time></trkpt><trkpt lat="40.526825" lon="15.5421183"><ele>1097.0</ele><time>2026-04-26T11:02:48.867Z</time></trkpt><trkpt lat="40.526755" lon="15.5421883"><ele>1096.3333333333335</ele><time>2026-04-26T11:02:49.868Z</time></trkpt><trkpt lat="40.5266917" lon="15.5422533"><ele>1095.6666666666667</ele><time>2026-04-26T11:02:50.867Z</time></trkpt><trkpt lat="40.52663" lon="15.5423117"><ele>1095.0</ele><time>2026-04-26T11:02:51.867Z</time></trkpt><trkpt lat="40.5265767" lon="15.5423617"><ele>1094.3333333333333</ele><time>2026-04-26T11:02:52.867Z</time></trkpt><trkpt lat="40.52648" lon="15.5424433"><ele>1093.6666666666665</ele><time>2026-04-26T11:02:54.868Z</time></trkpt><trkpt lat="40.5263883" lon="15.5425233"><ele>1093.0</ele><time>2026-04-26T11:02:56.868Z</time></trkpt><trkpt lat="40.5263067" lon="15.5426033"><ele>1093.0</ele><time>2026-04-26T11:02:58.868Z</time></trkpt><trkpt lat="40.5262317" lon="15.5426733"><ele>1093.0</ele><time>2026-04-26T11:03:00.868Z</time></trkpt><trkpt lat="40.52615" lon="15.54275"><ele>1093.0</ele><time>2026-04-26T11:03:02.867Z</time></trkpt><trkpt lat="40.5260733" lon="15.5427933"><ele>1093.0</ele><time>2026-04-26T11:03:04.867Z</time></trkpt><trkpt lat="40.5259783" lon="15.5428367"><ele>1093.0</ele><time>2026-04-26T11:03:06.868Z</time></trkpt><trkpt lat="40.525885" lon="15.542905"><ele>1092.4</ele><time>2026-04-26T11:03:08.867Z</time></trkpt><trkpt lat="40.5257883" lon="15.5429767"><ele>1091.8</ele><time>2026-04-26T11:03:10.867Z</time></trkpt><trkpt lat="40.5256967" lon="15.5430383"><ele>1091.2</ele><time>2026-04-26T11:03:12.868Z</time></trkpt><trkpt lat="40.525605" lon="15.5431117"><ele>1090.6</ele><time>2026-04-26T11:03:14.867Z</time></trkpt><trkpt lat="40.5255283" lon="15.5431817"><ele>1090.0</ele><time>2026-04-26T11:03:16.868Z</time></trkpt><trkpt lat="40.5254533" lon="15.5432433"><ele>1088.6666666666665</ele><time>2026-04-26T11:03:18.867Z</time></trkpt><trkpt lat="40.5253833" lon="15.5433033"><ele>1087.3333333333333</ele><time>2026-04-26T11:03:20.868Z</time></trkpt><trkpt lat="40.5253267" lon="15.5433517"><ele>1086.0</ele><time>2026-04-26T11:03:22.868Z</time></trkpt><trkpt lat="40.52526" lon="15.543395"><ele>1084.6666666666667</ele><time>2026-04-26T11:03:32.868Z</time></trkpt><trkpt lat="40.525185" lon="15.543365"><ele>1083.3333333333335</ele><time>2026-04-26T11:03:34.867Z</time></trkpt><trkpt lat="40.5251" lon="15.5432917"><ele>1082.0</ele><time>2026-04-26T11:03:36.868Z</time></trkpt><trkpt lat="40.5250433" lon="15.5432133"><ele>1082.0</ele><time>2026-04-26T11:03:38.867Z</time></trkpt><trkpt lat="40.5249967" lon="15.5431167"><ele>1082.0</ele><time>2026-04-26T11:03:41.868Z</time></trkpt><trkpt lat="40.5249383" lon="15.5431583"><ele>1082.0</ele><time>2026-04-26T11:03:45.867Z</time></trkpt><trkpt lat="40.5249467" lon="15.5432517"><ele>1082.0</ele><time>2026-04-26T11:51:16.862Z</time></trkpt><trkpt lat="40.524925" lon="15.5433717"><ele>1082.0</ele><time>2026-04-26T11:51:19.861Z</time></trkpt><trkpt lat="40.5248633" lon="15.54343"><ele>1082.0</ele><time>2026-04-26T11:51:21.862Z</time></trkpt><trkpt lat="40.5247917" lon="15.5434867"><ele>1082.0</ele><time>2026-04-26T11:51:23.861Z</time></trkpt><trkpt lat="40.52474" lon="15.54357"><ele>1082.0</ele><time>2026-04-26T11:51:25.861Z</time></trkpt><trkpt lat="40.5247083" lon="15.5436733"><ele>1082.0</ele><time>2026-04-26T11:51:27.862Z</time></trkpt><trkpt lat="40.524685" lon="15.5437733"><ele>1082.0</ele><time>2026-04-26T11:51:29.861Z</time></trkpt><trkpt lat="40.5246783" lon="15.5438567"><ele>1082.0</ele><time>2026-04-26T11:51:31.861Z</time></trkpt><trkpt lat="40.52466" lon="15.5439367"><ele>1082.0</ele><time>2026-04-26T11:51:33.862Z</time></trkpt><trkpt lat="40.5246183" lon="15.5440617"><ele>1082.0</ele><time>2026-04-26T11:51:35.861Z</time></trkpt><trkpt lat="40.5245717" lon="15.5442167"><ele>1082.0</ele><time>2026-04-26T11:51:37.862Z</time></trkpt><trkpt lat="40.5245483" lon="15.544315"><ele>1082.0</ele><time>2026-04-26T11:51:38.861Z</time></trkpt><trkpt lat="40.5245233" lon="15.5444133"><ele>1082.0</ele><time>2026-04-26T11:51:39.862Z</time></trkpt><trkpt lat="40.5245" lon="15.5445083"><ele>1082.0</ele><time>2026-04-26T11:51:40.862Z</time></trkpt><trkpt lat="40.524475" lon="15.5445967"><ele>1082.0</ele><time>2026-04-26T11:51:41.861Z</time></trkpt><trkpt lat="40.524455" lon="15.5446783"><ele>1079.6</ele><time>2026-04-26T11:51:42.861Z</time></trkpt><trkpt lat="40.5243967" lon="15.5447967"><ele>1077.2</ele><time>2026-04-26T11:51:44.861Z</time></trkpt><trkpt lat="40.5242833" lon="15.5448767"><ele>1074.8</ele><time>2026-04-26T11:51:46.862Z</time></trkpt><trkpt lat="40.5242067" lon="15.5449267"><ele>1072.4</ele><time>2026-04-26T11:51:47.862Z</time></trkpt><trkpt lat="40.524125" lon="15.5449783"><ele>1070.0</ele><time>2026-04-26T11:51:48.862Z</time></trkpt><trkpt lat="40.5240433" lon="15.5450283"><ele>1070.0</ele><time>2026-04-26T11:51:49.862Z</time></trkpt><trkpt lat="40.5239617" lon="15.5450717"><ele>1070.0</ele><time>2026-04-26T11:51:50.862Z</time></trkpt><trkpt lat="40.5238933" lon="15.5451067"><ele>1070.0</ele><time>2026-04-26T11:51:51.862Z</time></trkpt><trkpt lat="40.5238033" lon="15.5451517"><ele>1070.0</ele><time>2026-04-26T11:51:53.862Z</time></trkpt><trkpt lat="40.52374" lon="15.545205"><ele>1070.0</ele><time>2026-04-26T11:51:56.862Z</time></trkpt><trkpt lat="40.5236567" lon="15.5453133"><ele>1067.5</ele><time>2026-04-26T11:51:58.862Z</time></trkpt><trkpt lat="40.5236033" lon="15.5453883"><ele>1065.0</ele><time>2026-04-26T11:51:59.861Z</time></trkpt><trkpt lat="40.5235417" lon="15.5454533"><ele>1062.5</ele><time>2026-04-26T11:52:00.861Z</time></trkpt><trkpt lat="40.523475" lon="15.5455133"><ele>1060.0</ele><time>2026-04-26T11:52:01.862Z</time></trkpt><trkpt lat="40.5234067" lon="15.545575"><ele>1057.5</ele><time>2026-04-26T11:52:02.861Z</time></trkpt><trkpt lat="40.5233367" lon="15.5456433"><ele>1055.0</ele><time>2026-04-26T11:52:03.862Z</time></trkpt><trkpt lat="40.523265" lon="15.5457133"><ele>1055.0</ele><time>2026-04-26T11:52:04.861Z</time></trkpt><trkpt lat="40.5231933" lon="15.545795"><ele>1055.0</ele><time>2026-04-26T11:52:05.862Z</time></trkpt><trkpt lat="40.5231283" lon="15.5458783"><ele>1055.0</ele><time>2026-04-26T11:52:06.861Z</time></trkpt><trkpt lat="40.5230617" lon="15.5459633"><ele>1055.0</ele><time>2026-04-26T11:52:07.861Z</time></trkpt><trkpt lat="40.5229933" lon="15.5460517"><ele>1055.0</ele><time>2026-04-26T11:52:08.861Z</time></trkpt><trkpt lat="40.522925" lon="15.54614"><ele>1052.6</ele><time>2026-04-26T11:52:09.861Z</time></trkpt><trkpt lat="40.522855" lon="15.5462333"><ele>1050.2</ele><time>2026-04-26T11:52:10.862Z</time></trkpt><trkpt lat="40.5227883" lon="15.5463267"><ele>1047.8</ele><time>2026-04-26T11:52:11.862Z</time></trkpt><trkpt lat="40.52272" lon="15.5464217"><ele>1045.4</ele><time>2026-04-26T11:52:12.861Z</time></trkpt><trkpt lat="40.522655" lon="15.5465183"><ele>1043.0</ele><time>2026-04-26T11:52:13.861Z</time></trkpt><trkpt lat="40.5225867" lon="15.5466167"><ele>1043.0</ele><time>2026-04-26T11:52:14.861Z</time></trkpt><trkpt lat="40.5225217" lon="15.546715"><ele>1043.0</ele><time>2026-04-26T11:52:15.862Z</time></trkpt><trkpt lat="40.5224517" lon="15.5468133"><ele>1043.0</ele><time>2026-04-26T11:52:16.861Z</time></trkpt><trkpt lat="40.522385" lon="15.546915"><ele>1043.0</ele><time>2026-04-26T11:52:17.862Z</time></trkpt><trkpt lat="40.5223117" lon="15.5470167"><ele>1043.0</ele><time>2026-04-26T11:52:18.861Z</time></trkpt><trkpt lat="40.5222417" lon="15.5471083"><ele>1041.8</ele><time>2026-04-26T11:52:19.862Z</time></trkpt><trkpt lat="40.5221683" lon="15.5472017"><ele>1040.6</ele><time>2026-04-26T11:52:20.862Z</time></trkpt><trkpt lat="40.5220967" lon="15.5473017"><ele>1039.4</ele><time>2026-04-26T11:52:21.861Z</time></trkpt><trkpt lat="40.522025" lon="15.5473983"><ele>1038.2</ele><time>2026-04-26T11:52:22.861Z</time></trkpt><trkpt lat="40.5219533" lon="15.5474883"><ele>1037.0</ele><time>2026-04-26T11:52:23.861Z</time></trkpt><trkpt lat="40.521875" lon="15.5475883"><ele>1036.0</ele><time>2026-04-26T11:52:24.862Z</time></trkpt><trkpt lat="40.521805" lon="15.5476867"><ele>1035.0</ele><time>2026-04-26T11:52:25.861Z</time></trkpt><trkpt lat="40.5217317" lon="15.547785"><ele>1034.0</ele><time>2026-04-26T11:52:26.861Z</time></trkpt><trkpt lat="40.5216617" lon="15.5478783"><ele>1033.0</ele><time>2026-04-26T11:52:27.862Z</time></trkpt><trkpt lat="40.5215917" lon="15.5479733"><ele>1032.0</ele><time>2026-04-26T11:52:28.861Z</time></trkpt><trkpt lat="40.52152" lon="15.5480633"><ele>1031.6</ele><time>2026-04-26T11:52:29.861Z</time></trkpt><trkpt lat="40.521455" lon="15.5481517"><ele>1031.2</ele><time>2026-04-26T11:52:30.861Z</time></trkpt><trkpt lat="40.52139" lon="15.5482417"><ele>1030.8</ele><time>2026-04-26T11:52:31.862Z</time></trkpt><trkpt lat="40.52132" lon="15.5483267"><ele>1030.4</ele><time>2026-04-26T11:52:32.862Z</time></trkpt><trkpt lat="40.52125" lon="15.5484133"><ele>1030.0</ele><time>2026-04-26T11:52:33.861Z</time></trkpt><trkpt lat="40.521185" lon="15.5484983"><ele>1028.6</ele><time>2026-04-26T11:52:34.861Z</time></trkpt><trkpt lat="40.5211167" lon="15.5485783"><ele>1027.2</ele><time>2026-04-26T11:52:35.862Z</time></trkpt><trkpt lat="40.521045" lon="15.5486617"><ele>1025.8</ele><time>2026-04-26T11:52:36.861Z</time></trkpt><trkpt lat="40.520975" lon="15.54874"><ele>1024.4</ele><time>2026-04-26T11:52:37.861Z</time></trkpt><trkpt lat="40.5209033" lon="15.5488117"><ele>1023.0</ele><time>2026-04-26T11:52:38.861Z</time></trkpt><trkpt lat="40.5208333" lon="15.5488783"><ele>1022.5</ele><time>2026-04-26T11:52:39.862Z</time></trkpt><trkpt lat="40.520765" lon="15.5489533"><ele>1022.0</ele><time>2026-04-26T11:52:40.861Z</time></trkpt><trkpt lat="40.5207" lon="15.549025"><ele>1021.5</ele><time>2026-04-26T11:52:41.861Z</time></trkpt><trkpt lat="40.5206383" lon="15.5491017"><ele>1021.0</ele><time>2026-04-26T11:52:42.861Z</time></trkpt><trkpt lat="40.520585" lon="15.5491867"><ele>1020.5</ele><time>2026-04-26T11:52:43.861Z</time></trkpt><trkpt lat="40.5205467" lon="15.5492817"><ele>1020.0</ele><time>2026-04-26T11:52:44.862Z</time></trkpt><trkpt lat="40.5205033" lon="15.5493817"><ele>1020.0</ele><time>2026-04-26T11:52:45.861Z</time></trkpt><trkpt lat="40.52045" lon="15.5494833"><ele>1020.0</ele><time>2026-04-26T11:52:46.861Z</time></trkpt><trkpt lat="40.5203867" lon="15.5495833"><ele>1020.0</ele><time>2026-04-26T11:52:47.861Z</time></trkpt><trkpt lat="40.5203217" lon="15.5496833"><ele>1020.0</ele><time>2026-04-26T11:52:48.862Z</time></trkpt><trkpt lat="40.5202517" lon="15.5497833"><ele>1020.0</ele><time>2026-04-26T11:52:49.862Z</time></trkpt><trkpt lat="40.5201817" lon="15.5498867"><ele>1017.8</ele><time>2026-04-26T11:52:50.861Z</time></trkpt><trkpt lat="40.52011" lon="15.549995"><ele>1015.6</ele><time>2026-04-26T11:52:51.861Z</time></trkpt><trkpt lat="40.5200433" lon="15.5501067"><ele>1013.4000000000001</ele><time>2026-04-26T11:52:52.862Z</time></trkpt><trkpt lat="40.51997" lon="15.5502167"><ele>1011.2</ele><time>2026-04-26T11:52:53.861Z</time></trkpt><trkpt lat="40.5199" lon="15.5503283"><ele>1009.0</ele><time>2026-04-26T11:52:54.862Z</time></trkpt><trkpt lat="40.5198267" lon="15.5504367"><ele>1007.4000000000001</ele><time>2026-04-26T11:52:55.862Z</time></trkpt><trkpt lat="40.5197517" lon="15.5505467"><ele>1005.8000000000001</ele><time>2026-04-26T11:52:56.862Z</time></trkpt><trkpt lat="40.51968" lon="15.55065"><ele>1004.1999999999999</ele><time>2026-04-26T11:52:57.861Z</time></trkpt><trkpt lat="40.5196033" lon="15.5507433"><ele>1002.5999999999999</ele><time>2026-04-26T11:52:58.862Z</time></trkpt><trkpt lat="40.5195367" lon="15.5508417"><ele>1001.0</ele><time>2026-04-26T11:52:59.861Z</time></trkpt><trkpt lat="40.5194783" lon="15.5509333"><ele>1000.0000000000001</ele><time>2026-04-26T11:53:00.861Z</time></trkpt><trkpt lat="40.5194133" lon="15.55102"><ele>999.0</ele><time>2026-04-26T11:53:01.861Z</time></trkpt><trkpt lat="40.5193483" lon="15.55111"><ele>998.0</ele><time>2026-04-26T11:53:02.861Z</time></trkpt><trkpt lat="40.519285" lon="15.5511933"><ele>997.0</ele><time>2026-04-26T11:53:03.861Z</time></trkpt><trkpt lat="40.5192217" lon="15.5512633"><ele>996.0000000000001</ele><time>2026-04-26T11:53:04.861Z</time></trkpt><trkpt lat="40.51917" lon="15.5513317"><ele>995.0</ele><time>2026-04-26T11:53:05.861Z</time></trkpt><trkpt lat="40.5191267" lon="15.5513933"><ele>994.5000000000001</ele><time>2026-04-26T11:53:06.861Z</time></trkpt><trkpt lat="40.5190683" lon="15.5514717"><ele>994.0</ele><time>2026-04-26T11:53:08.862Z</time></trkpt><trkpt lat="40.5190333" lon="15.5515417"><ele>993.5</ele><time>2026-04-26T11:53:11.861Z</time></trkpt><trkpt lat="40.5190917" lon="15.5514783"><ele>993.0</ele><time>2026-04-26T11:53:15.86Z</time></trkpt><trkpt lat="40.5191517" lon="15.551385"><ele>992.5000000000001</ele><time>2026-04-26T11:53:17.86Z</time></trkpt><trkpt lat="40.51923" lon="15.5512683"><ele>992.0</ele><time>2026-04-26T11:53:19.861Z</time></trkpt><trkpt lat="40.51928" lon="15.5512083"><ele>992.5000000000001</ele><time>2026-04-26T11:53:20.86Z</time></trkpt><trkpt lat="40.519335" lon="15.5511433"><ele>993.0</ele><time>2026-04-26T11:53:21.86Z</time></trkpt><trkpt lat="40.519385" lon="15.5510667"><ele>993.5</ele><time>2026-04-26T11:53:22.86Z</time></trkpt><trkpt lat="40.5194433" lon="15.5509867"><ele>994.0</ele><time>2026-04-26T11:53:23.86Z</time></trkpt><trkpt lat="40.519505" lon="15.5509017"><ele>994.5000000000001</ele><time>2026-04-26T11:53:24.86Z</time></trkpt><trkpt lat="40.5195683" lon="15.5508117"><ele>995.0</ele><time>2026-04-26T11:53:25.861Z</time></trkpt><trkpt lat="40.5196433" lon="15.550715"><ele>996.2</ele><time>2026-04-26T11:53:26.86Z</time></trkpt><trkpt lat="40.5197133" lon="15.5506217"><ele>997.4</ele><time>2026-04-26T11:53:27.861Z</time></trkpt><trkpt lat="40.5197783" lon="15.550525"><ele>998.5999999999999</ele><time>2026-04-26T11:53:28.861Z</time></trkpt><trkpt lat="40.5198417" lon="15.5504283"><ele>999.8</ele><time>2026-04-26T11:53:29.86Z</time></trkpt><trkpt lat="40.5199067" lon="15.5503283"><ele>1001.0</ele><time>2026-04-26T11:53:30.861Z</time></trkpt><trkpt lat="40.5199633" lon="15.5502217"><ele>1002.5999999999999</ele><time>2026-04-26T11:53:31.861Z</time></trkpt><trkpt lat="40.5200317" lon="15.55012"><ele>1004.1999999999999</ele><time>2026-04-26T11:53:32.861Z</time></trkpt><trkpt lat="40.5201" lon="15.5500183"><ele>1005.8000000000001</ele><time>2026-04-26T11:53:33.861Z</time></trkpt><trkpt lat="40.5201633" lon="15.54992"><ele>1007.4000000000001</ele><time>2026-04-26T11:53:34.861Z</time></trkpt><trkpt lat="40.520225" lon="15.549825"><ele>1009.0</ele><time>2026-04-26T11:53:35.861Z</time></trkpt><trkpt lat="40.5202817" lon="15.5497367"><ele>1008.9999999999999</ele><time>2026-04-26T11:53:36.861Z</time></trkpt><trkpt lat="40.52034" lon="15.5496517"><ele>1009.0</ele><time>2026-04-26T11:53:37.86Z</time></trkpt><trkpt lat="40.5203983" lon="15.5495783"><ele>1009.0</ele><time>2026-04-26T11:53:38.861Z</time></trkpt><trkpt lat="40.5204433" lon="15.54951"><ele>1009.0</ele><time>2026-04-26T11:53:39.861Z</time></trkpt><trkpt lat="40.520515" lon="15.5493833"><ele>1008.9999999999999</ele><time>2026-04-26T11:53:41.86Z</time></trkpt><trkpt lat="40.520565" lon="15.5492867"><ele>1009.0</ele><time>2026-04-26T11:53:43.861Z</time></trkpt><trkpt lat="40.5206067" lon="15.5491883"><ele>1009.8333333333333</ele><time>2026-04-26T11:53:45.861Z</time></trkpt><trkpt lat="40.520625" lon="15.5491017"><ele>1010.6666666666666</ele><time>2026-04-26T11:53:47.861Z</time></trkpt><trkpt lat="40.520565" lon="15.5492133"><ele>1011.5</ele><time>2026-04-26T11:53:51.86Z</time></trkpt><trkpt lat="40.5205267" lon="15.54935"><ele>1012.3333333333333</ele><time>2026-04-26T11:53:53.86Z</time></trkpt><trkpt lat="40.5204967" lon="15.5494533"><ele>1013.1666666666666</ele><time>2026-04-26T11:53:55.861Z</time></trkpt><trkpt lat="40.52049" lon="15.549545"><ele>1014.0</ele><time>2026-04-26T11:53:57.861Z</time></trkpt><trkpt lat="40.5205033" lon="15.54966"><ele>1014.0</ele><time>2026-04-26T11:53:59.86Z</time></trkpt><trkpt lat="40.5205383" lon="15.5497967"><ele>1014.0000000000001</ele><time>2026-04-26T11:54:01.86Z</time></trkpt><trkpt lat="40.5205783" lon="15.54994"><ele>1014.0000000000001</ele><time>2026-04-26T11:54:03.86Z</time></trkpt><trkpt lat="40.5206067" lon="15.55007"><ele>1014.0</ele><time>2026-04-26T11:54:05.86Z</time></trkpt><trkpt lat="40.520635" lon="15.5501967"><ele>1014.0</ele><time>2026-04-26T11:54:07.86Z</time></trkpt><trkpt lat="40.5206583" lon="15.5503267"><ele>1012.6</ele><time>2026-04-26T11:54:09.86Z</time></trkpt><trkpt lat="40.5207017" lon="15.550455"><ele>1011.2</ele><time>2026-04-26T11:54:11.861Z</time></trkpt><trkpt lat="40.520755" lon="15.55058"><ele>1009.8000000000001</ele><time>2026-04-26T11:54:13.86Z</time></trkpt><trkpt lat="40.5208233" lon="15.5507"><ele>1008.4000000000001</ele><time>2026-04-26T11:54:15.861Z</time></trkpt><trkpt lat="40.520885" lon="15.5508017"><ele>1007.0</ele><time>2026-04-26T11:54:17.861Z</time></trkpt><trkpt lat="40.520945" lon="15.5508833"><ele>1007.0000000000001</ele><time>2026-04-26T11:54:19.861Z</time></trkpt><trkpt lat="40.521005" lon="15.5509583"><ele>1007.0</ele><time>2026-04-26T11:54:21.861Z</time></trkpt><trkpt lat="40.52102" lon="15.5510417"><ele>1007.0</ele><time>2026-04-26T11:54:23.86Z</time></trkpt><trkpt lat="40.5210017" lon="15.55113"><ele>1007.0</ele><time>2026-04-26T11:54:25.86Z</time></trkpt><trkpt lat="40.5209567" lon="15.55121"><ele>1007.0000000000001</ele><time>2026-04-26T11:54:27.861Z</time></trkpt><trkpt lat="40.5209033" lon="15.5512883"><ele>1007.0</ele><time>2026-04-26T11:54:29.86Z</time></trkpt><trkpt lat="40.5208583" lon="15.551375"><ele>1006.4000000000001</ele><time>2026-04-26T11:54:31.86Z</time></trkpt><trkpt lat="40.5208233" lon="15.551485"><ele>1005.8000000000001</ele><time>2026-04-26T11:54:33.86Z</time></trkpt><trkpt lat="40.520795" lon="15.5515833"><ele>1005.2</ele><time>2026-04-26T11:54:35.86Z</time></trkpt><trkpt lat="40.5207367" lon="15.55167"><ele>1004.6</ele><time>2026-04-26T11:54:37.861Z</time></trkpt><trkpt lat="40.5206517" lon="15.5517367"><ele>1004.0</ele><time>2026-04-26T11:54:39.861Z</time></trkpt><trkpt lat="40.52055" lon="15.5517867"><ele>1004.0</ele><time>2026-04-26T11:54:41.86Z</time></trkpt><trkpt lat="40.5204433" lon="15.5518333"><ele>1004.0000000000001</ele><time>2026-04-26T11:54:43.861Z</time></trkpt><trkpt lat="40.52035" lon="15.5518917"><ele>1004.0000000000001</ele><time>2026-04-26T11:54:45.86Z</time></trkpt><trkpt lat="40.5202667" lon="15.5519533"><ele>1004.0</ele><time>2026-04-26T11:54:47.86Z</time></trkpt><trkpt lat="40.5201967" lon="15.5519933"><ele>1004.0</ele><time>2026-04-26T11:54:49.86Z</time></trkpt><trkpt lat="40.520115" lon="15.552035"><ele>1002.6</ele><time>2026-04-26T11:54:52.86Z</time></trkpt><trkpt lat="40.5200533" lon="15.55206"><ele>1001.2</ele><time>2026-04-26T11:54:54.86Z</time></trkpt><trkpt lat="40.5199617" lon="15.5521167"><ele>999.8000000000001</ele><time>2026-04-26T11:54:57.861Z</time></trkpt><trkpt lat="40.5198433" lon="15.5521533"><ele>998.4000000000001</ele><time>2026-04-26T11:54:59.86Z</time></trkpt><trkpt lat="40.51975" lon="15.55218"><ele>997.0</ele><time>2026-04-26T11:55:01.861Z</time></trkpt><trkpt lat="40.5197" lon="15.5522567"><ele>996.9999999999999</ele><time>2026-04-26T11:55:04.86Z</time></trkpt><trkpt lat="40.519735" lon="15.5523367"><ele>997.0</ele><time>2026-04-26T11:55:07.86Z</time></trkpt><trkpt lat="40.5197817" lon="15.552425"><ele>997.0</ele><time>2026-04-26T11:55:09.86Z</time></trkpt><trkpt lat="40.5198483" lon="15.552555"><ele>997.0</ele><time>2026-04-26T11:55:11.861Z</time></trkpt><trkpt lat="40.51989" lon="15.5526267"><ele>996.9999999999999</ele><time>2026-04-26T11:55:12.86Z</time></trkpt><trkpt lat="40.5199333" lon="15.552695"><ele>997.0</ele><time>2026-04-26T11:55:13.861Z</time></trkpt><trkpt lat="40.5199767" lon="15.5527667"><ele>997.0</ele><time>2026-04-26T11:55:14.861Z</time></trkpt><trkpt lat="40.52002" lon="15.5528433"><ele>997.0</ele><time>2026-04-26T11:55:15.861Z</time></trkpt><trkpt lat="40.520075" lon="15.55297"><ele>997.0</ele><time>2026-04-26T11:55:17.861Z</time></trkpt><trkpt lat="40.5200833" lon="15.5530817"><ele>997.0</ele><time>2026-04-26T11:55:19.861Z</time></trkpt><trkpt lat="40.520035" lon="15.5532033"><ele>997.0</ele><time>2026-04-26T11:55:23.86Z</time></trkpt><trkpt lat="40.5199517" lon="15.55334"><ele>996.2</ele><time>2026-04-26T11:55:25.861Z</time></trkpt><trkpt lat="40.5198833" lon="15.553415"><ele>995.4000000000001</ele><time>2026-04-26T11:55:26.86Z</time></trkpt><trkpt lat="40.5198017" lon="15.5534817"><ele>994.5999999999999</ele><time>2026-04-26T11:55:27.86Z</time></trkpt><trkpt lat="40.5197133" lon="15.5535433"><ele>993.8</ele><time>2026-04-26T11:55:28.86Z</time></trkpt><trkpt lat="40.5196133" lon="15.5535917"><ele>993.0</ele><time>2026-04-26T11:55:29.861Z</time></trkpt><trkpt lat="40.51951" lon="15.55363"><ele>993.0</ele><time>2026-04-26T11:55:30.86Z</time></trkpt><trkpt lat="40.519405" lon="15.5536633"><ele>993.0</ele><time>2026-04-26T11:55:31.86Z</time></trkpt><trkpt lat="40.5192967" lon="15.553695"><ele>993.0</ele><time>2026-04-26T11:55:32.86Z</time></trkpt><trkpt lat="40.5191883" lon="15.5537283"><ele>993.0</ele><time>2026-04-26T11:55:33.861Z</time></trkpt><trkpt lat="40.5190783" lon="15.55376"><ele>993.0</ele><time>2026-04-26T11:55:34.861Z</time></trkpt><trkpt lat="40.5189683" lon="15.5537883"><ele>993.8</ele><time>2026-04-26T11:55:35.86Z</time></trkpt><trkpt lat="40.5188567" lon="15.5538233"><ele>994.5999999999999</ele><time>2026-04-26T11:55:36.861Z</time></trkpt><trkpt lat="40.5187517" lon="15.55387"><ele>995.4000000000001</ele><time>2026-04-26T11:55:37.86Z</time></trkpt><trkpt lat="40.51865" lon="15.5539233"><ele>996.2</ele><time>2026-04-26T11:55:38.861Z</time></trkpt><trkpt lat="40.518555" lon="15.5539817"><ele>997.0</ele><time>2026-04-26T11:55:39.86Z</time></trkpt><trkpt lat="40.51847" lon="15.5540567"><ele>997.0</ele><time>2026-04-26T11:55:40.86Z</time></trkpt><trkpt lat="40.5184017" lon="15.5541483"><ele>997.0</ele><time>2026-04-26T11:55:41.86Z</time></trkpt><trkpt lat="40.518335" lon="15.5542433"><ele>997.0</ele><time>2026-04-26T11:55:42.86Z</time></trkpt><trkpt lat="40.518265" lon="15.55433"><ele>997.0</ele><time>2026-04-26T11:55:43.86Z</time></trkpt><trkpt lat="40.518185" lon="15.554415"><ele>997.0</ele><time>2026-04-26T11:55:44.86Z</time></trkpt><trkpt lat="40.5180983" lon="15.55451"><ele>996.25</ele><time>2026-04-26T11:55:45.86Z</time></trkpt><trkpt lat="40.51802" lon="15.5546217"><ele>995.5</ele><time>2026-04-26T11:55:46.86Z</time></trkpt><trkpt lat="40.51796" lon="15.5547483"><ele>994.75</ele><time>2026-04-26T11:55:47.86Z</time></trkpt><trkpt lat="40.5179133" lon="15.554885"><ele>994.0</ele><time>2026-04-26T11:55:48.861Z</time></trkpt><trkpt lat="40.5178733" lon="15.555035"><ele>994.0</ele><time>2026-04-26T11:55:49.86Z</time></trkpt><trkpt lat="40.5178317" lon="15.5551817"><ele>994.0</ele><time>2026-04-26T11:55:50.86Z</time></trkpt><trkpt lat="40.5177917" lon="15.5553317"><ele>994.0</ele><time>2026-04-26T11:55:51.861Z</time></trkpt><trkpt lat="40.51776" lon="15.555485"><ele>994.0</ele><time>2026-04-26T11:55:52.861Z</time></trkpt><trkpt lat="40.5177467" lon="15.55563"><ele>995.8000000000001</ele><time>2026-04-26T11:55:53.86Z</time></trkpt><trkpt lat="40.5177517" lon="15.55578"><ele>997.6000000000001</ele><time>2026-04-26T11:55:54.86Z</time></trkpt><trkpt lat="40.5177633" lon="15.5559283"><ele>999.4</ele><time>2026-04-26T11:55:55.861Z</time></trkpt><trkpt lat="40.51777" lon="15.5560717"><ele>1001.2</ele><time>2026-04-26T11:55:56.86Z</time></trkpt><trkpt lat="40.5177583" lon="15.5562083"><ele>1003.0</ele><time>2026-04-26T11:55:57.861Z</time></trkpt><trkpt lat="40.5177267" lon="15.5563483"><ele>1005.5</ele><time>2026-04-26T11:55:58.86Z</time></trkpt><trkpt lat="40.5176783" lon="15.5564967"><ele>1008.0</ele><time>2026-04-26T11:55:59.86Z</time></trkpt><trkpt lat="40.5176183" lon="15.5566417"><ele>1010.5</ele><time>2026-04-26T11:56:00.861Z</time></trkpt><trkpt lat="40.5175533" lon="15.5567967"><ele>1013.0</ele><time>2026-04-26T11:56:01.861Z</time></trkpt><trkpt lat="40.5174917" lon="15.5569583"><ele>1016.0</ele><time>2026-04-26T11:56:02.861Z</time></trkpt><trkpt lat="40.51743" lon="15.557125"><ele>1019.0</ele><time>2026-04-26T11:56:03.861Z</time></trkpt><trkpt lat="40.5173583" lon="15.5572983"><ele>1022.0</ele><time>2026-04-26T11:56:04.861Z</time></trkpt><trkpt lat="40.5172833" lon="15.5574633"><ele>1025.0</ele><time>2026-04-26T11:56:05.861Z</time></trkpt><trkpt lat="40.5172117" lon="15.557605"><ele>1025.0</ele><time>2026-04-26T11:56:06.861Z</time></trkpt><trkpt lat="40.5171567" lon="15.557725"><ele>1025.0</ele><time>2026-04-26T11:56:07.86Z</time></trkpt><trkpt lat="40.517125" lon="15.55783"><ele>1025.0</ele><time>2026-04-26T11:56:08.861Z</time></trkpt><trkpt lat="40.51713" lon="15.5579833"><ele>1025.0</ele><time>2026-04-26T11:56:10.861Z</time></trkpt><trkpt lat="40.5172217" lon="15.5580633"><ele>1025.0</ele><time>2026-04-26T11:56:12.86Z</time></trkpt><trkpt lat="40.5173017" lon="15.5580767"><ele>1024.6</ele><time>2026-04-26T11:56:13.861Z</time></trkpt><trkpt lat="40.5173983" lon="15.558075"><ele>1024.2</ele><time>2026-04-26T11:56:14.861Z</time></trkpt><trkpt lat="40.5175017" lon="15.558075"><ele>1023.8</ele><time>2026-04-26T11:56:15.86Z</time></trkpt><trkpt lat="40.5176017" lon="15.5580983"><ele>1023.4</ele><time>2026-04-26T11:56:16.861Z</time></trkpt><trkpt lat="40.517685" lon="15.5581517"><ele>1023.0</ele><time>2026-04-26T11:56:17.861Z</time></trkpt><trkpt lat="40.51775" lon="15.5582317"><ele>1023.0</ele><time>2026-04-26T11:56:18.86Z</time></trkpt><trkpt lat="40.517805" lon="15.5583333"><ele>1023.0</ele><time>2026-04-26T11:56:19.86Z</time></trkpt><trkpt lat="40.517845" lon="15.55845"><ele>1023.0</ele><time>2026-04-26T11:56:20.861Z</time></trkpt><trkpt lat="40.51788" lon="15.5585667"><ele>1023.0</ele><time>2026-04-26T11:56:21.86Z</time></trkpt><trkpt lat="40.5179217" lon="15.558685"><ele>1023.0</ele><time>2026-04-26T11:56:22.86Z</time></trkpt><trkpt lat="40.5179617" lon="15.55881"><ele>1025.4</ele><time>2026-04-26T11:56:23.861Z</time></trkpt><trkpt lat="40.518005" lon="15.5589233"><ele>1027.8</ele><time>2026-04-26T11:56:24.861Z</time></trkpt><trkpt lat="40.5180617" lon="15.5590183"><ele>1030.2</ele><time>2026-04-26T11:56:25.861Z</time></trkpt><trkpt lat="40.5181283" lon="15.5590867"><ele>1032.6</ele><time>2026-04-26T11:56:26.86Z</time></trkpt><trkpt lat="40.5182083" lon="15.55913"><ele>1035.0</ele><time>2026-04-26T11:56:27.86Z</time></trkpt><trkpt lat="40.5183033" lon="15.5591383"><ele>1035.0</ele><time>2026-04-26T11:56:28.86Z</time></trkpt><trkpt lat="40.5184033" lon="15.5591483"><ele>1035.0</ele><time>2026-04-26T11:56:29.86Z</time></trkpt><trkpt lat="40.518505" lon="15.559175"><ele>1035.0</ele><time>2026-04-26T11:56:30.86Z</time></trkpt><trkpt lat="40.5186133" lon="15.5592167"><ele>1035.0</ele><time>2026-04-26T11:56:31.861Z</time></trkpt><trkpt lat="40.518725" lon="15.5592633"><ele>1035.0</ele><time>2026-04-26T11:56:32.86Z</time></trkpt><trkpt lat="40.51883" lon="15.559315"><ele>1035.75</ele><time>2026-04-26T11:56:33.86Z</time></trkpt><trkpt lat="40.5189383" lon="15.5593833"><ele>1036.5</ele><time>2026-04-26T11:56:34.861Z</time></trkpt><trkpt lat="40.5190467" lon="15.5594583"><ele>1037.25</ele><time>2026-04-26T11:56:35.861Z</time></trkpt><trkpt lat="40.519155" lon="15.5595283"><ele>1038.0</ele><time>2026-04-26T11:56:36.861Z</time></trkpt><trkpt lat="40.51927" lon="15.5595933"><ele>1038.0</ele><time>2026-04-26T11:56:37.86Z</time></trkpt><trkpt lat="40.51938" lon="15.5596517"><ele>1038.0</ele><time>2026-04-26T11:56:38.861Z</time></trkpt><trkpt lat="40.5194867" lon="15.5597033"><ele>1038.0</ele><time>2026-04-26T11:56:39.86Z</time></trkpt><trkpt lat="40.5195917" lon="15.5597483"><ele>1038.0</ele><time>2026-04-26T11:56:40.86Z</time></trkpt><trkpt lat="40.51969" lon="15.5597667"><ele>1038.0</ele><time>2026-04-26T11:56:41.861Z</time></trkpt><trkpt lat="40.5197967" lon="15.55976"><ele>1037.0</ele><time>2026-04-26T11:56:42.861Z</time></trkpt><trkpt lat="40.5199017" lon="15.55974"><ele>1036.0</ele><time>2026-04-26T11:56:43.861Z</time></trkpt><trkpt lat="40.5200067" lon="15.5597167"><ele>1035.0</ele><time>2026-04-26T11:56:44.861Z</time></trkpt><trkpt lat="40.5201117" lon="15.5597083"><ele>1034.0</ele><time>2026-04-26T11:56:45.86Z</time></trkpt><trkpt lat="40.5202167" lon="15.559715"><ele>1033.0</ele><time>2026-04-26T11:56:46.86Z</time></trkpt><trkpt lat="40.5203233" lon="15.5597367"><ele>1033.5</ele><time>2026-04-26T11:56:47.86Z</time></trkpt><trkpt lat="40.520435" lon="15.5597683"><ele>1034.0</ele><time>2026-04-26T11:56:48.861Z</time></trkpt><trkpt lat="40.5205517" lon="15.5597983"><ele>1034.5</ele><time>2026-04-26T11:56:49.861Z</time></trkpt><trkpt lat="40.5206683" lon="15.559825"><ele>1035.0</ele><time>2026-04-26T11:56:50.861Z</time></trkpt><trkpt lat="40.5207867" lon="15.5598483"><ele>1035.0</ele><time>2026-04-26T11:56:51.861Z</time></trkpt><trkpt lat="40.5209033" lon="15.55987"><ele>1035.0</ele><time>2026-04-26T11:56:52.861Z</time></trkpt><trkpt lat="40.5210183" lon="15.5598883"><ele>1035.0</ele><time>2026-04-26T11:56:53.861Z</time></trkpt><trkpt lat="40.52113" lon="15.5599017"><ele>1035.0</ele><time>2026-04-26T11:56:54.861Z</time></trkpt><trkpt lat="40.52123" lon="15.5599133"><ele>1035.0</ele><time>2026-04-26T11:56:55.861Z</time></trkpt><trkpt lat="40.52133" lon="15.55992"><ele>1036.0</ele><time>2026-04-26T11:56:56.861Z</time></trkpt><trkpt lat="40.52143" lon="15.5599333"><ele>1037.0</ele><time>2026-04-26T11:56:57.86Z</time></trkpt><trkpt lat="40.5215317" lon="15.55995"><ele>1038.0</ele><time>2026-04-26T11:56:58.861Z</time></trkpt><trkpt lat="40.521635" lon="15.559975"><ele>1039.0</ele><time>2026-04-26T11:56:59.861Z</time></trkpt><trkpt lat="40.5217483" lon="15.5599983"><ele>1040.0</ele><time>2026-04-26T11:57:00.861Z</time></trkpt><trkpt lat="40.5218567" lon="15.5600267"><ele>1040.0</ele><time>2026-04-26T11:57:01.86Z</time></trkpt><trkpt lat="40.5219717" lon="15.5600483"><ele>1040.0</ele><time>2026-04-26T11:57:02.861Z</time></trkpt><trkpt lat="40.5220933" lon="15.5600683"><ele>1040.0</ele><time>2026-04-26T11:57:03.86Z</time></trkpt><trkpt lat="40.522215" lon="15.56009"><ele>1040.0</ele><time>2026-04-26T11:57:04.861Z</time></trkpt><trkpt lat="40.52233" lon="15.56012"><ele>1041.5</ele><time>2026-04-26T11:57:05.861Z</time></trkpt><trkpt lat="40.5224367" lon="15.56018"><ele>1043.0</ele><time>2026-04-26T11:57:06.861Z</time></trkpt><trkpt lat="40.5225267" lon="15.5602767"><ele>1044.5</ele><time>2026-04-26T11:57:07.861Z</time></trkpt><trkpt lat="40.52259" lon="15.5604"><ele>1046.0</ele><time>2026-04-26T11:57:08.86Z</time></trkpt><trkpt lat="40.5226417" lon="15.5605233"><ele>1043.6</ele><time>2026-04-26T11:57:09.861Z</time></trkpt><trkpt lat="40.5227017" lon="15.5606333"><ele>1041.1999999999998</ele><time>2026-04-26T11:57:10.861Z</time></trkpt><trkpt lat="40.522775" lon="15.5607217"><ele>1038.8000000000002</ele><time>2026-04-26T11:57:11.86Z</time></trkpt><trkpt lat="40.5228533" lon="15.56078"><ele>1036.4</ele><time>2026-04-26T11:57:12.861Z</time></trkpt><trkpt lat="40.52294" lon="15.5608083"><ele>1034.0</ele><time>2026-04-26T11:57:13.861Z</time></trkpt><trkpt lat="40.5230283" lon="15.5608283"><ele>1034.0</ele><time>2026-04-26T11:57:14.86Z</time></trkpt><trkpt lat="40.5231183" lon="15.5608417"><ele>1034.0</ele><time>2026-04-26T11:57:15.86Z</time></trkpt><trkpt lat="40.5232117" lon="15.5608583"><ele>1034.0</ele><time>2026-04-26T11:57:16.86Z</time></trkpt><trkpt lat="40.5233067" lon="15.560875"><ele>1034.0</ele><time>2026-04-26T11:57:17.861Z</time></trkpt><trkpt lat="40.5234017" lon="15.560895"><ele>1034.0</ele><time>2026-04-26T11:57:18.861Z</time></trkpt><trkpt lat="40.5234967" lon="15.5609233"><ele>1034.0</ele><time>2026-04-26T11:57:19.86Z</time></trkpt><trkpt lat="40.5235883" lon="15.5609733"><ele>1034.0</ele><time>2026-04-26T11:57:20.86Z</time></trkpt><trkpt lat="40.5236633" lon="15.5610367"><ele>1034.0</ele><time>2026-04-26T11:57:21.86Z</time></trkpt><trkpt lat="40.5237333" lon="15.5611"><ele>1034.0</ele><time>2026-04-26T11:57:22.861Z</time></trkpt><trkpt lat="40.5238083" lon="15.561155"><ele>1034.0</ele><time>2026-04-26T11:57:23.861Z</time></trkpt><trkpt lat="40.52389" lon="15.56117"><ele>1034.0</ele><time>2026-04-26T11:57:24.861Z</time></trkpt><trkpt lat="40.52398" lon="15.561155"><ele>1033.75</ele><time>2026-04-26T11:57:25.86Z</time></trkpt><trkpt lat="40.52408" lon="15.561125"><ele>1033.5</ele><time>2026-04-26T11:57:26.861Z</time></trkpt><trkpt lat="40.5241883" lon="15.5610833"><ele>1033.25</ele><time>2026-04-26T11:57:27.86Z</time></trkpt><trkpt lat="40.5242983" lon="15.56103"><ele>1033.0</ele><time>2026-04-26T11:57:28.861Z</time></trkpt><trkpt lat="40.5244083" lon="15.5609617"><ele>1033.0</ele><time>2026-04-26T11:57:29.861Z</time></trkpt><trkpt lat="40.5245217" lon="15.5608917"><ele>1033.0</ele><time>2026-04-26T11:57:30.86Z</time></trkpt><trkpt lat="40.5246383" lon="15.56084"><ele>1033.0</ele><time>2026-04-26T11:57:31.86Z</time></trkpt><trkpt lat="40.5247483" lon="15.5608033"><ele>1033.0</ele><time>2026-04-26T11:57:32.861Z</time></trkpt><trkpt lat="40.5248517" lon="15.5607767"><ele>1031.2</ele><time>2026-04-26T11:57:33.86Z</time></trkpt><trkpt lat="40.5249483" lon="15.5607483"><ele>1029.4</ele><time>2026-04-26T11:57:34.86Z</time></trkpt><trkpt lat="40.5250367" lon="15.5607"><ele>1027.6000000000001</ele><time>2026-04-26T11:57:35.861Z</time></trkpt><trkpt lat="40.525115" lon="15.5606217"><ele>1025.8</ele><time>2026-04-26T11:57:36.861Z</time></trkpt><trkpt lat="40.5251933" lon="15.5605283"><ele>1024.0</ele><time>2026-04-26T11:57:37.861Z</time></trkpt><trkpt lat="40.5252883" lon="15.5604367"><ele>1024.5</ele><time>2026-04-26T11:57:38.861Z</time></trkpt><trkpt lat="40.5253717" lon="15.560335"><ele>1025.0</ele><time>2026-04-26T11:57:39.86Z</time></trkpt><trkpt lat="40.5254583" lon="15.5602333"><ele>1025.5</ele><time>2026-04-26T11:57:40.86Z</time></trkpt><trkpt lat="40.5255433" lon="15.560125"><ele>1026.0</ele><time>2026-04-26T11:57:41.861Z</time></trkpt><trkpt lat="40.5256283" lon="15.5600167"><ele>1023.25</ele><time>2026-04-26T11:57:42.86Z</time></trkpt><trkpt lat="40.5257167" lon="15.5599133"><ele>1020.5</ele><time>2026-04-26T11:57:43.861Z</time></trkpt><trkpt lat="40.525805" lon="15.559805"><ele>1017.75</ele><time>2026-04-26T11:57:44.86Z</time></trkpt><trkpt lat="40.5258917" lon="15.5596983"><ele>1015.0</ele><time>2026-04-26T11:57:45.86Z</time></trkpt><trkpt lat="40.5259833" lon="15.559605"><ele>1015.6</ele><time>2026-04-26T11:57:46.861Z</time></trkpt><trkpt lat="40.5260767" lon="15.5595267"><ele>1016.2</ele><time>2026-04-26T11:57:47.86Z</time></trkpt><trkpt lat="40.5261783" lon="15.559475"><ele>1016.8</ele><time>2026-04-26T11:57:48.861Z</time></trkpt><trkpt lat="40.5262717" lon="15.5594333"><ele>1017.4</ele><time>2026-04-26T11:57:49.861Z</time></trkpt><trkpt lat="40.5263567" lon="15.559395"><ele>1018.0</ele><time>2026-04-26T11:57:50.86Z</time></trkpt><trkpt lat="40.5264433" lon="15.5593467"><ele>1014.3333333333333</ele><time>2026-04-26T11:57:51.861Z</time></trkpt><trkpt lat="40.52652" lon="15.55928"><ele>1010.6666666666666</ele><time>2026-04-26T11:57:52.861Z</time></trkpt><trkpt lat="40.52659" lon="15.5591983"><ele>1007.0</ele><time>2026-04-26T11:57:53.861Z</time></trkpt><trkpt lat="40.526635" lon="15.5591083"><ele>1003.3333333333333</ele><time>2026-04-26T11:57:54.861Z</time></trkpt><trkpt lat="40.52666" lon="15.5590133"><ele>999.6666666666666</ele><time>2026-04-26T11:57:55.861Z</time></trkpt><trkpt lat="40.5266683" lon="15.5589133"><ele>996.0</ele><time>2026-04-26T11:57:56.861Z</time></trkpt><trkpt lat="40.52666" lon="15.5588167"><ele>996.0</ele><time>2026-04-26T11:57:57.86Z</time></trkpt><trkpt lat="40.52663" lon="15.55873"><ele>996.0</ele><time>2026-04-26T11:57:58.86Z</time></trkpt><trkpt lat="40.5265783" lon="15.5586583"><ele>996.0</ele><time>2026-04-26T11:57:59.861Z</time></trkpt><trkpt lat="40.526505" lon="15.5586"><ele>996.0</ele><time>2026-04-26T11:58:00.861Z</time></trkpt><trkpt lat="40.52642" lon="15.5585433"><ele>996.0</ele><time>2026-04-26T11:58:01.86Z</time></trkpt><trkpt lat="40.5263383" lon="15.5584867"><ele>996.0</ele><time>2026-04-26T11:58:02.861Z</time></trkpt><trkpt lat="40.5262567" lon="15.5584267"><ele>999.0</ele><time>2026-04-26T11:58:03.86Z</time></trkpt><trkpt lat="40.5261833" lon="15.5583633"><ele>1002.0</ele><time>2026-04-26T11:58:04.861Z</time></trkpt><trkpt lat="40.526115" lon="15.5583083"><ele>1005.0</ele><time>2026-04-26T11:58:05.861Z</time></trkpt><trkpt lat="40.5260467" lon="15.5582517"><ele>1008.0</ele><time>2026-04-26T11:58:06.861Z</time></trkpt><trkpt lat="40.5259917" lon="15.5581833"><ele>1011.0</ele><time>2026-04-26T11:58:07.861Z</time></trkpt><trkpt lat="40.525955" lon="15.5581017"><ele>1014.0</ele><time>2026-04-26T11:58:08.86Z</time></trkpt><trkpt lat="40.5259467" lon="15.5580167"><ele>1014.0</ele><time>2026-04-26T11:58:09.86Z</time></trkpt><trkpt lat="40.5259817" lon="15.55794"><ele>1014.0</ele><time>2026-04-26T11:58:10.86Z</time></trkpt><trkpt lat="40.5261083" lon="15.5579217"><ele>1014.0</ele><time>2026-04-26T11:58:12.861Z</time></trkpt><trkpt lat="40.5261783" lon="15.55797"><ele>1014.0</ele><time>2026-04-26T11:58:13.86Z</time></trkpt><trkpt lat="40.5262467" lon="15.5580317"><ele>1014.0</ele><time>2026-04-26T11:58:14.861Z</time></trkpt><trkpt lat="40.5263133" lon="15.5580983"><ele>1014.0</ele><time>2026-04-26T11:58:15.86Z</time></trkpt><trkpt lat="40.5263833" lon="15.5581583"><ele>1010.6666666666666</ele><time>2026-04-26T11:58:16.861Z</time></trkpt><trkpt lat="40.5264583" lon="15.5582117"><ele>1007.3333333333333</ele><time>2026-04-26T11:58:17.861Z</time></trkpt><trkpt lat="40.526535" lon="15.5582483"><ele>1004.0</ele><time>2026-04-26T11:58:18.86Z</time></trkpt><trkpt lat="40.5266133" lon="15.5582733"><ele>1000.6666666666666</ele><time>2026-04-26T11:58:19.861Z</time></trkpt><trkpt lat="40.5267033" lon="15.5582917"><ele>997.3333333333333</ele><time>2026-04-26T11:58:20.86Z</time></trkpt><trkpt lat="40.5267967" lon="15.55831"><ele>994.0</ele><time>2026-04-26T11:58:21.86Z</time></trkpt><trkpt lat="40.5268967" lon="15.5583267"><ele>994.0</ele><time>2026-04-26T11:58:22.861Z</time></trkpt><trkpt lat="40.5269933" lon="15.558355"><ele>994.0000000000001</ele><time>2026-04-26T11:58:23.86Z</time></trkpt><trkpt lat="40.5270883" lon="15.5583883"><ele>994.0000000000001</ele><time>2026-04-26T11:58:24.86Z</time></trkpt><trkpt lat="40.5271867" lon="15.55844"><ele>994.0</ele><time>2026-04-26T11:58:25.861Z</time></trkpt><trkpt lat="40.5272817" lon="15.5584917"><ele>994.0</ele><time>2026-04-26T11:58:26.861Z</time></trkpt><trkpt lat="40.5273617" lon="15.55855"><ele>990.6</ele><time>2026-04-26T11:58:27.86Z</time></trkpt><trkpt lat="40.5274367" lon="15.5586067"><ele>987.2</ele><time>2026-04-26T11:58:28.86Z</time></trkpt><trkpt lat="40.5274883" lon="15.5586733"><ele>983.8000000000001</ele><time>2026-04-26T11:58:29.861Z</time></trkpt><trkpt lat="40.5275167" lon="15.55884"><ele>980.4000000000001</ele><time>2026-04-26T11:58:31.861Z</time></trkpt><trkpt lat="40.5274933" lon="15.5589433"><ele>977.0</ele><time>2026-04-26T11:58:32.86Z</time></trkpt><trkpt lat="40.5274583" lon="15.55905"><ele>977.0000000000001</ele><time>2026-04-26T11:58:33.86Z</time></trkpt><trkpt lat="40.5274217" lon="15.5591533"><ele>977.0</ele><time>2026-04-26T11:58:34.861Z</time></trkpt><trkpt lat="40.5274033" lon="15.5592483"><ele>977.0</ele><time>2026-04-26T11:58:35.86Z</time></trkpt><trkpt lat="40.5274" lon="15.5593367"><ele>977.0</ele><time>2026-04-26T11:58:36.861Z</time></trkpt><trkpt lat="40.52747" lon="15.5594533"><ele>977.0000000000001</ele><time>2026-04-26T11:58:38.86Z</time></trkpt><trkpt lat="40.52754" lon="15.5594483"><ele>977.0</ele><time>2026-04-26T11:58:39.86Z</time></trkpt><trkpt lat="40.5276117" lon="15.559425"><ele>977.0000000000001</ele><time>2026-04-26T11:58:40.86Z</time></trkpt><trkpt lat="40.5276733" lon="15.5593983"><ele>977.0</ele><time>2026-04-26T11:58:41.86Z</time></trkpt><trkpt lat="40.5277433" lon="15.559365"><ele>977.0</ele><time>2026-04-26T11:58:42.861Z</time></trkpt><trkpt lat="40.5278167" lon="15.5593333"><ele>977.0</ele><time>2026-04-26T11:58:43.86Z</time></trkpt><trkpt lat="40.5278983" lon="15.5593117"><ele>977.0000000000001</ele><time>2026-04-26T11:58:44.861Z</time></trkpt><trkpt lat="40.5279833" lon="15.5592967"><ele>977.0</ele><time>2026-04-26T11:58:45.86Z</time></trkpt><trkpt lat="40.52807" lon="15.559295"><ele>973.6</ele><time>2026-04-26T11:58:46.86Z</time></trkpt><trkpt lat="40.5281617" lon="15.5593017"><ele>970.2</ele><time>2026-04-26T11:58:47.86Z</time></trkpt><trkpt lat="40.5282533" lon="15.55932"><ele>966.8</ele><time>2026-04-26T11:58:48.86Z</time></trkpt><trkpt lat="40.5283467" lon="15.5593467"><ele>963.4</ele><time>2026-04-26T11:58:49.86Z</time></trkpt><trkpt lat="40.5284433" lon="15.559375"><ele>960.0</ele><time>2026-04-26T11:58:50.861Z</time></trkpt><trkpt lat="40.5285433" lon="15.559405"><ele>960.0</ele><time>2026-04-26T11:58:51.861Z</time></trkpt><trkpt lat="40.5286383" lon="15.5594433"><ele>960.0</ele><time>2026-04-26T11:58:52.861Z</time></trkpt><trkpt lat="40.5287383" lon="15.5594933"><ele>960.0</ele><time>2026-04-26T11:58:53.86Z</time></trkpt><trkpt lat="40.5288383" lon="15.55955"><ele>960.0</ele><time>2026-04-26T11:58:54.861Z</time></trkpt><trkpt lat="40.5289333" lon="15.5596267"><ele>960.0</ele><time>2026-04-26T11:58:55.861Z</time></trkpt><trkpt lat="40.5290183" lon="15.5597183"><ele>958.75</ele><time>2026-04-26T11:58:56.86Z</time></trkpt><trkpt lat="40.5291" lon="15.5598233"><ele>957.5</ele><time>2026-04-26T11:58:57.861Z</time></trkpt><trkpt lat="40.52918" lon="15.5599383"><ele>956.25</ele><time>2026-04-26T11:58:58.861Z</time></trkpt><trkpt lat="40.5292583" lon="15.5600517"><ele>955.0</ele><time>2026-04-26T11:58:59.86Z</time></trkpt><trkpt lat="40.52933" lon="15.5601683"><ele>955.0</ele><time>2026-04-26T11:59:00.861Z</time></trkpt><trkpt lat="40.52939" lon="15.5602817"><ele>955.0</ele><time>2026-04-26T11:59:01.86Z</time></trkpt><trkpt lat="40.5294633" lon="15.5603833"><ele>955.0</ele><time>2026-04-26T11:59:02.86Z</time></trkpt><trkpt lat="40.529545" lon="15.5604733"><ele>955.0</ele><time>2026-04-26T11:59:03.861Z</time></trkpt><trkpt lat="40.529635" lon="15.5605483"><ele>955.0</ele><time>2026-04-26T11:59:04.861Z</time></trkpt><trkpt lat="40.5297383" lon="15.560615"><ele>950.8333333333333</ele><time>2026-04-26T11:59:05.86Z</time></trkpt><trkpt lat="40.5298417" lon="15.5606717"><ele>946.6666666666666</ele><time>2026-04-26T11:59:06.861Z</time></trkpt><trkpt lat="40.5299383" lon="15.5607267"><ele>942.5</ele><time>2026-04-26T11:59:07.861Z</time></trkpt><trkpt lat="40.530015" lon="15.560775"><ele>938.3333333333333</ele><time>2026-04-26T11:59:08.861Z</time></trkpt><trkpt lat="40.5300767" lon="15.5608283"><ele>934.1666666666666</ele><time>2026-04-26T11:59:09.861Z</time></trkpt><trkpt lat="40.5301167" lon="15.5608933"><ele>930.0</ele><time>2026-04-26T11:59:10.861Z</time></trkpt><trkpt lat="40.53014" lon="15.5609817"><ele>930.0</ele><time>2026-04-26T11:59:11.86Z</time></trkpt><trkpt lat="40.5301583" lon="15.5610933"><ele>930.0</ele><time>2026-04-26T11:59:12.86Z</time></trkpt><trkpt lat="40.5301667" lon="15.5612283"><ele>930.0</ele><time>2026-04-26T11:59:13.861Z</time></trkpt><trkpt lat="40.53017" lon="15.5613817"><ele>930.0</ele><time>2026-04-26T11:59:14.861Z</time></trkpt><trkpt lat="40.53018" lon="15.56153"><ele>930.0</ele><time>2026-04-26T11:59:15.861Z</time></trkpt><trkpt lat="40.5301883" lon="15.5616933"><ele>931.75</ele><time>2026-04-26T11:59:16.861Z</time></trkpt><trkpt lat="40.5302067" lon="15.56186"><ele>933.5</ele><time>2026-04-26T11:59:17.86Z</time></trkpt><trkpt lat="40.5302283" lon="15.562035"><ele>935.25</ele><time>2026-04-26T11:59:18.86Z</time></trkpt><trkpt lat="40.5302583" lon="15.562205"><ele>937.0</ele><time>2026-04-26T11:59:19.861Z</time></trkpt><trkpt lat="40.5302867" lon="15.56238"><ele>938.25</ele><time>2026-04-26T11:59:20.861Z</time></trkpt><trkpt lat="40.53031" lon="15.562555"><ele>939.5</ele><time>2026-04-26T11:59:21.861Z</time></trkpt><trkpt lat="40.53034" lon="15.562725"><ele>940.75</ele><time>2026-04-26T11:59:22.861Z</time></trkpt><trkpt lat="40.53037" lon="15.56289"><ele>942.0</ele><time>2026-04-26T11:59:23.861Z</time></trkpt><trkpt lat="40.5304" lon="15.5630517"><ele>933.25</ele><time>2026-04-26T11:59:24.861Z</time></trkpt><trkpt lat="40.5304167" lon="15.5632167"><ele>924.5</ele><time>2026-04-26T11:59:25.86Z</time></trkpt><trkpt lat="40.5304267" lon="15.56338"><ele>915.75</ele><time>2026-04-26T11:59:26.86Z</time></trkpt><trkpt lat="40.530435" lon="15.5635483"><ele>907.0</ele><time>2026-04-26T11:59:27.861Z</time></trkpt><trkpt lat="40.5304533" lon="15.5637133"><ele>907.0</ele><time>2026-04-26T11:59:28.861Z</time></trkpt><trkpt lat="40.530475" lon="15.5638767"><ele>907.0</ele><time>2026-04-26T11:59:29.86Z</time></trkpt><trkpt lat="40.5304917" lon="15.5640367"><ele>907.0</ele><time>2026-04-26T11:59:30.86Z</time></trkpt><trkpt lat="40.53051" lon="15.5641883"><ele>907.0</ele><time>2026-04-26T11:59:31.861Z</time></trkpt><trkpt lat="40.530525" lon="15.5643383"><ele>907.0</ele><time>2026-04-26T11:59:32.861Z</time></trkpt><trkpt lat="40.530535" lon="15.5644817"><ele>907.0</ele><time>2026-04-26T11:59:33.861Z</time></trkpt><trkpt lat="40.5305217" lon="15.5646267"><ele>907.0</ele><time>2026-04-26T11:59:34.86Z</time></trkpt><trkpt lat="40.5305067" lon="15.5647767"><ele>907.0</ele><time>2026-04-26T11:59:35.861Z</time></trkpt><trkpt lat="40.5304967" lon="15.56493"><ele>906.8333333333333</ele><time>2026-04-26T11:59:36.86Z</time></trkpt><trkpt lat="40.5304867" lon="15.565065"><ele>906.6666666666666</ele><time>2026-04-26T11:59:37.861Z</time></trkpt><trkpt lat="40.530485" lon="15.5651683"><ele>906.5</ele><time>2026-04-26T11:59:38.861Z</time></trkpt><trkpt lat="40.5304967" lon="15.5652517"><ele>906.3333333333333</ele><time>2026-04-26T11:59:39.861Z</time></trkpt><trkpt lat="40.53054" lon="15.565355"><ele>906.1666666666666</ele><time>2026-04-26T11:59:41.861Z</time></trkpt><trkpt lat="40.53062" lon="15.5653633"><ele>906.0</ele><time>2026-04-26T11:59:43.86Z</time></trkpt><trkpt lat="40.5307033" lon="15.56527"><ele>906.0</ele><time>2026-04-26T12:00:12.861Z</time></trkpt><trkpt lat="40.530745" lon="15.5651567"><ele>906.0</ele><time>2026-04-26T12:00:14.861Z</time></trkpt><trkpt lat="40.5307717" lon="15.5650667"><ele>906.0</ele><time>2026-04-26T12:00:15.86Z</time></trkpt><trkpt lat="40.5308083" lon="15.5649633"><ele>906.0</ele><time>2026-04-26T12:00:16.86Z</time></trkpt><trkpt lat="40.530845" lon="15.5648533"><ele>906.0</ele><time>2026-04-26T12:00:17.86Z</time></trkpt><trkpt lat="40.53089" lon="15.5647383"><ele>906.0</ele><time>2026-04-26T12:00:18.861Z</time></trkpt><trkpt lat="40.5309233" lon="15.5646033"><ele>906.25</ele><time>2026-04-26T12:00:19.861Z</time></trkpt><trkpt lat="40.5309483" lon="15.564445"><ele>906.5</ele><time>2026-04-26T12:00:20.86Z</time></trkpt><trkpt lat="40.53096" lon="15.5642633"><ele>906.75</ele><time>2026-04-26T12:00:21.861Z</time></trkpt><trkpt lat="40.5309683" lon="15.56407"><ele>907.0</ele><time>2026-04-26T12:00:22.86Z</time></trkpt><trkpt lat="40.5309833" lon="15.5638667"><ele>907.0</ele><time>2026-04-26T12:00:23.86Z</time></trkpt><trkpt lat="40.5310017" lon="15.563665"><ele>907.0</ele><time>2026-04-26T12:00:24.861Z</time></trkpt><trkpt lat="40.5310233" lon="15.563465"><ele>907.0</ele><time>2026-04-26T12:00:25.861Z</time></trkpt><trkpt lat="40.53105" lon="15.563275"><ele>907.0</ele><time>2026-04-26T12:00:26.86Z</time></trkpt><trkpt lat="40.5310733" lon="15.5630883"><ele>907.0</ele><time>2026-04-26T12:00:27.86Z</time></trkpt><trkpt lat="40.5310983" lon="15.5629083"><ele>907.0</ele><time>2026-04-26T12:00:28.86Z</time></trkpt><trkpt lat="40.53112" lon="15.562735"><ele>907.0</ele><time>2026-04-26T12:00:29.86Z</time></trkpt><trkpt lat="40.5311383" lon="15.5625667"><ele>907.0</ele><time>2026-04-26T12:00:30.861Z</time></trkpt><trkpt lat="40.5311483" lon="15.5624"><ele>907.0</ele><time>2026-04-26T12:00:31.86Z</time></trkpt><trkpt lat="40.531165" lon="15.5622483"><ele>907.0</ele><time>2026-04-26T12:00:32.861Z</time></trkpt><trkpt lat="40.5311917" lon="15.5621133"><ele>907.0</ele><time>2026-04-26T12:00:33.86Z</time></trkpt><trkpt lat="40.5312333" lon="15.562"><ele>907.0</ele><time>2026-04-26T12:00:34.86Z</time></trkpt><trkpt lat="40.5312917" lon="15.561895"><ele>904.6</ele><time>2026-04-26T12:00:35.86Z</time></trkpt><trkpt lat="40.5313683" lon="15.5617983"><ele>902.2</ele><time>2026-04-26T12:00:36.86Z</time></trkpt><trkpt lat="40.53146" lon="15.5617017"><ele>899.8</ele><time>2026-04-26T12:00:37.861Z</time></trkpt><trkpt lat="40.5315467" lon="15.56162"><ele>897.4</ele><time>2026-04-26T12:00:38.86Z</time></trkpt><trkpt lat="40.5316283" lon="15.5615433"><ele>895.0</ele><time>2026-04-26T12:00:39.861Z</time></trkpt><trkpt lat="40.5316917" lon="15.56146"><ele>894.9999999999999</ele><time>2026-04-26T12:00:40.86Z</time></trkpt><trkpt lat="40.5317283" lon="15.561355"><ele>895.0</ele><time>2026-04-26T12:00:41.86Z</time></trkpt><trkpt lat="40.5317283" lon="15.561245"><ele>895.0</ele><time>2026-04-26T12:00:42.861Z</time></trkpt><trkpt lat="40.5317017" lon="15.56115"><ele>895.0</ele><time>2026-04-26T12:00:43.861Z</time></trkpt><trkpt lat="40.5316467" lon="15.56107"><ele>894.9999999999999</ele><time>2026-04-26T12:00:44.86Z</time></trkpt><trkpt lat="40.531575" lon="15.5610117"><ele>895.0</ele><time>2026-04-26T12:00:45.861Z</time></trkpt><trkpt lat="40.5314867" lon="15.5609683"><ele>894.2</ele><time>2026-04-26T12:00:46.86Z</time></trkpt><trkpt lat="40.5313883" lon="15.5609233"><ele>893.4</ele><time>2026-04-26T12:00:47.861Z</time></trkpt><trkpt lat="40.531305" lon="15.5608583"><ele>892.5999999999999</ele><time>2026-04-26T12:00:48.86Z</time></trkpt><trkpt lat="40.5312483" lon="15.5607617"><ele>891.8</ele><time>2026-04-26T12:00:49.86Z</time></trkpt><trkpt lat="40.5312117" lon="15.560645"><ele>891.0</ele><time>2026-04-26T12:00:50.861Z</time></trkpt><trkpt lat="40.53118" lon="15.560505"><ele>892.5</ele><time>2026-04-26T12:00:51.86Z</time></trkpt><trkpt lat="40.53116" lon="15.56035"><ele>894.0</ele><time>2026-04-26T12:00:52.86Z</time></trkpt><trkpt lat="40.5311267" lon="15.5601933"><ele>895.5</ele><time>2026-04-26T12:00:53.86Z</time></trkpt><trkpt lat="40.5311033" lon="15.560035"><ele>897.0</ele><time>2026-04-26T12:00:54.86Z</time></trkpt><trkpt lat="40.531065" lon="15.5598783"><ele>897.0</ele><time>2026-04-26T12:00:55.861Z</time></trkpt><trkpt lat="40.5310217" lon="15.5597267"><ele>897.0</ele><time>2026-04-26T12:00:56.86Z</time></trkpt><trkpt lat="40.5309717" lon="15.5595783"><ele>897.0</ele><time>2026-04-26T12:00:57.861Z</time></trkpt><trkpt lat="40.5309267" lon="15.5594317"><ele>897.0</ele><time>2026-04-26T12:00:58.861Z</time></trkpt><trkpt lat="40.5308817" lon="15.5592917"><ele>893.8</ele><time>2026-04-26T12:00:59.86Z</time></trkpt><trkpt lat="40.530835" lon="15.5591517"><ele>890.6</ele><time>2026-04-26T12:01:00.861Z</time></trkpt><trkpt lat="40.5307883" lon="15.559025"><ele>887.3999999999999</ele><time>2026-04-26T12:01:01.86Z</time></trkpt><trkpt lat="40.5307517" lon="15.55891"><ele>884.1999999999999</ele><time>2026-04-26T12:01:02.86Z</time></trkpt><trkpt lat="40.53072" lon="15.558785"><ele>881.0</ele><time>2026-04-26T12:01:03.86Z</time></trkpt><trkpt lat="40.5307083" lon="15.5586617"><ele>879.1666666666667</ele><time>2026-04-26T12:01:04.861Z</time></trkpt><trkpt lat="40.5307067" lon="15.5585483"><ele>877.3333333333334</ele><time>2026-04-26T12:01:05.861Z</time></trkpt><trkpt lat="40.530705" lon="15.5584383"><ele>875.5</ele><time>2026-04-26T12:01:06.861Z</time></trkpt><trkpt lat="40.53071" lon="15.5583267"><ele>873.6666666666667</ele><time>2026-04-26T12:01:07.859Z</time></trkpt><trkpt lat="40.5307267" lon="15.558215"><ele>871.8333333333334</ele><time>2026-04-26T12:01:08.86Z</time></trkpt><trkpt lat="40.5307583" lon="15.5581083"><ele>870.0</ele><time>2026-04-26T12:01:09.86Z</time></trkpt><trkpt lat="40.5307933" lon="15.5580083"><ele>870.0</ele><time>2026-04-26T12:01:10.859Z</time></trkpt><trkpt lat="40.5308433" lon="15.5579317"><ele>870.0</ele><time>2026-04-26T12:01:11.86Z</time></trkpt><trkpt lat="40.5309067" lon="15.55786"><ele>870.0</ele><time>2026-04-26T12:01:12.86Z</time></trkpt><trkpt lat="40.5309917" lon="15.5578133"><ele>870.0</ele><time>2026-04-26T12:01:13.86Z</time></trkpt><trkpt lat="40.5311117" lon="15.5577817"><ele>870.0</ele><time>2026-04-26T12:01:14.86Z</time></trkpt><trkpt lat="40.5312383" lon="15.55777"><ele>870.6</ele><time>2026-04-26T12:01:15.86Z</time></trkpt><trkpt lat="40.5313617" lon="15.557765"><ele>871.2</ele><time>2026-04-26T12:01:16.859Z</time></trkpt><trkpt lat="40.531475" lon="15.5577717"><ele>871.8</ele><time>2026-04-26T12:01:17.859Z</time></trkpt><trkpt lat="40.5315817" lon="15.55778"><ele>872.4</ele><time>2026-04-26T12:01:18.859Z</time></trkpt><trkpt lat="40.5316817" lon="15.5577783"><ele>873.0</ele><time>2026-04-26T12:01:19.859Z</time></trkpt><trkpt lat="40.5317683" lon="15.557745"><ele>873.0</ele><time>2026-04-26T12:01:20.86Z</time></trkpt><trkpt lat="40.53185" lon="15.5577017"><ele>873.0</ele><time>2026-04-26T12:01:21.86Z</time></trkpt><trkpt lat="40.53193" lon="15.5576483"><ele>873.0</ele><time>2026-04-26T12:01:22.86Z</time></trkpt><trkpt lat="40.53201" lon="15.5576333"><ele>873.0</ele><time>2026-04-26T12:01:23.859Z</time></trkpt><trkpt lat="40.5321033" lon="15.55765"><ele>873.0</ele><time>2026-04-26T12:01:24.86Z</time></trkpt><trkpt lat="40.5322033" lon="15.5576983"><ele>868.0</ele><time>2026-04-26T12:01:25.86Z</time></trkpt><trkpt lat="40.5322983" lon="15.5577633"><ele>863.0</ele><time>2026-04-26T12:01:26.859Z</time></trkpt><trkpt lat="40.5323917" lon="15.5578367"><ele>858.0</ele><time>2026-04-26T12:01:27.859Z</time></trkpt><trkpt lat="40.5324783" lon="15.557915"><ele>853.0</ele><time>2026-04-26T12:01:28.86Z</time></trkpt><trkpt lat="40.5325433" lon="15.5580033"><ele>848.0</ele><time>2026-04-26T12:01:29.86Z</time></trkpt><trkpt lat="40.5325883" lon="15.5580967"><ele>847.3333333333334</ele><time>2026-04-26T12:01:30.859Z</time></trkpt><trkpt lat="40.5325967" lon="15.5582017"><ele>846.6666666666667</ele><time>2026-04-26T12:01:31.86Z</time></trkpt><trkpt lat="40.5325783" lon="15.558305"><ele>846.0</ele><time>2026-04-26T12:01:32.86Z</time></trkpt><trkpt lat="40.5325233" lon="15.5584"><ele>845.3333333333333</ele><time>2026-04-26T12:01:33.86Z</time></trkpt><trkpt lat="40.532445" lon="15.5584767"><ele>844.6666666666666</ele><time>2026-04-26T12:01:34.86Z</time></trkpt><trkpt lat="40.5323667" lon="15.55854"><ele>844.0</ele><time>2026-04-26T12:01:35.86Z</time></trkpt><trkpt lat="40.5322817" lon="15.5586233"><ele>842.1666666666666</ele><time>2026-04-26T12:01:36.859Z</time></trkpt><trkpt lat="40.532205" lon="15.5587117"><ele>840.3333333333333</ele><time>2026-04-26T12:01:37.859Z</time></trkpt><trkpt lat="40.5321467" lon="15.5588033"><ele>838.5</ele><time>2026-04-26T12:01:38.86Z</time></trkpt><trkpt lat="40.5321117" lon="15.5589017"><ele>836.6666666666667</ele><time>2026-04-26T12:01:39.859Z</time></trkpt><trkpt lat="40.532105" lon="15.5590083"><ele>834.8333333333334</ele><time>2026-04-26T12:01:40.859Z</time></trkpt><trkpt lat="40.5321133" lon="15.559115"><ele>833.0</ele><time>2026-04-26T12:01:41.859Z</time></trkpt><trkpt lat="40.53215" lon="15.5592283"><ele>833.0</ele><time>2026-04-26T12:01:42.859Z</time></trkpt><trkpt lat="40.5322083" lon="15.55934"><ele>833.0</ele><time>2026-04-26T12:01:43.86Z</time></trkpt><trkpt lat="40.5322817" lon="15.5594517"><ele>833.0</ele><time>2026-04-26T12:01:44.86Z</time></trkpt><trkpt lat="40.53236" lon="15.55956"><ele>833.0</ele><time>2026-04-26T12:01:45.859Z</time></trkpt><trkpt lat="40.532445" lon="15.5596567"><ele>833.0</ele><time>2026-04-26T12:01:46.86Z</time></trkpt><trkpt lat="40.5325367" lon="15.55974"><ele>836.25</ele><time>2026-04-26T12:01:47.859Z</time></trkpt><trkpt lat="40.5326483" lon="15.5598183"><ele>839.5</ele><time>2026-04-26T12:01:48.859Z</time></trkpt><trkpt lat="40.5327583" lon="15.5598883"><ele>842.75</ele><time>2026-04-26T12:01:49.86Z</time></trkpt><trkpt lat="40.5328583" lon="15.559965"><ele>846.0</ele><time>2026-04-26T12:01:50.859Z</time></trkpt><trkpt lat="40.5329633" lon="15.56005"><ele>845.25</ele><time>2026-04-26T12:01:51.859Z</time></trkpt><trkpt lat="40.533075" lon="15.5601383"><ele>844.5</ele><time>2026-04-26T12:01:52.86Z</time></trkpt><trkpt lat="40.53318" lon="15.560235"><ele>843.75</ele><time>2026-04-26T12:01:53.86Z</time></trkpt><trkpt lat="40.5332717" lon="15.56033"><ele>843.0</ele><time>2026-04-26T12:01:54.859Z</time></trkpt><trkpt lat="40.53336" lon="15.5604317"><ele>843.0</ele><time>2026-04-26T12:01:55.86Z</time></trkpt><trkpt lat="40.5334667" lon="15.5605217"><ele>843.0</ele><time>2026-04-26T12:01:56.86Z</time></trkpt><trkpt lat="40.533565" lon="15.5606067"><ele>843.0</ele><time>2026-04-26T12:01:57.859Z</time></trkpt><trkpt lat="40.53365" lon="15.5606983"><ele>843.0</ele><time>2026-04-26T12:01:58.859Z</time></trkpt><trkpt lat="40.533725" lon="15.560795"><ele>835.5999999999999</ele><time>2026-04-26T12:01:59.86Z</time></trkpt><trkpt lat="40.5337917" lon="15.5608983"><ele>828.1999999999999</ele><time>2026-04-26T12:02:00.86Z</time></trkpt><trkpt lat="40.5338683" lon="15.560995"><ele>820.8</ele><time>2026-04-26T12:02:01.86Z</time></trkpt><trkpt lat="40.533965" lon="15.561075"><ele>813.4</ele><time>2026-04-26T12:02:02.859Z</time></trkpt><trkpt lat="40.53408" lon="15.5611267"><ele>806.0</ele><time>2026-04-26T12:02:03.86Z</time></trkpt><trkpt lat="40.534185" lon="15.5611583"><ele>803.1999999999999</ele><time>2026-04-26T12:02:04.86Z</time></trkpt><trkpt lat="40.53429" lon="15.5612067"><ele>800.4</ele><time>2026-04-26T12:02:05.86Z</time></trkpt><trkpt lat="40.5343817" lon="15.5612717"><ele>797.6</ele><time>2026-04-26T12:02:06.86Z</time></trkpt><trkpt lat="40.5344567" lon="15.5613483"><ele>794.8</ele><time>2026-04-26T12:02:07.86Z</time></trkpt><trkpt lat="40.5345133" lon="15.561445"><ele>792.0</ele><time>2026-04-26T12:02:08.86Z</time></trkpt><trkpt lat="40.534565" lon="15.56156"><ele>792.0</ele><time>2026-04-26T12:02:09.86Z</time></trkpt><trkpt lat="40.5346183" lon="15.56168"><ele>792.0</ele><time>2026-04-26T12:02:10.86Z</time></trkpt><trkpt lat="40.5346833" lon="15.5618"><ele>792.0</ele><time>2026-04-26T12:02:11.86Z</time></trkpt><trkpt lat="40.53474" lon="15.56192"><ele>792.0</ele><time>2026-04-26T12:02:12.859Z</time></trkpt><trkpt lat="40.5347967" lon="15.5620533"><ele>792.0</ele><time>2026-04-26T12:02:13.86Z</time></trkpt><trkpt lat="40.53487" lon="15.56218"><ele>793.25</ele><time>2026-04-26T12:02:14.859Z</time></trkpt><trkpt lat="40.534945" lon="15.5623067"><ele>794.5</ele><time>2026-04-26T12:02:15.86Z</time></trkpt><trkpt lat="40.5350183" lon="15.56243"><ele>795.75</ele><time>2026-04-26T12:02:16.86Z</time></trkpt><trkpt lat="40.5350883" lon="15.5625483"><ele>797.0</ele><time>2026-04-26T12:02:17.859Z</time></trkpt><trkpt lat="40.53514" lon="15.5626533"><ele>797.0</ele><time>2026-04-26T12:02:18.859Z</time></trkpt><trkpt lat="40.5351733" lon="15.56277"><ele>797.0</ele><time>2026-04-26T12:02:19.86Z</time></trkpt><trkpt lat="40.5351883" lon="15.5628817"><ele>797.0</ele><time>2026-04-26T12:02:20.859Z</time></trkpt><trkpt lat="40.5351867" lon="15.5630067"><ele>797.0</ele><time>2026-04-26T12:02:21.859Z</time></trkpt><trkpt lat="40.5351817" lon="15.5631333"><ele>797.0</ele><time>2026-04-26T12:02:22.86Z</time></trkpt><trkpt lat="40.5351783" lon="15.5632817"><ele>795.0</ele><time>2026-04-26T12:02:23.859Z</time></trkpt><trkpt lat="40.5351667" lon="15.563445"><ele>793.0</ele><time>2026-04-26T12:02:24.859Z</time></trkpt><trkpt lat="40.535155" lon="15.56361"><ele>791.0</ele><time>2026-04-26T12:02:25.86Z</time></trkpt><trkpt lat="40.535145" lon="15.5637783"><ele>789.0</ele><time>2026-04-26T12:02:26.86Z</time></trkpt><trkpt lat="40.5351283" lon="15.5639417"><ele>788.0</ele><time>2026-04-26T12:02:27.86Z</time></trkpt><trkpt lat="40.535115" lon="15.5640883"><ele>787.0</ele><time>2026-04-26T12:02:28.86Z</time></trkpt><trkpt lat="40.5351017" lon="15.5642283"><ele>786.0</ele><time>2026-04-26T12:02:29.86Z</time></trkpt><trkpt lat="40.535085" lon="15.56436"><ele>785.0</ele><time>2026-04-26T12:02:30.86Z</time></trkpt><trkpt lat="40.5350533" lon="15.5644783"><ele>784.0</ele><time>2026-04-26T12:02:31.86Z</time></trkpt><trkpt lat="40.5350117" lon="15.564595"><ele>781.4999999999999</ele><time>2026-04-26T12:02:32.859Z</time></trkpt><trkpt lat="40.5349567" lon="15.5646883"><ele>779.0</ele><time>2026-04-26T12:02:33.859Z</time></trkpt><trkpt lat="40.5348933" lon="15.5647867"><ele>776.5</ele><time>2026-04-26T12:02:34.86Z</time></trkpt><trkpt lat="40.534835" lon="15.56488"><ele>774.0</ele><time>2026-04-26T12:02:35.86Z</time></trkpt><trkpt lat="40.5347767" lon="15.5649633"><ele>771.4999999999999</ele><time>2026-04-26T12:02:36.859Z</time></trkpt><trkpt lat="40.5347417" lon="15.5650417"><ele>769.0</ele><time>2026-04-26T12:02:37.86Z</time></trkpt><trkpt lat="40.5347267" lon="15.5651333"><ele>769.0</ele><time>2026-04-26T12:02:38.86Z</time></trkpt><trkpt lat="40.5347417" lon="15.565225"><ele>769.0</ele><time>2026-04-26T12:02:39.86Z</time></trkpt><trkpt lat="40.5347817" lon="15.5653117"><ele>769.0</ele><time>2026-04-26T12:02:40.86Z</time></trkpt><trkpt lat="40.5348383" lon="15.5653717"><ele>769.0</ele><time>2026-04-26T12:02:41.859Z</time></trkpt><trkpt lat="40.53491" lon="15.5653817"><ele>769.0</ele><time>2026-04-26T12:02:42.859Z</time></trkpt><trkpt lat="40.5349783" lon="15.5653483"><ele>769.0</ele><time>2026-04-26T12:02:43.86Z</time></trkpt><trkpt lat="40.5350483" lon="15.5653017"><ele>769.0</ele><time>2026-04-26T12:02:44.86Z</time></trkpt><trkpt lat="40.5351183" lon="15.5652517"><ele>769.0</ele><time>2026-04-26T12:02:45.86Z</time></trkpt><trkpt lat="40.53519" lon="15.5652"><ele>769.0</ele><time>2026-04-26T12:02:46.859Z</time></trkpt><trkpt lat="40.535265" lon="15.5651467"><ele>769.0</ele><time>2026-04-26T12:02:47.86Z</time></trkpt><trkpt lat="40.535345" lon="15.565085"><ele>769.0</ele><time>2026-04-26T12:02:48.86Z</time></trkpt><trkpt lat="40.5354233" lon="15.565015"><ele>769.0</ele><time>2026-04-26T12:02:49.859Z</time></trkpt><trkpt lat="40.5355017" lon="15.56494"><ele>768.4000000000001</ele><time>2026-04-26T12:02:50.859Z</time></trkpt><trkpt lat="40.5355867" lon="15.56487"><ele>767.8</ele><time>2026-04-26T12:02:51.859Z</time></trkpt><trkpt lat="40.53567" lon="15.5647767"><ele>767.2</ele><time>2026-04-26T12:02:52.86Z</time></trkpt><trkpt lat="40.535755" lon="15.5646817"><ele>766.5999999999999</ele><time>2026-04-26T12:02:53.859Z</time></trkpt><trkpt lat="40.5358417" lon="15.564595"><ele>766.0</ele><time>2026-04-26T12:02:54.859Z</time></trkpt><trkpt lat="40.535935" lon="15.5645033"><ele>766.0</ele><time>2026-04-26T12:02:55.859Z</time></trkpt><trkpt lat="40.5360233" lon="15.5644067"><ele>766.0</ele><time>2026-04-26T12:02:56.86Z</time></trkpt><trkpt lat="40.536115" lon="15.564315"><ele>766.0</ele><time>2026-04-26T12:02:57.859Z</time></trkpt><trkpt lat="40.5361917" lon="15.5642217"><ele>766.0</ele><time>2026-04-26T12:02:58.86Z</time></trkpt><trkpt lat="40.5362533" lon="15.5641117"><ele>766.0</ele><time>2026-04-26T12:02:59.859Z</time></trkpt><trkpt lat="40.5363117" lon="15.5639983"><ele>761.0</ele><time>2026-04-26T12:03:00.859Z</time></trkpt><trkpt lat="40.536355" lon="15.5638767"><ele>756.0</ele><time>2026-04-26T12:03:01.859Z</time></trkpt><trkpt lat="40.536395" lon="15.5637583"><ele>751.0</ele><time>2026-04-26T12:03:02.859Z</time></trkpt><trkpt lat="40.5364167" lon="15.5636467"><ele>746.0</ele><time>2026-04-26T12:03:03.859Z</time></trkpt><trkpt lat="40.5364267" lon="15.56352"><ele>741.0</ele><time>2026-04-26T12:03:04.859Z</time></trkpt><trkpt lat="40.536415" lon="15.5633933"><ele>741.0</ele><time>2026-04-26T12:03:05.86Z</time></trkpt><trkpt lat="40.5363817" lon="15.5632467"><ele>741.0</ele><time>2026-04-26T12:03:06.859Z</time></trkpt><trkpt lat="40.53634" lon="15.5631017"><ele>741.0</ele><time>2026-04-26T12:03:07.86Z</time></trkpt><trkpt lat="40.5363067" lon="15.5629683"><ele>741.0</ele><time>2026-04-26T12:03:08.859Z</time></trkpt><trkpt lat="40.5362783" lon="15.5628367"><ele>741.0</ele><time>2026-04-26T12:03:09.859Z</time></trkpt><trkpt lat="40.5362467" lon="15.562715"><ele>739.8333333333334</ele><time>2026-04-26T12:03:10.86Z</time></trkpt><trkpt lat="40.536225" lon="15.5625917"><ele>738.6666666666666</ele><time>2026-04-26T12:03:11.859Z</time></trkpt><trkpt lat="40.5362083" lon="15.5624733"><ele>737.5</ele><time>2026-04-26T12:03:12.86Z</time></trkpt><trkpt lat="40.5361967" lon="15.5623633"><ele>736.3333333333333</ele><time>2026-04-26T12:03:13.86Z</time></trkpt><trkpt lat="40.5362017" lon="15.56226"><ele>735.1666666666666</ele><time>2026-04-26T12:03:14.859Z</time></trkpt><trkpt lat="40.5362317" lon="15.5621717"><ele>734.0</ele><time>2026-04-26T12:03:15.86Z</time></trkpt><trkpt lat="40.5362717" lon="15.5621067"><ele>734.0</ele><time>2026-04-26T12:03:16.86Z</time></trkpt><trkpt lat="40.5363867" lon="15.5621017"><ele>734.0</ele><time>2026-04-26T12:03:18.859Z</time></trkpt><trkpt lat="40.536445" lon="15.5621667"><ele>734.0</ele><time>2026-04-26T12:03:19.859Z</time></trkpt><trkpt lat="40.5364967" lon="15.5622483"><ele>734.0</ele><time>2026-04-26T12:03:20.86Z</time></trkpt><trkpt lat="40.5365467" lon="15.5623517"><ele>734.0</ele><time>2026-04-26T12:03:21.859Z</time></trkpt><trkpt lat="40.536605" lon="15.5624617"><ele>734.0</ele><time>2026-04-26T12:03:22.86Z</time></trkpt><trkpt lat="40.5366733" lon="15.56259"><ele>734.0</ele><time>2026-04-26T12:03:23.859Z</time></trkpt><trkpt lat="40.53675" lon="15.5627283"><ele>734.0</ele><time>2026-04-26T12:03:24.859Z</time></trkpt><trkpt lat="40.53682" lon="15.562885"><ele>734.0</ele><time>2026-04-26T12:03:25.86Z</time></trkpt><trkpt lat="40.53689" lon="15.56304"><ele>735.4000000000001</ele><time>2026-04-26T12:03:26.86Z</time></trkpt><trkpt lat="40.536955" lon="15.5631833"><ele>736.8</ele><time>2026-04-26T12:03:27.859Z</time></trkpt><trkpt lat="40.53701" lon="15.5633217"><ele>738.2</ele><time>2026-04-26T12:03:28.86Z</time></trkpt><trkpt lat="40.5370583" lon="15.5634317"><ele>739.5999999999999</ele><time>2026-04-26T12:03:29.86Z</time></trkpt><trkpt lat="40.5371017" lon="15.5635133"><ele>741.0</ele><time>2026-04-26T12:03:30.859Z</time></trkpt><trkpt lat="40.5372" lon="15.5635517"><ele>736.1999999999999</ele><time>2026-04-26T12:03:32.86Z</time></trkpt><trkpt lat="40.5372733" lon="15.5634"><ele>731.4</ele><time>2026-04-26T12:03:34.86Z</time></trkpt><trkpt lat="40.537295" lon="15.563295"><ele>726.6</ele><time>2026-04-26T12:03:35.86Z</time></trkpt><trkpt lat="40.537325" lon="15.56318"><ele>721.8</ele><time>2026-04-26T12:03:36.86Z</time></trkpt><trkpt lat="40.537345" lon="15.563065"><ele>717.0</ele><time>2026-04-26T12:03:37.859Z</time></trkpt><trkpt lat="40.53735" lon="15.562935"><ele>716.0</ele><time>2026-04-26T12:03:38.859Z</time></trkpt><trkpt lat="40.53733" lon="15.5628117"><ele>715.0</ele><time>2026-04-26T12:03:39.86Z</time></trkpt><trkpt lat="40.5373067" lon="15.5626883"><ele>714.0</ele><time>2026-04-26T12:03:40.859Z</time></trkpt><trkpt lat="40.5372767" lon="15.562565"><ele>713.0</ele><time>2026-04-26T12:03:41.859Z</time></trkpt><trkpt lat="40.537265" lon="15.562455"><ele>712.0</ele><time>2026-04-26T12:03:42.86Z</time></trkpt><trkpt lat="40.5372767" lon="15.562355"><ele>712.0</ele><time>2026-04-26T12:03:43.86Z</time></trkpt><trkpt lat="40.5373433" lon="15.56223"><ele>712.0</ele><time>2026-04-26T12:03:45.86Z</time></trkpt><trkpt lat="40.5374567" lon="15.5622483"><ele>712.0</ele><time>2026-04-26T12:03:47.859Z</time></trkpt><trkpt lat="40.537525" lon="15.5623433"><ele>712.0</ele><time>2026-04-26T12:03:48.859Z</time></trkpt><trkpt lat="40.5375867" lon="15.5624633"><ele>712.0</ele><time>2026-04-26T12:03:49.859Z</time></trkpt><trkpt lat="40.5376383" lon="15.5625967"><ele>712.0</ele><time>2026-04-26T12:03:50.859Z</time></trkpt><trkpt lat="40.537685" lon="15.5627433"><ele>712.0</ele><time>2026-04-26T12:03:51.86Z</time></trkpt><trkpt lat="40.537725" lon="15.5628933"><ele>712.0</ele><time>2026-04-26T12:03:52.859Z</time></trkpt><trkpt lat="40.5377617" lon="15.5630383"><ele>712.0</ele><time>2026-04-26T12:03:53.86Z</time></trkpt><trkpt lat="40.5377933" lon="15.5631767"><ele>713.0</ele><time>2026-04-26T12:03:54.86Z</time></trkpt><trkpt lat="40.5378317" lon="15.5633167"><ele>714.0</ele><time>2026-04-26T12:03:55.86Z</time></trkpt><trkpt lat="40.5378717" lon="15.563455"><ele>715.0</ele><time>2026-04-26T12:03:56.86Z</time></trkpt><trkpt lat="40.5378933" lon="15.563595"><ele>716.0</ele><time>2026-04-26T12:03:57.86Z</time></trkpt><trkpt lat="40.5379067" lon="15.5637333"><ele>717.0</ele><time>2026-04-26T12:03:58.86Z</time></trkpt><trkpt lat="40.53791" lon="15.563875"><ele>715.4000000000001</ele><time>2026-04-26T12:03:59.859Z</time></trkpt><trkpt lat="40.5378967" lon="15.5640117"><ele>713.8000000000001</ele><time>2026-04-26T12:04:00.859Z</time></trkpt><trkpt lat="40.5378783" lon="15.564145"><ele>712.2</ele><time>2026-04-26T12:04:01.86Z</time></trkpt><trkpt lat="40.5378483" lon="15.5642733"><ele>710.6</ele><time>2026-04-26T12:04:02.859Z</time></trkpt><trkpt lat="40.5378167" lon="15.5644"><ele>709.0</ele><time>2026-04-26T12:04:03.859Z</time></trkpt><trkpt lat="40.5377783" lon="15.5645233"><ele>707.1666666666667</ele><time>2026-04-26T12:04:04.86Z</time></trkpt><trkpt lat="40.5377383" lon="15.5646417"><ele>705.3333333333334</ele><time>2026-04-26T12:04:05.86Z</time></trkpt><trkpt lat="40.5377" lon="15.5647517"><ele>703.5</ele><time>2026-04-26T12:04:06.86Z</time></trkpt><trkpt lat="40.5376733" lon="15.5648467"><ele>701.6666666666666</ele><time>2026-04-26T12:04:07.86Z</time></trkpt><trkpt lat="40.5376667" lon="15.5649367"><ele>699.8333333333333</ele><time>2026-04-26T12:04:08.86Z</time></trkpt><trkpt lat="40.5377433" lon="15.5650283"><ele>698.0</ele><time>2026-04-26T12:04:10.859Z</time></trkpt><trkpt lat="40.5378267" lon="15.5650017"><ele>694.0</ele><time>2026-04-26T12:04:11.859Z</time></trkpt><trkpt lat="40.537915" lon="15.5649517"><ele>690.0</ele><time>2026-04-26T12:04:12.859Z</time></trkpt><trkpt lat="40.5380167" lon="15.5648883"><ele>686.0</ele><time>2026-04-26T12:04:13.859Z</time></trkpt><trkpt lat="40.53812" lon="15.5648233"><ele>682.0</ele><time>2026-04-26T12:04:14.859Z</time></trkpt><trkpt lat="40.53822" lon="15.5647533"><ele>678.0</ele><time>2026-04-26T12:04:15.859Z</time></trkpt><trkpt lat="40.53831" lon="15.5646767"><ele>678.0</ele><time>2026-04-26T12:04:16.859Z</time></trkpt><trkpt lat="40.5383867" lon="15.5646017"><ele>678.0</ele><time>2026-04-26T12:04:17.859Z</time></trkpt><trkpt lat="40.5384417" lon="15.564525"><ele>678.0</ele><time>2026-04-26T12:04:18.86Z</time></trkpt><trkpt lat="40.5384767" lon="15.5644383"><ele>678.0</ele><time>2026-04-26T12:04:19.86Z</time></trkpt><trkpt lat="40.538495" lon="15.5643333"><ele>678.0</ele><time>2026-04-26T12:04:20.859Z</time></trkpt><trkpt lat="40.5385017" lon="15.5642067"><ele>678.0</ele><time>2026-04-26T12:04:21.86Z</time></trkpt><trkpt lat="40.53852" lon="15.5640667"><ele>679.75</ele><time>2026-04-26T12:04:22.86Z</time></trkpt><trkpt lat="40.5385383" lon="15.563915"><ele>681.5</ele><time>2026-04-26T12:04:23.86Z</time></trkpt><trkpt lat="40.5385617" lon="15.5637633"><ele>683.25</ele><time>2026-04-26T12:04:24.86Z</time></trkpt><trkpt lat="40.53857" lon="15.5636067"><ele>685.0</ele><time>2026-04-26T12:04:25.859Z</time></trkpt><trkpt lat="40.5385717" lon="15.5634567"><ele>685.0</ele><time>2026-04-26T12:04:26.86Z</time></trkpt><trkpt lat="40.5385683" lon="15.5633133"><ele>685.0</ele><time>2026-04-26T12:04:27.86Z</time></trkpt><trkpt lat="40.5385717" lon="15.5631883"><ele>685.0</ele><time>2026-04-26T12:04:28.86Z</time></trkpt><trkpt lat="40.53859" lon="15.5630817"><ele>685.0</ele><time>2026-04-26T12:04:29.86Z</time></trkpt><trkpt lat="40.538615" lon="15.563"><ele>685.0</ele><time>2026-04-26T12:04:30.859Z</time></trkpt><trkpt lat="40.5387233" lon="15.5629467"><ele>679.6666666666667</ele><time>2026-04-26T12:04:32.86Z</time></trkpt><trkpt lat="40.5387933" lon="15.563"><ele>674.3333333333334</ele><time>2026-04-26T12:04:33.859Z</time></trkpt><trkpt lat="40.5388533" lon="15.5630867"><ele>669.0</ele><time>2026-04-26T12:04:34.86Z</time></trkpt><trkpt lat="40.538895" lon="15.5631883"><ele>663.6666666666666</ele><time>2026-04-26T12:04:35.859Z</time></trkpt><trkpt lat="40.5389183" lon="15.5632917"><ele>658.3333333333333</ele><time>2026-04-26T12:04:36.859Z</time></trkpt><trkpt lat="40.5389283" lon="15.5634083"><ele>653.0</ele><time>2026-04-26T12:04:37.86Z</time></trkpt><trkpt lat="40.538925" lon="15.563535"><ele>653.0</ele><time>2026-04-26T12:04:38.859Z</time></trkpt><trkpt lat="40.5389183" lon="15.563665"><ele>653.0</ele><time>2026-04-26T12:04:39.86Z</time></trkpt><trkpt lat="40.538925" lon="15.5637867"><ele>653.0</ele><time>2026-04-26T12:04:40.86Z</time></trkpt><trkpt lat="40.5389217" lon="15.5639217"><ele>653.0</ele><time>2026-04-26T12:04:41.859Z</time></trkpt><trkpt lat="40.5389417" lon="15.5640417"><ele>653.0</ele><time>2026-04-26T12:04:42.859Z</time></trkpt><trkpt lat="40.5389617" lon="15.5641583"><ele>653.4</ele><time>2026-04-26T12:04:43.859Z</time></trkpt><trkpt lat="40.5389817" lon="15.5642833"><ele>653.8</ele><time>2026-04-26T12:04:44.859Z</time></trkpt><trkpt lat="40.5390067" lon="15.5644"><ele>654.2</ele><time>2026-04-26T12:04:45.86Z</time></trkpt><trkpt lat="40.5390417" lon="15.56451"><ele>654.6</ele><time>2026-04-26T12:04:46.86Z</time></trkpt><trkpt lat="40.5390867" lon="15.5646083"><ele>655.0</ele><time>2026-04-26T12:04:47.86Z</time></trkpt><trkpt lat="40.5391383" lon="15.564715"><ele>655.0</ele><time>2026-04-26T12:04:48.86Z</time></trkpt><trkpt lat="40.5391767" lon="15.5648217"><ele>655.0</ele><time>2026-04-26T12:04:49.86Z</time></trkpt><trkpt lat="40.5391983" lon="15.5649233"><ele>655.0</ele><time>2026-04-26T12:04:50.86Z</time></trkpt><trkpt lat="40.5392167" lon="15.5650467"><ele>655.0</ele><time>2026-04-26T12:04:51.859Z</time></trkpt><trkpt lat="40.5392317" lon="15.5651717"><ele>655.0</ele><time>2026-04-26T12:04:52.859Z</time></trkpt><trkpt lat="40.5392433" lon="15.565295"><ele>652.6</ele><time>2026-04-26T12:04:53.86Z</time></trkpt><trkpt lat="40.53924" lon="15.565425"><ele>650.2</ele><time>2026-04-26T12:04:54.859Z</time></trkpt><trkpt lat="40.5392267" lon="15.5655483"><ele>647.8</ele><time>2026-04-26T12:04:55.859Z</time></trkpt><trkpt lat="40.53921" lon="15.5656767"><ele>645.4</ele><time>2026-04-26T12:04:56.86Z</time></trkpt><trkpt lat="40.5391833" lon="15.5658"><ele>643.0</ele><time>2026-04-26T12:04:57.859Z</time></trkpt><trkpt lat="40.5391467" lon="15.5659117"><ele>643.0</ele><time>2026-04-26T12:04:58.859Z</time></trkpt><trkpt lat="40.5390967" lon="15.5660117"><ele>643.0</ele><time>2026-04-26T12:04:59.859Z</time></trkpt><trkpt lat="40.539035" lon="15.56609"><ele>643.0</ele><time>2026-04-26T12:05:00.86Z</time></trkpt><trkpt lat="40.5389817" lon="15.5661433"><ele>643.0</ele><time>2026-04-26T12:05:01.859Z</time></trkpt><trkpt lat="40.5389183" lon="15.5662317"><ele>643.0</ele><time>2026-04-26T12:05:03.86Z</time></trkpt><trkpt lat="40.5389733" lon="15.566285"><ele>643.0</ele><time>2026-04-26T12:05:05.86Z</time></trkpt><trkpt lat="40.53904" lon="15.56629"><ele>643.0</ele><time>2026-04-26T12:05:06.86Z</time></trkpt><trkpt lat="40.5391217" lon="15.5662817"><ele>643.0</ele><time>2026-04-26T12:05:07.859Z</time></trkpt><trkpt lat="40.5392067" lon="15.5662533"><ele>643.0</ele><time>2026-04-26T12:05:08.86Z</time></trkpt><trkpt lat="40.5392917" lon="15.5662"><ele>643.0</ele><time>2026-04-26T12:05:09.859Z</time></trkpt><trkpt lat="40.53936" lon="15.5661183"><ele>643.0</ele><time>2026-04-26T12:05:10.859Z</time></trkpt><trkpt lat="40.5394167" lon="15.5660033"><ele>643.0</ele><time>2026-04-26T12:05:11.859Z</time></trkpt><trkpt lat="40.539465" lon="15.56587"><ele>643.0</ele><time>2026-04-26T12:05:12.86Z</time></trkpt><trkpt lat="40.539515" lon="15.565715"><ele>643.0</ele><time>2026-04-26T12:05:13.86Z</time></trkpt><trkpt lat="40.539555" lon="15.565545"><ele>643.0</ele><time>2026-04-26T12:05:14.86Z</time></trkpt><trkpt lat="40.5395967" lon="15.5653683"><ele>629.0</ele><time>2026-04-26T12:05:15.859Z</time></trkpt><trkpt lat="40.5396467" lon="15.5651817"><ele>615.0</ele><time>2026-04-26T12:05:16.86Z</time></trkpt><trkpt lat="40.5396883" lon="15.5649883"><ele>601.0</ele><time>2026-04-26T12:05:17.86Z</time></trkpt><trkpt lat="40.5397317" lon="15.564795"><ele>601.0</ele><time>2026-04-26T12:05:18.859Z</time></trkpt><trkpt lat="40.539765" lon="15.564605"><ele>601.0</ele><time>2026-04-26T12:05:19.859Z</time></trkpt><trkpt lat="40.5397983" lon="15.5644117"><ele>601.0</ele><time>2026-04-26T12:05:20.859Z</time></trkpt><trkpt lat="40.5398283" lon="15.564225"><ele>601.0</ele><time>2026-04-26T12:05:21.86Z</time></trkpt><trkpt lat="40.53985" lon="15.5640383"><ele>602.75</ele><time>2026-04-26T12:05:22.86Z</time></trkpt><trkpt lat="40.5398783" lon="15.56385"><ele>604.5</ele><time>2026-04-26T12:05:23.86Z</time></trkpt><trkpt lat="40.539905" lon="15.5636583"><ele>606.25</ele><time>2026-04-26T12:05:24.86Z</time></trkpt><trkpt lat="40.5399367" lon="15.5634733"><ele>608.0</ele><time>2026-04-26T12:05:25.859Z</time></trkpt><trkpt lat="40.5399667" lon="15.5633083"><ele>608.8</ele><time>2026-04-26T12:05:26.86Z</time></trkpt><trkpt lat="40.5400017" lon="15.5631533"><ele>609.5999999999999</ele><time>2026-04-26T12:05:27.859Z</time></trkpt><trkpt lat="40.540035" lon="15.5630117"><ele>610.4000000000001</ele><time>2026-04-26T12:05:28.86Z</time></trkpt><trkpt lat="40.5400667" lon="15.5628783"><ele>611.2</ele><time>2026-04-26T12:05:29.86Z</time></trkpt><trkpt lat="40.5400867" lon="15.5627633"><ele>612.0</ele><time>2026-04-26T12:05:30.859Z</time></trkpt><trkpt lat="40.5400733" lon="15.5626567"><ele>610.4</ele><time>2026-04-26T12:05:31.86Z</time></trkpt><trkpt lat="40.5400267" lon="15.5625567"><ele>608.8000000000001</ele><time>2026-04-26T12:05:32.86Z</time></trkpt><trkpt lat="40.5399633" lon="15.56247"><ele>607.2</ele><time>2026-04-26T12:05:33.859Z</time></trkpt><trkpt lat="40.5398683" lon="15.5623917"><ele>605.6</ele><time>2026-04-26T12:05:34.86Z</time></trkpt><trkpt lat="40.5397567" lon="15.5623033"><ele>604.0</ele><time>2026-04-26T12:05:35.86Z</time></trkpt><trkpt lat="40.539665" lon="15.5621817"><ele>604.0</ele><time>2026-04-26T12:05:36.86Z</time></trkpt><trkpt lat="40.53958" lon="15.5620483"><ele>604.0</ele><time>2026-04-26T12:05:37.859Z</time></trkpt><trkpt lat="40.5394883" lon="15.56191"><ele>604.0</ele><time>2026-04-26T12:05:38.86Z</time></trkpt><trkpt lat="40.5393817" lon="15.56179"><ele>604.0</ele><time>2026-04-26T12:05:39.86Z</time></trkpt><trkpt lat="40.5392817" lon="15.5616867"><ele>604.4</ele><time>2026-04-26T12:05:40.859Z</time></trkpt><trkpt lat="40.539195" lon="15.5615867"><ele>604.8</ele><time>2026-04-26T12:05:41.859Z</time></trkpt><trkpt lat="40.53912" lon="15.5615017"><ele>605.2</ele><time>2026-04-26T12:05:42.859Z</time></trkpt><trkpt lat="40.53907" lon="15.5614117"><ele>605.6</ele><time>2026-04-26T12:05:43.86Z</time></trkpt><trkpt lat="40.5390417" lon="15.5613083"><ele>606.0</ele><time>2026-04-26T12:05:44.86Z</time></trkpt><trkpt lat="40.5390383" lon="15.561195"><ele>606.0</ele><time>2026-04-26T12:05:45.86Z</time></trkpt><trkpt lat="40.5390633" lon="15.5610783"><ele>606.0</ele><time>2026-04-26T12:05:46.859Z</time></trkpt><trkpt lat="40.5391167" lon="15.5609683"><ele>606.0</ele><time>2026-04-26T12:05:47.859Z</time></trkpt><trkpt lat="40.5391817" lon="15.5608683"><ele>606.0</ele><time>2026-04-26T12:05:48.86Z</time></trkpt><trkpt lat="40.5392533" lon="15.5607667"><ele>606.0</ele><time>2026-04-26T12:05:49.86Z</time></trkpt><trkpt lat="40.5393317" lon="15.5606567"><ele>606.0</ele><time>2026-04-26T12:05:50.859Z</time></trkpt><trkpt lat="40.53942" lon="15.56055"><ele>606.0</ele><time>2026-04-26T12:05:51.86Z</time></trkpt><trkpt lat="40.5395067" lon="15.560435"><ele>606.0</ele><time>2026-04-26T12:05:52.86Z</time></trkpt><trkpt lat="40.5395917" lon="15.56032"><ele>606.0</ele><time>2026-04-26T12:05:53.859Z</time></trkpt><trkpt lat="40.5396733" lon="15.56022"><ele>604.4</ele><time>2026-04-26T12:05:54.86Z</time></trkpt><trkpt lat="40.539755" lon="15.5601217"><ele>602.8</ele><time>2026-04-26T12:05:55.859Z</time></trkpt><trkpt lat="40.5398383" lon="15.56003"><ele>601.1999999999999</ele><time>2026-04-26T12:05:56.86Z</time></trkpt><trkpt lat="40.5399233" lon="15.5599617"><ele>599.6</ele><time>2026-04-26T12:05:57.859Z</time></trkpt><trkpt lat="40.5400017" lon="15.5599167"><ele>598.0</ele><time>2026-04-26T12:05:58.86Z</time></trkpt><trkpt lat="40.5400717" lon="15.5598933"><ele>598.0</ele><time>2026-04-26T12:05:59.86Z</time></trkpt><trkpt lat="40.5401783" lon="15.5599167"><ele>598.0</ele><time>2026-04-26T12:06:01.859Z</time></trkpt><trkpt lat="40.5402483" lon="15.5599617"><ele>598.0</ele><time>2026-04-26T12:06:02.86Z</time></trkpt><trkpt lat="40.540325" lon="15.5600117"><ele>598.0</ele><time>2026-04-26T12:06:03.859Z</time></trkpt><trkpt lat="40.5404" lon="15.5600533"><ele>598.0</ele><time>2026-04-26T12:06:04.86Z</time></trkpt><trkpt lat="40.5404817" lon="15.5600667"><ele>598.0</ele><time>2026-04-26T12:06:05.859Z</time></trkpt><trkpt lat="40.54056" lon="15.56005"><ele>596.8333333333334</ele><time>2026-04-26T12:06:06.86Z</time></trkpt><trkpt lat="40.5406383" lon="15.56002"><ele>595.6666666666667</ele><time>2026-04-26T12:06:07.86Z</time></trkpt><trkpt lat="40.5407067" lon="15.559965"><ele>594.5</ele><time>2026-04-26T12:06:08.859Z</time></trkpt><trkpt lat="40.5407667" lon="15.5599017"><ele>593.3333333333334</ele><time>2026-04-26T12:06:09.86Z</time></trkpt><trkpt lat="40.5408283" lon="15.55983"><ele>592.1666666666666</ele><time>2026-04-26T12:06:10.859Z</time></trkpt><trkpt lat="40.540895" lon="15.5597567"><ele>591.0</ele><time>2026-04-26T12:06:11.86Z</time></trkpt><trkpt lat="40.5409733" lon="15.559685"><ele>591.0</ele><time>2026-04-26T12:06:12.859Z</time></trkpt><trkpt lat="40.5410583" lon="15.5596333"><ele>591.0</ele><time>2026-04-26T12:06:13.859Z</time></trkpt><trkpt lat="40.5411567" lon="15.5595983"><ele>591.0</ele><time>2026-04-26T12:06:14.859Z</time></trkpt><trkpt lat="40.541265" lon="15.55957"><ele>591.0</ele><time>2026-04-26T12:06:15.86Z</time></trkpt><trkpt lat="40.5413767" lon="15.55954"><ele>591.0</ele><time>2026-04-26T12:06:16.859Z</time></trkpt><trkpt lat="40.5414867" lon="15.5595117"><ele>596.2</ele><time>2026-04-26T12:06:17.859Z</time></trkpt><trkpt lat="40.5416017" lon="15.55948"><ele>601.4000000000001</ele><time>2026-04-26T12:06:18.859Z</time></trkpt><trkpt lat="40.5417083" lon="15.559465"><ele>606.6</ele><time>2026-04-26T12:06:19.86Z</time></trkpt><trkpt lat="40.5418117" lon="15.5594617"><ele>611.8000000000001</ele><time>2026-04-26T12:06:20.859Z</time></trkpt><trkpt lat="40.5419133" lon="15.559465"><ele>617.0</ele><time>2026-04-26T12:06:21.859Z</time></trkpt><trkpt lat="40.54202" lon="15.5594717"><ele>615.2</ele><time>2026-04-26T12:06:22.859Z</time></trkpt><trkpt lat="40.5421317" lon="15.55949"><ele>613.4000000000001</ele><time>2026-04-26T12:06:23.86Z</time></trkpt><trkpt lat="40.5422333" lon="15.5595183"><ele>611.5999999999999</ele><time>2026-04-26T12:06:24.859Z</time></trkpt><trkpt lat="40.5423333" lon="15.5595633"><ele>609.8</ele><time>2026-04-26T12:06:25.859Z</time></trkpt><trkpt lat="40.5424367" lon="15.559615"><ele>608.0</ele><time>2026-04-26T12:06:26.859Z</time></trkpt><trkpt lat="40.5425333" lon="15.5596583"><ele>603.8</ele><time>2026-04-26T12:06:27.86Z</time></trkpt><trkpt lat="40.5426367" lon="15.559695"><ele>599.5999999999999</ele><time>2026-04-26T12:06:28.86Z</time></trkpt><trkpt lat="40.54273" lon="15.55973"><ele>595.4000000000001</ele><time>2026-04-26T12:06:29.859Z</time></trkpt><trkpt lat="40.542815" lon="15.5597633"><ele>591.2</ele><time>2026-04-26T12:06:30.859Z</time></trkpt><trkpt lat="40.5429017" lon="15.5597917"><ele>587.0</ele><time>2026-04-26T12:06:31.86Z</time></trkpt><trkpt lat="40.54299" lon="15.5598217"><ele>586.6</ele><time>2026-04-26T12:06:32.859Z</time></trkpt><trkpt lat="40.5430717" lon="15.559855"><ele>586.2</ele><time>2026-04-26T12:06:33.86Z</time></trkpt><trkpt lat="40.5431483" lon="15.559875"><ele>585.8</ele><time>2026-04-26T12:06:34.859Z</time></trkpt><trkpt lat="40.54321" lon="15.5598917"><ele>585.4</ele><time>2026-04-26T12:06:35.86Z</time></trkpt><trkpt lat="40.543315" lon="15.5598783"><ele>585.0</ele><time>2026-04-26T12:06:37.86Z</time></trkpt><trkpt lat="40.5434317" lon="15.5598267"><ele>585.0</ele><time>2026-04-26T12:06:39.86Z</time></trkpt><trkpt lat="40.54349" lon="15.559785"><ele>585.0</ele><time>2026-04-26T12:06:40.86Z</time></trkpt><trkpt lat="40.5435517" lon="15.5597317"><ele>585.0</ele><time>2026-04-26T12:06:41.859Z</time></trkpt><trkpt lat="40.5436167" lon="15.55969"><ele>585.0</ele><time>2026-04-26T12:06:42.859Z</time></trkpt><trkpt lat="40.54368" lon="15.5596533"><ele>585.0</ele><time>2026-04-26T12:06:43.86Z</time></trkpt><trkpt lat="40.5437667" lon="15.55961"><ele>585.0</ele><time>2026-04-26T12:06:45.859Z</time></trkpt><trkpt lat="40.5438333" lon="15.5595933"><ele>585.0</ele><time>2026-04-26T12:06:48.859Z</time></trkpt><trkpt lat="40.5439183" lon="15.5595883"><ele>585.3333333333334</ele><time>2026-04-26T12:08:27.858Z</time></trkpt><trkpt lat="40.5440233" lon="15.5595683"><ele>585.6666666666666</ele><time>2026-04-26T12:08:29.859Z</time></trkpt><trkpt lat="40.5440917" lon="15.559555"><ele>586.0</ele><time>2026-04-26T12:08:30.858Z</time></trkpt><trkpt lat="40.5441583" lon="15.5595433"><ele>586.3333333333333</ele><time>2026-04-26T12:08:31.858Z</time></trkpt><trkpt lat="40.5442317" lon="15.5595233"><ele>586.6666666666666</ele><time>2026-04-26T12:08:32.859Z</time></trkpt><trkpt lat="40.544305" lon="15.559525"><ele>587.0</ele><time>2026-04-26T12:08:33.859Z</time></trkpt><trkpt lat="40.544385" lon="15.5595467"><ele>584.0</ele><time>2026-04-26T12:08:34.858Z</time></trkpt><trkpt lat="40.5444583" lon="15.55957"><ele>581.0</ele><time>2026-04-26T12:08:35.858Z</time></trkpt><trkpt lat="40.5445283" lon="15.5596083"><ele>578.0</ele><time>2026-04-26T12:08:36.858Z</time></trkpt><trkpt lat="40.5445917" lon="15.5596467"><ele>575.0</ele><time>2026-04-26T12:08:37.859Z</time></trkpt><trkpt lat="40.544685" lon="15.5597083"><ele>572.0</ele><time>2026-04-26T12:08:39.858Z</time></trkpt><trkpt lat="40.5447667" lon="15.55972"><ele>569.0</ele><time>2026-04-26T12:08:41.859Z</time></trkpt><trkpt lat="40.5448317" lon="15.5597017"><ele>568.5</ele><time>2026-04-26T12:08:43.859Z</time></trkpt><trkpt lat="40.544925" lon="15.5596517"><ele>568.0</ele><time>2026-04-26T12:08:46.858Z</time></trkpt><trkpt lat="40.5449967" lon="15.5596267"><ele>567.5</ele><time>2026-04-26T12:08:48.859Z</time></trkpt><trkpt lat="40.54507" lon="15.5596067"><ele>567.0</ele><time>2026-04-26T12:08:50.858Z</time></trkpt><trkpt lat="40.5451533" lon="15.5595683"><ele>566.5</ele><time>2026-04-26T12:08:52.858Z</time></trkpt><trkpt lat="40.545245" lon="15.5595267"><ele>566.0</ele><time>2026-04-26T12:08:54.859Z</time></trkpt><trkpt lat="40.54534" lon="15.5594767"><ele>563.8333333333333</ele><time>2026-04-26T12:08:56.858Z</time></trkpt><trkpt lat="40.5454217" lon="15.5594317"><ele>561.6666666666666</ele><time>2026-04-26T12:08:58.858Z</time></trkpt><trkpt lat="40.5454833" lon="15.5593767"><ele>559.5</ele><time>2026-04-26T12:09:00.859Z</time></trkpt><trkpt lat="40.545555" lon="15.559355"><ele>557.3333333333334</ele><time>2026-04-26T12:09:04.859Z</time></trkpt><trkpt lat="40.5456017" lon="15.5592983"><ele>555.1666666666667</ele><time>2026-04-26T12:09:10.859Z</time></trkpt><trkpt lat="40.5456917" lon="15.5592217"><ele>553.0</ele><time>2026-04-26T12:28:06.855Z</time></trkpt><trkpt lat="40.54575" lon="15.559165"><ele>553.0</ele><time>2026-04-26T12:28:09.854Z</time></trkpt><trkpt lat="40.5458217" lon="15.5591133"><ele>553.0</ele><time>2026-04-26T12:28:11.855Z</time></trkpt><trkpt lat="40.5458733" lon="15.5590433"><ele>553.0</ele><time>2026-04-26T12:28:13.855Z</time></trkpt><trkpt lat="40.5459133" lon="15.5589683"><ele>553.0</ele><time>2026-04-26T12:28:15.854Z</time></trkpt><trkpt lat="40.5459867" lon="15.55893"><ele>553.0</ele><time>2026-04-26T12:28:18.854Z</time></trkpt><trkpt lat="40.5460517" lon="15.5589"><ele>553.0</ele><time>2026-04-26T12:28:21.854Z</time></trkpt><trkpt lat="40.5460717" lon="15.55881"><ele>553.0</ele><time>2026-04-26T12:28:24.854Z</time></trkpt><trkpt lat="40.546125" lon="15.55876"><ele>553.6666666666667</ele><time>2026-04-26T12:28:26.855Z</time></trkpt><trkpt lat="40.5461817" lon="15.55869"><ele>554.3333333333334</ele><time>2026-04-26T12:28:28.854Z</time></trkpt><trkpt lat="40.5462433" lon="15.5586067"><ele>555.0</ele><time>2026-04-26T12:28:30.854Z</time></trkpt><trkpt lat="40.5462783" lon="15.5585133"><ele>555.6666666666666</ele><time>2026-04-26T12:28:32.854Z</time></trkpt><trkpt lat="40.5463117" lon="15.5584317"><ele>556.3333333333333</ele><time>2026-04-26T12:28:34.854Z</time></trkpt><trkpt lat="40.546375" lon="15.5583683"><ele>557.0</ele><time>2026-04-26T12:28:36.854Z</time></trkpt><trkpt lat="40.546445" lon="15.5583133"><ele>557.0</ele><time>2026-04-26T12:28:38.854Z</time></trkpt><trkpt lat="40.54651" lon="15.5582683"><ele>557.0</ele><time>2026-04-26T12:28:40.855Z</time></trkpt><trkpt lat="40.546575" lon="15.558225"><ele>557.0</ele><time>2026-04-26T12:28:42.854Z</time></trkpt><trkpt lat="40.54662" lon="15.55815"><ele>557.0</ele><time>2026-04-26T12:28:44.854Z</time></trkpt><trkpt lat="40.5466283" lon="15.5580467"><ele>557.0</ele><time>2026-04-26T12:28:46.854Z</time></trkpt><trkpt lat="40.54664" lon="15.55794"><ele>557.0</ele><time>2026-04-26T12:28:48.855Z</time></trkpt><trkpt lat="40.5466983" lon="15.557865"><ele>557.0</ele><time>2026-04-26T12:28:50.855Z</time></trkpt><trkpt lat="40.5467767" lon="15.557795"><ele>557.0</ele><time>2026-04-26T12:28:52.855Z</time></trkpt><trkpt lat="40.5468383" lon="15.55773"><ele>557.0</ele><time>2026-04-26T12:28:54.855Z</time></trkpt><trkpt lat="40.5469117" lon="15.557735"><ele>557.0</ele><time>2026-04-26T12:28:56.855Z</time></trkpt><trkpt lat="40.5469833" lon="15.5577633"><ele>557.0</ele><time>2026-04-26T12:29:13.854Z</time></trkpt><trkpt lat="40.5470017" lon="15.5578633"><ele>557.0</ele><time>2026-04-26T12:29:15.855Z</time></trkpt><trkpt lat="40.547025" lon="15.5580083"><ele>557.0</ele><time>2026-04-26T12:29:17.855Z</time></trkpt><trkpt lat="40.547035" lon="15.5581333"><ele>557.0</ele><time>2026-04-26T12:29:19.854Z</time></trkpt><trkpt lat="40.5471067" lon="15.558155"><ele>557.0</ele><time>2026-04-26T12:29:22.854Z</time></trkpt><trkpt lat="40.5471783" lon="15.558045"><ele>557.0</ele><time>2026-04-26T12:29:24.854Z</time></trkpt><trkpt lat="40.5471917" lon="15.5579617"><ele>557.0</ele><time>2026-04-26T12:29:25.854Z</time></trkpt><trkpt lat="40.5472" lon="15.5578717"><ele>557.0</ele><time>2026-04-26T12:29:26.854Z</time></trkpt><trkpt lat="40.5472083" lon="15.55778"><ele>556.0</ele><time>2026-04-26T12:29:27.854Z</time></trkpt><trkpt lat="40.5472283" lon="15.5576967"><ele>555.0</ele><time>2026-04-26T12:29:28.855Z</time></trkpt><trkpt lat="40.54726" lon="15.5576217"><ele>554.0</ele><time>2026-04-26T12:29:29.855Z</time></trkpt><trkpt lat="40.5473133" lon="15.5575583"><ele>553.0</ele><time>2026-04-26T12:29:30.855Z</time></trkpt><trkpt lat="40.5473817" lon="15.5575117"><ele>552.0</ele><time>2026-04-26T12:29:31.855Z</time></trkpt><trkpt lat="40.5474667" lon="15.5574783"><ele>551.0</ele><time>2026-04-26T12:29:32.855Z</time></trkpt><trkpt lat="40.5475617" lon="15.5574433"><ele>551.0</ele><time>2026-04-26T12:29:33.855Z</time></trkpt><trkpt lat="40.5476517" lon="15.5574183"><ele>551.0</ele><time>2026-04-26T12:29:34.854Z</time></trkpt><trkpt lat="40.5477467" lon="15.5573967"><ele>551.0</ele><time>2026-04-26T12:29:35.855Z</time></trkpt><trkpt lat="40.5478317" lon="15.5573617"><ele>551.0</ele><time>2026-04-26T12:29:36.854Z</time></trkpt><trkpt lat="40.5479117" lon="15.557345"><ele>551.0</ele><time>2026-04-26T12:29:37.854Z</time></trkpt><trkpt lat="40.5479867" lon="15.5573233"><ele>551.0</ele><time>2026-04-26T12:29:38.854Z</time></trkpt><trkpt lat="40.54808" lon="15.5573017"><ele>550.8</ele><time>2026-04-26T12:29:39.854Z</time></trkpt><trkpt lat="40.5481717" lon="15.5572667"><ele>550.6</ele><time>2026-04-26T12:29:40.854Z</time></trkpt><trkpt lat="40.5482633" lon="15.557215"><ele>550.4</ele><time>2026-04-26T12:29:41.854Z</time></trkpt><trkpt lat="40.5483567" lon="15.55714"><ele>550.2</ele><time>2026-04-26T12:29:42.854Z</time></trkpt><trkpt lat="40.5484333" lon="15.5570533"><ele>550.0</ele><time>2026-04-26T12:29:43.855Z</time></trkpt><trkpt lat="40.5484867" lon="15.5569833"><ele>550.0</ele><time>2026-04-26T12:29:44.854Z</time></trkpt><trkpt lat="40.5485783" lon="15.5569317"><ele>550.0</ele><time>2026-04-26T12:29:46.855Z</time></trkpt><trkpt lat="40.5486167" lon="15.557035"><ele>550.0</ele><time>2026-04-26T12:29:48.854Z</time></trkpt><trkpt lat="40.54857" lon="15.5571117"><ele>550.0</ele><time>2026-04-26T12:29:49.854Z</time></trkpt><trkpt lat="40.5484983" lon="15.5571867"><ele>550.0</ele><time>2026-04-26T12:29:50.854Z</time></trkpt><trkpt lat="40.548415" lon="15.5572783"><ele>547.5</ele><time>2026-04-26T12:29:51.854Z</time></trkpt><trkpt lat="40.548335" lon="15.5573967"><ele>545.0</ele><time>2026-04-26T12:29:52.854Z</time></trkpt><trkpt lat="40.5482667" lon="15.5575367"><ele>542.5</ele><time>2026-04-26T12:29:53.855Z</time></trkpt><trkpt lat="40.548215" lon="15.5576917"><ele>540.0</ele><time>2026-04-26T12:29:54.855Z</time></trkpt><trkpt lat="40.548175" lon="15.55785"><ele>536.75</ele><time>2026-04-26T12:29:55.854Z</time></trkpt><trkpt lat="40.5481433" lon="15.5580183"><ele>533.5</ele><time>2026-04-26T12:29:56.854Z</time></trkpt><trkpt lat="40.548115" lon="15.55818"><ele>530.25</ele><time>2026-04-26T12:29:57.855Z</time></trkpt><trkpt lat="40.5480867" lon="15.5583283"><ele>527.0</ele><time>2026-04-26T12:29:58.855Z</time></trkpt><trkpt lat="40.548035" lon="15.5584717"><ele>527.0</ele><time>2026-04-26T12:29:59.855Z</time></trkpt><trkpt lat="40.5479783" lon="15.558595"><ele>527.0</ele><time>2026-04-26T12:30:00.855Z</time></trkpt><trkpt lat="40.5479067" lon="15.5587033"><ele>527.0</ele><time>2026-04-26T12:30:01.855Z</time></trkpt><trkpt lat="40.5478317" lon="15.5588083"><ele>527.0</ele><time>2026-04-26T12:30:02.854Z</time></trkpt><trkpt lat="40.54776" lon="15.5589117"><ele>527.0</ele><time>2026-04-26T12:30:03.855Z</time></trkpt><trkpt lat="40.5476817" lon="15.5590183"><ele>527.5</ele><time>2026-04-26T12:30:04.855Z</time></trkpt><trkpt lat="40.547605" lon="15.5591283"><ele>528.0</ele><time>2026-04-26T12:30:05.855Z</time></trkpt><trkpt lat="40.5475267" lon="15.5592383"><ele>528.5</ele><time>2026-04-26T12:30:06.854Z</time></trkpt><trkpt lat="40.5474433" lon="15.55934"><ele>529.0</ele><time>2026-04-26T12:30:07.854Z</time></trkpt><trkpt lat="40.5473533" lon="15.5594183"><ele>529.0</ele><time>2026-04-26T12:30:08.855Z</time></trkpt><trkpt lat="40.54727" lon="15.5594917"><ele>529.0</ele><time>2026-04-26T12:30:09.855Z</time></trkpt><trkpt lat="40.5472033" lon="15.5595667"><ele>529.0</ele><time>2026-04-26T12:30:10.855Z</time></trkpt><trkpt lat="40.547145" lon="15.55967"><ele>529.0</ele><time>2026-04-26T12:30:11.854Z</time></trkpt><trkpt lat="40.54712" lon="15.5597883"><ele>529.0</ele><time>2026-04-26T12:30:12.855Z</time></trkpt><trkpt lat="40.5471183" lon="15.5599267"><ele>526.5</ele><time>2026-04-26T12:30:13.855Z</time></trkpt><trkpt lat="40.5471283" lon="15.5600767"><ele>524.0</ele><time>2026-04-26T12:30:14.854Z</time></trkpt><trkpt lat="40.5471483" lon="15.5602383"><ele>521.5</ele><time>2026-04-26T12:30:15.854Z</time></trkpt><trkpt lat="40.5471733" lon="15.5603833"><ele>519.0</ele><time>2026-04-26T12:30:16.855Z</time></trkpt><trkpt lat="40.5471983" lon="15.560525"><ele>517.8</ele><time>2026-04-26T12:30:17.854Z</time></trkpt><trkpt lat="40.54723" lon="15.56065"><ele>516.5999999999999</ele><time>2026-04-26T12:30:18.855Z</time></trkpt><trkpt lat="40.5472567" lon="15.5607433"><ele>515.4</ele><time>2026-04-26T12:30:19.854Z</time></trkpt><trkpt lat="40.5473133" lon="15.5608133"><ele>514.1999999999999</ele><time>2026-04-26T12:30:21.855Z</time></trkpt><trkpt lat="40.5474083" lon="15.5607333"><ele>513.0</ele><time>2026-04-26T12:30:23.855Z</time></trkpt><trkpt lat="40.54747" lon="15.5606583"><ele>513.0</ele><time>2026-04-26T12:30:24.855Z</time></trkpt><trkpt lat="40.5475467" lon="15.56058"><ele>513.0</ele><time>2026-04-26T12:30:25.855Z</time></trkpt><trkpt lat="40.5476267" lon="15.5605017"><ele>513.0</ele><time>2026-04-26T12:30:26.855Z</time></trkpt><trkpt lat="40.547705" lon="15.5604117"><ele>513.0</ele><time>2026-04-26T12:30:27.854Z</time></trkpt><trkpt lat="40.5477883" lon="15.5603217"><ele>513.0</ele><time>2026-04-26T12:30:28.855Z</time></trkpt><trkpt lat="40.5478633" lon="15.5602333"><ele>510.79999999999995</ele><time>2026-04-26T12:30:29.855Z</time></trkpt><trkpt lat="40.5479233" lon="15.5601567"><ele>508.59999999999997</ele><time>2026-04-26T12:30:30.854Z</time></trkpt><trkpt lat="40.5479733" lon="15.56009"><ele>506.40000000000003</ele><time>2026-04-26T12:30:31.855Z</time></trkpt><trkpt lat="40.548075" lon="15.5600467"><ele>504.20000000000005</ele><time>2026-04-26T12:30:33.854Z</time></trkpt><trkpt lat="40.5481967" lon="15.5600517"><ele>502.0</ele><time>2026-04-26T12:30:35.854Z</time></trkpt><trkpt lat="40.5482717" lon="15.5600517"><ele>502.00000000000006</ele><time>2026-04-26T12:30:36.855Z</time></trkpt><trkpt lat="40.5483583" lon="15.5600467"><ele>502.0</ele><time>2026-04-26T12:30:37.855Z</time></trkpt><trkpt lat="40.5484433" lon="15.5600333"><ele>502.0</ele><time>2026-04-26T12:30:38.854Z</time></trkpt><trkpt lat="40.5485333" lon="15.560025"><ele>502.0</ele><time>2026-04-26T12:30:39.854Z</time></trkpt><trkpt lat="40.5486133" lon="15.56003"><ele>502.00000000000006</ele><time>2026-04-26T12:30:40.855Z</time></trkpt><trkpt lat="40.5486833" lon="15.5600567"><ele>502.0</ele><time>2026-04-26T12:30:41.854Z</time></trkpt><trkpt lat="40.5487483" lon="15.5601167"><ele>499.50000000000006</ele><time>2026-04-26T12:30:42.854Z</time></trkpt><trkpt lat="40.5488033" lon="15.5601767"><ele>497.0</ele><time>2026-04-26T12:30:43.854Z</time></trkpt><trkpt lat="40.5489083" lon="15.5602183"><ele>494.5</ele><time>2026-04-26T12:30:45.855Z</time></trkpt><trkpt lat="40.548975" lon="15.5601833"><ele>492.0</ele><time>2026-04-26T12:30:46.854Z</time></trkpt><trkpt lat="40.549055" lon="15.5601483"><ele>489.50000000000006</ele><time>2026-04-26T12:30:47.855Z</time></trkpt><trkpt lat="40.5491383" lon="15.5601367"><ele>487.0</ele><time>2026-04-26T12:30:48.854Z</time></trkpt><trkpt lat="40.5492267" lon="15.560165"><ele>487.0</ele><time>2026-04-26T12:30:49.855Z</time></trkpt><trkpt lat="40.54932" lon="15.5602467"><ele>487.0</ele><time>2026-04-26T12:30:50.855Z</time></trkpt><trkpt lat="40.549415" lon="15.5603683"><ele>487.0</ele><time>2026-04-26T12:30:51.855Z</time></trkpt><trkpt lat="40.549495" lon="15.5604867"><ele>487.0</ele><time>2026-04-26T12:30:52.854Z</time></trkpt><trkpt lat="40.5495667" lon="15.560595"><ele>484.20000000000005</ele><time>2026-04-26T12:30:53.854Z</time></trkpt><trkpt lat="40.5496117" lon="15.560705"><ele>481.40000000000003</ele><time>2026-04-26T12:30:54.855Z</time></trkpt><trkpt lat="40.54963" lon="15.56083"><ele>478.59999999999997</ele><time>2026-04-26T12:30:55.855Z</time></trkpt><trkpt lat="40.5496367" lon="15.5609483"><ele>475.79999999999995</ele><time>2026-04-26T12:30:56.854Z</time></trkpt><trkpt lat="40.5496383" lon="15.5610633"><ele>473.0</ele><time>2026-04-26T12:30:57.855Z</time></trkpt><trkpt lat="40.5496417" lon="15.5611767"><ele>472.79999999999995</ele><time>2026-04-26T12:30:58.854Z</time></trkpt><trkpt lat="40.549645" lon="15.5612817"><ele>472.59999999999997</ele><time>2026-04-26T12:30:59.854Z</time></trkpt><trkpt lat="40.5496517" lon="15.561375"><ele>472.40000000000003</ele><time>2026-04-26T12:31:00.855Z</time></trkpt><trkpt lat="40.5496983" lon="15.5615033"><ele>472.20000000000005</ele><time>2026-04-26T12:31:02.854Z</time></trkpt><trkpt lat="40.549825" lon="15.5615633"><ele>472.0</ele><time>2026-04-26T12:31:04.855Z</time></trkpt><trkpt lat="40.5499033" lon="15.5615617"><ele>472.00000000000006</ele><time>2026-04-26T12:31:05.854Z</time></trkpt><trkpt lat="40.5499817" lon="15.5615633"><ele>472.0</ele><time>2026-04-26T12:31:06.855Z</time></trkpt><trkpt lat="40.550065" lon="15.5615733"><ele>472.0</ele><time>2026-04-26T12:31:07.855Z</time></trkpt><trkpt lat="40.55014" lon="15.5615917"><ele>472.0</ele><time>2026-04-26T12:31:08.854Z</time></trkpt><trkpt lat="40.5502067" lon="15.56163"><ele>472.00000000000006</ele><time>2026-04-26T12:31:09.854Z</time></trkpt><trkpt lat="40.550275" lon="15.5616783"><ele>472.0</ele><time>2026-04-26T12:31:10.854Z</time></trkpt><trkpt lat="40.550345" lon="15.561725"><ele>469.20000000000005</ele><time>2026-04-26T12:31:11.855Z</time></trkpt><trkpt lat="40.55042" lon="15.5617767"><ele>466.40000000000003</ele><time>2026-04-26T12:31:12.854Z</time></trkpt><trkpt lat="40.5504933" lon="15.5618083"><ele>463.59999999999997</ele><time>2026-04-26T12:31:13.855Z</time></trkpt><trkpt lat="40.55058" lon="15.5617983"><ele>460.79999999999995</ele><time>2026-04-26T12:31:14.855Z</time></trkpt><trkpt lat="40.5506833" lon="15.56175"><ele>458.0</ele><time>2026-04-26T12:31:15.855Z</time></trkpt><trkpt lat="40.5507983" lon="15.561675"><ele>457.99999999999994</ele><time>2026-04-26T12:31:16.854Z</time></trkpt><trkpt lat="40.5509" lon="15.5615983"><ele>458.0</ele><time>2026-04-26T12:31:17.854Z</time></trkpt><trkpt lat="40.5509733" lon="15.5615567"><ele>458.0</ele><time>2026-04-26T12:31:18.855Z</time></trkpt><trkpt lat="40.55105" lon="15.56154"><ele>458.0</ele><time>2026-04-26T12:31:19.854Z</time></trkpt><trkpt lat="40.5511183" lon="15.5615517"><ele>457.99999999999994</ele><time>2026-04-26T12:31:20.854Z</time></trkpt><trkpt lat="40.5511917" lon="15.56159"><ele>458.0</ele><time>2026-04-26T12:31:21.855Z</time></trkpt><trkpt lat="40.5512683" lon="15.5616317"><ele>454.4</ele><time>2026-04-26T12:31:22.854Z</time></trkpt><trkpt lat="40.55135" lon="15.56166"><ele>450.79999999999995</ele><time>2026-04-26T12:31:23.855Z</time></trkpt><trkpt lat="40.5514417" lon="15.5616567"><ele>447.2</ele><time>2026-04-26T12:31:24.854Z</time></trkpt><trkpt lat="40.551535" lon="15.56163"><ele>443.6</ele><time>2026-04-26T12:31:25.854Z</time></trkpt><trkpt lat="40.5516283" lon="15.5615983"><ele>440.0</ele><time>2026-04-26T12:31:26.854Z</time></trkpt><trkpt lat="40.5517283" lon="15.5615717"><ele>440.0</ele><time>2026-04-26T12:31:27.855Z</time></trkpt><trkpt lat="40.5518333" lon="15.5615417"><ele>440.0</ele><time>2026-04-26T12:31:28.855Z</time></trkpt><trkpt lat="40.5519317" lon="15.5615067"><ele>440.0</ele><time>2026-04-26T12:31:29.854Z</time></trkpt><trkpt lat="40.55202" lon="15.5614683"><ele>440.0</ele><time>2026-04-26T12:31:30.855Z</time></trkpt><trkpt lat="40.552105" lon="15.5614283"><ele>440.0</ele><time>2026-04-26T12:31:31.854Z</time></trkpt><trkpt lat="40.55218" lon="15.56139"><ele>439.8333333333333</ele><time>2026-04-26T12:31:32.854Z</time></trkpt><trkpt lat="40.5522483" lon="15.5613583"><ele>439.66666666666663</ele><time>2026-04-26T12:31:33.854Z</time></trkpt><trkpt lat="40.55233" lon="15.5613"><ele>439.5</ele><time>2026-04-26T12:31:35.855Z</time></trkpt><trkpt lat="40.5523567" lon="15.5611833"><ele>439.33333333333337</ele><time>2026-04-26T12:31:38.855Z</time></trkpt><trkpt lat="40.5524083" lon="15.5611033"><ele>439.1666666666667</ele><time>2026-04-26T12:31:41.854Z</time></trkpt><trkpt lat="40.552475" lon="15.5610817"><ele>439.0</ele><time>2026-04-26T12:31:44.854Z</time></trkpt><trkpt lat="40.55256" lon="15.5610733"><ele>438.4</ele><time>2026-04-26T12:31:47.853Z</time></trkpt><trkpt lat="40.5526683" lon="15.5610933"><ele>437.79999999999995</ele><time>2026-04-26T12:31:49.854Z</time></trkpt><trkpt lat="40.5527783" lon="15.561065"><ele>437.20000000000005</ele><time>2026-04-26T12:31:51.854Z</time></trkpt><trkpt lat="40.5528483" lon="15.56102"><ele>436.6</ele><time>2026-04-26T12:31:52.854Z</time></trkpt><trkpt lat="40.55292" lon="15.5609617"><ele>436.0</ele><time>2026-04-26T12:31:53.854Z</time></trkpt><trkpt lat="40.5529933" lon="15.56089"><ele>439.4</ele><time>2026-04-26T12:31:54.854Z</time></trkpt><trkpt lat="40.5530683" lon="15.5607967"><ele>442.8</ele><time>2026-04-26T12:31:55.853Z</time></trkpt><trkpt lat="40.5531417" lon="15.5606917"><ele>446.19999999999993</ele><time>2026-04-26T12:31:56.853Z</time></trkpt><trkpt lat="40.5532317" lon="15.560615"><ele>449.59999999999997</ele><time>2026-04-26T12:31:57.853Z</time></trkpt><trkpt lat="40.55332" lon="15.5605417"><ele>453.0</ele><time>2026-04-26T12:31:58.854Z</time></trkpt><trkpt lat="40.55339" lon="15.5604667"><ele>451.79999999999995</ele><time>2026-04-26T12:31:59.854Z</time></trkpt><trkpt lat="40.553445" lon="15.560355"><ele>450.59999999999997</ele><time>2026-04-26T12:32:00.853Z</time></trkpt><trkpt lat="40.5534833" lon="15.5602417"><ele>449.40000000000003</ele><time>2026-04-26T12:32:01.854Z</time></trkpt><trkpt lat="40.5535183" lon="15.560145"><ele>448.20000000000005</ele><time>2026-04-26T12:32:02.854Z</time></trkpt><trkpt lat="40.5535833" lon="15.5600383"><ele>447.0</ele><time>2026-04-26T12:32:04.854Z</time></trkpt><trkpt lat="40.5536217" lon="15.5599183"><ele>447.0</ele><time>2026-04-26T12:32:06.853Z</time></trkpt><trkpt lat="40.55366" lon="15.5597833"><ele>447.00000000000006</ele><time>2026-04-26T12:32:08.854Z</time></trkpt><trkpt lat="40.5536633" lon="15.55963"><ele>447.00000000000006</ele><time>2026-04-26T12:32:10.853Z</time></trkpt><trkpt lat="40.553655" lon="15.559465"><ele>447.0</ele><time>2026-04-26T12:32:12.853Z</time></trkpt><trkpt lat="40.55367" lon="15.55938"><ele>447.0</ele><time>2026-04-26T12:32:13.853Z</time></trkpt><trkpt lat="40.5536983" lon="15.5592933"><ele>448.85714285714283</ele><time>2026-04-26T12:32:14.853Z</time></trkpt><trkpt lat="40.5537333" lon="15.5591967"><ele>450.71428571428567</ele><time>2026-04-26T12:32:15.853Z</time></trkpt><trkpt lat="40.5537633" lon="15.5591067"><ele>452.57142857142856</ele><time>2026-04-26T12:32:16.854Z</time></trkpt><trkpt lat="40.5537917" lon="15.5590267"><ele>454.4285714285714</ele><time>2026-04-26T12:32:17.854Z</time></trkpt><trkpt lat="40.553825" lon="15.558955"><ele>456.2857142857143</ele><time>2026-04-26T12:32:18.853Z</time></trkpt><trkpt lat="40.5538567" lon="15.5588817"><ele>458.14285714285705</ele><time>2026-04-26T12:32:19.853Z</time></trkpt><trkpt lat="40.553895" lon="15.5588117"><ele>459.99999999999994</ele><time>2026-04-26T12:32:20.854Z</time></trkpt><trkpt lat="40.55394" lon="15.5587333"><ele>459.6666666666667</ele><time>2026-04-26T12:32:21.853Z</time></trkpt><trkpt lat="40.5539767" lon="15.5586533"><ele>459.33333333333337</ele><time>2026-04-26T12:32:22.853Z</time></trkpt><trkpt lat="40.5540117" lon="15.5585683"><ele>459.0</ele><time>2026-04-26T12:32:23.853Z</time></trkpt><trkpt lat="40.5540417" lon="15.5584683"><ele>458.66666666666663</ele><time>2026-04-26T12:32:24.853Z</time></trkpt><trkpt lat="40.554055" lon="15.55836"><ele>458.3333333333333</ele><time>2026-04-26T12:32:25.853Z</time></trkpt><trkpt lat="40.5540633" lon="15.5582533"><ele>458.0</ele><time>2026-04-26T12:32:26.854Z</time></trkpt><trkpt lat="40.5540583" lon="15.5581617"><ele>457.99999999999994</ele><time>2026-04-26T12:32:27.853Z</time></trkpt><trkpt lat="40.5540067" lon="15.5580133"><ele>458.0</ele><time>2026-04-26T12:32:29.854Z</time></trkpt><trkpt lat="40.5539717" lon="15.5579367"><ele>458.0</ele><time>2026-04-26T12:32:30.854Z</time></trkpt><trkpt lat="40.5539583" lon="15.557855"><ele>458.0</ele><time>2026-04-26T12:32:31.853Z</time></trkpt><trkpt lat="40.5539467" lon="15.557735"><ele>457.99999999999994</ele><time>2026-04-26T12:32:33.853Z</time></trkpt><trkpt lat="40.5539567" lon="15.557635"><ele>458.0</ele><time>2026-04-26T12:32:36.853Z</time></trkpt><trkpt lat="40.5540083" lon="15.5575133"><ele>458.1428571428571</ele><time>2026-04-26T12:32:39.853Z</time></trkpt><trkpt lat="40.5540883" lon="15.55742"><ele>458.28571428571433</ele><time>2026-04-26T12:32:41.854Z</time></trkpt><trkpt lat="40.5541483" lon="15.55739"><ele>458.42857142857144</ele><time>2026-04-26T12:32:42.853Z</time></trkpt><trkpt lat="40.5542133" lon="15.557355"><ele>458.57142857142856</ele><time>2026-04-26T12:32:43.854Z</time></trkpt><trkpt lat="40.5542783" lon="15.557325"><ele>458.71428571428567</ele><time>2026-04-26T12:32:44.854Z</time></trkpt><trkpt lat="40.5543383" lon="15.5572767"><ele>458.8571428571429</ele><time>2026-04-26T12:32:46.853Z</time></trkpt><trkpt lat="40.55438" lon="15.5572067"><ele>459.0</ele><time>2026-04-26T12:32:56.853Z</time></trkpt><trkpt lat="40.5544183" lon="15.557055"><ele>458.79999999999995</ele><time>2026-04-26T12:32:58.854Z</time></trkpt><trkpt lat="40.5544183" lon="15.5568983"><ele>458.59999999999997</ele><time>2026-04-26T12:33:00.854Z</time></trkpt><trkpt lat="40.5544067" lon="15.5567583"><ele>458.4</ele><time>2026-04-26T12:33:02.853Z</time></trkpt><trkpt lat="40.554395" lon="15.5566233"><ele>458.2</ele><time>2026-04-26T12:33:04.854Z</time></trkpt><trkpt lat="40.5544083" lon="15.5565"><ele>458.0</ele><time>2026-04-26T12:33:06.854Z</time></trkpt><trkpt lat="40.5544383" lon="15.5563733"><ele>457.99999999999994</ele><time>2026-04-26T12:33:08.853Z</time></trkpt><trkpt lat="40.5544467" lon="15.5562467"><ele>458.0</ele><time>2026-04-26T12:33:10.853Z</time></trkpt><trkpt lat="40.5544367" lon="15.5561333"><ele>458.0</ele><time>2026-04-26T12:33:12.853Z</time></trkpt><trkpt lat="40.5544183" lon="15.5560333"><ele>458.0</ele><time>2026-04-26T12:33:14.854Z</time></trkpt><trkpt lat="40.5543917" lon="15.5559267"><ele>457.99999999999994</ele><time>2026-04-26T12:33:16.854Z</time></trkpt><trkpt lat="40.5543717" lon="15.5558283"><ele>458.0</ele><time>2026-04-26T12:33:18.853Z</time></trkpt><trkpt lat="40.55433" lon="15.55573"><ele>457.59999999999997</ele><time>2026-04-26T12:33:20.854Z</time></trkpt><trkpt lat="40.554285" lon="15.5556167"><ele>457.19999999999993</ele><time>2026-04-26T12:33:22.853Z</time></trkpt><trkpt lat="40.5542617" lon="15.555445"><ele>456.8</ele><time>2026-04-26T12:33:24.854Z</time></trkpt><trkpt lat="40.5542467" lon="15.5553233"><ele>456.4</ele><time>2026-04-26T12:33:25.854Z</time></trkpt><trkpt lat="40.55423" lon="15.555205"><ele>456.0</ele><time>2026-04-26T12:33:26.853Z</time></trkpt><trkpt lat="40.5542183" lon="15.5551067"><ele>456.6666666666667</ele><time>2026-04-26T12:33:27.854Z</time></trkpt><trkpt lat="40.5542033" lon="15.555025"><ele>457.33333333333337</ele><time>2026-04-26T12:33:28.854Z</time></trkpt><trkpt lat="40.554135" lon="15.55488"><ele>458.0</ele><time>2026-04-26T12:33:30.854Z</time></trkpt><trkpt lat="40.5540817" lon="15.5548117"><ele>458.6666666666667</ele><time>2026-04-26T12:33:31.853Z</time></trkpt><trkpt lat="40.5540067" lon="15.55474"><ele>459.33333333333337</ele><time>2026-04-26T12:33:32.854Z</time></trkpt><trkpt lat="40.55394" lon="15.5546633"><ele>460.0</ele><time>2026-04-26T12:33:33.854Z</time></trkpt><trkpt lat="40.55389" lon="15.5545817"><ele>460.33333333333337</ele><time>2026-04-26T12:33:34.853Z</time></trkpt><trkpt lat="40.553855" lon="15.5545067"><ele>460.6666666666667</ele><time>2026-04-26T12:33:35.853Z</time></trkpt><trkpt lat="40.55383" lon="15.5544283"><ele>461.0</ele><time>2026-04-26T12:33:36.854Z</time></trkpt><trkpt lat="40.5538117" lon="15.554335"><ele>461.33333333333337</ele><time>2026-04-26T12:33:37.853Z</time></trkpt><trkpt lat="40.5537967" lon="15.554235"><ele>461.6666666666667</ele><time>2026-04-26T12:33:38.854Z</time></trkpt><trkpt lat="40.5537933" lon="15.5541467"><ele>462.0</ele><time>2026-04-26T12:33:39.853Z</time></trkpt><trkpt lat="40.553795" lon="15.5540067"><ele>462.0</ele><time>2026-04-26T12:33:41.854Z</time></trkpt><trkpt lat="40.553815" lon="15.55389"><ele>462.0</ele><time>2026-04-26T12:33:44.854Z</time></trkpt><trkpt lat="40.5538467" lon="15.5538083"><ele>462.0</ele><time>2026-04-26T12:33:48.854Z</time></trkpt><trkpt lat="40.5538983" lon="15.5537333"><ele>462.0</ele><time>2026-04-26T12:33:57.853Z</time></trkpt><trkpt lat="40.5539133" lon="15.5536283"><ele>462.0</ele><time>2026-04-26T12:34:01.854Z</time></trkpt><trkpt lat="40.5538433" lon="15.5535567"><ele>462.0</ele><time>2026-04-26T12:34:04.853Z</time></trkpt><trkpt lat="40.553765" lon="15.5535167"><ele>458.1666666666667</ele><time>2026-04-26T12:34:06.854Z</time></trkpt><trkpt lat="40.55369" lon="15.5534683"><ele>454.33333333333337</ele><time>2026-04-26T12:34:08.853Z</time></trkpt><trkpt lat="40.5536317" lon="15.5534283"><ele>450.5</ele><time>2026-04-26T12:34:10.854Z</time></trkpt><trkpt lat="40.5535383" lon="15.5534333"><ele>446.6666666666667</ele><time>2026-04-26T12:34:13.853Z</time></trkpt><trkpt lat="40.5534667" lon="15.55342"><ele>442.83333333333337</ele><time>2026-04-26T12:34:16.853Z</time></trkpt><trkpt lat="40.553455" lon="15.5533367"><ele>439.0</ele><time>2026-04-26T12:38:09.852Z</time></trkpt><trkpt lat="40.553515" lon="15.553285"><ele>439.00000000000006</ele><time>2026-04-26T12:38:11.853Z</time></trkpt><trkpt lat="40.5535883" lon="15.5531983"><ele>439.0</ele><time>2026-04-26T12:38:13.853Z</time></trkpt><trkpt lat="40.5536583" lon="15.553095"><ele>439.0</ele><time>2026-04-26T12:38:15.852Z</time></trkpt><trkpt lat="40.5537133" lon="15.5530133"><ele>439.0</ele><time>2026-04-26T12:38:17.853Z</time></trkpt><trkpt lat="40.5537567" lon="15.55294"><ele>439.00000000000006</ele><time>2026-04-26T12:38:19.852Z</time></trkpt><trkpt lat="40.5538083" lon="15.5528533"><ele>439.0</ele><time>2026-04-26T12:38:21.853Z</time></trkpt><trkpt lat="40.553895" lon="15.552765"><ele>439.6</ele><time>2026-04-26T12:38:23.852Z</time></trkpt><trkpt lat="40.55394" lon="15.552705"><ele>440.2</ele><time>2026-04-26T12:38:25.853Z</time></trkpt><trkpt lat="40.5539967" lon="15.5526017"><ele>440.80000000000007</ele><time>2026-04-26T12:38:28.853Z</time></trkpt><trkpt lat="40.5540533" lon="15.5525017"><ele>441.40000000000003</ele><time>2026-04-26T12:38:30.852Z</time></trkpt><trkpt lat="40.554115" lon="15.5524017"><ele>442.0</ele><time>2026-04-26T12:38:32.853Z</time></trkpt><trkpt lat="40.554185" lon="15.5523033"><ele>442.00000000000006</ele><time>2026-04-26T12:38:34.852Z</time></trkpt><trkpt lat="40.5542583" lon="15.5522033"><ele>442.0</ele><time>2026-04-26T12:38:36.852Z</time></trkpt><trkpt lat="40.5543033" lon="15.5521183"><ele>442.0</ele><time>2026-04-26T12:38:38.852Z</time></trkpt><trkpt lat="40.554355" lon="15.5520217"><ele>442.0</ele><time>2026-04-26T12:39:17.852Z</time></trkpt><trkpt lat="40.5544" lon="15.551955"><ele>442.00000000000006</ele><time>2026-04-26T12:39:19.853Z</time></trkpt><trkpt lat="40.554455" lon="15.5519017"><ele>442.0</ele><time>2026-04-26T12:39:21.853Z</time></trkpt><trkpt lat="40.55451" lon="15.55184"><ele>442.6666666666667</ele><time>2026-04-26T12:39:23.852Z</time></trkpt><trkpt lat="40.55457" lon="15.5518083"><ele>443.33333333333337</ele><time>2026-04-26T12:39:25.853Z</time></trkpt><trkpt lat="40.554645" lon="15.551755"><ele>444.0</ele><time>2026-04-26T12:39:28.852Z</time></trkpt><trkpt lat="40.554695" lon="15.55164"><ele>444.66666666666663</ele><time>2026-04-26T12:39:31.852Z</time></trkpt><trkpt lat="40.5547567" lon="15.5515067"><ele>445.3333333333333</ele><time>2026-04-26T12:39:33.853Z</time></trkpt><trkpt lat="40.554795" lon="15.55144"><ele>446.0</ele><time>2026-04-26T12:39:34.852Z</time></trkpt><trkpt lat="40.5548533" lon="15.5513217"><ele>446.0</ele><time>2026-04-26T12:39:36.853Z</time></trkpt><trkpt lat="40.55491" lon="15.55121"><ele>446.0</ele><time>2026-04-26T12:39:38.852Z</time></trkpt><trkpt lat="40.55497" lon="15.5511083"><ele>446.0</ele><time>2026-04-26T12:39:40.852Z</time></trkpt><trkpt lat="40.5550317" lon="15.550995"><ele>446.0</ele><time>2026-04-26T12:39:42.852Z</time></trkpt><trkpt lat="40.5550833" lon="15.5509083"><ele>446.0</ele><time>2026-04-26T12:39:44.852Z</time></trkpt><trkpt lat="40.5551283" lon="15.5508283"><ele>445.8333333333333</ele><time>2026-04-26T12:39:46.852Z</time></trkpt><trkpt lat="40.5551783" lon="15.55075"><ele>445.66666666666663</ele><time>2026-04-26T12:39:49.853Z</time></trkpt><trkpt lat="40.5552467" lon="15.5507217"><ele>445.5</ele><time>2026-04-26T12:39:55.853Z</time></trkpt><trkpt lat="40.5553283" lon="15.5506867"><ele>445.33333333333337</ele><time>2026-04-26T12:39:57.853Z</time></trkpt><trkpt lat="40.5553933" lon="15.5506283"><ele>445.1666666666667</ele><time>2026-04-26T12:39:59.853Z</time></trkpt><trkpt lat="40.5554517" lon="15.550565"><ele>445.0</ele><time>2026-04-26T12:40:01.852Z</time></trkpt><trkpt lat="40.5555" lon="15.5505"><ele>445.00000000000006</ele><time>2026-04-26T12:40:03.852Z</time></trkpt><trkpt lat="40.5555517" lon="15.5504217"><ele>445.0</ele><time>2026-04-26T12:40:05.852Z</time></trkpt><trkpt lat="40.5555817" lon="15.5503383"><ele>445.0</ele><time>2026-04-26T12:40:07.852Z</time></trkpt><trkpt lat="40.5556033" lon="15.5502483"><ele>445.0</ele><time>2026-04-26T12:40:10.853Z</time></trkpt><trkpt lat="40.555575" lon="15.55017"><ele>445.00000000000006</ele><time>2026-04-26T12:40:15.853Z</time></trkpt><trkpt lat="40.5554867" lon="15.5501"><ele>445.0</ele><time>2026-04-26T12:40:18.853Z</time></trkpt><trkpt lat="40.5554233" lon="15.5500317"><ele>441.8</ele><time>2026-04-26T12:40:21.852Z</time></trkpt><trkpt lat="40.5553767" lon="15.54996"><ele>438.6</ele><time>2026-04-26T12:40:33.853Z</time></trkpt><trkpt lat="40.55535" lon="15.54986"><ele>435.4</ele><time>2026-04-26T12:42:07.851Z</time></trkpt><trkpt lat="40.5553367" lon="15.54972"><ele>432.2</ele><time>2026-04-26T12:42:10.851Z</time></trkpt><trkpt lat="40.55531" lon="15.5495883"><ele>429.0</ele><time>2026-04-26T12:42:12.852Z</time></trkpt><trkpt lat="40.5552883" lon="15.549475"><ele>426.3333333333333</ele><time>2026-04-26T12:42:14.851Z</time></trkpt><trkpt lat="40.5552583" lon="15.549375"><ele>423.66666666666663</ele><time>2026-04-26T12:42:16.851Z</time></trkpt><trkpt lat="40.5552083" lon="15.5492817"><ele>421.0</ele><time>2026-04-26T12:42:19.851Z</time></trkpt><trkpt lat="40.55516" lon="15.54919"><ele>418.3333333333333</ele><time>2026-04-26T12:42:22.851Z</time></trkpt><trkpt lat="40.5551383" lon="15.5490883"><ele>415.66666666666663</ele><time>2026-04-26T12:42:25.851Z</time></trkpt><trkpt lat="40.55514" lon="15.5489967"><ele>413.0</ele><time>2026-04-26T12:42:35.852Z</time></trkpt><trkpt lat="40.55515" lon="15.548845"><ele>414.4</ele><time>2026-04-26T12:42:37.851Z</time></trkpt><trkpt lat="40.5551467" lon="15.54869"><ele>415.79999999999995</ele><time>2026-04-26T12:42:39.852Z</time></trkpt><trkpt lat="40.5551617" lon="15.548585"><ele>417.2</ele><time>2026-04-26T12:42:41.851Z</time></trkpt><trkpt lat="40.5552067" lon="15.5484833"><ele>418.6</ele><time>2026-04-26T12:42:43.852Z</time></trkpt><trkpt lat="40.5552467" lon="15.5483817"><ele>420.0</ele><time>2026-04-26T12:42:45.852Z</time></trkpt><trkpt lat="40.55529" lon="15.54828"><ele>420.0</ele><time>2026-04-26T12:42:47.851Z</time></trkpt><trkpt lat="40.555345" lon="15.5481767"><ele>420.0</ele><time>2026-04-26T12:42:49.851Z</time></trkpt><trkpt lat="40.5553917" lon="15.5480467"><ele>420.0</ele><time>2026-04-26T12:42:51.851Z</time></trkpt><trkpt lat="40.555425" lon="15.5479"><ele>420.0</ele><time>2026-04-26T12:42:53.851Z</time></trkpt><trkpt lat="40.55545" lon="15.5477467"><ele>420.0</ele><time>2026-04-26T12:42:55.852Z</time></trkpt><trkpt lat="40.55547" lon="15.5476667"><ele>419.0</ele><time>2026-04-26T12:42:56.851Z</time></trkpt><trkpt lat="40.5555017" lon="15.5475217"><ele>418.0</ele><time>2026-04-26T12:42:58.852Z</time></trkpt><trkpt lat="40.5555067" lon="15.547435"><ele>417.0</ele><time>2026-04-26T12:43:00.851Z</time></trkpt><trkpt lat="40.555525" lon="15.5473367"><ele>416.0</ele><time>2026-04-26T12:43:02.851Z</time></trkpt><trkpt lat="40.55556" lon="15.54721"><ele>415.0</ele><time>2026-04-26T12:43:04.852Z</time></trkpt><trkpt lat="40.5555833" lon="15.5470683"><ele>417.4</ele><time>2026-04-26T12:43:06.852Z</time></trkpt><trkpt lat="40.55559" lon="15.546955"><ele>419.8</ele><time>2026-04-26T12:43:08.852Z</time></trkpt><trkpt lat="40.5556183" lon="15.546845"><ele>422.20000000000005</ele><time>2026-04-26T12:43:10.851Z</time></trkpt><trkpt lat="40.5556517" lon="15.5467183"><ele>424.6</ele><time>2026-04-26T12:43:12.852Z</time></trkpt><trkpt lat="40.55565" lon="15.54659"><ele>427.0</ele><time>2026-04-26T12:43:14.851Z</time></trkpt><trkpt lat="40.555605" lon="15.5464417"><ele>427.0</ele><time>2026-04-26T12:43:16.851Z</time></trkpt><trkpt lat="40.5555917" lon="15.546305"><ele>427.00000000000006</ele><time>2026-04-26T12:43:18.852Z</time></trkpt><trkpt lat="40.5556567" lon="15.5461483"><ele>427.00000000000006</ele><time>2026-04-26T12:43:28.851Z</time></trkpt><trkpt lat="40.5557483" lon="15.546025"><ele>427.0</ele><time>2026-04-26T12:43:30.852Z</time></trkpt><trkpt lat="40.5558083" lon="15.5459617"><ele>427.0</ele><time>2026-04-26T12:43:31.851Z</time></trkpt><trkpt lat="40.55589" lon="15.545885"><ele>427.6666666666667</ele><time>2026-04-26T12:43:33.851Z</time></trkpt><trkpt lat="40.5559733" lon="15.545825"><ele>428.33333333333337</ele><time>2026-04-26T12:43:36.852Z</time></trkpt><trkpt lat="40.5560383" lon="15.54581"><ele>429.0</ele><time>2026-04-26T12:43:38.852Z</time></trkpt><trkpt lat="40.5561017" lon="15.545805"><ele>429.66666666666663</ele><time>2026-04-26T12:43:40.851Z</time></trkpt><trkpt lat="40.5561883" lon="15.5458367"><ele>430.3333333333333</ele><time>2026-04-26T12:43:42.852Z</time></trkpt><trkpt lat="40.5562983" lon="15.5458933"><ele>431.0</ele><time>2026-04-26T12:43:44.851Z</time></trkpt><trkpt lat="40.5564183" lon="15.5459517"><ele>431.0</ele><time>2026-04-26T12:43:46.852Z</time></trkpt><trkpt lat="40.5564833" lon="15.5459767"><ele>431.0</ele><time>2026-04-26T12:43:47.852Z</time></trkpt><trkpt lat="40.55655" lon="15.545985"><ele>431.0</ele><time>2026-04-26T12:43:48.851Z</time></trkpt><trkpt lat="40.5566117" lon="15.5459683"><ele>431.0</ele><time>2026-04-26T12:43:49.851Z</time></trkpt><trkpt lat="40.556675" lon="15.545935"><ele>431.0</ele><time>2026-04-26T12:43:50.852Z</time></trkpt><trkpt lat="40.5567333" lon="15.5458867"><ele>431.0</ele><time>2026-04-26T12:43:51.852Z</time></trkpt><trkpt lat="40.556785" lon="15.5458267"><ele>431.0</ele><time>2026-04-26T12:43:52.852Z</time></trkpt><trkpt lat="40.5568383" lon="15.5457617"><ele>431.0</ele><time>2026-04-26T12:43:53.852Z</time></trkpt><trkpt lat="40.5568917" lon="15.5456883"><ele>431.0</ele><time>2026-04-26T12:43:54.851Z</time></trkpt><trkpt lat="40.5569683" lon="15.5455867"><ele>431.0</ele><time>2026-04-26T12:43:55.851Z</time></trkpt><trkpt lat="40.5570617" lon="15.5454683"><ele>431.0</ele><time>2026-04-26T12:43:56.851Z</time></trkpt><trkpt lat="40.5571617" lon="15.54537"><ele>431.0</ele><time>2026-04-26T12:43:57.851Z</time></trkpt><trkpt lat="40.5572517" lon="15.5453033"><ele>431.16666666666663</ele><time>2026-04-26T12:43:58.852Z</time></trkpt><trkpt lat="40.5573283" lon="15.5452583"><ele>431.3333333333333</ele><time>2026-04-26T12:43:59.852Z</time></trkpt><trkpt lat="40.5573983" lon="15.54523"><ele>431.5</ele><time>2026-04-26T12:44:00.852Z</time></trkpt><trkpt lat="40.5575233" lon="15.54523"><ele>431.66666666666663</ele><time>2026-04-26T12:44:02.851Z</time></trkpt><trkpt lat="40.5575883" lon="15.54525"><ele>431.8333333333333</ele><time>2026-04-26T12:44:03.851Z</time></trkpt><trkpt lat="40.5576683" lon="15.5452733"><ele>432.0</ele><time>2026-04-26T12:44:04.852Z</time></trkpt><trkpt lat="40.557775" lon="15.5452983"><ele>430.40000000000003</ele><time>2026-04-26T12:44:05.852Z</time></trkpt><trkpt lat="40.55789" lon="15.5453317"><ele>428.80000000000007</ele><time>2026-04-26T12:44:06.851Z</time></trkpt><trkpt lat="40.5579967" lon="15.545345"><ele>427.2</ele><time>2026-04-26T12:44:07.852Z</time></trkpt><trkpt lat="40.5580817" lon="15.54534"><ele>425.6</ele><time>2026-04-26T12:44:08.852Z</time></trkpt><trkpt lat="40.5581583" lon="15.5453133"><ele>424.0</ele><time>2026-04-26T12:44:09.851Z</time></trkpt><trkpt lat="40.5582167" lon="15.5452683"><ele>424.00000000000006</ele><time>2026-04-26T12:44:10.852Z</time></trkpt><trkpt lat="40.5582767" lon="15.545215"><ele>424.0</ele><time>2026-04-26T12:44:11.852Z</time></trkpt><trkpt lat="40.5583433" lon="15.5451183"><ele>424.0</ele><time>2026-04-26T12:44:13.852Z</time></trkpt><trkpt lat="40.55842" lon="15.5450317"><ele>424.0</ele><time>2026-04-26T12:44:15.852Z</time></trkpt><trkpt lat="40.55847" lon="15.5449783"><ele>424.00000000000006</ele><time>2026-04-26T12:44:16.851Z</time></trkpt><trkpt lat="40.5585233" lon="15.54492"><ele>424.0</ele><time>2026-04-26T12:44:17.851Z</time></trkpt><trkpt lat="40.5585683" lon="15.5448583"><ele>424.00000000000006</ele><time>2026-04-26T12:44:18.851Z</time></trkpt><trkpt lat="40.5586233" lon="15.5447983"><ele>424.0</ele><time>2026-04-26T12:44:20.852Z</time></trkpt><trkpt lat="40.5585567" lon="15.5448517"><ele>424.0</ele><time>2026-04-26T12:44:28.852Z</time></trkpt><trkpt lat="40.5584917" lon="15.54493"><ele>424.0</ele><time>2026-04-26T12:44:29.851Z</time></trkpt><trkpt lat="40.5584133" lon="15.5450183"><ele>424.00000000000006</ele><time>2026-04-26T12:44:30.851Z</time></trkpt><trkpt lat="40.5583367" lon="15.5451"><ele>424.0</ele><time>2026-04-26T12:44:31.852Z</time></trkpt><trkpt lat="40.5582717" lon="15.5451767"><ele>424.0</ele><time>2026-04-26T12:44:32.852Z</time></trkpt><trkpt lat="40.5582133" lon="15.5452383"><ele>424.0</ele><time>2026-04-26T12:44:33.851Z</time></trkpt><trkpt lat="40.558155" lon="15.5452867"><ele>424.0</ele><time>2026-04-26T12:44:34.852Z</time></trkpt><trkpt lat="40.55809" lon="15.545325"><ele>424.0</ele><time>2026-04-26T12:44:35.852Z</time></trkpt><trkpt lat="40.5580167" lon="15.5453417"><ele>424.0</ele><time>2026-04-26T12:44:36.851Z</time></trkpt><trkpt lat="40.557945" lon="15.5453317"><ele>424.0</ele><time>2026-04-26T12:44:37.852Z</time></trkpt><trkpt lat="40.5578683" lon="15.545305"><ele>424.0</ele><time>2026-04-26T12:44:38.851Z</time></trkpt><trkpt lat="40.5578033" lon="15.54528"><ele>425.33333333333337</ele><time>2026-04-26T12:44:39.852Z</time></trkpt><trkpt lat="40.5577417" lon="15.5452533"><ele>426.6666666666667</ele><time>2026-04-26T12:44:40.852Z</time></trkpt><trkpt lat="40.5576283" lon="15.5452167"><ele>428.0</ele><time>2026-04-26T12:44:42.852Z</time></trkpt><trkpt lat="40.5575317" lon="15.5451933"><ele>429.33333333333337</ele><time>2026-04-26T12:44:44.852Z</time></trkpt><trkpt lat="40.5574667" lon="15.545175"><ele>430.6666666666667</ele><time>2026-04-26T12:44:46.852Z</time></trkpt><trkpt lat="40.5574583" lon="15.5450867"><ele>432.0</ele><time>2026-04-26T12:44:50.851Z</time></trkpt><trkpt lat="40.5575417" lon="15.5450033"><ele>432.0</ele><time>2026-04-26T12:44:59.851Z</time></trkpt><trkpt lat="40.5576283" lon="15.5448783"><ele>432.0</ele><time>2026-04-26T12:45:01.852Z</time></trkpt><trkpt lat="40.5576883" lon="15.5448133"><ele>432.0</ele><time>2026-04-26T12:45:02.852Z</time></trkpt><trkpt lat="40.5577483" lon="15.5447633"><ele>432.0</ele><time>2026-04-26T12:45:03.851Z</time></trkpt><trkpt lat="40.5578167" lon="15.5447167"><ele>432.0</ele><time>2026-04-26T12:45:04.852Z</time></trkpt><trkpt lat="40.557885" lon="15.5446767"><ele>432.0</ele><time>2026-04-26T12:45:05.851Z</time></trkpt><trkpt lat="40.5579533" lon="15.544635"><ele>431.5</ele><time>2026-04-26T12:45:06.852Z</time></trkpt><trkpt lat="40.5580267" lon="15.5446017"><ele>431.0</ele><time>2026-04-26T12:45:07.852Z</time></trkpt><trkpt lat="40.5581033" lon="15.5445717"><ele>430.5</ele><time>2026-04-26T12:45:08.852Z</time></trkpt><trkpt lat="40.5581817" lon="15.544535"><ele>430.0</ele><time>2026-04-26T12:45:09.851Z</time></trkpt><trkpt lat="40.5582567" lon="15.5444767"><ele>429.5</ele><time>2026-04-26T12:45:10.852Z</time></trkpt><trkpt lat="40.55834" lon="15.5443883"><ele>429.0</ele><time>2026-04-26T12:45:11.851Z</time></trkpt><trkpt lat="40.558425" lon="15.5442683"><ele>429.0</ele><time>2026-04-26T12:45:12.852Z</time></trkpt><trkpt lat="40.5585017" lon="15.5441483"><ele>429.0</ele><time>2026-04-26T12:45:13.852Z</time></trkpt><trkpt lat="40.55856" lon="15.5440133"><ele>429.0</ele><time>2026-04-26T12:45:14.851Z</time></trkpt><trkpt lat="40.5585967" lon="15.5438533"><ele>429.0</ele><time>2026-04-26T12:45:15.852Z</time></trkpt><trkpt lat="40.5586167" lon="15.54366"><ele>431.0</ele><time>2026-04-26T12:45:16.852Z</time></trkpt><trkpt lat="40.5586333" lon="15.5434517"><ele>433.0</ele><time>2026-04-26T12:45:17.852Z</time></trkpt><trkpt lat="40.5586667" lon="15.5432383"><ele>435.0</ele><time>2026-04-26T12:45:18.852Z</time></trkpt><trkpt lat="40.558695" lon="15.5430467"><ele>436.2</ele><time>2026-04-26T12:45:19.851Z</time></trkpt><trkpt lat="40.5587217" lon="15.5428783"><ele>437.4</ele><time>2026-04-26T12:45:20.852Z</time></trkpt><trkpt lat="40.558745" lon="15.54274"><ele>438.6</ele><time>2026-04-26T12:45:21.852Z</time></trkpt><trkpt lat="40.5587733" lon="15.542615"><ele>439.8</ele><time>2026-04-26T12:45:22.852Z</time></trkpt><trkpt lat="40.5588067" lon="15.5424917"><ele>441.0</ele><time>2026-04-26T12:45:23.851Z</time></trkpt><trkpt lat="40.5588533" lon="15.5423683"><ele>441.0</ele><time>2026-04-26T12:45:24.852Z</time></trkpt><trkpt lat="40.5589167" lon="15.5422333"><ele>441.0</ele><time>2026-04-26T12:45:25.852Z</time></trkpt><trkpt lat="40.5589767" lon="15.5420767"><ele>441.0</ele><time>2026-04-26T12:45:26.851Z</time></trkpt><trkpt lat="40.5590417" lon="15.5419217"><ele>441.0</ele><time>2026-04-26T12:45:27.851Z</time></trkpt><trkpt lat="40.55907" lon="15.5417683"><ele>442.0</ele><time>2026-04-26T12:45:28.851Z</time></trkpt><trkpt lat="40.5590817" lon="15.5416283"><ele>443.0</ele><time>2026-04-26T12:45:29.852Z</time></trkpt><trkpt lat="40.5590783" lon="15.5415033"><ele>444.0</ele><time>2026-04-26T12:45:30.852Z</time></trkpt><trkpt lat="40.55906" lon="15.54137"><ele>445.0</ele><time>2026-04-26T12:45:31.851Z</time></trkpt><trkpt lat="40.559035" lon="15.5412383"><ele>446.0</ele><time>2026-04-26T12:45:32.852Z</time></trkpt><trkpt lat="40.5590067" lon="15.541095"><ele>447.8333333333333</ele><time>2026-04-26T12:45:33.851Z</time></trkpt><trkpt lat="40.55898" lon="15.54096"><ele>449.66666666666663</ele><time>2026-04-26T12:45:34.851Z</time></trkpt><trkpt lat="40.5589533" lon="15.5408417"><ele>451.5</ele><time>2026-04-26T12:45:35.851Z</time></trkpt><trkpt lat="40.5589317" lon="15.540745"><ele>453.33333333333337</ele><time>2026-04-26T12:45:36.852Z</time></trkpt><trkpt lat="40.5589" lon="15.5406517"><ele>455.1666666666667</ele><time>2026-04-26T12:45:37.851Z</time></trkpt><trkpt lat="40.5588617" lon="15.54058"><ele>457.0</ele><time>2026-04-26T12:45:38.852Z</time></trkpt><trkpt lat="40.5588" lon="15.5405067"><ele>457.0</ele><time>2026-04-26T12:45:40.852Z</time></trkpt><trkpt lat="40.55881" lon="15.5404117"><ele>457.0</ele><time>2026-04-26T12:45:43.852Z</time></trkpt><trkpt lat="40.5589467" lon="15.5403433"><ele>457.0</ele><time>2026-04-26T12:45:45.852Z</time></trkpt><trkpt lat="40.5590567" lon="15.5402917"><ele>457.0</ele><time>2026-04-26T12:45:46.851Z</time></trkpt><trkpt lat="40.5591883" lon="15.5402283"><ele>459.0</ele><time>2026-04-26T12:45:47.852Z</time></trkpt><trkpt lat="40.55933" lon="15.5401633"><ele>461.0</ele><time>2026-04-26T12:45:48.852Z</time></trkpt><trkpt lat="40.55947" lon="15.5400983"><ele>463.0</ele><time>2026-04-26T12:45:49.852Z</time></trkpt><trkpt lat="40.5596133" lon="15.5400167"><ele>464.5</ele><time>2026-04-26T12:45:50.851Z</time></trkpt><trkpt lat="40.5597417" lon="15.5399117"><ele>466.0</ele><time>2026-04-26T12:45:51.852Z</time></trkpt><trkpt lat="40.5598483" lon="15.53981"><ele>467.5</ele><time>2026-04-26T12:45:52.851Z</time></trkpt><trkpt lat="40.559935" lon="15.5396967"><ele>469.0</ele><time>2026-04-26T12:45:53.852Z</time></trkpt><trkpt lat="40.5600083" lon="15.539575"><ele>471.5</ele><time>2026-04-26T12:45:54.851Z</time></trkpt><trkpt lat="40.5600717" lon="15.5394367"><ele>474.0</ele><time>2026-04-26T12:45:55.851Z</time></trkpt><trkpt lat="40.56013" lon="15.5392717"><ele>476.5</ele><time>2026-04-26T12:45:56.851Z</time></trkpt><trkpt lat="40.56018" lon="15.5391017"><ele>479.0</ele><time>2026-04-26T12:45:57.851Z</time></trkpt><trkpt lat="40.5602167" lon="15.5389333"><ele>479.0</ele><time>2026-04-26T12:45:58.851Z</time></trkpt><trkpt lat="40.56024" lon="15.5387683"><ele>479.0</ele><time>2026-04-26T12:45:59.851Z</time></trkpt><trkpt lat="40.56025" lon="15.5386367"><ele>479.0</ele><time>2026-04-26T12:46:00.851Z</time></trkpt><trkpt lat="40.5602533" lon="15.53853"><ele>479.0</ele><time>2026-04-26T12:46:01.851Z</time></trkpt><trkpt lat="40.560265" lon="15.53839"><ele>479.0</ele><time>2026-04-26T12:46:03.851Z</time></trkpt><trkpt lat="40.5602183" lon="15.538195"><ele>480.8333333333333</ele><time>2026-04-26T12:46:06.851Z</time></trkpt><trkpt lat="40.5602033" lon="15.5380983"><ele>482.66666666666663</ele><time>2026-04-26T12:46:07.851Z</time></trkpt><trkpt lat="40.5601833" lon="15.5379967"><ele>484.5</ele><time>2026-04-26T12:46:08.851Z</time></trkpt><trkpt lat="40.560155" lon="15.537885"><ele>486.33333333333337</ele><time>2026-04-26T12:46:09.851Z</time></trkpt><trkpt lat="40.560115" lon="15.537765"><ele>488.1666666666667</ele><time>2026-04-26T12:46:10.85Z</time></trkpt><trkpt lat="40.5600767" lon="15.53764"><ele>490.0</ele><time>2026-04-26T12:46:11.85Z</time></trkpt><trkpt lat="40.56004" lon="15.5375067"><ele>491.83333333333337</ele><time>2026-04-26T12:46:12.851Z</time></trkpt><trkpt lat="40.5600083" lon="15.537365"><ele>493.6666666666667</ele><time>2026-04-26T12:46:13.851Z</time></trkpt><trkpt lat="40.5600033" lon="15.537245"><ele>495.5</ele><time>2026-04-26T12:46:14.85Z</time></trkpt><trkpt lat="40.5600033" lon="15.53714"><ele>497.33333333333337</ele><time>2026-04-26T12:46:15.851Z</time></trkpt><trkpt lat="40.5600167" lon="15.537055"><ele>499.1666666666667</ele><time>2026-04-26T12:46:16.85Z</time></trkpt><trkpt lat="40.5600433" lon="15.5369667"><ele>501.0</ele><time>2026-04-26T12:46:17.851Z</time></trkpt><trkpt lat="40.56006" lon="15.5368717"><ele>502.5</ele><time>2026-04-26T12:46:18.85Z</time></trkpt><trkpt lat="40.5600717" lon="15.5367833"><ele>504.0</ele><time>2026-04-26T12:46:19.851Z</time></trkpt><trkpt lat="40.560075" lon="15.53665"><ele>505.5</ele><time>2026-04-26T12:46:21.851Z</time></trkpt><trkpt lat="40.5601033" lon="15.53653"><ele>507.0</ele><time>2026-04-26T12:46:23.851Z</time></trkpt><trkpt lat="40.5601467" lon="15.5364533"><ele>508.5</ele><time>2026-04-26T12:46:24.85Z</time></trkpt><trkpt lat="40.56021" lon="15.536355"><ele>510.0</ele><time>2026-04-26T12:46:25.85Z</time></trkpt><trkpt lat="40.56029" lon="15.5362383"><ele>510.0</ele><time>2026-04-26T12:46:26.85Z</time></trkpt><trkpt lat="40.5603767" lon="15.53611"><ele>510.0</ele><time>2026-04-26T12:46:27.85Z</time></trkpt><trkpt lat="40.5604633" lon="15.53598"><ele>510.0</ele><time>2026-04-26T12:46:28.85Z</time></trkpt><trkpt lat="40.5605517" lon="15.5358533"><ele>510.0</ele><time>2026-04-26T12:46:29.851Z</time></trkpt><trkpt lat="40.5606583" lon="15.5357117"><ele>510.0</ele><time>2026-04-26T12:46:30.851Z</time></trkpt><trkpt lat="40.5607733" lon="15.5355517"><ele>510.0</ele><time>2026-04-26T12:46:31.85Z</time></trkpt><trkpt lat="40.5608967" lon="15.5353883"><ele>510.0</ele><time>2026-04-26T12:46:32.851Z</time></trkpt><trkpt lat="40.5610267" lon="15.5352233"><ele>512.6666666666666</ele><time>2026-04-26T12:46:33.85Z</time></trkpt><trkpt lat="40.5611633" lon="15.5350383"><ele>515.3333333333333</ele><time>2026-04-26T12:46:34.851Z</time></trkpt><trkpt lat="40.5613067" lon="15.5348517"><ele>518.0</ele><time>2026-04-26T12:46:35.851Z</time></trkpt><trkpt lat="40.5614417" lon="15.5346717"><ele>521.5</ele><time>2026-04-26T12:46:36.85Z</time></trkpt><trkpt lat="40.561565" lon="15.5345133"><ele>525.0</ele><time>2026-04-26T12:46:37.851Z</time></trkpt><trkpt lat="40.5616717" lon="15.5343717"><ele>528.5</ele><time>2026-04-26T12:46:38.851Z</time></trkpt><trkpt lat="40.5617583" lon="15.5342567"><ele>532.0</ele><time>2026-04-26T12:46:39.85Z</time></trkpt><trkpt lat="40.5618317" lon="15.534165"><ele>532.0</ele><time>2026-04-26T12:46:40.85Z</time></trkpt><trkpt lat="40.5618967" lon="15.5340867"><ele>532.0</ele><time>2026-04-26T12:46:41.851Z</time></trkpt><trkpt lat="40.56196" lon="15.5340083"><ele>532.0</ele><time>2026-04-26T12:46:42.85Z</time></trkpt><trkpt lat="40.5620183" lon="15.5339117"><ele>532.0</ele><time>2026-04-26T12:46:43.851Z</time></trkpt><trkpt lat="40.56209" lon="15.5338067"><ele>532.0</ele><time>2026-04-26T12:46:44.851Z</time></trkpt><trkpt lat="40.5621683" lon="15.5337"><ele>533.5</ele><time>2026-04-26T12:46:45.851Z</time></trkpt><trkpt lat="40.562255" lon="15.53359"><ele>535.0</ele><time>2026-04-26T12:46:46.851Z</time></trkpt><trkpt lat="40.5623383" lon="15.5334717"><ele>536.5</ele><time>2026-04-26T12:46:47.85Z</time></trkpt><trkpt lat="40.5624083" lon="15.533335"><ele>538.0</ele><time>2026-04-26T12:46:48.85Z</time></trkpt><trkpt lat="40.5624633" lon="15.5332133"><ele>538.0</ele><time>2026-04-26T12:46:49.851Z</time></trkpt><trkpt lat="40.5625" lon="15.533095"><ele>538.0</ele><time>2026-04-26T12:46:50.85Z</time></trkpt><trkpt lat="40.5625217" lon="15.5329867"><ele>538.0</ele><time>2026-04-26T12:46:51.851Z</time></trkpt><trkpt lat="40.5625333" lon="15.5328633"><ele>538.0</ele><time>2026-04-26T12:46:52.85Z</time></trkpt><trkpt lat="40.5625467" lon="15.53273"><ele>538.0</ele><time>2026-04-26T12:46:53.85Z</time></trkpt><trkpt lat="40.5625517" lon="15.532585"><ele>539.75</ele><time>2026-04-26T12:46:54.851Z</time></trkpt><trkpt lat="40.56256" lon="15.5324333"><ele>541.5</ele><time>2026-04-26T12:46:55.85Z</time></trkpt><trkpt lat="40.5625683" lon="15.53227"><ele>543.25</ele><time>2026-04-26T12:46:56.85Z</time></trkpt><trkpt lat="40.5625783" lon="15.5321133"><ele>545.0</ele><time>2026-04-26T12:46:57.85Z</time></trkpt><trkpt lat="40.56259" lon="15.5319717"><ele>546.5</ele><time>2026-04-26T12:46:58.851Z</time></trkpt><trkpt lat="40.562595" lon="15.5318517"><ele>548.0</ele><time>2026-04-26T12:46:59.85Z</time></trkpt><trkpt lat="40.5626017" lon="15.5317467"><ele>549.5</ele><time>2026-04-26T12:47:00.85Z</time></trkpt><trkpt lat="40.5626133" lon="15.5316467"><ele>551.0</ele><time>2026-04-26T12:47:01.85Z</time></trkpt><trkpt lat="40.56263" lon="15.5315333"><ele>552.5</ele><time>2026-04-26T12:47:02.851Z</time></trkpt><trkpt lat="40.56265" lon="15.5313983"><ele>554.0</ele><time>2026-04-26T12:47:03.851Z</time></trkpt><trkpt lat="40.5626667" lon="15.5312567"><ele>556.0</ele><time>2026-04-26T12:47:04.851Z</time></trkpt><trkpt lat="40.5626733" lon="15.5311067"><ele>558.0</ele><time>2026-04-26T12:47:05.851Z</time></trkpt><trkpt lat="40.56268" lon="15.5309467"><ele>560.0</ele><time>2026-04-26T12:47:06.85Z</time></trkpt><trkpt lat="40.56267" lon="15.530785"><ele>562.0</ele><time>2026-04-26T12:47:07.85Z</time></trkpt><trkpt lat="40.5626517" lon="15.5306133"><ele>562.0</ele><time>2026-04-26T12:47:08.851Z</time></trkpt><trkpt lat="40.562635" lon="15.5304233"><ele>562.0</ele><time>2026-04-26T12:47:09.851Z</time></trkpt><trkpt lat="40.562625" lon="15.5302283"><ele>562.0</ele><time>2026-04-26T12:47:10.85Z</time></trkpt><trkpt lat="40.562635" lon="15.5300417"><ele>562.0</ele><time>2026-04-26T12:47:11.85Z</time></trkpt><trkpt lat="40.5626733" lon="15.5298433"><ele>561.6666666666667</ele><time>2026-04-26T12:47:12.851Z</time></trkpt><trkpt lat="40.5627333" lon="15.5296467"><ele>561.3333333333334</ele><time>2026-04-26T12:47:13.851Z</time></trkpt><trkpt lat="40.5628117" lon="15.5294433"><ele>561.0</ele><time>2026-04-26T12:47:14.851Z</time></trkpt><trkpt lat="40.5629083" lon="15.52925"><ele>561.0</ele><time>2026-04-26T12:47:15.85Z</time></trkpt><trkpt lat="40.5630133" lon="15.5290567"><ele>561.0</ele><time>2026-04-26T12:47:16.85Z</time></trkpt><trkpt lat="40.5631" lon="15.5288533"><ele>561.0</ele><time>2026-04-26T12:47:17.851Z</time></trkpt><trkpt lat="40.5631767" lon="15.52864"><ele>565.3333333333334</ele><time>2026-04-26T12:47:18.851Z</time></trkpt><trkpt lat="40.56324" lon="15.528425"><ele>569.6666666666667</ele><time>2026-04-26T12:47:19.851Z</time></trkpt><trkpt lat="40.5632767" lon="15.5282317"><ele>574.0</ele><time>2026-04-26T12:47:20.85Z</time></trkpt><trkpt lat="40.5633067" lon="15.5280633"><ele>574.0</ele><time>2026-04-26T12:47:21.851Z</time></trkpt><trkpt lat="40.5633267" lon="15.52791"><ele>574.0</ele><time>2026-04-26T12:47:22.851Z</time></trkpt><trkpt lat="40.5633217" lon="15.5277683"><ele>574.0</ele><time>2026-04-26T12:47:23.85Z</time></trkpt><trkpt lat="40.563295" lon="15.5276133"><ele>574.0</ele><time>2026-04-26T12:47:24.851Z</time></trkpt><trkpt lat="40.5632633" lon="15.5274733"><ele>575.6</ele><time>2026-04-26T12:47:25.85Z</time></trkpt><trkpt lat="40.563255" lon="15.5273483"><ele>577.2</ele><time>2026-04-26T12:47:26.85Z</time></trkpt><trkpt lat="40.5632883" lon="15.5272267"><ele>578.8000000000001</ele><time>2026-04-26T12:47:27.851Z</time></trkpt><trkpt lat="40.5633433" lon="15.5270967"><ele>580.4</ele><time>2026-04-26T12:47:28.85Z</time></trkpt><trkpt lat="40.5634167" lon="15.52695"><ele>582.0</ele><time>2026-04-26T12:47:29.85Z</time></trkpt><trkpt lat="40.5634933" lon="15.5267833"><ele>584.3333333333334</ele><time>2026-04-26T12:47:30.851Z</time></trkpt><trkpt lat="40.5635833" lon="15.5266"><ele>586.6666666666667</ele><time>2026-04-26T12:47:31.85Z</time></trkpt><trkpt lat="40.5636833" lon="15.5263933"><ele>589.0</ele><time>2026-04-26T12:47:32.851Z</time></trkpt><trkpt lat="40.56378" lon="15.5261817"><ele>589.0</ele><time>2026-04-26T12:47:33.851Z</time></trkpt><trkpt lat="40.5638733" lon="15.52597"><ele>589.0</ele><time>2026-04-26T12:47:34.851Z</time></trkpt><trkpt lat="40.56398" lon="15.525775"><ele>589.0</ele><time>2026-04-26T12:47:35.851Z</time></trkpt><trkpt lat="40.5640867" lon="15.5255967"><ele>589.0</ele><time>2026-04-26T12:47:36.85Z</time></trkpt><trkpt lat="40.5641967" lon="15.5254217"><ele>589.0</ele><time>2026-04-26T12:47:37.851Z</time></trkpt><trkpt lat="40.5643017" lon="15.5252483"><ele>589.0</ele><time>2026-04-26T12:47:38.85Z</time></trkpt><trkpt lat="40.5644067" lon="15.525075"><ele>584.0</ele><time>2026-04-26T12:47:39.85Z</time></trkpt><trkpt lat="40.56451" lon="15.524905"><ele>579.0</ele><time>2026-04-26T12:47:40.85Z</time></trkpt><trkpt lat="40.5646133" lon="15.52474"><ele>574.0</ele><time>2026-04-26T12:47:41.85Z</time></trkpt><trkpt lat="40.5647217" lon="15.5245683"><ele>584.3333333333334</ele><time>2026-04-26T12:47:42.85Z</time></trkpt><trkpt lat="40.5648267" lon="15.5243883"><ele>594.6666666666666</ele><time>2026-04-26T12:47:43.85Z</time></trkpt><trkpt lat="40.5649333" lon="15.52421"><ele>605.0</ele><time>2026-04-26T12:47:44.85Z</time></trkpt><trkpt lat="40.56504" lon="15.5240433"><ele>605.0</ele><time>2026-04-26T12:47:45.851Z</time></trkpt><trkpt lat="40.5651433" lon="15.52388"><ele>605.0</ele><time>2026-04-26T12:47:46.851Z</time></trkpt><trkpt lat="40.5652267" lon="15.5237117"><ele>605.0</ele><time>2026-04-26T12:47:47.85Z</time></trkpt><trkpt lat="40.5652917" lon="15.5235533"><ele>613.5</ele><time>2026-04-26T12:47:48.85Z</time></trkpt><trkpt lat="40.5653233" lon="15.5233933"><ele>622.0</ele><time>2026-04-26T12:47:49.851Z</time></trkpt><trkpt lat="40.5653283" lon="15.5232467"><ele>630.5</ele><time>2026-04-26T12:47:50.851Z</time></trkpt><trkpt lat="40.5653" lon="15.52311"><ele>639.0</ele><time>2026-04-26T12:47:51.85Z</time></trkpt><trkpt lat="40.5652567" lon="15.52298"><ele>642.6</ele><time>2026-04-26T12:47:52.85Z</time></trkpt><trkpt lat="40.56522" lon="15.5228583"><ele>646.2</ele><time>2026-04-26T12:47:53.85Z</time></trkpt><trkpt lat="40.5652183" lon="15.52273"><ele>649.8000000000001</ele><time>2026-04-26T12:47:54.85Z</time></trkpt><trkpt lat="40.5652467" lon="15.522595"><ele>653.4</ele><time>2026-04-26T12:47:55.85Z</time></trkpt><trkpt lat="40.5652933" lon="15.522445"><ele>657.0</ele><time>2026-04-26T12:47:56.85Z</time></trkpt><trkpt lat="40.5653583" lon="15.5222917"><ele>644.75</ele><time>2026-04-26T12:47:57.85Z</time></trkpt><trkpt lat="40.5654367" lon="15.5221367"><ele>632.5</ele><time>2026-04-26T12:47:58.851Z</time></trkpt><trkpt lat="40.565525" lon="15.522"><ele>620.25</ele><time>2026-04-26T12:47:59.85Z</time></trkpt><trkpt lat="40.565605" lon="15.52187"><ele>608.0</ele><time>2026-04-26T12:48:00.851Z</time></trkpt><trkpt lat="40.5656533" lon="15.5217317"><ele>608.0</ele><time>2026-04-26T12:48:01.85Z</time></trkpt><trkpt lat="40.565665" lon="15.5215767"><ele>608.0</ele><time>2026-04-26T12:48:02.851Z</time></trkpt><trkpt lat="40.56566" lon="15.5214167"><ele>608.0</ele><time>2026-04-26T12:48:03.851Z</time></trkpt><trkpt lat="40.5656633" lon="15.52126"><ele>608.0</ele><time>2026-04-26T12:48:04.85Z</time></trkpt><trkpt lat="40.5656967" lon="15.5211117"><ele>612.0</ele><time>2026-04-26T12:48:05.851Z</time></trkpt><trkpt lat="40.5657333" lon="15.5209817"><ele>616.0</ele><time>2026-04-26T12:48:06.85Z</time></trkpt><trkpt lat="40.5657717" lon="15.52087"><ele>620.0</ele><time>2026-04-26T12:48:07.851Z</time></trkpt><trkpt lat="40.565795" lon="15.5207683"><ele>624.0</ele><time>2026-04-26T12:48:08.85Z</time></trkpt><trkpt lat="40.565805" lon="15.5206633"><ele>628.0</ele><time>2026-04-26T12:48:09.851Z</time></trkpt><trkpt lat="40.5657967" lon="15.520545"><ele>628.0</ele><time>2026-04-26T12:48:10.85Z</time></trkpt><trkpt lat="40.5657733" lon="15.5204317"><ele>628.0</ele><time>2026-04-26T12:48:11.851Z</time></trkpt><trkpt lat="40.56575" lon="15.5203033"><ele>628.0</ele><time>2026-04-26T12:48:12.851Z</time></trkpt><trkpt lat="40.5657217" lon="15.5201617"><ele>628.0</ele><time>2026-04-26T12:48:13.851Z</time></trkpt><trkpt lat="40.56569" lon="15.5200267"><ele>628.0</ele><time>2026-04-26T12:48:14.85Z</time></trkpt><trkpt lat="40.5656633" lon="15.5198867"><ele>631.0</ele><time>2026-04-26T12:48:15.851Z</time></trkpt><trkpt lat="40.56564" lon="15.5197467"><ele>634.0</ele><time>2026-04-26T12:48:16.85Z</time></trkpt><trkpt lat="40.5656267" lon="15.5196067"><ele>637.0</ele><time>2026-04-26T12:48:17.85Z</time></trkpt><trkpt lat="40.5656367" lon="15.5194567"><ele>640.0</ele><time>2026-04-26T12:48:18.851Z</time></trkpt><trkpt lat="40.56565" lon="15.519315"><ele>643.0</ele><time>2026-04-26T12:48:19.85Z</time></trkpt><trkpt lat="40.5656567" lon="15.5191883"><ele>643.3333333333334</ele><time>2026-04-26T12:48:20.851Z</time></trkpt><trkpt lat="40.5656483" lon="15.5190883"><ele>643.6666666666667</ele><time>2026-04-26T12:48:21.851Z</time></trkpt><trkpt lat="40.56562" lon="15.51899"><ele>644.0</ele><time>2026-04-26T12:48:22.85Z</time></trkpt><trkpt lat="40.5655983" lon="15.5188917"><ele>644.3333333333334</ele><time>2026-04-26T12:48:23.85Z</time></trkpt><trkpt lat="40.56559" lon="15.5187917"><ele>644.6666666666666</ele><time>2026-04-26T12:48:24.851Z</time></trkpt><trkpt lat="40.565595" lon="15.51869"><ele>645.0</ele><time>2026-04-26T12:48:25.851Z</time></trkpt><trkpt lat="40.5656133" lon="15.5185817"><ele>648.0</ele><time>2026-04-26T12:48:26.851Z</time></trkpt><trkpt lat="40.565645" lon="15.5184733"><ele>651.0</ele><time>2026-04-26T12:48:27.851Z</time></trkpt><trkpt lat="40.565685" lon="15.518365"><ele>654.0</ele><time>2026-04-26T12:48:28.85Z</time></trkpt><trkpt lat="40.5657333" lon="15.5182667"><ele>657.0</ele><time>2026-04-26T12:48:29.851Z</time></trkpt><trkpt lat="40.5657917" lon="15.5181667"><ele>660.0</ele><time>2026-04-26T12:48:30.85Z</time></trkpt><trkpt lat="40.5658517" lon="15.5180633"><ele>660.0</ele><time>2026-04-26T12:48:31.85Z</time></trkpt><trkpt lat="40.565915" lon="15.5179733"><ele>660.0</ele><time>2026-04-26T12:48:32.85Z</time></trkpt><trkpt lat="40.5659733" lon="15.517885"><ele>660.0</ele><time>2026-04-26T12:48:33.851Z</time></trkpt><trkpt lat="40.5660367" lon="15.5177967"><ele>660.0</ele><time>2026-04-26T12:48:34.851Z</time></trkpt><trkpt lat="40.5660967" lon="15.5176917"><ele>660.0</ele><time>2026-04-26T12:48:35.851Z</time></trkpt><trkpt lat="40.5661517" lon="15.5175767"><ele>662.5</ele><time>2026-04-26T12:48:36.85Z</time></trkpt><trkpt lat="40.5662083" lon="15.5174533"><ele>665.0</ele><time>2026-04-26T12:48:37.85Z</time></trkpt><trkpt lat="40.5662517" lon="15.51732"><ele>667.5</ele><time>2026-04-26T12:48:38.85Z</time></trkpt><trkpt lat="40.566295" lon="15.51718"><ele>670.0</ele><time>2026-04-26T12:48:39.851Z</time></trkpt><trkpt lat="40.5663283" lon="15.517035"><ele>670.0</ele><time>2026-04-26T12:48:40.85Z</time></trkpt><trkpt lat="40.5663533" lon="15.5168917"><ele>670.0</ele><time>2026-04-26T12:48:41.851Z</time></trkpt><trkpt lat="40.5663733" lon="15.5167617"><ele>670.0</ele><time>2026-04-26T12:48:42.85Z</time></trkpt><trkpt lat="40.5663883" lon="15.5166333"><ele>670.0</ele><time>2026-04-26T12:48:43.851Z</time></trkpt><trkpt lat="40.5664017" lon="15.5165133"><ele>670.0</ele><time>2026-04-26T12:48:44.85Z</time></trkpt><trkpt lat="40.5664233" lon="15.5163967"><ele>670.0</ele><time>2026-04-26T12:48:45.85Z</time></trkpt><trkpt lat="40.5664567" lon="15.51629"><ele>670.0</ele><time>2026-04-26T12:48:46.85Z</time></trkpt><trkpt lat="40.56649" lon="15.5162"><ele>670.0</ele><time>2026-04-26T12:48:47.851Z</time></trkpt><trkpt lat="40.5665317" lon="15.51613"><ele>670.0</ele><time>2026-04-26T12:48:48.851Z</time></trkpt><trkpt lat="40.5665917" lon="15.5160983"><ele>670.0</ele><time>2026-04-26T12:48:49.85Z</time></trkpt><trkpt lat="40.56667" lon="15.5161033"><ele>670.0</ele><time>2026-04-26T12:48:50.85Z</time></trkpt><trkpt lat="40.56678" lon="15.5161317"><ele>677.25</ele><time>2026-04-26T12:48:51.851Z</time></trkpt><trkpt lat="40.5669033" lon="15.5161633"><ele>684.5</ele><time>2026-04-26T12:48:52.85Z</time></trkpt><trkpt lat="40.56704" lon="15.5161917"><ele>691.75</ele><time>2026-04-26T12:48:53.85Z</time></trkpt><trkpt lat="40.5671783" lon="15.51621"><ele>699.0</ele><time>2026-04-26T12:48:54.85Z</time></trkpt><trkpt lat="40.5672983" lon="15.516215"><ele>699.0</ele><time>2026-04-26T12:48:55.85Z</time></trkpt><trkpt lat="40.5674067" lon="15.5162083"><ele>699.0</ele><time>2026-04-26T12:48:56.851Z</time></trkpt><trkpt lat="40.5674983" lon="15.51618"><ele>699.0</ele><time>2026-04-26T12:48:57.85Z</time></trkpt><trkpt lat="40.5675783" lon="15.5161317"><ele>699.0</ele><time>2026-04-26T12:48:58.85Z</time></trkpt><trkpt lat="40.5676367" lon="15.5160683"><ele>699.0</ele><time>2026-04-26T12:48:59.851Z</time></trkpt><trkpt lat="40.567685" lon="15.5159817"><ele>699.0</ele><time>2026-04-26T12:49:00.85Z</time></trkpt><trkpt lat="40.567715" lon="15.5158683"><ele>699.0</ele><time>2026-04-26T12:49:01.851Z</time></trkpt><trkpt lat="40.5677317" lon="15.5157483"><ele>699.0</ele><time>2026-04-26T12:49:02.851Z</time></trkpt><trkpt lat="40.5677383" lon="15.5156183"><ele>699.0</ele><time>2026-04-26T12:49:03.851Z</time></trkpt><trkpt lat="40.5677417" lon="15.5154883"><ele>699.0</ele><time>2026-04-26T12:49:04.851Z</time></trkpt><trkpt lat="40.5677567" lon="15.5153583"><ele>699.0</ele><time>2026-04-26T12:49:05.851Z</time></trkpt><trkpt lat="40.5678067" lon="15.5152317"><ele>698.0</ele><time>2026-04-26T12:49:06.85Z</time></trkpt><trkpt lat="40.5678833" lon="15.5151133"><ele>697.0</ele><time>2026-04-26T12:49:07.851Z</time></trkpt><trkpt lat="40.5679833" lon="15.5150017"><ele>696.0</ele><time>2026-04-26T12:49:08.851Z</time></trkpt><trkpt lat="40.5680883" lon="15.514895"><ele>695.0</ele><time>2026-04-26T12:49:09.85Z</time></trkpt><trkpt lat="40.5682033" lon="15.5147817"><ele>695.0</ele><time>2026-04-26T12:49:10.85Z</time></trkpt><trkpt lat="40.5683217" lon="15.5146683"><ele>695.0</ele><time>2026-04-26T12:49:11.851Z</time></trkpt><trkpt lat="40.5684317" lon="15.51456"><ele>695.0</ele><time>2026-04-26T12:49:12.851Z</time></trkpt><trkpt lat="40.5685317" lon="15.5144617"><ele>695.0</ele><time>2026-04-26T12:49:13.851Z</time></trkpt><trkpt lat="40.56862" lon="15.51438"><ele>696.2</ele><time>2026-04-26T12:49:14.85Z</time></trkpt><trkpt lat="40.5687" lon="15.5143067"><ele>697.4</ele><time>2026-04-26T12:49:15.85Z</time></trkpt><trkpt lat="40.568775" lon="15.51424"><ele>698.5999999999999</ele><time>2026-04-26T12:49:16.851Z</time></trkpt><trkpt lat="40.5688517" lon="15.51417"><ele>699.8</ele><time>2026-04-26T12:49:17.851Z</time></trkpt><trkpt lat="40.56894" lon="15.5141"><ele>701.0</ele><time>2026-04-26T12:49:18.85Z</time></trkpt><trkpt lat="40.5690367" lon="15.514025"><ele>701.0</ele><time>2026-04-26T12:49:19.851Z</time></trkpt><trkpt lat="40.5691367" lon="15.5139617"><ele>701.0</ele><time>2026-04-26T12:49:20.85Z</time></trkpt><trkpt lat="40.569235" lon="15.51391"><ele>701.0</ele><time>2026-04-26T12:49:21.851Z</time></trkpt><trkpt lat="40.5693183" lon="15.5138533"><ele>701.0</ele><time>2026-04-26T12:49:22.851Z</time></trkpt><trkpt lat="40.56939" lon="15.5137983"><ele>701.0</ele><time>2026-04-26T12:49:23.85Z</time></trkpt><trkpt lat="40.5694467" lon="15.5137367"><ele>699.8333333333333</ele><time>2026-04-26T12:49:24.85Z</time></trkpt><trkpt lat="40.5694867" lon="15.5136633"><ele>698.6666666666666</ele><time>2026-04-26T12:49:25.85Z</time></trkpt><trkpt lat="40.56952" lon="15.5135917"><ele>697.5</ele><time>2026-04-26T12:49:26.85Z</time></trkpt><trkpt lat="40.5695533" lon="15.51344"><ele>696.3333333333334</ele><time>2026-04-26T12:49:28.851Z</time></trkpt><trkpt lat="40.569555" lon="15.5133417"><ele>695.1666666666667</ele><time>2026-04-26T12:49:29.851Z</time></trkpt><trkpt lat="40.5695533" lon="15.5132217"><ele>694.0</ele><time>2026-04-26T12:49:30.85Z</time></trkpt><trkpt lat="40.5695433" lon="15.5130883"><ele>703.25</ele><time>2026-04-26T12:49:31.851Z</time></trkpt><trkpt lat="40.5695217" lon="15.5129367"><ele>712.5</ele><time>2026-04-26T12:49:32.85Z</time></trkpt><trkpt lat="40.5694933" lon="15.512775"><ele>721.75</ele><time>2026-04-26T12:49:33.851Z</time></trkpt><trkpt lat="40.5694883" lon="15.5125983"><ele>731.0</ele><time>2026-04-26T12:49:34.85Z</time></trkpt><trkpt lat="40.5695083" lon="15.5124067"><ele>736.6666666666666</ele><time>2026-04-26T12:49:35.85Z</time></trkpt><trkpt lat="40.5695367" lon="15.5122083"><ele>742.3333333333334</ele><time>2026-04-26T12:49:36.85Z</time></trkpt><trkpt lat="40.5695433" lon="15.5120033"><ele>748.0</ele><time>2026-04-26T12:49:37.851Z</time></trkpt><trkpt lat="40.5695183" lon="15.5117883"><ele>748.0</ele><time>2026-04-26T12:49:38.85Z</time></trkpt><trkpt lat="40.569475" lon="15.511575"><ele>748.0</ele><time>2026-04-26T12:49:39.85Z</time></trkpt><trkpt lat="40.569425" lon="15.5113667"><ele>748.0</ele><time>2026-04-26T12:49:40.85Z</time></trkpt><trkpt lat="40.5693867" lon="15.511135"><ele>747.6666666666667</ele><time>2026-04-26T12:49:41.851Z</time></trkpt><trkpt lat="40.5693733" lon="15.51088"><ele>747.3333333333334</ele><time>2026-04-26T12:49:42.85Z</time></trkpt><trkpt lat="40.5693433" lon="15.5106017"><ele>747.0</ele><time>2026-04-26T12:49:43.85Z</time></trkpt><trkpt lat="40.5693" lon="15.510325"><ele>745.6666666666666</ele><time>2026-04-26T12:49:44.851Z</time></trkpt><trkpt lat="40.5692467" lon="15.510065"><ele>744.3333333333333</ele><time>2026-04-26T12:49:45.851Z</time></trkpt><trkpt lat="40.5691967" lon="15.50982"><ele>743.0</ele><time>2026-04-26T12:49:46.851Z</time></trkpt><trkpt lat="40.569155" lon="15.5096017"><ele>740.6666666666666</ele><time>2026-04-26T12:49:47.851Z</time></trkpt><trkpt lat="40.5691217" lon="15.5093883"><ele>738.3333333333334</ele><time>2026-04-26T12:49:48.851Z</time></trkpt><trkpt lat="40.569105" lon="15.5091883"><ele>736.0</ele><time>2026-04-26T12:49:49.851Z</time></trkpt><trkpt lat="40.569095" lon="15.5090017"><ele>736.0</ele><time>2026-04-26T12:49:50.85Z</time></trkpt><trkpt lat="40.56911" lon="15.5088267"><ele>736.0</ele><time>2026-04-26T12:49:51.85Z</time></trkpt><trkpt lat="40.5691417" lon="15.5086667"><ele>736.0</ele><time>2026-04-26T12:49:52.85Z</time></trkpt><trkpt lat="40.5691767" lon="15.5085083"><ele>736.0</ele><time>2026-04-26T12:49:53.85Z</time></trkpt><trkpt lat="40.5692" lon="15.5083367"><ele>736.0</ele><time>2026-04-26T12:49:54.85Z</time></trkpt><trkpt lat="40.569205" lon="15.5081583"><ele>736.0</ele><time>2026-04-26T12:49:55.85Z</time></trkpt><trkpt lat="40.569185" lon="15.5079733"><ele>736.0</ele><time>2026-04-26T12:49:56.85Z</time></trkpt><trkpt lat="40.5691467" lon="15.5077983"><ele>736.0</ele><time>2026-04-26T12:49:57.85Z</time></trkpt><trkpt lat="40.5690983" lon="15.507635"><ele>734.0</ele><time>2026-04-26T12:49:58.85Z</time></trkpt><trkpt lat="40.56903" lon="15.507485"><ele>732.0</ele><time>2026-04-26T12:49:59.85Z</time></trkpt><trkpt lat="40.5689383" lon="15.507355"><ele>730.0</ele><time>2026-04-26T12:50:00.85Z</time></trkpt><trkpt lat="40.5688267" lon="15.507235"><ele>728.0</ele><time>2026-04-26T12:50:01.85Z</time></trkpt><trkpt lat="40.5686933" lon="15.5071217"><ele>734.6666666666666</ele><time>2026-04-26T12:50:02.85Z</time></trkpt><trkpt lat="40.568555" lon="15.5070133"><ele>741.3333333333334</ele><time>2026-04-26T12:50:03.85Z</time></trkpt><trkpt lat="40.5684183" lon="15.5068983"><ele>748.0</ele><time>2026-04-26T12:50:04.85Z</time></trkpt><trkpt lat="40.5683" lon="15.5067517"><ele>748.0</ele><time>2026-04-26T12:50:05.851Z</time></trkpt><trkpt lat="40.568175" lon="15.5065917"><ele>748.0</ele><time>2026-04-26T12:50:06.851Z</time></trkpt><trkpt lat="40.56805" lon="15.506425"><ele>748.0</ele><time>2026-04-26T12:50:07.851Z</time></trkpt><trkpt lat="40.56795" lon="15.506265"><ele>743.6666666666667</ele><time>2026-04-26T12:50:08.851Z</time></trkpt><trkpt lat="40.5678617" lon="15.50608"><ele>739.3333333333334</ele><time>2026-04-26T12:50:09.851Z</time></trkpt><trkpt lat="40.5677983" lon="15.5058617"><ele>735.0</ele><time>2026-04-26T12:50:10.851Z</time></trkpt><trkpt lat="40.5677567" lon="15.50564"><ele>743.0</ele><time>2026-04-26T12:50:11.85Z</time></trkpt><trkpt lat="40.5677067" lon="15.5054217"><ele>751.0</ele><time>2026-04-26T12:50:12.851Z</time></trkpt><trkpt lat="40.5676367" lon="15.5052167"><ele>759.0</ele><time>2026-04-26T12:50:13.851Z</time></trkpt><trkpt lat="40.5675533" lon="15.5050517"><ele>759.0</ele><time>2026-04-26T12:50:14.85Z</time></trkpt><trkpt lat="40.5674517" lon="15.5049267"><ele>759.0</ele><time>2026-04-26T12:50:15.851Z</time></trkpt><trkpt lat="40.5673433" lon="15.50483"><ele>759.0</ele><time>2026-04-26T12:50:16.85Z</time></trkpt><trkpt lat="40.5672083" lon="15.50479"><ele>759.0</ele><time>2026-04-26T12:50:17.851Z</time></trkpt><trkpt lat="40.5670567" lon="15.50477"><ele>764.0</ele><time>2026-04-26T12:50:18.851Z</time></trkpt><trkpt lat="40.5668917" lon="15.5047517"><ele>769.0</ele><time>2026-04-26T12:50:19.851Z</time></trkpt><trkpt lat="40.5667167" lon="15.5047433"><ele>774.0</ele><time>2026-04-26T12:50:20.851Z</time></trkpt><trkpt lat="40.566565" lon="15.5047417"><ele>774.0</ele><time>2026-04-26T12:50:21.85Z</time></trkpt><trkpt lat="40.5664467" lon="15.5047417"><ele>774.0</ele><time>2026-04-26T12:50:22.85Z</time></trkpt><trkpt lat="40.5663417" lon="15.50472"><ele>774.0</ele><time>2026-04-26T12:50:23.85Z</time></trkpt><trkpt lat="40.566245" lon="15.5046717"><ele>774.0</ele><time>2026-04-26T12:50:24.85Z</time></trkpt><trkpt lat="40.5661583" lon="15.5045967"><ele>774.0</ele><time>2026-04-26T12:50:25.851Z</time></trkpt><trkpt lat="40.5660983" lon="15.5045267"><ele>774.5</ele><time>2026-04-26T12:50:26.85Z</time></trkpt><trkpt lat="40.5660517" lon="15.5044533"><ele>775.0</ele><time>2026-04-26T12:50:28.85Z</time></trkpt><trkpt lat="40.5660267" lon="15.504305"><ele>775.5</ele><time>2026-04-26T12:50:59.85Z</time></trkpt><trkpt lat="40.5660083" lon="15.5042217"><ele>776.0</ele><time>2026-04-26T12:51:00.85Z</time></trkpt><trkpt lat="40.5659917" lon="15.504115"><ele>776.5</ele><time>2026-04-26T12:51:01.85Z</time></trkpt><trkpt lat="40.5659983" lon="15.5039917"><ele>777.0</ele><time>2026-04-26T12:51:02.85Z</time></trkpt><trkpt lat="40.5660483" lon="15.5038517"><ele>778.25</ele><time>2026-04-26T12:51:03.851Z</time></trkpt><trkpt lat="40.5661283" lon="15.50371"><ele>779.5</ele><time>2026-04-26T12:51:04.85Z</time></trkpt><trkpt lat="40.566205" lon="15.503595"><ele>780.75</ele><time>2026-04-26T12:51:05.85Z</time></trkpt><trkpt lat="40.5662667" lon="15.50349"><ele>782.0</ele><time>2026-04-26T12:51:06.85Z</time></trkpt><trkpt lat="40.5662933" lon="15.5033583"><ele>781.4000000000001</ele><time>2026-04-26T12:51:07.851Z</time></trkpt><trkpt lat="40.5662967" lon="15.50322"><ele>780.8000000000001</ele><time>2026-04-26T12:51:08.851Z</time></trkpt><trkpt lat="40.5662833" lon="15.5030983"><ele>780.2</ele><time>2026-04-26T12:51:09.851Z</time></trkpt><trkpt lat="40.56627" lon="15.5029917"><ele>779.6</ele><time>2026-04-26T12:51:10.851Z</time></trkpt><trkpt lat="40.56625" lon="15.5029083"><ele>779.0</ele><time>2026-04-26T12:51:11.851Z</time></trkpt><trkpt lat="40.5661767" lon="15.5027917"><ele>780.0000000000001</ele><time>2026-04-26T12:51:13.851Z</time></trkpt><trkpt lat="40.566115" lon="15.5027367"><ele>781.0</ele><time>2026-04-26T12:51:14.851Z</time></trkpt><trkpt lat="40.566035" lon="15.502685"><ele>782.0</ele><time>2026-04-26T12:51:15.85Z</time></trkpt><trkpt lat="40.5659483" lon="15.502665"><ele>783.0</ele><time>2026-04-26T12:51:16.851Z</time></trkpt><trkpt lat="40.5658533" lon="15.5026717"><ele>784.0000000000001</ele><time>2026-04-26T12:51:17.851Z</time></trkpt><trkpt lat="40.5657733" lon="15.5026883"><ele>785.0</ele><time>2026-04-26T12:51:18.85Z</time></trkpt><trkpt lat="40.5657017" lon="15.5027117"><ele>785.0000000000001</ele><time>2026-04-26T12:51:19.851Z</time></trkpt><trkpt lat="40.5655867" lon="15.5027533"><ele>785.0</ele><time>2026-04-26T12:51:21.85Z</time></trkpt><trkpt lat="40.5655233" lon="15.5027517"><ele>785.0</ele><time>2026-04-26T12:51:22.851Z</time></trkpt><trkpt lat="40.56546" lon="15.502705"><ele>785.0</ele><time>2026-04-26T12:51:23.85Z</time></trkpt><trkpt lat="40.5654" lon="15.5026267"><ele>785.0000000000001</ele><time>2026-04-26T12:51:24.85Z</time></trkpt><trkpt lat="40.5653483" lon="15.50252"><ele>785.0</ele><time>2026-04-26T12:51:25.85Z</time></trkpt><trkpt lat="40.5652967" lon="15.5024083"><ele>788.0</ele><time>2026-04-26T12:51:26.85Z</time></trkpt><trkpt lat="40.5652633" lon="15.50227"><ele>791.0</ele><time>2026-04-26T12:51:27.85Z</time></trkpt><trkpt lat="40.5652383" lon="15.5021"><ele>794.0</ele><time>2026-04-26T12:51:28.85Z</time></trkpt><trkpt lat="40.5652" lon="15.50192"><ele>797.0</ele><time>2026-04-26T12:51:29.851Z</time></trkpt><trkpt lat="40.56515" lon="15.50176"><ele>797.4000000000001</ele><time>2026-04-26T12:51:30.851Z</time></trkpt><trkpt lat="40.5650867" lon="15.5016167"><ele>797.8000000000001</ele><time>2026-04-26T12:51:31.851Z</time></trkpt><trkpt lat="40.56501" lon="15.5014933"><ele>798.2</ele><time>2026-04-26T12:51:32.851Z</time></trkpt><trkpt lat="40.5649383" lon="15.5014033"><ele>798.6</ele><time>2026-04-26T12:51:33.851Z</time></trkpt><trkpt lat="40.5648917" lon="15.50134"><ele>799.0</ele><time>2026-04-26T12:51:34.849Z</time></trkpt><trkpt lat="40.5648217" lon="15.5012967"><ele>799.3333333333333</ele><time>2026-04-26T12:51:38.849Z</time></trkpt><trkpt lat="40.5647417" lon="15.501245"><ele>799.6666666666666</ele><time>2026-04-26T12:51:40.849Z</time></trkpt><trkpt lat="40.5646817" lon="15.501185"><ele>800.0</ele><time>2026-04-26T12:51:41.85Z</time></trkpt><trkpt lat="40.5646133" lon="15.5011133"><ele>800.3333333333333</ele><time>2026-04-26T12:51:42.849Z</time></trkpt><trkpt lat="40.564545" lon="15.501045"><ele>800.6666666666666</ele><time>2026-04-26T12:51:43.85Z</time></trkpt><trkpt lat="40.564475" lon="15.5009767"><ele>801.0</ele><time>2026-04-26T12:51:44.85Z</time></trkpt><trkpt lat="40.5644" lon="15.5009"><ele>799.5999999999999</ele><time>2026-04-26T12:51:45.85Z</time></trkpt><trkpt lat="40.5643317" lon="15.5008167"><ele>798.2</ele><time>2026-04-26T12:51:46.85Z</time></trkpt><trkpt lat="40.5642583" lon="15.500725"><ele>796.8</ele><time>2026-04-26T12:51:47.849Z</time></trkpt><trkpt lat="40.5641967" lon="15.5006217"><ele>795.4000000000001</ele><time>2026-04-26T12:51:48.849Z</time></trkpt><trkpt lat="40.5641467" lon="15.5005283"><ele>794.0</ele><time>2026-04-26T12:51:49.849Z</time></trkpt><trkpt lat="40.5641017" lon="15.500435"><ele>793.0000000000001</ele><time>2026-04-26T12:51:50.849Z</time></trkpt><trkpt lat="40.5640767" lon="15.500335"><ele>792.0</ele><time>2026-04-26T12:51:51.849Z</time></trkpt><trkpt lat="40.564055" lon="15.50023"><ele>791.0</ele><time>2026-04-26T12:51:52.85Z</time></trkpt><trkpt lat="40.56403" lon="15.5001317"><ele>790.0</ele><time>2026-04-26T12:51:53.85Z</time></trkpt><trkpt lat="40.564" lon="15.500025"><ele>789.0000000000001</ele><time>2026-04-26T12:51:54.849Z</time></trkpt><trkpt lat="40.5639567" lon="15.49991"><ele>788.0</ele><time>2026-04-26T12:51:55.849Z</time></trkpt><trkpt lat="40.563915" lon="15.4998033"><ele>788.0</ele><time>2026-04-26T12:51:56.849Z</time></trkpt><trkpt lat="40.563865" lon="15.4997"><ele>788.0</ele><time>2026-04-26T12:51:57.849Z</time></trkpt><trkpt lat="40.5637967" lon="15.4996033"><ele>788.0</ele><time>2026-04-26T12:51:58.849Z</time></trkpt><trkpt lat="40.56375" lon="15.4994967"><ele>788.0</ele><time>2026-04-26T12:51:59.849Z</time></trkpt><trkpt lat="40.5637233" lon="15.4993883"><ele>788.0</ele><time>2026-04-26T12:52:00.849Z</time></trkpt><trkpt lat="40.5637033" lon="15.4992783"><ele>785.2</ele><time>2026-04-26T12:52:01.85Z</time></trkpt><trkpt lat="40.5636917" lon="15.4991933"><ele>782.4</ele><time>2026-04-26T12:52:02.849Z</time></trkpt><trkpt lat="40.5636533" lon="15.4990733"><ele>779.6</ele><time>2026-04-26T12:52:04.85Z</time></trkpt><trkpt lat="40.5636383" lon="15.49897"><ele>776.8000000000001</ele><time>2026-04-26T12:52:07.85Z</time></trkpt><trkpt lat="40.5636817" lon="15.49879"><ele>774.0</ele><time>2026-04-26T12:52:09.849Z</time></trkpt><trkpt lat="40.5637183" lon="15.4986567"><ele>774.0</ele><time>2026-04-26T12:52:10.849Z</time></trkpt><trkpt lat="40.563755" lon="15.4985383"><ele>774.0</ele><time>2026-04-26T12:52:11.85Z</time></trkpt><trkpt lat="40.5637733" lon="15.49845"><ele>774.0</ele><time>2026-04-26T12:52:12.85Z</time></trkpt><trkpt lat="40.5637683" lon="15.49836"><ele>774.0</ele><time>2026-04-26T12:52:14.85Z</time></trkpt><trkpt lat="40.5636867" lon="15.4983217"><ele>774.0</ele><time>2026-04-26T12:52:16.85Z</time></trkpt><trkpt lat="40.5636117" lon="15.498305"><ele>774.0</ele><time>2026-04-26T12:52:17.849Z</time></trkpt><trkpt lat="40.56353" lon="15.4983017"><ele>772.0</ele><time>2026-04-26T12:52:18.849Z</time></trkpt><trkpt lat="40.5634483" lon="15.4982933"><ele>770.0</ele><time>2026-04-26T12:52:19.849Z</time></trkpt><trkpt lat="40.5633683" lon="15.498295"><ele>768.0</ele><time>2026-04-26T12:52:20.849Z</time></trkpt><trkpt lat="40.5632983" lon="15.4983117"><ele>766.0</ele><time>2026-04-26T12:52:21.85Z</time></trkpt><trkpt lat="40.5632217" lon="15.4983433"><ele>764.0</ele><time>2026-04-26T12:52:22.849Z</time></trkpt><trkpt lat="40.5631567" lon="15.4984017"><ele>762.0</ele><time>2026-04-26T12:52:23.849Z</time></trkpt><trkpt lat="40.563105" lon="15.4984817"><ele>762.0</ele><time>2026-04-26T12:52:24.85Z</time></trkpt><trkpt lat="40.5630733" lon="15.4985633"><ele>762.0</ele><time>2026-04-26T12:52:25.849Z</time></trkpt><trkpt lat="40.5630217" lon="15.4986467"><ele>762.0</ele><time>2026-04-26T12:52:27.849Z</time></trkpt><trkpt lat="40.5629417" lon="15.4985967"><ele>762.0</ele><time>2026-04-26T12:52:29.85Z</time></trkpt><trkpt lat="40.5628917" lon="15.4985333"><ele>762.0</ele><time>2026-04-26T12:52:30.85Z</time></trkpt><trkpt lat="40.5628367" lon="15.4984633"><ele>762.0</ele><time>2026-04-26T12:52:31.85Z</time></trkpt><trkpt lat="40.5627783" lon="15.49839"><ele>760.3333333333334</ele><time>2026-04-26T12:52:32.85Z</time></trkpt><trkpt lat="40.5627217" lon="15.498315"><ele>758.6666666666666</ele><time>2026-04-26T12:52:33.85Z</time></trkpt><trkpt lat="40.56266" lon="15.498255"><ele>757.0</ele><time>2026-04-26T12:52:34.85Z</time></trkpt><trkpt lat="40.56259" lon="15.4982083"><ele>755.3333333333333</ele><time>2026-04-26T12:52:35.85Z</time></trkpt><trkpt lat="40.5625" lon="15.4981817"><ele>753.6666666666666</ele><time>2026-04-26T12:52:36.849Z</time></trkpt><trkpt lat="40.562415" lon="15.4981667"><ele>752.0</ele><time>2026-04-26T12:52:37.849Z</time></trkpt><trkpt lat="40.562325" lon="15.4981583"><ele>752.0</ele><time>2026-04-26T12:52:38.85Z</time></trkpt><trkpt lat="40.56223" lon="15.498135"><ele>752.0</ele><time>2026-04-26T12:52:39.85Z</time></trkpt><trkpt lat="40.5621367" lon="15.4980883"><ele>752.0</ele><time>2026-04-26T12:52:40.85Z</time></trkpt><trkpt lat="40.56204" lon="15.498035"><ele>752.0</ele><time>2026-04-26T12:52:41.849Z</time></trkpt><trkpt lat="40.561945" lon="15.4979867"><ele>752.0</ele><time>2026-04-26T12:52:42.85Z</time></trkpt><trkpt lat="40.5618583" lon="15.4979417"><ele>749.0</ele><time>2026-04-26T12:52:43.849Z</time></trkpt><trkpt lat="40.5617967" lon="15.49791"><ele>746.0</ele><time>2026-04-26T12:52:44.85Z</time></trkpt><trkpt lat="40.56171" lon="15.4978517"><ele>743.0</ele><time>2026-04-26T12:52:46.849Z</time></trkpt><trkpt lat="40.561665" lon="15.4977933"><ele>740.0</ele><time>2026-04-26T12:52:47.849Z</time></trkpt><trkpt lat="40.5616067" lon="15.49771"><ele>737.0</ele><time>2026-04-26T12:52:48.85Z</time></trkpt><trkpt lat="40.5615233" lon="15.4976183"><ele>734.0</ele><time>2026-04-26T12:52:49.85Z</time></trkpt><trkpt lat="40.561415" lon="15.497535"><ele>734.0</ele><time>2026-04-26T12:52:50.849Z</time></trkpt><trkpt lat="40.56129" lon="15.4974883"><ele>734.0</ele><time>2026-04-26T12:52:51.85Z</time></trkpt><trkpt lat="40.5611533" lon="15.4974783"><ele>734.0</ele><time>2026-04-26T12:52:52.849Z</time></trkpt><trkpt lat="40.56101" lon="15.4975067"><ele>734.0</ele><time>2026-04-26T12:52:53.849Z</time></trkpt><trkpt lat="40.560885" lon="15.4975733"><ele>731.5</ele><time>2026-04-26T12:52:54.85Z</time></trkpt><trkpt lat="40.560765" lon="15.4976333"><ele>729.0</ele><time>2026-04-26T12:52:55.85Z</time></trkpt><trkpt lat="40.5606483" lon="15.49768"><ele>726.5</ele><time>2026-04-26T12:52:56.849Z</time></trkpt><trkpt lat="40.560525" lon="15.497735"><ele>724.0</ele><time>2026-04-26T12:52:57.85Z</time></trkpt><trkpt lat="40.5604117" lon="15.4978167"><ele>723.25</ele><time>2026-04-26T12:52:58.85Z</time></trkpt><trkpt lat="40.5603083" lon="15.4979267"><ele>722.5</ele><time>2026-04-26T12:52:59.849Z</time></trkpt><trkpt lat="40.5602117" lon="15.4980367"><ele>721.75</ele><time>2026-04-26T12:53:00.849Z</time></trkpt><trkpt lat="40.5601" lon="15.4981167"><ele>721.0</ele><time>2026-04-26T12:53:01.85Z</time></trkpt><trkpt lat="40.5599817" lon="15.498165"><ele>721.0</ele><time>2026-04-26T12:53:02.85Z</time></trkpt><trkpt lat="40.5598583" lon="15.4981683"><ele>721.0</ele><time>2026-04-26T12:53:03.849Z</time></trkpt><trkpt lat="40.5597417" lon="15.4981283"><ele>721.0</ele><time>2026-04-26T12:53:04.849Z</time></trkpt><trkpt lat="40.5596333" lon="15.49803"><ele>721.0</ele><time>2026-04-26T12:53:05.85Z</time></trkpt><trkpt lat="40.5595317" lon="15.4979067"><ele>718.25</ele><time>2026-04-26T12:53:06.849Z</time></trkpt><trkpt lat="40.5594167" lon="15.4977933"><ele>715.5</ele><time>2026-04-26T12:53:07.849Z</time></trkpt><trkpt lat="40.55929" lon="15.4977167"><ele>712.75</ele><time>2026-04-26T12:53:08.85Z</time></trkpt><trkpt lat="40.5591467" lon="15.4976883"><ele>710.0</ele><time>2026-04-26T12:53:09.85Z</time></trkpt><trkpt lat="40.55899" lon="15.497695"><ele>710.0</ele><time>2026-04-26T12:53:10.85Z</time></trkpt><trkpt lat="40.55884" lon="15.4977183"><ele>710.0</ele><time>2026-04-26T12:53:11.85Z</time></trkpt><trkpt lat="40.55867" lon="15.497735"><ele>710.0</ele><time>2026-04-26T12:53:12.849Z</time></trkpt><trkpt lat="40.5585083" lon="15.49772"><ele>708.6666666666666</ele><time>2026-04-26T12:53:13.849Z</time></trkpt><trkpt lat="40.5583533" lon="15.4976833"><ele>707.3333333333334</ele><time>2026-04-26T12:53:14.85Z</time></trkpt><trkpt lat="40.5582067" lon="15.497625"><ele>706.0</ele><time>2026-04-26T12:53:15.85Z</time></trkpt><trkpt lat="40.5580717" lon="15.4975433"><ele>706.0</ele><time>2026-04-26T12:53:16.85Z</time></trkpt><trkpt lat="40.5579567" lon="15.49743"><ele>706.0</ele><time>2026-04-26T12:53:17.85Z</time></trkpt><trkpt lat="40.55787" lon="15.4972917"><ele>706.0</ele><time>2026-04-26T12:53:18.849Z</time></trkpt><trkpt lat="40.5577833" lon="15.4971717"><ele>706.0</ele><time>2026-04-26T12:53:19.85Z</time></trkpt><trkpt lat="40.5576917" lon="15.4970733"><ele>704.0</ele><time>2026-04-26T12:53:20.849Z</time></trkpt><trkpt lat="40.5575883" lon="15.4970017"><ele>702.0</ele><time>2026-04-26T12:53:21.849Z</time></trkpt><trkpt lat="40.5574967" lon="15.4969433"><ele>700.0</ele><time>2026-04-26T12:53:22.85Z</time></trkpt><trkpt lat="40.557415" lon="15.4969"><ele>698.0</ele><time>2026-04-26T12:53:23.849Z</time></trkpt><trkpt lat="40.5573383" lon="15.4968583"><ele>696.0</ele><time>2026-04-26T12:53:24.849Z</time></trkpt><trkpt lat="40.5572667" lon="15.4968167"><ele>696.0</ele><time>2026-04-26T12:53:25.85Z</time></trkpt><trkpt lat="40.5571917" lon="15.4967733"><ele>696.0</ele><time>2026-04-26T12:53:26.849Z</time></trkpt><trkpt lat="40.55712" lon="15.496735"><ele>696.0</ele><time>2026-04-26T12:53:27.85Z</time></trkpt><trkpt lat="40.557045" lon="15.4966983"><ele>696.0</ele><time>2026-04-26T12:53:28.849Z</time></trkpt><trkpt lat="40.5569733" lon="15.4966683"><ele>696.0</ele><time>2026-04-26T12:53:29.849Z</time></trkpt><trkpt lat="40.5569017" lon="15.4966367"><ele>696.0</ele><time>2026-04-26T12:53:30.85Z</time></trkpt><trkpt lat="40.5568217" lon="15.4966133"><ele>696.1999999999999</ele><time>2026-04-26T12:53:31.849Z</time></trkpt><trkpt lat="40.5567433" lon="15.4965883"><ele>696.4</ele><time>2026-04-26T12:53:32.85Z</time></trkpt><trkpt lat="40.55666" lon="15.4965633"><ele>696.6</ele><time>2026-04-26T12:53:33.849Z</time></trkpt><trkpt lat="40.556575" lon="15.49653"><ele>696.8</ele><time>2026-04-26T12:53:34.849Z</time></trkpt><trkpt lat="40.556485" lon="15.496485"><ele>697.0</ele><time>2026-04-26T12:53:35.85Z</time></trkpt><trkpt lat="40.55638" lon="15.4964183"><ele>697.0</ele><time>2026-04-26T12:53:36.85Z</time></trkpt><trkpt lat="40.5562717" lon="15.49633"><ele>697.0</ele><time>2026-04-26T12:53:37.849Z</time></trkpt><trkpt lat="40.556145" lon="15.496225"><ele>697.0</ele><time>2026-04-26T12:53:38.849Z</time></trkpt><trkpt lat="40.5560033" lon="15.49611"><ele>697.0</ele><time>2026-04-26T12:53:39.849Z</time></trkpt><trkpt lat="40.55584" lon="15.4959867"><ele>694.0</ele><time>2026-04-26T12:53:40.85Z</time></trkpt><trkpt lat="40.555675" lon="15.4958517"><ele>691.0</ele><time>2026-04-26T12:53:41.85Z</time></trkpt><trkpt lat="40.5555117" lon="15.4957083"><ele>688.0</ele><time>2026-04-26T12:53:42.85Z</time></trkpt><trkpt lat="40.55535" lon="15.49556"><ele>684.0</ele><time>2026-04-26T12:53:43.849Z</time></trkpt><trkpt lat="40.5551933" lon="15.4954133"><ele>680.0</ele><time>2026-04-26T12:53:44.85Z</time></trkpt><trkpt lat="40.5550467" lon="15.4952733"><ele>676.0</ele><time>2026-04-26T12:53:45.849Z</time></trkpt><trkpt lat="40.5549117" lon="15.4951367"><ele>676.0</ele><time>2026-04-26T12:53:46.849Z</time></trkpt><trkpt lat="40.5547933" lon="15.4950033"><ele>676.0</ele><time>2026-04-26T12:53:47.85Z</time></trkpt><trkpt lat="40.5547" lon="15.4948233"><ele>676.0</ele><time>2026-04-26T12:53:48.85Z</time></trkpt><trkpt lat="40.5546133" lon="15.49462"><ele>674.3333333333334</ele><time>2026-04-26T12:53:49.85Z</time></trkpt><trkpt lat="40.5545333" lon="15.4944183"><ele>672.6666666666666</ele><time>2026-04-26T12:53:50.849Z</time></trkpt><trkpt lat="40.5544517" lon="15.4942333"><ele>671.0</ele><time>2026-04-26T12:53:51.85Z</time></trkpt><trkpt lat="40.554375" lon="15.4940917"><ele>671.0</ele><time>2026-04-26T12:53:52.849Z</time></trkpt><trkpt lat="40.554285" lon="15.493985"><ele>671.0</ele><time>2026-04-26T12:53:53.85Z</time></trkpt><trkpt lat="40.5541833" lon="15.4939167"><ele>671.0</ele><time>2026-04-26T12:53:54.849Z</time></trkpt><trkpt lat="40.5540667" lon="15.4938967"><ele>671.0</ele><time>2026-04-26T12:53:55.849Z</time></trkpt><trkpt lat="40.553945" lon="15.4939183"><ele>671.0</ele><time>2026-04-26T12:53:56.849Z</time></trkpt><trkpt lat="40.5538217" lon="15.4939917"><ele>671.0</ele><time>2026-04-26T12:53:57.849Z</time></trkpt><trkpt lat="40.553695" lon="15.494095"><ele>671.0</ele><time>2026-04-26T12:53:58.85Z</time></trkpt><trkpt lat="40.5535467" lon="15.4942183"><ele>670.3333333333333</ele><time>2026-04-26T12:53:59.85Z</time></trkpt><trkpt lat="40.553395" lon="15.4943633"><ele>669.6666666666666</ele><time>2026-04-26T12:54:00.849Z</time></trkpt><trkpt lat="40.55325" lon="15.494515"><ele>669.0</ele><time>2026-04-26T12:54:01.85Z</time></trkpt><trkpt lat="40.5531067" lon="15.494655"><ele>669.0</ele><time>2026-04-26T12:54:02.85Z</time></trkpt><trkpt lat="40.5529783" lon="15.4947933"><ele>669.0</ele><time>2026-04-26T12:54:03.85Z</time></trkpt><trkpt lat="40.5528583" lon="15.49492"><ele>669.0</ele><time>2026-04-26T12:54:04.849Z</time></trkpt><trkpt lat="40.5527283" lon="15.4950167"><ele>665.6666666666666</ele><time>2026-04-26T12:54:05.849Z</time></trkpt><trkpt lat="40.55257" lon="15.4950833"><ele>662.3333333333333</ele><time>2026-04-26T12:54:06.849Z</time></trkpt><trkpt lat="40.5524017" lon="15.4951583"><ele>659.0</ele><time>2026-04-26T12:54:07.849Z</time></trkpt><trkpt lat="40.5522433" lon="15.4952383"><ele>659.0</ele><time>2026-04-26T12:54:08.849Z</time></trkpt><trkpt lat="40.5520983" lon="15.4953183"><ele>659.0</ele><time>2026-04-26T12:54:09.85Z</time></trkpt><trkpt lat="40.5519683" lon="15.4953783"><ele>659.0</ele><time>2026-04-26T12:54:10.849Z</time></trkpt><trkpt lat="40.55186" lon="15.49542"><ele>659.0</ele><time>2026-04-26T12:54:11.849Z</time></trkpt><trkpt lat="40.55175" lon="15.4954217"><ele>657.0</ele><time>2026-04-26T12:54:12.849Z</time></trkpt><trkpt lat="40.5516433" lon="15.495365"><ele>655.0</ele><time>2026-04-26T12:54:13.85Z</time></trkpt><trkpt lat="40.5515417" lon="15.49525"><ele>653.0</ele><time>2026-04-26T12:54:14.849Z</time></trkpt><trkpt lat="40.5514383" lon="15.495085"><ele>651.0</ele><time>2026-04-26T12:54:15.85Z</time></trkpt><trkpt lat="40.5513267" lon="15.4949017"><ele>651.0</ele><time>2026-04-26T12:54:16.85Z</time></trkpt><trkpt lat="40.551215" lon="15.4947183"><ele>651.0</ele><time>2026-04-26T12:54:17.849Z</time></trkpt><trkpt lat="40.5510967" lon="15.4945317"><ele>651.0</ele><time>2026-04-26T12:54:18.85Z</time></trkpt><trkpt lat="40.5509817" lon="15.4943533"><ele>648.6666666666666</ele><time>2026-04-26T12:54:19.85Z</time></trkpt><trkpt lat="40.5508783" lon="15.4941817"><ele>646.3333333333333</ele><time>2026-04-26T12:54:20.85Z</time></trkpt><trkpt lat="40.5507833" lon="15.4940267"><ele>644.0</ele><time>2026-04-26T12:54:21.85Z</time></trkpt><trkpt lat="40.5506883" lon="15.493905"><ele>644.0</ele><time>2026-04-26T12:54:22.849Z</time></trkpt><trkpt lat="40.5505983" lon="15.4938233"><ele>644.0</ele><time>2026-04-26T12:54:23.85Z</time></trkpt><trkpt lat="40.55048" lon="15.4937783"><ele>644.0</ele><time>2026-04-26T12:54:24.849Z</time></trkpt><trkpt lat="40.55036" lon="15.4937917"><ele>644.0</ele><time>2026-04-26T12:54:25.849Z</time></trkpt><trkpt lat="40.5502383" lon="15.493845"><ele>642.3333333333333</ele><time>2026-04-26T12:54:26.849Z</time></trkpt><trkpt lat="40.550105" lon="15.4939283"><ele>640.6666666666666</ele><time>2026-04-26T12:54:27.849Z</time></trkpt><trkpt lat="40.5499617" lon="15.4940117"><ele>639.0</ele><time>2026-04-26T12:54:28.85Z</time></trkpt><trkpt lat="40.5498083" lon="15.4940817"><ele>639.0</ele><time>2026-04-26T12:54:29.85Z</time></trkpt><trkpt lat="40.5496667" lon="15.4941367"><ele>639.0</ele><time>2026-04-26T12:54:30.85Z</time></trkpt><trkpt lat="40.54952" lon="15.49417"><ele>639.0</ele><time>2026-04-26T12:54:31.85Z</time></trkpt><trkpt lat="40.5493933" lon="15.4941817"><ele>639.0</ele><time>2026-04-26T12:54:32.849Z</time></trkpt><trkpt lat="40.54928" lon="15.4941733"><ele>637.5</ele><time>2026-04-26T12:54:33.849Z</time></trkpt><trkpt lat="40.54916" lon="15.4941317"><ele>636.0</ele><time>2026-04-26T12:54:34.85Z</time></trkpt><trkpt lat="40.549045" lon="15.4940433"><ele>634.5</ele><time>2026-04-26T12:54:35.849Z</time></trkpt><trkpt lat="40.548945" lon="15.4939167"><ele>633.0</ele><time>2026-04-26T12:54:36.85Z</time></trkpt><trkpt lat="40.5488617" lon="15.4937333"><ele>630.3333333333334</ele><time>2026-04-26T12:54:37.85Z</time></trkpt><trkpt lat="40.5487683" lon="15.493525"><ele>627.6666666666667</ele><time>2026-04-26T12:54:38.85Z</time></trkpt><trkpt lat="40.5486683" lon="15.493305"><ele>625.0</ele><time>2026-04-26T12:54:39.849Z</time></trkpt><trkpt lat="40.54856" lon="15.49308"><ele>623.0</ele><time>2026-04-26T12:54:40.849Z</time></trkpt><trkpt lat="40.5484617" lon="15.4928533"><ele>621.0</ele><time>2026-04-26T12:54:41.85Z</time></trkpt><trkpt lat="40.5483617" lon="15.492625"><ele>619.0</ele><time>2026-04-26T12:54:42.849Z</time></trkpt><trkpt lat="40.5482667" lon="15.4924167"><ele>619.0</ele><time>2026-04-26T12:54:43.85Z</time></trkpt><trkpt lat="40.5481717" lon="15.4922167"><ele>619.0</ele><time>2026-04-26T12:54:44.85Z</time></trkpt><trkpt lat="40.5480783" lon="15.492015"><ele>619.0</ele><time>2026-04-26T12:54:45.849Z</time></trkpt><trkpt lat="40.54799" lon="15.4918233"><ele>617.25</ele><time>2026-04-26T12:54:46.849Z</time></trkpt><trkpt lat="40.5479117" lon="15.491655"><ele>615.5</ele><time>2026-04-26T12:54:47.849Z</time></trkpt><trkpt lat="40.5478217" lon="15.491515"><ele>613.75</ele><time>2026-04-26T12:54:48.85Z</time></trkpt><trkpt lat="40.5477317" lon="15.49139"><ele>612.0</ele><time>2026-04-26T12:54:49.85Z</time></trkpt><trkpt lat="40.5476317" lon="15.4912867"><ele>610.5</ele><time>2026-04-26T12:54:50.849Z</time></trkpt><trkpt lat="40.5475233" lon="15.4912033"><ele>609.0</ele><time>2026-04-26T12:54:51.85Z</time></trkpt><trkpt lat="40.5474183" lon="15.491135"><ele>607.5</ele><time>2026-04-26T12:54:52.849Z</time></trkpt><trkpt lat="40.5473133" lon="15.4910817"><ele>606.0</ele><time>2026-04-26T12:54:53.849Z</time></trkpt><trkpt lat="40.5472017" lon="15.491045"><ele>606.0</ele><time>2026-04-26T12:54:54.85Z</time></trkpt><trkpt lat="40.5470867" lon="15.4910217"><ele>606.0</ele><time>2026-04-26T12:54:55.85Z</time></trkpt><trkpt lat="40.5469817" lon="15.4910033"><ele>606.0</ele><time>2026-04-26T12:54:56.849Z</time></trkpt><trkpt lat="40.5468917" lon="15.490975"><ele>606.0</ele><time>2026-04-26T12:54:57.85Z</time></trkpt><trkpt lat="40.5468217" lon="15.4909467"><ele>606.0</ele><time>2026-04-26T12:54:58.85Z</time></trkpt><trkpt lat="40.5467" lon="15.490915"><ele>605.6</ele><time>2026-04-26T12:55:00.85Z</time></trkpt><trkpt lat="40.54662" lon="15.4909167"><ele>605.2</ele><time>2026-04-26T12:55:01.85Z</time></trkpt><trkpt lat="40.5465383" lon="15.4909183"><ele>604.8</ele><time>2026-04-26T12:55:02.849Z</time></trkpt><trkpt lat="40.5464417" lon="15.4909133"><ele>604.4</ele><time>2026-04-26T12:55:03.85Z</time></trkpt><trkpt lat="40.546345" lon="15.49089"><ele>604.0</ele><time>2026-04-26T12:55:04.849Z</time></trkpt><trkpt lat="40.54625" lon="15.4908517"><ele>603.3333333333334</ele><time>2026-04-26T12:55:05.85Z</time></trkpt><trkpt lat="40.5461633" lon="15.4907933"><ele>602.6666666666667</ele><time>2026-04-26T12:55:06.85Z</time></trkpt><trkpt lat="40.5460917" lon="15.490725"><ele>602.0</ele><time>2026-04-26T12:55:07.85Z</time></trkpt><trkpt lat="40.5460233" lon="15.4906533"><ele>601.3333333333334</ele><time>2026-04-26T12:55:08.85Z</time></trkpt><trkpt lat="40.5459533" lon="15.49059"><ele>600.6666666666666</ele><time>2026-04-26T12:55:09.849Z</time></trkpt><trkpt lat="40.5458883" lon="15.490535"><ele>600.0</ele><time>2026-04-26T12:55:10.849Z</time></trkpt><trkpt lat="40.545815" lon="15.4904917"><ele>600.0</ele><time>2026-04-26T12:55:11.849Z</time></trkpt><trkpt lat="40.5457383" lon="15.49045"><ele>600.0</ele><time>2026-04-26T12:55:12.849Z</time></trkpt><trkpt lat="40.5456533" lon="15.4904083"><ele>600.0</ele><time>2026-04-26T12:55:13.849Z</time></trkpt><trkpt lat="40.5455583" lon="15.4903667"><ele>600.0</ele><time>2026-04-26T12:55:14.85Z</time></trkpt><trkpt lat="40.5454517" lon="15.4903283"><ele>600.0</ele><time>2026-04-26T12:55:15.85Z</time></trkpt><trkpt lat="40.5453467" lon="15.4902833"><ele>598.2</ele><time>2026-04-26T12:55:16.85Z</time></trkpt><trkpt lat="40.545245" lon="15.4902383"><ele>596.4</ele><time>2026-04-26T12:55:17.85Z</time></trkpt><trkpt lat="40.5451467" lon="15.4901983"><ele>594.6</ele><time>2026-04-26T12:55:18.849Z</time></trkpt><trkpt lat="40.5450533" lon="15.49016"><ele>592.8</ele><time>2026-04-26T12:55:19.849Z</time></trkpt><trkpt lat="40.544965" lon="15.4901317"><ele>591.0</ele><time>2026-04-26T12:55:20.849Z</time></trkpt><trkpt lat="40.5448783" lon="15.49011"><ele>591.0</ele><time>2026-04-26T12:55:21.849Z</time></trkpt><trkpt lat="40.544795" lon="15.490105"><ele>591.0</ele><time>2026-04-26T12:55:22.85Z</time></trkpt><trkpt lat="40.544715" lon="15.4901133"><ele>591.0</ele><time>2026-04-26T12:55:23.85Z</time></trkpt><trkpt lat="40.5446417" lon="15.490125"><ele>591.0</ele><time>2026-04-26T12:55:24.849Z</time></trkpt><trkpt lat="40.5445283" lon="15.490155"><ele>591.0</ele><time>2026-04-26T12:55:26.85Z</time></trkpt><trkpt lat="40.5444083" lon="15.4901533"><ele>590.4</ele><time>2026-04-26T12:55:28.85Z</time></trkpt><trkpt lat="40.5443267" lon="15.4901367"><ele>589.8</ele><time>2026-04-26T12:55:29.85Z</time></trkpt><trkpt lat="40.544235" lon="15.4901083"><ele>589.1999999999999</ele><time>2026-04-26T12:55:30.85Z</time></trkpt><trkpt lat="40.5441317" lon="15.490075"><ele>588.6</ele><time>2026-04-26T12:55:31.85Z</time></trkpt><trkpt lat="40.5440233" lon="15.490035"><ele>588.0</ele><time>2026-04-26T12:55:32.849Z</time></trkpt><trkpt lat="40.5439133" lon="15.48998"><ele>588.0</ele><time>2026-04-26T12:55:33.849Z</time></trkpt><trkpt lat="40.5438033" lon="15.489925"><ele>588.0</ele><time>2026-04-26T12:55:34.849Z</time></trkpt><trkpt lat="40.5436867" lon="15.48986"><ele>588.0</ele><time>2026-04-26T12:55:35.849Z</time></trkpt><trkpt lat="40.543585" lon="15.4897767"><ele>588.0</ele><time>2026-04-26T12:55:36.849Z</time></trkpt><trkpt lat="40.5434733" lon="15.4896767"><ele>585.75</ele><time>2026-04-26T12:55:37.849Z</time></trkpt><trkpt lat="40.5433617" lon="15.489565"><ele>583.5</ele><time>2026-04-26T12:55:38.849Z</time></trkpt><trkpt lat="40.54325" lon="15.4894467"><ele>581.25</ele><time>2026-04-26T12:55:39.849Z</time></trkpt><trkpt lat="40.5431433" lon="15.4893217"><ele>579.0</ele><time>2026-04-26T12:55:40.85Z</time></trkpt><trkpt lat="40.5430383" lon="15.4891983"><ele>579.0</ele><time>2026-04-26T12:55:41.85Z</time></trkpt><trkpt lat="40.54294" lon="15.4890783"><ele>579.0</ele><time>2026-04-26T12:55:42.849Z</time></trkpt><trkpt lat="40.5428433" lon="15.4889633"><ele>579.0</ele><time>2026-04-26T12:55:43.85Z</time></trkpt><trkpt lat="40.54275" lon="15.4888433"><ele>579.0</ele><time>2026-04-26T12:55:44.85Z</time></trkpt><trkpt lat="40.5426633" lon="15.48872"><ele>576.0</ele><time>2026-04-26T12:55:45.85Z</time></trkpt><trkpt lat="40.542575" lon="15.488585"><ele>573.0</ele><time>2026-04-26T12:55:46.849Z</time></trkpt><trkpt lat="40.5424817" lon="15.488445"><ele>570.0</ele><time>2026-04-26T12:55:47.849Z</time></trkpt><trkpt lat="40.5424017" lon="15.4883033"><ele>567.0</ele><time>2026-04-26T12:55:48.85Z</time></trkpt><trkpt lat="40.5423283" lon="15.488165"><ele>567.0</ele><time>2026-04-26T12:55:49.85Z</time></trkpt><trkpt lat="40.5422617" lon="15.4880383"><ele>567.0</ele><time>2026-04-26T12:55:50.85Z</time></trkpt><trkpt lat="40.5421933" lon="15.4879267"><ele>567.0</ele><time>2026-04-26T12:55:51.849Z</time></trkpt><trkpt lat="40.5421217" lon="15.487815"><ele>567.0</ele><time>2026-04-26T12:55:52.849Z</time></trkpt><trkpt lat="40.5420367" lon="15.4876983"><ele>563.75</ele><time>2026-04-26T12:55:53.85Z</time></trkpt><trkpt lat="40.5419583" lon="15.4875883"><ele>560.5</ele><time>2026-04-26T12:55:54.849Z</time></trkpt><trkpt lat="40.5418733" lon="15.4874767"><ele>557.25</ele><time>2026-04-26T12:55:55.849Z</time></trkpt><trkpt lat="40.5417817" lon="15.4873667"><ele>554.0</ele><time>2026-04-26T12:55:56.849Z</time></trkpt><trkpt lat="40.5416867" lon="15.4872583"><ele>554.0</ele><time>2026-04-26T12:55:57.85Z</time></trkpt><trkpt lat="40.5416" lon="15.4871533"><ele>554.0</ele><time>2026-04-26T12:55:58.849Z</time></trkpt><trkpt lat="40.5415233" lon="15.487065"><ele>554.0</ele><time>2026-04-26T12:55:59.85Z</time></trkpt><trkpt lat="40.5414617" lon="15.4869917"><ele>554.0</ele><time>2026-04-26T12:56:00.849Z</time></trkpt><trkpt lat="40.541415" lon="15.4869217"><ele>554.0</ele><time>2026-04-26T12:56:01.849Z</time></trkpt><trkpt lat="40.5413867" lon="15.486845"><ele>554.0</ele><time>2026-04-26T12:56:02.849Z</time></trkpt><trkpt lat="40.5414367" lon="15.48673"><ele>552.0</ele><time>2026-04-26T12:56:04.85Z</time></trkpt><trkpt lat="40.5414917" lon="15.4866717"><ele>550.0</ele><time>2026-04-26T12:56:05.849Z</time></trkpt><trkpt lat="40.541555" lon="15.4865867"><ele>548.0</ele><time>2026-04-26T12:56:07.85Z</time></trkpt><trkpt lat="40.5415167" lon="15.4865"><ele>546.0</ele><time>2026-04-26T12:56:15.849Z</time></trkpt><trkpt lat="40.5413717" lon="15.4864467"><ele>544.0</ele><time>2026-04-26T12:56:17.85Z</time></trkpt><trkpt lat="40.5412333" lon="15.4864083"><ele>545.3333333333334</ele><time>2026-04-26T12:56:18.85Z</time></trkpt><trkpt lat="40.5410483" lon="15.4863517"><ele>546.6666666666666</ele><time>2026-04-26T12:56:19.849Z</time></trkpt><trkpt lat="40.5408567" lon="15.4862683"><ele>548.0</ele><time>2026-04-26T12:56:20.849Z</time></trkpt><trkpt lat="40.54067" lon="15.486155"><ele>548.3333333333333</ele><time>2026-04-26T12:56:21.849Z</time></trkpt><trkpt lat="40.5404917" lon="15.4860183"><ele>548.6666666666666</ele><time>2026-04-26T12:56:22.849Z</time></trkpt><trkpt lat="40.54033" lon="15.48587"><ele>549.0</ele><time>2026-04-26T12:56:23.85Z</time></trkpt><trkpt lat="40.5401767" lon="15.4857017"><ele>549.0</ele><time>2026-04-26T12:56:24.849Z</time></trkpt><trkpt lat="40.5400283" lon="15.4855183"><ele>549.0</ele><time>2026-04-26T12:56:25.85Z</time></trkpt><trkpt lat="40.5398867" lon="15.48531"><ele>549.0</ele><time>2026-04-26T12:56:26.849Z</time></trkpt><trkpt lat="40.5397583" lon="15.485055"><ele>547.5</ele><time>2026-04-26T12:56:27.85Z</time></trkpt><trkpt lat="40.5396367" lon="15.4847683"><ele>546.0</ele><time>2026-04-26T12:56:28.849Z</time></trkpt><trkpt lat="40.53952" lon="15.484505"><ele>546.0</ele><time>2026-04-26T12:56:29.849Z</time></trkpt><trkpt lat="40.5394017" lon="15.4842667"><ele>546.0</ele><time>2026-04-26T12:56:30.85Z</time></trkpt><trkpt lat="40.53928" lon="15.48405"><ele>546.0</ele><time>2026-04-26T12:56:31.849Z</time></trkpt><trkpt lat="40.5391533" lon="15.4838667"><ele>543.3333333333334</ele><time>2026-04-26T12:56:32.85Z</time></trkpt><trkpt lat="40.53902" lon="15.4837067"><ele>540.6666666666667</ele><time>2026-04-26T12:56:33.85Z</time></trkpt><trkpt lat="40.5388767" lon="15.4835667"><ele>538.0</ele><time>2026-04-26T12:56:34.85Z</time></trkpt><trkpt lat="40.5387333" lon="15.4834483"><ele>539.3333333333334</ele><time>2026-04-26T12:56:35.849Z</time></trkpt><trkpt lat="40.53859" lon="15.4833333"><ele>540.6666666666666</ele><time>2026-04-26T12:56:36.849Z</time></trkpt><trkpt lat="40.53845" lon="15.48322"><ele>542.0</ele><time>2026-04-26T12:56:37.849Z</time></trkpt><trkpt lat="40.53832" lon="15.4831133"><ele>542.0</ele><time>2026-04-26T12:56:38.849Z</time></trkpt><trkpt lat="40.5381933" lon="15.4830083"><ele>542.0</ele><time>2026-04-26T12:56:39.85Z</time></trkpt><trkpt lat="40.5380783" lon="15.48291"><ele>542.0</ele><time>2026-04-26T12:56:40.85Z</time></trkpt><trkpt lat="40.5379633" lon="15.482825"><ele>542.0</ele><time>2026-04-26T12:56:41.849Z</time></trkpt><trkpt lat="40.5378517" lon="15.48274"><ele>540.75</ele><time>2026-04-26T12:56:42.849Z</time></trkpt><trkpt lat="40.5377417" lon="15.48266"><ele>539.5</ele><time>2026-04-26T12:56:43.85Z</time></trkpt><trkpt lat="40.537635" lon="15.48258"><ele>538.25</ele><time>2026-04-26T12:56:44.849Z</time></trkpt><trkpt lat="40.53753" lon="15.4825033"><ele>537.0</ele><time>2026-04-26T12:56:45.849Z</time></trkpt><trkpt lat="40.53743" lon="15.482435"><ele>537.0</ele><time>2026-04-26T12:56:46.85Z</time></trkpt><trkpt lat="40.5373167" lon="15.4823717"><ele>537.0</ele><time>2026-04-26T12:56:47.849Z</time></trkpt><trkpt lat="40.5372067" lon="15.482315"><ele>537.0</ele><time>2026-04-26T12:56:48.849Z</time></trkpt><trkpt lat="40.5370867" lon="15.4822617"><ele>537.0</ele><time>2026-04-26T12:56:49.85Z</time></trkpt><trkpt lat="40.5369533" lon="15.4822167"><ele>534.6666666666666</ele><time>2026-04-26T12:56:50.849Z</time></trkpt><trkpt lat="40.5368017" lon="15.482185"><ele>532.3333333333333</ele><time>2026-04-26T12:56:51.85Z</time></trkpt><trkpt lat="40.5366383" lon="15.4821567"><ele>530.0</ele><time>2026-04-26T12:56:52.85Z</time></trkpt><trkpt lat="40.536465" lon="15.4821467"><ele>530.0</ele><time>2026-04-26T12:56:53.85Z</time></trkpt><trkpt lat="40.5362933" lon="15.482145"><ele>530.0</ele><time>2026-04-26T12:56:54.849Z</time></trkpt><trkpt lat="40.536115" lon="15.482155"><ele>530.0</ele><time>2026-04-26T12:56:55.85Z</time></trkpt><trkpt lat="40.5359183" lon="15.4821783"><ele>529.6666666666666</ele><time>2026-04-26T12:56:56.85Z</time></trkpt><trkpt lat="40.53572" lon="15.4822183"><ele>529.3333333333334</ele><time>2026-04-26T12:56:57.85Z</time></trkpt><trkpt lat="40.5355217" lon="15.48228"><ele>529.0</ele><time>2026-04-26T12:56:58.849Z</time></trkpt><trkpt lat="40.53533" lon="15.4823667"><ele>528.0</ele><time>2026-04-26T12:56:59.85Z</time></trkpt><trkpt lat="40.5351483" lon="15.4824783"><ele>527.0</ele><time>2026-04-26T12:57:00.85Z</time></trkpt><trkpt lat="40.5349617" lon="15.4826133"><ele>526.0</ele><time>2026-04-26T12:57:01.85Z</time></trkpt><trkpt lat="40.5347733" lon="15.482765"><ele>526.0</ele><time>2026-04-26T12:57:02.85Z</time></trkpt><trkpt lat="40.5345883" lon="15.48292"><ele>526.0</ele><time>2026-04-26T12:57:03.849Z</time></trkpt><trkpt lat="40.53443" lon="15.4830883"><ele>526.0</ele><time>2026-04-26T12:57:04.849Z</time></trkpt><trkpt lat="40.534285" lon="15.4832633"><ele>525.0</ele><time>2026-04-26T12:57:05.849Z</time></trkpt><trkpt lat="40.5341633" lon="15.4834417"><ele>524.0</ele><time>2026-04-26T12:57:06.849Z</time></trkpt><trkpt lat="40.534055" lon="15.4836167"><ele>523.0</ele><time>2026-04-26T12:57:07.85Z</time></trkpt><trkpt lat="40.5339617" lon="15.4838017"><ele>523.0</ele><time>2026-04-26T12:57:08.849Z</time></trkpt><trkpt lat="40.533865" lon="15.4839817"><ele>523.0</ele><time>2026-04-26T12:57:09.849Z</time></trkpt><trkpt lat="40.5337733" lon="15.48416"><ele>523.0</ele><time>2026-04-26T12:57:10.85Z</time></trkpt><trkpt lat="40.53368" lon="15.4843367"><ele>520.0</ele><time>2026-04-26T12:57:11.849Z</time></trkpt><trkpt lat="40.5335867" lon="15.484505"><ele>517.0</ele><time>2026-04-26T12:57:12.85Z</time></trkpt><trkpt lat="40.5334983" lon="15.4846667"><ele>514.0</ele><time>2026-04-26T12:57:13.85Z</time></trkpt><trkpt lat="40.5334033" lon="15.48482"><ele>514.0</ele><time>2026-04-26T12:57:14.849Z</time></trkpt><trkpt lat="40.5333017" lon="15.48496"><ele>514.0</ele><time>2026-04-26T12:57:15.849Z</time></trkpt><trkpt lat="40.5331883" lon="15.4850867"><ele>514.0</ele><time>2026-04-26T12:57:16.85Z</time></trkpt><trkpt lat="40.5330683" lon="15.4851833"><ele>514.0</ele><time>2026-04-26T12:57:17.85Z</time></trkpt><trkpt lat="40.53294" lon="15.4852717"><ele>513.5</ele><time>2026-04-26T12:57:18.85Z</time></trkpt><trkpt lat="40.53281" lon="15.48535"><ele>513.0</ele><time>2026-04-26T12:57:19.849Z</time></trkpt><trkpt lat="40.532675" lon="15.4854233"><ele>512.5</ele><time>2026-04-26T12:57:20.849Z</time></trkpt><trkpt lat="40.5325333" lon="15.485495"><ele>512.0</ele><time>2026-04-26T12:57:21.85Z</time></trkpt><trkpt lat="40.5323933" lon="15.4855617"><ele>512.0</ele><time>2026-04-26T12:57:22.849Z</time></trkpt><trkpt lat="40.532255" lon="15.4856317"><ele>512.0</ele><time>2026-04-26T12:57:23.85Z</time></trkpt><trkpt lat="40.5321217" lon="15.4857067"><ele>512.0</ele><time>2026-04-26T12:57:24.849Z</time></trkpt><trkpt lat="40.5319917" lon="15.4857833"><ele>512.0</ele><time>2026-04-26T12:57:25.85Z</time></trkpt><trkpt lat="40.53187" lon="15.4858717"><ele>509.20000000000005</ele><time>2026-04-26T12:57:26.85Z</time></trkpt><trkpt lat="40.53176" lon="15.4859683"><ele>506.40000000000003</ele><time>2026-04-26T12:57:27.85Z</time></trkpt><trkpt lat="40.5316683" lon="15.4860533"><ele>503.59999999999997</ele><time>2026-04-26T12:57:28.849Z</time></trkpt><trkpt lat="40.5316033" lon="15.4861183"><ele>500.79999999999995</ele><time>2026-04-26T12:57:29.85Z</time></trkpt><trkpt lat="40.5315333" lon="15.4861667"><ele>498.0</ele><time>2026-04-26T12:57:31.849Z</time></trkpt><trkpt lat="40.5314933" lon="15.4860983"><ele>498.0</ele><time>2026-04-26T12:57:34.849Z</time></trkpt><trkpt lat="40.5315633" lon="15.4860183"><ele>498.0</ele><time>2026-04-26T12:57:36.849Z</time></trkpt><trkpt lat="40.53162" lon="15.4859633"><ele>498.0</ele><time>2026-04-26T12:57:37.849Z</time></trkpt><trkpt lat="40.5316817" lon="15.485895"><ele>498.0</ele><time>2026-04-26T12:57:38.849Z</time></trkpt><trkpt lat="40.5317417" lon="15.485825"><ele>498.0</ele><time>2026-04-26T12:57:39.85Z</time></trkpt><trkpt lat="40.5318" lon="15.4857533"><ele>498.0</ele><time>2026-04-26T12:57:40.849Z</time></trkpt><trkpt lat="40.5318567" lon="15.48567"><ele>498.0</ele><time>2026-04-26T12:57:41.849Z</time></trkpt><trkpt lat="40.5319117" lon="15.48558"><ele>497.99999999999994</ele><time>2026-04-26T12:57:42.849Z</time></trkpt><trkpt lat="40.53197" lon="15.4854783"><ele>497.99999999999994</ele><time>2026-04-26T12:57:43.849Z</time></trkpt><trkpt lat="40.5320233" lon="15.485365"><ele>498.0</ele><time>2026-04-26T12:57:44.849Z</time></trkpt><trkpt lat="40.5320683" lon="15.4852367"><ele>498.0</ele><time>2026-04-26T12:57:45.849Z</time></trkpt><trkpt lat="40.53211" lon="15.4850883"><ele>498.25</ele><time>2026-04-26T12:57:46.849Z</time></trkpt><trkpt lat="40.5321483" lon="15.48492"><ele>498.5</ele><time>2026-04-26T12:57:47.849Z</time></trkpt><trkpt lat="40.5321883" lon="15.48475"><ele>498.75</ele><time>2026-04-26T12:57:48.85Z</time></trkpt><trkpt lat="40.5322267" lon="15.484585"><ele>499.0</ele><time>2026-04-26T12:57:49.85Z</time></trkpt><trkpt lat="40.5322667" lon="15.48443"><ele>496.0</ele><time>2026-04-26T12:57:50.849Z</time></trkpt><trkpt lat="40.53231" lon="15.48428"><ele>493.0</ele><time>2026-04-26T12:57:51.849Z</time></trkpt><trkpt lat="40.5323483" lon="15.4841333"><ele>490.0</ele><time>2026-04-26T12:57:52.85Z</time></trkpt><trkpt lat="40.532385" lon="15.4839917"><ele>487.0</ele><time>2026-04-26T12:57:53.85Z</time></trkpt><trkpt lat="40.5324167" lon="15.4838617"><ele>485.83333333333337</ele><time>2026-04-26T12:57:54.85Z</time></trkpt><trkpt lat="40.5324483" lon="15.4837367"><ele>484.6666666666667</ele><time>2026-04-26T12:57:55.85Z</time></trkpt><trkpt lat="40.5324767" lon="15.4836267"><ele>483.5</ele><time>2026-04-26T12:57:56.849Z</time></trkpt><trkpt lat="40.5325" lon="15.48354"><ele>482.33333333333337</ele><time>2026-04-26T12:57:57.85Z</time></trkpt><trkpt lat="40.5325217" lon="15.48343"><ele>481.1666666666667</ele><time>2026-04-26T12:57:59.849Z</time></trkpt><trkpt lat="40.5325267" lon="15.4833433"><ele>480.0</ele><time>2026-04-26T12:58:01.85Z</time></trkpt><trkpt lat="40.5325167" lon="15.4832417"><ele>480.0</ele><time>2026-04-26T12:58:04.849Z</time></trkpt><trkpt lat="40.5324767" lon="15.4831433"><ele>480.0</ele><time>2026-04-26T12:58:58.848Z</time></trkpt><trkpt lat="40.53245" lon="15.483055"><ele>480.0</ele><time>2026-04-26T12:58:59.848Z</time></trkpt><trkpt lat="40.5324317" lon="15.482945"><ele>480.0</ele><time>2026-04-26T12:59:00.849Z</time></trkpt><trkpt lat="40.5324167" lon="15.4828317"><ele>480.0</ele><time>2026-04-26T12:59:01.848Z</time></trkpt><trkpt lat="40.53241" lon="15.4827183"><ele>480.0</ele><time>2026-04-26T12:59:02.849Z</time></trkpt><trkpt lat="40.5324033" lon="15.4826067"><ele>479.3333333333333</ele><time>2026-04-26T12:59:03.849Z</time></trkpt><trkpt lat="40.5324" lon="15.4824933"><ele>478.66666666666663</ele><time>2026-04-26T12:59:04.849Z</time></trkpt><trkpt lat="40.5324017" lon="15.482385"><ele>478.0</ele><time>2026-04-26T12:59:05.849Z</time></trkpt><trkpt lat="40.5324033" lon="15.4822733"><ele>477.3333333333333</ele><time>2026-04-26T12:59:06.848Z</time></trkpt><trkpt lat="40.5324017" lon="15.4821733"><ele>476.66666666666663</ele><time>2026-04-26T12:59:07.848Z</time></trkpt><trkpt lat="40.5323967" lon="15.4820883"><ele>476.0</ele><time>2026-04-26T12:59:08.849Z</time></trkpt><trkpt lat="40.53236" lon="15.48198"><ele>473.8333333333333</ele><time>2026-04-26T12:59:10.849Z</time></trkpt><trkpt lat="40.5322767" lon="15.4819283"><ele>471.66666666666663</ele><time>2026-04-26T12:59:12.849Z</time></trkpt><trkpt lat="40.5321933" lon="15.4819083"><ele>469.5</ele><time>2026-04-26T12:59:14.849Z</time></trkpt><trkpt lat="40.5320967" lon="15.481895"><ele>467.33333333333337</ele><time>2026-04-26T12:59:16.848Z</time></trkpt><trkpt lat="40.532005" lon="15.4819333"><ele>465.1666666666667</ele><time>2026-04-26T12:59:18.848Z</time></trkpt><trkpt lat="40.5319483" lon="15.481975"><ele>463.0</ele><time>2026-04-26T12:59:19.848Z</time></trkpt><trkpt lat="40.5318867" lon="15.4820383"><ele>463.2</ele><time>2026-04-26T12:59:20.849Z</time></trkpt><trkpt lat="40.5318383" lon="15.4821283"><ele>463.4</ele><time>2026-04-26T12:59:21.848Z</time></trkpt><trkpt lat="40.5318017" lon="15.4822467"><ele>463.59999999999997</ele><time>2026-04-26T12:59:22.848Z</time></trkpt><trkpt lat="40.5317717" lon="15.4823967"><ele>463.79999999999995</ele><time>2026-04-26T12:59:23.848Z</time></trkpt><trkpt lat="40.5317383" lon="15.4825367"><ele>464.0</ele><time>2026-04-26T12:59:24.849Z</time></trkpt><trkpt lat="40.531705" lon="15.48266"><ele>464.0</ele><time>2026-04-26T12:59:25.848Z</time></trkpt><trkpt lat="40.5316583" lon="15.4827683"><ele>464.0</ele><time>2026-04-26T12:59:26.849Z</time></trkpt><trkpt lat="40.53161" lon="15.4828767"><ele>464.0</ele><time>2026-04-26T12:59:27.849Z</time></trkpt><trkpt lat="40.5315517" lon="15.4829917"><ele>464.0</ele><time>2026-04-26T12:59:28.849Z</time></trkpt><trkpt lat="40.5314833" lon="15.4831083"><ele>464.0</ele><time>2026-04-26T12:59:29.848Z</time></trkpt><trkpt lat="40.531415" lon="15.4832267"><ele>464.0</ele><time>2026-04-26T12:59:30.848Z</time></trkpt><trkpt lat="40.5313583" lon="15.4833433"><ele>464.0</ele><time>2026-04-26T12:59:31.848Z</time></trkpt><trkpt lat="40.5313033" lon="15.4834633"><ele>464.0</ele><time>2026-04-26T12:59:32.848Z</time></trkpt><trkpt lat="40.5312517" lon="15.4835783"><ele>464.0</ele><time>2026-04-26T12:59:33.848Z</time></trkpt><trkpt lat="40.531205" lon="15.4836783"><ele>464.0</ele><time>2026-04-26T12:59:34.848Z</time></trkpt><trkpt lat="40.5311567" lon="15.4837733"><ele>465.0</ele><time>2026-04-26T12:59:35.848Z</time></trkpt><trkpt lat="40.5310983" lon="15.4838483"><ele>466.0</ele><time>2026-04-26T12:59:36.848Z</time></trkpt><trkpt lat="40.531035" lon="15.4838983"><ele>467.0</ele><time>2026-04-26T12:59:37.849Z</time></trkpt><trkpt lat="40.5309583" lon="15.4839367"><ele>468.0</ele><time>2026-04-26T12:59:38.849Z</time></trkpt><trkpt lat="40.5308617" lon="15.4839783"><ele>469.0</ele><time>2026-04-26T12:59:39.849Z</time></trkpt><trkpt lat="40.5307467" lon="15.4840167"><ele>469.0</ele><time>2026-04-26T12:59:40.849Z</time></trkpt><trkpt lat="40.5306233" lon="15.4840583"><ele>469.0</ele><time>2026-04-26T12:59:41.848Z</time></trkpt><trkpt lat="40.5304967" lon="15.4840983"><ele>469.0</ele><time>2026-04-26T12:59:42.849Z</time></trkpt><trkpt lat="40.5303667" lon="15.4841367"><ele>469.0</ele><time>2026-04-26T12:59:43.848Z</time></trkpt><trkpt lat="40.530235" lon="15.4841783"><ele>467.0</ele><time>2026-04-26T12:59:44.849Z</time></trkpt><trkpt lat="40.5301083" lon="15.48422"><ele>465.0</ele><time>2026-04-26T12:59:45.848Z</time></trkpt><trkpt lat="40.5299867" lon="15.4842617"><ele>463.0</ele><time>2026-04-26T12:59:46.848Z</time></trkpt><trkpt lat="40.5298717" lon="15.4843017"><ele>461.0</ele><time>2026-04-26T12:59:47.849Z</time></trkpt><trkpt lat="40.5297617" lon="15.4843417"><ele>461.0</ele><time>2026-04-26T12:59:48.848Z</time></trkpt><trkpt lat="40.5296533" lon="15.48438"><ele>461.0</ele><time>2026-04-26T12:59:49.849Z</time></trkpt><trkpt lat="40.529545" lon="15.484415"><ele>461.0</ele><time>2026-04-26T12:59:50.849Z</time></trkpt><trkpt lat="40.5294283" lon="15.4844467"><ele>461.0</ele><time>2026-04-26T12:59:51.848Z</time></trkpt><trkpt lat="40.52932" lon="15.484465"><ele>459.8333333333333</ele><time>2026-04-26T12:59:52.848Z</time></trkpt><trkpt lat="40.529215" lon="15.48448"><ele>458.66666666666663</ele><time>2026-04-26T12:59:53.849Z</time></trkpt><trkpt lat="40.5291317" lon="15.4844817"><ele>457.5</ele><time>2026-04-26T12:59:54.849Z</time></trkpt><trkpt lat="40.5290683" lon="15.4844667"><ele>456.33333333333337</ele><time>2026-04-26T12:59:55.849Z</time></trkpt><trkpt lat="40.5289683" lon="15.4843917"><ele>455.1666666666667</ele><time>2026-04-26T12:59:57.849Z</time></trkpt><trkpt lat="40.528925" lon="15.4843283"><ele>454.0</ele><time>2026-04-26T12:59:59.849Z</time></trkpt><trkpt lat="40.5288867" lon="15.48424"><ele>454.0</ele><time>2026-04-26T13:00:06.848Z</time></trkpt><trkpt lat="40.5288717" lon="15.4841033"><ele>454.0</ele><time>2026-04-26T13:00:08.848Z</time></trkpt><trkpt lat="40.528895" lon="15.4839533"><ele>454.0</ele><time>2026-04-26T13:00:10.849Z</time></trkpt><trkpt lat="40.5289233" lon="15.4837917"><ele>454.0</ele><time>2026-04-26T13:00:12.849Z</time></trkpt><trkpt lat="40.52891" lon="15.483705"><ele>454.0</ele><time>2026-04-26T13:00:13.848Z</time></trkpt><trkpt lat="40.5288817" lon="15.4836133"><ele>452.5714285714286</ele><time>2026-04-26T13:00:14.848Z</time></trkpt><trkpt lat="40.5288417" lon="15.48353"><ele>451.1428571428572</ele><time>2026-04-26T13:00:15.849Z</time></trkpt><trkpt lat="40.5288017" lon="15.48345"><ele>449.7142857142857</ele><time>2026-04-26T13:00:16.848Z</time></trkpt><trkpt lat="40.5287617" lon="15.4833717"><ele>448.28571428571433</ele><time>2026-04-26T13:00:17.848Z</time></trkpt><trkpt lat="40.5287267" lon="15.4832983"><ele>446.8571428571429</ele><time>2026-04-26T13:00:18.848Z</time></trkpt><trkpt lat="40.5286983" lon="15.4832217"><ele>445.42857142857144</ele><time>2026-04-26T13:00:19.849Z</time></trkpt><trkpt lat="40.5286717" lon="15.4831433"><ele>444.0</ele><time>2026-04-26T13:00:20.849Z</time></trkpt><trkpt lat="40.52865" lon="15.48306"><ele>444.3333333333333</ele><time>2026-04-26T13:00:21.848Z</time></trkpt><trkpt lat="40.5286333" lon="15.482975"><ele>444.66666666666663</ele><time>2026-04-26T13:00:22.848Z</time></trkpt><trkpt lat="40.52862" lon="15.4828883"><ele>445.0</ele><time>2026-04-26T13:00:23.849Z</time></trkpt><trkpt lat="40.5286083" lon="15.482805"><ele>445.3333333333333</ele><time>2026-04-26T13:00:24.849Z</time></trkpt><trkpt lat="40.52855" lon="15.4827033"><ele>445.66666666666663</ele><time>2026-04-26T13:00:26.849Z</time></trkpt><trkpt lat="40.528415" lon="15.4827"><ele>446.0</ele><time>2026-04-26T13:00:28.849Z</time></trkpt><trkpt lat="40.5283333" lon="15.4827317"><ele>445.99999999999994</ele><time>2026-04-26T13:00:29.848Z</time></trkpt><trkpt lat="40.5282483" lon="15.4827583"><ele>446.0</ele><time>2026-04-26T13:00:30.848Z</time></trkpt><trkpt lat="40.528165" lon="15.4827617"><ele>446.0</ele><time>2026-04-26T13:00:31.849Z</time></trkpt><trkpt lat="40.528085" lon="15.482745"><ele>446.0</ele><time>2026-04-26T13:00:32.849Z</time></trkpt><trkpt lat="40.528005" lon="15.4827183"><ele>445.99999999999994</ele><time>2026-04-26T13:00:33.848Z</time></trkpt><trkpt lat="40.52792" lon="15.4826867"><ele>446.0</ele><time>2026-04-26T13:00:34.849Z</time></trkpt><trkpt lat="40.5278333" lon="15.4826533"><ele>444.8</ele><time>2026-04-26T13:00:35.848Z</time></trkpt><trkpt lat="40.5277467" lon="15.4826083"><ele>443.6</ele><time>2026-04-26T13:00:36.848Z</time></trkpt><trkpt lat="40.5276517" lon="15.4825567"><ele>442.4</ele><time>2026-04-26T13:00:37.849Z</time></trkpt><trkpt lat="40.5275517" lon="15.4825067"><ele>441.2</ele><time>2026-04-26T13:00:38.849Z</time></trkpt><trkpt lat="40.52744" lon="15.482465"><ele>440.0</ele><time>2026-04-26T13:00:39.848Z</time></trkpt><trkpt lat="40.52733" lon="15.482425"><ele>439.99999999999994</ele><time>2026-04-26T13:00:40.849Z</time></trkpt><trkpt lat="40.5272283" lon="15.482395"><ele>440.0</ele><time>2026-04-26T13:00:41.849Z</time></trkpt><trkpt lat="40.52714" lon="15.4823633"><ele>440.0</ele><time>2026-04-26T13:00:42.849Z</time></trkpt><trkpt lat="40.5270733" lon="15.48233"><ele>440.0</ele><time>2026-04-26T13:00:43.848Z</time></trkpt><trkpt lat="40.5270033" lon="15.4822983"><ele>439.99999999999994</ele><time>2026-04-26T13:00:44.848Z</time></trkpt><trkpt lat="40.5269333" lon="15.4822683"><ele>440.0</ele><time>2026-04-26T13:00:45.849Z</time></trkpt><trkpt lat="40.52687" lon="15.48223"><ele>439.99999999999994</ele><time>2026-04-26T13:00:46.849Z</time></trkpt><trkpt lat="40.5268167" lon="15.48218"><ele>440.0</ele><time>2026-04-26T13:00:47.849Z</time></trkpt><trkpt lat="40.52677" lon="15.4821183"><ele>440.0</ele><time>2026-04-26T13:00:48.848Z</time></trkpt><trkpt lat="40.5267333" lon="15.4820417"><ele>440.0</ele><time>2026-04-26T13:00:49.849Z</time></trkpt><trkpt lat="40.5267" lon="15.4819617"><ele>440.0</ele><time>2026-04-26T13:00:50.848Z</time></trkpt><trkpt lat="40.526675" lon="15.4818733"><ele>439.99999999999994</ele><time>2026-04-26T13:00:51.848Z</time></trkpt><trkpt lat="40.5266717" lon="15.4817883"><ele>440.0</ele><time>2026-04-26T13:00:52.848Z</time></trkpt><trkpt lat="40.5266833" lon="15.481695"><ele>440.8333333333333</ele><time>2026-04-26T13:00:53.848Z</time></trkpt><trkpt lat="40.5266983" lon="15.48159"><ele>441.66666666666663</ele><time>2026-04-26T13:00:54.849Z</time></trkpt><trkpt lat="40.5267233" lon="15.48148"><ele>442.5</ele><time>2026-04-26T13:00:55.848Z</time></trkpt><trkpt lat="40.5267517" lon="15.481375"><ele>443.33333333333337</ele><time>2026-04-26T13:00:56.849Z</time></trkpt><trkpt lat="40.526785" lon="15.4812633"><ele>444.1666666666667</ele><time>2026-04-26T13:00:57.848Z</time></trkpt><trkpt lat="40.5268267" lon="15.4811533"><ele>445.0</ele><time>2026-04-26T13:00:58.849Z</time></trkpt><trkpt lat="40.5268667" lon="15.4810433"><ele>445.1666666666667</ele><time>2026-04-26T13:00:59.848Z</time></trkpt><trkpt lat="40.526905" lon="15.480935"><ele>445.33333333333337</ele><time>2026-04-26T13:01:00.849Z</time></trkpt><trkpt lat="40.52694" lon="15.48084"><ele>445.5</ele><time>2026-04-26T13:01:01.849Z</time></trkpt><trkpt lat="40.5269817" lon="15.480765"><ele>445.66666666666663</ele><time>2026-04-26T13:01:02.849Z</time></trkpt><trkpt lat="40.527035" lon="15.480715"><ele>445.8333333333333</ele><time>2026-04-26T13:01:03.848Z</time></trkpt><trkpt lat="40.5271" lon="15.48068"><ele>446.0</ele><time>2026-04-26T13:01:04.848Z</time></trkpt><trkpt lat="40.527175" lon="15.4806767"><ele>449.8</ele><time>2026-04-26T13:01:05.849Z</time></trkpt><trkpt lat="40.527255" lon="15.4807083"><ele>453.6</ele><time>2026-04-26T13:01:06.848Z</time></trkpt><trkpt lat="40.5273367" lon="15.48077"><ele>457.4</ele><time>2026-04-26T13:01:07.849Z</time></trkpt><trkpt lat="40.5274233" lon="15.4808733"><ele>461.2</ele><time>2026-04-26T13:01:08.848Z</time></trkpt><trkpt lat="40.5274833" lon="15.481005"><ele>465.0</ele><time>2026-04-26T13:01:09.848Z</time></trkpt><trkpt lat="40.5275433" lon="15.48115"><ele>465.25</ele><time>2026-04-26T13:01:10.848Z</time></trkpt><trkpt lat="40.5276117" lon="15.481275"><ele>465.5</ele><time>2026-04-26T13:01:11.848Z</time></trkpt><trkpt lat="40.5277083" lon="15.481385"><ele>465.75</ele><time>2026-04-26T13:01:12.848Z</time></trkpt><trkpt lat="40.5278083" lon="15.4814833"><ele>466.0</ele><time>2026-04-26T13:01:13.849Z</time></trkpt><trkpt lat="40.527905" lon="15.4815667"><ele>466.0</ele><time>2026-04-26T13:01:14.848Z</time></trkpt><trkpt lat="40.5279883" lon="15.48165"><ele>466.0</ele><time>2026-04-26T13:01:15.848Z</time></trkpt><trkpt lat="40.5280683" lon="15.4817117"><ele>466.0</ele><time>2026-04-26T13:01:16.849Z</time></trkpt><trkpt lat="40.5281533" lon="15.4817483"><ele>466.0</ele><time>2026-04-26T13:01:17.848Z</time></trkpt><trkpt lat="40.5282483" lon="15.481755"><ele>466.0</ele><time>2026-04-26T13:01:18.848Z</time></trkpt><trkpt lat="40.52835" lon="15.4817383"><ele>466.0</ele><time>2026-04-26T13:01:19.849Z</time></trkpt><trkpt lat="40.528455" lon="15.4817033"><ele>466.0</ele><time>2026-04-26T13:01:20.848Z</time></trkpt><trkpt lat="40.5285467" lon="15.481675"><ele>466.0</ele><time>2026-04-26T13:01:21.848Z</time></trkpt><trkpt lat="40.5286067" lon="15.4816317"><ele>466.0</ele><time>2026-04-26T13:01:22.849Z</time></trkpt><trkpt lat="40.5286267" lon="15.481505"><ele>466.0</ele><time>2026-04-26T13:01:24.848Z</time></trkpt><trkpt lat="40.5285167" lon="15.4814117"><ele>466.0</ele><time>2026-04-26T13:01:26.849Z</time></trkpt><trkpt lat="40.5284233" lon="15.4813583"><ele>466.0</ele><time>2026-04-26T13:01:27.848Z</time></trkpt><trkpt lat="40.5283283" lon="15.4812717"><ele>466.0</ele><time>2026-04-26T13:01:28.849Z</time></trkpt><trkpt lat="40.52824" lon="15.48117"><ele>466.0</ele><time>2026-04-26T13:01:29.848Z</time></trkpt><trkpt lat="40.5281583" lon="15.4810433"><ele>469.4</ele><time>2026-04-26T13:01:30.849Z</time></trkpt><trkpt lat="40.5280917" lon="15.4809267"><ele>472.8</ele><time>2026-04-26T13:01:31.849Z</time></trkpt><trkpt lat="40.52804" lon="15.48082"><ele>476.19999999999993</ele><time>2026-04-26T13:01:32.848Z</time></trkpt><trkpt lat="40.5280167" lon="15.4807283"><ele>479.59999999999997</ele><time>2026-04-26T13:01:33.848Z</time></trkpt><trkpt lat="40.5280783" lon="15.480605"><ele>483.0</ele><time>2026-04-26T13:01:35.848Z</time></trkpt><trkpt lat="40.5281967" lon="15.4806533"><ele>483.0</ele><time>2026-04-26T13:01:37.849Z</time></trkpt><trkpt lat="40.528275" lon="15.4807183"><ele>482.99999999999994</ele><time>2026-04-26T13:01:38.848Z</time></trkpt><trkpt lat="40.52836" lon="15.4807817"><ele>482.99999999999994</ele><time>2026-04-26T13:01:39.848Z</time></trkpt><trkpt lat="40.5284617" lon="15.4808117"><ele>483.0</ele><time>2026-04-26T13:01:40.848Z</time></trkpt><trkpt lat="40.528575" lon="15.4808267"><ele>483.0</ele><time>2026-04-26T13:01:41.849Z</time></trkpt><trkpt lat="40.5287083" lon="15.48083"><ele>485.0</ele><time>2026-04-26T13:01:42.848Z</time></trkpt><trkpt lat="40.5288583" lon="15.4808283"><ele>487.0</ele><time>2026-04-26T13:01:43.848Z</time></trkpt><trkpt lat="40.5290117" lon="15.480825"><ele>489.0</ele><time>2026-04-26T13:01:44.849Z</time></trkpt><trkpt lat="40.529175" lon="15.4808133"><ele>489.0</ele><time>2026-04-26T13:01:45.849Z</time></trkpt><trkpt lat="40.5293117" lon="15.4807817"><ele>489.0</ele><time>2026-04-26T13:01:46.849Z</time></trkpt><trkpt lat="40.52945" lon="15.4807433"><ele>489.0</ele><time>2026-04-26T13:01:47.848Z</time></trkpt><trkpt lat="40.5295767" lon="15.4806867"><ele>489.0</ele><time>2026-04-26T13:01:48.849Z</time></trkpt><trkpt lat="40.5296967" lon="15.4806083"><ele>486.5</ele><time>2026-04-26T13:01:49.848Z</time></trkpt><trkpt lat="40.529815" lon="15.4805083"><ele>484.0</ele><time>2026-04-26T13:01:50.849Z</time></trkpt><trkpt lat="40.52992" lon="15.4804067"><ele>481.5</ele><time>2026-04-26T13:01:51.848Z</time></trkpt><trkpt lat="40.530015" lon="15.4802967"><ele>479.0</ele><time>2026-04-26T13:01:52.848Z</time></trkpt><trkpt lat="40.5301167" lon="15.4801767"><ele>480.5</ele><time>2026-04-26T13:01:53.848Z</time></trkpt><trkpt lat="40.5302167" lon="15.480065"><ele>482.0</ele><time>2026-04-26T13:01:54.849Z</time></trkpt><trkpt lat="40.530315" lon="15.4799617"><ele>483.5</ele><time>2026-04-26T13:01:55.848Z</time></trkpt><trkpt lat="40.5304067" lon="15.4798683"><ele>485.0</ele><time>2026-04-26T13:01:56.848Z</time></trkpt><trkpt lat="40.5304967" lon="15.4797817"><ele>485.0</ele><time>2026-04-26T13:01:57.849Z</time></trkpt><trkpt lat="40.5305883" lon="15.479695"><ele>485.0</ele><time>2026-04-26T13:01:58.848Z</time></trkpt><trkpt lat="40.5306767" lon="15.4796083"><ele>485.0</ele><time>2026-04-26T13:01:59.848Z</time></trkpt><trkpt lat="40.5307617" lon="15.4795167"><ele>485.0</ele><time>2026-04-26T13:02:00.849Z</time></trkpt><trkpt lat="40.5308367" lon="15.4794233"><ele>485.0</ele><time>2026-04-26T13:02:01.849Z</time></trkpt><trkpt lat="40.53091" lon="15.4793317"><ele>481.6</ele><time>2026-04-26T13:02:02.848Z</time></trkpt><trkpt lat="40.53099" lon="15.4792317"><ele>478.2</ele><time>2026-04-26T13:02:03.848Z</time></trkpt><trkpt lat="40.5310683" lon="15.4791317"><ele>474.79999999999995</ele><time>2026-04-26T13:02:04.849Z</time></trkpt><trkpt lat="40.53115" lon="15.4790233"><ele>471.4</ele><time>2026-04-26T13:02:05.849Z</time></trkpt><trkpt lat="40.5312267" lon="15.478915"><ele>468.0</ele><time>2026-04-26T13:02:06.848Z</time></trkpt><trkpt lat="40.5313167" lon="15.4788083"><ele>474.25</ele><time>2026-04-26T13:02:07.848Z</time></trkpt><trkpt lat="40.5314083" lon="15.47869"><ele>480.5</ele><time>2026-04-26T13:02:08.848Z</time></trkpt><trkpt lat="40.5315" lon="15.4785683"><ele>486.75</ele><time>2026-04-26T13:02:09.849Z</time></trkpt><trkpt lat="40.5315767" lon="15.4784533"><ele>493.0</ele><time>2026-04-26T13:02:10.849Z</time></trkpt><trkpt lat="40.53164" lon="15.4783533"><ele>493.00000000000006</ele><time>2026-04-26T13:02:11.848Z</time></trkpt><trkpt lat="40.5316883" lon="15.47827"><ele>493.0</ele><time>2026-04-26T13:02:12.849Z</time></trkpt><trkpt lat="40.531745" lon="15.4781567"><ele>493.0</ele><time>2026-04-26T13:02:14.848Z</time></trkpt><trkpt lat="40.5317683" lon="15.4780783"><ele>493.0</ele><time>2026-04-26T13:02:18.848Z</time></trkpt><trkpt lat="40.531795" lon="15.4779933"><ele>493.00000000000006</ele><time>2026-04-26T13:02:23.848Z</time></trkpt><trkpt lat="40.53182" lon="15.477825"><ele>493.0</ele><time>2026-04-26T13:02:25.849Z</time></trkpt><trkpt lat="40.5318333" lon="15.4777017"><ele>495.0</ele><time>2026-04-26T13:02:26.849Z</time></trkpt><trkpt lat="40.5318433" lon="15.477565"><ele>496.99999999999994</ele><time>2026-04-26T13:02:27.848Z</time></trkpt><trkpt lat="40.531845" lon="15.4774183"><ele>498.99999999999994</ele><time>2026-04-26T13:02:28.849Z</time></trkpt><trkpt lat="40.531845" lon="15.47727"><ele>501.0</ele><time>2026-04-26T13:02:29.848Z</time></trkpt><trkpt lat="40.531845" lon="15.477115"><ele>503.0</ele><time>2026-04-26T13:02:30.849Z</time></trkpt><trkpt lat="40.5318333" lon="15.4769517"><ele>503.0</ele><time>2026-04-26T13:02:31.849Z</time></trkpt><trkpt lat="40.53182" lon="15.4767917"><ele>503.0</ele><time>2026-04-26T13:02:32.848Z</time></trkpt><trkpt lat="40.531795" lon="15.4766217"><ele>503.0</ele><time>2026-04-26T13:02:33.848Z</time></trkpt><trkpt lat="40.531765" lon="15.4764483"><ele>503.0</ele><time>2026-04-26T13:02:34.849Z</time></trkpt><trkpt lat="40.5317333" lon="15.4762767"><ele>503.0</ele><time>2026-04-26T13:02:35.848Z</time></trkpt><trkpt lat="40.5317133" lon="15.476105"><ele>502.99999999999994</ele><time>2026-04-26T13:02:36.848Z</time></trkpt><trkpt lat="40.5316917" lon="15.475945"><ele>502.99999999999994</ele><time>2026-04-26T13:02:37.848Z</time></trkpt><trkpt lat="40.5316783" lon="15.47581"><ele>503.0</ele><time>2026-04-26T13:02:38.848Z</time></trkpt><trkpt lat="40.5316833" lon="15.4756967"><ele>503.0</ele><time>2026-04-26T13:02:39.848Z</time></trkpt><trkpt lat="40.5317" lon="15.47559"><ele>503.0</ele><time>2026-04-26T13:02:40.849Z</time></trkpt><trkpt lat="40.5317283" lon="15.4754683"><ele>503.0</ele><time>2026-04-26T13:02:41.849Z</time></trkpt><trkpt lat="40.5317683" lon="15.4753217"><ele>503.0</ele><time>2026-04-26T13:02:42.849Z</time></trkpt><trkpt lat="40.53182" lon="15.4751517"><ele>503.0</ele><time>2026-04-26T13:02:43.849Z</time></trkpt><trkpt lat="40.5318717" lon="15.474965"><ele>506.3333333333333</ele><time>2026-04-26T13:02:44.848Z</time></trkpt><trkpt lat="40.5319367" lon="15.474775"><ele>509.66666666666663</ele><time>2026-04-26T13:02:45.849Z</time></trkpt><trkpt lat="40.5320133" lon="15.4745817"><ele>513.0</ele><time>2026-04-26T13:02:46.848Z</time></trkpt><trkpt lat="40.5320783" lon="15.4743883"><ele>507.75</ele><time>2026-04-26T13:02:47.848Z</time></trkpt><trkpt lat="40.5321483" lon="15.474195"><ele>502.5</ele><time>2026-04-26T13:02:48.848Z</time></trkpt><trkpt lat="40.5322167" lon="15.474025"><ele>497.25</ele><time>2026-04-26T13:02:49.848Z</time></trkpt><trkpt lat="40.53227" lon="15.473875"><ele>492.0</ele><time>2026-04-26T13:02:50.849Z</time></trkpt><trkpt lat="40.5323133" lon="15.4737333"><ele>492.0</ele><time>2026-04-26T13:02:51.848Z</time></trkpt><trkpt lat="40.5323483" lon="15.4735967"><ele>492.00000000000006</ele><time>2026-04-26T13:02:52.849Z</time></trkpt><trkpt lat="40.532375" lon="15.473465"><ele>492.00000000000006</ele><time>2026-04-26T13:02:53.849Z</time></trkpt><trkpt lat="40.5323983" lon="15.4733383"><ele>492.0</ele><time>2026-04-26T13:02:54.848Z</time></trkpt><trkpt lat="40.5324217" lon="15.4732183"><ele>492.0</ele><time>2026-04-26T13:02:55.848Z</time></trkpt><trkpt lat="40.5324383" lon="15.4731067"><ele>492.0</ele><time>2026-04-26T13:02:56.848Z</time></trkpt><trkpt lat="40.5324617" lon="15.4729983"><ele>492.0</ele><time>2026-04-26T13:02:57.849Z</time></trkpt><trkpt lat="40.53248" lon="15.4728967"><ele>492.0</ele><time>2026-04-26T13:02:58.848Z</time></trkpt><trkpt lat="40.5325" lon="15.4727883"><ele>492.0</ele><time>2026-04-26T13:02:59.849Z</time></trkpt><trkpt lat="40.53252" lon="15.4726883"><ele>492.0</ele><time>2026-04-26T13:03:00.848Z</time></trkpt><trkpt lat="40.532535" lon="15.4725817"><ele>492.0</ele><time>2026-04-26T13:03:01.849Z</time></trkpt><trkpt lat="40.5325533" lon="15.472475"><ele>493.1666666666667</ele><time>2026-04-26T13:03:02.849Z</time></trkpt><trkpt lat="40.53258" lon="15.47236"><ele>494.33333333333337</ele><time>2026-04-26T13:03:03.849Z</time></trkpt><trkpt lat="40.532595" lon="15.472255"><ele>495.5</ele><time>2026-04-26T13:03:04.849Z</time></trkpt><trkpt lat="40.5326067" lon="15.472155"><ele>496.6666666666667</ele><time>2026-04-26T13:03:05.848Z</time></trkpt><trkpt lat="40.5326183" lon="15.4720583"><ele>497.83333333333337</ele><time>2026-04-26T13:03:06.848Z</time></trkpt><trkpt lat="40.5326283" lon="15.4719683"><ele>499.0</ele><time>2026-04-26T13:03:07.849Z</time></trkpt><trkpt lat="40.5326267" lon="15.4718733"><ele>499.0</ele><time>2026-04-26T13:03:08.849Z</time></trkpt><trkpt lat="40.5326317" lon="15.4717717"><ele>499.0</ele><time>2026-04-26T13:03:09.849Z</time></trkpt><trkpt lat="40.532635" lon="15.4716583"><ele>499.0</ele><time>2026-04-26T13:03:10.848Z</time></trkpt><trkpt lat="40.5326433" lon="15.471535"><ele>499.0</ele><time>2026-04-26T13:03:11.849Z</time></trkpt><trkpt lat="40.5326583" lon="15.4714083"><ele>499.0</ele><time>2026-04-26T13:03:12.849Z</time></trkpt><trkpt lat="40.5326733" lon="15.4712733"><ele>496.79999999999995</ele><time>2026-04-26T13:03:13.848Z</time></trkpt><trkpt lat="40.5326767" lon="15.47114"><ele>494.59999999999997</ele><time>2026-04-26T13:03:14.849Z</time></trkpt><trkpt lat="40.5326817" lon="15.4709983"><ele>492.4</ele><time>2026-04-26T13:03:15.849Z</time></trkpt><trkpt lat="40.5326917" lon="15.47085"><ele>490.2</ele><time>2026-04-26T13:03:16.849Z</time></trkpt><trkpt lat="40.5326967" lon="15.470695"><ele>488.0</ele><time>2026-04-26T13:03:17.849Z</time></trkpt><trkpt lat="40.5327033" lon="15.4705333"><ele>487.4</ele><time>2026-04-26T13:03:18.848Z</time></trkpt><trkpt lat="40.5327117" lon="15.4703733"><ele>486.79999999999995</ele><time>2026-04-26T13:03:19.849Z</time></trkpt><trkpt lat="40.5327217" lon="15.47022"><ele>486.2</ele><time>2026-04-26T13:03:20.849Z</time></trkpt><trkpt lat="40.5327283" lon="15.470085"><ele>485.6</ele><time>2026-04-26T13:03:21.848Z</time></trkpt><trkpt lat="40.5327317" lon="15.4699683"><ele>485.0</ele><time>2026-04-26T13:03:22.849Z</time></trkpt><trkpt lat="40.5327333" lon="15.4698617"><ele>484.99999999999994</ele><time>2026-04-26T13:03:23.849Z</time></trkpt><trkpt lat="40.5327367" lon="15.46976"><ele>485.0</ele><time>2026-04-26T13:03:24.849Z</time></trkpt><trkpt lat="40.5327367" lon="15.4696717"><ele>485.0</ele><time>2026-04-26T13:03:25.848Z</time></trkpt><trkpt lat="40.53274" lon="15.46955"><ele>485.0</ele><time>2026-04-26T13:03:27.849Z</time></trkpt><trkpt lat="40.5327417" lon="15.4694483"><ele>484.99999999999994</ele><time>2026-04-26T13:03:29.848Z</time></trkpt><trkpt lat="40.5327533" lon="15.469365"><ele>485.0</ele><time>2026-04-26T13:03:31.849Z</time></trkpt><trkpt lat="40.53278" lon="15.469215"><ele>485.6</ele><time>2026-04-26T13:03:52.848Z</time></trkpt><trkpt lat="40.5327967" lon="15.469105"><ele>486.2</ele><time>2026-04-26T13:03:53.849Z</time></trkpt><trkpt lat="40.5328017" lon="15.4689883"><ele>486.79999999999995</ele><time>2026-04-26T13:03:54.848Z</time></trkpt><trkpt lat="40.5328033" lon="15.4688717"><ele>487.4</ele><time>2026-04-26T13:03:55.849Z</time></trkpt><trkpt lat="40.5328117" lon="15.4687467"><ele>488.0</ele><time>2026-04-26T13:03:56.849Z</time></trkpt><trkpt lat="40.5328233" lon="15.468615"><ele>491.0</ele><time>2026-04-26T13:03:57.849Z</time></trkpt><trkpt lat="40.5328367" lon="15.468475"><ele>494.0</ele><time>2026-04-26T13:03:58.849Z</time></trkpt><trkpt lat="40.5328517" lon="15.4683183"><ele>497.0</ele><time>2026-04-26T13:03:59.849Z</time></trkpt><trkpt lat="40.5328517" lon="15.4681567"><ele>500.0</ele><time>2026-04-26T13:04:00.848Z</time></trkpt><trkpt lat="40.53286" lon="15.467995"><ele>500.6</ele><time>2026-04-26T13:04:01.849Z</time></trkpt><trkpt lat="40.5328683" lon="15.4678517"><ele>501.2</ele><time>2026-04-26T13:04:02.848Z</time></trkpt><trkpt lat="40.53287" lon="15.4677283"><ele>501.79999999999995</ele><time>2026-04-26T13:04:03.848Z</time></trkpt><trkpt lat="40.532875" lon="15.4676067"><ele>502.4</ele><time>2026-04-26T13:04:04.848Z</time></trkpt><trkpt lat="40.5328867" lon="15.4674883"><ele>503.0</ele><time>2026-04-26T13:04:05.849Z</time></trkpt><trkpt lat="40.5329033" lon="15.4673733"><ele>497.99999999999994</ele><time>2026-04-26T13:04:06.848Z</time></trkpt><trkpt lat="40.5329217" lon="15.4672533"><ele>493.0</ele><time>2026-04-26T13:04:07.849Z</time></trkpt><trkpt lat="40.5329433" lon="15.4671417"><ele>488.0</ele><time>2026-04-26T13:04:08.849Z</time></trkpt><trkpt lat="40.5329583" lon="15.46703"><ele>483.0</ele><time>2026-04-26T13:04:09.849Z</time></trkpt><trkpt lat="40.5329717" lon="15.46692"><ele>477.99999999999994</ele><time>2026-04-26T13:04:10.849Z</time></trkpt><trkpt lat="40.5329817" lon="15.466815"><ele>473.0</ele><time>2026-04-26T13:04:11.848Z</time></trkpt><trkpt lat="40.5329933" lon="15.4667"><ele>473.0</ele><time>2026-04-26T13:04:12.849Z</time></trkpt><trkpt lat="40.5330033" lon="15.4665817"><ele>472.99999999999994</ele><time>2026-04-26T13:04:13.849Z</time></trkpt><trkpt lat="40.533015" lon="15.4664667"><ele>472.99999999999994</ele><time>2026-04-26T13:04:14.849Z</time></trkpt><trkpt lat="40.53303" lon="15.4663517"><ele>473.0</ele><time>2026-04-26T13:04:15.849Z</time></trkpt><trkpt lat="40.5330533" lon="15.4662233"><ele>473.0</ele><time>2026-04-26T13:04:16.848Z</time></trkpt><trkpt lat="40.53307" lon="15.4660917"><ele>473.8333333333333</ele><time>2026-04-26T13:04:17.848Z</time></trkpt><trkpt lat="40.5330783" lon="15.4659583"><ele>474.66666666666663</ele><time>2026-04-26T13:04:18.849Z</time></trkpt><trkpt lat="40.5330817" lon="15.4658433"><ele>475.5</ele><time>2026-04-26T13:04:19.849Z</time></trkpt><trkpt lat="40.5330817" lon="15.4657367"><ele>476.33333333333337</ele><time>2026-04-26T13:04:20.849Z</time></trkpt><trkpt lat="40.5330833" lon="15.46564"><ele>477.1666666666667</ele><time>2026-04-26T13:04:21.848Z</time></trkpt><trkpt lat="40.53308" lon="15.4655467"><ele>478.0</ele><time>2026-04-26T13:04:22.848Z</time></trkpt><trkpt lat="40.5330867" lon="15.4653967"><ele>479.4</ele><time>2026-04-26T13:04:24.849Z</time></trkpt><trkpt lat="40.533125" lon="15.4652883"><ele>480.79999999999995</ele><time>2026-04-26T13:04:26.848Z</time></trkpt><trkpt lat="40.5331983" lon="15.4651933"><ele>482.2</ele><time>2026-04-26T13:04:28.848Z</time></trkpt><trkpt lat="40.5332533" lon="15.4651317"><ele>483.6</ele><time>2026-04-26T13:04:30.848Z</time></trkpt><trkpt lat="40.5333117" lon="15.4650667"><ele>485.0</ele><time>2026-04-26T13:04:33.848Z</time></trkpt><trkpt lat="40.5333917" lon="15.46497"><ele>484.99999999999994</ele><time>2026-04-26T13:04:35.849Z</time></trkpt><trkpt lat="40.533435" lon="15.4648967"><ele>485.0</ele><time>2026-04-26T13:04:36.848Z</time></trkpt><trkpt lat="40.53347" lon="15.4648117"><ele>485.0</ele><time>2026-04-26T13:04:37.848Z</time></trkpt><trkpt lat="40.5334983" lon="15.4647033"><ele>485.0</ele><time>2026-04-26T13:04:38.848Z</time></trkpt><trkpt lat="40.533505" lon="15.4645767"><ele>484.99999999999994</ele><time>2026-04-26T13:04:39.847Z</time></trkpt><trkpt lat="40.5335117" lon="15.46446"><ele>485.0</ele><time>2026-04-26T13:04:40.848Z</time></trkpt><trkpt lat="40.5335183" lon="15.4643683"><ele>485.0</ele><time>2026-04-26T13:04:41.847Z</time></trkpt><trkpt lat="40.533545" lon="15.46425"><ele>485.0</ele><time>2026-04-26T13:04:43.847Z</time></trkpt><trkpt lat="40.5336167" lon="15.4642667"><ele>485.0</ele><time>2026-04-26T13:04:46.848Z</time></trkpt><trkpt lat="40.5336367" lon="15.464375"><ele>485.0</ele><time>2026-04-26T13:04:49.847Z</time></trkpt><trkpt lat="40.53364" lon="15.4645617"><ele>485.0</ele><time>2026-04-26T13:04:51.847Z</time></trkpt><trkpt lat="40.5336383" lon="15.4646867"><ele>484.99999999999994</ele><time>2026-04-26T13:04:52.848Z</time></trkpt><trkpt lat="40.5336317" lon="15.4648017"><ele>485.0</ele><time>2026-04-26T13:04:53.847Z</time></trkpt><trkpt lat="40.5336267" lon="15.4649117"><ele>485.0</ele><time>2026-04-26T13:04:54.848Z</time></trkpt><trkpt lat="40.5336183" lon="15.4650117"><ele>485.0</ele><time>2026-04-26T13:04:55.848Z</time></trkpt><trkpt lat="40.5336083" lon="15.4650967"><ele>484.99999999999994</ele><time>2026-04-26T13:04:56.848Z</time></trkpt><trkpt lat="40.5336017" lon="15.46519"><ele>485.0</ele><time>2026-04-26T13:04:57.847Z</time></trkpt><trkpt lat="40.5336117" lon="15.4652767"><ele>484.99999999999994</ele><time>2026-04-26T13:04:58.847Z</time></trkpt><trkpt lat="40.53364" lon="15.46537"><ele>485.0</ele><time>2026-04-26T13:04:59.848Z</time></trkpt><trkpt lat="40.5336683" lon="15.4654517"><ele>485.0</ele><time>2026-04-26T13:05:00.848Z</time></trkpt><trkpt lat="40.53368" lon="15.4656017"><ele>485.0</ele><time>2026-04-26T13:05:02.848Z</time></trkpt><trkpt lat="40.53367" lon="15.46569"><ele>484.99999999999994</ele><time>2026-04-26T13:05:03.848Z</time></trkpt><trkpt lat="40.5336567" lon="15.4657883"><ele>485.0</ele><time>2026-04-26T13:05:04.848Z</time></trkpt><trkpt lat="40.5336483" lon="15.465885"><ele>484.00000000000006</ele><time>2026-04-26T13:05:05.848Z</time></trkpt><trkpt lat="40.5336433" lon="15.46598"><ele>483.0</ele><time>2026-04-26T13:05:06.847Z</time></trkpt><trkpt lat="40.533635" lon="15.4660717"><ele>482.00000000000006</ele><time>2026-04-26T13:05:07.848Z</time></trkpt><trkpt lat="40.533635" lon="15.46616"><ele>481.00000000000006</ele><time>2026-04-26T13:05:08.848Z</time></trkpt><trkpt lat="40.5336367" lon="15.4662467"><ele>480.0</ele><time>2026-04-26T13:05:09.847Z</time></trkpt><trkpt lat="40.53364" lon="15.466345"><ele>479.00000000000006</ele><time>2026-04-26T13:05:10.848Z</time></trkpt><trkpt lat="40.533645" lon="15.466445"><ele>478.00000000000006</ele><time>2026-04-26T13:05:11.848Z</time></trkpt><trkpt lat="40.5336517" lon="15.4665417"><ele>477.1666666666667</ele><time>2026-04-26T13:05:12.848Z</time></trkpt><trkpt lat="40.5336667" lon="15.4666433"><ele>476.33333333333337</ele><time>2026-04-26T13:05:13.848Z</time></trkpt><trkpt lat="40.5336867" lon="15.4667433"><ele>475.5</ele><time>2026-04-26T13:05:14.847Z</time></trkpt><trkpt lat="40.5337167" lon="15.46684"><ele>474.66666666666663</ele><time>2026-04-26T13:05:15.847Z</time></trkpt><trkpt lat="40.533745" lon="15.4669233"><ele>473.8333333333333</ele><time>2026-04-26T13:05:16.847Z</time></trkpt><trkpt lat="40.5338" lon="15.4670417"><ele>473.0</ele><time>2026-04-26T13:05:18.848Z</time></trkpt><trkpt lat="40.53386" lon="15.4670933"><ele>468.2</ele><time>2026-04-26T13:05:20.848Z</time></trkpt><trkpt lat="40.5339467" lon="15.4670083"><ele>463.4</ele><time>2026-04-26T13:05:23.847Z</time></trkpt><trkpt lat="40.5340017" lon="15.4668783"><ele>458.59999999999997</ele><time>2026-04-26T13:05:25.848Z</time></trkpt><trkpt lat="40.5340833" lon="15.46676"><ele>453.79999999999995</ele><time>2026-04-26T13:05:27.848Z</time></trkpt><trkpt lat="40.53414" lon="15.46671"><ele>449.0</ele><time>2026-04-26T13:05:28.848Z</time></trkpt><trkpt lat="40.5342017" lon="15.46666"><ele>449.0</ele><time>2026-04-26T13:05:29.848Z</time></trkpt><trkpt lat="40.53426" lon="15.4666083"><ele>449.0</ele><time>2026-04-26T13:05:30.848Z</time></trkpt><trkpt lat="40.53434" lon="15.4665033"><ele>449.0</ele><time>2026-04-26T13:05:32.848Z</time></trkpt><trkpt lat="40.5343817" lon="15.4664"><ele>449.0</ele><time>2026-04-26T13:05:34.847Z</time></trkpt><trkpt lat="40.5344217" lon="15.4663083"><ele>449.0</ele><time>2026-04-26T13:05:37.848Z</time></trkpt><trkpt lat="40.5344617" lon="15.4661717"><ele>450.16666666666663</ele><time>2026-04-26T13:05:43.848Z</time></trkpt><trkpt lat="40.5344817" lon="15.46609"><ele>451.3333333333333</ele><time>2026-04-26T13:05:44.848Z</time></trkpt><trkpt lat="40.53451" lon="15.46596"><ele>452.5</ele><time>2026-04-26T13:05:46.847Z</time></trkpt><trkpt lat="40.5345267" lon="15.4658783"><ele>453.66666666666663</ele><time>2026-04-26T13:05:48.847Z</time></trkpt><trkpt lat="40.5345583" lon="15.4657833"><ele>454.8333333333333</ele><time>2026-04-26T13:05:50.847Z</time></trkpt><trkpt lat="40.53459" lon="15.465645"><ele>456.0</ele><time>2026-04-26T13:05:52.848Z</time></trkpt><trkpt lat="40.534615" lon="15.4655033"><ele>451.8</ele><time>2026-04-26T13:05:54.848Z</time></trkpt><trkpt lat="40.5346283" lon="15.4653433"><ele>447.6</ele><time>2026-04-26T13:05:56.848Z</time></trkpt><trkpt lat="40.5346467" lon="15.4651933"><ele>443.4</ele><time>2026-04-26T13:05:58.848Z</time></trkpt><trkpt lat="40.5346633" lon="15.4650767"><ele>439.2</ele><time>2026-04-26T13:06:00.847Z</time></trkpt><trkpt lat="40.5346783" lon="15.4649617"><ele>435.0</ele><time>2026-04-26T13:06:02.847Z</time></trkpt><trkpt lat="40.5347017" lon="15.4648283"><ele>435.0</ele><time>2026-04-26T13:06:04.848Z</time></trkpt><trkpt lat="40.53473" lon="15.464665"><ele>435.0</ele><time>2026-04-26T13:06:06.847Z</time></trkpt><trkpt lat="40.5347467" lon="15.46458"><ele>435.0</ele><time>2026-04-26T13:06:07.847Z</time></trkpt><trkpt lat="40.53477" lon="15.4644817"><ele>435.0</ele><time>2026-04-26T13:06:08.847Z</time></trkpt><trkpt lat="40.5347933" lon="15.464375"><ele>435.0</ele><time>2026-04-26T13:06:09.848Z</time></trkpt><trkpt lat="40.5348167" lon="15.4642667"><ele>435.0</ele><time>2026-04-26T13:06:10.848Z</time></trkpt><trkpt lat="40.53484" lon="15.4641667"><ele>434.8</ele><time>2026-04-26T13:06:11.847Z</time></trkpt><trkpt lat="40.5348583" lon="15.4640783"><ele>434.6</ele><time>2026-04-26T13:06:12.847Z</time></trkpt><trkpt lat="40.5348933" lon="15.4639267"><ele>434.4</ele><time>2026-04-26T13:06:14.847Z</time></trkpt><trkpt lat="40.5349367" lon="15.4637967"><ele>434.2</ele><time>2026-04-26T13:06:16.848Z</time></trkpt><trkpt lat="40.53499" lon="15.463695"><ele>434.0</ele><time>2026-04-26T13:06:18.848Z</time></trkpt><trkpt lat="40.5350533" lon="15.4636417"><ele>433.99999999999994</ele><time>2026-04-26T13:06:21.847Z</time></trkpt><trkpt lat="40.535095" lon="15.4637233"><ele>434.0</ele><time>2026-04-26T13:06:24.848Z</time></trkpt><trkpt lat="40.5351" lon="15.4638283"><ele>434.0</ele><time>2026-04-26T13:06:26.848Z</time></trkpt><trkpt lat="40.5351183" lon="15.46391"><ele>434.0</ele><time>2026-04-26T13:06:28.847Z</time></trkpt><trkpt lat="40.5351933" lon="15.463885"><ele>433.99999999999994</ele><time>2026-04-26T13:06:32.847Z</time></trkpt><trkpt lat="40.535255" lon="15.4637783"><ele>434.0</ele><time>2026-04-26T13:08:08.848Z</time></trkpt><trkpt lat="40.5353067" lon="15.4636817"><ele>431.49999999999994</ele><time>2026-04-26T13:08:10.847Z</time></trkpt><trkpt lat="40.5353683" lon="15.4636117"><ele>429.0</ele><time>2026-04-26T13:08:13.848Z</time></trkpt><trkpt lat="40.5354317" lon="15.46365"><ele>426.5</ele><time>2026-04-26T13:08:16.847Z</time></trkpt><trkpt lat="40.5354967" lon="15.463675"><ele>424.0</ele><time>2026-04-26T13:08:19.848Z</time></trkpt><trkpt lat="40.5355483" lon="15.463615"><ele>421.49999999999994</ele><time>2026-04-26T13:08:21.848Z</time></trkpt><trkpt lat="40.53562" lon="15.463535"><ele>419.0</ele><time>2026-04-26T13:08:23.847Z</time></trkpt><trkpt lat="40.5356783" lon="15.4634617"><ele>415.4</ele><time>2026-04-26T13:08:25.847Z</time></trkpt><trkpt lat="40.5357483" lon="15.4633733"><ele>411.79999999999995</ele><time>2026-04-26T13:08:27.847Z</time></trkpt><trkpt lat="40.5358367" lon="15.4633117"><ele>408.20000000000005</ele><time>2026-04-26T13:08:29.848Z</time></trkpt><trkpt lat="40.5359067" lon="15.4632533"><ele>404.6</ele><time>2026-04-26T13:08:31.848Z</time></trkpt><trkpt lat="40.53597" lon="15.4631817"><ele>401.0</ele><time>2026-04-26T13:08:33.847Z</time></trkpt><trkpt lat="40.5360317" lon="15.4630983"><ele>401.0</ele><time>2026-04-26T13:08:35.848Z</time></trkpt><trkpt lat="40.5361017" lon="15.46301"><ele>401.0</ele><time>2026-04-26T13:08:37.847Z</time></trkpt><trkpt lat="40.5361567" lon="15.4629083"><ele>401.0</ele><time>2026-04-26T13:08:39.847Z</time></trkpt><trkpt lat="40.5362033" lon="15.4628117"><ele>401.0</ele><time>2026-04-26T13:08:41.847Z</time></trkpt><trkpt lat="40.5362533" lon="15.4627183"><ele>401.0</ele><time>2026-04-26T13:08:43.847Z</time></trkpt><trkpt lat="40.536305" lon="15.4626283"><ele>397.8</ele><time>2026-04-26T13:08:45.848Z</time></trkpt><trkpt lat="40.5363433" lon="15.4625217"><ele>394.6</ele><time>2026-04-26T13:08:47.848Z</time></trkpt><trkpt lat="40.5363633" lon="15.4623817"><ele>391.4</ele><time>2026-04-26T13:08:49.847Z</time></trkpt><trkpt lat="40.536375" lon="15.4623"><ele>388.2</ele><time>2026-04-26T13:08:50.848Z</time></trkpt><trkpt lat="40.536385" lon="15.46214"><ele>385.0</ele><time>2026-04-26T13:08:52.847Z</time></trkpt><trkpt lat="40.5363683" lon="15.462"><ele>384.1666666666667</ele><time>2026-04-26T13:08:54.847Z</time></trkpt><trkpt lat="40.5363767" lon="15.46188"><ele>383.33333333333337</ele><time>2026-04-26T13:08:56.847Z</time></trkpt><trkpt lat="40.5364083" lon="15.4618067"><ele>382.5</ele><time>2026-04-26T13:08:59.848Z</time></trkpt><trkpt lat="40.5364733" lon="15.4618033"><ele>381.6666666666667</ele><time>2026-04-26T13:09:13.848Z</time></trkpt><trkpt lat="40.5365117" lon="15.461725"><ele>380.83333333333337</ele><time>2026-04-26T13:09:20.847Z</time></trkpt><trkpt lat="40.5365017" lon="15.4616133"><ele>380.0</ele><time>2026-04-26T13:09:24.848Z</time></trkpt><trkpt lat="40.53648" lon="15.4614883"><ele>380.0</ele><time>2026-04-26T13:09:27.847Z</time></trkpt><trkpt lat="40.5364467" lon="15.461375"><ele>380.0</ele><time>2026-04-26T13:09:29.847Z</time></trkpt><trkpt lat="40.5364083" lon="15.4612483"><ele>380.0</ele><time>2026-04-26T13:09:31.848Z</time></trkpt><trkpt lat="40.5363717" lon="15.46116"><ele>380.0</ele><time>2026-04-26T13:09:33.848Z</time></trkpt><trkpt lat="40.53634" lon="15.461085"><ele>380.0</ele><time>2026-04-26T13:10:57.846Z</time></trkpt><trkpt lat="40.5363117" lon="15.4609933"><ele>380.0</ele><time>2026-04-26T13:11:00.847Z</time></trkpt><trkpt lat="40.5363017" lon="15.4608983"><ele>380.83333333333337</ele><time>2026-04-26T13:11:03.847Z</time></trkpt><trkpt lat="40.5362917" lon="15.4607967"><ele>381.6666666666667</ele><time>2026-04-26T13:11:06.846Z</time></trkpt><trkpt lat="40.5362783" lon="15.46071"><ele>382.5</ele><time>2026-04-26T13:11:08.846Z</time></trkpt><trkpt lat="40.5362817" lon="15.46058"><ele>383.33333333333337</ele><time>2026-04-26T13:11:11.847Z</time></trkpt><trkpt lat="40.5362767" lon="15.4604883"><ele>384.1666666666667</ele><time>2026-04-26T13:11:13.847Z</time></trkpt><trkpt lat="40.53624" lon="15.46039"><ele>385.0</ele><time>2026-04-26T13:11:15.847Z</time></trkpt><trkpt lat="40.5362017" lon="15.46028"><ele>385.00000000000006</ele><time>2026-04-26T13:11:17.846Z</time></trkpt><trkpt lat="40.5361717" lon="15.4601683"><ele>385.0</ele><time>2026-04-26T13:11:19.847Z</time></trkpt><trkpt lat="40.536145" lon="15.4600517"><ele>385.0</ele><time>2026-04-26T13:11:21.847Z</time></trkpt><trkpt lat="40.5361267" lon="15.4599417"><ele>385.0</ele><time>2026-04-26T13:11:23.846Z</time></trkpt><trkpt lat="40.5361117" lon="15.4598383"><ele>385.00000000000006</ele><time>2026-04-26T13:11:25.846Z</time></trkpt><trkpt lat="40.5361117" lon="15.4597283"><ele>385.0</ele><time>2026-04-26T13:11:27.847Z</time></trkpt><trkpt lat="40.53611" lon="15.4596433"><ele>382.7142857142857</ele><time>2026-04-26T13:11:29.847Z</time></trkpt><trkpt lat="40.5360783" lon="15.459545"><ele>380.42857142857144</ele><time>2026-04-26T13:11:32.847Z</time></trkpt><trkpt lat="40.53603" lon="15.45947"><ele>378.1428571428571</ele><time>2026-04-26T13:11:35.847Z</time></trkpt><trkpt lat="40.5359967" lon="15.4593683"><ele>375.8571428571429</ele><time>2026-04-26T13:11:38.847Z</time></trkpt><trkpt lat="40.5359817" lon="15.4592817"><ele>373.57142857142856</ele><time>2026-04-26T13:11:40.846Z</time></trkpt><trkpt lat="40.5359667" lon="15.459195"><ele>371.2857142857143</ele><time>2026-04-26T13:11:42.847Z</time></trkpt><trkpt lat="40.5359533" lon="15.4591083"><ele>369.0</ele><time>2026-04-26T13:11:44.846Z</time></trkpt><trkpt lat="40.5359383" lon="15.4590183"><ele>369.0</ele><time>2026-04-26T13:11:46.846Z</time></trkpt><trkpt lat="40.5359183" lon="15.4589283"><ele>369.0</ele><time>2026-04-26T13:11:48.846Z</time></trkpt><trkpt lat="40.5358933" lon="15.4588383"><ele>369.0</ele><time>2026-04-26T13:11:50.846Z</time></trkpt><trkpt lat="40.5358683" lon="15.45876"><ele>369.0</ele><time>2026-04-26T13:11:52.846Z</time></trkpt><trkpt lat="40.5358483" lon="15.4586433"><ele>369.0</ele><time>2026-04-26T13:12:25.847Z</time></trkpt><trkpt lat="40.5358033" lon="15.4585483"><ele>369.0</ele><time>2026-04-26T13:12:27.847Z</time></trkpt><trkpt lat="40.5357583" lon="15.4584267"><ele>365.6666666666667</ele><time>2026-04-26T13:12:29.847Z</time></trkpt><trkpt lat="40.5357133" lon="15.4583017"><ele>362.3333333333333</ele><time>2026-04-26T13:12:31.846Z</time></trkpt><trkpt lat="40.5356767" lon="15.4582"><ele>359.0</ele><time>2026-04-26T13:12:33.846Z</time></trkpt><trkpt lat="40.535645" lon="15.4581133"><ele>355.66666666666663</ele><time>2026-04-26T13:12:35.847Z</time></trkpt><trkpt lat="40.5356067" lon="15.458035"><ele>352.3333333333333</ele><time>2026-04-26T13:12:37.847Z</time></trkpt><trkpt lat="40.5355683" lon="15.45796"><ele>349.0</ele><time>2026-04-26T13:12:39.847Z</time></trkpt><trkpt lat="40.5355217" lon="15.4578917"><ele>346.6</ele><time>2026-04-26T13:12:41.847Z</time></trkpt><trkpt lat="40.5354733" lon="15.457815"><ele>344.2</ele><time>2026-04-26T13:12:44.847Z</time></trkpt><trkpt lat="40.5354483" lon="15.4576583"><ele>341.8</ele><time>2026-04-26T13:34:53.84Z</time></trkpt><trkpt lat="40.5354733" lon="15.4575467"><ele>339.40000000000003</ele><time>2026-04-26T13:34:56.84Z</time></trkpt><trkpt lat="40.53551" lon="15.4574117"><ele>337.0</ele><time>2026-04-26T13:34:58.84Z</time></trkpt><trkpt lat="40.5355317" lon="15.4572883"><ele>337.0</ele><time>2026-04-26T13:35:00.84Z</time></trkpt><trkpt lat="40.535535" lon="15.4571767"><ele>337.0</ele><time>2026-04-26T13:35:02.841Z</time></trkpt><trkpt lat="40.5355217" lon="15.4570817"><ele>337.0</ele><time>2026-04-26T13:35:04.841Z</time></trkpt><trkpt lat="40.5355017" lon="15.4569967"><ele>337.0</ele><time>2026-04-26T13:35:06.84Z</time></trkpt><trkpt lat="40.5354983" lon="15.4568733"><ele>337.0</ele><time>2026-04-26T13:35:09.841Z</time></trkpt><trkpt lat="40.5355117" lon="15.456765"><ele>337.0</ele><time>2026-04-26T13:35:11.84Z</time></trkpt><trkpt lat="40.5355367" lon="15.4566417"><ele>336.5</ele><time>2026-04-26T13:35:13.84Z</time></trkpt><trkpt lat="40.53556" lon="15.45651"><ele>336.0</ele><time>2026-04-26T13:35:15.84Z</time></trkpt><trkpt lat="40.5355583" lon="15.456385"><ele>335.5</ele><time>2026-04-26T13:35:17.84Z</time></trkpt><trkpt lat="40.535555" lon="15.4562783"><ele>335.0</ele><time>2026-04-26T13:35:19.841Z</time></trkpt><trkpt lat="40.5355517" lon="15.45619"><ele>334.5</ele><time>2026-04-26T13:35:21.841Z</time></trkpt><trkpt lat="40.535545" lon="15.4561017"><ele>334.0</ele><time>2026-04-26T13:35:24.84Z</time></trkpt><trkpt lat="40.5355367" lon="15.4560117"><ele>334.0</ele><time>2026-04-26T13:35:28.84Z</time></trkpt><trkpt lat="40.5355367" lon="15.4561233"><ele>334.0</ele><time>2026-04-26T13:45:18.838Z</time></trkpt><trkpt lat="40.5355967" lon="15.4562083"><ele>334.0</ele><time>2026-04-26T13:45:21.838Z</time></trkpt><trkpt lat="40.5356517" lon="15.4562533"><ele>334.0</ele><time>2026-04-26T13:45:24.838Z</time></trkpt><trkpt lat="40.5357183" lon="15.4563183"><ele>334.0</ele><time>2026-04-26T13:45:28.838Z</time></trkpt><trkpt lat="40.5357917" lon="15.4563467"><ele>334.0</ele><time>2026-04-26T13:45:33.837Z</time></trkpt><trkpt lat="40.5358317" lon="15.456265"><ele>332.16666666666663</ele><time>2026-04-26T13:45:38.837Z</time></trkpt><trkpt lat="40.5358483" lon="15.4561633"><ele>330.3333333333333</ele><time>2026-04-26T13:45:41.837Z</time></trkpt><trkpt lat="40.5358667" lon="15.4560633"><ele>328.5</ele><time>2026-04-26T13:45:44.837Z</time></trkpt><trkpt lat="40.535885" lon="15.4559667"><ele>326.6666666666667</ele><time>2026-04-26T13:45:47.838Z</time></trkpt><trkpt lat="40.5359117" lon="15.45587"><ele>324.83333333333337</ele><time>2026-04-26T13:45:51.837Z</time></trkpt><trkpt lat="40.535995" lon="15.4558833"><ele>323.0</ele><time>2026-04-26T13:45:55.838Z</time></trkpt><trkpt lat="40.5360767" lon="15.4559217"><ele>323.0</ele><time>2026-04-26T13:45:57.838Z</time></trkpt><trkpt lat="40.5361483" lon="15.4559583"><ele>323.0</ele><time>2026-04-26T13:46:00.837Z</time></trkpt><trkpt lat="40.53621" lon="15.455995"><ele>323.0</ele><time>2026-04-26T13:46:33.838Z</time></trkpt><trkpt lat="40.5362733" lon="15.4560233"><ele>323.0</ele><time>2026-04-26T13:46:37.838Z</time></trkpt><trkpt lat="40.536375" lon="15.4561133"><ele>323.0</ele><time>2026-04-26T13:47:02.838Z</time></trkpt><trkpt lat="40.5364433" lon="15.4561583"><ele>323.0</ele><time>2026-04-26T13:47:05.838Z</time></trkpt><trkpt lat="40.5364983" lon="15.4562"><ele>323.0</ele><time>2026-04-26T13:47:08.837Z</time></trkpt><trkpt lat="40.53645" lon="15.456115"><ele>323.0</ele><time>2026-04-26T14:16:18.83Z</time></trkpt><trkpt lat="40.5363733" lon="15.456055"><ele>323.0</ele><time>2026-04-26T14:16:21.831Z</time></trkpt><trkpt lat="40.5363167" lon="15.4560083"><ele>323.0</ele><time>2026-04-26T14:16:23.83Z</time></trkpt><trkpt lat="40.536245" lon="15.45599"><ele>323.0</ele><time>2026-04-26T14:16:25.83Z</time></trkpt><trkpt lat="40.53616" lon="15.455965"><ele>323.0</ele><time>2026-04-26T14:16:27.831Z</time></trkpt><trkpt lat="40.5360567" lon="15.4559233"><ele>323.0</ele><time>2026-04-26T14:16:29.831Z</time></trkpt><trkpt lat="40.5359567" lon="15.4558767"><ele>323.0</ele><time>2026-04-26T14:16:31.831Z</time></trkpt><trkpt lat="40.5358967" lon="15.4559383"><ele>323.0</ele><time>2026-04-26T14:16:35.83Z</time></trkpt><trkpt lat="40.5358767" lon="15.456045"><ele>323.0</ele><time>2026-04-26T14:16:37.83Z</time></trkpt><trkpt lat="40.5358633" lon="15.45616"><ele>323.0</ele><time>2026-04-26T14:16:39.831Z</time></trkpt><trkpt lat="40.53585" lon="15.4562733"><ele>323.0</ele><time>2026-04-26T14:16:41.83Z</time></trkpt><trkpt lat="40.5357967" lon="15.45634"><ele>323.0</ele><time>2026-04-26T14:16:44.83Z</time></trkpt><trkpt lat="40.53574" lon="15.4562833"><ele>323.0</ele><time>2026-04-26T14:16:46.831Z</time></trkpt><trkpt lat="40.5356717" lon="15.4562217"><ele>323.0</ele><time>2026-04-26T14:16:48.83Z</time></trkpt><trkpt lat="40.53561" lon="15.45619"><ele>323.0</ele><time>2026-04-26T14:16:50.83Z</time></trkpt><trkpt lat="40.5355767" lon="15.4562633"><ele>323.0</ele><time>2026-04-26T14:16:59.831Z</time></trkpt><trkpt lat="40.5355583" lon="15.4563783"><ele>323.0</ele><time>2026-04-26T14:24:05.829Z</time></trkpt><trkpt lat="40.5355617" lon="15.4565083"><ele>325.2</ele><time>2026-04-26T14:24:07.829Z</time></trkpt><trkpt lat="40.5355417" lon="15.4566483"><ele>327.4</ele><time>2026-04-26T14:24:09.829Z</time></trkpt><trkpt lat="40.53552" lon="15.4567767"><ele>329.59999999999997</ele><time>2026-04-26T14:24:11.829Z</time></trkpt><trkpt lat="40.5355117" lon="15.45691"><ele>331.79999999999995</ele><time>2026-04-26T14:24:13.828Z</time></trkpt><trkpt lat="40.535525" lon="15.45703"><ele>334.0</ele><time>2026-04-26T14:24:15.829Z</time></trkpt><trkpt lat="40.5355483" lon="15.457145"><ele>334.5</ele><time>2026-04-26T14:24:17.829Z</time></trkpt><trkpt lat="40.5355583" lon="15.457255"><ele>335.0</ele><time>2026-04-26T14:24:19.829Z</time></trkpt><trkpt lat="40.5355467" lon="15.4573833"><ele>335.5</ele><time>2026-04-26T14:24:21.829Z</time></trkpt><trkpt lat="40.5355183" lon="15.457495"><ele>336.0</ele><time>2026-04-26T14:24:23.829Z</time></trkpt><trkpt lat="40.5354817" lon="15.4575983"><ele>336.5</ele><time>2026-04-26T14:24:25.829Z</time></trkpt><trkpt lat="40.5354617" lon="15.4576917"><ele>337.0</ele><time>2026-04-26T14:24:27.828Z</time></trkpt><trkpt lat="40.53549" lon="15.4577917"><ele>337.0</ele><time>2026-04-26T14:24:29.828Z</time></trkpt><trkpt lat="40.535555" lon="15.457895"><ele>337.0</ele><time>2026-04-26T14:24:31.829Z</time></trkpt><trkpt lat="40.535615" lon="15.4580067"><ele>337.0</ele><time>2026-04-26T14:24:33.829Z</time></trkpt><trkpt lat="40.5356617" lon="15.4581167"><ele>337.0</ele><time>2026-04-26T14:24:35.828Z</time></trkpt><trkpt lat="40.5357017" lon="15.45824"><ele>337.0</ele><time>2026-04-26T14:24:37.828Z</time></trkpt><trkpt lat="40.5357467" lon="15.458375"><ele>339.40000000000003</ele><time>2026-04-26T14:24:39.829Z</time></trkpt><trkpt lat="40.53579" lon="15.4585133"><ele>341.8</ele><time>2026-04-26T14:24:41.829Z</time></trkpt><trkpt lat="40.5358417" lon="15.458655"><ele>344.2</ele><time>2026-04-26T14:24:43.829Z</time></trkpt><trkpt lat="40.5358717" lon="15.4587317"><ele>346.6</ele><time>2026-04-26T14:24:44.829Z</time></trkpt><trkpt lat="40.5358967" lon="15.45881"><ele>349.0</ele><time>2026-04-26T14:24:45.828Z</time></trkpt><trkpt lat="40.5359333" lon="15.4589383"><ele>353.0</ele><time>2026-04-26T14:24:47.828Z</time></trkpt><trkpt lat="40.5359633" lon="15.4590783"><ele>357.0</ele><time>2026-04-26T14:24:49.829Z</time></trkpt><trkpt lat="40.535985" lon="15.4592083"><ele>361.0</ele><time>2026-04-26T14:24:51.828Z</time></trkpt><trkpt lat="40.5360133" lon="15.4593333"><ele>365.0</ele><time>2026-04-26T14:24:53.829Z</time></trkpt><trkpt lat="40.5360483" lon="15.45944"><ele>369.0</ele><time>2026-04-26T14:24:55.828Z</time></trkpt><trkpt lat="40.536095" lon="15.4595283"><ele>371.6666666666667</ele><time>2026-04-26T14:24:57.828Z</time></trkpt><trkpt lat="40.5361267" lon="15.459625"><ele>374.33333333333337</ele><time>2026-04-26T14:24:59.829Z</time></trkpt><trkpt lat="40.5361217" lon="15.4597367"><ele>377.0</ele><time>2026-04-26T14:25:01.829Z</time></trkpt><trkpt lat="40.5361217" lon="15.4598383"><ele>379.6666666666667</ele><time>2026-04-26T14:25:03.829Z</time></trkpt><trkpt lat="40.5361267" lon="15.45993"><ele>382.33333333333337</ele><time>2026-04-26T14:25:05.829Z</time></trkpt><trkpt lat="40.5361433" lon="15.4600317"><ele>385.0</ele><time>2026-04-26T14:25:07.829Z</time></trkpt><trkpt lat="40.5361683" lon="15.4601467"><ele>385.0</ele><time>2026-04-26T14:25:09.828Z</time></trkpt><trkpt lat="40.5362017" lon="15.4602617"><ele>385.0</ele><time>2026-04-26T14:25:11.828Z</time></trkpt><trkpt lat="40.536245" lon="15.4603767"><ele>385.0</ele><time>2026-04-26T14:25:13.828Z</time></trkpt><trkpt lat="40.53628" lon="15.4604783"><ele>385.0</ele><time>2026-04-26T14:25:15.829Z</time></trkpt><trkpt lat="40.5362867" lon="15.4605933"><ele>385.0</ele><time>2026-04-26T14:25:17.828Z</time></trkpt><trkpt lat="40.5362883" lon="15.4607133"><ele>384.0</ele><time>2026-04-26T14:25:19.828Z</time></trkpt><trkpt lat="40.536305" lon="15.46082"><ele>383.0</ele><time>2026-04-26T14:25:21.828Z</time></trkpt><trkpt lat="40.5363167" lon="15.4609367"><ele>382.0</ele><time>2026-04-26T14:25:23.828Z</time></trkpt><trkpt lat="40.536345" lon="15.46105"><ele>381.0</ele><time>2026-04-26T14:25:25.828Z</time></trkpt><trkpt lat="40.53638" lon="15.4611767"><ele>380.0</ele><time>2026-04-26T14:25:27.827Z</time></trkpt><trkpt lat="40.5364183" lon="15.46129"><ele>380.0</ele><time>2026-04-26T14:25:29.827Z</time></trkpt><trkpt lat="40.536455" lon="15.4613783"><ele>380.0</ele><time>2026-04-26T14:25:31.827Z</time></trkpt><trkpt lat="40.5364883" lon="15.4614917"><ele>380.0</ele><time>2026-04-26T14:25:33.827Z</time></trkpt><trkpt lat="40.53651" lon="15.4616117"><ele>380.0</ele><time>2026-04-26T14:25:35.828Z</time></trkpt><trkpt lat="40.5365167" lon="15.4617067"><ele>380.0</ele><time>2026-04-26T14:25:37.828Z</time></trkpt><trkpt lat="40.5364717" lon="15.4617917"><ele>380.0</ele><time>2026-04-26T14:25:49.827Z</time></trkpt><trkpt lat="40.536405" lon="15.46182"><ele>380.0</ele><time>2026-04-26T14:25:52.828Z</time></trkpt><trkpt lat="40.53637" lon="15.461895"><ele>380.0</ele><time>2026-04-26T14:25:54.827Z</time></trkpt><trkpt lat="40.53637" lon="15.4620167"><ele>380.0</ele><time>2026-04-26T14:25:56.828Z</time></trkpt><trkpt lat="40.5363833" lon="15.4621433"><ele>380.0</ele><time>2026-04-26T14:25:58.827Z</time></trkpt><trkpt lat="40.53638" lon="15.462295"><ele>380.0</ele><time>2026-04-26T14:26:00.828Z</time></trkpt><trkpt lat="40.5363567" lon="15.4624467"><ele>380.8</ele><time>2026-04-26T14:26:02.827Z</time></trkpt><trkpt lat="40.536335" lon="15.46259"><ele>381.6</ele><time>2026-04-26T14:26:04.828Z</time></trkpt><trkpt lat="40.5362883" lon="15.4627083"><ele>382.4</ele><time>2026-04-26T14:26:06.828Z</time></trkpt><trkpt lat="40.53622" lon="15.4628267"><ele>383.2</ele><time>2026-04-26T14:26:08.828Z</time></trkpt><trkpt lat="40.53618" lon="15.4628967"><ele>384.0</ele><time>2026-04-26T14:26:09.827Z</time></trkpt><trkpt lat="40.5361383" lon="15.4629683"><ele>386.8333333333333</ele><time>2026-04-26T14:26:10.828Z</time></trkpt><trkpt lat="40.5360567" lon="15.4630867"><ele>389.66666666666663</ele><time>2026-04-26T14:26:12.828Z</time></trkpt><trkpt lat="40.5360067" lon="15.46315"><ele>392.5</ele><time>2026-04-26T14:26:13.827Z</time></trkpt><trkpt lat="40.5359533" lon="15.4632117"><ele>395.3333333333333</ele><time>2026-04-26T14:26:14.827Z</time></trkpt><trkpt lat="40.5358817" lon="15.46329"><ele>398.16666666666663</ele><time>2026-04-26T14:26:16.828Z</time></trkpt><trkpt lat="40.5358" lon="15.4633517"><ele>401.0</ele><time>2026-04-26T14:26:18.828Z</time></trkpt><trkpt lat="40.5357133" lon="15.4634417"><ele>400.99999999999994</ele><time>2026-04-26T14:26:20.828Z</time></trkpt><trkpt lat="40.535635" lon="15.4635317"><ele>401.0</ele><time>2026-04-26T14:26:22.827Z</time></trkpt><trkpt lat="40.5355633" lon="15.46362"><ele>401.0</ele><time>2026-04-26T14:26:24.828Z</time></trkpt><trkpt lat="40.5354933" lon="15.4636817"><ele>401.0</ele><time>2026-04-26T14:26:26.828Z</time></trkpt><trkpt lat="40.535435" lon="15.46365"><ele>400.99999999999994</ele><time>2026-04-26T14:26:28.828Z</time></trkpt><trkpt lat="40.53536" lon="15.4636667"><ele>401.0</ele><time>2026-04-26T14:26:49.828Z</time></trkpt><trkpt lat="40.5353133" lon="15.4637417"><ele>403.99999999999994</ele><time>2026-04-26T14:26:51.828Z</time></trkpt><trkpt lat="40.53524" lon="15.4638583"><ele>407.0</ele><time>2026-04-26T14:26:53.828Z</time></trkpt><trkpt lat="40.535195" lon="15.4639417"><ele>410.0</ele><time>2026-04-26T14:26:55.828Z</time></trkpt><trkpt lat="40.53513" lon="15.4639183"><ele>413.0</ele><time>2026-04-26T14:27:47.828Z</time></trkpt><trkpt lat="40.535105" lon="15.4638067"><ele>415.99999999999994</ele><time>2026-04-26T14:27:49.828Z</time></trkpt><trkpt lat="40.5350967" lon="15.4637233"><ele>419.0</ele><time>2026-04-26T14:27:51.828Z</time></trkpt><trkpt lat="40.53504" lon="15.4636817"><ele>418.99999999999994</ele><time>2026-04-26T14:27:54.827Z</time></trkpt><trkpt lat="40.5349767" lon="15.4637483"><ele>419.0</ele><time>2026-04-26T14:27:57.828Z</time></trkpt><trkpt lat="40.5349283" lon="15.4638667"><ele>419.0</ele><time>2026-04-26T14:27:59.827Z</time></trkpt><trkpt lat="40.534875" lon="15.4640167"><ele>419.0</ele><time>2026-04-26T14:28:01.827Z</time></trkpt><trkpt lat="40.534855" lon="15.4640983"><ele>418.99999999999994</ele><time>2026-04-26T14:28:02.827Z</time></trkpt><trkpt lat="40.5348383" lon="15.46418"><ele>419.0</ele><time>2026-04-26T14:28:03.827Z</time></trkpt><trkpt lat="40.534805" lon="15.4643283"><ele>421.49999999999994</ele><time>2026-04-26T14:28:05.828Z</time></trkpt><trkpt lat="40.53478" lon="15.4644167"><ele>424.0</ele><time>2026-04-26T14:28:06.828Z</time></trkpt><trkpt lat="40.5347617" lon="15.4645083"><ele>426.5</ele><time>2026-04-26T14:28:07.828Z</time></trkpt><trkpt lat="40.5347467" lon="15.4645967"><ele>429.0</ele><time>2026-04-26T14:28:08.828Z</time></trkpt><trkpt lat="40.53471" lon="15.4647533"><ele>431.49999999999994</ele><time>2026-04-26T14:28:10.827Z</time></trkpt><trkpt lat="40.5346917" lon="15.4648933"><ele>434.0</ele><time>2026-04-26T14:28:12.828Z</time></trkpt><trkpt lat="40.5346733" lon="15.4650467"><ele>434.25</ele><time>2026-04-26T14:28:14.828Z</time></trkpt><trkpt lat="40.5346567" lon="15.46519"><ele>434.5</ele><time>2026-04-26T14:28:16.827Z</time></trkpt><trkpt lat="40.5346317" lon="15.4653533"><ele>434.75</ele><time>2026-04-26T14:28:18.827Z</time></trkpt><trkpt lat="40.53461" lon="15.4655033"><ele>435.0</ele><time>2026-04-26T14:28:20.827Z</time></trkpt><trkpt lat="40.5345933" lon="15.465655"><ele>433.8</ele><time>2026-04-26T14:28:22.828Z</time></trkpt><trkpt lat="40.53456" lon="15.465795"><ele>432.6</ele><time>2026-04-26T14:28:24.828Z</time></trkpt><trkpt lat="40.5345217" lon="15.465935"><ele>431.4</ele><time>2026-04-26T14:28:26.827Z</time></trkpt><trkpt lat="40.5344883" lon="15.4660917"><ele>430.2</ele><time>2026-04-26T14:28:28.828Z</time></trkpt><trkpt lat="40.5344683" lon="15.4661867"><ele>429.0</ele><time>2026-04-26T14:28:29.827Z</time></trkpt><trkpt lat="40.53444" lon="15.4662717"><ele>433.0</ele><time>2026-04-26T14:28:30.827Z</time></trkpt><trkpt lat="40.5344083" lon="15.4663533"><ele>437.0</ele><time>2026-04-26T14:28:31.828Z</time></trkpt><trkpt lat="40.5343617" lon="15.4664683"><ele>441.0</ele><time>2026-04-26T14:28:33.828Z</time></trkpt><trkpt lat="40.5343217" lon="15.4665733"><ele>445.0</ele><time>2026-04-26T14:28:35.827Z</time></trkpt><trkpt lat="40.534255" lon="15.466655"><ele>449.0</ele><time>2026-04-26T14:28:37.828Z</time></trkpt><trkpt lat="40.5341633" lon="15.46672"><ele>449.0</ele><time>2026-04-26T14:28:39.827Z</time></trkpt><trkpt lat="40.5340617" lon="15.4668017"><ele>449.0</ele><time>2026-04-26T14:28:41.827Z</time></trkpt><trkpt lat="40.5339933" lon="15.4669183"><ele>449.0</ele><time>2026-04-26T14:28:43.827Z</time></trkpt><trkpt lat="40.53395" lon="15.4670417"><ele>449.0</ele><time>2026-04-26T14:28:45.827Z</time></trkpt><trkpt lat="40.5338783" lon="15.4671167"><ele>449.0</ele><time>2026-04-26T14:28:47.827Z</time></trkpt><trkpt lat="40.5338017" lon="15.4670767"><ele>449.0</ele><time>2026-04-26T14:28:49.827Z</time></trkpt><trkpt lat="40.5337383" lon="15.4669217"><ele>449.0</ele><time>2026-04-26T14:28:51.828Z</time></trkpt><trkpt lat="40.5337083" lon="15.4668183"><ele>449.0</ele><time>2026-04-26T14:28:52.827Z</time></trkpt><trkpt lat="40.533685" lon="15.4667133"><ele>449.0</ele><time>2026-04-26T14:28:53.827Z</time></trkpt><trkpt lat="40.53367" lon="15.4666033"><ele>449.0</ele><time>2026-04-26T14:28:54.828Z</time></trkpt><trkpt lat="40.5336667" lon="15.466515"><ele>453.79999999999995</ele><time>2026-04-26T14:28:55.828Z</time></trkpt><trkpt lat="40.5336533" lon="15.4663483"><ele>458.59999999999997</ele><time>2026-04-26T14:28:57.827Z</time></trkpt><trkpt lat="40.5336467" lon="15.4661767"><ele>463.4</ele><time>2026-04-26T14:28:59.828Z</time></trkpt><trkpt lat="40.533655" lon="15.4660817"><ele>468.2</ele><time>2026-04-26T14:29:00.827Z</time></trkpt><trkpt lat="40.5336583" lon="15.4659883"><ele>473.0</ele><time>2026-04-26T14:29:01.828Z</time></trkpt><trkpt lat="40.533665" lon="15.46589"><ele>474.0</ele><time>2026-04-26T14:29:02.827Z</time></trkpt><trkpt lat="40.5336733" lon="15.4657917"><ele>474.99999999999994</ele><time>2026-04-26T14:29:03.828Z</time></trkpt><trkpt lat="40.5336817" lon="15.4657033"><ele>475.99999999999994</ele><time>2026-04-26T14:29:04.827Z</time></trkpt><trkpt lat="40.5337033" lon="15.465565"><ele>477.0</ele><time>2026-04-26T14:29:06.827Z</time></trkpt><trkpt lat="40.5336883" lon="15.4654433"><ele>478.0</ele><time>2026-04-26T14:29:08.827Z</time></trkpt><trkpt lat="40.5336383" lon="15.4652817"><ele>479.1666666666667</ele><time>2026-04-26T14:29:10.828Z</time></trkpt><trkpt lat="40.5336267" lon="15.4651917"><ele>480.33333333333337</ele><time>2026-04-26T14:29:11.827Z</time></trkpt><trkpt lat="40.5336333" lon="15.4650267"><ele>481.5</ele><time>2026-04-26T14:29:13.827Z</time></trkpt><trkpt lat="40.533645" lon="15.4649367"><ele>482.66666666666663</ele><time>2026-04-26T14:29:14.827Z</time></trkpt><trkpt lat="40.5336517" lon="15.46484"><ele>483.8333333333333</ele><time>2026-04-26T14:29:15.827Z</time></trkpt><trkpt lat="40.53366" lon="15.464735"><ele>485.0</ele><time>2026-04-26T14:29:16.827Z</time></trkpt><trkpt lat="40.533665" lon="15.4646233"><ele>486.49999999999994</ele><time>2026-04-26T14:29:17.828Z</time></trkpt><trkpt lat="40.5336683" lon="15.4645167"><ele>488.0</ele><time>2026-04-26T14:29:18.828Z</time></trkpt><trkpt lat="40.5336633" lon="15.46442"><ele>489.5</ele><time>2026-04-26T14:29:19.827Z</time></trkpt><trkpt lat="40.5336333" lon="15.4642833"><ele>491.0</ele><time>2026-04-26T14:29:21.828Z</time></trkpt><trkpt lat="40.5335633" lon="15.4642767"><ele>492.49999999999994</ele><time>2026-04-26T14:31:07.827Z</time></trkpt><trkpt lat="40.5335333" lon="15.4643833"><ele>494.0</ele><time>2026-04-26T14:31:09.826Z</time></trkpt><trkpt lat="40.5335083" lon="15.4645417"><ele>492.49999999999994</ele><time>2026-04-26T14:31:11.826Z</time></trkpt><trkpt lat="40.5334967" lon="15.4647133"><ele>491.0</ele><time>2026-04-26T14:31:13.827Z</time></trkpt><trkpt lat="40.53348" lon="15.464805"><ele>489.5</ele><time>2026-04-26T14:31:14.826Z</time></trkpt><trkpt lat="40.533455" lon="15.4648917"><ele>488.0</ele><time>2026-04-26T14:31:15.826Z</time></trkpt><trkpt lat="40.53342" lon="15.4649633"><ele>486.49999999999994</ele><time>2026-04-26T14:31:16.826Z</time></trkpt><trkpt lat="40.53337" lon="15.4650233"><ele>485.0</ele><time>2026-04-26T14:31:17.826Z</time></trkpt><trkpt lat="40.533315" lon="15.4650767"><ele>484.99999999999994</ele><time>2026-04-26T14:31:18.827Z</time></trkpt><trkpt lat="40.53326" lon="15.4651333"><ele>485.0</ele><time>2026-04-26T14:31:19.827Z</time></trkpt><trkpt lat="40.5332067" lon="15.46519"><ele>485.0</ele><time>2026-04-26T14:31:20.827Z</time></trkpt><trkpt lat="40.5331417" lon="15.465255"><ele>485.0</ele><time>2026-04-26T14:31:22.827Z</time></trkpt><trkpt lat="40.5330917" lon="15.46534"><ele>484.99999999999994</ele><time>2026-04-26T14:31:25.827Z</time></trkpt><trkpt lat="40.5330767" lon="15.465435"><ele>485.0</ele><time>2026-04-26T14:31:28.827Z</time></trkpt><trkpt lat="40.533075" lon="15.4655367"><ele>483.6</ele><time>2026-04-26T14:31:32.827Z</time></trkpt><trkpt lat="40.5330767" lon="15.465635"><ele>482.2</ele><time>2026-04-26T14:31:37.826Z</time></trkpt><trkpt lat="40.5330767" lon="15.4657617"><ele>480.79999999999995</ele><time>2026-04-26T14:31:43.826Z</time></trkpt><trkpt lat="40.533075" lon="15.4659367"><ele>479.4</ele><time>2026-04-26T14:31:45.827Z</time></trkpt><trkpt lat="40.53307" lon="15.4660433"><ele>478.0</ele><time>2026-04-26T14:31:46.826Z</time></trkpt><trkpt lat="40.5330583" lon="15.466155"><ele>478.0</ele><time>2026-04-26T14:31:47.827Z</time></trkpt><trkpt lat="40.53304" lon="15.466275"><ele>477.99999999999994</ele><time>2026-04-26T14:31:48.827Z</time></trkpt><trkpt lat="40.533025" lon="15.4663983"><ele>477.99999999999994</ele><time>2026-04-26T14:31:49.827Z</time></trkpt><trkpt lat="40.5330133" lon="15.4665233"><ele>478.0</ele><time>2026-04-26T14:31:50.827Z</time></trkpt><trkpt lat="40.5330017" lon="15.4666533"><ele>478.0</ele><time>2026-04-26T14:31:51.827Z</time></trkpt><trkpt lat="40.532995" lon="15.46678"><ele>477.1666666666667</ele><time>2026-04-26T14:31:52.827Z</time></trkpt><trkpt lat="40.5329867" lon="15.466895"><ele>476.33333333333337</ele><time>2026-04-26T14:31:53.826Z</time></trkpt><trkpt lat="40.5329783" lon="15.4670083"><ele>475.5</ele><time>2026-04-26T14:31:54.826Z</time></trkpt><trkpt lat="40.5329583" lon="15.4671117"><ele>474.66666666666663</ele><time>2026-04-26T14:31:55.826Z</time></trkpt><trkpt lat="40.5329417" lon="15.4672133"><ele>473.8333333333333</ele><time>2026-04-26T14:31:56.827Z</time></trkpt><trkpt lat="40.5329217" lon="15.4673167"><ele>473.0</ele><time>2026-04-26T14:31:57.826Z</time></trkpt><trkpt lat="40.532905" lon="15.46743"><ele>472.79999999999995</ele><time>2026-04-26T14:31:58.827Z</time></trkpt><trkpt lat="40.5328917" lon="15.4675433"><ele>472.59999999999997</ele><time>2026-04-26T14:31:59.827Z</time></trkpt><trkpt lat="40.5328817" lon="15.467665"><ele>472.40000000000003</ele><time>2026-04-26T14:32:00.826Z</time></trkpt><trkpt lat="40.5328733" lon="15.4677883"><ele>472.20000000000005</ele><time>2026-04-26T14:32:01.826Z</time></trkpt><trkpt lat="40.532865" lon="15.4679133"><ele>472.0</ele><time>2026-04-26T14:32:02.826Z</time></trkpt><trkpt lat="40.5328617" lon="15.4680383"><ele>477.6</ele><time>2026-04-26T14:32:03.827Z</time></trkpt><trkpt lat="40.532865" lon="15.46816"><ele>483.20000000000005</ele><time>2026-04-26T14:32:04.827Z</time></trkpt><trkpt lat="40.53286" lon="15.46828"><ele>488.8</ele><time>2026-04-26T14:32:05.826Z</time></trkpt><trkpt lat="40.532855" lon="15.468395"><ele>494.4</ele><time>2026-04-26T14:32:06.826Z</time></trkpt><trkpt lat="40.5328433" lon="15.46851"><ele>500.0</ele><time>2026-04-26T14:32:07.827Z</time></trkpt><trkpt lat="40.5328317" lon="15.4686317"><ele>499.99999999999994</ele><time>2026-04-26T14:32:08.826Z</time></trkpt><trkpt lat="40.5328267" lon="15.4687533"><ele>500.0</ele><time>2026-04-26T14:32:09.827Z</time></trkpt><trkpt lat="40.5328283" lon="15.4688717"><ele>500.0</ele><time>2026-04-26T14:32:10.827Z</time></trkpt><trkpt lat="40.532825" lon="15.4689817"><ele>500.0</ele><time>2026-04-26T14:32:11.826Z</time></trkpt><trkpt lat="40.5328167" lon="15.4690933"><ele>499.99999999999994</ele><time>2026-04-26T14:32:12.827Z</time></trkpt><trkpt lat="40.5328033" lon="15.4692017"><ele>500.0</ele><time>2026-04-26T14:32:13.827Z</time></trkpt><trkpt lat="40.53278" lon="15.469315"><ele>497.6</ele><time>2026-04-26T14:32:14.826Z</time></trkpt><trkpt lat="40.53276" lon="15.46943"><ele>495.2</ele><time>2026-04-26T14:32:15.826Z</time></trkpt><trkpt lat="40.53275" lon="15.46955"><ele>492.79999999999995</ele><time>2026-04-26T14:32:16.826Z</time></trkpt><trkpt lat="40.532745" lon="15.469675"><ele>490.4</ele><time>2026-04-26T14:32:17.826Z</time></trkpt><trkpt lat="40.5327433" lon="15.469805"><ele>488.0</ele><time>2026-04-26T14:32:18.826Z</time></trkpt><trkpt lat="40.5327433" lon="15.469925"><ele>487.99999999999994</ele><time>2026-04-26T14:32:19.827Z</time></trkpt><trkpt lat="40.5327467" lon="15.4700483"><ele>488.0</ele><time>2026-04-26T14:32:20.827Z</time></trkpt><trkpt lat="40.5327467" lon="15.47016"><ele>488.0</ele><time>2026-04-26T14:32:21.827Z</time></trkpt><trkpt lat="40.5327367" lon="15.4702617"><ele>488.0</ele><time>2026-04-26T14:32:22.826Z</time></trkpt><trkpt lat="40.532725" lon="15.4703717"><ele>487.99999999999994</ele><time>2026-04-26T14:32:23.826Z</time></trkpt><trkpt lat="40.532715" lon="15.47049"><ele>488.0</ele><time>2026-04-26T14:32:24.826Z</time></trkpt><trkpt lat="40.532705" lon="15.47061"><ele>487.99999999999994</ele><time>2026-04-26T14:32:25.827Z</time></trkpt><trkpt lat="40.5326867" lon="15.4707133"><ele>488.0</ele><time>2026-04-26T14:32:26.826Z</time></trkpt><trkpt lat="40.5326717" lon="15.470815"><ele>488.0</ele><time>2026-04-26T14:32:27.826Z</time></trkpt><trkpt lat="40.532665" lon="15.4709317"><ele>488.0</ele><time>2026-04-26T14:32:28.827Z</time></trkpt><trkpt lat="40.5326633" lon="15.4710517"><ele>487.99999999999994</ele><time>2026-04-26T14:32:29.827Z</time></trkpt><trkpt lat="40.532665" lon="15.4711783"><ele>488.0</ele><time>2026-04-26T14:32:30.827Z</time></trkpt><trkpt lat="40.5326617" lon="15.4713067"><ele>490.2</ele><time>2026-04-26T14:32:31.826Z</time></trkpt><trkpt lat="40.532655" lon="15.4714317"><ele>492.4</ele><time>2026-04-26T14:32:32.826Z</time></trkpt><trkpt lat="40.5326383" lon="15.4715633"><ele>494.59999999999997</ele><time>2026-04-26T14:32:33.827Z</time></trkpt><trkpt lat="40.5326283" lon="15.4716967"><ele>496.79999999999995</ele><time>2026-04-26T14:32:34.826Z</time></trkpt><trkpt lat="40.5326183" lon="15.4718267"><ele>499.0</ele><time>2026-04-26T14:32:35.826Z</time></trkpt><trkpt lat="40.53262" lon="15.471965"><ele>499.0</ele><time>2026-04-26T14:32:36.826Z</time></trkpt><trkpt lat="40.53262" lon="15.4720967"><ele>499.0</ele><time>2026-04-26T14:32:37.827Z</time></trkpt><trkpt lat="40.532615" lon="15.4722233"><ele>499.0</ele><time>2026-04-26T14:32:38.826Z</time></trkpt><trkpt lat="40.5325933" lon="15.4723417"><ele>499.0</ele><time>2026-04-26T14:32:39.827Z</time></trkpt><trkpt lat="40.532565" lon="15.47246"><ele>499.0</ele><time>2026-04-26T14:32:40.827Z</time></trkpt><trkpt lat="40.532535" lon="15.4725867"><ele>499.6</ele><time>2026-04-26T14:32:41.826Z</time></trkpt><trkpt lat="40.5325067" lon="15.47272"><ele>500.2</ele><time>2026-04-26T14:32:42.827Z</time></trkpt><trkpt lat="40.5324783" lon="15.47283"><ele>500.80000000000007</ele><time>2026-04-26T14:32:43.826Z</time></trkpt><trkpt lat="40.5324617" lon="15.4729267"><ele>501.40000000000003</ele><time>2026-04-26T14:32:44.826Z</time></trkpt><trkpt lat="40.5324483" lon="15.4730133"><ele>502.0</ele><time>2026-04-26T14:32:45.826Z</time></trkpt><trkpt lat="40.5324267" lon="15.47317"><ele>500.33333333333337</ele><time>2026-04-26T14:32:47.826Z</time></trkpt><trkpt lat="40.53239" lon="15.47331"><ele>498.6666666666667</ele><time>2026-04-26T14:32:49.827Z</time></trkpt><trkpt lat="40.5323667" lon="15.4733983"><ele>497.0</ele><time>2026-04-26T14:32:50.827Z</time></trkpt><trkpt lat="40.5323533" lon="15.4734933"><ele>495.33333333333337</ele><time>2026-04-26T14:32:51.826Z</time></trkpt><trkpt lat="40.5323383" lon="15.473595"><ele>493.6666666666667</ele><time>2026-04-26T14:32:52.827Z</time></trkpt><trkpt lat="40.53231" lon="15.4737033"><ele>492.0</ele><time>2026-04-26T14:32:53.827Z</time></trkpt><trkpt lat="40.5322833" lon="15.4738133"><ele>490.20000000000005</ele><time>2026-04-26T14:32:54.826Z</time></trkpt><trkpt lat="40.532255" lon="15.473925"><ele>488.40000000000003</ele><time>2026-04-26T14:32:55.827Z</time></trkpt><trkpt lat="40.5322183" lon="15.4740367"><ele>486.59999999999997</ele><time>2026-04-26T14:32:56.826Z</time></trkpt><trkpt lat="40.5321733" lon="15.4741583"><ele>484.79999999999995</ele><time>2026-04-26T14:32:57.827Z</time></trkpt><trkpt lat="40.532125" lon="15.4742867"><ele>483.0</ele><time>2026-04-26T14:32:58.826Z</time></trkpt><trkpt lat="40.532075" lon="15.4744167"><ele>489.0</ele><time>2026-04-26T14:32:59.826Z</time></trkpt><trkpt lat="40.5320217" lon="15.474545"><ele>494.99999999999994</ele><time>2026-04-26T14:33:00.827Z</time></trkpt><trkpt lat="40.53197" lon="15.4746667"><ele>500.99999999999994</ele><time>2026-04-26T14:33:01.827Z</time></trkpt><trkpt lat="40.5319217" lon="15.47479"><ele>507.0</ele><time>2026-04-26T14:33:02.826Z</time></trkpt><trkpt lat="40.531875" lon="15.4749083"><ele>513.0</ele><time>2026-04-26T14:33:03.826Z</time></trkpt><trkpt lat="40.5318317" lon="15.475035"><ele>513.0</ele><time>2026-04-26T14:33:04.826Z</time></trkpt><trkpt lat="40.531795" lon="15.47517"><ele>513.0</ele><time>2026-04-26T14:33:05.826Z</time></trkpt><trkpt lat="40.531755" lon="15.4753"><ele>513.0</ele><time>2026-04-26T14:33:06.826Z</time></trkpt><trkpt lat="40.5317217" lon="15.47543"><ele>513.0</ele><time>2026-04-26T14:33:07.827Z</time></trkpt><trkpt lat="40.5316933" lon="15.47555"><ele>513.0</ele><time>2026-04-26T14:33:08.827Z</time></trkpt><trkpt lat="40.53167" lon="15.4756633"><ele>511.0</ele><time>2026-04-26T14:33:09.826Z</time></trkpt><trkpt lat="40.5316583" lon="15.4757683"><ele>508.99999999999994</ele><time>2026-04-26T14:33:10.826Z</time></trkpt><trkpt lat="40.5316617" lon="15.4758783"><ele>506.99999999999994</ele><time>2026-04-26T14:33:11.826Z</time></trkpt><trkpt lat="40.5316783" lon="15.4760017"><ele>505.0</ele><time>2026-04-26T14:33:12.826Z</time></trkpt><trkpt lat="40.5317017" lon="15.4761383"><ele>503.0</ele><time>2026-04-26T14:33:13.827Z</time></trkpt><trkpt lat="40.5317267" lon="15.4762783"><ele>503.0</ele><time>2026-04-26T14:33:14.827Z</time></trkpt><trkpt lat="40.53175" lon="15.476415"><ele>502.99999999999994</ele><time>2026-04-26T14:33:15.827Z</time></trkpt><trkpt lat="40.5317783" lon="15.47655"><ele>502.99999999999994</ele><time>2026-04-26T14:33:16.827Z</time></trkpt><trkpt lat="40.5318033" lon="15.4766783"><ele>503.0</ele><time>2026-04-26T14:33:17.826Z</time></trkpt><trkpt lat="40.5318167" lon="15.4767917"><ele>503.0</ele><time>2026-04-26T14:33:18.827Z</time></trkpt><trkpt lat="40.53183" lon="15.476905"><ele>503.0</ele><time>2026-04-26T14:33:19.827Z</time></trkpt><trkpt lat="40.5318333" lon="15.47702"><ele>502.99999999999994</ele><time>2026-04-26T14:33:20.826Z</time></trkpt><trkpt lat="40.5318367" lon="15.4771333"><ele>502.99999999999994</ele><time>2026-04-26T14:33:21.826Z</time></trkpt><trkpt lat="40.531845" lon="15.4772617"><ele>503.0</ele><time>2026-04-26T14:33:22.827Z</time></trkpt><trkpt lat="40.5318433" lon="15.4773983"><ele>503.0</ele><time>2026-04-26T14:33:23.826Z</time></trkpt><trkpt lat="40.5318367" lon="15.4775383"><ele>503.4</ele><time>2026-04-26T14:33:24.826Z</time></trkpt><trkpt lat="40.5318283" lon="15.4776683"><ele>503.79999999999995</ele><time>2026-04-26T14:33:25.827Z</time></trkpt><trkpt lat="40.5318233" lon="15.47779"><ele>504.2</ele><time>2026-04-26T14:33:26.827Z</time></trkpt><trkpt lat="40.5318067" lon="15.4779017"><ele>504.6</ele><time>2026-04-26T14:33:27.827Z</time></trkpt><trkpt lat="40.5317833" lon="15.47801"><ele>505.0</ele><time>2026-04-26T14:33:28.825Z</time></trkpt><trkpt lat="40.5317533" lon="15.4781183"><ele>502.6</ele><time>2026-04-26T14:33:29.826Z</time></trkpt><trkpt lat="40.5317133" lon="15.4782383"><ele>500.2</ele><time>2026-04-26T14:33:30.826Z</time></trkpt><trkpt lat="40.5316683" lon="15.4783483"><ele>497.79999999999995</ele><time>2026-04-26T14:33:31.826Z</time></trkpt><trkpt lat="40.5316033" lon="15.47846"><ele>495.4</ele><time>2026-04-26T14:33:32.825Z</time></trkpt><trkpt lat="40.531535" lon="15.478565"><ele>493.0</ele><time>2026-04-26T14:33:33.825Z</time></trkpt><trkpt lat="40.5314567" lon="15.4786633"><ele>497.2</ele><time>2026-04-26T14:33:34.825Z</time></trkpt><trkpt lat="40.531375" lon="15.47877"><ele>501.4</ele><time>2026-04-26T14:33:35.825Z</time></trkpt><trkpt lat="40.5312933" lon="15.4788617"><ele>505.59999999999997</ele><time>2026-04-26T14:33:36.825Z</time></trkpt><trkpt lat="40.53121" lon="15.4789583"><ele>509.79999999999995</ele><time>2026-04-26T14:33:37.826Z</time></trkpt><trkpt lat="40.5311267" lon="15.4790567"><ele>514.0</ele><time>2026-04-26T14:33:38.825Z</time></trkpt><trkpt lat="40.53105" lon="15.4791683"><ele>514.0</ele><time>2026-04-26T14:33:39.825Z</time></trkpt><trkpt lat="40.5309583" lon="15.4792817"><ele>514.0</ele><time>2026-04-26T14:33:40.826Z</time></trkpt><trkpt lat="40.530865" lon="15.4794"><ele>514.0</ele><time>2026-04-26T14:33:41.826Z</time></trkpt><trkpt lat="40.5307733" lon="15.4795117"><ele>514.0</ele><time>2026-04-26T14:33:42.825Z</time></trkpt><trkpt lat="40.53069" lon="15.4796117"><ele>513.6</ele><time>2026-04-26T14:33:43.825Z</time></trkpt><trkpt lat="40.5306" lon="15.4797017"><ele>513.2</ele><time>2026-04-26T14:33:44.825Z</time></trkpt><trkpt lat="40.5305167" lon="15.47979"><ele>512.8000000000001</ele><time>2026-04-26T14:33:45.825Z</time></trkpt><trkpt lat="40.5304333" lon="15.4798683"><ele>512.4</ele><time>2026-04-26T14:33:46.826Z</time></trkpt><trkpt lat="40.5303467" lon="15.47995"><ele>512.0</ele><time>2026-04-26T14:33:47.826Z</time></trkpt><trkpt lat="40.5302617" lon="15.4800333"><ele>512.0</ele><time>2026-04-26T14:33:48.825Z</time></trkpt><trkpt lat="40.53018" lon="15.48012"><ele>512.0</ele><time>2026-04-26T14:33:49.826Z</time></trkpt><trkpt lat="40.5301067" lon="15.48021"><ele>512.0</ele><time>2026-04-26T14:33:50.826Z</time></trkpt><trkpt lat="40.5300367" lon="15.4802983"><ele>512.0</ele><time>2026-04-26T14:33:51.825Z</time></trkpt><trkpt lat="40.529965" lon="15.480385"><ele>512.0</ele><time>2026-04-26T14:33:52.826Z</time></trkpt><trkpt lat="40.529895" lon="15.4804633"><ele>507.40000000000003</ele><time>2026-04-26T14:33:53.826Z</time></trkpt><trkpt lat="40.5298217" lon="15.48054"><ele>502.80000000000007</ele><time>2026-04-26T14:33:54.826Z</time></trkpt><trkpt lat="40.5297467" lon="15.480615"><ele>498.2</ele><time>2026-04-26T14:33:55.826Z</time></trkpt><trkpt lat="40.5296583" lon="15.4806767"><ele>493.6</ele><time>2026-04-26T14:33:56.825Z</time></trkpt><trkpt lat="40.5295667" lon="15.4807183"><ele>489.0</ele><time>2026-04-26T14:33:57.825Z</time></trkpt><trkpt lat="40.5294783" lon="15.4807483"><ele>489.0</ele><time>2026-04-26T14:33:58.826Z</time></trkpt><trkpt lat="40.5293867" lon="15.480775"><ele>489.0</ele><time>2026-04-26T14:33:59.825Z</time></trkpt><trkpt lat="40.5292867" lon="15.4808"><ele>489.0</ele><time>2026-04-26T14:34:00.825Z</time></trkpt><trkpt lat="40.5291717" lon="15.48082"><ele>489.0</ele><time>2026-04-26T14:34:01.826Z</time></trkpt><trkpt lat="40.529055" lon="15.4808333"><ele>489.0</ele><time>2026-04-26T14:34:02.826Z</time></trkpt><trkpt lat="40.5289367" lon="15.48083"><ele>489.0</ele><time>2026-04-26T14:34:03.826Z</time></trkpt><trkpt lat="40.5288183" lon="15.4808317"><ele>489.0</ele><time>2026-04-26T14:34:04.826Z</time></trkpt><trkpt lat="40.5287033" lon="15.4808317"><ele>489.0</ele><time>2026-04-26T14:34:05.825Z</time></trkpt><trkpt lat="40.5285917" lon="15.48083"><ele>489.0</ele><time>2026-04-26T14:34:06.826Z</time></trkpt><trkpt lat="40.528485" lon="15.4808167"><ele>487.79999999999995</ele><time>2026-04-26T14:34:07.825Z</time></trkpt><trkpt lat="40.5283817" lon="15.480785"><ele>486.59999999999997</ele><time>2026-04-26T14:34:08.825Z</time></trkpt><trkpt lat="40.52829" lon="15.4807317"><ele>485.4</ele><time>2026-04-26T14:34:09.826Z</time></trkpt><trkpt lat="40.5282083" lon="15.4806717"><ele>484.2</ele><time>2026-04-26T14:34:10.826Z</time></trkpt><trkpt lat="40.5281417" lon="15.48062"><ele>483.0</ele><time>2026-04-26T14:34:11.825Z</time></trkpt><trkpt lat="40.528035" lon="15.4806367"><ele>483.0</ele><time>2026-04-26T14:34:13.826Z</time></trkpt><trkpt lat="40.5280167" lon="15.4807333"><ele>483.0</ele><time>2026-04-26T14:34:15.826Z</time></trkpt><trkpt lat="40.52803" lon="15.4808183"><ele>483.0</ele><time>2026-04-26T14:34:17.825Z</time></trkpt><trkpt lat="40.5280817" lon="15.4809017"><ele>483.0</ele><time>2026-04-26T14:36:49.826Z</time></trkpt><trkpt lat="40.52812" lon="15.4809783"><ele>483.0</ele><time>2026-04-26T14:36:52.825Z</time></trkpt><trkpt lat="40.5281617" lon="15.4810567"><ele>483.0</ele><time>2026-04-26T14:36:57.826Z</time></trkpt><trkpt lat="40.5282183" lon="15.48113"><ele>483.0</ele><time>2026-04-26T14:37:19.826Z</time></trkpt><trkpt lat="40.528275" lon="15.4812167"><ele>480.1666666666667</ele><time>2026-04-26T14:37:56.825Z</time></trkpt><trkpt lat="40.5283267" lon="15.4812817"><ele>477.33333333333337</ele><time>2026-04-26T14:38:01.826Z</time></trkpt><trkpt lat="40.5283967" lon="15.481335"><ele>474.5</ele><time>2026-04-26T14:39:27.825Z</time></trkpt><trkpt lat="40.5284717" lon="15.48136"><ele>471.6666666666667</ele><time>2026-04-26T14:39:30.825Z</time></trkpt><trkpt lat="40.5285417" lon="15.4814"><ele>468.83333333333337</ele><time>2026-04-26T14:39:32.825Z</time></trkpt><trkpt lat="40.5286117" lon="15.481445"><ele>466.0</ele><time>2026-04-26T14:39:34.824Z</time></trkpt><trkpt lat="40.5286533" lon="15.4815367"><ele>466.00000000000006</ele><time>2026-04-26T14:39:36.825Z</time></trkpt><trkpt lat="40.5286033" lon="15.48165"><ele>466.0</ele><time>2026-04-26T14:39:38.824Z</time></trkpt><trkpt lat="40.52854" lon="15.4816817"><ele>466.0</ele><time>2026-04-26T14:39:39.825Z</time></trkpt><trkpt lat="40.5284533" lon="15.4817017"><ele>466.0</ele><time>2026-04-26T14:39:40.824Z</time></trkpt><trkpt lat="40.5283683" lon="15.4817183"><ele>466.00000000000006</ele><time>2026-04-26T14:39:41.825Z</time></trkpt><trkpt lat="40.5282867" lon="15.48173"><ele>466.0</ele><time>2026-04-26T14:39:42.825Z</time></trkpt><trkpt lat="40.5282117" lon="15.4817333"><ele>466.00000000000006</ele><time>2026-04-26T14:39:43.825Z</time></trkpt><trkpt lat="40.52814" lon="15.4817267"><ele>466.0</ele><time>2026-04-26T14:39:44.824Z</time></trkpt><trkpt lat="40.5280717" lon="15.4816917"><ele>466.0</ele><time>2026-04-26T14:39:45.825Z</time></trkpt><trkpt lat="40.5279967" lon="15.48163"><ele>466.0</ele><time>2026-04-26T14:39:46.825Z</time></trkpt><trkpt lat="40.5279183" lon="15.481555"><ele>466.00000000000006</ele><time>2026-04-26T14:39:47.825Z</time></trkpt><trkpt lat="40.52784" lon="15.4814733"><ele>466.0</ele><time>2026-04-26T14:39:48.825Z</time></trkpt><trkpt lat="40.5277617" lon="15.481395"><ele>465.8</ele><time>2026-04-26T14:39:49.825Z</time></trkpt><trkpt lat="40.5276867" lon="15.48132"><ele>465.6</ele><time>2026-04-26T14:39:50.824Z</time></trkpt><trkpt lat="40.5276233" lon="15.4812333"><ele>465.4</ele><time>2026-04-26T14:39:51.825Z</time></trkpt><trkpt lat="40.5275583" lon="15.4811167"><ele>465.2</ele><time>2026-04-26T14:39:52.824Z</time></trkpt><trkpt lat="40.5274967" lon="15.4809783"><ele>465.0</ele><time>2026-04-26T14:39:53.824Z</time></trkpt><trkpt lat="40.5274267" lon="15.4808567"><ele>465.0</ele><time>2026-04-26T14:39:54.824Z</time></trkpt><trkpt lat="40.5273483" lon="15.4807617"><ele>465.0</ele><time>2026-04-26T14:39:55.824Z</time></trkpt><trkpt lat="40.5272667" lon="15.480695"><ele>465.0</ele><time>2026-04-26T14:39:56.825Z</time></trkpt><trkpt lat="40.5271817" lon="15.4806567"><ele>465.0</ele><time>2026-04-26T14:39:57.825Z</time></trkpt><trkpt lat="40.5271" lon="15.480665"><ele>465.0</ele><time>2026-04-26T14:39:58.825Z</time></trkpt><trkpt lat="40.5270283" lon="15.480715"><ele>461.2</ele><time>2026-04-26T14:39:59.824Z</time></trkpt><trkpt lat="40.5269683" lon="15.4807917"><ele>457.4</ele><time>2026-04-26T14:40:00.824Z</time></trkpt><trkpt lat="40.5269233" lon="15.4808983"><ele>453.6</ele><time>2026-04-26T14:40:01.825Z</time></trkpt><trkpt lat="40.5268783" lon="15.4810417"><ele>449.8</ele><time>2026-04-26T14:40:02.824Z</time></trkpt><trkpt lat="40.526835" lon="15.481185"><ele>446.0</ele><time>2026-04-26T14:40:03.825Z</time></trkpt><trkpt lat="40.5267933" lon="15.4813217"><ele>445.8333333333333</ele><time>2026-04-26T14:40:04.824Z</time></trkpt><trkpt lat="40.5267533" lon="15.4814483"><ele>445.66666666666663</ele><time>2026-04-26T14:40:05.825Z</time></trkpt><trkpt lat="40.5267183" lon="15.4815683"><ele>445.5</ele><time>2026-04-26T14:40:06.825Z</time></trkpt><trkpt lat="40.5266917" lon="15.4816767"><ele>445.33333333333337</ele><time>2026-04-26T14:40:07.825Z</time></trkpt><trkpt lat="40.52667" lon="15.48177"><ele>445.1666666666667</ele><time>2026-04-26T14:40:08.825Z</time></trkpt><trkpt lat="40.526645" lon="15.4818517"><ele>445.0</ele><time>2026-04-26T14:40:10.824Z</time></trkpt><trkpt lat="40.5266983" lon="15.4819517"><ele>445.0</ele><time>2026-04-26T14:43:30.823Z</time></trkpt><trkpt lat="40.5267333" lon="15.4820283"><ele>445.0</ele><time>2026-04-26T14:43:31.824Z</time></trkpt><trkpt lat="40.5267783" lon="15.4820967"><ele>445.0</ele><time>2026-04-26T14:43:32.823Z</time></trkpt><trkpt lat="40.526825" lon="15.4821617"><ele>445.0</ele><time>2026-04-26T14:43:33.824Z</time></trkpt><trkpt lat="40.5268883" lon="15.4822167"><ele>445.0</ele><time>2026-04-26T14:43:34.824Z</time></trkpt><trkpt lat="40.526955" lon="15.48226"><ele>445.0</ele><time>2026-04-26T14:43:35.824Z</time></trkpt><trkpt lat="40.527035" lon="15.4822967"><ele>445.0</ele><time>2026-04-26T14:43:36.824Z</time></trkpt><trkpt lat="40.52712" lon="15.4823283"><ele>444.0</ele><time>2026-04-26T14:43:37.823Z</time></trkpt><trkpt lat="40.5272017" lon="15.4823633"><ele>443.0</ele><time>2026-04-26T14:43:38.823Z</time></trkpt><trkpt lat="40.5272917" lon="15.4823967"><ele>442.0</ele><time>2026-04-26T14:43:39.823Z</time></trkpt><trkpt lat="40.5273817" lon="15.4824367"><ele>441.0</ele><time>2026-04-26T14:43:40.824Z</time></trkpt><trkpt lat="40.5274783" lon="15.482475"><ele>440.0</ele><time>2026-04-26T14:43:41.823Z</time></trkpt><trkpt lat="40.5275733" lon="15.4825167"><ele>440.0</ele><time>2026-04-26T14:43:42.823Z</time></trkpt><trkpt lat="40.5276633" lon="15.4825567"><ele>440.0</ele><time>2026-04-26T14:43:43.823Z</time></trkpt><trkpt lat="40.5277583" lon="15.4826017"><ele>440.0</ele><time>2026-04-26T14:43:44.824Z</time></trkpt><trkpt lat="40.5278483" lon="15.4826467"><ele>440.0</ele><time>2026-04-26T14:43:45.823Z</time></trkpt><trkpt lat="40.5279333" lon="15.4826833"><ele>440.0</ele><time>2026-04-26T14:43:46.824Z</time></trkpt><trkpt lat="40.5280083" lon="15.4827117"><ele>440.99999999999994</ele><time>2026-04-26T14:43:47.824Z</time></trkpt><trkpt lat="40.52808" lon="15.4827383"><ele>442.0</ele><time>2026-04-26T14:43:49.824Z</time></trkpt><trkpt lat="40.5281567" lon="15.4827567"><ele>443.0</ele><time>2026-04-26T14:43:55.824Z</time></trkpt><trkpt lat="40.5282783" lon="15.482765"><ele>444.0</ele><time>2026-04-26T14:43:57.824Z</time></trkpt><trkpt lat="40.5283533" lon="15.4827517"><ele>444.99999999999994</ele><time>2026-04-26T14:43:58.823Z</time></trkpt><trkpt lat="40.5284367" lon="15.4827283"><ele>446.0</ele><time>2026-04-26T14:43:59.824Z</time></trkpt><trkpt lat="40.5285067" lon="15.4827117"><ele>446.0</ele><time>2026-04-26T14:44:00.824Z</time></trkpt><trkpt lat="40.5286067" lon="15.48274"><ele>446.0</ele><time>2026-04-26T14:44:02.823Z</time></trkpt><trkpt lat="40.5286383" lon="15.48285"><ele>446.0</ele><time>2026-04-26T14:44:04.823Z</time></trkpt><trkpt lat="40.5286433" lon="15.4829883"><ele>446.0</ele><time>2026-04-26T14:44:06.823Z</time></trkpt><trkpt lat="40.5286683" lon="15.483155"><ele>446.0</ele><time>2026-04-26T14:44:08.823Z</time></trkpt><trkpt lat="40.5286983" lon="15.4832483"><ele>445.66666666666663</ele><time>2026-04-26T14:44:09.823Z</time></trkpt><trkpt lat="40.528735" lon="15.4833417"><ele>445.3333333333333</ele><time>2026-04-26T14:44:10.823Z</time></trkpt><trkpt lat="40.5287783" lon="15.4834333"><ele>445.0</ele><time>2026-04-26T14:44:11.824Z</time></trkpt><trkpt lat="40.5288267" lon="15.4835233"><ele>444.66666666666663</ele><time>2026-04-26T14:44:12.823Z</time></trkpt><trkpt lat="40.5288767" lon="15.4836217"><ele>444.3333333333333</ele><time>2026-04-26T14:44:13.823Z</time></trkpt><trkpt lat="40.5289117" lon="15.4837233"><ele>444.0</ele><time>2026-04-26T14:44:14.823Z</time></trkpt><trkpt lat="40.528925" lon="15.4838317"><ele>445.6666666666667</ele><time>2026-04-26T14:44:15.823Z</time></trkpt><trkpt lat="40.5289217" lon="15.4839383"><ele>447.33333333333337</ele><time>2026-04-26T14:44:16.824Z</time></trkpt><trkpt lat="40.5289017" lon="15.4840333"><ele>449.0</ele><time>2026-04-26T14:44:17.823Z</time></trkpt><trkpt lat="40.5288833" lon="15.4841283"><ele>450.6666666666667</ele><time>2026-04-26T14:44:18.823Z</time></trkpt><trkpt lat="40.52888" lon="15.48422"><ele>452.33333333333337</ele><time>2026-04-26T14:44:19.823Z</time></trkpt><trkpt lat="40.5289167" lon="15.4843633"><ele>454.0</ele><time>2026-04-26T14:44:21.823Z</time></trkpt><trkpt lat="40.528965" lon="15.4844167"><ele>454.00000000000006</ele><time>2026-04-26T14:44:22.824Z</time></trkpt><trkpt lat="40.529035" lon="15.4844667"><ele>454.0</ele><time>2026-04-26T14:44:23.823Z</time></trkpt><trkpt lat="40.5291083" lon="15.4844967"><ele>454.0</ele><time>2026-04-26T14:44:24.824Z</time></trkpt><trkpt lat="40.52919" lon="15.4845117"><ele>454.0</ele><time>2026-04-26T14:44:25.823Z</time></trkpt><trkpt lat="40.52928" lon="15.4845083"><ele>454.00000000000006</ele><time>2026-04-26T14:44:26.824Z</time></trkpt><trkpt lat="40.5293767" lon="15.48449"><ele>454.0</ele><time>2026-04-26T14:44:27.823Z</time></trkpt><trkpt lat="40.5294767" lon="15.4844667"><ele>455.4</ele><time>2026-04-26T14:44:28.823Z</time></trkpt><trkpt lat="40.529575" lon="15.4844417"><ele>456.79999999999995</ele><time>2026-04-26T14:44:29.823Z</time></trkpt><trkpt lat="40.52968" lon="15.4844067"><ele>458.20000000000005</ele><time>2026-04-26T14:44:30.823Z</time></trkpt><trkpt lat="40.5297917" lon="15.4843667"><ele>459.6</ele><time>2026-04-26T14:44:31.823Z</time></trkpt><trkpt lat="40.5299083" lon="15.48432"><ele>461.0</ele><time>2026-04-26T14:44:32.823Z</time></trkpt><trkpt lat="40.53003" lon="15.4842833"><ele>461.0</ele><time>2026-04-26T14:44:33.824Z</time></trkpt><trkpt lat="40.5301483" lon="15.4842467"><ele>461.0</ele><time>2026-04-26T14:44:34.823Z</time></trkpt><trkpt lat="40.5302633" lon="15.4842067"><ele>461.0</ele><time>2026-04-26T14:44:35.824Z</time></trkpt><trkpt lat="40.5303817" lon="15.4841683"><ele>461.0</ele><time>2026-04-26T14:44:36.823Z</time></trkpt><trkpt lat="40.5305017" lon="15.484135"><ele>462.6</ele><time>2026-04-26T14:44:37.823Z</time></trkpt><trkpt lat="40.530615" lon="15.4841067"><ele>464.20000000000005</ele><time>2026-04-26T14:44:38.823Z</time></trkpt><trkpt lat="40.5307217" lon="15.4840767"><ele>465.79999999999995</ele><time>2026-04-26T14:44:39.824Z</time></trkpt><trkpt lat="40.5308217" lon="15.484045"><ele>467.4</ele><time>2026-04-26T14:44:40.823Z</time></trkpt><trkpt lat="40.5309133" lon="15.484015"><ele>469.0</ele><time>2026-04-26T14:44:41.823Z</time></trkpt><trkpt lat="40.5309967" lon="15.4839833"><ele>469.0</ele><time>2026-04-26T14:44:42.824Z</time></trkpt><trkpt lat="40.5310667" lon="15.48395"><ele>469.0</ele><time>2026-04-26T14:44:43.823Z</time></trkpt><trkpt lat="40.53117" lon="15.48384"><ele>469.0</ele><time>2026-04-26T14:44:45.823Z</time></trkpt><trkpt lat="40.53122" lon="15.483755"><ele>469.0</ele><time>2026-04-26T14:44:46.824Z</time></trkpt><trkpt lat="40.531265" lon="15.483655"><ele>469.0</ele><time>2026-04-26T14:44:47.824Z</time></trkpt><trkpt lat="40.5313067" lon="15.483545"><ele>469.6</ele><time>2026-04-26T14:44:48.823Z</time></trkpt><trkpt lat="40.5313583" lon="15.483435"><ele>470.2</ele><time>2026-04-26T14:44:49.823Z</time></trkpt><trkpt lat="40.53141" lon="15.4833233"><ele>470.80000000000007</ele><time>2026-04-26T14:44:50.824Z</time></trkpt><trkpt lat="40.5314717" lon="15.4832067"><ele>471.40000000000003</ele><time>2026-04-26T14:44:51.823Z</time></trkpt><trkpt lat="40.5315317" lon="15.4830933"><ele>472.0</ele><time>2026-04-26T14:44:52.824Z</time></trkpt><trkpt lat="40.5315933" lon="15.4829833"><ele>470.40000000000003</ele><time>2026-04-26T14:44:53.823Z</time></trkpt><trkpt lat="40.53165" lon="15.48287"><ele>468.80000000000007</ele><time>2026-04-26T14:44:54.823Z</time></trkpt><trkpt lat="40.5317017" lon="15.4827467"><ele>467.2</ele><time>2026-04-26T14:44:55.823Z</time></trkpt><trkpt lat="40.5317417" lon="15.48261"><ele>465.6</ele><time>2026-04-26T14:44:56.823Z</time></trkpt><trkpt lat="40.5317733" lon="15.48247"><ele>464.0</ele><time>2026-04-26T14:44:57.824Z</time></trkpt><trkpt lat="40.5318033" lon="15.4823433"><ele>463.99999999999994</ele><time>2026-04-26T14:44:58.823Z</time></trkpt><trkpt lat="40.5318333" lon="15.4822217"><ele>464.0</ele><time>2026-04-26T14:44:59.823Z</time></trkpt><trkpt lat="40.5318667" lon="15.482125"><ele>464.0</ele><time>2026-04-26T14:45:00.824Z</time></trkpt><trkpt lat="40.5319067" lon="15.482045"><ele>464.0</ele><time>2026-04-26T14:45:01.824Z</time></trkpt><trkpt lat="40.53196" lon="15.4819883"><ele>463.99999999999994</ele><time>2026-04-26T14:45:02.824Z</time></trkpt><trkpt lat="40.532075" lon="15.4819183"><ele>464.0</ele><time>2026-04-26T14:45:04.823Z</time></trkpt><trkpt lat="40.53214" lon="15.48192"><ele>463.8333333333333</ele><time>2026-04-26T14:45:05.823Z</time></trkpt><trkpt lat="40.5322033" lon="15.48195"><ele>463.66666666666663</ele><time>2026-04-26T14:45:06.823Z</time></trkpt><trkpt lat="40.5322717" lon="15.4819817"><ele>463.5</ele><time>2026-04-26T14:45:07.823Z</time></trkpt><trkpt lat="40.5323317" lon="15.4820117"><ele>463.33333333333337</ele><time>2026-04-26T14:45:08.824Z</time></trkpt><trkpt lat="40.53239" lon="15.4821183"><ele>463.1666666666667</ele><time>2026-04-26T14:45:10.824Z</time></trkpt><trkpt lat="40.5324183" lon="15.4822867"><ele>463.0</ele><time>2026-04-26T14:45:12.823Z</time></trkpt><trkpt lat="40.5324233" lon="15.4823883"><ele>465.1666666666667</ele><time>2026-04-26T14:45:13.823Z</time></trkpt><trkpt lat="40.5324233" lon="15.4824817"><ele>467.33333333333337</ele><time>2026-04-26T14:45:14.824Z</time></trkpt><trkpt lat="40.532425" lon="15.48257"><ele>469.5</ele><time>2026-04-26T14:45:15.823Z</time></trkpt><trkpt lat="40.5324267" lon="15.482655"><ele>471.66666666666663</ele><time>2026-04-26T14:45:16.823Z</time></trkpt><trkpt lat="40.532435" lon="15.4828167"><ele>473.8333333333333</ele><time>2026-04-26T14:45:18.824Z</time></trkpt><trkpt lat="40.5324433" lon="15.4829767"><ele>476.0</ele><time>2026-04-26T14:45:20.823Z</time></trkpt><trkpt lat="40.5324483" lon="15.4830617"><ele>476.66666666666663</ele><time>2026-04-26T14:45:21.824Z</time></trkpt><trkpt lat="40.53246" lon="15.4831433"><ele>477.3333333333333</ele><time>2026-04-26T14:45:22.823Z</time></trkpt><trkpt lat="40.5324917" lon="15.4832583"><ele>478.0</ele><time>2026-04-26T14:45:24.824Z</time></trkpt><trkpt lat="40.5325433" lon="15.4833183"><ele>478.66666666666663</ele><time>2026-04-26T14:45:30.824Z</time></trkpt><trkpt lat="40.5326" lon="15.4832317"><ele>479.3333333333333</ele><time>2026-04-26T14:45:33.823Z</time></trkpt><trkpt lat="40.5326217" lon="15.4831433"><ele>480.0</ele><time>2026-04-26T14:45:34.823Z</time></trkpt><trkpt lat="40.5326483" lon="15.48304"><ele>479.2</ele><time>2026-04-26T14:45:35.824Z</time></trkpt><trkpt lat="40.5326733" lon="15.48293"><ele>478.4</ele><time>2026-04-26T14:45:36.823Z</time></trkpt><trkpt lat="40.5327" lon="15.48281"><ele>477.6</ele><time>2026-04-26T14:45:37.823Z</time></trkpt><trkpt lat="40.5327283" lon="15.4826933"><ele>476.8</ele><time>2026-04-26T14:45:38.823Z</time></trkpt><trkpt lat="40.5327533" lon="15.4825783"><ele>476.0</ele><time>2026-04-26T14:45:39.823Z</time></trkpt><trkpt lat="40.532775" lon="15.482465"><ele>476.0</ele><time>2026-04-26T14:45:40.823Z</time></trkpt><trkpt lat="40.532795" lon="15.4823517"><ele>476.0</ele><time>2026-04-26T14:45:41.823Z</time></trkpt><trkpt lat="40.5328183" lon="15.4822383"><ele>476.0</ele><time>2026-04-26T14:45:42.824Z</time></trkpt><trkpt lat="40.5328433" lon="15.4821233"><ele>476.0</ele><time>2026-04-26T14:45:43.824Z</time></trkpt><trkpt lat="40.5328733" lon="15.482005"><ele>476.0</ele><time>2026-04-26T14:45:44.824Z</time></trkpt><trkpt lat="40.5329167" lon="15.4818833"><ele>477.0</ele><time>2026-04-26T14:45:45.824Z</time></trkpt><trkpt lat="40.5329633" lon="15.4817533"><ele>478.0</ele><time>2026-04-26T14:45:46.823Z</time></trkpt><trkpt lat="40.5330083" lon="15.4816267"><ele>479.0</ele><time>2026-04-26T14:45:47.823Z</time></trkpt><trkpt lat="40.5330533" lon="15.4814883"><ele>480.0</ele><time>2026-04-26T14:45:48.824Z</time></trkpt><trkpt lat="40.533105" lon="15.4813467"><ele>481.0</ele><time>2026-04-26T14:45:49.823Z</time></trkpt><trkpt lat="40.5331583" lon="15.4812017"><ele>478.0</ele><time>2026-04-26T14:45:50.824Z</time></trkpt><trkpt lat="40.5332033" lon="15.4810483"><ele>475.0</ele><time>2026-04-26T14:45:51.824Z</time></trkpt><trkpt lat="40.5332533" lon="15.4809"><ele>472.0</ele><time>2026-04-26T14:45:52.824Z</time></trkpt><trkpt lat="40.533305" lon="15.4807517"><ele>469.0</ele><time>2026-04-26T14:45:53.824Z</time></trkpt><trkpt lat="40.5333567" lon="15.4805917"><ele>469.0</ele><time>2026-04-26T14:45:54.823Z</time></trkpt><trkpt lat="40.5334167" lon="15.4804383"><ele>469.0</ele><time>2026-04-26T14:45:55.824Z</time></trkpt><trkpt lat="40.5334767" lon="15.4802833"><ele>469.0</ele><time>2026-04-26T14:45:56.823Z</time></trkpt><trkpt lat="40.5335317" lon="15.480125"><ele>469.0</ele><time>2026-04-26T14:45:57.824Z</time></trkpt><trkpt lat="40.5335917" lon="15.4799733"><ele>471.0</ele><time>2026-04-26T14:45:58.823Z</time></trkpt><trkpt lat="40.53365" lon="15.4798183"><ele>473.0</ele><time>2026-04-26T14:45:59.823Z</time></trkpt><trkpt lat="40.5337033" lon="15.4796667"><ele>475.0</ele><time>2026-04-26T14:46:00.824Z</time></trkpt><trkpt lat="40.5337633" lon="15.47951"><ele>477.0</ele><time>2026-04-26T14:46:01.824Z</time></trkpt><trkpt lat="40.533815" lon="15.47936"><ele>477.0</ele><time>2026-04-26T14:46:02.824Z</time></trkpt><trkpt lat="40.533875" lon="15.47921"><ele>477.0</ele><time>2026-04-26T14:46:03.824Z</time></trkpt><trkpt lat="40.5339367" lon="15.479055"><ele>477.0</ele><time>2026-04-26T14:46:04.824Z</time></trkpt><trkpt lat="40.533995" lon="15.4789017"><ele>477.0</ele><time>2026-04-26T14:46:05.823Z</time></trkpt><trkpt lat="40.53406" lon="15.478745"><ele>473.5</ele><time>2026-04-26T14:46:06.823Z</time></trkpt><trkpt lat="40.5341283" lon="15.4785883"><ele>470.0</ele><time>2026-04-26T14:46:07.824Z</time></trkpt><trkpt lat="40.5342" lon="15.478435"><ele>466.5</ele><time>2026-04-26T14:46:08.823Z</time></trkpt><trkpt lat="40.5342717" lon="15.4782833"><ele>463.0</ele><time>2026-04-26T14:46:09.823Z</time></trkpt><trkpt lat="40.53434" lon="15.4781317"><ele>463.0</ele><time>2026-04-26T14:46:10.823Z</time></trkpt><trkpt lat="40.5344083" lon="15.4779817"><ele>463.0</ele><time>2026-04-26T14:46:11.822Z</time></trkpt><trkpt lat="40.53448" lon="15.4778233"><ele>463.0</ele><time>2026-04-26T14:46:12.823Z</time></trkpt><trkpt lat="40.5345583" lon="15.4776467"><ele>463.0</ele><time>2026-04-26T14:46:13.823Z</time></trkpt><trkpt lat="40.5346383" lon="15.4774567"><ele>464.33333333333337</ele><time>2026-04-26T14:46:14.823Z</time></trkpt><trkpt lat="40.5347283" lon="15.4772533"><ele>465.66666666666663</ele><time>2026-04-26T14:46:15.822Z</time></trkpt><trkpt lat="40.5348183" lon="15.4770417"><ele>467.0</ele><time>2026-04-26T14:46:16.823Z</time></trkpt><trkpt lat="40.5349133" lon="15.476825"><ele>462.3333333333333</ele><time>2026-04-26T14:46:17.822Z</time></trkpt><trkpt lat="40.5350067" lon="15.4766033"><ele>457.66666666666663</ele><time>2026-04-26T14:46:18.822Z</time></trkpt><trkpt lat="40.535105" lon="15.476385"><ele>453.0</ele><time>2026-04-26T14:46:19.822Z</time></trkpt><trkpt lat="40.5352033" lon="15.47617"><ele>455.66666666666663</ele><time>2026-04-26T14:46:20.823Z</time></trkpt><trkpt lat="40.5352983" lon="15.475955"><ele>458.3333333333333</ele><time>2026-04-26T14:46:21.822Z</time></trkpt><trkpt lat="40.53539" lon="15.4757383"><ele>461.0</ele><time>2026-04-26T14:46:22.822Z</time></trkpt><trkpt lat="40.5354833" lon="15.4755233"><ele>455.66666666666663</ele><time>2026-04-26T14:46:23.822Z</time></trkpt><trkpt lat="40.5355783" lon="15.47531"><ele>450.33333333333337</ele><time>2026-04-26T14:46:24.823Z</time></trkpt><trkpt lat="40.5356667" lon="15.4750967"><ele>445.0</ele><time>2026-04-26T14:46:25.823Z</time></trkpt><trkpt lat="40.5357583" lon="15.4748933"><ele>445.0</ele><time>2026-04-26T14:46:26.822Z</time></trkpt><trkpt lat="40.5358483" lon="15.4747"><ele>445.0</ele><time>2026-04-26T14:46:27.822Z</time></trkpt><trkpt lat="40.53593" lon="15.474505"><ele>445.0</ele><time>2026-04-26T14:46:28.822Z</time></trkpt><trkpt lat="40.5360117" lon="15.4743083"><ele>441.0</ele><time>2026-04-26T14:46:29.822Z</time></trkpt><trkpt lat="40.5360967" lon="15.4741133"><ele>437.0</ele><time>2026-04-26T14:46:30.823Z</time></trkpt><trkpt lat="40.53618" lon="15.4739167"><ele>433.0</ele><time>2026-04-26T14:46:31.823Z</time></trkpt><trkpt lat="40.5362683" lon="15.4737167"><ele>432.0</ele><time>2026-04-26T14:46:32.823Z</time></trkpt><trkpt lat="40.5363533" lon="15.4735167"><ele>431.0</ele><time>2026-04-26T14:46:33.822Z</time></trkpt><trkpt lat="40.53644" lon="15.4733117"><ele>430.0</ele><time>2026-04-26T14:46:34.822Z</time></trkpt><trkpt lat="40.536525" lon="15.4731067"><ele>424.6666666666667</ele><time>2026-04-26T14:46:35.823Z</time></trkpt><trkpt lat="40.53661" lon="15.4729083"><ele>419.33333333333337</ele><time>2026-04-26T14:46:36.822Z</time></trkpt><trkpt lat="40.5366933" lon="15.47271"><ele>414.0</ele><time>2026-04-26T14:46:37.823Z</time></trkpt><trkpt lat="40.536775" lon="15.4725117"><ele>414.0</ele><time>2026-04-26T14:46:38.823Z</time></trkpt><trkpt lat="40.5368617" lon="15.4723133"><ele>414.0</ele><time>2026-04-26T14:46:39.823Z</time></trkpt><trkpt lat="40.536945" lon="15.47212"><ele>414.0</ele><time>2026-04-26T14:46:40.823Z</time></trkpt><trkpt lat="40.5370267" lon="15.471925"><ele>413.0</ele><time>2026-04-26T14:46:41.823Z</time></trkpt><trkpt lat="40.5371133" lon="15.4717317"><ele>412.0</ele><time>2026-04-26T14:46:42.823Z</time></trkpt><trkpt lat="40.5371967" lon="15.4715367"><ele>411.0</ele><time>2026-04-26T14:46:43.823Z</time></trkpt><trkpt lat="40.53728" lon="15.4713433"><ele>407.33333333333337</ele><time>2026-04-26T14:46:44.823Z</time></trkpt><trkpt lat="40.5373683" lon="15.4711467"><ele>403.6666666666667</ele><time>2026-04-26T14:46:45.822Z</time></trkpt><trkpt lat="40.537455" lon="15.4709483"><ele>400.0</ele><time>2026-04-26T14:46:46.823Z</time></trkpt><trkpt lat="40.53754" lon="15.47075"><ele>400.0</ele><time>2026-04-26T14:46:47.822Z</time></trkpt><trkpt lat="40.537625" lon="15.47055"><ele>400.0</ele><time>2026-04-26T14:46:48.823Z</time></trkpt><trkpt lat="40.537705" lon="15.47035"><ele>400.0</ele><time>2026-04-26T14:46:49.823Z</time></trkpt><trkpt lat="40.53779" lon="15.470155"><ele>398.0</ele><time>2026-04-26T14:46:50.823Z</time></trkpt><trkpt lat="40.537875" lon="15.4699633"><ele>396.0</ele><time>2026-04-26T14:46:51.822Z</time></trkpt><trkpt lat="40.5379583" lon="15.4697717"><ele>394.0</ele><time>2026-04-26T14:46:52.823Z</time></trkpt><trkpt lat="40.5380533" lon="15.4695867"><ele>389.33333333333337</ele><time>2026-04-26T14:46:53.822Z</time></trkpt><trkpt lat="40.5381667" lon="15.4694217"><ele>384.6666666666667</ele><time>2026-04-26T14:46:54.823Z</time></trkpt><trkpt lat="40.5382883" lon="15.4692767"><ele>380.0</ele><time>2026-04-26T14:46:55.823Z</time></trkpt><trkpt lat="40.5384217" lon="15.469155"><ele>380.0</ele><time>2026-04-26T14:46:56.823Z</time></trkpt><trkpt lat="40.5385517" lon="15.469055"><ele>380.0</ele><time>2026-04-26T14:46:57.822Z</time></trkpt><trkpt lat="40.5386683" lon="15.4689717"><ele>380.0</ele><time>2026-04-26T14:46:58.823Z</time></trkpt><trkpt lat="40.53877" lon="15.4689117"><ele>380.0</ele><time>2026-04-26T14:46:59.823Z</time></trkpt><trkpt lat="40.5388567" lon="15.468855"><ele>382.1666666666667</ele><time>2026-04-26T14:47:00.823Z</time></trkpt><trkpt lat="40.538915" lon="15.4687767"><ele>384.33333333333337</ele><time>2026-04-26T14:47:01.823Z</time></trkpt><trkpt lat="40.5389383" lon="15.4686883"><ele>386.5</ele><time>2026-04-26T14:47:02.823Z</time></trkpt><trkpt lat="40.538935" lon="15.4686033"><ele>388.6666666666667</ele><time>2026-04-26T14:47:03.822Z</time></trkpt><trkpt lat="40.538895" lon="15.46852"><ele>390.8333333333333</ele><time>2026-04-26T14:47:04.822Z</time></trkpt><trkpt lat="40.5388267" lon="15.4684483"><ele>393.0</ele><time>2026-04-26T14:47:05.823Z</time></trkpt><trkpt lat="40.5387433" lon="15.468375"><ele>387.2</ele><time>2026-04-26T14:47:06.823Z</time></trkpt><trkpt lat="40.5386583" lon="15.4682983"><ele>381.4</ele><time>2026-04-26T14:47:07.822Z</time></trkpt><trkpt lat="40.5385733" lon="15.468235"><ele>375.59999999999997</ele><time>2026-04-26T14:47:08.823Z</time></trkpt><trkpt lat="40.53849" lon="15.4681733"><ele>369.79999999999995</ele><time>2026-04-26T14:47:09.823Z</time></trkpt><trkpt lat="40.5383983" lon="15.4681067"><ele>364.0</ele><time>2026-04-26T14:47:10.823Z</time></trkpt><trkpt lat="40.5382833" lon="15.4680383"><ele>364.0</ele><time>2026-04-26T14:47:11.823Z</time></trkpt><trkpt lat="40.5381583" lon="15.4679867"><ele>364.0</ele><time>2026-04-26T14:47:12.822Z</time></trkpt><trkpt lat="40.5380633" lon="15.46796"><ele>364.0</ele><time>2026-04-26T14:47:13.823Z</time></trkpt><trkpt lat="40.537995" lon="15.4679267"><ele>364.0</ele><time>2026-04-26T14:47:14.823Z</time></trkpt><trkpt lat="40.5379767" lon="15.467825"><ele>364.0</ele><time>2026-04-26T14:47:16.822Z</time></trkpt><trkpt lat="40.538115" lon="15.4677817"><ele>364.0</ele><time>2026-04-26T14:47:18.822Z</time></trkpt><trkpt lat="40.5382267" lon="15.46783"><ele>364.0</ele><time>2026-04-26T14:47:19.823Z</time></trkpt><trkpt lat="40.5383867" lon="15.4679067"><ele>364.0</ele><time>2026-04-26T14:47:20.823Z</time></trkpt><trkpt lat="40.5385767" lon="15.4680033"><ele>362.3333333333333</ele><time>2026-04-26T14:47:21.822Z</time></trkpt><trkpt lat="40.5387567" lon="15.4681033"><ele>360.6666666666667</ele><time>2026-04-26T14:47:22.822Z</time></trkpt><trkpt lat="40.5389017" lon="15.468185"><ele>359.0</ele><time>2026-04-26T14:47:23.822Z</time></trkpt><trkpt lat="40.5390233" lon="15.4682517"><ele>359.0</ele><time>2026-04-26T14:47:24.823Z</time></trkpt><trkpt lat="40.5391217" lon="15.4683017"><ele>359.0</ele><time>2026-04-26T14:47:25.823Z</time></trkpt><trkpt lat="40.5391933" lon="15.468325"><ele>359.0</ele><time>2026-04-26T14:47:26.823Z</time></trkpt><trkpt lat="40.53925" lon="15.4682883"><ele>359.0</ele><time>2026-04-26T14:47:27.822Z</time></trkpt><trkpt lat="40.5392367" lon="15.4681283"><ele>359.0</ele><time>2026-04-26T14:47:29.823Z</time></trkpt><trkpt lat="40.5391683" lon="15.4680667"><ele>359.0</ele><time>2026-04-26T14:47:30.823Z</time></trkpt><trkpt lat="40.53905" lon="15.4680133"><ele>359.0</ele><time>2026-04-26T14:47:31.823Z</time></trkpt><trkpt lat="40.5389033" lon="15.4679483"><ele>359.0</ele><time>2026-04-26T14:47:32.822Z</time></trkpt><trkpt lat="40.53875" lon="15.467835"><ele>359.0</ele><time>2026-04-26T14:47:33.822Z</time></trkpt><trkpt lat="40.5386017" lon="15.467715"><ele>353.79999999999995</ele><time>2026-04-26T14:47:34.822Z</time></trkpt><trkpt lat="40.5384783" lon="15.4676217"><ele>348.59999999999997</ele><time>2026-04-26T14:47:35.822Z</time></trkpt><trkpt lat="40.5383717" lon="15.4675533"><ele>343.4</ele><time>2026-04-26T14:47:36.823Z</time></trkpt><trkpt lat="40.5382817" lon="15.467495"><ele>338.2</ele><time>2026-04-26T14:47:37.822Z</time></trkpt><trkpt lat="40.5382317" lon="15.4674333"><ele>333.0</ele><time>2026-04-26T14:47:38.822Z</time></trkpt><trkpt lat="40.5382383" lon="15.4673133"><ele>333.0</ele><time>2026-04-26T14:47:40.822Z</time></trkpt><trkpt lat="40.5383733" lon="15.467345"><ele>333.0</ele><time>2026-04-26T14:47:42.823Z</time></trkpt><trkpt lat="40.5385" lon="15.467435"><ele>333.0</ele><time>2026-04-26T14:47:43.822Z</time></trkpt><trkpt lat="40.5386617" lon="15.4675467"><ele>330.3333333333333</ele><time>2026-04-26T14:47:44.822Z</time></trkpt><trkpt lat="40.53883" lon="15.4676517"><ele>327.66666666666663</ele><time>2026-04-26T14:47:45.823Z</time></trkpt><trkpt lat="40.5389783" lon="15.4677383"><ele>325.0</ele><time>2026-04-26T14:47:46.822Z</time></trkpt><trkpt lat="40.5391033" lon="15.4678133"><ele>325.0</ele><time>2026-04-26T14:47:47.822Z</time></trkpt><trkpt lat="40.5392117" lon="15.4678733"><ele>325.0</ele><time>2026-04-26T14:47:48.823Z</time></trkpt><trkpt lat="40.5392983" lon="15.4678967"><ele>325.0</ele><time>2026-04-26T14:47:49.822Z</time></trkpt><trkpt lat="40.539365" lon="15.46788"><ele>325.0</ele><time>2026-04-26T14:47:50.822Z</time></trkpt><trkpt lat="40.53941" lon="15.46782"><ele>325.0</ele><time>2026-04-26T14:47:51.823Z</time></trkpt><trkpt lat="40.5394017" lon="15.4677317"><ele>325.0</ele><time>2026-04-26T14:47:52.822Z</time></trkpt><trkpt lat="40.5393567" lon="15.4676717"><ele>325.0</ele><time>2026-04-26T14:47:53.823Z</time></trkpt><trkpt lat="40.5392683" lon="15.4676017"><ele>325.0</ele><time>2026-04-26T14:47:54.823Z</time></trkpt><trkpt lat="40.53917" lon="15.4675483"><ele>325.0</ele><time>2026-04-26T14:47:55.823Z</time></trkpt><trkpt lat="40.53908" lon="15.4674917"><ele>325.0</ele><time>2026-04-26T14:47:56.823Z</time></trkpt><trkpt lat="40.5390267" lon="15.46743"><ele>325.0</ele><time>2026-04-26T14:47:57.823Z</time></trkpt><trkpt lat="40.5389883" lon="15.4673533"><ele>325.0</ele><time>2026-04-26T14:47:58.822Z</time></trkpt><trkpt lat="40.5389833" lon="15.4672633"><ele>325.0</ele><time>2026-04-26T14:47:59.823Z</time></trkpt><trkpt lat="40.5390067" lon="15.4671667"><ele>325.0</ele><time>2026-04-26T14:48:00.822Z</time></trkpt><trkpt lat="40.5390383" lon="15.4670767"><ele>325.0</ele><time>2026-04-26T14:48:01.822Z</time></trkpt><trkpt lat="40.53909" lon="15.4669583"><ele>325.0</ele><time>2026-04-26T14:48:02.822Z</time></trkpt><trkpt lat="40.5391633" lon="15.46678"><ele>324.8</ele><time>2026-04-26T14:48:03.822Z</time></trkpt><trkpt lat="40.5392317" lon="15.4666017"><ele>324.6</ele><time>2026-04-26T14:48:04.822Z</time></trkpt><trkpt lat="40.5392817" lon="15.4664667"><ele>324.4</ele><time>2026-04-26T14:48:05.822Z</time></trkpt><trkpt lat="40.5393067" lon="15.4663583"><ele>324.2</ele><time>2026-04-26T14:48:07.823Z</time></trkpt><trkpt lat="40.5392667" lon="15.4662833"><ele>324.0</ele><time>2026-04-26T14:48:10.822Z</time></trkpt><trkpt lat="40.5391933" lon="15.4661767"><ele>324.0</ele><time>2026-04-26T14:48:12.823Z</time></trkpt><trkpt lat="40.5391483" lon="15.4660983"><ele>324.0</ele><time>2026-04-26T14:48:13.823Z</time></trkpt><trkpt lat="40.53911" lon="15.465995"><ele>324.0</ele><time>2026-04-26T14:48:14.822Z</time></trkpt><trkpt lat="40.5390783" lon="15.4658833"><ele>324.0</ele><time>2026-04-26T14:48:15.822Z</time></trkpt><trkpt lat="40.5390617" lon="15.4657733"><ele>324.0</ele><time>2026-04-26T14:48:16.823Z</time></trkpt><trkpt lat="40.5390517" lon="15.4656717"><ele>324.0</ele><time>2026-04-26T14:48:17.823Z</time></trkpt><trkpt lat="40.5390433" lon="15.46558"><ele>324.79999999999995</ele><time>2026-04-26T14:48:18.822Z</time></trkpt><trkpt lat="40.5390267" lon="15.465415"><ele>325.59999999999997</ele><time>2026-04-26T14:48:20.823Z</time></trkpt><trkpt lat="40.539025" lon="15.4653317"><ele>326.4</ele><time>2026-04-26T14:48:21.823Z</time></trkpt><trkpt lat="40.539015" lon="15.4651667"><ele>327.2</ele><time>2026-04-26T14:48:23.822Z</time></trkpt><trkpt lat="40.5390083" lon="15.4650783"><ele>328.0</ele><time>2026-04-26T14:48:24.823Z</time></trkpt><trkpt lat="40.539005" lon="15.46499"><ele>328.0</ele><time>2026-04-26T14:48:25.823Z</time></trkpt><trkpt lat="40.5390017" lon="15.4649"><ele>328.0</ele><time>2026-04-26T14:48:26.823Z</time></trkpt><trkpt lat="40.539" lon="15.4648033"><ele>328.0</ele><time>2026-04-26T14:48:27.822Z</time></trkpt><trkpt lat="40.5389933" lon="15.4646883"><ele>328.0</ele><time>2026-04-26T14:48:28.823Z</time></trkpt><trkpt lat="40.5389883" lon="15.4645383"><ele>328.0</ele><time>2026-04-26T14:48:29.822Z</time></trkpt><trkpt lat="40.5389817" lon="15.4643733"><ele>328.3333333333333</ele><time>2026-04-26T14:48:30.823Z</time></trkpt><trkpt lat="40.5389733" lon="15.4641633"><ele>328.6666666666667</ele><time>2026-04-26T14:48:31.823Z</time></trkpt><trkpt lat="40.5389717" lon="15.4639333"><ele>329.0</ele><time>2026-04-26T14:48:32.823Z</time></trkpt><trkpt lat="40.5389867" lon="15.4636867"><ele>326.6666666666667</ele><time>2026-04-26T14:48:33.823Z</time></trkpt><trkpt lat="40.5390317" lon="15.463425"><ele>324.3333333333333</ele><time>2026-04-26T14:48:34.822Z</time></trkpt><trkpt lat="40.5390917" lon="15.463165"><ele>322.0</ele><time>2026-04-26T14:48:35.823Z</time></trkpt><trkpt lat="40.5391483" lon="15.4629117"><ele>317.66666666666663</ele><time>2026-04-26T14:48:36.823Z</time></trkpt><trkpt lat="40.5391983" lon="15.4626683"><ele>313.3333333333333</ele><time>2026-04-26T14:48:37.823Z</time></trkpt><trkpt lat="40.53924" lon="15.462445"><ele>309.0</ele><time>2026-04-26T14:48:38.822Z</time></trkpt><trkpt lat="40.539275" lon="15.4622283"><ele>307.0</ele><time>2026-04-26T14:48:39.823Z</time></trkpt><trkpt lat="40.5393133" lon="15.462025"><ele>305.0</ele><time>2026-04-26T14:48:40.822Z</time></trkpt><trkpt lat="40.53936" lon="15.4618233"><ele>303.0</ele><time>2026-04-26T14:48:41.823Z</time></trkpt><trkpt lat="40.5393933" lon="15.461635"><ele>303.0</ele><time>2026-04-26T14:48:42.822Z</time></trkpt><trkpt lat="40.5394117" lon="15.46145"><ele>303.0</ele><time>2026-04-26T14:48:43.822Z</time></trkpt><trkpt lat="40.5393983" lon="15.4612283"><ele>303.0</ele><time>2026-04-26T14:48:44.823Z</time></trkpt><trkpt lat="40.5393817" lon="15.4609733"><ele>300.3333333333333</ele><time>2026-04-26T14:48:45.823Z</time></trkpt><trkpt lat="40.5393533" lon="15.4606867"><ele>297.66666666666663</ele><time>2026-04-26T14:48:46.822Z</time></trkpt><trkpt lat="40.5393183" lon="15.4604"><ele>295.0</ele><time>2026-04-26T14:48:47.823Z</time></trkpt><trkpt lat="40.5392817" lon="15.46013"><ele>294.66666666666663</ele><time>2026-04-26T14:48:48.822Z</time></trkpt><trkpt lat="40.5392567" lon="15.459875"><ele>294.3333333333333</ele><time>2026-04-26T14:48:49.823Z</time></trkpt><trkpt lat="40.5392317" lon="15.4596267"><ele>294.0</ele><time>2026-04-26T14:48:50.823Z</time></trkpt><trkpt lat="40.539205" lon="15.4593833"><ele>293.5</ele><time>2026-04-26T14:48:51.823Z</time></trkpt><trkpt lat="40.53918" lon="15.4591583"><ele>293.0</ele><time>2026-04-26T14:48:52.823Z</time></trkpt><trkpt lat="40.5391567" lon="15.4589633"><ele>292.5</ele><time>2026-04-26T14:48:53.823Z</time></trkpt><trkpt lat="40.5391267" lon="15.4588167"><ele>292.0</ele><time>2026-04-26T14:48:54.822Z</time></trkpt><trkpt lat="40.5390833" lon="15.45869"><ele>292.0</ele><time>2026-04-26T14:48:55.823Z</time></trkpt><trkpt lat="40.539005" lon="15.4585417"><ele>292.0</ele><time>2026-04-26T14:48:56.823Z</time></trkpt><trkpt lat="40.5389317" lon="15.4583683"><ele>292.0</ele><time>2026-04-26T14:48:57.822Z</time></trkpt><trkpt lat="40.5388883" lon="15.4581633"><ele>292.0</ele><time>2026-04-26T14:48:58.823Z</time></trkpt><trkpt lat="40.5388733" lon="15.45797"><ele>292.0</ele><time>2026-04-26T14:48:59.822Z</time></trkpt><trkpt lat="40.5388683" lon="15.4577833"><ele>292.0</ele><time>2026-04-26T14:49:00.823Z</time></trkpt><trkpt lat="40.5388633" lon="15.4576033"><ele>292.0</ele><time>2026-04-26T14:49:01.822Z</time></trkpt><trkpt lat="40.53887" lon="15.4574333"><ele>291.5</ele><time>2026-04-26T14:49:02.822Z</time></trkpt><trkpt lat="40.538885" lon="15.4572717"><ele>291.0</ele><time>2026-04-26T14:49:03.822Z</time></trkpt><trkpt lat="40.5389" lon="15.4571133"><ele>290.5</ele><time>2026-04-26T14:49:04.822Z</time></trkpt><trkpt lat="40.538915" lon="15.45696"><ele>290.0</ele><time>2026-04-26T14:49:05.822Z</time></trkpt><trkpt lat="40.5389283" lon="15.4568067"><ele>286.5</ele><time>2026-04-26T14:49:06.823Z</time></trkpt><trkpt lat="40.5389467" lon="15.4566467"><ele>283.0</ele><time>2026-04-26T14:49:07.822Z</time></trkpt><trkpt lat="40.5389767" lon="15.4564767"><ele>279.5</ele><time>2026-04-26T14:49:08.823Z</time></trkpt><trkpt lat="40.5390033" lon="15.456295"><ele>276.0</ele><time>2026-04-26T14:49:09.823Z</time></trkpt><trkpt lat="40.53903" lon="15.4561117"><ele>272.5</ele><time>2026-04-26T14:49:10.822Z</time></trkpt><trkpt lat="40.539055" lon="15.4559367"><ele>269.0</ele><time>2026-04-26T14:49:11.822Z</time></trkpt><trkpt lat="40.5390817" lon="15.45577"><ele>265.5</ele><time>2026-04-26T14:49:12.823Z</time></trkpt><trkpt lat="40.5391067" lon="15.4556133"><ele>262.0</ele><time>2026-04-26T14:49:13.822Z</time></trkpt><trkpt lat="40.5391283" lon="15.4554733"><ele>259.2</ele><time>2026-04-26T14:49:14.823Z</time></trkpt><trkpt lat="40.53915" lon="15.45534"><ele>256.4</ele><time>2026-04-26T14:49:15.823Z</time></trkpt><trkpt lat="40.5391683" lon="15.45521"><ele>253.60000000000002</ele><time>2026-04-26T14:49:16.823Z</time></trkpt><trkpt lat="40.5391833" lon="15.455075"><ele>250.8</ele><time>2026-04-26T14:49:17.822Z</time></trkpt><trkpt lat="40.5391983" lon="15.4549367"><ele>248.0</ele><time>2026-04-26T14:49:18.823Z</time></trkpt><trkpt lat="40.5392083" lon="15.454785"><ele>248.0</ele><time>2026-04-26T14:49:19.823Z</time></trkpt><trkpt lat="40.53922" lon="15.4546367"><ele>248.0</ele><time>2026-04-26T14:49:20.823Z</time></trkpt><trkpt lat="40.53923" lon="15.4545"><ele>248.0</ele><time>2026-04-26T14:49:21.823Z</time></trkpt><trkpt lat="40.5392417" lon="15.454375"><ele>248.0</ele><time>2026-04-26T14:49:22.822Z</time></trkpt><trkpt lat="40.5392667" lon="15.45426"><ele>248.0</ele><time>2026-04-26T14:49:23.823Z</time></trkpt><trkpt lat="40.5392933" lon="15.4541567"><ele>245.66666666666669</ele><time>2026-04-26T14:49:24.823Z</time></trkpt><trkpt lat="40.539325" lon="15.45407"><ele>243.33333333333334</ele><time>2026-04-26T14:49:25.822Z</time></trkpt><trkpt lat="40.5393517" lon="15.4539833"><ele>241.0</ele><time>2026-04-26T14:49:26.823Z</time></trkpt><trkpt lat="40.5393633" lon="15.4538983"><ele>238.66666666666669</ele><time>2026-04-26T14:49:27.823Z</time></trkpt><trkpt lat="40.5393667" lon="15.453745"><ele>236.33333333333334</ele><time>2026-04-26T14:49:29.822Z</time></trkpt><trkpt lat="40.5393217" lon="15.4536267"><ele>234.0</ele><time>2026-04-26T14:49:31.822Z</time></trkpt><trkpt lat="40.53926" lon="15.4535633"><ele>234.0</ele><time>2026-04-26T14:49:34.822Z</time></trkpt><trkpt lat="40.5391567" lon="15.4536333"><ele>233.99999999999997</ele><time>2026-04-26T14:49:38.822Z</time></trkpt><trkpt lat="40.539095" lon="15.4537233"><ele>233.99999999999997</ele><time>2026-04-26T14:49:39.822Z</time></trkpt><trkpt lat="40.5390217" lon="15.453825"><ele>234.0</ele><time>2026-04-26T14:49:40.822Z</time></trkpt><trkpt lat="40.5389367" lon="15.453945"><ele>234.0</ele><time>2026-04-26T14:49:41.823Z</time></trkpt><trkpt lat="40.5388417" lon="15.45407"><ele>234.0</ele><time>2026-04-26T14:49:42.822Z</time></trkpt><trkpt lat="40.5387683" lon="15.454195"><ele>234.0</ele><time>2026-04-26T14:49:43.822Z</time></trkpt><trkpt lat="40.5387067" lon="15.454325"><ele>234.0</ele><time>2026-04-26T14:49:44.822Z</time></trkpt><trkpt lat="40.538655" lon="15.454465"><ele>234.0</ele><time>2026-04-26T14:49:45.822Z</time></trkpt><trkpt lat="40.5386117" lon="15.4546117"><ele>232.39999999999998</ele><time>2026-04-26T14:49:46.823Z</time></trkpt><trkpt lat="40.53857" lon="15.45476"><ele>230.79999999999998</ele><time>2026-04-26T14:49:47.823Z</time></trkpt><trkpt lat="40.5385383" lon="15.45489"><ele>229.20000000000002</ele><time>2026-04-26T14:49:48.823Z</time></trkpt><trkpt lat="40.53851" lon="15.45499"><ele>227.60000000000002</ele><time>2026-04-26T14:49:49.823Z</time></trkpt><trkpt lat="40.538475" lon="15.45506"><ele>226.0</ele><time>2026-04-26T14:49:50.822Z</time></trkpt><trkpt lat="40.5383767" lon="15.45512"><ele>226.0</ele><time>2026-04-26T14:49:52.822Z</time></trkpt><trkpt lat="40.5382767" lon="15.4550917"><ele>226.00000000000003</ele><time>2026-04-26T14:49:54.823Z</time></trkpt><trkpt lat="40.53817" lon="15.45506"><ele>226.00000000000003</ele><time>2026-04-26T14:49:56.822Z</time></trkpt><trkpt lat="40.538065" lon="15.4550283"><ele>226.0</ele><time>2026-04-26T14:49:58.823Z</time></trkpt><trkpt lat="40.53799" lon="15.45497"><ele>226.0</ele><time>2026-04-26T14:50:00.823Z</time></trkpt><trkpt lat="40.5379467" lon="15.454905"><ele>225.99999999999997</ele><time>2026-04-26T14:50:02.823Z</time></trkpt><trkpt lat="40.5378917" lon="15.4547533"><ele>226.0</ele><time>2026-04-26T14:50:04.823Z</time></trkpt><trkpt lat="40.5378583" lon="15.4546533"><ele>226.0</ele><time>2026-04-26T14:50:05.822Z</time></trkpt><trkpt lat="40.5378233" lon="15.4545617"><ele>226.0</ele><time>2026-04-26T14:50:06.822Z</time></trkpt><trkpt lat="40.53779" lon="15.454475"><ele>225.99999999999997</ele><time>2026-04-26T14:50:07.823Z</time></trkpt><trkpt lat="40.5377483" lon="15.4543983"><ele>226.0</ele><time>2026-04-26T14:50:08.823Z</time></trkpt><trkpt lat="40.5377017" lon="15.4543333"><ele>226.0</ele><time>2026-04-26T14:50:09.822Z</time></trkpt><trkpt lat="40.5376433" lon="15.4542767"><ele>226.0</ele><time>2026-04-26T14:50:10.822Z</time></trkpt><trkpt lat="40.5375817" lon="15.4542217"><ele>226.0</ele><time>2026-04-26T14:50:11.822Z</time></trkpt><trkpt lat="40.5375233" lon="15.4541633"><ele>226.0</ele><time>2026-04-26T14:50:12.823Z</time></trkpt><trkpt lat="40.5374633" lon="15.4541183"><ele>226.0</ele><time>2026-04-26T14:50:13.822Z</time></trkpt><trkpt lat="40.5373917" lon="15.4540967"><ele>226.0</ele><time>2026-04-26T14:50:14.822Z</time></trkpt><trkpt lat="40.5373233" lon="15.4541067"><ele>226.0</ele><time>2026-04-26T14:50:15.823Z</time></trkpt><trkpt lat="40.5372133" lon="15.4541533"><ele>225.99999999999997</ele><time>2026-04-26T14:50:17.823Z</time></trkpt><trkpt lat="40.5371383" lon="15.45419"><ele>226.0</ele><time>2026-04-26T14:50:20.823Z</time></trkpt><trkpt lat="40.53707" lon="15.4542467"><ele>226.0</ele><time>2026-04-26T14:50:37.822Z</time></trkpt><trkpt lat="40.5370233" lon="15.4541383"><ele>226.0</ele><time>2026-04-26T14:51:23.822Z</time></trkpt><trkpt lat="40.5369583" lon="15.4540633"><ele>225.99999999999997</ele><time>2026-04-26T14:51:25.823Z</time></trkpt><trkpt lat="40.5369633" lon="15.4539417"><ele>226.0</ele><time>2026-04-26T14:51:27.822Z</time></trkpt><trkpt lat="40.5370217" lon="15.453795"><ele>225.16666666666666</ele><time>2026-04-26T14:51:29.822Z</time></trkpt><trkpt lat="40.5370483" lon="15.4537133"><ele>224.33333333333331</ele><time>2026-04-26T14:51:30.823Z</time></trkpt><trkpt lat="40.5370717" lon="15.453625"><ele>223.5</ele><time>2026-04-26T14:51:31.822Z</time></trkpt><trkpt lat="40.5370867" lon="15.4535333"><ele>222.66666666666669</ele><time>2026-04-26T14:51:32.821Z</time></trkpt><trkpt lat="40.5371017" lon="15.4533883"><ele>221.83333333333334</ele><time>2026-04-26T14:51:34.822Z</time></trkpt><trkpt lat="40.5370883" lon="15.4532833"><ele>221.0</ele><time>2026-04-26T14:51:36.822Z</time></trkpt><trkpt lat="40.53706" lon="15.4531883"><ele>226.0</ele><time>2026-04-26T14:51:40.821Z</time></trkpt><trkpt lat="40.537015" lon="15.4530783"><ele>231.00000000000003</ele><time>2026-04-26T14:51:43.822Z</time></trkpt><trkpt lat="40.5369817" lon="15.453005"><ele>236.00000000000003</ele><time>2026-04-26T14:51:45.821Z</time></trkpt><trkpt lat="40.5368767" lon="15.4529583"><ele>241.0</ele><time>2026-04-26T14:53:05.821Z</time></trkpt><trkpt lat="40.5369383" lon="15.4530383"><ele>246.0</ele><time>2026-04-26T14:53:09.822Z</time></trkpt><trkpt lat="40.5370317" lon="15.453"><ele>241.66666666666666</ele><time>2026-04-26T14:53:11.821Z</time></trkpt><trkpt lat="40.5371067" lon="15.4529033"><ele>237.33333333333331</ele><time>2026-04-26T14:53:13.822Z</time></trkpt><trkpt lat="40.5371333" lon="15.4527783"><ele>233.0</ele><time>2026-04-26T14:53:15.822Z</time></trkpt><trkpt lat="40.537125" lon="15.4526617"><ele>228.66666666666666</ele><time>2026-04-26T14:53:17.821Z</time></trkpt><trkpt lat="40.5371" lon="15.45257"><ele>224.33333333333331</ele><time>2026-04-26T14:53:20.822Z</time></trkpt><trkpt lat="40.5370783" lon="15.4524767"><ele>220.0</ele><time>2026-04-26T14:53:24.821Z</time></trkpt><trkpt lat="40.5370633" lon="15.4523883"><ele>225.2</ele><time>2026-04-26T14:53:26.822Z</time></trkpt><trkpt lat="40.5370217" lon="15.4522817"><ele>230.4</ele><time>2026-04-26T14:53:28.821Z</time></trkpt><trkpt lat="40.53698" lon="15.4521667"><ele>235.60000000000002</ele><time>2026-04-26T14:53:30.821Z</time></trkpt><trkpt lat="40.5369283" lon="15.45205"><ele>240.8</ele><time>2026-04-26T14:53:32.821Z</time></trkpt><trkpt lat="40.536875" lon="15.4519183"><ele>246.0</ele><time>2026-04-26T14:53:34.821Z</time></trkpt><trkpt lat="40.536825" lon="15.4517833"><ele>246.33333333333334</ele><time>2026-04-26T14:53:36.821Z</time></trkpt><trkpt lat="40.536785" lon="15.45169"><ele>246.66666666666669</ele><time>2026-04-26T14:53:38.821Z</time></trkpt><trkpt lat="40.5367633" lon="15.451605"><ele>247.0</ele><time>2026-04-26T14:53:41.821Z</time></trkpt><trkpt lat="40.53681" lon="15.45172"><ele>247.33333333333334</ele><time>2026-04-26T14:55:21.822Z</time></trkpt><trkpt lat="40.5368633" lon="15.4518533"><ele>247.66666666666669</ele><time>2026-04-26T14:55:23.822Z</time></trkpt><trkpt lat="40.536895" lon="15.4519267"><ele>248.0</ele><time>2026-04-26T14:55:24.821Z</time></trkpt><trkpt lat="40.5369267" lon="15.4520017"><ele>248.00000000000003</ele><time>2026-04-26T14:55:25.822Z</time></trkpt><trkpt lat="40.5369633" lon="15.452075"><ele>248.0</ele><time>2026-04-26T14:55:26.822Z</time></trkpt><trkpt lat="40.5369933" lon="15.4521533"><ele>248.0</ele><time>2026-04-26T14:55:27.821Z</time></trkpt><trkpt lat="40.537025" lon="15.4522367"><ele>248.0</ele><time>2026-04-26T14:55:28.822Z</time></trkpt><trkpt lat="40.5370567" lon="15.4523133"><ele>248.00000000000003</ele><time>2026-04-26T14:55:29.821Z</time></trkpt><trkpt lat="40.537095" lon="15.45247"><ele>248.0</ele><time>2026-04-26T14:55:31.822Z</time></trkpt><trkpt lat="40.5371183" lon="15.4525883"><ele>247.71428571428572</ele><time>2026-04-26T14:55:33.821Z</time></trkpt><trkpt lat="40.5371367" lon="15.4526883"><ele>247.42857142857144</ele><time>2026-04-26T14:55:37.822Z</time></trkpt><trkpt lat="40.5371317" lon="15.4527917"><ele>247.14285714285717</ele><time>2026-04-26T14:55:40.821Z</time></trkpt><trkpt lat="40.5371133" lon="15.4528767"><ele>246.8571428571429</ele><time>2026-04-26T14:55:42.822Z</time></trkpt><trkpt lat="40.5370667" lon="15.4529433"><ele>246.57142857142858</ele><time>2026-04-26T14:55:44.822Z</time></trkpt><trkpt lat="40.53702" lon="15.453"><ele>246.28571428571433</ele><time>2026-04-26T14:55:46.821Z</time></trkpt><trkpt lat="40.5370083" lon="15.45311"><ele>246.00000000000003</ele><time>2026-04-26T14:55:49.821Z</time></trkpt><trkpt lat="40.537045" lon="15.4531917"><ele>246.0</ele><time>2026-04-26T14:55:51.822Z</time></trkpt><trkpt lat="40.5370867" lon="15.453295"><ele>246.0</ele><time>2026-04-26T14:55:53.822Z</time></trkpt><trkpt lat="40.5370983" lon="15.4534"><ele>246.0</ele><time>2026-04-26T14:55:55.821Z</time></trkpt><trkpt lat="40.5370883" lon="15.4535067"><ele>246.0</ele><time>2026-04-26T14:55:57.822Z</time></trkpt><trkpt lat="40.537055" lon="15.45361"><ele>246.0</ele><time>2026-04-26T14:55:59.821Z</time></trkpt><trkpt lat="40.5370283" lon="15.4537167"><ele>246.0</ele><time>2026-04-26T14:56:01.822Z</time></trkpt><trkpt lat="40.5369967" lon="15.4538133"><ele>247.0</ele><time>2026-04-26T14:56:03.821Z</time></trkpt><trkpt lat="40.5369667" lon="15.4539067"><ele>248.0</ele><time>2026-04-26T14:56:05.821Z</time></trkpt><trkpt lat="40.5369383" lon="15.4539933"><ele>249.0</ele><time>2026-04-26T14:56:07.821Z</time></trkpt><trkpt lat="40.5369433" lon="15.4541017"><ele>250.0</ele><time>2026-04-26T14:56:10.821Z</time></trkpt><trkpt lat="40.5370067" lon="15.4541767"><ele>251.0</ele><time>2026-04-26T14:56:13.822Z</time></trkpt><trkpt lat="40.5370467" lon="15.4542583"><ele>252.0</ele><time>2026-04-26T14:56:16.821Z</time></trkpt><trkpt lat="40.5370317" lon="15.45435"><ele>252.0</ele><time>2026-04-26T14:56:40.822Z</time></trkpt><trkpt lat="40.5370067" lon="15.4544317"><ele>252.0</ele><time>2026-04-26T14:56:42.821Z</time></trkpt><trkpt lat="40.536975" lon="15.4545067"><ele>252.0</ele><time>2026-04-26T14:56:45.822Z</time></trkpt><trkpt lat="40.536955" lon="15.4546017"><ele>252.0</ele><time>2026-04-26T14:56:50.822Z</time></trkpt><trkpt lat="40.537025" lon="15.454635"><ele>252.0</ele><time>2026-04-26T14:57:05.821Z</time></trkpt><trkpt lat="40.5370583" lon="15.4545133"><ele>252.0</ele><time>2026-04-26T14:57:08.822Z</time></trkpt><trkpt lat="40.537055" lon="15.4544233"><ele>252.0</ele><time>2026-04-26T14:57:10.821Z</time></trkpt><trkpt lat="40.5370433" lon="15.45433"><ele>249.66666666666666</ele><time>2026-04-26T14:57:13.822Z</time></trkpt><trkpt lat="40.5370667" lon="15.45425"><ele>247.33333333333331</ele><time>2026-04-26T14:57:16.822Z</time></trkpt><trkpt lat="40.5371133" lon="15.45432"><ele>245.0</ele><time>2026-04-26T14:57:21.821Z</time></trkpt><trkpt lat="40.53711" lon="15.4544183"><ele>242.66666666666666</ele><time>2026-04-26T14:57:23.82Z</time></trkpt><trkpt lat="40.5371033" lon="15.4545217"><ele>240.33333333333331</ele><time>2026-04-26T14:57:25.82Z</time></trkpt><trkpt lat="40.537105" lon="15.4546233"><ele>238.0</ele><time>2026-04-26T14:57:27.821Z</time></trkpt><trkpt lat="40.5371167" lon="15.4547417"><ele>237.99999999999997</ele><time>2026-04-26T14:57:29.821Z</time></trkpt><trkpt lat="40.5371433" lon="15.4548417"><ele>238.0</ele><time>2026-04-26T14:57:31.821Z</time></trkpt><trkpt lat="40.5371917" lon="15.4549383"><ele>238.0</ele><time>2026-04-26T14:57:33.821Z</time></trkpt><trkpt lat="40.5372567" lon="15.4550017"><ele>238.0</ele><time>2026-04-26T14:57:35.82Z</time></trkpt><trkpt lat="40.5373233" lon="15.4550483"><ele>237.99999999999997</ele><time>2026-04-26T14:57:37.82Z</time></trkpt><trkpt lat="40.537375" lon="15.4551067"><ele>238.0</ele><time>2026-04-26T14:57:39.821Z</time></trkpt><trkpt lat="40.5374083" lon="15.4551883"><ele>237.99999999999997</ele><time>2026-04-26T14:57:41.82Z</time></trkpt><trkpt lat="40.53742" lon="15.4553083"><ele>238.0</ele><time>2026-04-26T14:57:44.821Z</time></trkpt><trkpt lat="40.5374267" lon="15.455425"><ele>238.0</ele><time>2026-04-26T14:57:47.82Z</time></trkpt><trkpt lat="40.537435" lon="15.4555167"><ele>238.0</ele><time>2026-04-26T14:57:50.821Z</time></trkpt><trkpt lat="40.53749" lon="15.4556083"><ele>237.99999999999997</ele><time>2026-04-26T14:57:53.82Z</time></trkpt><trkpt lat="40.5375167" lon="15.4556933"><ele>238.0</ele><time>2026-04-26T15:01:23.82Z</time></trkpt><trkpt lat="40.53758" lon="15.4557867"><ele>237.99999999999997</ele><time>2026-04-26T15:01:25.82Z</time></trkpt><trkpt lat="40.53755" lon="15.45568"><ele>238.0</ele><time>2026-04-26T15:01:42.82Z</time></trkpt><trkpt lat="40.537505" lon="15.4556017"><ele>238.0</ele><time>2026-04-26T15:01:44.82Z</time></trkpt><trkpt lat="40.5374617" lon="15.45553"><ele>238.0</ele><time>2026-04-26T15:01:46.821Z</time></trkpt><trkpt lat="40.537435" lon="15.4554517"><ele>237.99999999999997</ele><time>2026-04-26T15:01:49.821Z</time></trkpt><trkpt lat="40.5374367" lon="15.45533"><ele>238.0</ele><time>2026-04-26T15:01:52.821Z</time></trkpt><trkpt lat="40.5374383" lon="15.4552367"><ele>238.0</ele><time>2026-04-26T15:01:54.82Z</time></trkpt><trkpt lat="40.5374317" lon="15.45515"><ele>238.0</ele><time>2026-04-26T15:01:57.82Z</time></trkpt><trkpt lat="40.5373483" lon="15.4550517"><ele>238.0</ele><time>2026-04-26T15:02:07.821Z</time></trkpt><trkpt lat="40.5372583" lon="15.454985"><ele>238.0</ele><time>2026-04-26T15:02:10.821Z</time></trkpt><trkpt lat="40.5371917" lon="15.4548983"><ele>238.0</ele><time>2026-04-26T15:02:12.82Z</time></trkpt><trkpt lat="40.5371433" lon="15.4547517"><ele>235.60000000000002</ele><time>2026-04-26T15:02:14.82Z</time></trkpt><trkpt lat="40.5371317" lon="15.4545883"><ele>233.20000000000002</ele><time>2026-04-26T15:02:16.821Z</time></trkpt><trkpt lat="40.53713" lon="15.4545017"><ele>230.8</ele><time>2026-04-26T15:02:17.82Z</time></trkpt><trkpt lat="40.5371317" lon="15.4543467"><ele>228.4</ele><time>2026-04-26T15:02:19.82Z</time></trkpt><trkpt lat="40.537205" lon="15.45422"><ele>226.0</ele><time>2026-04-26T15:02:21.821Z</time></trkpt><trkpt lat="40.5372767" lon="15.45417"><ele>225.99999999999997</ele><time>2026-04-26T15:02:22.821Z</time></trkpt><trkpt lat="40.537345" lon="15.4541333"><ele>226.0</ele><time>2026-04-26T15:02:23.82Z</time></trkpt><trkpt lat="40.537415" lon="15.4541283"><ele>226.0</ele><time>2026-04-26T15:02:24.82Z</time></trkpt><trkpt lat="40.5374767" lon="15.4541467"><ele>226.0</ele><time>2026-04-26T15:02:25.82Z</time></trkpt><trkpt lat="40.5375533" lon="15.4542367"><ele>225.99999999999997</ele><time>2026-04-26T15:02:27.821Z</time></trkpt><trkpt lat="40.537615" lon="15.4542767"><ele>226.0</ele><time>2026-04-26T15:05:08.819Z</time></trkpt><trkpt lat="40.537685" lon="15.4543267"><ele>226.0</ele><time>2026-04-26T15:05:10.82Z</time></trkpt><trkpt lat="40.5377533" lon="15.4544267"><ele>226.0</ele><time>2026-04-26T15:05:12.82Z</time></trkpt><trkpt lat="40.5378067" lon="15.4545583"><ele>226.0</ele><time>2026-04-26T15:05:14.819Z</time></trkpt><trkpt lat="40.5378533" lon="15.4547017"><ele>226.0</ele><time>2026-04-26T15:05:16.82Z</time></trkpt><trkpt lat="40.5379133" lon="15.4548467"><ele>225.99999999999997</ele><time>2026-04-26T15:05:18.82Z</time></trkpt><trkpt lat="40.537945" lon="15.45492"><ele>226.0</ele><time>2026-04-26T15:05:19.82Z</time></trkpt><trkpt lat="40.5379867" lon="15.4549917"><ele>226.0</ele><time>2026-04-26T15:05:20.819Z</time></trkpt><trkpt lat="40.53804" lon="15.4550517"><ele>226.0</ele><time>2026-04-26T15:05:21.819Z</time></trkpt><trkpt lat="40.5381" lon="15.455095"><ele>225.99999999999997</ele><time>2026-04-26T15:05:22.82Z</time></trkpt><trkpt lat="40.5382167" lon="15.4551417"><ele>226.0</ele><time>2026-04-26T15:05:24.819Z</time></trkpt><trkpt lat="40.5383333" lon="15.4551717"><ele>226.0</ele><time>2026-04-26T15:05:26.819Z</time></trkpt><trkpt lat="40.5384483" lon="15.4551467"><ele>226.0</ele><time>2026-04-26T15:05:28.819Z</time></trkpt><trkpt lat="40.538525" lon="15.4550317"><ele>226.0</ele><time>2026-04-26T15:05:30.82Z</time></trkpt><trkpt lat="40.5385667" lon="15.4548767"><ele>226.0</ele><time>2026-04-26T15:05:32.819Z</time></trkpt><trkpt lat="40.5386033" lon="15.4547283"><ele>224.8</ele><time>2026-04-26T15:05:34.819Z</time></trkpt><trkpt lat="40.538635" lon="15.4546067"><ele>223.60000000000002</ele><time>2026-04-26T15:05:36.82Z</time></trkpt><trkpt lat="40.5386533" lon="15.4544833"><ele>222.4</ele><time>2026-04-26T15:05:39.819Z</time></trkpt><trkpt lat="40.53869" lon="15.454375"><ele>221.2</ele><time>2026-04-26T15:05:41.82Z</time></trkpt><trkpt lat="40.5387533" lon="15.4542533"><ele>220.0</ele><time>2026-04-26T15:05:43.819Z</time></trkpt><trkpt lat="40.5388183" lon="15.4541283"><ele>221.2</ele><time>2026-04-26T15:05:45.82Z</time></trkpt><trkpt lat="40.5388817" lon="15.4540217"><ele>222.4</ele><time>2026-04-26T15:05:47.819Z</time></trkpt><trkpt lat="40.53895" lon="15.4539167"><ele>223.60000000000002</ele><time>2026-04-26T15:05:49.819Z</time></trkpt><trkpt lat="40.5390183" lon="15.45382"><ele>224.8</ele><time>2026-04-26T15:05:51.82Z</time></trkpt><trkpt lat="40.539095" lon="15.4537283"><ele>226.0</ele><time>2026-04-26T15:05:53.819Z</time></trkpt><trkpt lat="40.5391683" lon="15.4536517"><ele>225.99999999999997</ele><time>2026-04-26T15:05:55.82Z</time></trkpt><trkpt lat="40.5392167" lon="15.4535933"><ele>226.0</ele><time>2026-04-26T15:05:57.82Z</time></trkpt><trkpt lat="40.539225" lon="15.4535067"><ele>226.0</ele><time>2026-04-26T15:06:01.819Z</time></trkpt><trkpt lat="40.5391717" lon="15.453405"><ele>226.0</ele><time>2026-04-26T15:06:03.82Z</time></trkpt><trkpt lat="40.5390717" lon="15.4532967"><ele>225.99999999999997</ele><time>2026-04-26T15:06:05.82Z</time></trkpt><trkpt lat="40.5390133" lon="15.4532383"><ele>226.0</ele><time>2026-04-26T15:06:06.82Z</time></trkpt><trkpt lat="40.5389567" lon="15.4531717"><ele>225.99999999999997</ele><time>2026-04-26T15:06:07.82Z</time></trkpt><trkpt lat="40.538905" lon="15.4531067"><ele>226.0</ele><time>2026-04-26T15:06:08.82Z</time></trkpt><trkpt lat="40.5388533" lon="15.45305"><ele>226.0</ele><time>2026-04-26T15:06:09.82Z</time></trkpt><trkpt lat="40.5388033" lon="15.4529917"><ele>226.0</ele><time>2026-04-26T15:06:10.819Z</time></trkpt><trkpt lat="40.5387533" lon="15.452935"><ele>225.99999999999997</ele><time>2026-04-26T15:06:11.82Z</time></trkpt><trkpt lat="40.538705" lon="15.45288"><ele>226.0</ele><time>2026-04-26T15:06:12.819Z</time></trkpt><trkpt lat="40.5386217" lon="15.452775"><ele>225.16666666666666</ele><time>2026-04-26T15:06:14.82Z</time></trkpt><trkpt lat="40.5385767" lon="15.452715"><ele>224.33333333333331</ele><time>2026-04-26T15:06:15.819Z</time></trkpt><trkpt lat="40.5384967" lon="15.4525733"><ele>223.5</ele><time>2026-04-26T15:06:17.819Z</time></trkpt><trkpt lat="40.5384583" lon="15.4524967"><ele>222.66666666666669</ele><time>2026-04-26T15:06:18.819Z</time></trkpt><trkpt lat="40.5384217" lon="15.4524117"><ele>221.83333333333334</ele><time>2026-04-26T15:06:19.819Z</time></trkpt><trkpt lat="40.5383883" lon="15.4523167"><ele>221.0</ele><time>2026-04-26T15:06:20.819Z</time></trkpt><trkpt lat="40.5383583" lon="15.4522217"><ele>221.00000000000003</ele><time>2026-04-26T15:06:21.819Z</time></trkpt><trkpt lat="40.5383283" lon="15.4521333"><ele>221.0</ele><time>2026-04-26T15:06:22.819Z</time></trkpt><trkpt lat="40.5382967" lon="15.4520383"><ele>221.0</ele><time>2026-04-26T15:06:23.819Z</time></trkpt><trkpt lat="40.53826" lon="15.45194"><ele>221.0</ele><time>2026-04-26T15:06:24.819Z</time></trkpt><trkpt lat="40.5382367" lon="15.451835"><ele>221.00000000000003</ele><time>2026-04-26T15:06:25.819Z</time></trkpt><trkpt lat="40.53823" lon="15.451725"><ele>221.0</ele><time>2026-04-26T15:06:26.82Z</time></trkpt><trkpt lat="40.5382483" lon="15.4516167"><ele>221.00000000000003</ele><time>2026-04-26T15:06:27.82Z</time></trkpt><trkpt lat="40.5382883" lon="15.451515"><ele>221.0</ele><time>2026-04-26T15:06:28.819Z</time></trkpt><trkpt lat="40.53833" lon="15.4514067"><ele>221.0</ele><time>2026-04-26T15:06:29.82Z</time></trkpt><trkpt lat="40.5383717" lon="15.4513117"><ele>221.0</ele><time>2026-04-26T15:06:30.819Z</time></trkpt><trkpt lat="40.5384117" lon="15.4512183"><ele>221.00000000000003</ele><time>2026-04-26T15:06:31.819Z</time></trkpt><trkpt lat="40.5384483" lon="15.451115"><ele>221.0</ele><time>2026-04-26T15:06:32.819Z</time></trkpt><trkpt lat="40.5384867" lon="15.4510117"><ele>220.8</ele><time>2026-04-26T15:06:33.819Z</time></trkpt><trkpt lat="40.5385217" lon="15.450895"><ele>220.60000000000002</ele><time>2026-04-26T15:06:34.819Z</time></trkpt><trkpt lat="40.5385583" lon="15.4507767"><ele>220.4</ele><time>2026-04-26T15:06:35.819Z</time></trkpt><trkpt lat="40.53859" lon="15.4506483"><ele>220.2</ele><time>2026-04-26T15:06:36.82Z</time></trkpt><trkpt lat="40.5386183" lon="15.45051"><ele>220.0</ele><time>2026-04-26T15:06:37.82Z</time></trkpt><trkpt lat="40.53865" lon="15.4503733"><ele>219.4</ele><time>2026-04-26T15:06:38.82Z</time></trkpt><trkpt lat="40.5386833" lon="15.4502317"><ele>218.8</ele><time>2026-04-26T15:06:39.82Z</time></trkpt><trkpt lat="40.5387167" lon="15.4500967"><ele>218.2</ele><time>2026-04-26T15:06:40.819Z</time></trkpt><trkpt lat="40.538755" lon="15.4499617"><ele>217.6</ele><time>2026-04-26T15:06:41.819Z</time></trkpt><trkpt lat="40.5387983" lon="15.4498367"><ele>217.0</ele><time>2026-04-26T15:06:42.819Z</time></trkpt><trkpt lat="40.5388617" lon="15.4497117"><ele>219.5</ele><time>2026-04-26T15:06:43.819Z</time></trkpt><trkpt lat="40.5389467" lon="15.449585"><ele>222.0</ele><time>2026-04-26T15:06:44.82Z</time></trkpt><trkpt lat="40.5390433" lon="15.4494767"><ele>224.5</ele><time>2026-04-26T15:06:45.82Z</time></trkpt><trkpt lat="40.539145" lon="15.449375"><ele>227.0</ele><time>2026-04-26T15:06:46.82Z</time></trkpt><trkpt lat="40.5392367" lon="15.4492817"><ele>227.0</ele><time>2026-04-26T15:06:47.819Z</time></trkpt><trkpt lat="40.539325" lon="15.4491917"><ele>227.0</ele><time>2026-04-26T15:06:48.82Z</time></trkpt><trkpt lat="40.5394067" lon="15.449105"><ele>227.0</ele><time>2026-04-26T15:06:49.819Z</time></trkpt><trkpt lat="40.539475" lon="15.4490233"><ele>227.0</ele><time>2026-04-26T15:06:50.819Z</time></trkpt><trkpt lat="40.5395267" lon="15.4489317"><ele>227.0</ele><time>2026-04-26T15:06:51.819Z</time></trkpt><trkpt lat="40.539555" lon="15.44884"><ele>226.83333333333334</ele><time>2026-04-26T15:06:52.82Z</time></trkpt><trkpt lat="40.53957" lon="15.4487467"><ele>226.66666666666669</ele><time>2026-04-26T15:06:53.819Z</time></trkpt><trkpt lat="40.539575" lon="15.4486533"><ele>226.5</ele><time>2026-04-26T15:06:54.82Z</time></trkpt><trkpt lat="40.5395717" lon="15.4485167"><ele>226.33333333333331</ele><time>2026-04-26T15:06:56.819Z</time></trkpt><trkpt lat="40.5395433" lon="15.44841"><ele>226.16666666666666</ele><time>2026-04-26T15:06:58.819Z</time></trkpt><trkpt lat="40.53948" lon="15.4483217"><ele>226.0</ele><time>2026-04-26T15:07:00.82Z</time></trkpt><trkpt lat="40.539405" lon="15.4482567"><ele>225.99999999999997</ele><time>2026-04-26T15:07:02.819Z</time></trkpt><trkpt lat="40.5393417" lon="15.4482017"><ele>226.0</ele><time>2026-04-26T15:07:04.82Z</time></trkpt><trkpt lat="40.5392783" lon="15.4481367"><ele>226.0</ele><time>2026-04-26T15:07:06.819Z</time></trkpt><trkpt lat="40.5392267" lon="15.4480817"><ele>226.0</ele><time>2026-04-26T15:07:08.82Z</time></trkpt><trkpt lat="40.5391767" lon="15.4480233"><ele>225.99999999999997</ele><time>2026-04-26T15:07:18.819Z</time></trkpt><trkpt lat="40.5390767" lon="15.44794"><ele>226.0</ele><time>2026-04-26T15:07:48.82Z</time></trkpt><trkpt lat="40.5390167" lon="15.4478767"><ele>227.4</ele><time>2026-04-26T15:07:49.819Z</time></trkpt><trkpt lat="40.53894" lon="15.4478067"><ele>228.8</ele><time>2026-04-26T15:07:50.82Z</time></trkpt><trkpt lat="40.5388567" lon="15.4477317"><ele>230.20000000000002</ele><time>2026-04-26T15:07:51.82Z</time></trkpt><trkpt lat="40.53877" lon="15.4476567"><ele>231.60000000000002</ele><time>2026-04-26T15:07:52.819Z</time></trkpt><trkpt lat="40.5386767" lon="15.4475717"><ele>233.0</ele><time>2026-04-26T15:07:53.819Z</time></trkpt><trkpt lat="40.5385817" lon="15.447485"><ele>230.2</ele><time>2026-04-26T15:07:54.819Z</time></trkpt><trkpt lat="40.5384867" lon="15.4474"><ele>227.4</ele><time>2026-04-26T15:07:55.819Z</time></trkpt><trkpt lat="40.5384083" lon="15.4473083"><ele>224.59999999999997</ele><time>2026-04-26T15:07:56.82Z</time></trkpt><trkpt lat="40.53834" lon="15.44721"><ele>221.79999999999998</ele><time>2026-04-26T15:07:57.819Z</time></trkpt><trkpt lat="40.5382833" lon="15.44709"><ele>219.0</ele><time>2026-04-26T15:07:58.82Z</time></trkpt><trkpt lat="40.5382567" lon="15.4469533"><ele>219.0</ele><time>2026-04-26T15:07:59.819Z</time></trkpt><trkpt lat="40.5382483" lon="15.4467833"><ele>219.0</ele><time>2026-04-26T15:08:00.82Z</time></trkpt><trkpt lat="40.53825" lon="15.4465917"><ele>219.0</ele><time>2026-04-26T15:08:01.819Z</time></trkpt><trkpt lat="40.5382567" lon="15.44638"><ele>219.0</ele><time>2026-04-26T15:08:02.819Z</time></trkpt><trkpt lat="40.5382717" lon="15.4461517"><ele>219.0</ele><time>2026-04-26T15:08:03.82Z</time></trkpt><trkpt lat="40.5382783" lon="15.44592"><ele>219.0</ele><time>2026-04-26T15:08:04.819Z</time></trkpt><trkpt lat="40.5382817" lon="15.4456967"><ele>219.0</ele><time>2026-04-26T15:08:05.82Z</time></trkpt><trkpt lat="40.538285" lon="15.445495"><ele>218.25</ele><time>2026-04-26T15:08:06.82Z</time></trkpt><trkpt lat="40.5382933" lon="15.4453"><ele>217.5</ele><time>2026-04-26T15:08:07.819Z</time></trkpt><trkpt lat="40.538305" lon="15.445125"><ele>216.75</ele><time>2026-04-26T15:08:08.819Z</time></trkpt><trkpt lat="40.5383383" lon="15.4449617"><ele>216.0</ele><time>2026-04-26T15:08:09.82Z</time></trkpt><trkpt lat="40.5384133" lon="15.4448333"><ele>216.0</ele><time>2026-04-26T15:08:10.82Z</time></trkpt><trkpt lat="40.538525" lon="15.4447417"><ele>216.0</ele><time>2026-04-26T15:08:11.82Z</time></trkpt><trkpt lat="40.538655" lon="15.4446833"><ele>216.0</ele><time>2026-04-26T15:08:12.82Z</time></trkpt><trkpt lat="40.5387933" lon="15.4446283"><ele>216.0</ele><time>2026-04-26T15:08:13.819Z</time></trkpt><trkpt lat="40.5389367" lon="15.4445683"><ele>215.66666666666669</ele><time>2026-04-26T15:08:14.82Z</time></trkpt><trkpt lat="40.5390817" lon="15.4444917"><ele>215.33333333333334</ele><time>2026-04-26T15:08:15.82Z</time></trkpt><trkpt lat="40.5392267" lon="15.4444267"><ele>215.0</ele><time>2026-04-26T15:08:16.819Z</time></trkpt><trkpt lat="40.5393717" lon="15.4443617"><ele>215.0</ele><time>2026-04-26T15:08:17.819Z</time></trkpt><trkpt lat="40.5395217" lon="15.4442833"><ele>215.0</ele><time>2026-04-26T15:08:18.82Z</time></trkpt><trkpt lat="40.5396767" lon="15.4441933"><ele>215.0</ele><time>2026-04-26T15:08:19.819Z</time></trkpt><trkpt lat="40.539825" lon="15.44408"><ele>215.33333333333334</ele><time>2026-04-26T15:08:20.82Z</time></trkpt><trkpt lat="40.5399633" lon="15.4439533"><ele>215.66666666666669</ele><time>2026-04-26T15:08:21.82Z</time></trkpt><trkpt lat="40.540095" lon="15.4438183"><ele>216.0</ele><time>2026-04-26T15:08:22.82Z</time></trkpt><trkpt lat="40.5402333" lon="15.4436967"><ele>215.66666666666669</ele><time>2026-04-26T15:08:23.82Z</time></trkpt><trkpt lat="40.5403733" lon="15.4435633"><ele>215.33333333333334</ele><time>2026-04-26T15:08:24.819Z</time></trkpt><trkpt lat="40.5405117" lon="15.4434333"><ele>215.0</ele><time>2026-04-26T15:08:25.82Z</time></trkpt><trkpt lat="40.54065" lon="15.4433067"><ele>215.0</ele><time>2026-04-26T15:08:26.819Z</time></trkpt><trkpt lat="40.5407867" lon="15.4431867"><ele>215.0</ele><time>2026-04-26T15:08:27.819Z</time></trkpt><trkpt lat="40.5409317" lon="15.4430567"><ele>215.0</ele><time>2026-04-26T15:08:28.819Z</time></trkpt><trkpt lat="40.5410733" lon="15.4429383"><ele>213.33333333333334</ele><time>2026-04-26T15:08:29.819Z</time></trkpt><trkpt lat="40.54122" lon="15.4428467"><ele>211.66666666666669</ele><time>2026-04-26T15:08:30.82Z</time></trkpt><trkpt lat="40.541385" lon="15.442755"><ele>210.0</ele><time>2026-04-26T15:08:31.82Z</time></trkpt><trkpt lat="40.54156" lon="15.4426633"><ele>210.0</ele><time>2026-04-26T15:08:32.82Z</time></trkpt><trkpt lat="40.5417433" lon="15.4425617"><ele>210.0</ele><time>2026-04-26T15:08:33.819Z</time></trkpt><trkpt lat="40.541935" lon="15.4424483"><ele>210.0</ele><time>2026-04-26T15:08:34.819Z</time></trkpt><trkpt lat="40.54212" lon="15.4423333"><ele>210.0</ele><time>2026-04-26T15:08:35.82Z</time></trkpt><trkpt lat="40.54231" lon="15.4422183"><ele>210.0</ele><time>2026-04-26T15:08:36.82Z</time></trkpt><trkpt lat="40.5425033" lon="15.4421033"><ele>210.0</ele><time>2026-04-26T15:08:37.82Z</time></trkpt><trkpt lat="40.5426933" lon="15.4419933"><ele>210.0</ele><time>2026-04-26T15:08:38.819Z</time></trkpt><trkpt lat="40.5428667" lon="15.4418967"><ele>210.0</ele><time>2026-04-26T15:08:39.82Z</time></trkpt><trkpt lat="40.54302" lon="15.4418033"><ele>210.0</ele><time>2026-04-26T15:08:40.819Z</time></trkpt><trkpt lat="40.5431717" lon="15.4417233"><ele>210.33333333333331</ele><time>2026-04-26T15:08:41.82Z</time></trkpt><trkpt lat="40.54333" lon="15.4416417"><ele>210.66666666666666</ele><time>2026-04-26T15:08:42.82Z</time></trkpt><trkpt lat="40.543495" lon="15.44156"><ele>211.0</ele><time>2026-04-26T15:08:43.82Z</time></trkpt><trkpt lat="40.5436617" lon="15.4414867"><ele>211.33333333333331</ele><time>2026-04-26T15:08:44.819Z</time></trkpt><trkpt lat="40.5438317" lon="15.4414017"><ele>211.66666666666669</ele><time>2026-04-26T15:08:45.82Z</time></trkpt><trkpt lat="40.544005" lon="15.4413117"><ele>212.0</ele><time>2026-04-26T15:08:46.819Z</time></trkpt><trkpt lat="40.544175" lon="15.441195"><ele>212.0</ele><time>2026-04-26T15:08:47.819Z</time></trkpt><trkpt lat="40.544335" lon="15.4410667"><ele>212.0</ele><time>2026-04-26T15:08:48.82Z</time></trkpt><trkpt lat="40.5444867" lon="15.4409183"><ele>212.0</ele><time>2026-04-26T15:08:49.819Z</time></trkpt><trkpt lat="40.5446383" lon="15.44077"><ele>212.0</ele><time>2026-04-26T15:08:50.819Z</time></trkpt><trkpt lat="40.5447883" lon="15.4406217"><ele>212.0</ele><time>2026-04-26T15:08:51.82Z</time></trkpt><trkpt lat="40.544945" lon="15.4404733"><ele>212.0</ele><time>2026-04-26T15:08:52.819Z</time></trkpt><trkpt lat="40.5450967" lon="15.4403283"><ele>212.0</ele><time>2026-04-26T15:08:53.819Z</time></trkpt><trkpt lat="40.545245" lon="15.4401833"><ele>212.0</ele><time>2026-04-26T15:08:54.819Z</time></trkpt><trkpt lat="40.5453933" lon="15.4400383"><ele>212.0</ele><time>2026-04-26T15:08:55.819Z</time></trkpt><trkpt lat="40.5455283" lon="15.4398867"><ele>212.33333333333334</ele><time>2026-04-26T15:08:56.819Z</time></trkpt><trkpt lat="40.54566" lon="15.4397267"><ele>212.66666666666669</ele><time>2026-04-26T15:08:57.819Z</time></trkpt><trkpt lat="40.5457833" lon="15.439565"><ele>213.0</ele><time>2026-04-26T15:08:58.82Z</time></trkpt><trkpt lat="40.54591" lon="15.4394117"><ele>213.0</ele><time>2026-04-26T15:08:59.82Z</time></trkpt><trkpt lat="40.5460433" lon="15.4392667"><ele>213.0</ele><time>2026-04-26T15:09:00.819Z</time></trkpt><trkpt lat="40.54618" lon="15.4391183"><ele>213.0</ele><time>2026-04-26T15:09:01.819Z</time></trkpt><trkpt lat="40.5463167" lon="15.43897"><ele>214.0</ele><time>2026-04-26T15:09:02.819Z</time></trkpt><trkpt lat="40.5464583" lon="15.4388283"><ele>215.0</ele><time>2026-04-26T15:09:03.82Z</time></trkpt><trkpt lat="40.546595" lon="15.4386867"><ele>216.0</ele><time>2026-04-26T15:09:04.819Z</time></trkpt><trkpt lat="40.546735" lon="15.4385617"><ele>215.33333333333331</ele><time>2026-04-26T15:09:05.82Z</time></trkpt><trkpt lat="40.546885" lon="15.4384483"><ele>214.66666666666666</ele><time>2026-04-26T15:09:06.82Z</time></trkpt><trkpt lat="40.5470467" lon="15.438345"><ele>214.0</ele><time>2026-04-26T15:09:07.82Z</time></trkpt><trkpt lat="40.5472083" lon="15.4382667"><ele>214.0</ele><time>2026-04-26T15:09:08.819Z</time></trkpt><trkpt lat="40.5473717" lon="15.4382233"><ele>214.0</ele><time>2026-04-26T15:09:09.819Z</time></trkpt><trkpt lat="40.5475383" lon="15.4382367"><ele>214.0</ele><time>2026-04-26T15:09:10.82Z</time></trkpt><trkpt lat="40.5477033" lon="15.438265"><ele>214.0</ele><time>2026-04-26T15:09:11.819Z</time></trkpt><trkpt lat="40.54787" lon="15.4383033"><ele>214.0</ele><time>2026-04-26T15:09:12.819Z</time></trkpt><trkpt lat="40.5480367" lon="15.4383333"><ele>214.0</ele><time>2026-04-26T15:09:13.819Z</time></trkpt><trkpt lat="40.5482033" lon="15.4383633"><ele>213.33333333333331</ele><time>2026-04-26T15:09:14.818Z</time></trkpt><trkpt lat="40.5483817" lon="15.438415"><ele>212.66666666666669</ele><time>2026-04-26T15:09:15.818Z</time></trkpt><trkpt lat="40.5485467" lon="15.4384733"><ele>212.0</ele><time>2026-04-26T15:09:16.818Z</time></trkpt><trkpt lat="40.5487167" lon="15.43853"><ele>212.0</ele><time>2026-04-26T15:09:17.819Z</time></trkpt><trkpt lat="40.548895" lon="15.4385533"><ele>212.0</ele><time>2026-04-26T15:09:18.818Z</time></trkpt><trkpt lat="40.5490767" lon="15.438555"><ele>212.0</ele><time>2026-04-26T15:09:19.819Z</time></trkpt><trkpt lat="40.5492633" lon="15.43854"><ele>212.0</ele><time>2026-04-26T15:09:20.818Z</time></trkpt><trkpt lat="40.5494483" lon="15.4385283"><ele>212.0</ele><time>2026-04-26T15:09:21.819Z</time></trkpt><trkpt lat="40.5496317" lon="15.4385233"><ele>212.0</ele><time>2026-04-26T15:09:22.818Z</time></trkpt><trkpt lat="40.5498033" lon="15.4385267"><ele>213.0</ele><time>2026-04-26T15:09:23.819Z</time></trkpt><trkpt lat="40.5499667" lon="15.4385167"><ele>214.0</ele><time>2026-04-26T15:09:24.818Z</time></trkpt><trkpt lat="40.550115" lon="15.43849"><ele>215.0</ele><time>2026-04-26T15:09:25.819Z</time></trkpt><trkpt lat="40.5502483" lon="15.4384233"><ele>215.0</ele><time>2026-04-26T15:09:26.819Z</time></trkpt><trkpt lat="40.55036" lon="15.4383033"><ele>215.0</ele><time>2026-04-26T15:09:27.818Z</time></trkpt><trkpt lat="40.5504717" lon="15.43816"><ele>215.0</ele><time>2026-04-26T15:09:28.819Z</time></trkpt><trkpt lat="40.5505883" lon="15.43801"><ele>214.66666666666669</ele><time>2026-04-26T15:09:29.819Z</time></trkpt><trkpt lat="40.5507133" lon="15.4378517"><ele>214.33333333333331</ele><time>2026-04-26T15:09:30.819Z</time></trkpt><trkpt lat="40.550835" lon="15.43767"><ele>214.0</ele><time>2026-04-26T15:09:31.819Z</time></trkpt><trkpt lat="40.5509417" lon="15.4374733"><ele>214.0</ele><time>2026-04-26T15:09:32.819Z</time></trkpt><trkpt lat="40.55103" lon="15.4372483"><ele>214.0</ele><time>2026-04-26T15:09:33.819Z</time></trkpt><trkpt lat="40.5511083" lon="15.4370217"><ele>214.0</ele><time>2026-04-26T15:09:34.819Z</time></trkpt><trkpt lat="40.5511733" lon="15.4367867"><ele>213.0</ele><time>2026-04-26T15:09:35.819Z</time></trkpt><trkpt lat="40.55122" lon="15.4365433"><ele>212.0</ele><time>2026-04-26T15:09:36.819Z</time></trkpt><trkpt lat="40.55125" lon="15.4362867"><ele>211.0</ele><time>2026-04-26T15:09:37.819Z</time></trkpt><trkpt lat="40.5512683" lon="15.4360167"><ele>211.0</ele><time>2026-04-26T15:09:38.818Z</time></trkpt><trkpt lat="40.5512883" lon="15.4357417"><ele>211.0</ele><time>2026-04-26T15:09:39.819Z</time></trkpt><trkpt lat="40.5513083" lon="15.43546"><ele>211.0</ele><time>2026-04-26T15:09:40.819Z</time></trkpt><trkpt lat="40.551325" lon="15.4351783"><ele>210.0</ele><time>2026-04-26T15:09:41.818Z</time></trkpt><trkpt lat="40.5513483" lon="15.4348983"><ele>209.0</ele><time>2026-04-26T15:09:42.819Z</time></trkpt><trkpt lat="40.5513717" lon="15.43462"><ele>208.0</ele><time>2026-04-26T15:09:43.819Z</time></trkpt><trkpt lat="40.5513917" lon="15.434345"><ele>207.33333333333331</ele><time>2026-04-26T15:09:44.819Z</time></trkpt><trkpt lat="40.5514083" lon="15.43407"><ele>206.66666666666669</ele><time>2026-04-26T15:09:45.819Z</time></trkpt><trkpt lat="40.5514283" lon="15.4338"><ele>206.0</ele><time>2026-04-26T15:09:46.819Z</time></trkpt><trkpt lat="40.5514483" lon="15.4335433"><ele>206.0</ele><time>2026-04-26T15:09:47.819Z</time></trkpt><trkpt lat="40.55146" lon="15.4333317"><ele>206.0</ele><time>2026-04-26T15:09:48.819Z</time></trkpt><trkpt lat="40.5514817" lon="15.4331633"><ele>206.0</ele><time>2026-04-26T15:09:49.818Z</time></trkpt><trkpt lat="40.55151" lon="15.43304"><ele>206.0</ele><time>2026-04-26T15:09:50.818Z</time></trkpt><trkpt lat="40.5515717" lon="15.4329483"><ele>206.0</ele><time>2026-04-26T15:09:51.818Z</time></trkpt><trkpt lat="40.5516617" lon="15.4328967"><ele>206.0</ele><time>2026-04-26T15:09:52.819Z</time></trkpt><trkpt lat="40.55178" lon="15.43286"><ele>206.0</ele><time>2026-04-26T15:09:53.819Z</time></trkpt><trkpt lat="40.5519067" lon="15.4328167"><ele>206.0</ele><time>2026-04-26T15:09:54.819Z</time></trkpt><trkpt lat="40.55203" lon="15.4327617"><ele>208.0</ele><time>2026-04-26T15:09:55.818Z</time></trkpt><trkpt lat="40.5521333" lon="15.43268"><ele>210.0</ele><time>2026-04-26T15:09:56.819Z</time></trkpt><trkpt lat="40.5522067" lon="15.4325783"><ele>212.00000000000003</ele><time>2026-04-26T15:09:57.818Z</time></trkpt><trkpt lat="40.5522433" lon="15.43247"><ele>214.0</ele><time>2026-04-26T15:09:58.818Z</time></trkpt><trkpt lat="40.552245" lon="15.43233"><ele>216.0</ele><time>2026-04-26T15:09:59.818Z</time></trkpt><trkpt lat="40.5522133" lon="15.4321717"><ele>216.25</ele><time>2026-04-26T15:10:00.819Z</time></trkpt><trkpt lat="40.5521767" lon="15.432"><ele>216.5</ele><time>2026-04-26T15:10:01.818Z</time></trkpt><trkpt lat="40.552145" lon="15.4318317"><ele>216.75</ele><time>2026-04-26T15:10:02.819Z</time></trkpt><trkpt lat="40.5521317" lon="15.4316733"><ele>217.0</ele><time>2026-04-26T15:10:03.819Z</time></trkpt><trkpt lat="40.5521367" lon="15.4315217"><ele>217.0</ele><time>2026-04-26T15:10:04.818Z</time></trkpt><trkpt lat="40.552175" lon="15.431375"><ele>217.0</ele><time>2026-04-26T15:10:05.819Z</time></trkpt><trkpt lat="40.5522067" lon="15.4312233"><ele>217.0</ele><time>2026-04-26T15:10:06.819Z</time></trkpt><trkpt lat="40.5522083" lon="15.4310767"><ele>217.0</ele><time>2026-04-26T15:10:07.818Z</time></trkpt><trkpt lat="40.55216" lon="15.430925"><ele>215.5</ele><time>2026-04-26T15:10:08.818Z</time></trkpt><trkpt lat="40.5520733" lon="15.4308"><ele>214.0</ele><time>2026-04-26T15:10:09.819Z</time></trkpt><trkpt lat="40.5519583" lon="15.4306933"><ele>212.5</ele><time>2026-04-26T15:10:10.819Z</time></trkpt><trkpt lat="40.55186" lon="15.43058"><ele>211.0</ele><time>2026-04-26T15:10:11.819Z</time></trkpt><trkpt lat="40.5517983" lon="15.4304317"><ele>207.5</ele><time>2026-04-26T15:10:12.818Z</time></trkpt><trkpt lat="40.5517817" lon="15.4302567"><ele>204.0</ele><time>2026-04-26T15:10:13.819Z</time></trkpt><trkpt lat="40.5518033" lon="15.43007"><ele>200.5</ele><time>2026-04-26T15:10:14.818Z</time></trkpt><trkpt lat="40.55184" lon="15.4298817"><ele>197.0</ele><time>2026-04-26T15:10:15.819Z</time></trkpt><trkpt lat="40.5518767" lon="15.429695"><ele>196.25</ele><time>2026-04-26T15:10:16.818Z</time></trkpt><trkpt lat="40.551905" lon="15.4295167"><ele>195.5</ele><time>2026-04-26T15:10:17.819Z</time></trkpt><trkpt lat="40.55194" lon="15.4293483"><ele>194.75</ele><time>2026-04-26T15:10:18.819Z</time></trkpt><trkpt lat="40.551985" lon="15.429195"><ele>194.0</ele><time>2026-04-26T15:10:19.819Z</time></trkpt><trkpt lat="40.5520467" lon="15.4290467"><ele>196.5</ele><time>2026-04-26T15:10:20.819Z</time></trkpt><trkpt lat="40.5521217" lon="15.4289"><ele>199.0</ele><time>2026-04-26T15:10:21.819Z</time></trkpt><trkpt lat="40.5521983" lon="15.4287633"><ele>201.5</ele><time>2026-04-26T15:10:22.818Z</time></trkpt><trkpt lat="40.5522783" lon="15.4286267"><ele>204.0</ele><time>2026-04-26T15:10:23.819Z</time></trkpt><trkpt lat="40.5523583" lon="15.4284767"><ele>204.0</ele><time>2026-04-26T15:10:24.818Z</time></trkpt><trkpt lat="40.5524417" lon="15.42832"><ele>204.0</ele><time>2026-04-26T15:10:25.818Z</time></trkpt><trkpt lat="40.5525133" lon="15.4281517"><ele>204.0</ele><time>2026-04-26T15:10:26.818Z</time></trkpt><trkpt lat="40.5525633" lon="15.4279667"><ele>204.0</ele><time>2026-04-26T15:10:27.819Z</time></trkpt><trkpt lat="40.552605" lon="15.42776"><ele>201.33333333333331</ele><time>2026-04-26T15:10:28.818Z</time></trkpt><trkpt lat="40.552635" lon="15.4275333"><ele>198.66666666666666</ele><time>2026-04-26T15:10:29.818Z</time></trkpt><trkpt lat="40.5526583" lon="15.4273083"><ele>196.0</ele><time>2026-04-26T15:10:30.818Z</time></trkpt><trkpt lat="40.552655" lon="15.4270717"><ele>195.0</ele><time>2026-04-26T15:10:31.818Z</time></trkpt><trkpt lat="40.5526517" lon="15.4268183"><ele>194.0</ele><time>2026-04-26T15:10:32.819Z</time></trkpt><trkpt lat="40.5526567" lon="15.4265667"><ele>193.0</ele><time>2026-04-26T15:10:33.819Z</time></trkpt><trkpt lat="40.5526517" lon="15.4263033"><ele>192.66666666666666</ele><time>2026-04-26T15:10:34.818Z</time></trkpt><trkpt lat="40.5526483" lon="15.42606"><ele>192.33333333333331</ele><time>2026-04-26T15:10:35.819Z</time></trkpt><trkpt lat="40.5526467" lon="15.4258517"><ele>192.0</ele><time>2026-04-26T15:10:36.819Z</time></trkpt><trkpt lat="40.5526483" lon="15.4256767"><ele>192.0</ele><time>2026-04-26T15:10:37.819Z</time></trkpt><trkpt lat="40.5526583" lon="15.4255183"><ele>192.0</ele><time>2026-04-26T15:10:38.819Z</time></trkpt><trkpt lat="40.5526967" lon="15.4254"><ele>192.0</ele><time>2026-04-26T15:10:39.819Z</time></trkpt><trkpt lat="40.5527833" lon="15.4252933"><ele>192.0</ele><time>2026-04-26T15:10:40.819Z</time></trkpt><trkpt lat="40.552895" lon="15.4252033"><ele>193.66666666666669</ele><time>2026-04-26T15:10:41.818Z</time></trkpt><trkpt lat="40.5530333" lon="15.42511"><ele>195.33333333333334</ele><time>2026-04-26T15:10:42.818Z</time></trkpt><trkpt lat="40.553175" lon="15.4250083"><ele>197.0</ele><time>2026-04-26T15:10:43.819Z</time></trkpt><trkpt lat="40.55331" lon="15.4249033"><ele>197.0</ele><time>2026-04-26T15:10:44.819Z</time></trkpt><trkpt lat="40.5534417" lon="15.42479"><ele>197.0</ele><time>2026-04-26T15:10:45.819Z</time></trkpt><trkpt lat="40.5535733" lon="15.424675"><ele>197.0</ele><time>2026-04-26T15:10:46.819Z</time></trkpt><trkpt lat="40.5537017" lon="15.4245533"><ele>196.33333333333334</ele><time>2026-04-26T15:10:47.819Z</time></trkpt><trkpt lat="40.5538417" lon="15.4244417"><ele>195.66666666666669</ele><time>2026-04-26T15:10:48.818Z</time></trkpt><trkpt lat="40.553995" lon="15.4243433"><ele>195.0</ele><time>2026-04-26T15:10:49.818Z</time></trkpt><trkpt lat="40.5541533" lon="15.424255"><ele>195.0</ele><time>2026-04-26T15:10:50.819Z</time></trkpt><trkpt lat="40.5543183" lon="15.4241733"><ele>195.0</ele><time>2026-04-26T15:10:51.819Z</time></trkpt><trkpt lat="40.55447" lon="15.4240917"><ele>195.0</ele><time>2026-04-26T15:10:52.818Z</time></trkpt><trkpt lat="40.5545767" lon="15.4240233"><ele>197.33333333333334</ele><time>2026-04-26T15:10:53.819Z</time></trkpt><trkpt lat="40.5546567" lon="15.4239783"><ele>199.66666666666669</ele><time>2026-04-26T15:10:54.818Z</time></trkpt><trkpt lat="40.5547233" lon="15.423955"><ele>202.0</ele><time>2026-04-26T15:10:55.819Z</time></trkpt><trkpt lat="40.5548033" lon="15.423955"><ele>204.33333333333334</ele><time>2026-04-26T15:10:56.819Z</time></trkpt><trkpt lat="40.554885" lon="15.4239833"><ele>206.66666666666669</ele><time>2026-04-26T15:10:57.818Z</time></trkpt><trkpt lat="40.5549783" lon="15.4240317"><ele>209.0</ele><time>2026-04-26T15:10:58.819Z</time></trkpt><trkpt lat="40.5550817" lon="15.4241083"><ele>209.0</ele><time>2026-04-26T15:10:59.818Z</time></trkpt><trkpt lat="40.55518" lon="15.4241917"><ele>209.0</ele><time>2026-04-26T15:11:00.818Z</time></trkpt><trkpt lat="40.555265" lon="15.42429"><ele>209.0</ele><time>2026-04-26T15:11:01.819Z</time></trkpt><trkpt lat="40.5553417" lon="15.4243833"><ele>209.0</ele><time>2026-04-26T15:11:02.818Z</time></trkpt><trkpt lat="40.5554133" lon="15.4244683"><ele>209.0</ele><time>2026-04-26T15:11:03.819Z</time></trkpt><trkpt lat="40.5554783" lon="15.4245467"><ele>213.00000000000003</ele><time>2026-04-26T15:11:04.818Z</time></trkpt><trkpt lat="40.555545" lon="15.424625"><ele>217.0</ele><time>2026-04-26T15:11:05.819Z</time></trkpt><trkpt lat="40.5556017" lon="15.42471"><ele>221.0</ele><time>2026-04-26T15:11:06.818Z</time></trkpt><trkpt lat="40.55564" lon="15.424795"><ele>225.0</ele><time>2026-04-26T15:11:07.818Z</time></trkpt><trkpt lat="40.5556867" lon="15.4248917"><ele>229.00000000000003</ele><time>2026-04-26T15:11:08.819Z</time></trkpt><trkpt lat="40.5557417" lon="15.4249917"><ele>233.0</ele><time>2026-04-26T15:11:09.818Z</time></trkpt><trkpt lat="40.5558117" lon="15.4250667"><ele>233.00000000000003</ele><time>2026-04-26T15:11:10.818Z</time></trkpt><trkpt lat="40.5558717" lon="15.4251183"><ele>233.0</ele><time>2026-04-26T15:11:11.819Z</time></trkpt><trkpt lat="40.555925" lon="15.4251667"><ele>233.0</ele><time>2026-04-26T15:11:12.818Z</time></trkpt><trkpt lat="40.556005" lon="15.425265"><ele>233.0</ele><time>2026-04-26T15:11:14.818Z</time></trkpt><trkpt lat="40.55604" lon="15.42535"><ele>233.00000000000003</ele><time>2026-04-26T15:11:15.818Z</time></trkpt><trkpt lat="40.5560667" lon="15.4254283"><ele>233.0</ele><time>2026-04-26T15:11:16.818Z</time></trkpt><trkpt lat="40.5561183" lon="15.4255717"><ele>233.50000000000003</ele><time>2026-04-26T15:11:18.818Z</time></trkpt><trkpt lat="40.5561583" lon="15.425645"><ele>234.0</ele><time>2026-04-26T15:11:19.819Z</time></trkpt><trkpt lat="40.5562017" lon="15.42571"><ele>234.5</ele><time>2026-04-26T15:11:20.818Z</time></trkpt><trkpt lat="40.556235" lon="15.4257833"><ele>235.0</ele><time>2026-04-26T15:11:21.819Z</time></trkpt><trkpt lat="40.556275" lon="15.4258567"><ele>235.50000000000003</ele><time>2026-04-26T15:11:22.818Z</time></trkpt><trkpt lat="40.5563183" lon="15.4260067"><ele>236.0</ele><time>2026-04-26T15:11:24.818Z</time></trkpt><trkpt lat="40.556355" lon="15.4261733"><ele>241.16666666666669</ele><time>2026-04-26T15:11:26.818Z</time></trkpt><trkpt lat="40.556355" lon="15.4262967"><ele>246.33333333333334</ele><time>2026-04-26T15:11:28.819Z</time></trkpt><trkpt lat="40.5563617" lon="15.426405"><ele>251.5</ele><time>2026-04-26T15:11:30.818Z</time></trkpt><trkpt lat="40.5563617" lon="15.4265217"><ele>256.6666666666667</ele><time>2026-04-26T15:11:33.819Z</time></trkpt><trkpt lat="40.5564183" lon="15.426485"><ele>261.8333333333333</ele><time>2026-04-26T15:11:36.818Z</time></trkpt><trkpt lat="40.556445" lon="15.4264"><ele>267.0</ele><time>2026-04-26T15:11:38.819Z</time></trkpt><trkpt lat="40.55652" lon="15.4263567"><ele>267.3333333333333</ele><time>2026-04-26T15:12:03.818Z</time></trkpt><trkpt lat="40.55656" lon="15.4262633"><ele>267.6666666666667</ele><time>2026-04-26T15:12:05.819Z</time></trkpt><trkpt lat="40.556585" lon="15.426155"><ele>268.0</ele><time>2026-04-26T15:12:07.818Z</time></trkpt><trkpt lat="40.5566033" lon="15.4260517"><ele>268.33333333333337</ele><time>2026-04-26T15:12:09.818Z</time></trkpt><trkpt lat="40.5566217" lon="15.4259467"><ele>268.6666666666667</ele><time>2026-04-26T15:12:11.819Z</time></trkpt><trkpt lat="40.5566283" lon="15.4258267"><ele>269.0</ele><time>2026-04-26T15:12:13.818Z</time></trkpt><trkpt lat="40.5566333" lon="15.42571"><ele>269.0</ele><time>2026-04-26T15:12:15.819Z</time></trkpt><trkpt lat="40.5566433" lon="15.42562"><ele>269.0</ele><time>2026-04-26T15:12:17.818Z</time></trkpt><trkpt lat="40.5566617" lon="15.4255283"><ele>269.0</ele><time>2026-04-26T15:12:20.818Z</time></trkpt><trkpt lat="40.55673" lon="15.4254"><ele>269.0</ele><time>2026-04-26T15:12:56.818Z</time></trkpt><trkpt lat="40.55675" lon="15.42528"><ele>269.0</ele><time>2026-04-26T15:12:59.818Z</time></trkpt><trkpt lat="40.55676" lon="15.4251717"><ele>269.0</ele><time>2026-04-26T15:13:01.819Z</time></trkpt><trkpt lat="40.5567717" lon="15.425065"><ele>266.8</ele><time>2026-04-26T15:13:03.818Z</time></trkpt><trkpt lat="40.5567833" lon="15.42495"><ele>264.59999999999997</ele><time>2026-04-26T15:13:05.818Z</time></trkpt><trkpt lat="40.556795" lon="15.4248217"><ele>262.4</ele><time>2026-04-26T15:13:07.818Z</time></trkpt><trkpt lat="40.5568083" lon="15.4246717"><ele>260.2</ele><time>2026-04-26T15:13:09.819Z</time></trkpt><trkpt lat="40.5568267" lon="15.4245183"><ele>258.0</ele><time>2026-04-26T15:13:11.819Z</time></trkpt><trkpt lat="40.55685" lon="15.4244"><ele>257.5</ele><time>2026-04-26T15:13:13.818Z</time></trkpt><trkpt lat="40.5569233" lon="15.42436"><ele>257.0</ele><time>2026-04-26T15:13:15.818Z</time></trkpt><trkpt lat="40.557045" lon="15.4243933"><ele>256.5</ele><time>2026-04-26T15:13:17.818Z</time></trkpt><trkpt lat="40.5571133" lon="15.424405"><ele>256.0</ele><time>2026-04-26T15:13:18.818Z</time></trkpt><trkpt lat="40.557175" lon="15.4244217"><ele>255.5</ele><time>2026-04-26T15:13:19.819Z</time></trkpt><trkpt lat="40.5572383" lon="15.4244317"><ele>255.0</ele><time>2026-04-26T15:13:20.819Z</time></trkpt><trkpt lat="40.5573633" lon="15.42446"><ele>254.16666666666666</ele><time>2026-04-26T15:13:22.819Z</time></trkpt><trkpt lat="40.5574767" lon="15.4244667"><ele>253.33333333333331</ele><time>2026-04-26T15:13:24.818Z</time></trkpt><trkpt lat="40.5575583" lon="15.4244683"><ele>252.5</ele><time>2026-04-26T15:13:26.819Z</time></trkpt><trkpt lat="40.55763" lon="15.42449"><ele>251.66666666666666</ele><time>2026-04-26T15:13:32.818Z</time></trkpt><trkpt lat="40.557715" lon="15.4244933"><ele>250.83333333333331</ele><time>2026-04-26T15:13:35.818Z</time></trkpt><trkpt lat="40.557785" lon="15.424505"><ele>250.0</ele><time>2026-04-26T15:13:37.819Z</time></trkpt><trkpt lat="40.55787" lon="15.4244917"><ele>249.49999999999997</ele><time>2026-04-26T15:13:40.818Z</time></trkpt><trkpt lat="40.5579567" lon="15.4244917"><ele>249.0</ele><time>2026-04-26T15:13:43.819Z</time></trkpt><trkpt lat="40.5580417" lon="15.4245117"><ele>248.5</ele><time>2026-04-26T15:13:45.818Z</time></trkpt><trkpt lat="40.55816" lon="15.4245417"><ele>248.0</ele><time>2026-04-26T15:13:47.818Z</time></trkpt><trkpt lat="40.5582333" lon="15.4245533"><ele>247.49999999999997</ele><time>2026-04-26T15:13:48.819Z</time></trkpt><trkpt lat="40.5583133" lon="15.424565"><ele>247.0</ele><time>2026-04-26T15:13:49.818Z</time></trkpt><trkpt lat="40.5583983" lon="15.4245767"><ele>247.0</ele><time>2026-04-26T15:13:50.819Z</time></trkpt><trkpt lat="40.55849" lon="15.424585"><ele>247.0</ele><time>2026-04-26T15:13:51.819Z</time></trkpt><trkpt lat="40.5585833" lon="15.4245933"><ele>247.0</ele><time>2026-04-26T15:13:52.818Z</time></trkpt><trkpt lat="40.55868" lon="15.4245967"><ele>247.0</ele><time>2026-04-26T15:13:53.819Z</time></trkpt><trkpt lat="40.558775" lon="15.4246033"><ele>247.0</ele><time>2026-04-26T15:13:54.818Z</time></trkpt><trkpt lat="40.5588717" lon="15.4246133"><ele>247.66666666666666</ele><time>2026-04-26T15:13:55.818Z</time></trkpt><trkpt lat="40.5589617" lon="15.424625"><ele>248.33333333333331</ele><time>2026-04-26T15:13:56.819Z</time></trkpt><trkpt lat="40.559045" lon="15.4246367"><ele>249.0</ele><time>2026-04-26T15:13:57.819Z</time></trkpt><trkpt lat="40.5591217" lon="15.424635"><ele>249.66666666666669</ele><time>2026-04-26T15:13:58.818Z</time></trkpt><trkpt lat="40.559185" lon="15.4246433"><ele>250.33333333333334</ele><time>2026-04-26T15:13:59.818Z</time></trkpt><trkpt lat="40.5592933" lon="15.4246583"><ele>251.0</ele><time>2026-04-26T15:14:01.819Z</time></trkpt><trkpt lat="40.5594133" lon="15.42466"><ele>250.83333333333334</ele><time>2026-04-26T15:14:03.818Z</time></trkpt><trkpt lat="40.559485" lon="15.4246567"><ele>250.66666666666669</ele><time>2026-04-26T15:14:04.818Z</time></trkpt><trkpt lat="40.559565" lon="15.4246483"><ele>250.5</ele><time>2026-04-26T15:14:05.819Z</time></trkpt><trkpt lat="40.5596467" lon="15.4246383"><ele>250.33333333333331</ele><time>2026-04-26T15:14:06.819Z</time></trkpt><trkpt lat="40.559725" lon="15.4246167"><ele>250.16666666666666</ele><time>2026-04-26T15:14:07.819Z</time></trkpt><trkpt lat="40.5598083" lon="15.4245917"><ele>250.0</ele><time>2026-04-26T15:14:08.818Z</time></trkpt><trkpt lat="40.559895" lon="15.42457"><ele>249.99999999999997</ele><time>2026-04-26T15:14:09.819Z</time></trkpt><trkpt lat="40.55998" lon="15.4245467"><ele>250.0</ele><time>2026-04-26T15:14:10.818Z</time></trkpt><trkpt lat="40.560065" lon="15.4245217"><ele>250.0</ele><time>2026-04-26T15:14:11.819Z</time></trkpt><trkpt lat="40.5601483" lon="15.4244983"><ele>250.0</ele><time>2026-04-26T15:14:12.818Z</time></trkpt><trkpt lat="40.5602317" lon="15.4244717"><ele>249.99999999999997</ele><time>2026-04-26T15:14:13.819Z</time></trkpt><trkpt lat="40.5603133" lon="15.4244533"><ele>250.0</ele><time>2026-04-26T15:14:14.819Z</time></trkpt><trkpt lat="40.5603933" lon="15.42443"><ele>249.33333333333331</ele><time>2026-04-26T15:14:15.819Z</time></trkpt><trkpt lat="40.5604767" lon="15.4244117"><ele>248.66666666666666</ele><time>2026-04-26T15:14:16.819Z</time></trkpt><trkpt lat="40.5605533" lon="15.4243933"><ele>248.0</ele><time>2026-04-26T15:14:17.818Z</time></trkpt><trkpt lat="40.5606217" lon="15.4243733"><ele>247.33333333333331</ele><time>2026-04-26T15:14:18.819Z</time></trkpt><trkpt lat="40.5606833" lon="15.424355"><ele>246.66666666666666</ele><time>2026-04-26T15:14:19.818Z</time></trkpt><trkpt lat="40.5607883" lon="15.4243433"><ele>246.0</ele><time>2026-04-26T15:14:21.818Z</time></trkpt><trkpt lat="40.5608817" lon="15.4243833"><ele>246.0</ele><time>2026-04-26T15:14:23.819Z</time></trkpt><trkpt lat="40.5609617" lon="15.4244733"><ele>246.00000000000003</ele><time>2026-04-26T15:14:25.818Z</time></trkpt><trkpt lat="40.5610533" lon="15.4245617"><ele>246.00000000000003</ele><time>2026-04-26T15:14:27.818Z</time></trkpt><trkpt lat="40.5611483" lon="15.424645"><ele>246.0</ele><time>2026-04-26T15:14:29.818Z</time></trkpt><trkpt lat="40.5612383" lon="15.42472"><ele>246.0</ele><time>2026-04-26T15:14:31.818Z</time></trkpt><trkpt lat="40.5613433" lon="15.42478"><ele>247.0</ele><time>2026-04-26T15:14:33.819Z</time></trkpt><trkpt lat="40.5614517" lon="15.4248483"><ele>248.00000000000003</ele><time>2026-04-26T15:14:35.818Z</time></trkpt><trkpt lat="40.561565" lon="15.4249117"><ele>249.00000000000003</ele><time>2026-04-26T15:14:37.819Z</time></trkpt><trkpt lat="40.5616217" lon="15.42495"><ele>250.0</ele><time>2026-04-26T15:14:38.819Z</time></trkpt><trkpt lat="40.5617367" lon="15.4250133"><ele>251.0</ele><time>2026-04-26T15:14:40.818Z</time></trkpt><trkpt lat="40.561845" lon="15.4250683"><ele>251.0</ele><time>2026-04-26T15:14:42.818Z</time></trkpt><trkpt lat="40.5619567" lon="15.4251267"><ele>251.00000000000003</ele><time>2026-04-26T15:14:44.818Z</time></trkpt><trkpt lat="40.5620617" lon="15.4251883"><ele>251.00000000000003</ele><time>2026-04-26T15:14:46.818Z</time></trkpt><trkpt lat="40.5621517" lon="15.4252533"><ele>251.0</ele><time>2026-04-26T15:14:48.818Z</time></trkpt><trkpt lat="40.56223" lon="15.42532"><ele>251.0</ele><time>2026-04-26T15:14:51.818Z</time></trkpt><trkpt lat="40.5622917" lon="15.425375"><ele>252.00000000000003</ele><time>2026-04-26T15:14:54.818Z</time></trkpt><trkpt lat="40.56238" lon="15.4253283"><ele>253.0</ele><time>2026-04-26T15:15:05.819Z</time></trkpt><trkpt lat="40.56249" lon="15.425285"><ele>254.0</ele><time>2026-04-26T15:15:07.818Z</time></trkpt><trkpt lat="40.56256" lon="15.42527"><ele>255.0</ele><time>2026-04-26T15:15:08.819Z</time></trkpt><trkpt lat="40.5626333" lon="15.4252533"><ele>256.0</ele><time>2026-04-26T15:15:09.818Z</time></trkpt><trkpt lat="40.56271" lon="15.4252333"><ele>257.0</ele><time>2026-04-26T15:15:10.819Z</time></trkpt><trkpt lat="40.562785" lon="15.4252067"><ele>257.0</ele><time>2026-04-26T15:15:11.819Z</time></trkpt><trkpt lat="40.562855" lon="15.4251783"><ele>257.0</ele><time>2026-04-26T15:15:12.819Z</time></trkpt><trkpt lat="40.5629217" lon="15.42515"><ele>257.0</ele><time>2026-04-26T15:15:13.818Z</time></trkpt><trkpt lat="40.5629867" lon="15.4251317"><ele>257.0</ele><time>2026-04-26T15:15:14.819Z</time></trkpt><trkpt lat="40.5630567" lon="15.4251117"><ele>257.0</ele><time>2026-04-26T15:15:15.819Z</time></trkpt><trkpt lat="40.5631283" lon="15.4250767"><ele>257.0</ele><time>2026-04-26T15:15:16.819Z</time></trkpt><trkpt lat="40.5632" lon="15.425045"><ele>257.0</ele><time>2026-04-26T15:15:17.818Z</time></trkpt><trkpt lat="40.5632783" lon="15.425015"><ele>258.6</ele><time>2026-04-26T15:15:18.818Z</time></trkpt><trkpt lat="40.5633567" lon="15.42498"><ele>260.2</ele><time>2026-04-26T15:15:19.819Z</time></trkpt><trkpt lat="40.56344" lon="15.4249483"><ele>261.8</ele><time>2026-04-26T15:15:20.818Z</time></trkpt><trkpt lat="40.5635317" lon="15.424915"><ele>263.4</ele><time>2026-04-26T15:15:21.819Z</time></trkpt><trkpt lat="40.563625" lon="15.4248833"><ele>265.0</ele><time>2026-04-26T15:15:22.818Z</time></trkpt><trkpt lat="40.5637183" lon="15.42486"><ele>266.4</ele><time>2026-04-26T15:15:23.819Z</time></trkpt><trkpt lat="40.5638117" lon="15.4248317"><ele>267.8</ele><time>2026-04-26T15:15:24.819Z</time></trkpt><trkpt lat="40.563905" lon="15.4247883"><ele>269.2</ele><time>2026-04-26T15:15:25.818Z</time></trkpt><trkpt lat="40.5640017" lon="15.424745"><ele>270.6</ele><time>2026-04-26T15:15:26.819Z</time></trkpt><trkpt lat="40.564095" lon="15.4246967"><ele>272.0</ele><time>2026-04-26T15:15:27.818Z</time></trkpt><trkpt lat="40.56419" lon="15.4246533"><ele>272.4</ele><time>2026-04-26T15:15:28.819Z</time></trkpt><trkpt lat="40.5642833" lon="15.4246133"><ele>272.79999999999995</ele><time>2026-04-26T15:15:29.819Z</time></trkpt><trkpt lat="40.5643783" lon="15.4245667"><ele>273.2</ele><time>2026-04-26T15:15:30.818Z</time></trkpt><trkpt lat="40.5644867" lon="15.424515"><ele>273.59999999999997</ele><time>2026-04-26T15:15:31.818Z</time></trkpt><trkpt lat="40.5646083" lon="15.42447"><ele>274.0</ele><time>2026-04-26T15:15:32.819Z</time></trkpt><trkpt lat="40.564735" lon="15.4244283"><ele>274.0</ele><time>2026-04-26T15:15:33.818Z</time></trkpt><trkpt lat="40.564855" lon="15.4244133"><ele>274.0</ele><time>2026-04-26T15:15:34.818Z</time></trkpt><trkpt lat="40.5649783" lon="15.4244017"><ele>274.0</ele><time>2026-04-26T15:15:35.818Z</time></trkpt><trkpt lat="40.5651267" lon="15.4244167"><ele>274.0</ele><time>2026-04-26T15:15:36.818Z</time></trkpt><trkpt lat="40.5652883" lon="15.424415"><ele>276.25</ele><time>2026-04-26T15:15:37.818Z</time></trkpt><trkpt lat="40.5654417" lon="15.4243933"><ele>278.5</ele><time>2026-04-26T15:15:38.819Z</time></trkpt><trkpt lat="40.5655667" lon="15.424355"><ele>280.75</ele><time>2026-04-26T15:15:39.819Z</time></trkpt><trkpt lat="40.5656817" lon="15.42432"><ele>283.0</ele><time>2026-04-26T15:15:40.819Z</time></trkpt><trkpt lat="40.5657867" lon="15.424265"><ele>283.0</ele><time>2026-04-26T15:15:41.819Z</time></trkpt><trkpt lat="40.5658867" lon="15.4241867"><ele>283.0</ele><time>2026-04-26T15:15:42.818Z</time></trkpt><trkpt lat="40.5659683" lon="15.4240917"><ele>283.0</ele><time>2026-04-26T15:15:43.819Z</time></trkpt><trkpt lat="40.56606" lon="15.4239983"><ele>283.0</ele><time>2026-04-26T15:15:44.818Z</time></trkpt><trkpt lat="40.5661633" lon="15.4238983"><ele>284.5</ele><time>2026-04-26T15:15:45.819Z</time></trkpt><trkpt lat="40.5662633" lon="15.4238033"><ele>286.0</ele><time>2026-04-26T15:15:46.819Z</time></trkpt><trkpt lat="40.56636" lon="15.4237083"><ele>287.5</ele><time>2026-04-26T15:15:47.819Z</time></trkpt><trkpt lat="40.56648" lon="15.4236117"><ele>289.0</ele><time>2026-04-26T15:15:48.818Z</time></trkpt><trkpt lat="40.566615" lon="15.423535"><ele>289.0</ele><time>2026-04-26T15:15:49.819Z</time></trkpt><trkpt lat="40.5667567" lon="15.42352"><ele>289.0</ele><time>2026-04-26T15:15:50.819Z</time></trkpt><trkpt lat="40.5668917" lon="15.42354"><ele>289.0</ele><time>2026-04-26T15:15:51.818Z</time></trkpt><trkpt lat="40.5670133" lon="15.4235967"><ele>289.0</ele><time>2026-04-26T15:15:52.818Z</time></trkpt><trkpt lat="40.5671217" lon="15.4237033"><ele>293.25</ele><time>2026-04-26T15:15:53.818Z</time></trkpt><trkpt lat="40.56721" lon="15.4238383"><ele>297.5</ele><time>2026-04-26T15:15:54.819Z</time></trkpt><trkpt lat="40.5672767" lon="15.423985"><ele>301.75</ele><time>2026-04-26T15:15:55.819Z</time></trkpt><trkpt lat="40.5673083" lon="15.424145"><ele>306.0</ele><time>2026-04-26T15:15:56.818Z</time></trkpt><trkpt lat="40.5672933" lon="15.4243017"><ele>306.0</ele><time>2026-04-26T15:15:57.818Z</time></trkpt><trkpt lat="40.56724" lon="15.4244583"><ele>306.0</ele><time>2026-04-26T15:15:58.819Z</time></trkpt><trkpt lat="40.5671467" lon="15.4246083"><ele>306.0</ele><time>2026-04-26T15:15:59.819Z</time></trkpt><trkpt lat="40.567045" lon="15.4247733"><ele>306.0</ele><time>2026-04-26T15:16:00.819Z</time></trkpt><trkpt lat="40.5669383" lon="15.4249483"><ele>305.5</ele><time>2026-04-26T15:16:01.819Z</time></trkpt><trkpt lat="40.5668667" lon="15.4251167"><ele>305.0</ele><time>2026-04-26T15:16:02.819Z</time></trkpt><trkpt lat="40.566825" lon="15.4252767"><ele>304.5</ele><time>2026-04-26T15:16:03.819Z</time></trkpt><trkpt lat="40.56682" lon="15.4254183"><ele>304.0</ele><time>2026-04-26T15:16:04.819Z</time></trkpt><trkpt lat="40.5668617" lon="15.42554"><ele>306.75</ele><time>2026-04-26T15:16:05.819Z</time></trkpt><trkpt lat="40.5669383" lon="15.42562"><ele>309.5</ele><time>2026-04-26T15:16:06.818Z</time></trkpt><trkpt lat="40.5670317" lon="15.4256717"><ele>312.25</ele><time>2026-04-26T15:16:07.818Z</time></trkpt><trkpt lat="40.5671517" lon="15.425705"><ele>315.0</ele><time>2026-04-26T15:16:08.818Z</time></trkpt><trkpt lat="40.5672917" lon="15.4257383"><ele>317.6666666666667</ele><time>2026-04-26T15:16:09.819Z</time></trkpt><trkpt lat="40.5674467" lon="15.4257833"><ele>320.33333333333337</ele><time>2026-04-26T15:16:10.819Z</time></trkpt><trkpt lat="40.5676167" lon="15.4258233"><ele>323.0</ele><time>2026-04-26T15:16:11.818Z</time></trkpt><trkpt lat="40.5677883" lon="15.425865"><ele>325.6666666666667</ele><time>2026-04-26T15:16:12.819Z</time></trkpt><trkpt lat="40.5679533" lon="15.42591"><ele>328.3333333333333</ele><time>2026-04-26T15:16:13.818Z</time></trkpt><trkpt lat="40.56812" lon="15.4259533"><ele>331.0</ele><time>2026-04-26T15:16:14.819Z</time></trkpt><trkpt lat="40.5682867" lon="15.4259983"><ele>331.0</ele><time>2026-04-26T15:16:15.819Z</time></trkpt><trkpt lat="40.5684583" lon="15.42605"><ele>331.0</ele><time>2026-04-26T15:16:16.818Z</time></trkpt><trkpt lat="40.5686367" lon="15.42609"><ele>331.0</ele><time>2026-04-26T15:16:17.818Z</time></trkpt><trkpt lat="40.568815" lon="15.42613"><ele>331.66666666666663</ele><time>2026-04-26T15:16:18.818Z</time></trkpt><trkpt lat="40.568995" lon="15.42617"><ele>332.3333333333333</ele><time>2026-04-26T15:16:19.819Z</time></trkpt><trkpt lat="40.5691783" lon="15.4262117"><ele>333.0</ele><time>2026-04-26T15:16:20.818Z</time></trkpt><trkpt lat="40.5693717" lon="15.4262567"><ele>333.0</ele><time>2026-04-26T15:16:21.818Z</time></trkpt><trkpt lat="40.569565" lon="15.4262933"><ele>333.0</ele><time>2026-04-26T15:16:22.818Z</time></trkpt><trkpt lat="40.5697633" lon="15.4263267"><ele>333.0</ele><time>2026-04-26T15:16:23.818Z</time></trkpt><trkpt lat="40.5699667" lon="15.4263567"><ele>335.6666666666667</ele><time>2026-04-26T15:16:24.818Z</time></trkpt><trkpt lat="40.5701667" lon="15.4263883"><ele>338.33333333333337</ele><time>2026-04-26T15:16:25.819Z</time></trkpt><trkpt lat="40.5703683" lon="15.426425"><ele>341.0</ele><time>2026-04-26T15:16:26.819Z</time></trkpt><trkpt lat="40.57057" lon="15.4264617"><ele>343.6666666666667</ele><time>2026-04-26T15:16:27.818Z</time></trkpt><trkpt lat="40.5707717" lon="15.4265033"><ele>346.3333333333333</ele><time>2026-04-26T15:16:28.818Z</time></trkpt><trkpt lat="40.5709667" lon="15.42654"><ele>349.0</ele><time>2026-04-26T15:16:29.819Z</time></trkpt><trkpt lat="40.5711583" lon="15.426575"><ele>349.66666666666663</ele><time>2026-04-26T15:16:30.818Z</time></trkpt><trkpt lat="40.57134" lon="15.4266017"><ele>350.3333333333333</ele><time>2026-04-26T15:16:31.818Z</time></trkpt><trkpt lat="40.5715083" lon="15.4266333"><ele>351.0</ele><time>2026-04-26T15:16:32.819Z</time></trkpt><trkpt lat="40.5716717" lon="15.4266633"><ele>351.0</ele><time>2026-04-26T15:16:33.818Z</time></trkpt><trkpt lat="40.5718333" lon="15.4267"><ele>351.0</ele><time>2026-04-26T15:16:34.819Z</time></trkpt><trkpt lat="40.5719983" lon="15.4267467"><ele>351.0</ele><time>2026-04-26T15:16:35.818Z</time></trkpt><trkpt lat="40.5721633" lon="15.426795"><ele>350.5</ele><time>2026-04-26T15:16:36.819Z</time></trkpt><trkpt lat="40.57232" lon="15.4268417"><ele>350.0</ele><time>2026-04-26T15:16:37.818Z</time></trkpt><trkpt lat="40.5724533" lon="15.4268983"><ele>349.5</ele><time>2026-04-26T15:16:38.819Z</time></trkpt><trkpt lat="40.5725617" lon="15.4269717"><ele>349.0</ele><time>2026-04-26T15:16:39.818Z</time></trkpt><trkpt lat="40.5726333" lon="15.4270567"><ele>351.79999999999995</ele><time>2026-04-26T15:16:40.819Z</time></trkpt><trkpt lat="40.5726617" lon="15.4271667"><ele>354.59999999999997</ele><time>2026-04-26T15:16:41.819Z</time></trkpt><trkpt lat="40.572655" lon="15.4272917"><ele>357.4</ele><time>2026-04-26T15:16:42.819Z</time></trkpt><trkpt lat="40.5726267" lon="15.4274367"><ele>360.2</ele><time>2026-04-26T15:16:43.819Z</time></trkpt><trkpt lat="40.572595" lon="15.42759"><ele>363.0</ele><time>2026-04-26T15:16:44.818Z</time></trkpt><trkpt lat="40.5725617" lon="15.4277633"><ele>363.0</ele><time>2026-04-26T15:16:45.819Z</time></trkpt><trkpt lat="40.57254" lon="15.42795"><ele>363.0</ele><time>2026-04-26T15:16:46.819Z</time></trkpt><trkpt lat="40.5725283" lon="15.4281533"><ele>363.0</ele><time>2026-04-26T15:16:47.818Z</time></trkpt><trkpt lat="40.5725133" lon="15.4283633"><ele>363.3333333333333</ele><time>2026-04-26T15:16:48.819Z</time></trkpt><trkpt lat="40.5724983" lon="15.428585"><ele>363.66666666666663</ele><time>2026-04-26T15:16:49.818Z</time></trkpt><trkpt lat="40.57249" lon="15.4288033"><ele>364.0</ele><time>2026-04-26T15:16:50.819Z</time></trkpt><trkpt lat="40.5724883" lon="15.4290033"><ele>365.0</ele><time>2026-04-26T15:16:51.819Z</time></trkpt><trkpt lat="40.572495" lon="15.42919"><ele>366.0</ele><time>2026-04-26T15:16:52.818Z</time></trkpt><trkpt lat="40.572515" lon="15.4293617"><ele>367.0</ele><time>2026-04-26T15:16:53.818Z</time></trkpt><trkpt lat="40.5725567" lon="15.42951"><ele>368.0</ele><time>2026-04-26T15:16:54.819Z</time></trkpt><trkpt lat="40.5726317" lon="15.4296483"><ele>370.6666666666667</ele><time>2026-04-26T15:16:55.818Z</time></trkpt><trkpt lat="40.5727367" lon="15.4297817"><ele>373.3333333333333</ele><time>2026-04-26T15:16:56.818Z</time></trkpt><trkpt lat="40.5728633" lon="15.4299167"><ele>376.0</ele><time>2026-04-26T15:16:57.819Z</time></trkpt><trkpt lat="40.5730033" lon="15.4300533"><ele>376.0</ele><time>2026-04-26T15:16:58.819Z</time></trkpt><trkpt lat="40.5731483" lon="15.4302067"><ele>376.0</ele><time>2026-04-26T15:16:59.819Z</time></trkpt><trkpt lat="40.57329" lon="15.43036"><ele>376.0</ele><time>2026-04-26T15:17:00.819Z</time></trkpt><trkpt lat="40.5734133" lon="15.4305483"><ele>378.66666666666663</ele><time>2026-04-26T15:17:01.818Z</time></trkpt><trkpt lat="40.5735117" lon="15.43076"><ele>381.3333333333333</ele><time>2026-04-26T15:17:02.819Z</time></trkpt><trkpt lat="40.5735967" lon="15.430995"><ele>384.0</ele><time>2026-04-26T15:17:03.819Z</time></trkpt><trkpt lat="40.573685" lon="15.431235"><ele>384.66666666666663</ele><time>2026-04-26T15:17:04.819Z</time></trkpt><trkpt lat="40.5737667" lon="15.43146"><ele>385.3333333333333</ele><time>2026-04-26T15:17:05.818Z</time></trkpt><trkpt lat="40.57384" lon="15.4316583"><ele>386.0</ele><time>2026-04-26T15:17:06.818Z</time></trkpt><trkpt lat="40.5739167" lon="15.431835"><ele>386.0</ele><time>2026-04-26T15:17:07.818Z</time></trkpt><trkpt lat="40.5740033" lon="15.431965"><ele>386.0</ele><time>2026-04-26T15:17:08.818Z</time></trkpt><trkpt lat="40.5741167" lon="15.43206"><ele>386.0</ele><time>2026-04-26T15:17:09.818Z</time></trkpt><trkpt lat="40.574255" lon="15.43213"><ele>386.0</ele><time>2026-04-26T15:17:10.819Z</time></trkpt><trkpt lat="40.5744133" lon="15.4321817"><ele>388.3333333333333</ele><time>2026-04-26T15:17:11.819Z</time></trkpt><trkpt lat="40.57459" lon="15.4322267"><ele>390.66666666666663</ele><time>2026-04-26T15:17:12.819Z</time></trkpt><trkpt lat="40.5747767" lon="15.4322883"><ele>393.0</ele><time>2026-04-26T15:17:13.819Z</time></trkpt><trkpt lat="40.5749533" lon="15.432355"><ele>393.0</ele><time>2026-04-26T15:17:14.819Z</time></trkpt><trkpt lat="40.5751183" lon="15.432415"><ele>393.0</ele><time>2026-04-26T15:17:15.818Z</time></trkpt><trkpt lat="40.5752683" lon="15.432445"><ele>393.0</ele><time>2026-04-26T15:17:16.818Z</time></trkpt><trkpt lat="40.575415" lon="15.4324383"><ele>394.0</ele><time>2026-04-26T15:17:17.818Z</time></trkpt><trkpt lat="40.5755533" lon="15.43239"><ele>395.0</ele><time>2026-04-26T15:17:18.818Z</time></trkpt><trkpt lat="40.575695" lon="15.432325"><ele>396.0</ele><time>2026-04-26T15:17:19.818Z</time></trkpt><trkpt lat="40.5758317" lon="15.4322217"><ele>395.33333333333337</ele><time>2026-04-26T15:17:20.819Z</time></trkpt><trkpt lat="40.57597" lon="15.4321117"><ele>394.6666666666667</ele><time>2026-04-26T15:17:21.818Z</time></trkpt><trkpt lat="40.57611" lon="15.4319983"><ele>394.0</ele><time>2026-04-26T15:17:22.818Z</time></trkpt><trkpt lat="40.5762567" lon="15.4318783"><ele>394.0</ele><time>2026-04-26T15:17:23.818Z</time></trkpt><trkpt lat="40.57642" lon="15.4317483"><ele>394.0</ele><time>2026-04-26T15:17:24.819Z</time></trkpt><trkpt lat="40.5765933" lon="15.431615"><ele>394.0</ele><time>2026-04-26T15:17:25.819Z</time></trkpt><trkpt lat="40.5767667" lon="15.4314783"><ele>394.0</ele><time>2026-04-26T15:17:26.819Z</time></trkpt><trkpt lat="40.576935" lon="15.431335"><ele>394.0</ele><time>2026-04-26T15:17:27.819Z</time></trkpt><trkpt lat="40.5770867" lon="15.4312017"><ele>394.0</ele><time>2026-04-26T15:17:28.818Z</time></trkpt><trkpt lat="40.57722" lon="15.43108"><ele>394.0</ele><time>2026-04-26T15:17:29.818Z</time></trkpt><trkpt lat="40.5773467" lon="15.4309617"><ele>394.0</ele><time>2026-04-26T15:17:30.819Z</time></trkpt><trkpt lat="40.5774583" lon="15.430855"><ele>394.0</ele><time>2026-04-26T15:17:31.818Z</time></trkpt><trkpt lat="40.5775583" lon="15.4307667"><ele>394.0</ele><time>2026-04-26T15:17:32.819Z</time></trkpt><trkpt lat="40.5776533" lon="15.4306817"><ele>394.0</ele><time>2026-04-26T15:17:33.819Z</time></trkpt><trkpt lat="40.5777533" lon="15.4305917"><ele>394.0</ele><time>2026-04-26T15:17:34.818Z</time></trkpt><trkpt lat="40.5778533" lon="15.4305033"><ele>394.0</ele><time>2026-04-26T15:17:35.818Z</time></trkpt><trkpt lat="40.57795" lon="15.4304033"><ele>394.0</ele><time>2026-04-26T15:17:36.818Z</time></trkpt><trkpt lat="40.5780433" lon="15.43031"><ele>394.0</ele><time>2026-04-26T15:17:37.819Z</time></trkpt><trkpt lat="40.5781383" lon="15.4302167"><ele>394.0</ele><time>2026-04-26T15:17:38.819Z</time></trkpt><trkpt lat="40.5782417" lon="15.430115"><ele>394.0</ele><time>2026-04-26T15:17:39.818Z</time></trkpt><trkpt lat="40.5783467" lon="15.430025"><ele>394.0</ele><time>2026-04-26T15:17:40.819Z</time></trkpt><trkpt lat="40.57845" lon="15.4299417"><ele>394.0</ele><time>2026-04-26T15:17:41.818Z</time></trkpt><trkpt lat="40.5785533" lon="15.4298567"><ele>394.0</ele><time>2026-04-26T15:17:42.818Z</time></trkpt><trkpt lat="40.578655" lon="15.4297733"><ele>394.0</ele><time>2026-04-26T15:17:43.818Z</time></trkpt><trkpt lat="40.5787517" lon="15.4296917"><ele>394.0</ele><time>2026-04-26T15:17:44.819Z</time></trkpt><trkpt lat="40.5788517" lon="15.4296117"><ele>394.0</ele><time>2026-04-26T15:17:45.818Z</time></trkpt><trkpt lat="40.578945" lon="15.4295383"><ele>394.0</ele><time>2026-04-26T15:17:46.818Z</time></trkpt><trkpt lat="40.5790283" lon="15.4294667"><ele>394.0</ele><time>2026-04-26T15:17:47.818Z</time></trkpt><trkpt lat="40.57911" lon="15.4294017"><ele>394.0</ele><time>2026-04-26T15:17:48.818Z</time></trkpt><trkpt lat="40.5791833" lon="15.4293433"><ele>394.0</ele><time>2026-04-26T15:17:49.819Z</time></trkpt><trkpt lat="40.5792433" lon="15.4292867"><ele>394.0</ele><time>2026-04-26T15:17:50.818Z</time></trkpt><trkpt lat="40.579315" lon="15.4292417"><ele>394.0</ele><time>2026-04-26T15:17:52.819Z</time></trkpt><trkpt lat="40.57939" lon="15.4292233"><ele>394.0</ele><time>2026-04-26T15:17:55.818Z</time></trkpt><trkpt lat="40.5794467" lon="15.4291783"><ele>394.0</ele><time>2026-04-26T15:17:56.819Z</time></trkpt><trkpt lat="40.5795233" lon="15.4290883"><ele>394.0</ele><time>2026-04-26T15:17:57.818Z</time></trkpt><trkpt lat="40.5796167" lon="15.428965"><ele>394.6666666666667</ele><time>2026-04-26T15:17:58.819Z</time></trkpt><trkpt lat="40.5797233" lon="15.4288117"><ele>395.33333333333337</ele><time>2026-04-26T15:17:59.819Z</time></trkpt><trkpt lat="40.5798367" lon="15.428635"><ele>396.0</ele><time>2026-04-26T15:18:00.819Z</time></trkpt><trkpt lat="40.57995" lon="15.42844"><ele>396.0</ele><time>2026-04-26T15:18:01.818Z</time></trkpt><trkpt lat="40.5800683" lon="15.428215"><ele>396.0</ele><time>2026-04-26T15:18:02.818Z</time></trkpt><trkpt lat="40.58018" lon="15.4279583"><ele>396.0</ele><time>2026-04-26T15:18:03.818Z</time></trkpt><trkpt lat="40.5802833" lon="15.4276933"><ele>396.33333333333337</ele><time>2026-04-26T15:18:04.819Z</time></trkpt><trkpt lat="40.5803733" lon="15.4274383"><ele>396.6666666666667</ele><time>2026-04-26T15:18:05.818Z</time></trkpt><trkpt lat="40.5804617" lon="15.4272083"><ele>397.0</ele><time>2026-04-26T15:18:06.818Z</time></trkpt><trkpt lat="40.5805383" lon="15.4269867"><ele>397.0</ele><time>2026-04-26T15:18:07.818Z</time></trkpt><trkpt lat="40.58061" lon="15.4267833"><ele>397.0</ele><time>2026-04-26T15:18:08.819Z</time></trkpt><trkpt lat="40.58068" lon="15.426585"><ele>397.0</ele><time>2026-04-26T15:18:09.819Z</time></trkpt><trkpt lat="40.5807483" lon="15.4264017"><ele>396.25</ele><time>2026-04-26T15:18:10.819Z</time></trkpt><trkpt lat="40.5808133" lon="15.4262233"><ele>395.5</ele><time>2026-04-26T15:18:11.819Z</time></trkpt><trkpt lat="40.5808783" lon="15.426055"><ele>394.75</ele><time>2026-04-26T15:18:12.819Z</time></trkpt><trkpt lat="40.5809417" lon="15.4258967"><ele>394.0</ele><time>2026-04-26T15:18:13.818Z</time></trkpt><trkpt lat="40.5809917" lon="15.42575"><ele>394.0</ele><time>2026-04-26T15:18:14.818Z</time></trkpt><trkpt lat="40.58104" lon="15.42561"><ele>394.0</ele><time>2026-04-26T15:18:15.819Z</time></trkpt><trkpt lat="40.5810783" lon="15.4254817"><ele>394.0</ele><time>2026-04-26T15:18:16.818Z</time></trkpt><trkpt lat="40.5811083" lon="15.425365"><ele>394.0</ele><time>2026-04-26T15:18:17.819Z</time></trkpt><trkpt lat="40.5811267" lon="15.4252683"><ele>394.0</ele><time>2026-04-26T15:18:18.818Z</time></trkpt><trkpt lat="40.5811633" lon="15.425135"><ele>395.2</ele><time>2026-04-26T15:18:20.819Z</time></trkpt><trkpt lat="40.581215" lon="15.425045"><ele>396.4</ele><time>2026-04-26T15:18:22.819Z</time></trkpt><trkpt lat="40.5812317" lon="15.42493"><ele>397.6</ele><time>2026-04-26T15:21:56.817Z</time></trkpt><trkpt lat="40.5812133" lon="15.4248317"><ele>398.8</ele><time>2026-04-26T15:21:58.817Z</time></trkpt><trkpt lat="40.5812117" lon="15.42466"><ele>400.0</ele><time>2026-04-26T15:22:00.817Z</time></trkpt><trkpt lat="40.5812233" lon="15.4245483"><ele>400.0</ele><time>2026-04-26T15:22:01.818Z</time></trkpt><trkpt lat="40.5812367" lon="15.424425"><ele>400.0</ele><time>2026-04-26T15:22:02.818Z</time></trkpt><trkpt lat="40.58125" lon="15.4242833"><ele>400.0</ele><time>2026-04-26T15:22:03.818Z</time></trkpt><trkpt lat="40.58127" lon="15.4241333"><ele>400.0</ele><time>2026-04-26T15:22:04.818Z</time></trkpt><trkpt lat="40.5812983" lon="15.4239817"><ele>400.0</ele><time>2026-04-26T15:22:05.817Z</time></trkpt><trkpt lat="40.581325" lon="15.4238233"><ele>400.5</ele><time>2026-04-26T15:22:06.818Z</time></trkpt><trkpt lat="40.581345" lon="15.423655"><ele>401.0</ele><time>2026-04-26T15:22:07.818Z</time></trkpt><trkpt lat="40.581365" lon="15.4234767"><ele>401.5</ele><time>2026-04-26T15:22:08.817Z</time></trkpt><trkpt lat="40.5813917" lon="15.423285"><ele>402.0</ele><time>2026-04-26T15:22:09.817Z</time></trkpt><trkpt lat="40.581425" lon="15.4230917"><ele>401.25</ele><time>2026-04-26T15:22:10.817Z</time></trkpt><trkpt lat="40.5814617" lon="15.4228983"><ele>400.5</ele><time>2026-04-26T15:22:11.817Z</time></trkpt><trkpt lat="40.5815017" lon="15.4227183"><ele>399.75</ele><time>2026-04-26T15:22:12.817Z</time></trkpt><trkpt lat="40.58154" lon="15.42256"><ele>399.0</ele><time>2026-04-26T15:22:13.817Z</time></trkpt><trkpt lat="40.58158" lon="15.4224217"><ele>399.0</ele><time>2026-04-26T15:22:14.818Z</time></trkpt><trkpt lat="40.58161" lon="15.42226"><ele>399.0</ele><time>2026-04-26T15:22:15.817Z</time></trkpt><trkpt lat="40.5816533" lon="15.4221233"><ele>399.0</ele><time>2026-04-26T15:22:16.818Z</time></trkpt><trkpt lat="40.5817017" lon="15.421985"><ele>399.0</ele><time>2026-04-26T15:22:17.818Z</time></trkpt><trkpt lat="40.5817617" lon="15.4218333"><ele>397.66666666666663</ele><time>2026-04-26T15:22:18.818Z</time></trkpt><trkpt lat="40.5818367" lon="15.4216583"><ele>396.3333333333333</ele><time>2026-04-26T15:22:19.818Z</time></trkpt><trkpt lat="40.5819267" lon="15.4214733"><ele>395.0</ele><time>2026-04-26T15:22:20.818Z</time></trkpt><trkpt lat="40.5820267" lon="15.4212767"><ele>397.66666666666663</ele><time>2026-04-26T15:22:21.818Z</time></trkpt><trkpt lat="40.5821267" lon="15.421065"><ele>400.33333333333337</ele><time>2026-04-26T15:22:22.818Z</time></trkpt><trkpt lat="40.58223" lon="15.4208467"><ele>403.0</ele><time>2026-04-26T15:22:23.817Z</time></trkpt><trkpt lat="40.58234" lon="15.42063"><ele>403.0</ele><time>2026-04-26T15:22:24.818Z</time></trkpt><trkpt lat="40.5824467" lon="15.420425"><ele>403.0</ele><time>2026-04-26T15:22:25.817Z</time></trkpt><trkpt lat="40.5825483" lon="15.420225"><ele>403.0</ele><time>2026-04-26T15:22:26.817Z</time></trkpt><trkpt lat="40.5826433" lon="15.4200283"><ele>403.0</ele><time>2026-04-26T15:22:27.817Z</time></trkpt><trkpt lat="40.582725" lon="15.4198367"><ele>403.0</ele><time>2026-04-26T15:22:28.818Z</time></trkpt><trkpt lat="40.5827933" lon="15.419655"><ele>403.0</ele><time>2026-04-26T15:22:29.817Z</time></trkpt><trkpt lat="40.5828533" lon="15.4194683"><ele>404.6666666666667</ele><time>2026-04-26T15:22:30.817Z</time></trkpt><trkpt lat="40.582905" lon="15.4192817"><ele>406.33333333333337</ele><time>2026-04-26T15:22:31.817Z</time></trkpt><trkpt lat="40.582945" lon="15.41908"><ele>408.0</ele><time>2026-04-26T15:22:32.817Z</time></trkpt><trkpt lat="40.5829767" lon="15.4188717"><ele>407.0</ele><time>2026-04-26T15:22:33.818Z</time></trkpt><trkpt lat="40.583005" lon="15.418665"><ele>406.0</ele><time>2026-04-26T15:22:34.817Z</time></trkpt><trkpt lat="40.5830317" lon="15.41846"><ele>405.0</ele><time>2026-04-26T15:22:35.817Z</time></trkpt><trkpt lat="40.5830583" lon="15.41825"><ele>405.0</ele><time>2026-04-26T15:22:36.817Z</time></trkpt><trkpt lat="40.5830917" lon="15.41804"><ele>405.0</ele><time>2026-04-26T15:22:37.817Z</time></trkpt><trkpt lat="40.583125" lon="15.4178283"><ele>405.0</ele><time>2026-04-26T15:22:38.818Z</time></trkpt><trkpt lat="40.583155" lon="15.4176017"><ele>405.0</ele><time>2026-04-26T15:22:39.817Z</time></trkpt><trkpt lat="40.583185" lon="15.417375"><ele>405.0</ele><time>2026-04-26T15:22:40.817Z</time></trkpt><trkpt lat="40.5832133" lon="15.4171433"><ele>405.0</ele><time>2026-04-26T15:22:41.817Z</time></trkpt><trkpt lat="40.5832483" lon="15.41691"><ele>406.0</ele><time>2026-04-26T15:22:42.818Z</time></trkpt><trkpt lat="40.58328" lon="15.4166733"><ele>407.0</ele><time>2026-04-26T15:22:43.818Z</time></trkpt><trkpt lat="40.5833067" lon="15.4164267"><ele>408.0</ele><time>2026-04-26T15:22:44.818Z</time></trkpt><trkpt lat="40.5833367" lon="15.4161867"><ele>408.66666666666663</ele><time>2026-04-26T15:22:45.818Z</time></trkpt><trkpt lat="40.5833667" lon="15.4159483"><ele>409.3333333333333</ele><time>2026-04-26T15:22:46.817Z</time></trkpt><trkpt lat="40.5834033" lon="15.4157117"><ele>410.0</ele><time>2026-04-26T15:22:47.817Z</time></trkpt><trkpt lat="40.5834433" lon="15.41548"><ele>410.0</ele><time>2026-04-26T15:22:48.818Z</time></trkpt><trkpt lat="40.583485" lon="15.4152417"><ele>410.0</ele><time>2026-04-26T15:22:49.817Z</time></trkpt><trkpt lat="40.58353" lon="15.4150017"><ele>410.0</ele><time>2026-04-26T15:22:50.818Z</time></trkpt><trkpt lat="40.58359" lon="15.4147733"><ele>410.66666666666663</ele><time>2026-04-26T15:22:51.817Z</time></trkpt><trkpt lat="40.5836633" lon="15.414555"><ele>411.33333333333337</ele><time>2026-04-26T15:22:52.817Z</time></trkpt><trkpt lat="40.5837567" lon="15.4143333"><ele>412.0</ele><time>2026-04-26T15:22:53.817Z</time></trkpt><trkpt lat="40.58386" lon="15.414115"><ele>412.0</ele><time>2026-04-26T15:22:54.817Z</time></trkpt><trkpt lat="40.583975" lon="15.4139033"><ele>412.0</ele><time>2026-04-26T15:22:55.818Z</time></trkpt><trkpt lat="40.584105" lon="15.4137017"><ele>412.0</ele><time>2026-04-26T15:22:56.817Z</time></trkpt><trkpt lat="40.584245" lon="15.413505"><ele>411.33333333333337</ele><time>2026-04-26T15:22:57.817Z</time></trkpt><trkpt lat="40.58439" lon="15.4133117"><ele>410.66666666666663</ele><time>2026-04-26T15:22:58.817Z</time></trkpt><trkpt lat="40.5845383" lon="15.41312"><ele>410.0</ele><time>2026-04-26T15:22:59.818Z</time></trkpt><trkpt lat="40.5846867" lon="15.4129317"><ele>406.66666666666663</ele><time>2026-04-26T15:23:00.818Z</time></trkpt><trkpt lat="40.5848333" lon="15.412745"><ele>403.33333333333337</ele><time>2026-04-26T15:23:01.817Z</time></trkpt><trkpt lat="40.5849717" lon="15.4125667"><ele>400.0</ele><time>2026-04-26T15:23:02.817Z</time></trkpt><trkpt lat="40.5851017" lon="15.4123933"><ele>400.0</ele><time>2026-04-26T15:23:03.817Z</time></trkpt><trkpt lat="40.5852283" lon="15.4122317"><ele>400.0</ele><time>2026-04-26T15:23:04.818Z</time></trkpt><trkpt lat="40.58536" lon="15.4120633"><ele>400.0</ele><time>2026-04-26T15:23:05.817Z</time></trkpt><trkpt lat="40.585495" lon="15.4118967"><ele>399.0</ele><time>2026-04-26T15:23:06.818Z</time></trkpt><trkpt lat="40.5856317" lon="15.4117233"><ele>398.0</ele><time>2026-04-26T15:23:07.817Z</time></trkpt><trkpt lat="40.5857717" lon="15.4115617"><ele>397.0</ele><time>2026-04-26T15:23:08.817Z</time></trkpt><trkpt lat="40.58592" lon="15.4114117"><ele>394.33333333333337</ele><time>2026-04-26T15:23:09.817Z</time></trkpt><trkpt lat="40.5860933" lon="15.4112683"><ele>391.66666666666663</ele><time>2026-04-26T15:23:10.817Z</time></trkpt><trkpt lat="40.5862733" lon="15.4111233"><ele>389.0</ele><time>2026-04-26T15:23:11.818Z</time></trkpt><trkpt lat="40.58646" lon="15.41097"><ele>388.66666666666663</ele><time>2026-04-26T15:23:12.817Z</time></trkpt><trkpt lat="40.5866483" lon="15.4108117"><ele>388.33333333333337</ele><time>2026-04-26T15:23:13.818Z</time></trkpt><trkpt lat="40.586835" lon="15.4106483"><ele>388.0</ele><time>2026-04-26T15:23:14.817Z</time></trkpt><trkpt lat="40.5870283" lon="15.41049"><ele>384.0</ele><time>2026-04-26T15:23:15.818Z</time></trkpt><trkpt lat="40.5872283" lon="15.4103233"><ele>380.0</ele><time>2026-04-26T15:23:16.817Z</time></trkpt><trkpt lat="40.587435" lon="15.4101583"><ele>380.0</ele><time>2026-04-26T15:23:17.818Z</time></trkpt><trkpt lat="40.5876433" lon="15.4099867"><ele>380.0</ele><time>2026-04-26T15:23:18.818Z</time></trkpt><trkpt lat="40.5878533" lon="15.4098117"><ele>376.5</ele><time>2026-04-26T15:23:19.817Z</time></trkpt><trkpt lat="40.5880583" lon="15.4096267"><ele>373.0</ele><time>2026-04-26T15:23:20.817Z</time></trkpt><trkpt lat="40.5882683" lon="15.4094367"><ele>373.0</ele><time>2026-04-26T15:23:21.818Z</time></trkpt><trkpt lat="40.5884733" lon="15.4092517"><ele>373.0</ele><time>2026-04-26T15:23:22.818Z</time></trkpt><trkpt lat="40.5886667" lon="15.40908"><ele>373.5</ele><time>2026-04-26T15:23:23.817Z</time></trkpt><trkpt lat="40.5888567" lon="15.4089067"><ele>374.0</ele><time>2026-04-26T15:23:24.817Z</time></trkpt><trkpt lat="40.5890433" lon="15.40874"><ele>372.0</ele><time>2026-04-26T15:23:25.818Z</time></trkpt><trkpt lat="40.5892267" lon="15.40858"><ele>370.0</ele><time>2026-04-26T15:23:26.817Z</time></trkpt><trkpt lat="40.5894083" lon="15.4084183"><ele>368.0</ele><time>2026-04-26T15:23:27.818Z</time></trkpt><trkpt lat="40.5895833" lon="15.4082583"><ele>367.0</ele><time>2026-04-26T15:23:28.818Z</time></trkpt><trkpt lat="40.5897517" lon="15.40811"><ele>366.0</ele><time>2026-04-26T15:23:29.818Z</time></trkpt><trkpt lat="40.5899067" lon="15.4079633"><ele>365.0</ele><time>2026-04-26T15:23:30.817Z</time></trkpt><trkpt lat="40.590045" lon="15.4078117"><ele>363.6666666666667</ele><time>2026-04-26T15:23:31.818Z</time></trkpt><trkpt lat="40.5901683" lon="15.4076517"><ele>362.3333333333333</ele><time>2026-04-26T15:23:32.817Z</time></trkpt><trkpt lat="40.590285" lon="15.4074767"><ele>361.0</ele><time>2026-04-26T15:23:33.818Z</time></trkpt><trkpt lat="40.5903833" lon="15.4072833"><ele>359.0</ele><time>2026-04-26T15:23:34.818Z</time></trkpt><trkpt lat="40.5904783" lon="15.4070767"><ele>357.0</ele><time>2026-04-26T15:23:35.817Z</time></trkpt><trkpt lat="40.59056" lon="15.40686"><ele>355.0</ele><time>2026-04-26T15:23:36.818Z</time></trkpt><trkpt lat="40.5906233" lon="15.4066217"><ele>355.0</ele><time>2026-04-26T15:23:37.817Z</time></trkpt><trkpt lat="40.590685" lon="15.406375"><ele>355.0</ele><time>2026-04-26T15:23:38.818Z</time></trkpt><trkpt lat="40.5907417" lon="15.40612"><ele>355.0</ele><time>2026-04-26T15:23:39.817Z</time></trkpt><trkpt lat="40.5908" lon="15.40586"><ele>353.0</ele><time>2026-04-26T15:23:40.817Z</time></trkpt><trkpt lat="40.5908633" lon="15.4055983"><ele>351.0</ele><time>2026-04-26T15:23:41.817Z</time></trkpt><trkpt lat="40.590925" lon="15.4053283"><ele>349.0</ele><time>2026-04-26T15:23:42.817Z</time></trkpt><trkpt lat="40.5909883" lon="15.4050583"><ele>346.66666666666663</ele><time>2026-04-26T15:23:43.818Z</time></trkpt><trkpt lat="40.59105" lon="15.404785"><ele>344.3333333333333</ele><time>2026-04-26T15:23:44.818Z</time></trkpt><trkpt lat="40.5911183" lon="15.4045083"><ele>342.0</ele><time>2026-04-26T15:23:45.818Z</time></trkpt><trkpt lat="40.591185" lon="15.4042283"><ele>341.0</ele><time>2026-04-26T15:23:46.817Z</time></trkpt><trkpt lat="40.5912483" lon="15.4039617"><ele>340.0</ele><time>2026-04-26T15:23:47.817Z</time></trkpt><trkpt lat="40.591315" lon="15.4037"><ele>339.0</ele><time>2026-04-26T15:23:48.817Z</time></trkpt><trkpt lat="40.5913767" lon="15.4034567"><ele>337.6666666666667</ele><time>2026-04-26T15:23:49.818Z</time></trkpt><trkpt lat="40.591435" lon="15.4032267"><ele>336.33333333333337</ele><time>2026-04-26T15:23:50.818Z</time></trkpt><trkpt lat="40.5914933" lon="15.403"><ele>335.0</ele><time>2026-04-26T15:23:51.818Z</time></trkpt><trkpt lat="40.5915567" lon="15.4027833"><ele>333.0</ele><time>2026-04-26T15:23:52.817Z</time></trkpt><trkpt lat="40.5916217" lon="15.402575"><ele>331.0</ele><time>2026-04-26T15:23:53.817Z</time></trkpt><trkpt lat="40.5916983" lon="15.40238"><ele>329.0</ele><time>2026-04-26T15:23:54.817Z</time></trkpt><trkpt lat="40.59179" lon="15.4021817"><ele>327.33333333333337</ele><time>2026-04-26T15:23:55.818Z</time></trkpt><trkpt lat="40.5918917" lon="15.4019833"><ele>325.6666666666667</ele><time>2026-04-26T15:23:56.817Z</time></trkpt><trkpt lat="40.5920033" lon="15.4017833"><ele>324.0</ele><time>2026-04-26T15:23:57.818Z</time></trkpt><trkpt lat="40.592115" lon="15.4016"><ele>324.0</ele><time>2026-04-26T15:23:58.817Z</time></trkpt><trkpt lat="40.5922417" lon="15.4014233"><ele>324.0</ele><time>2026-04-26T15:23:59.817Z</time></trkpt><trkpt lat="40.5923783" lon="15.401255"><ele>324.0</ele><time>2026-04-26T15:24:00.818Z</time></trkpt><trkpt lat="40.5925217" lon="15.4010983"><ele>323.0</ele><time>2026-04-26T15:24:01.818Z</time></trkpt><trkpt lat="40.59267" lon="15.4009583"><ele>322.0</ele><time>2026-04-26T15:24:02.818Z</time></trkpt><trkpt lat="40.59283" lon="15.4008283"><ele>321.0</ele><time>2026-04-26T15:24:03.817Z</time></trkpt><trkpt lat="40.5930117" lon="15.4007"><ele>321.0</ele><time>2026-04-26T15:24:04.817Z</time></trkpt><trkpt lat="40.5932133" lon="15.4005733"><ele>321.0</ele><time>2026-04-26T15:24:05.817Z</time></trkpt><trkpt lat="40.5934283" lon="15.4004517"><ele>317.0</ele><time>2026-04-26T15:24:06.818Z</time></trkpt><trkpt lat="40.5936417" lon="15.40033"><ele>313.0</ele><time>2026-04-26T15:24:07.817Z</time></trkpt><trkpt lat="40.593845" lon="15.4002117"><ele>313.0</ele><time>2026-04-26T15:24:08.817Z</time></trkpt><trkpt lat="40.5940417" lon="15.400095"><ele>313.0</ele><time>2026-04-26T15:24:09.817Z</time></trkpt><trkpt lat="40.59422" lon="15.3999683"><ele>313.0</ele><time>2026-04-26T15:24:10.817Z</time></trkpt><trkpt lat="40.5943933" lon="15.3998333"><ele>311.0</ele><time>2026-04-26T15:24:11.817Z</time></trkpt><trkpt lat="40.5945517" lon="15.3996783"><ele>309.0</ele><time>2026-04-26T15:24:12.817Z</time></trkpt><trkpt lat="40.5946983" lon="15.3995183"><ele>307.0</ele><time>2026-04-26T15:24:13.817Z</time></trkpt><trkpt lat="40.5948333" lon="15.3993517"><ele>307.0</ele><time>2026-04-26T15:24:14.817Z</time></trkpt><trkpt lat="40.5949567" lon="15.3991667"><ele>307.0</ele><time>2026-04-26T15:24:15.818Z</time></trkpt><trkpt lat="40.595065" lon="15.3989667"><ele>307.0</ele><time>2026-04-26T15:24:16.817Z</time></trkpt><trkpt lat="40.5951667" lon="15.39876"><ele>305.66666666666663</ele><time>2026-04-26T15:24:17.817Z</time></trkpt><trkpt lat="40.5952633" lon="15.39854"><ele>304.3333333333333</ele><time>2026-04-26T15:24:18.817Z</time></trkpt><trkpt lat="40.5953517" lon="15.3983017"><ele>303.0</ele><time>2026-04-26T15:24:19.818Z</time></trkpt><trkpt lat="40.5954417" lon="15.39806"><ele>301.0</ele><time>2026-04-26T15:24:20.818Z</time></trkpt><trkpt lat="40.59554" lon="15.3978167"><ele>299.0</ele><time>2026-04-26T15:24:21.817Z</time></trkpt><trkpt lat="40.5956383" lon="15.3975767"><ele>297.0</ele><time>2026-04-26T15:24:22.818Z</time></trkpt><trkpt lat="40.5957317" lon="15.3973533"><ele>294.0</ele><time>2026-04-26T15:24:23.817Z</time></trkpt><trkpt lat="40.5958233" lon="15.3971317"><ele>291.0</ele><time>2026-04-26T15:24:24.818Z</time></trkpt><trkpt lat="40.595905" lon="15.3969217"><ele>288.0</ele><time>2026-04-26T15:24:25.817Z</time></trkpt><trkpt lat="40.5959883" lon="15.396725"><ele>288.0</ele><time>2026-04-26T15:24:26.818Z</time></trkpt><trkpt lat="40.59608" lon="15.396535"><ele>288.0</ele><time>2026-04-26T15:24:27.818Z</time></trkpt><trkpt lat="40.5961883" lon="15.3963517"><ele>288.0</ele><time>2026-04-26T15:24:28.818Z</time></trkpt><trkpt lat="40.5963067" lon="15.39618"><ele>287.3333333333333</ele><time>2026-04-26T15:24:29.818Z</time></trkpt><trkpt lat="40.5964367" lon="15.3960167"><ele>286.66666666666663</ele><time>2026-04-26T15:24:30.818Z</time></trkpt><trkpt lat="40.5965733" lon="15.3958667"><ele>286.0</ele><time>2026-04-26T15:24:31.818Z</time></trkpt><trkpt lat="40.5967183" lon="15.3957317"><ele>286.0</ele><time>2026-04-26T15:24:32.817Z</time></trkpt><trkpt lat="40.5968717" lon="15.3956117"><ele>286.0</ele><time>2026-04-26T15:24:33.817Z</time></trkpt><trkpt lat="40.5970283" lon="15.39551"><ele>286.0</ele><time>2026-04-26T15:24:34.817Z</time></trkpt><trkpt lat="40.5971883" lon="15.39542"><ele>282.66666666666663</ele><time>2026-04-26T15:24:35.817Z</time></trkpt><trkpt lat="40.59735" lon="15.3953517"><ele>279.3333333333333</ele><time>2026-04-26T15:24:36.818Z</time></trkpt><trkpt lat="40.5975133" lon="15.395305"><ele>276.0</ele><time>2026-04-26T15:24:37.818Z</time></trkpt><trkpt lat="40.5976817" lon="15.3952683"><ele>273.6666666666667</ele><time>2026-04-26T15:24:38.818Z</time></trkpt><trkpt lat="40.597865" lon="15.395255"><ele>271.33333333333337</ele><time>2026-04-26T15:24:39.818Z</time></trkpt><trkpt lat="40.59805" lon="15.39526"><ele>269.0</ele><time>2026-04-26T15:24:40.818Z</time></trkpt><trkpt lat="40.5982267" lon="15.3952833"><ele>269.0</ele><time>2026-04-26T15:24:41.817Z</time></trkpt><trkpt lat="40.5984" lon="15.395325"><ele>269.0</ele><time>2026-04-26T15:24:42.817Z</time></trkpt><trkpt lat="40.59857" lon="15.3953833"><ele>269.0</ele><time>2026-04-26T15:24:43.817Z</time></trkpt><trkpt lat="40.5987417" lon="15.3954617"><ele>268.6666666666667</ele><time>2026-04-26T15:24:44.818Z</time></trkpt><trkpt lat="40.598925" lon="15.3955583"><ele>268.3333333333333</ele><time>2026-04-26T15:24:45.818Z</time></trkpt><trkpt lat="40.5991183" lon="15.395665"><ele>268.0</ele><time>2026-04-26T15:24:46.818Z</time></trkpt><trkpt lat="40.5993217" lon="15.395765"><ele>261.5</ele><time>2026-04-26T15:24:47.817Z</time></trkpt><trkpt lat="40.5995317" lon="15.3958767"><ele>255.0</ele><time>2026-04-26T15:24:48.818Z</time></trkpt><trkpt lat="40.599745" lon="15.3959917"><ele>255.0</ele><time>2026-04-26T15:24:49.817Z</time></trkpt><trkpt lat="40.59996" lon="15.3961117"><ele>255.0</ele><time>2026-04-26T15:24:50.818Z</time></trkpt><trkpt lat="40.6001717" lon="15.3962233"><ele>254.0</ele><time>2026-04-26T15:24:51.817Z</time></trkpt><trkpt lat="40.6003767" lon="15.396335"><ele>253.0</ele><time>2026-04-26T15:24:52.818Z</time></trkpt><trkpt lat="40.600575" lon="15.39645"><ele>252.0</ele><time>2026-04-26T15:24:53.818Z</time></trkpt><trkpt lat="40.6007667" lon="15.3965483"><ele>252.0</ele><time>2026-04-26T15:24:54.817Z</time></trkpt><trkpt lat="40.6009567" lon="15.3966417"><ele>252.0</ele><time>2026-04-26T15:24:55.818Z</time></trkpt><trkpt lat="40.601145" lon="15.396725"><ele>252.0</ele><time>2026-04-26T15:24:56.817Z</time></trkpt><trkpt lat="40.6013367" lon="15.396805"><ele>250.0</ele><time>2026-04-26T15:24:57.817Z</time></trkpt><trkpt lat="40.6015383" lon="15.3968633"><ele>248.0</ele><time>2026-04-26T15:24:58.817Z</time></trkpt><trkpt lat="40.6017333" lon="15.3969017"><ele>246.0</ele><time>2026-04-26T15:24:59.817Z</time></trkpt><trkpt lat="40.601925" lon="15.3969167"><ele>245.33333333333331</ele><time>2026-04-26T15:25:00.817Z</time></trkpt><trkpt lat="40.602115" lon="15.3969117"><ele>244.66666666666666</ele><time>2026-04-26T15:25:01.818Z</time></trkpt><trkpt lat="40.60231" lon="15.396885"><ele>244.0</ele><time>2026-04-26T15:25:02.817Z</time></trkpt><trkpt lat="40.6025133" lon="15.3968367"><ele>244.0</ele><time>2026-04-26T15:25:03.817Z</time></trkpt><trkpt lat="40.602725" lon="15.396775"><ele>244.0</ele><time>2026-04-26T15:25:04.818Z</time></trkpt><trkpt lat="40.60294" lon="15.3966983"><ele>244.0</ele><time>2026-04-26T15:25:05.817Z</time></trkpt><trkpt lat="40.6031533" lon="15.3966033"><ele>243.0</ele><time>2026-04-26T15:25:06.818Z</time></trkpt><trkpt lat="40.603365" lon="15.396515"><ele>242.0</ele><time>2026-04-26T15:25:07.817Z</time></trkpt><trkpt lat="40.6035633" lon="15.3964383"><ele>241.0</ele><time>2026-04-26T15:25:08.818Z</time></trkpt><trkpt lat="40.6037533" lon="15.3963667"><ele>238.33333333333331</ele><time>2026-04-26T15:25:09.817Z</time></trkpt><trkpt lat="40.603945" lon="15.3963117"><ele>235.66666666666669</ele><time>2026-04-26T15:25:10.818Z</time></trkpt><trkpt lat="40.6041417" lon="15.3962717"><ele>233.0</ele><time>2026-04-26T15:25:11.817Z</time></trkpt><trkpt lat="40.60434" lon="15.3962483"><ele>233.0</ele><time>2026-04-26T15:25:12.817Z</time></trkpt><trkpt lat="40.60454" lon="15.39624"><ele>233.0</ele><time>2026-04-26T15:25:13.818Z</time></trkpt><trkpt lat="40.6047333" lon="15.3962433"><ele>233.0</ele><time>2026-04-26T15:25:14.818Z</time></trkpt><trkpt lat="40.6049217" lon="15.3962533"><ele>233.0</ele><time>2026-04-26T15:25:15.817Z</time></trkpt><trkpt lat="40.6051017" lon="15.3962767"><ele>233.0</ele><time>2026-04-26T15:25:16.818Z</time></trkpt><trkpt lat="40.605275" lon="15.3963433"><ele>233.0</ele><time>2026-04-26T15:25:17.818Z</time></trkpt><trkpt lat="40.6054467" lon="15.396425"><ele>235.66666666666669</ele><time>2026-04-26T15:25:18.818Z</time></trkpt><trkpt lat="40.60562" lon="15.3965067"><ele>238.33333333333331</ele><time>2026-04-26T15:25:19.818Z</time></trkpt><trkpt lat="40.605795" lon="15.3965717"><ele>241.0</ele><time>2026-04-26T15:25:20.818Z</time></trkpt><trkpt lat="40.6059717" lon="15.3966317"><ele>241.0</ele><time>2026-04-26T15:25:21.818Z</time></trkpt><trkpt lat="40.6061517" lon="15.3966867"><ele>241.0</ele><time>2026-04-26T15:25:22.817Z</time></trkpt><trkpt lat="40.60634" lon="15.3967317"><ele>241.0</ele><time>2026-04-26T15:25:23.817Z</time></trkpt><trkpt lat="40.6065367" lon="15.39677"><ele>238.66666666666666</ele><time>2026-04-26T15:25:24.818Z</time></trkpt><trkpt lat="40.6067333" lon="15.3968033"><ele>236.33333333333331</ele><time>2026-04-26T15:25:25.818Z</time></trkpt><trkpt lat="40.6069217" lon="15.3968467"><ele>234.0</ele><time>2026-04-26T15:25:26.817Z</time></trkpt><trkpt lat="40.6071017" lon="15.3968817"><ele>232.33333333333331</ele><time>2026-04-26T15:25:27.817Z</time></trkpt><trkpt lat="40.60728" lon="15.39691"><ele>230.66666666666666</ele><time>2026-04-26T15:25:28.818Z</time></trkpt><trkpt lat="40.607445" lon="15.3969367"><ele>229.0</ele><time>2026-04-26T15:25:29.817Z</time></trkpt><trkpt lat="40.6076083" lon="15.3969567"><ele>229.0</ele><time>2026-04-26T15:25:30.818Z</time></trkpt><trkpt lat="40.6077733" lon="15.3969733"><ele>229.0</ele><time>2026-04-26T15:25:31.817Z</time></trkpt><trkpt lat="40.60795" lon="15.3969767"><ele>229.0</ele><time>2026-04-26T15:25:32.817Z</time></trkpt><trkpt lat="40.6081333" lon="15.396955"><ele>227.33333333333331</ele><time>2026-04-26T15:25:33.817Z</time></trkpt><trkpt lat="40.6083233" lon="15.39691"><ele>225.66666666666669</ele><time>2026-04-26T15:25:34.818Z</time></trkpt><trkpt lat="40.60851" lon="15.3968533"><ele>224.0</ele><time>2026-04-26T15:25:35.818Z</time></trkpt><trkpt lat="40.6087033" lon="15.3968"><ele>223.66666666666669</ele><time>2026-04-26T15:25:36.818Z</time></trkpt><trkpt lat="40.6088833" lon="15.3967533"><ele>223.33333333333331</ele><time>2026-04-26T15:25:37.817Z</time></trkpt><trkpt lat="40.609055" lon="15.3967033"><ele>223.0</ele><time>2026-04-26T15:25:38.818Z</time></trkpt><trkpt lat="40.6092283" lon="15.39666"><ele>223.0</ele><time>2026-04-26T15:25:39.817Z</time></trkpt><trkpt lat="40.60939" lon="15.396605"><ele>223.0</ele><time>2026-04-26T15:25:40.818Z</time></trkpt><trkpt lat="40.6095417" lon="15.3965333"><ele>223.0</ele><time>2026-04-26T15:25:41.818Z</time></trkpt><trkpt lat="40.609685" lon="15.3964383"><ele>220.33333333333331</ele><time>2026-04-26T15:25:42.817Z</time></trkpt><trkpt lat="40.60983" lon="15.3963267"><ele>217.66666666666669</ele><time>2026-04-26T15:25:43.818Z</time></trkpt><trkpt lat="40.6099717" lon="15.3961917"><ele>215.0</ele><time>2026-04-26T15:25:44.817Z</time></trkpt><trkpt lat="40.61011" lon="15.39604"><ele>215.0</ele><time>2026-04-26T15:25:45.818Z</time></trkpt><trkpt lat="40.6102383" lon="15.3958783"><ele>215.0</ele><time>2026-04-26T15:25:46.818Z</time></trkpt><trkpt lat="40.6103517" lon="15.3957117"><ele>215.0</ele><time>2026-04-26T15:25:47.818Z</time></trkpt><trkpt lat="40.6104517" lon="15.3955383"><ele>218.0</ele><time>2026-04-26T15:25:48.817Z</time></trkpt><trkpt lat="40.6105333" lon="15.3953433"><ele>221.0</ele><time>2026-04-26T15:25:49.817Z</time></trkpt><trkpt lat="40.6105983" lon="15.39514"><ele>224.0</ele><time>2026-04-26T15:25:50.817Z</time></trkpt><trkpt lat="40.610655" lon="15.3949233"><ele>224.0</ele><time>2026-04-26T15:25:51.817Z</time></trkpt><trkpt lat="40.6106983" lon="15.394705"><ele>224.0</ele><time>2026-04-26T15:25:52.817Z</time></trkpt><trkpt lat="40.61073" lon="15.3944817"><ele>224.0</ele><time>2026-04-26T15:25:53.818Z</time></trkpt><trkpt lat="40.61075" lon="15.3942517"><ele>223.66666666666669</ele><time>2026-04-26T15:25:54.818Z</time></trkpt><trkpt lat="40.6107467" lon="15.39401"><ele>223.33333333333331</ele><time>2026-04-26T15:25:55.817Z</time></trkpt><trkpt lat="40.6107317" lon="15.3937617"><ele>223.0</ele><time>2026-04-26T15:25:56.817Z</time></trkpt><trkpt lat="40.6107083" lon="15.3935133"><ele>223.66666666666666</ele><time>2026-04-26T15:25:57.818Z</time></trkpt><trkpt lat="40.6106867" lon="15.3932517"><ele>224.33333333333331</ele><time>2026-04-26T15:25:58.818Z</time></trkpt><trkpt lat="40.6106733" lon="15.3929983"><ele>225.0</ele><time>2026-04-26T15:25:59.818Z</time></trkpt><trkpt lat="40.61067" lon="15.3927383"><ele>225.0</ele><time>2026-04-26T15:26:00.817Z</time></trkpt><trkpt lat="40.6106817" lon="15.3924633"><ele>225.0</ele><time>2026-04-26T15:26:01.818Z</time></trkpt><trkpt lat="40.6107067" lon="15.39218"><ele>225.0</ele><time>2026-04-26T15:26:02.817Z</time></trkpt><trkpt lat="40.610735" lon="15.3918917"><ele>222.66666666666669</ele><time>2026-04-26T15:26:03.818Z</time></trkpt><trkpt lat="40.6107633" lon="15.39161"><ele>220.33333333333334</ele><time>2026-04-26T15:26:04.817Z</time></trkpt><trkpt lat="40.6107983" lon="15.3913217"><ele>218.0</ele><time>2026-04-26T15:26:05.817Z</time></trkpt><trkpt lat="40.6108367" lon="15.3910333"><ele>210.5</ele><time>2026-04-26T15:26:06.817Z</time></trkpt><trkpt lat="40.6108683" lon="15.3907433"><ele>203.0</ele><time>2026-04-26T15:26:07.818Z</time></trkpt><trkpt lat="40.610905" lon="15.390445"><ele>199.0</ele><time>2026-04-26T15:26:08.818Z</time></trkpt><trkpt lat="40.610945" lon="15.39015"><ele>195.0</ele><time>2026-04-26T15:26:09.818Z</time></trkpt><trkpt lat="40.6109767" lon="15.3898617"><ele>191.0</ele><time>2026-04-26T15:26:10.818Z</time></trkpt><trkpt lat="40.6110067" lon="15.3895833"><ele>191.0</ele><time>2026-04-26T15:26:11.817Z</time></trkpt><trkpt lat="40.611035" lon="15.389305"><ele>191.0</ele><time>2026-04-26T15:26:12.818Z</time></trkpt><trkpt lat="40.6110633" lon="15.3890333"><ele>191.0</ele><time>2026-04-26T15:26:13.817Z</time></trkpt><trkpt lat="40.6110917" lon="15.388785"><ele>195.66666666666666</ele><time>2026-04-26T15:26:14.817Z</time></trkpt><trkpt lat="40.6111083" lon="15.3885617"><ele>200.33333333333331</ele><time>2026-04-26T15:26:15.817Z</time></trkpt><trkpt lat="40.6111117" lon="15.388355"><ele>205.0</ele><time>2026-04-26T15:26:16.817Z</time></trkpt><trkpt lat="40.6111017" lon="15.388155"><ele>205.33333333333331</ele><time>2026-04-26T15:26:17.818Z</time></trkpt><trkpt lat="40.6110783" lon="15.387965"><ele>205.66666666666669</ele><time>2026-04-26T15:26:18.818Z</time></trkpt><trkpt lat="40.6110483" lon="15.3877733"><ele>206.0</ele><time>2026-04-26T15:26:19.817Z</time></trkpt><trkpt lat="40.6109933" lon="15.3875733"><ele>206.0</ele><time>2026-04-26T15:26:20.818Z</time></trkpt><trkpt lat="40.6109233" lon="15.3873617"><ele>206.0</ele><time>2026-04-26T15:26:21.817Z</time></trkpt><trkpt lat="40.6108333" lon="15.3871517"><ele>206.0</ele><time>2026-04-26T15:26:22.817Z</time></trkpt><trkpt lat="40.6107283" lon="15.3869283"><ele>207.0</ele><time>2026-04-26T15:26:23.817Z</time></trkpt><trkpt lat="40.6106133" lon="15.3867"><ele>208.0</ele><time>2026-04-26T15:26:24.818Z</time></trkpt><trkpt lat="40.6104983" lon="15.3864567"><ele>209.0</ele><time>2026-04-26T15:26:25.817Z</time></trkpt><trkpt lat="40.6103767" lon="15.386205"><ele>209.5</ele><time>2026-04-26T15:26:26.818Z</time></trkpt><trkpt lat="40.610245" lon="15.38596"><ele>210.0</ele><time>2026-04-26T15:26:27.818Z</time></trkpt><trkpt lat="40.6101167" lon="15.3857067"><ele>211.5</ele><time>2026-04-26T15:26:28.817Z</time></trkpt><trkpt lat="40.6099783" lon="15.38546"><ele>213.0</ele><time>2026-04-26T15:26:29.817Z</time></trkpt><trkpt lat="40.6098483" lon="15.385215"><ele>213.0</ele><time>2026-04-26T15:26:30.818Z</time></trkpt><trkpt lat="40.6097267" lon="15.3849833"><ele>213.0</ele><time>2026-04-26T15:26:31.818Z</time></trkpt><trkpt lat="40.609615" lon="15.38476"><ele>213.0</ele><time>2026-04-26T15:26:32.817Z</time></trkpt><trkpt lat="40.6095083" lon="15.3845383"><ele>210.66666666666669</ele><time>2026-04-26T15:26:33.817Z</time></trkpt><trkpt lat="40.6093983" lon="15.3843233"><ele>208.33333333333334</ele><time>2026-04-26T15:26:34.818Z</time></trkpt><trkpt lat="40.6092883" lon="15.3840983"><ele>206.0</ele><time>2026-04-26T15:26:35.817Z</time></trkpt><trkpt lat="40.6091783" lon="15.38388"><ele>207.0</ele><time>2026-04-26T15:26:36.818Z</time></trkpt><trkpt lat="40.60906" lon="15.3836617"><ele>208.0</ele><time>2026-04-26T15:26:37.817Z</time></trkpt><trkpt lat="40.6089417" lon="15.3834417"><ele>209.0</ele><time>2026-04-26T15:26:38.817Z</time></trkpt><trkpt lat="40.6088217" lon="15.3832167"><ele>209.0</ele><time>2026-04-26T15:26:39.818Z</time></trkpt><trkpt lat="40.608695" lon="15.38298"><ele>209.0</ele><time>2026-04-26T15:26:40.818Z</time></trkpt><trkpt lat="40.60857" lon="15.3827517"><ele>209.0</ele><time>2026-04-26T15:26:41.818Z</time></trkpt><trkpt lat="40.60846" lon="15.3825467"><ele>206.33333333333334</ele><time>2026-04-26T15:26:42.817Z</time></trkpt><trkpt lat="40.6083483" lon="15.3823417"><ele>203.66666666666669</ele><time>2026-04-26T15:26:43.818Z</time></trkpt><trkpt lat="40.6082433" lon="15.382155"><ele>201.0</ele><time>2026-04-26T15:26:44.818Z</time></trkpt><trkpt lat="40.6081367" lon="15.3819733"><ele>201.0</ele><time>2026-04-26T15:26:45.817Z</time></trkpt><trkpt lat="40.6080217" lon="15.3818017"><ele>201.0</ele><time>2026-04-26T15:26:46.818Z</time></trkpt><trkpt lat="40.6078967" lon="15.38163"><ele>201.0</ele><time>2026-04-26T15:26:47.818Z</time></trkpt><trkpt lat="40.607755" lon="15.3814667"><ele>198.0</ele><time>2026-04-26T15:26:48.817Z</time></trkpt><trkpt lat="40.6076083" lon="15.3812967"><ele>195.0</ele><time>2026-04-26T15:26:49.818Z</time></trkpt><trkpt lat="40.6074517" lon="15.381125"><ele>192.0</ele><time>2026-04-26T15:26:50.818Z</time></trkpt><trkpt lat="40.6072967" lon="15.3809417"><ele>192.0</ele><time>2026-04-26T15:26:51.817Z</time></trkpt><trkpt lat="40.6071417" lon="15.3807667"><ele>192.0</ele><time>2026-04-26T15:26:52.817Z</time></trkpt><trkpt lat="40.6069917" lon="15.380585"><ele>192.0</ele><time>2026-04-26T15:26:53.817Z</time></trkpt><trkpt lat="40.6068433" lon="15.3804067"><ele>191.33333333333334</ele><time>2026-04-26T15:26:54.818Z</time></trkpt><trkpt lat="40.6066917" lon="15.3802283"><ele>190.66666666666669</ele><time>2026-04-26T15:26:55.817Z</time></trkpt><trkpt lat="40.6065417" lon="15.3800433"><ele>190.0</ele><time>2026-04-26T15:26:56.817Z</time></trkpt><trkpt lat="40.606395" lon="15.379865"><ele>190.0</ele><time>2026-04-26T15:26:57.817Z</time></trkpt><trkpt lat="40.6062517" lon="15.3796967"><ele>190.0</ele><time>2026-04-26T15:26:58.818Z</time></trkpt><trkpt lat="40.60611" lon="15.37953"><ele>190.0</ele><time>2026-04-26T15:26:59.817Z</time></trkpt><trkpt lat="40.6059667" lon="15.379365"><ele>189.0</ele><time>2026-04-26T15:27:00.818Z</time></trkpt><trkpt lat="40.6058233" lon="15.379195"><ele>188.0</ele><time>2026-04-26T15:27:01.818Z</time></trkpt><trkpt lat="40.60568" lon="15.3790267"><ele>187.0</ele><time>2026-04-26T15:27:02.817Z</time></trkpt><trkpt lat="40.60554" lon="15.37886"><ele>188.33333333333334</ele><time>2026-04-26T15:27:03.817Z</time></trkpt><trkpt lat="40.605395" lon="15.3786967"><ele>189.66666666666666</ele><time>2026-04-26T15:27:04.817Z</time></trkpt><trkpt lat="40.605255" lon="15.37853"><ele>191.0</ele><time>2026-04-26T15:27:05.817Z</time></trkpt><trkpt lat="40.60511" lon="15.3783567"><ele>190.33333333333331</ele><time>2026-04-26T15:27:06.818Z</time></trkpt><trkpt lat="40.604965" lon="15.37819"><ele>189.66666666666666</ele><time>2026-04-26T15:27:07.818Z</time></trkpt><trkpt lat="40.6048217" lon="15.3780167"><ele>189.0</ele><time>2026-04-26T15:27:08.818Z</time></trkpt><trkpt lat="40.604675" lon="15.3778417"><ele>189.0</ele><time>2026-04-26T15:27:09.817Z</time></trkpt><trkpt lat="40.604525" lon="15.3776617"><ele>189.0</ele><time>2026-04-26T15:27:10.817Z</time></trkpt><trkpt lat="40.604385" lon="15.37748"><ele>189.0</ele><time>2026-04-26T15:27:11.818Z</time></trkpt><trkpt lat="40.6042367" lon="15.3772983"><ele>187.33333333333334</ele><time>2026-04-26T15:27:12.817Z</time></trkpt><trkpt lat="40.6041017" lon="15.3771"><ele>185.66666666666669</ele><time>2026-04-26T15:27:13.818Z</time></trkpt><trkpt lat="40.6039633" lon="15.3769083"><ele>184.0</ele><time>2026-04-26T15:27:14.818Z</time></trkpt><trkpt lat="40.6038267" lon="15.3767033"><ele>184.0</ele><time>2026-04-26T15:27:15.817Z</time></trkpt><trkpt lat="40.6036967" lon="15.3765033"><ele>184.0</ele><time>2026-04-26T15:27:16.818Z</time></trkpt><trkpt lat="40.60357" lon="15.37631"><ele>184.0</ele><time>2026-04-26T15:27:17.817Z</time></trkpt><trkpt lat="40.6034567" lon="15.37612"><ele>180.33333333333334</ele><time>2026-04-26T15:27:18.818Z</time></trkpt><trkpt lat="40.603345" lon="15.375935"><ele>176.66666666666666</ele><time>2026-04-26T15:27:19.817Z</time></trkpt><trkpt lat="40.6032333" lon="15.3757567"><ele>173.0</ele><time>2026-04-26T15:27:20.818Z</time></trkpt><trkpt lat="40.6031283" lon="15.3755783"><ele>175.0</ele><time>2026-04-26T15:27:21.817Z</time></trkpt><trkpt lat="40.6030267" lon="15.3754017"><ele>177.0</ele><time>2026-04-26T15:27:22.817Z</time></trkpt><trkpt lat="40.602925" lon="15.3752383"><ele>179.0</ele><time>2026-04-26T15:27:23.818Z</time></trkpt><trkpt lat="40.6028367" lon="15.3750933"><ele>178.0</ele><time>2026-04-26T15:27:24.818Z</time></trkpt><trkpt lat="40.6027533" lon="15.374955"><ele>177.0</ele><time>2026-04-26T15:27:25.818Z</time></trkpt><trkpt lat="40.6026667" lon="15.374825"><ele>176.0</ele><time>2026-04-26T15:27:26.817Z</time></trkpt><trkpt lat="40.602575" lon="15.3746967"><ele>175.0</ele><time>2026-04-26T15:27:27.818Z</time></trkpt><trkpt lat="40.6024683" lon="15.3745683"><ele>175.0</ele><time>2026-04-26T15:27:28.818Z</time></trkpt><trkpt lat="40.6023467" lon="15.374435"><ele>175.0</ele><time>2026-04-26T15:27:29.817Z</time></trkpt><trkpt lat="40.6022133" lon="15.3742967"><ele>175.0</ele><time>2026-04-26T15:27:30.818Z</time></trkpt><trkpt lat="40.6020733" lon="15.3741533"><ele>173.33333333333334</ele><time>2026-04-26T15:27:31.817Z</time></trkpt><trkpt lat="40.60193" lon="15.3739983"><ele>171.66666666666666</ele><time>2026-04-26T15:27:32.818Z</time></trkpt><trkpt lat="40.6017783" lon="15.3738417"><ele>170.0</ele><time>2026-04-26T15:27:33.817Z</time></trkpt><trkpt lat="40.60163" lon="15.3736883"><ele>173.66666666666666</ele><time>2026-04-26T15:27:34.818Z</time></trkpt><trkpt lat="40.6014783" lon="15.3735433"><ele>177.33333333333334</ele><time>2026-04-26T15:27:35.818Z</time></trkpt><trkpt lat="40.6013233" lon="15.3734017"><ele>181.0</ele><time>2026-04-26T15:27:36.817Z</time></trkpt><trkpt lat="40.601175" lon="15.3732617"><ele>181.0</ele><time>2026-04-26T15:27:37.818Z</time></trkpt><trkpt lat="40.6010383" lon="15.3731283"><ele>181.0</ele><time>2026-04-26T15:27:38.817Z</time></trkpt><trkpt lat="40.60091" lon="15.373"><ele>181.0</ele><time>2026-04-26T15:27:39.818Z</time></trkpt><trkpt lat="40.6007883" lon="15.3728767"><ele>181.0</ele><time>2026-04-26T15:27:40.817Z</time></trkpt><trkpt lat="40.6006783" lon="15.3727583"><ele>181.0</ele><time>2026-04-26T15:27:41.818Z</time></trkpt><trkpt lat="40.6005867" lon="15.372645"><ele>181.0</ele><time>2026-04-26T15:27:42.818Z</time></trkpt><trkpt lat="40.6005167" lon="15.3725367"><ele>181.0</ele><time>2026-04-26T15:27:43.818Z</time></trkpt><trkpt lat="40.6004483" lon="15.3724367"><ele>181.0</ele><time>2026-04-26T15:27:44.818Z</time></trkpt><trkpt lat="40.6003867" lon="15.3723433"><ele>181.0</ele><time>2026-04-26T15:27:45.818Z</time></trkpt><trkpt lat="40.6003333" lon="15.3722517"><ele>181.0</ele><time>2026-04-26T15:27:46.818Z</time></trkpt><trkpt lat="40.6002883" lon="15.3721683"><ele>181.0</ele><time>2026-04-26T15:27:47.817Z</time></trkpt><trkpt lat="40.6002517" lon="15.3720983"><ele>181.0</ele><time>2026-04-26T15:27:48.818Z</time></trkpt><trkpt lat="40.6002" lon="15.3719883"><ele>181.0</ele><time>2026-04-26T15:27:50.818Z</time></trkpt><trkpt lat="40.600165" lon="15.371915"><ele>179.66666666666669</ele><time>2026-04-26T15:27:52.818Z</time></trkpt><trkpt lat="40.6000917" lon="15.37185"><ele>178.33333333333334</ele><time>2026-04-26T15:27:55.818Z</time></trkpt><trkpt lat="40.6000267" lon="15.37189"><ele>177.0</ele><time>2026-04-26T15:27:59.817Z</time></trkpt><trkpt lat="40.6000817" lon="15.3719317"><ele>175.66666666666666</ele><time>2026-04-26T15:56:27.818Z</time></trkpt><trkpt lat="40.60014" lon="15.3719717"><ele>174.33333333333331</ele><time>2026-04-26T15:56:29.818Z</time></trkpt><trkpt lat="40.600185" lon="15.3720533"><ele>173.0</ele><time>2026-04-26T15:56:31.817Z</time></trkpt><trkpt lat="40.60024" lon="15.3721917"><ele>172.33333333333331</ele><time>2026-04-26T15:56:33.818Z</time></trkpt><trkpt lat="40.6002783" lon="15.3722667"><ele>171.66666666666666</ele><time>2026-04-26T15:56:34.818Z</time></trkpt><trkpt lat="40.6003267" lon="15.3723417"><ele>171.0</ele><time>2026-04-26T15:56:35.818Z</time></trkpt><trkpt lat="40.600375" lon="15.3724183"><ele>170.33333333333334</ele><time>2026-04-26T15:56:36.817Z</time></trkpt><trkpt lat="40.6004283" lon="15.3725"><ele>169.66666666666669</ele><time>2026-04-26T15:56:37.817Z</time></trkpt><trkpt lat="40.60048" lon="15.3725833"><ele>169.0</ele><time>2026-04-26T15:56:38.818Z</time></trkpt><trkpt lat="40.600535" lon="15.372655"><ele>169.2</ele><time>2026-04-26T15:56:39.817Z</time></trkpt><trkpt lat="40.6005933" lon="15.3727233"><ele>169.39999999999998</ele><time>2026-04-26T15:56:40.817Z</time></trkpt><trkpt lat="40.6006517" lon="15.3727967"><ele>169.6</ele><time>2026-04-26T15:56:41.818Z</time></trkpt><trkpt lat="40.60072" lon="15.3728717"><ele>169.8</ele><time>2026-04-26T15:56:42.818Z</time></trkpt><trkpt lat="40.6007967" lon="15.37295"><ele>170.0</ele><time>2026-04-26T15:56:43.818Z</time></trkpt><trkpt lat="40.600885" lon="15.373035"><ele>170.0</ele><time>2026-04-26T15:56:44.817Z</time></trkpt><trkpt lat="40.60098" lon="15.3731317"><ele>170.0</ele><time>2026-04-26T15:56:45.817Z</time></trkpt><trkpt lat="40.6010833" lon="15.3732317"><ele>170.0</ele><time>2026-04-26T15:56:46.818Z</time></trkpt><trkpt lat="40.6011933" lon="15.373335"><ele>170.0</ele><time>2026-04-26T15:56:47.817Z</time></trkpt><trkpt lat="40.6013067" lon="15.3734367"><ele>172.75</ele><time>2026-04-26T15:56:48.817Z</time></trkpt><trkpt lat="40.6014167" lon="15.37354"><ele>175.5</ele><time>2026-04-26T15:56:49.817Z</time></trkpt><trkpt lat="40.6015233" lon="15.3736517"><ele>178.25</ele><time>2026-04-26T15:56:50.818Z</time></trkpt><trkpt lat="40.60163" lon="15.3737533"><ele>181.0</ele><time>2026-04-26T15:56:51.817Z</time></trkpt><trkpt lat="40.60174" lon="15.3738467"><ele>179.5</ele><time>2026-04-26T15:56:52.817Z</time></trkpt><trkpt lat="40.6018467" lon="15.3739517"><ele>178.0</ele><time>2026-04-26T15:56:53.818Z</time></trkpt><trkpt lat="40.6019533" lon="15.3740567"><ele>176.5</ele><time>2026-04-26T15:56:54.818Z</time></trkpt><trkpt lat="40.6020617" lon="15.37416"><ele>175.0</ele><time>2026-04-26T15:56:55.818Z</time></trkpt><trkpt lat="40.6021667" lon="15.37426"><ele>175.0</ele><time>2026-04-26T15:56:56.817Z</time></trkpt><trkpt lat="40.6022717" lon="15.3743633"><ele>175.0</ele><time>2026-04-26T15:56:57.817Z</time></trkpt><trkpt lat="40.6023717" lon="15.374475"><ele>175.0</ele><time>2026-04-26T15:56:58.818Z</time></trkpt><trkpt lat="40.6024633" lon="15.3745917"><ele>175.0</ele><time>2026-04-26T15:56:59.818Z</time></trkpt><trkpt lat="40.6025517" lon="15.3747117"><ele>174.25</ele><time>2026-04-26T15:57:00.817Z</time></trkpt><trkpt lat="40.6026383" lon="15.374835"><ele>173.5</ele><time>2026-04-26T15:57:01.817Z</time></trkpt><trkpt lat="40.6027267" lon="15.3749717"><ele>172.75</ele><time>2026-04-26T15:57:02.818Z</time></trkpt><trkpt lat="40.602815" lon="15.3751117"><ele>172.0</ele><time>2026-04-26T15:57:03.818Z</time></trkpt><trkpt lat="40.6028983" lon="15.3752617"><ele>172.25</ele><time>2026-04-26T15:57:04.817Z</time></trkpt><trkpt lat="40.60299" lon="15.3754067"><ele>172.5</ele><time>2026-04-26T15:57:05.817Z</time></trkpt><trkpt lat="40.6030817" lon="15.37556"><ele>172.75</ele><time>2026-04-26T15:57:06.818Z</time></trkpt><trkpt lat="40.6031717" lon="15.3757183"><ele>173.0</ele><time>2026-04-26T15:57:07.818Z</time></trkpt><trkpt lat="40.6032667" lon="15.3758717"><ele>173.0</ele><time>2026-04-26T15:57:08.817Z</time></trkpt><trkpt lat="40.6033567" lon="15.376025"><ele>173.0</ele><time>2026-04-26T15:57:09.817Z</time></trkpt><trkpt lat="40.6034533" lon="15.3761867"><ele>173.0</ele><time>2026-04-26T15:57:10.818Z</time></trkpt><trkpt lat="40.6035517" lon="15.3763583"><ele>171.0</ele><time>2026-04-26T15:57:11.817Z</time></trkpt><trkpt lat="40.603655" lon="15.37653"><ele>169.0</ele><time>2026-04-26T15:57:12.817Z</time></trkpt><trkpt lat="40.6037583" lon="15.3767067"><ele>167.0</ele><time>2026-04-26T15:57:13.818Z</time></trkpt><trkpt lat="40.6038767" lon="15.376895"><ele>171.33333333333331</ele><time>2026-04-26T15:57:14.818Z</time></trkpt><trkpt lat="40.60399" lon="15.3770733"><ele>175.66666666666666</ele><time>2026-04-26T15:57:15.818Z</time></trkpt><trkpt lat="40.6041167" lon="15.3772417"><ele>180.0</ele><time>2026-04-26T15:57:16.818Z</time></trkpt><trkpt lat="40.6042517" lon="15.37741"><ele>180.0</ele><time>2026-04-26T15:57:17.817Z</time></trkpt><trkpt lat="40.604385" lon="15.3775617"><ele>180.0</ele><time>2026-04-26T15:57:18.817Z</time></trkpt><trkpt lat="40.6045133" lon="15.3777167"><ele>180.0</ele><time>2026-04-26T15:57:19.818Z</time></trkpt><trkpt lat="40.6046433" lon="15.377875"><ele>181.0</ele><time>2026-04-26T15:57:20.818Z</time></trkpt><trkpt lat="40.6047817" lon="15.3780367"><ele>182.0</ele><time>2026-04-26T15:57:21.817Z</time></trkpt><trkpt lat="40.604915" lon="15.3782067"><ele>183.0</ele><time>2026-04-26T15:57:22.817Z</time></trkpt><trkpt lat="40.60505" lon="15.378375"><ele>183.0</ele><time>2026-04-26T15:57:23.818Z</time></trkpt><trkpt lat="40.6051817" lon="15.3785317"><ele>183.0</ele><time>2026-04-26T15:57:24.817Z</time></trkpt><trkpt lat="40.6053233" lon="15.3786833"><ele>183.0</ele><time>2026-04-26T15:57:25.818Z</time></trkpt><trkpt lat="40.605465" lon="15.378835"><ele>184.33333333333334</ele><time>2026-04-26T15:57:26.817Z</time></trkpt><trkpt lat="40.6056017" lon="15.3789967"><ele>185.66666666666669</ele><time>2026-04-26T15:57:27.817Z</time></trkpt><trkpt lat="40.6057367" lon="15.37916"><ele>187.0</ele><time>2026-04-26T15:57:28.817Z</time></trkpt><trkpt lat="40.6058717" lon="15.3793217"><ele>187.0</ele><time>2026-04-26T15:57:29.818Z</time></trkpt><trkpt lat="40.6060067" lon="15.379495"><ele>187.0</ele><time>2026-04-26T15:57:30.818Z</time></trkpt><trkpt lat="40.6061417" lon="15.379655"><ele>187.0</ele><time>2026-04-26T15:57:31.817Z</time></trkpt><trkpt lat="40.6062767" lon="15.3798183"><ele>188.0</ele><time>2026-04-26T15:57:32.818Z</time></trkpt><trkpt lat="40.606415" lon="15.3799767"><ele>189.0</ele><time>2026-04-26T15:57:33.818Z</time></trkpt><trkpt lat="40.6065583" lon="15.3801367"><ele>190.0</ele><time>2026-04-26T15:57:34.817Z</time></trkpt><trkpt lat="40.6066967" lon="15.3802983"><ele>190.0</ele><time>2026-04-26T15:57:35.817Z</time></trkpt><trkpt lat="40.606835" lon="15.38046"><ele>190.0</ele><time>2026-04-26T15:57:36.818Z</time></trkpt><trkpt lat="40.6069733" lon="15.3806167"><ele>190.0</ele><time>2026-04-26T15:57:37.817Z</time></trkpt><trkpt lat="40.6071117" lon="15.3807833"><ele>190.66666666666669</ele><time>2026-04-26T15:57:38.818Z</time></trkpt><trkpt lat="40.60725" lon="15.3809483"><ele>191.33333333333334</ele><time>2026-04-26T15:57:39.817Z</time></trkpt><trkpt lat="40.607385" lon="15.3811067"><ele>192.0</ele><time>2026-04-26T15:57:40.818Z</time></trkpt><trkpt lat="40.60752" lon="15.3812683"><ele>190.66666666666666</ele><time>2026-04-26T15:57:41.818Z</time></trkpt><trkpt lat="40.6076583" lon="15.381425"><ele>189.33333333333331</ele><time>2026-04-26T15:57:42.818Z</time></trkpt><trkpt lat="40.6077867" lon="15.38157"><ele>188.0</ele><time>2026-04-26T15:57:43.817Z</time></trkpt><trkpt lat="40.607905" lon="15.3817083"><ele>192.0</ele><time>2026-04-26T15:57:44.817Z</time></trkpt><trkpt lat="40.6080167" lon="15.3818583"><ele>196.0</ele><time>2026-04-26T15:57:45.818Z</time></trkpt><trkpt lat="40.6081283" lon="15.3820283"><ele>200.0</ele><time>2026-04-26T15:57:46.818Z</time></trkpt><trkpt lat="40.6082267" lon="15.3822"><ele>200.0</ele><time>2026-04-26T15:57:47.818Z</time></trkpt><trkpt lat="40.6083217" lon="15.3823733"><ele>200.0</ele><time>2026-04-26T15:57:48.817Z</time></trkpt><trkpt lat="40.6084167" lon="15.3825667"><ele>200.0</ele><time>2026-04-26T15:57:49.817Z</time></trkpt><trkpt lat="40.6085117" lon="15.3827567"><ele>200.0</ele><time>2026-04-26T15:57:50.817Z</time></trkpt><trkpt lat="40.6086183" lon="15.3829267"><ele>200.0</ele><time>2026-04-26T15:57:51.818Z</time></trkpt><trkpt lat="40.6087183" lon="15.3831317"><ele>200.0</ele><time>2026-04-26T15:57:52.817Z</time></trkpt><trkpt lat="40.6088217" lon="15.3833333"><ele>202.0</ele><time>2026-04-26T15:57:53.818Z</time></trkpt><trkpt lat="40.6089333" lon="15.3835367"><ele>204.0</ele><time>2026-04-26T15:57:54.817Z</time></trkpt><trkpt lat="40.6090383" lon="15.3837467"><ele>206.0</ele><time>2026-04-26T15:57:55.817Z</time></trkpt><trkpt lat="40.609145" lon="15.3839567"><ele>206.0</ele><time>2026-04-26T15:57:56.818Z</time></trkpt><trkpt lat="40.6092517" lon="15.38417"><ele>206.0</ele><time>2026-04-26T15:57:57.818Z</time></trkpt><trkpt lat="40.6093583" lon="15.384385"><ele>206.0</ele><time>2026-04-26T15:57:58.818Z</time></trkpt><trkpt lat="40.6094667" lon="15.384585"><ele>208.33333333333334</ele><time>2026-04-26T15:57:59.817Z</time></trkpt><trkpt lat="40.6095783" lon="15.3848"><ele>210.66666666666669</ele><time>2026-04-26T15:58:00.817Z</time></trkpt><trkpt lat="40.6096933" lon="15.3850183"><ele>213.0</ele><time>2026-04-26T15:58:01.817Z</time></trkpt><trkpt lat="40.6098033" lon="15.3852317"><ele>213.0</ele><time>2026-04-26T15:58:02.817Z</time></trkpt><trkpt lat="40.60992" lon="15.3854417"><ele>213.0</ele><time>2026-04-26T15:58:03.817Z</time></trkpt><trkpt lat="40.610035" lon="15.3856633"><ele>213.0</ele><time>2026-04-26T15:58:04.818Z</time></trkpt><trkpt lat="40.610145" lon="15.38587"><ele>213.66666666666669</ele><time>2026-04-26T15:58:05.818Z</time></trkpt><trkpt lat="40.6102483" lon="15.3860767"><ele>214.33333333333334</ele><time>2026-04-26T15:58:06.818Z</time></trkpt><trkpt lat="40.6103433" lon="15.38628"><ele>215.0</ele><time>2026-04-26T15:58:07.818Z</time></trkpt><trkpt lat="40.6104317" lon="15.3864717"><ele>213.0</ele><time>2026-04-26T15:58:08.817Z</time></trkpt><trkpt lat="40.61052" lon="15.386655"><ele>211.0</ele><time>2026-04-26T15:58:09.817Z</time></trkpt><trkpt lat="40.61061" lon="15.3868283"><ele>209.0</ele><time>2026-04-26T15:58:10.817Z</time></trkpt><trkpt lat="40.6106883" lon="15.3869867"><ele>209.0</ele><time>2026-04-26T15:58:11.818Z</time></trkpt><trkpt lat="40.6107583" lon="15.38713"><ele>209.0</ele><time>2026-04-26T15:58:12.817Z</time></trkpt><trkpt lat="40.6108167" lon="15.3872533"><ele>209.0</ele><time>2026-04-26T15:58:13.817Z</time></trkpt><trkpt lat="40.6108667" lon="15.3873733"><ele>209.0</ele><time>2026-04-26T15:58:14.818Z</time></trkpt><trkpt lat="40.61092" lon="15.387475"><ele>209.0</ele><time>2026-04-26T15:58:15.817Z</time></trkpt><trkpt lat="40.610985" lon="15.3875383"><ele>208.50000000000003</ele><time>2026-04-26T15:58:16.818Z</time></trkpt><trkpt lat="40.61106" lon="15.3875633"><ele>208.0</ele><time>2026-04-26T15:58:17.817Z</time></trkpt><trkpt lat="40.6111267" lon="15.3875467"><ele>207.5</ele><time>2026-04-26T15:58:18.818Z</time></trkpt><trkpt lat="40.611185" lon="15.3874733"><ele>207.0</ele><time>2026-04-26T15:58:20.818Z</time></trkpt><trkpt lat="40.6112033" lon="15.3873933"><ele>206.50000000000003</ele><time>2026-04-26T15:58:22.817Z</time></trkpt><trkpt lat="40.6112333" lon="15.38727"><ele>206.0</ele><time>2026-04-26T15:58:24.817Z</time></trkpt><trkpt lat="40.6112533" lon="15.3871667"><ele>213.5</ele><time>2026-04-26T15:58:25.818Z</time></trkpt><trkpt lat="40.6112767" lon="15.3870383"><ele>221.0</ele><time>2026-04-26T15:58:26.818Z</time></trkpt><trkpt lat="40.6113" lon="15.3868833"><ele>228.5</ele><time>2026-04-26T15:58:27.818Z</time></trkpt><trkpt lat="40.6113233" lon="15.38671"><ele>236.0</ele><time>2026-04-26T15:58:28.818Z</time></trkpt><trkpt lat="40.61135" lon="15.3865217"><ele>233.66666666666669</ele><time>2026-04-26T15:58:29.817Z</time></trkpt><trkpt lat="40.6113783" lon="15.3863267"><ele>231.33333333333331</ele><time>2026-04-26T15:58:30.818Z</time></trkpt><trkpt lat="40.6114117" lon="15.3861183"><ele>229.0</ele><time>2026-04-26T15:58:31.818Z</time></trkpt><trkpt lat="40.61144" lon="15.3858883"><ele>229.0</ele><time>2026-04-26T15:58:32.818Z</time></trkpt><trkpt lat="40.6114917" lon="15.3856533"><ele>229.0</ele><time>2026-04-26T15:58:33.818Z</time></trkpt><trkpt lat="40.61153" lon="15.3854233"><ele>229.0</ele><time>2026-04-26T15:58:34.818Z</time></trkpt><trkpt lat="40.6115683" lon="15.3851883"><ele>229.33333333333331</ele><time>2026-04-26T15:58:35.817Z</time></trkpt><trkpt lat="40.6115967" lon="15.38495"><ele>229.66666666666669</ele><time>2026-04-26T15:58:36.817Z</time></trkpt><trkpt lat="40.611475" lon="15.3846933"><ele>230.0</ele><time>2026-04-26T15:58:37.817Z</time></trkpt><trkpt lat="40.6114833" lon="15.384465"><ele>230.0</ele><time>2026-04-26T15:58:38.818Z</time></trkpt><trkpt lat="40.611345" lon="15.3842067"><ele>230.0</ele><time>2026-04-26T15:58:39.817Z</time></trkpt><trkpt lat="40.6112883" lon="15.3839667"><ele>230.0</ele><time>2026-04-26T15:58:40.817Z</time></trkpt><trkpt lat="40.6112283" lon="15.3837267"><ele>227.66666666666669</ele><time>2026-04-26T15:58:41.817Z</time></trkpt><trkpt lat="40.6111667" lon="15.3834833"><ele>225.33333333333331</ele><time>2026-04-26T15:58:42.818Z</time></trkpt><trkpt lat="40.61108" lon="15.3832217"><ele>223.0</ele><time>2026-04-26T15:58:43.818Z</time></trkpt><trkpt lat="40.6108183" lon="15.3831867"><ele>223.0</ele><time>2026-04-26T15:58:44.818Z</time></trkpt><trkpt lat="40.6105883" lon="15.383135"><ele>223.0</ele><time>2026-04-26T15:58:45.817Z</time></trkpt><trkpt lat="40.6103017" lon="15.3831467"><ele>220.0</ele><time>2026-04-26T15:58:46.818Z</time></trkpt><trkpt lat="40.61006" lon="15.38307"><ele>217.0</ele><time>2026-04-26T15:58:47.817Z</time></trkpt><trkpt lat="40.609855" lon="15.3829433"><ele>217.0</ele><time>2026-04-26T15:58:48.818Z</time></trkpt><trkpt lat="40.6096883" lon="15.382785"><ele>217.0</ele><time>2026-04-26T15:58:49.817Z</time></trkpt><trkpt lat="40.609545" lon="15.3825983"><ele>217.0</ele><time>2026-04-26T15:58:50.817Z</time></trkpt><trkpt lat="40.6094033" lon="15.3824"><ele>214.33333333333331</ele><time>2026-04-26T15:58:51.818Z</time></trkpt><trkpt lat="40.6092583" lon="15.3822067"><ele>211.66666666666669</ele><time>2026-04-26T15:58:52.818Z</time></trkpt><trkpt lat="40.609105" lon="15.381995"><ele>209.0</ele><time>2026-04-26T15:58:53.817Z</time></trkpt><trkpt lat="40.60896" lon="15.3817733"><ele>208.66666666666669</ele><time>2026-04-26T15:58:54.818Z</time></trkpt><trkpt lat="40.6088233" lon="15.3815617"><ele>208.33333333333331</ele><time>2026-04-26T15:58:55.818Z</time></trkpt><trkpt lat="40.6086833" lon="15.381335"><ele>208.0</ele><time>2026-04-26T15:58:56.818Z</time></trkpt><trkpt lat="40.6085417" lon="15.381105"><ele>207.33333333333331</ele><time>2026-04-26T15:58:57.817Z</time></trkpt><trkpt lat="40.6084017" lon="15.3808767"><ele>206.66666666666669</ele><time>2026-04-26T15:58:58.818Z</time></trkpt><trkpt lat="40.6082667" lon="15.3806383"><ele>206.0</ele><time>2026-04-26T15:58:59.817Z</time></trkpt><trkpt lat="40.6081283" lon="15.3804033"><ele>206.0</ele><time>2026-04-26T15:59:00.818Z</time></trkpt><trkpt lat="40.6079967" lon="15.3801717"><ele>206.0</ele><time>2026-04-26T15:59:01.818Z</time></trkpt><trkpt lat="40.6078583" lon="15.3799483"><ele>206.0</ele><time>2026-04-26T15:59:02.818Z</time></trkpt><trkpt lat="40.6077183" lon="15.379725"><ele>205.33333333333334</ele><time>2026-04-26T15:59:03.818Z</time></trkpt><trkpt lat="40.6075833" lon="15.3794967"><ele>204.66666666666669</ele><time>2026-04-26T15:59:04.818Z</time></trkpt><trkpt lat="40.60745" lon="15.3792667"><ele>204.0</ele><time>2026-04-26T15:59:05.817Z</time></trkpt><trkpt lat="40.607315" lon="15.3790333"><ele>203.33333333333331</ele><time>2026-04-26T15:59:06.818Z</time></trkpt><trkpt lat="40.6071783" lon="15.3788"><ele>202.66666666666666</ele><time>2026-04-26T15:59:07.818Z</time></trkpt><trkpt lat="40.607045" lon="15.3785667"><ele>202.0</ele><time>2026-04-26T15:59:08.817Z</time></trkpt><trkpt lat="40.6069133" lon="15.378335"><ele>202.0</ele><time>2026-04-26T15:59:09.817Z</time></trkpt><trkpt lat="40.6067767" lon="15.3781083"><ele>202.0</ele><time>2026-04-26T15:59:10.818Z</time></trkpt><trkpt lat="40.60664" lon="15.37788"><ele>202.0</ele><time>2026-04-26T15:59:11.818Z</time></trkpt><trkpt lat="40.6065067" lon="15.3776483"><ele>201.66666666666666</ele><time>2026-04-26T15:59:12.817Z</time></trkpt><trkpt lat="40.6063717" lon="15.3774183"><ele>201.33333333333331</ele><time>2026-04-26T15:59:13.818Z</time></trkpt><trkpt lat="40.6062333" lon="15.3771867"><ele>201.0</ele><time>2026-04-26T15:59:14.818Z</time></trkpt><trkpt lat="40.6061" lon="15.3769567"><ele>201.0</ele><time>2026-04-26T15:59:15.818Z</time></trkpt><trkpt lat="40.6059667" lon="15.3767233"><ele>201.0</ele><time>2026-04-26T15:59:16.817Z</time></trkpt><trkpt lat="40.6058333" lon="15.3764883"><ele>201.0</ele><time>2026-04-26T15:59:17.817Z</time></trkpt><trkpt lat="40.6057083" lon="15.37626"><ele>200.66666666666669</ele><time>2026-04-26T15:59:18.818Z</time></trkpt><trkpt lat="40.6055717" lon="15.37603"><ele>200.33333333333334</ele><time>2026-04-26T15:59:19.818Z</time></trkpt><trkpt lat="40.60544" lon="15.3758017"><ele>200.0</ele><time>2026-04-26T15:59:20.817Z</time></trkpt><trkpt lat="40.6053" lon="15.3755733"><ele>200.66666666666669</ele><time>2026-04-26T15:59:21.818Z</time></trkpt><trkpt lat="40.605165" lon="15.3753467"><ele>201.33333333333331</ele><time>2026-04-26T15:59:22.818Z</time></trkpt><trkpt lat="40.6050317" lon="15.3751167"><ele>202.0</ele><time>2026-04-26T15:59:23.818Z</time></trkpt><trkpt lat="40.6048967" lon="15.374885"><ele>203.0</ele><time>2026-04-26T15:59:24.818Z</time></trkpt><trkpt lat="40.6047617" lon="15.3746583"><ele>204.0</ele><time>2026-04-26T15:59:25.818Z</time></trkpt><trkpt lat="40.60462" lon="15.374425"><ele>205.0</ele><time>2026-04-26T15:59:26.818Z</time></trkpt><trkpt lat="40.6044883" lon="15.3741883"><ele>202.66666666666666</ele><time>2026-04-26T15:59:27.818Z</time></trkpt><trkpt lat="40.604355" lon="15.3739533"><ele>200.33333333333331</ele><time>2026-04-26T15:59:28.818Z</time></trkpt><trkpt lat="40.6042217" lon="15.3737167"><ele>198.0</ele><time>2026-04-26T15:59:29.818Z</time></trkpt><trkpt lat="40.6040883" lon="15.3734867"><ele>198.0</ele><time>2026-04-26T15:59:30.818Z</time></trkpt><trkpt lat="40.6039533" lon="15.3732583"><ele>198.0</ele><time>2026-04-26T15:59:31.818Z</time></trkpt><trkpt lat="40.6038183" lon="15.3730283"><ele>198.0</ele><time>2026-04-26T15:59:32.817Z</time></trkpt><trkpt lat="40.6036883" lon="15.3727983"><ele>197.33333333333331</ele><time>2026-04-26T15:59:33.818Z</time></trkpt><trkpt lat="40.60355" lon="15.3725683"><ele>196.66666666666666</ele><time>2026-04-26T15:59:34.818Z</time></trkpt><trkpt lat="40.6034167" lon="15.3723383"><ele>196.0</ele><time>2026-04-26T15:59:35.818Z</time></trkpt><trkpt lat="40.603285" lon="15.3721017"><ele>198.66666666666666</ele><time>2026-04-26T15:59:36.817Z</time></trkpt><trkpt lat="40.60315" lon="15.3718683"><ele>201.33333333333331</ele><time>2026-04-26T15:59:37.818Z</time></trkpt><trkpt lat="40.6030233" lon="15.3716367"><ele>204.0</ele><time>2026-04-26T15:59:38.817Z</time></trkpt><trkpt lat="40.6028967" lon="15.3714017"><ele>204.33333333333331</ele><time>2026-04-26T15:59:39.817Z</time></trkpt><trkpt lat="40.6027617" lon="15.3711733"><ele>204.66666666666666</ele><time>2026-04-26T15:59:40.818Z</time></trkpt><trkpt lat="40.6026217" lon="15.3709517"><ele>205.0</ele><time>2026-04-26T15:59:41.817Z</time></trkpt><trkpt lat="40.6024833" lon="15.370725"><ele>206.0</ele><time>2026-04-26T15:59:42.818Z</time></trkpt><trkpt lat="40.6023433" lon="15.3704967"><ele>207.0</ele><time>2026-04-26T15:59:43.817Z</time></trkpt><trkpt lat="40.6022033" lon="15.3702733"><ele>208.0</ele><time>2026-04-26T15:59:44.817Z</time></trkpt><trkpt lat="40.602065" lon="15.370045"><ele>207.33333333333331</ele><time>2026-04-26T15:59:45.818Z</time></trkpt><trkpt lat="40.6019283" lon="15.369815"><ele>206.66666666666669</ele><time>2026-04-26T15:59:46.817Z</time></trkpt><trkpt lat="40.6017967" lon="15.369585"><ele>206.0</ele><time>2026-04-26T15:59:47.818Z</time></trkpt><trkpt lat="40.6016617" lon="15.3693533"><ele>206.0</ele><time>2026-04-26T15:59:48.817Z</time></trkpt><trkpt lat="40.6015317" lon="15.3691167"><ele>206.0</ele><time>2026-04-26T15:59:49.817Z</time></trkpt><trkpt lat="40.601395" lon="15.3688817"><ele>206.0</ele><time>2026-04-26T15:59:50.818Z</time></trkpt><trkpt lat="40.60126" lon="15.368645"><ele>202.33333333333334</ele><time>2026-04-26T15:59:51.818Z</time></trkpt><trkpt lat="40.6011333" lon="15.36842"><ele>198.66666666666669</ele><time>2026-04-26T15:59:52.817Z</time></trkpt><trkpt lat="40.600995" lon="15.3681783"><ele>195.0</ele><time>2026-04-26T15:59:53.818Z</time></trkpt><trkpt lat="40.6008633" lon="15.3679433"><ele>193.0</ele><time>2026-04-26T15:59:54.818Z</time></trkpt><trkpt lat="40.60073" lon="15.3677117"><ele>191.0</ele><time>2026-04-26T15:59:55.817Z</time></trkpt><trkpt lat="40.60061" lon="15.3674717"><ele>189.0</ele><time>2026-04-26T15:59:56.817Z</time></trkpt><trkpt lat="40.600485" lon="15.367225"><ele>190.0</ele><time>2026-04-26T15:59:57.817Z</time></trkpt><trkpt lat="40.6003633" lon="15.3669817"><ele>191.0</ele><time>2026-04-26T15:59:58.818Z</time></trkpt><trkpt lat="40.6002483" lon="15.3667333"><ele>192.0</ele><time>2026-04-26T15:59:59.818Z</time></trkpt><trkpt lat="40.6001333" lon="15.3664867"><ele>193.66666666666669</ele><time>2026-04-26T16:00:00.817Z</time></trkpt><trkpt lat="40.600025" lon="15.3662267"><ele>195.33333333333334</ele><time>2026-04-26T16:00:01.818Z</time></trkpt><trkpt lat="40.5999217" lon="15.3659717"><ele>197.0</ele><time>2026-04-26T16:00:02.818Z</time></trkpt><trkpt lat="40.59982" lon="15.36572"><ele>198.33333333333334</ele><time>2026-04-26T16:00:03.817Z</time></trkpt><trkpt lat="40.5997267" lon="15.3654633"><ele>199.66666666666669</ele><time>2026-04-26T16:00:04.817Z</time></trkpt><trkpt lat="40.5996333" lon="15.3652017"><ele>201.0</ele><time>2026-04-26T16:00:05.817Z</time></trkpt><trkpt lat="40.5995433" lon="15.3649317"><ele>197.66666666666666</ele><time>2026-04-26T16:00:06.817Z</time></trkpt><trkpt lat="40.59945" lon="15.36466"><ele>194.33333333333331</ele><time>2026-04-26T16:00:07.817Z</time></trkpt><trkpt lat="40.5993567" lon="15.3643933"><ele>191.0</ele><time>2026-04-26T16:00:08.818Z</time></trkpt><trkpt lat="40.5992717" lon="15.364125"><ele>191.66666666666666</ele><time>2026-04-26T16:00:09.817Z</time></trkpt><trkpt lat="40.5991917" lon="15.363855"><ele>192.33333333333331</ele><time>2026-04-26T16:00:10.817Z</time></trkpt><trkpt lat="40.599115" lon="15.3635867"><ele>193.0</ele><time>2026-04-26T16:00:11.818Z</time></trkpt><trkpt lat="40.5990417" lon="15.3633117"><ele>193.0</ele><time>2026-04-26T16:00:12.817Z</time></trkpt><trkpt lat="40.598975" lon="15.363035"><ele>193.0</ele><time>2026-04-26T16:00:13.817Z</time></trkpt><trkpt lat="40.5989083" lon="15.36275"><ele>193.0</ele><time>2026-04-26T16:00:14.818Z</time></trkpt><trkpt lat="40.598845" lon="15.3624683"><ele>194.33333333333331</ele><time>2026-04-26T16:00:15.818Z</time></trkpt><trkpt lat="40.5987833" lon="15.362185"><ele>195.66666666666669</ele><time>2026-04-26T16:00:16.818Z</time></trkpt><trkpt lat="40.59873" lon="15.3619"><ele>197.0</ele><time>2026-04-26T16:00:17.818Z</time></trkpt><trkpt lat="40.5986783" lon="15.3616133"><ele>191.33333333333334</ele><time>2026-04-26T16:00:18.817Z</time></trkpt><trkpt lat="40.5986317" lon="15.36133"><ele>185.66666666666669</ele><time>2026-04-26T16:00:19.817Z</time></trkpt><trkpt lat="40.5985867" lon="15.3610467"><ele>180.0</ele><time>2026-04-26T16:00:20.817Z</time></trkpt><trkpt lat="40.5985433" lon="15.3607567"><ele>179.66666666666666</ele><time>2026-04-26T16:00:21.818Z</time></trkpt><trkpt lat="40.5985033" lon="15.3604633"><ele>179.33333333333331</ele><time>2026-04-26T16:00:22.818Z</time></trkpt><trkpt lat="40.5984683" lon="15.3601733"><ele>179.0</ele><time>2026-04-26T16:00:23.818Z</time></trkpt><trkpt lat="40.5984383" lon="15.3598817"><ele>178.66666666666666</ele><time>2026-04-26T16:00:24.818Z</time></trkpt><trkpt lat="40.5984117" lon="15.3595933"><ele>178.33333333333334</ele><time>2026-04-26T16:00:25.817Z</time></trkpt><trkpt lat="40.59839" lon="15.359305"><ele>178.0</ele><time>2026-04-26T16:00:26.817Z</time></trkpt><trkpt lat="40.5983717" lon="15.3590083"><ele>178.33333333333334</ele><time>2026-04-26T16:00:27.817Z</time></trkpt><trkpt lat="40.598355" lon="15.3587083"><ele>178.66666666666666</ele><time>2026-04-26T16:00:28.818Z</time></trkpt><trkpt lat="40.5983417" lon="15.3584183"><ele>179.0</ele><time>2026-04-26T16:00:29.818Z</time></trkpt><trkpt lat="40.59833" lon="15.3581333"><ele>178.0</ele><time>2026-04-26T16:00:30.817Z</time></trkpt><trkpt lat="40.5983167" lon="15.3578483"><ele>177.0</ele><time>2026-04-26T16:00:31.818Z</time></trkpt><trkpt lat="40.5983" lon="15.3575633"><ele>176.0</ele><time>2026-04-26T16:00:32.817Z</time></trkpt><trkpt lat="40.5982767" lon="15.357275"><ele>176.0</ele><time>2026-04-26T16:00:33.818Z</time></trkpt><trkpt lat="40.59826" lon="15.35699"><ele>176.0</ele><time>2026-04-26T16:00:34.818Z</time></trkpt><trkpt lat="40.598235" lon="15.356705"><ele>176.0</ele><time>2026-04-26T16:00:35.817Z</time></trkpt><trkpt lat="40.5982083" lon="15.35642"><ele>177.0</ele><time>2026-04-26T16:00:36.818Z</time></trkpt><trkpt lat="40.5981783" lon="15.35613"><ele>178.0</ele><time>2026-04-26T16:00:37.818Z</time></trkpt><trkpt lat="40.59814" lon="15.3558467"><ele>179.0</ele><time>2026-04-26T16:00:38.818Z</time></trkpt><trkpt lat="40.598095" lon="15.355565"><ele>179.33333333333331</ele><time>2026-04-26T16:00:39.817Z</time></trkpt><trkpt lat="40.59804" lon="15.355285"><ele>179.66666666666666</ele><time>2026-04-26T16:00:40.818Z</time></trkpt><trkpt lat="40.5979817" lon="15.355"><ele>180.0</ele><time>2026-04-26T16:00:41.818Z</time></trkpt><trkpt lat="40.597915" lon="15.3547233"><ele>180.0</ele><time>2026-04-26T16:00:42.817Z</time></trkpt><trkpt lat="40.59784" lon="15.3544583"><ele>180.0</ele><time>2026-04-26T16:00:43.818Z</time></trkpt><trkpt lat="40.5977617" lon="15.3541833"><ele>180.0</ele><time>2026-04-26T16:00:44.817Z</time></trkpt><trkpt lat="40.597675" lon="15.3539117"><ele>173.66666666666666</ele><time>2026-04-26T16:00:45.818Z</time></trkpt><trkpt lat="40.597585" lon="15.353645"><ele>167.33333333333331</ele><time>2026-04-26T16:00:46.818Z</time></trkpt><trkpt lat="40.597485" lon="15.3533867"><ele>161.0</ele><time>2026-04-26T16:00:47.818Z</time></trkpt><trkpt lat="40.5973767" lon="15.3531267"><ele>161.0</ele><time>2026-04-26T16:00:48.817Z</time></trkpt><trkpt lat="40.59726" lon="15.35288"><ele>161.0</ele><time>2026-04-26T16:00:49.817Z</time></trkpt><trkpt lat="40.597135" lon="15.3526333"><ele>161.0</ele><time>2026-04-26T16:00:50.818Z</time></trkpt><trkpt lat="40.5970067" lon="15.3523883"><ele>158.33333333333331</ele><time>2026-04-26T16:00:51.818Z</time></trkpt><trkpt lat="40.59689" lon="15.3521567"><ele>155.66666666666666</ele><time>2026-04-26T16:00:52.818Z</time></trkpt><trkpt lat="40.596755" lon="15.3519217"><ele>153.0</ele><time>2026-04-26T16:00:53.818Z</time></trkpt><trkpt lat="40.5966167" lon="15.3516817"><ele>153.0</ele><time>2026-04-26T16:00:54.818Z</time></trkpt><trkpt lat="40.596485" lon="15.3514433"><ele>153.0</ele><time>2026-04-26T16:00:55.817Z</time></trkpt><trkpt lat="40.596365" lon="15.351205"><ele>153.0</ele><time>2026-04-26T16:00:56.818Z</time></trkpt><trkpt lat="40.5962517" lon="15.350955"><ele>152.33333333333334</ele><time>2026-04-26T16:00:57.817Z</time></trkpt><trkpt lat="40.596145" lon="15.3506983"><ele>151.66666666666669</ele><time>2026-04-26T16:00:58.818Z</time></trkpt><trkpt lat="40.5960517" lon="15.3504383"><ele>151.0</ele><time>2026-04-26T16:00:59.817Z</time></trkpt><trkpt lat="40.595965" lon="15.3501717"><ele>151.0</ele><time>2026-04-26T16:01:00.818Z</time></trkpt><trkpt lat="40.5958867" lon="15.3499033"><ele>151.0</ele><time>2026-04-26T16:01:01.818Z</time></trkpt><trkpt lat="40.5958117" lon="15.34963"><ele>151.0</ele><time>2026-04-26T16:01:02.818Z</time></trkpt><trkpt lat="40.595745" lon="15.3493533"><ele>153.0</ele><time>2026-04-26T16:01:03.818Z</time></trkpt><trkpt lat="40.5956917" lon="15.349075"><ele>155.0</ele><time>2026-04-26T16:01:04.817Z</time></trkpt><trkpt lat="40.5956517" lon="15.3487917"><ele>157.0</ele><time>2026-04-26T16:01:05.818Z</time></trkpt><trkpt lat="40.5956133" lon="15.3485033"><ele>158.33333333333334</ele><time>2026-04-26T16:01:06.818Z</time></trkpt><trkpt lat="40.5955867" lon="15.348215"><ele>159.66666666666666</ele><time>2026-04-26T16:01:07.817Z</time></trkpt><trkpt lat="40.5955633" lon="15.347925"><ele>161.0</ele><time>2026-04-26T16:01:08.817Z</time></trkpt><trkpt lat="40.59555" lon="15.3476367"><ele>161.0</ele><time>2026-04-26T16:01:09.818Z</time></trkpt><trkpt lat="40.5955483" lon="15.3473467"><ele>161.0</ele><time>2026-04-26T16:01:10.817Z</time></trkpt><trkpt lat="40.5955483" lon="15.34706"><ele>161.0</ele><time>2026-04-26T16:01:11.818Z</time></trkpt><trkpt lat="40.59555" lon="15.34677"><ele>161.0</ele><time>2026-04-26T16:01:12.818Z</time></trkpt><trkpt lat="40.5955567" lon="15.346475"><ele>161.0</ele><time>2026-04-26T16:01:13.818Z</time></trkpt><trkpt lat="40.5955667" lon="15.34618"><ele>161.0</ele><time>2026-04-26T16:01:14.817Z</time></trkpt><trkpt lat="40.5955767" lon="15.3458867"><ele>162.0</ele><time>2026-04-26T16:01:15.817Z</time></trkpt><trkpt lat="40.5955833" lon="15.345595"><ele>163.0</ele><time>2026-04-26T16:01:16.818Z</time></trkpt><trkpt lat="40.5955883" lon="15.345305"><ele>164.0</ele><time>2026-04-26T16:01:17.817Z</time></trkpt><trkpt lat="40.595595" lon="15.3450133"><ele>164.0</ele><time>2026-04-26T16:01:18.818Z</time></trkpt><trkpt lat="40.595605" lon="15.3447283"><ele>164.0</ele><time>2026-04-26T16:01:19.817Z</time></trkpt><trkpt lat="40.5956117" lon="15.34444"><ele>164.0</ele><time>2026-04-26T16:01:20.817Z</time></trkpt><trkpt lat="40.5956217" lon="15.3441483"><ele>163.33333333333331</ele><time>2026-04-26T16:01:21.818Z</time></trkpt><trkpt lat="40.5956333" lon="15.3438583"><ele>162.66666666666666</ele><time>2026-04-26T16:01:22.818Z</time></trkpt><trkpt lat="40.595645" lon="15.3435667"><ele>162.0</ele><time>2026-04-26T16:01:23.818Z</time></trkpt><trkpt lat="40.5956517" lon="15.3432783"><ele>161.66666666666666</ele><time>2026-04-26T16:01:24.818Z</time></trkpt><trkpt lat="40.59566" lon="15.3429883"><ele>161.33333333333331</ele><time>2026-04-26T16:01:25.817Z</time></trkpt><trkpt lat="40.5956717" lon="15.3427017"><ele>161.0</ele><time>2026-04-26T16:01:26.817Z</time></trkpt><trkpt lat="40.5956817" lon="15.34241"><ele>159.66666666666666</ele><time>2026-04-26T16:01:27.817Z</time></trkpt><trkpt lat="40.5956917" lon="15.34212"><ele>158.33333333333334</ele><time>2026-04-26T16:01:28.817Z</time></trkpt><trkpt lat="40.5957083" lon="15.341825"><ele>157.0</ele><time>2026-04-26T16:01:29.818Z</time></trkpt><trkpt lat="40.5957317" lon="15.3415333"><ele>155.33333333333334</ele><time>2026-04-26T16:01:30.817Z</time></trkpt><trkpt lat="40.5957667" lon="15.3412517"><ele>153.66666666666666</ele><time>2026-04-26T16:01:31.817Z</time></trkpt><trkpt lat="40.5958183" lon="15.3409733"><ele>152.0</ele><time>2026-04-26T16:01:32.818Z</time></trkpt><trkpt lat="40.5958717" lon="15.34069"><ele>150.33333333333331</ele><time>2026-04-26T16:01:33.818Z</time></trkpt><trkpt lat="40.5959367" lon="15.3404117"><ele>148.66666666666666</ele><time>2026-04-26T16:01:34.818Z</time></trkpt><trkpt lat="40.5960067" lon="15.34014"><ele>147.0</ele><time>2026-04-26T16:01:35.817Z</time></trkpt><trkpt lat="40.5960867" lon="15.3398683"><ele>148.33333333333334</ele><time>2026-04-26T16:01:36.817Z</time></trkpt><trkpt lat="40.5961717" lon="15.3395967"><ele>149.66666666666669</ele><time>2026-04-26T16:01:37.818Z</time></trkpt><trkpt lat="40.5962633" lon="15.3393283"><ele>151.0</ele><time>2026-04-26T16:01:38.817Z</time></trkpt><trkpt lat="40.5963617" lon="15.33907"><ele>149.66666666666669</ele><time>2026-04-26T16:01:39.818Z</time></trkpt><trkpt lat="40.5964733" lon="15.3388217"><ele>148.33333333333334</ele><time>2026-04-26T16:01:40.818Z</time></trkpt><trkpt lat="40.59659" lon="15.3385833"><ele>147.0</ele><time>2026-04-26T16:01:41.818Z</time></trkpt><trkpt lat="40.5967117" lon="15.338335"><ele>147.0</ele><time>2026-04-26T16:01:42.817Z</time></trkpt><trkpt lat="40.5968417" lon="15.3381"><ele>147.0</ele><time>2026-04-26T16:01:43.817Z</time></trkpt><trkpt lat="40.5969867" lon="15.3378683"><ele>147.0</ele><time>2026-04-26T16:01:44.817Z</time></trkpt><trkpt lat="40.5971283" lon="15.3376467"><ele>145.66666666666666</ele><time>2026-04-26T16:01:45.817Z</time></trkpt><trkpt lat="40.597275" lon="15.3374283"><ele>144.33333333333331</ele><time>2026-04-26T16:01:46.817Z</time></trkpt><trkpt lat="40.5974233" lon="15.3372217"><ele>143.0</ele><time>2026-04-26T16:01:47.818Z</time></trkpt><trkpt lat="40.5975667" lon="15.3369983"><ele>143.0</ele><time>2026-04-26T16:01:48.817Z</time></trkpt><trkpt lat="40.5977183" lon="15.3367833"><ele>143.0</ele><time>2026-04-26T16:01:49.818Z</time></trkpt><trkpt lat="40.597865" lon="15.336575"><ele>143.0</ele><time>2026-04-26T16:01:50.817Z</time></trkpt><trkpt lat="40.598015" lon="15.3363583"><ele>144.33333333333331</ele><time>2026-04-26T16:01:51.817Z</time></trkpt><trkpt lat="40.59816" lon="15.3361433"><ele>145.66666666666666</ele><time>2026-04-26T16:01:52.818Z</time></trkpt><trkpt lat="40.5983083" lon="15.335925"><ele>147.0</ele><time>2026-04-26T16:01:53.817Z</time></trkpt><trkpt lat="40.598455" lon="15.335705"><ele>145.33333333333334</ele><time>2026-04-26T16:01:54.817Z</time></trkpt><trkpt lat="40.5986033" lon="15.33549"><ele>143.66666666666669</ele><time>2026-04-26T16:01:55.817Z</time></trkpt><trkpt lat="40.5987517" lon="15.3352667"><ele>142.0</ele><time>2026-04-26T16:01:56.818Z</time></trkpt><trkpt lat="40.5988967" lon="15.3350433"><ele>141.33333333333334</ele><time>2026-04-26T16:01:57.817Z</time></trkpt><trkpt lat="40.5990383" lon="15.3348267"><ele>140.66666666666666</ele><time>2026-04-26T16:01:58.818Z</time></trkpt><trkpt lat="40.5991817" lon="15.3346117"><ele>140.0</ele><time>2026-04-26T16:01:59.818Z</time></trkpt><trkpt lat="40.59933" lon="15.3343967"><ele>140.0</ele><time>2026-04-26T16:02:00.818Z</time></trkpt><trkpt lat="40.5994783" lon="15.334175"><ele>140.0</ele><time>2026-04-26T16:02:01.818Z</time></trkpt><trkpt lat="40.599625" lon="15.3339633"><ele>140.0</ele><time>2026-04-26T16:02:02.817Z</time></trkpt><trkpt lat="40.59977" lon="15.3337467"><ele>140.66666666666666</ele><time>2026-04-26T16:02:03.818Z</time></trkpt><trkpt lat="40.599915" lon="15.3335317"><ele>141.33333333333334</ele><time>2026-04-26T16:02:04.817Z</time></trkpt><trkpt lat="40.600065" lon="15.3333133"><ele>142.0</ele><time>2026-04-26T16:02:05.817Z</time></trkpt><trkpt lat="40.60022" lon="15.333095"><ele>144.0</ele><time>2026-04-26T16:02:06.818Z</time></trkpt><trkpt lat="40.6003667" lon="15.332885"><ele>146.0</ele><time>2026-04-26T16:02:07.817Z</time></trkpt><trkpt lat="40.6005133" lon="15.3326717"><ele>148.0</ele><time>2026-04-26T16:02:08.818Z</time></trkpt><trkpt lat="40.6006567" lon="15.33245"><ele>148.0</ele><time>2026-04-26T16:02:09.818Z</time></trkpt><trkpt lat="40.6008083" lon="15.332235"><ele>148.0</ele><time>2026-04-26T16:02:10.818Z</time></trkpt><trkpt lat="40.6009583" lon="15.3320167"><ele>148.0</ele><time>2026-04-26T16:02:11.817Z</time></trkpt><trkpt lat="40.601105" lon="15.3318017"><ele>146.33333333333334</ele><time>2026-04-26T16:02:12.818Z</time></trkpt><trkpt lat="40.6012467" lon="15.3315833"><ele>144.66666666666666</ele><time>2026-04-26T16:02:13.817Z</time></trkpt><trkpt lat="40.6013833" lon="15.3313683"><ele>143.0</ele><time>2026-04-26T16:02:14.818Z</time></trkpt><trkpt lat="40.6015183" lon="15.331145"><ele>143.0</ele><time>2026-04-26T16:02:15.817Z</time></trkpt><trkpt lat="40.6016433" lon="15.3309033"><ele>143.0</ele><time>2026-04-26T16:02:16.817Z</time></trkpt><trkpt lat="40.6017633" lon="15.3306617"><ele>143.0</ele><time>2026-04-26T16:02:17.817Z</time></trkpt><trkpt lat="40.601875" lon="15.3304083"><ele>144.0</ele><time>2026-04-26T16:02:18.818Z</time></trkpt><trkpt lat="40.6019733" lon="15.3301467"><ele>145.0</ele><time>2026-04-26T16:02:19.818Z</time></trkpt><trkpt lat="40.6020617" lon="15.329875"><ele>146.0</ele><time>2026-04-26T16:02:20.818Z</time></trkpt><trkpt lat="40.6021433" lon="15.3296067"><ele>146.0</ele><time>2026-04-26T16:02:21.818Z</time></trkpt><trkpt lat="40.602215" lon="15.3293283"><ele>146.0</ele><time>2026-04-26T16:02:22.818Z</time></trkpt><trkpt lat="40.6022767" lon="15.32905"><ele>146.0</ele><time>2026-04-26T16:02:23.818Z</time></trkpt><trkpt lat="40.6023317" lon="15.3287667"><ele>146.0</ele><time>2026-04-26T16:02:24.817Z</time></trkpt><trkpt lat="40.602375" lon="15.3284767"><ele>146.0</ele><time>2026-04-26T16:02:25.817Z</time></trkpt><trkpt lat="40.6024" lon="15.3281867"><ele>146.0</ele><time>2026-04-26T16:02:26.817Z</time></trkpt><trkpt lat="40.6024183" lon="15.3278983"><ele>146.0</ele><time>2026-04-26T16:02:27.818Z</time></trkpt><trkpt lat="40.6024317" lon="15.327615"><ele>146.0</ele><time>2026-04-26T16:02:28.817Z</time></trkpt><trkpt lat="40.602445" lon="15.3273267"><ele>146.0</ele><time>2026-04-26T16:02:29.817Z</time></trkpt><trkpt lat="40.6024583" lon="15.32704"><ele>145.0</ele><time>2026-04-26T16:02:30.818Z</time></trkpt><trkpt lat="40.6024717" lon="15.326755"><ele>144.0</ele><time>2026-04-26T16:02:31.818Z</time></trkpt><trkpt lat="40.602495" lon="15.3264633"><ele>143.0</ele><time>2026-04-26T16:02:32.818Z</time></trkpt><trkpt lat="40.602525" lon="15.3261767"><ele>143.0</ele><time>2026-04-26T16:02:33.817Z</time></trkpt><trkpt lat="40.6025683" lon="15.3258967"><ele>143.0</ele><time>2026-04-26T16:02:34.817Z</time></trkpt><trkpt lat="40.602625" lon="15.3256117"><ele>143.0</ele><time>2026-04-26T16:02:35.817Z</time></trkpt><trkpt lat="40.6026883" lon="15.3253333"><ele>143.0</ele><time>2026-04-26T16:02:36.818Z</time></trkpt><trkpt lat="40.602765" lon="15.32506"><ele>143.0</ele><time>2026-04-26T16:02:37.817Z</time></trkpt><trkpt lat="40.6028483" lon="15.3247883"><ele>143.0</ele><time>2026-04-26T16:02:38.817Z</time></trkpt><trkpt lat="40.6029467" lon="15.324525"><ele>143.0</ele><time>2026-04-26T16:02:39.817Z</time></trkpt><trkpt lat="40.6030467" lon="15.3242617"><ele>143.0</ele><time>2026-04-26T16:02:40.818Z</time></trkpt><trkpt lat="40.6031617" lon="15.3240183"><ele>143.0</ele><time>2026-04-26T16:02:41.817Z</time></trkpt><trkpt lat="40.6032867" lon="15.323785"><ele>141.33333333333331</ele><time>2026-04-26T16:02:42.818Z</time></trkpt><trkpt lat="40.6034133" lon="15.3235533"><ele>139.66666666666666</ele><time>2026-04-26T16:02:43.817Z</time></trkpt><trkpt lat="40.6035433" lon="15.3233167"><ele>138.0</ele><time>2026-04-26T16:02:44.818Z</time></trkpt><trkpt lat="40.603675" lon="15.32308"><ele>140.33333333333334</ele><time>2026-04-26T16:02:45.818Z</time></trkpt><trkpt lat="40.6038083" lon="15.322845"><ele>142.66666666666669</ele><time>2026-04-26T16:02:46.818Z</time></trkpt><trkpt lat="40.6039383" lon="15.3226133"><ele>145.0</ele><time>2026-04-26T16:02:47.818Z</time></trkpt><trkpt lat="40.6040733" lon="15.3223867"><ele>143.33333333333334</ele><time>2026-04-26T16:02:48.817Z</time></trkpt><trkpt lat="40.60421" lon="15.322155"><ele>141.66666666666666</ele><time>2026-04-26T16:02:49.818Z</time></trkpt><trkpt lat="40.6043433" lon="15.3219283"><ele>140.0</ele><time>2026-04-26T16:02:50.818Z</time></trkpt><trkpt lat="40.6044733" lon="15.3216967"><ele>140.66666666666666</ele><time>2026-04-26T16:02:51.818Z</time></trkpt><trkpt lat="40.6045967" lon="15.3214533"><ele>141.33333333333334</ele><time>2026-04-26T16:02:52.818Z</time></trkpt><trkpt lat="40.6047167" lon="15.321205"><ele>142.0</ele><time>2026-04-26T16:02:53.818Z</time></trkpt><trkpt lat="40.6048233" lon="15.3209533"><ele>142.0</ele><time>2026-04-26T16:02:54.818Z</time></trkpt><trkpt lat="40.6049233" lon="15.3206933"><ele>142.0</ele><time>2026-04-26T16:02:55.818Z</time></trkpt><trkpt lat="40.6050133" lon="15.3204317"><ele>142.0</ele><time>2026-04-26T16:02:56.817Z</time></trkpt><trkpt lat="40.6050967" lon="15.3201633"><ele>141.33333333333334</ele><time>2026-04-26T16:02:57.817Z</time></trkpt><trkpt lat="40.605185" lon="15.319895"><ele>140.66666666666666</ele><time>2026-04-26T16:02:58.817Z</time></trkpt><trkpt lat="40.60527" lon="15.3196283"><ele>140.0</ele><time>2026-04-26T16:02:59.818Z</time></trkpt><trkpt lat="40.60536" lon="15.3193583"><ele>142.0</ele><time>2026-04-26T16:03:00.817Z</time></trkpt><trkpt lat="40.6054483" lon="15.31909"><ele>144.0</ele><time>2026-04-26T16:03:01.818Z</time></trkpt><trkpt lat="40.6055383" lon="15.3188267"><ele>146.0</ele><time>2026-04-26T16:03:02.818Z</time></trkpt><trkpt lat="40.6056317" lon="15.318565"><ele>146.0</ele><time>2026-04-26T16:03:03.818Z</time></trkpt><trkpt lat="40.6057233" lon="15.3183017"><ele>146.0</ele><time>2026-04-26T16:03:04.817Z</time></trkpt><trkpt lat="40.6058167" lon="15.31804"><ele>146.0</ele><time>2026-04-26T16:03:05.818Z</time></trkpt><trkpt lat="40.6059117" lon="15.31778"><ele>146.66666666666666</ele><time>2026-04-26T16:03:06.817Z</time></trkpt><trkpt lat="40.60601" lon="15.317515"><ele>147.33333333333334</ele><time>2026-04-26T16:03:07.817Z</time></trkpt><trkpt lat="40.6061033" lon="15.317255"><ele>148.0</ele><time>2026-04-26T16:03:08.818Z</time></trkpt><trkpt lat="40.6062" lon="15.3169933"><ele>148.0</ele><time>2026-04-26T16:03:09.817Z</time></trkpt><trkpt lat="40.606295" lon="15.31673"><ele>148.0</ele><time>2026-04-26T16:03:10.818Z</time></trkpt><trkpt lat="40.60639" lon="15.316465"><ele>148.0</ele><time>2026-04-26T16:03:11.818Z</time></trkpt><trkpt lat="40.6064883" lon="15.316205"><ele>146.0</ele><time>2026-04-26T16:03:12.817Z</time></trkpt><trkpt lat="40.60658" lon="15.3159417"><ele>144.0</ele><time>2026-04-26T16:03:13.818Z</time></trkpt><trkpt lat="40.606685" lon="15.3156833"><ele>142.0</ele><time>2026-04-26T16:03:14.817Z</time></trkpt><trkpt lat="40.6067817" lon="15.3154183"><ele>141.33333333333334</ele><time>2026-04-26T16:03:15.818Z</time></trkpt><trkpt lat="40.6068783" lon="15.3151567"><ele>140.66666666666666</ele><time>2026-04-26T16:03:16.817Z</time></trkpt><trkpt lat="40.606975" lon="15.314895"><ele>140.0</ele><time>2026-04-26T16:03:17.818Z</time></trkpt><trkpt lat="40.60707" lon="15.3146317"><ele>140.0</ele><time>2026-04-26T16:03:18.817Z</time></trkpt><trkpt lat="40.60717" lon="15.31437"><ele>140.0</ele><time>2026-04-26T16:03:19.818Z</time></trkpt><trkpt lat="40.607265" lon="15.3141133"><ele>140.0</ele><time>2026-04-26T16:03:20.817Z</time></trkpt><trkpt lat="40.6073617" lon="15.3138567"><ele>140.0</ele><time>2026-04-26T16:03:21.817Z</time></trkpt><trkpt lat="40.60746" lon="15.3135967"><ele>140.0</ele><time>2026-04-26T16:03:22.818Z</time></trkpt><trkpt lat="40.607555" lon="15.3133383"><ele>140.0</ele><time>2026-04-26T16:03:23.818Z</time></trkpt><trkpt lat="40.60765" lon="15.3130783"><ele>139.66666666666666</ele><time>2026-04-26T16:03:24.818Z</time></trkpt><trkpt lat="40.6077517" lon="15.3128133"><ele>139.33333333333334</ele><time>2026-04-26T16:03:25.817Z</time></trkpt><trkpt lat="40.6078483" lon="15.3125533"><ele>139.0</ele><time>2026-04-26T16:03:26.818Z</time></trkpt><trkpt lat="40.607945" lon="15.312295"><ele>140.0</ele><time>2026-04-26T16:03:27.817Z</time></trkpt><trkpt lat="40.6080433" lon="15.31203"><ele>141.0</ele><time>2026-04-26T16:03:28.817Z</time></trkpt><trkpt lat="40.6081333" lon="15.3117617"><ele>142.0</ele><time>2026-04-26T16:03:29.818Z</time></trkpt><trkpt lat="40.6082217" lon="15.311495"><ele>140.33333333333334</ele><time>2026-04-26T16:03:30.818Z</time></trkpt><trkpt lat="40.60831" lon="15.3112233"><ele>138.66666666666666</ele><time>2026-04-26T16:03:31.817Z</time></trkpt><trkpt lat="40.6083933" lon="15.3109517"><ele>137.0</ele><time>2026-04-26T16:03:32.817Z</time></trkpt><trkpt lat="40.6084733" lon="15.3106817"><ele>136.33333333333331</ele><time>2026-04-26T16:03:33.818Z</time></trkpt><trkpt lat="40.6085467" lon="15.3104083"><ele>135.66666666666666</ele><time>2026-04-26T16:03:34.817Z</time></trkpt><trkpt lat="40.6086183" lon="15.3101383"><ele>135.0</ele><time>2026-04-26T16:03:35.818Z</time></trkpt><trkpt lat="40.6086867" lon="15.3098617"><ele>136.0</ele><time>2026-04-26T16:03:36.817Z</time></trkpt><trkpt lat="40.608755" lon="15.309585"><ele>137.0</ele><time>2026-04-26T16:03:37.818Z</time></trkpt><trkpt lat="40.6088267" lon="15.3093083"><ele>138.0</ele><time>2026-04-26T16:03:38.818Z</time></trkpt><trkpt lat="40.6088967" lon="15.3090383"><ele>139.33333333333334</ele><time>2026-04-26T16:03:39.817Z</time></trkpt><trkpt lat="40.6089683" lon="15.3087633"><ele>140.66666666666669</ele><time>2026-04-26T16:03:40.817Z</time></trkpt><trkpt lat="40.6090417" lon="15.30849"><ele>142.0</ele><time>2026-04-26T16:03:41.817Z</time></trkpt><trkpt lat="40.6091167" lon="15.30822"><ele>143.66666666666669</ele><time>2026-04-26T16:03:42.818Z</time></trkpt><trkpt lat="40.60919" lon="15.3079467"><ele>145.33333333333334</ele><time>2026-04-26T16:03:43.818Z</time></trkpt><trkpt lat="40.609255" lon="15.3076783"><ele>147.0</ele><time>2026-04-26T16:03:44.818Z</time></trkpt><trkpt lat="40.609325" lon="15.3074067"><ele>148.66666666666666</ele><time>2026-04-26T16:03:45.817Z</time></trkpt><trkpt lat="40.60939" lon="15.30713"><ele>150.33333333333331</ele><time>2026-04-26T16:03:46.818Z</time></trkpt><trkpt lat="40.609455" lon="15.3068517"><ele>152.0</ele><time>2026-04-26T16:03:47.818Z</time></trkpt><trkpt lat="40.609515" lon="15.30657"><ele>153.33333333333331</ele><time>2026-04-26T16:03:48.818Z</time></trkpt><trkpt lat="40.6095717" lon="15.3062883"><ele>154.66666666666666</ele><time>2026-04-26T16:03:49.817Z</time></trkpt><trkpt lat="40.60963" lon="15.306005"><ele>156.0</ele><time>2026-04-26T16:03:50.818Z</time></trkpt><trkpt lat="40.60968" lon="15.305725"><ele>158.33333333333334</ele><time>2026-04-26T16:03:51.817Z</time></trkpt><trkpt lat="40.609725" lon="15.3054383"><ele>160.66666666666669</ele><time>2026-04-26T16:03:52.818Z</time></trkpt><trkpt lat="40.6097683" lon="15.3051517"><ele>163.0</ele><time>2026-04-26T16:03:53.817Z</time></trkpt><trkpt lat="40.6098083" lon="15.304865"><ele>165.0</ele><time>2026-04-26T16:03:54.817Z</time></trkpt><trkpt lat="40.6098433" lon="15.3045783"><ele>167.0</ele><time>2026-04-26T16:03:55.817Z</time></trkpt><trkpt lat="40.60987" lon="15.3042933"><ele>169.0</ele><time>2026-04-26T16:03:56.818Z</time></trkpt><trkpt lat="40.609895" lon="15.3040083"><ele>169.0</ele><time>2026-04-26T16:03:57.817Z</time></trkpt><trkpt lat="40.6099183" lon="15.3037183"><ele>169.0</ele><time>2026-04-26T16:03:58.818Z</time></trkpt><trkpt lat="40.60994" lon="15.3034317"><ele>169.0</ele><time>2026-04-26T16:03:59.817Z</time></trkpt><trkpt lat="40.6099617" lon="15.30315"><ele>168.66666666666669</ele><time>2026-04-26T16:04:00.817Z</time></trkpt><trkpt lat="40.6099733" lon="15.3028667"><ele>168.33333333333334</ele><time>2026-04-26T16:04:01.818Z</time></trkpt><trkpt lat="40.6099833" lon="15.3025767"><ele>168.0</ele><time>2026-04-26T16:04:02.817Z</time></trkpt><trkpt lat="40.6099833" lon="15.3022883"><ele>168.33333333333334</ele><time>2026-04-26T16:04:03.817Z</time></trkpt><trkpt lat="40.60998" lon="15.3019967"><ele>168.66666666666669</ele><time>2026-04-26T16:04:04.818Z</time></trkpt><trkpt lat="40.6099733" lon="15.30171"><ele>169.0</ele><time>2026-04-26T16:04:05.818Z</time></trkpt><trkpt lat="40.609965" lon="15.301425"><ele>169.66666666666669</ele><time>2026-04-26T16:04:06.817Z</time></trkpt><trkpt lat="40.609965" lon="15.301135"><ele>170.33333333333334</ele><time>2026-04-26T16:04:07.817Z</time></trkpt><trkpt lat="40.609955" lon="15.3008467"><ele>171.0</ele><time>2026-04-26T16:04:08.817Z</time></trkpt><trkpt lat="40.60994" lon="15.30057"><ele>172.66666666666666</ele><time>2026-04-26T16:04:09.818Z</time></trkpt><trkpt lat="40.6099483" lon="15.30027"><ele>174.33333333333331</ele><time>2026-04-26T16:04:10.817Z</time></trkpt><trkpt lat="40.6099467" lon="15.2999783"><ele>176.0</ele><time>2026-04-26T16:04:11.817Z</time></trkpt><trkpt lat="40.6099617" lon="15.29969"><ele>176.33333333333331</ele><time>2026-04-26T16:04:12.818Z</time></trkpt><trkpt lat="40.6099933" lon="15.2994033"><ele>176.66666666666666</ele><time>2026-04-26T16:04:13.817Z</time></trkpt><trkpt lat="40.610035" lon="15.29912"><ele>177.0</ele><time>2026-04-26T16:04:14.818Z</time></trkpt><trkpt lat="40.6100883" lon="15.29884"><ele>178.0</ele><time>2026-04-26T16:04:15.817Z</time></trkpt><trkpt lat="40.6101483" lon="15.2985567"><ele>179.0</ele><time>2026-04-26T16:04:16.817Z</time></trkpt><trkpt lat="40.610215" lon="15.2982817"><ele>180.0</ele><time>2026-04-26T16:04:17.817Z</time></trkpt><trkpt lat="40.6103" lon="15.2980033"><ele>180.0</ele><time>2026-04-26T16:04:18.817Z</time></trkpt><trkpt lat="40.610385" lon="15.2977367"><ele>180.0</ele><time>2026-04-26T16:04:19.817Z</time></trkpt><trkpt lat="40.61047" lon="15.2974717"><ele>180.0</ele><time>2026-04-26T16:04:20.818Z</time></trkpt><trkpt lat="40.610565" lon="15.2972017"><ele>180.0</ele><time>2026-04-26T16:04:21.818Z</time></trkpt><trkpt lat="40.610635" lon="15.296945"><ele>180.0</ele><time>2026-04-26T16:04:22.818Z</time></trkpt><trkpt lat="40.6107283" lon="15.2967033"><ele>180.0</ele><time>2026-04-26T16:04:23.817Z</time></trkpt><trkpt lat="40.6107933" lon="15.2964683"><ele>179.0</ele><time>2026-04-26T16:04:24.818Z</time></trkpt><trkpt lat="40.6108583" lon="15.2962467"><ele>178.0</ele><time>2026-04-26T16:04:25.818Z</time></trkpt><trkpt lat="40.6109217" lon="15.2960383"><ele>177.0</ele><time>2026-04-26T16:04:26.818Z</time></trkpt><trkpt lat="40.6109717" lon="15.2958383"><ele>177.0</ele><time>2026-04-26T16:04:27.817Z</time></trkpt><trkpt lat="40.6110183" lon="15.29565"><ele>177.0</ele><time>2026-04-26T16:04:28.817Z</time></trkpt><trkpt lat="40.6110433" lon="15.2954733"><ele>177.0</ele><time>2026-04-26T16:04:29.818Z</time></trkpt><trkpt lat="40.6110467" lon="15.2952983"><ele>177.0</ele><time>2026-04-26T16:04:30.818Z</time></trkpt><trkpt lat="40.61103" lon="15.2951133"><ele>176.0</ele><time>2026-04-26T16:04:31.817Z</time></trkpt><trkpt lat="40.610995" lon="15.2949233"><ele>175.0</ele><time>2026-04-26T16:04:32.818Z</time></trkpt><trkpt lat="40.610945" lon="15.2947317"><ele>174.0</ele><time>2026-04-26T16:04:33.817Z</time></trkpt><trkpt lat="40.6108717" lon="15.29452"><ele>173.66666666666666</ele><time>2026-04-26T16:04:34.818Z</time></trkpt><trkpt lat="40.6108" lon="15.294295"><ele>173.33333333333331</ele><time>2026-04-26T16:04:35.817Z</time></trkpt><trkpt lat="40.6107283" lon="15.294055"><ele>173.0</ele><time>2026-04-26T16:04:36.817Z</time></trkpt><trkpt lat="40.61065" lon="15.2938083"><ele>171.66666666666666</ele><time>2026-04-26T16:04:37.818Z</time></trkpt><trkpt lat="40.6105683" lon="15.293555"><ele>170.33333333333334</ele><time>2026-04-26T16:04:38.818Z</time></trkpt><trkpt lat="40.6104883" lon="15.293295"><ele>169.0</ele><time>2026-04-26T16:04:39.818Z</time></trkpt><trkpt lat="40.6104067" lon="15.2930283"><ele>169.66666666666669</ele><time>2026-04-26T16:04:40.817Z</time></trkpt><trkpt lat="40.6103283" lon="15.292755"><ele>170.33333333333334</ele><time>2026-04-26T16:04:41.817Z</time></trkpt><trkpt lat="40.6102567" lon="15.2924767"><ele>171.0</ele><time>2026-04-26T16:04:42.817Z</time></trkpt><trkpt lat="40.6102017" lon="15.2921883"><ele>171.0</ele><time>2026-04-26T16:04:43.817Z</time></trkpt><trkpt lat="40.6101683" lon="15.2919033"><ele>171.0</ele><time>2026-04-26T16:04:44.818Z</time></trkpt><trkpt lat="40.6101517" lon="15.291615"><ele>171.0</ele><time>2026-04-26T16:04:45.817Z</time></trkpt><trkpt lat="40.610145" lon="15.291325"><ele>170.33333333333334</ele><time>2026-04-26T16:04:46.818Z</time></trkpt><trkpt lat="40.6101433" lon="15.291035"><ele>169.66666666666669</ele><time>2026-04-26T16:04:47.818Z</time></trkpt><trkpt lat="40.6101433" lon="15.2907367"><ele>169.0</ele><time>2026-04-26T16:04:48.817Z</time></trkpt><trkpt lat="40.61015" lon="15.2904417"><ele>168.33333333333334</ele><time>2026-04-26T16:04:49.818Z</time></trkpt><trkpt lat="40.61016" lon="15.2901483"><ele>167.66666666666666</ele><time>2026-04-26T16:04:50.818Z</time></trkpt><trkpt lat="40.610175" lon="15.2898567"><ele>167.0</ele><time>2026-04-26T16:04:51.817Z</time></trkpt><trkpt lat="40.6101917" lon="15.2895683"><ele>166.0</ele><time>2026-04-26T16:04:52.817Z</time></trkpt><trkpt lat="40.6102083" lon="15.2892783"><ele>165.0</ele><time>2026-04-26T16:04:53.817Z</time></trkpt><trkpt lat="40.6102317" lon="15.2889867"><ele>164.0</ele><time>2026-04-26T16:04:54.817Z</time></trkpt><trkpt lat="40.6102583" lon="15.288695"><ele>163.33333333333331</ele><time>2026-04-26T16:04:55.817Z</time></trkpt><trkpt lat="40.6102917" lon="15.288405"><ele>162.66666666666666</ele><time>2026-04-26T16:04:56.817Z</time></trkpt><trkpt lat="40.61033" lon="15.2881183"><ele>162.0</ele><time>2026-04-26T16:04:57.817Z</time></trkpt><trkpt lat="40.6103717" lon="15.2878383"><ele>157.66666666666666</ele><time>2026-04-26T16:04:58.817Z</time></trkpt><trkpt lat="40.61042" lon="15.2875567"><ele>153.33333333333331</ele><time>2026-04-26T16:04:59.817Z</time></trkpt><trkpt lat="40.6104683" lon="15.287275"><ele>149.0</ele><time>2026-04-26T16:05:00.818Z</time></trkpt><trkpt lat="40.61053" lon="15.286995"><ele>149.0</ele><time>2026-04-26T16:05:01.818Z</time></trkpt><trkpt lat="40.61059" lon="15.2867167"><ele>149.0</ele><time>2026-04-26T16:05:02.818Z</time></trkpt><trkpt lat="40.61066" lon="15.2864417"><ele>149.0</ele><time>2026-04-26T16:05:03.818Z</time></trkpt><trkpt lat="40.6107367" lon="15.2861717"><ele>147.33333333333331</ele><time>2026-04-26T16:05:04.818Z</time></trkpt><trkpt lat="40.6108183" lon="15.2859"><ele>145.66666666666666</ele><time>2026-04-26T16:05:05.817Z</time></trkpt><trkpt lat="40.6109033" lon="15.2856333"><ele>144.0</ele><time>2026-04-26T16:05:06.818Z</time></trkpt><trkpt lat="40.610995" lon="15.2853717"><ele>143.66666666666666</ele><time>2026-04-26T16:05:07.817Z</time></trkpt><trkpt lat="40.6110917" lon="15.285115"><ele>143.33333333333331</ele><time>2026-04-26T16:05:08.817Z</time></trkpt><trkpt lat="40.6111917" lon="15.2848533"><ele>143.0</ele><time>2026-04-26T16:05:09.818Z</time></trkpt><trkpt lat="40.61129" lon="15.2845967"><ele>149.0</ele><time>2026-04-26T16:05:10.818Z</time></trkpt><trkpt lat="40.6113933" lon="15.2843417"><ele>155.0</ele><time>2026-04-26T16:05:11.817Z</time></trkpt><trkpt lat="40.6114983" lon="15.284085"><ele>161.0</ele><time>2026-04-26T16:05:12.818Z</time></trkpt><trkpt lat="40.6116083" lon="15.2838367"><ele>161.0</ele><time>2026-04-26T16:05:13.817Z</time></trkpt><trkpt lat="40.6117217" lon="15.2835867"><ele>161.0</ele><time>2026-04-26T16:05:14.818Z</time></trkpt><trkpt lat="40.61184" lon="15.2833433"><ele>161.0</ele><time>2026-04-26T16:05:15.818Z</time></trkpt><trkpt lat="40.611955" lon="15.2830933"><ele>163.0</ele><time>2026-04-26T16:05:16.817Z</time></trkpt><trkpt lat="40.61207" lon="15.282845"><ele>165.0</ele><time>2026-04-26T16:05:17.817Z</time></trkpt><trkpt lat="40.61219" lon="15.2826"><ele>167.0</ele><time>2026-04-26T16:05:18.818Z</time></trkpt><trkpt lat="40.6123083" lon="15.282355"><ele>165.66666666666666</ele><time>2026-04-26T16:05:19.817Z</time></trkpt><trkpt lat="40.6124267" lon="15.2821067"><ele>164.33333333333334</ele><time>2026-04-26T16:05:20.818Z</time></trkpt><trkpt lat="40.6125417" lon="15.2818617"><ele>163.0</ele><time>2026-04-26T16:05:21.817Z</time></trkpt><trkpt lat="40.61266" lon="15.2816117"><ele>163.0</ele><time>2026-04-26T16:05:22.817Z</time></trkpt><trkpt lat="40.6127783" lon="15.2813667"><ele>163.0</ele><time>2026-04-26T16:05:23.817Z</time></trkpt><trkpt lat="40.6128917" lon="15.281115"><ele>163.0</ele><time>2026-04-26T16:05:24.817Z</time></trkpt><trkpt lat="40.6130017" lon="15.2808667"><ele>164.33333333333334</ele><time>2026-04-26T16:05:25.817Z</time></trkpt><trkpt lat="40.6131117" lon="15.2806183"><ele>165.66666666666666</ele><time>2026-04-26T16:05:26.817Z</time></trkpt><trkpt lat="40.6132167" lon="15.2803683"><ele>167.0</ele><time>2026-04-26T16:05:27.818Z</time></trkpt><trkpt lat="40.6133167" lon="15.2801033"><ele>167.0</ele><time>2026-04-26T16:05:28.817Z</time></trkpt><trkpt lat="40.6134167" lon="15.279845"><ele>167.0</ele><time>2026-04-26T16:05:29.818Z</time></trkpt><trkpt lat="40.61351" lon="15.2795817"><ele>167.0</ele><time>2026-04-26T16:05:30.818Z</time></trkpt><trkpt lat="40.6136017" lon="15.2793167"><ele>168.0</ele><time>2026-04-26T16:05:31.817Z</time></trkpt><trkpt lat="40.6136933" lon="15.27905"><ele>169.0</ele><time>2026-04-26T16:05:32.818Z</time></trkpt><trkpt lat="40.613785" lon="15.278785"><ele>170.0</ele><time>2026-04-26T16:05:33.817Z</time></trkpt><trkpt lat="40.6138717" lon="15.27852"><ele>170.0</ele><time>2026-04-26T16:05:34.818Z</time></trkpt><trkpt lat="40.6139533" lon="15.27825"><ele>170.0</ele><time>2026-04-26T16:05:35.817Z</time></trkpt><trkpt lat="40.6140283" lon="15.2779783"><ele>170.0</ele><time>2026-04-26T16:05:36.818Z</time></trkpt><trkpt lat="40.6141" lon="15.2777033"><ele>168.66666666666666</ele><time>2026-04-26T16:05:37.818Z</time></trkpt><trkpt lat="40.6141683" lon="15.2774217"><ele>167.33333333333334</ele><time>2026-04-26T16:05:38.818Z</time></trkpt><trkpt lat="40.6142267" lon="15.277145"><ele>166.0</ele><time>2026-04-26T16:05:39.818Z</time></trkpt><trkpt lat="40.6142817" lon="15.276865"><ele>165.66666666666669</ele><time>2026-04-26T16:05:40.818Z</time></trkpt><trkpt lat="40.6143333" lon="15.27658"><ele>165.33333333333334</ele><time>2026-04-26T16:05:41.818Z</time></trkpt><trkpt lat="40.6143767" lon="15.2762967"><ele>165.0</ele><time>2026-04-26T16:05:42.817Z</time></trkpt><trkpt lat="40.6144233" lon="15.2760133"><ele>165.66666666666666</ele><time>2026-04-26T16:05:43.818Z</time></trkpt><trkpt lat="40.61447" lon="15.2757267"><ele>166.33333333333331</ele><time>2026-04-26T16:05:44.818Z</time></trkpt><trkpt lat="40.614505" lon="15.2754417"><ele>167.0</ele><time>2026-04-26T16:05:45.817Z</time></trkpt><trkpt lat="40.61454" lon="15.2751533"><ele>165.33333333333331</ele><time>2026-04-26T16:05:46.818Z</time></trkpt><trkpt lat="40.6145717" lon="15.274865"><ele>163.66666666666666</ele><time>2026-04-26T16:05:47.818Z</time></trkpt><trkpt lat="40.6146" lon="15.2745817"><ele>162.0</ele><time>2026-04-26T16:05:48.818Z</time></trkpt><trkpt lat="40.6146233" lon="15.27429"><ele>160.0</ele><time>2026-04-26T16:05:49.817Z</time></trkpt><trkpt lat="40.61464" lon="15.2739967"><ele>158.0</ele><time>2026-04-26T16:05:50.817Z</time></trkpt><trkpt lat="40.6146483" lon="15.2737067"><ele>156.0</ele><time>2026-04-26T16:05:51.817Z</time></trkpt><trkpt lat="40.6146517" lon="15.2734167"><ele>154.33333333333334</ele><time>2026-04-26T16:05:52.818Z</time></trkpt><trkpt lat="40.614655" lon="15.2731233"><ele>152.66666666666669</ele><time>2026-04-26T16:05:53.818Z</time></trkpt><trkpt lat="40.6146533" lon="15.2728333"><ele>151.0</ele><time>2026-04-26T16:05:54.818Z</time></trkpt><trkpt lat="40.6146483" lon="15.2725417"><ele>151.33333333333334</ele><time>2026-04-26T16:05:55.818Z</time></trkpt><trkpt lat="40.614645" lon="15.2722517"><ele>151.66666666666666</ele><time>2026-04-26T16:05:56.818Z</time></trkpt><trkpt lat="40.614635" lon="15.2719633"><ele>152.0</ele><time>2026-04-26T16:05:57.817Z</time></trkpt><trkpt lat="40.614625" lon="15.271675"><ele>154.33333333333331</ele><time>2026-04-26T16:05:58.818Z</time></trkpt><trkpt lat="40.61461" lon="15.27138"><ele>156.66666666666666</ele><time>2026-04-26T16:05:59.818Z</time></trkpt><trkpt lat="40.6145867" lon="15.2710883"><ele>159.0</ele><time>2026-04-26T16:06:00.818Z</time></trkpt><trkpt lat="40.614565" lon="15.270795"><ele>164.0</ele><time>2026-04-26T16:06:01.818Z</time></trkpt><trkpt lat="40.6145383" lon="15.2704967"><ele>169.0</ele><time>2026-04-26T16:06:02.818Z</time></trkpt><trkpt lat="40.6145117" lon="15.270205"><ele>168.66666666666669</ele><time>2026-04-26T16:06:03.817Z</time></trkpt><trkpt lat="40.6144817" lon="15.26992"><ele>168.33333333333334</ele><time>2026-04-26T16:06:04.817Z</time></trkpt><trkpt lat="40.61445" lon="15.269635"><ele>168.0</ele><time>2026-04-26T16:06:05.818Z</time></trkpt><trkpt lat="40.614415" lon="15.2693483"><ele>168.0</ele><time>2026-04-26T16:06:06.818Z</time></trkpt><trkpt lat="40.6143817" lon="15.269065"><ele>168.0</ele><time>2026-04-26T16:06:07.818Z</time></trkpt><trkpt lat="40.6143467" lon="15.2687733"><ele>168.0</ele><time>2026-04-26T16:06:08.818Z</time></trkpt><trkpt lat="40.61431" lon="15.2684867"><ele>166.66666666666666</ele><time>2026-04-26T16:06:09.818Z</time></trkpt><trkpt lat="40.6142667" lon="15.2682033"><ele>165.33333333333331</ele><time>2026-04-26T16:06:10.818Z</time></trkpt><trkpt lat="40.6142217" lon="15.2679217"><ele>164.0</ele><time>2026-04-26T16:06:11.818Z</time></trkpt><trkpt lat="40.6141833" lon="15.26764"><ele>163.0</ele><time>2026-04-26T16:06:12.817Z</time></trkpt><trkpt lat="40.6141417" lon="15.26735"><ele>162.0</ele><time>2026-04-26T16:06:13.817Z</time></trkpt><trkpt lat="40.6141017" lon="15.267065"><ele>161.0</ele><time>2026-04-26T16:06:14.818Z</time></trkpt><trkpt lat="40.61406" lon="15.2667767"><ele>160.66666666666666</ele><time>2026-04-26T16:06:15.818Z</time></trkpt><trkpt lat="40.6140217" lon="15.2664883"><ele>160.33333333333334</ele><time>2026-04-26T16:06:16.818Z</time></trkpt><trkpt lat="40.6139817" lon="15.2661983"><ele>160.0</ele><time>2026-04-26T16:06:17.818Z</time></trkpt><trkpt lat="40.6139433" lon="15.2659083"><ele>159.33333333333334</ele><time>2026-04-26T16:06:18.818Z</time></trkpt><trkpt lat="40.6139" lon="15.265625"><ele>158.66666666666666</ele><time>2026-04-26T16:06:19.817Z</time></trkpt><trkpt lat="40.613855" lon="15.2653417"><ele>158.0</ele><time>2026-04-26T16:06:20.818Z</time></trkpt><trkpt lat="40.6138133" lon="15.2650567"><ele>155.33333333333331</ele><time>2026-04-26T16:06:21.818Z</time></trkpt><trkpt lat="40.61377" lon="15.2647717"><ele>152.66666666666666</ele><time>2026-04-26T16:06:22.817Z</time></trkpt><trkpt lat="40.61373" lon="15.2644867"><ele>150.0</ele><time>2026-04-26T16:06:23.817Z</time></trkpt><trkpt lat="40.6136917" lon="15.2642"><ele>146.66666666666666</ele><time>2026-04-26T16:06:24.818Z</time></trkpt><trkpt lat="40.6136467" lon="15.2639167"><ele>143.33333333333331</ele><time>2026-04-26T16:06:25.818Z</time></trkpt><trkpt lat="40.6136067" lon="15.263635"><ele>140.0</ele><time>2026-04-26T16:06:26.817Z</time></trkpt><trkpt lat="40.613565" lon="15.2633467"><ele>141.0</ele><time>2026-04-26T16:06:27.818Z</time></trkpt><trkpt lat="40.61353" lon="15.26306"><ele>142.0</ele><time>2026-04-26T16:06:28.817Z</time></trkpt><trkpt lat="40.6134917" lon="15.2627717"><ele>143.0</ele><time>2026-04-26T16:06:29.817Z</time></trkpt><trkpt lat="40.6134517" lon="15.2624817"><ele>142.33333333333331</ele><time>2026-04-26T16:06:30.818Z</time></trkpt><trkpt lat="40.6134117" lon="15.2621933"><ele>141.66666666666666</ele><time>2026-04-26T16:06:31.818Z</time></trkpt><trkpt lat="40.6133733" lon="15.2619067"><ele>141.0</ele><time>2026-04-26T16:06:32.818Z</time></trkpt><trkpt lat="40.6133367" lon="15.2616217"><ele>138.0</ele><time>2026-04-26T16:06:33.818Z</time></trkpt><trkpt lat="40.613295" lon="15.2613333"><ele>135.0</ele><time>2026-04-26T16:06:34.817Z</time></trkpt><trkpt lat="40.6132533" lon="15.2610533"><ele>132.0</ele><time>2026-04-26T16:06:35.818Z</time></trkpt><trkpt lat="40.613215" lon="15.2607667"><ele>126.0</ele><time>2026-04-26T16:06:36.817Z</time></trkpt><trkpt lat="40.6131783" lon="15.2604833"><ele>120.0</ele><time>2026-04-26T16:06:37.818Z</time></trkpt><trkpt lat="40.6131417" lon="15.2602017"><ele>114.0</ele><time>2026-04-26T16:06:38.817Z</time></trkpt><trkpt lat="40.613105" lon="15.2599183"><ele>109.0</ele><time>2026-04-26T16:06:39.818Z</time></trkpt><trkpt lat="40.6130683" lon="15.2596317"><ele>104.0</ele><time>2026-04-26T16:06:40.817Z</time></trkpt><trkpt lat="40.6130233" lon="15.259345"><ele>99.0</ele><time>2026-04-26T16:06:41.817Z</time></trkpt><trkpt lat="40.6129783" lon="15.2590567"><ele>97.0</ele><time>2026-04-26T16:06:42.818Z</time></trkpt><trkpt lat="40.6129367" lon="15.2587683"><ele>95.0</ele><time>2026-04-26T16:06:43.817Z</time></trkpt><trkpt lat="40.6129017" lon="15.2584783"><ele>93.0</ele><time>2026-04-26T16:06:44.818Z</time></trkpt><trkpt lat="40.6128717" lon="15.258195"><ele>93.66666666666667</ele><time>2026-04-26T16:06:45.817Z</time></trkpt><trkpt lat="40.61284" lon="15.2579083"><ele>94.33333333333334</ele><time>2026-04-26T16:06:46.818Z</time></trkpt><trkpt lat="40.6128117" lon="15.2576183"><ele>95.0</ele><time>2026-04-26T16:06:47.818Z</time></trkpt><trkpt lat="40.612785" lon="15.2573283"><ele>96.0</ele><time>2026-04-26T16:06:48.817Z</time></trkpt><trkpt lat="40.6127683" lon="15.257035"><ele>97.0</ele><time>2026-04-26T16:06:49.817Z</time></trkpt><trkpt lat="40.61275" lon="15.256745"><ele>98.0</ele><time>2026-04-26T16:06:50.817Z</time></trkpt><trkpt lat="40.6127333" lon="15.2564567"><ele>100.66666666666666</ele><time>2026-04-26T16:06:51.818Z</time></trkpt><trkpt lat="40.61272" lon="15.2561667"><ele>103.33333333333334</ele><time>2026-04-26T16:06:52.817Z</time></trkpt><trkpt lat="40.6127117" lon="15.2558767"><ele>106.0</ele><time>2026-04-26T16:06:53.818Z</time></trkpt><trkpt lat="40.6127083" lon="15.25558"><ele>107.66666666666667</ele><time>2026-04-26T16:06:54.817Z</time></trkpt><trkpt lat="40.612715" lon="15.2552817"><ele>109.33333333333334</ele><time>2026-04-26T16:06:55.817Z</time></trkpt><trkpt lat="40.6127217" lon="15.2549933"><ele>111.0</ele><time>2026-04-26T16:06:56.818Z</time></trkpt><trkpt lat="40.6127333" lon="15.2547017"><ele>112.33333333333334</ele><time>2026-04-26T16:06:57.818Z</time></trkpt><trkpt lat="40.6127467" lon="15.2544117"><ele>113.66666666666667</ele><time>2026-04-26T16:06:58.817Z</time></trkpt><trkpt lat="40.612765" lon="15.2541217"><ele>115.0</ele><time>2026-04-26T16:06:59.817Z</time></trkpt><trkpt lat="40.6127917" lon="15.2538367"><ele>111.33333333333334</ele><time>2026-04-26T16:07:00.817Z</time></trkpt><trkpt lat="40.612825" lon="15.2535433"><ele>107.66666666666666</ele><time>2026-04-26T16:07:01.817Z</time></trkpt><trkpt lat="40.6128633" lon="15.2532583"><ele>104.0</ele><time>2026-04-26T16:07:02.818Z</time></trkpt><trkpt lat="40.6129067" lon="15.252975"><ele>104.0</ele><time>2026-04-26T16:07:03.818Z</time></trkpt><trkpt lat="40.612955" lon="15.25269"><ele>104.0</ele><time>2026-04-26T16:07:04.818Z</time></trkpt><trkpt lat="40.6130067" lon="15.25241"><ele>104.0</ele><time>2026-04-26T16:07:05.817Z</time></trkpt><trkpt lat="40.613065" lon="15.252135"><ele>106.0</ele><time>2026-04-26T16:07:06.818Z</time></trkpt><trkpt lat="40.613135" lon="15.2518567"><ele>108.0</ele><time>2026-04-26T16:07:07.817Z</time></trkpt><trkpt lat="40.6132117" lon="15.2515833"><ele>110.0</ele><time>2026-04-26T16:07:08.818Z</time></trkpt><trkpt lat="40.6132883" lon="15.2513133"><ele>114.33333333333333</ele><time>2026-04-26T16:07:09.818Z</time></trkpt><trkpt lat="40.61337" lon="15.251045"><ele>118.66666666666666</ele><time>2026-04-26T16:07:10.817Z</time></trkpt><trkpt lat="40.6134617" lon="15.2507767"><ele>123.0</ele><time>2026-04-26T16:07:11.818Z</time></trkpt><trkpt lat="40.6135433" lon="15.2505033"><ele>122.66666666666666</ele><time>2026-04-26T16:07:12.817Z</time></trkpt><trkpt lat="40.6136467" lon="15.2502467"><ele>122.33333333333333</ele><time>2026-04-26T16:07:13.818Z</time></trkpt><trkpt lat="40.613745" lon="15.24998"><ele>122.0</ele><time>2026-04-26T16:07:14.818Z</time></trkpt><trkpt lat="40.613845" lon="15.2497233"><ele>118.0</ele><time>2026-04-26T16:07:15.818Z</time></trkpt><trkpt lat="40.6139417" lon="15.249485"><ele>114.0</ele><time>2026-04-26T16:07:16.818Z</time></trkpt><trkpt lat="40.6173733" lon="15.2453933"><ele>114.0</ele><time>2026-04-26T16:07:37.882Z</time></trkpt><trkpt lat="40.6175617" lon="15.2452417"><ele>114.0</ele><time>2026-04-26T16:07:38.883Z</time></trkpt><trkpt lat="40.6177533" lon="15.2450933"><ele>114.0</ele><time>2026-04-26T16:07:39.883Z</time></trkpt><trkpt lat="40.6179483" lon="15.2449483"><ele>113.0</ele><time>2026-04-26T16:07:40.882Z</time></trkpt><trkpt lat="40.6181417" lon="15.2448083"><ele>112.0</ele><time>2026-04-26T16:07:41.883Z</time></trkpt><trkpt lat="40.618335" lon="15.2446633"><ele>111.0</ele><time>2026-04-26T16:07:42.883Z</time></trkpt><trkpt lat="40.6185267" lon="15.2445233"><ele>112.0</ele><time>2026-04-26T16:07:43.882Z</time></trkpt><trkpt lat="40.6187217" lon="15.2443883"><ele>113.0</ele><time>2026-04-26T16:07:44.883Z</time></trkpt><trkpt lat="40.61892" lon="15.24425"><ele>114.0</ele><time>2026-04-26T16:07:45.883Z</time></trkpt><trkpt lat="40.619115" lon="15.2441017"><ele>114.0</ele><time>2026-04-26T16:07:46.882Z</time></trkpt><trkpt lat="40.6193067" lon="15.24397"><ele>114.0</ele><time>2026-04-26T16:07:47.883Z</time></trkpt><trkpt lat="40.6195033" lon="15.2438317"><ele>114.0</ele><time>2026-04-26T16:07:48.883Z</time></trkpt><trkpt lat="40.61969" lon="15.2436883"><ele>117.0</ele><time>2026-04-26T16:07:49.882Z</time></trkpt><trkpt lat="40.6198733" lon="15.2435383"><ele>120.0</ele><time>2026-04-26T16:07:50.882Z</time></trkpt><trkpt lat="40.62005" lon="15.2433867"><ele>123.0</ele><time>2026-04-26T16:07:51.882Z</time></trkpt><trkpt lat="40.62023" lon="15.2432333"><ele>119.66666666666666</ele><time>2026-04-26T16:07:52.882Z</time></trkpt><trkpt lat="40.6204083" lon="15.2430867"><ele>116.33333333333333</ele><time>2026-04-26T16:07:53.883Z</time></trkpt><trkpt lat="40.6205867" lon="15.2429383"><ele>113.0</ele><time>2026-04-26T16:07:54.882Z</time></trkpt><trkpt lat="40.62667" lon="15.2376033"><ele>113.0</ele><time>2026-04-26T16:08:27.882Z</time></trkpt><trkpt lat="40.6268067" lon="15.23737"><ele>113.0</ele><time>2026-04-26T16:08:28.883Z</time></trkpt><trkpt lat="40.6269383" lon="15.2371367"><ele>113.0</ele><time>2026-04-26T16:08:29.882Z</time></trkpt><trkpt lat="40.6270617" lon="15.2368983"><ele>111.0</ele><time>2026-04-26T16:08:30.882Z</time></trkpt><trkpt lat="40.627185" lon="15.23665"><ele>109.0</ele><time>2026-04-26T16:08:31.883Z</time></trkpt><trkpt lat="40.6273033" lon="15.2364067"><ele>107.0</ele><time>2026-04-26T16:08:32.883Z</time></trkpt><trkpt lat="40.6274233" lon="15.2361567"><ele>107.0</ele><time>2026-04-26T16:08:33.882Z</time></trkpt><trkpt lat="40.6275267" lon="15.235905"><ele>107.0</ele><time>2026-04-26T16:08:34.883Z</time></trkpt><trkpt lat="40.62763" lon="15.2356467"><ele>107.0</ele><time>2026-04-26T16:08:35.883Z</time></trkpt><trkpt lat="40.6277283" lon="15.235385"><ele>106.66666666666666</ele><time>2026-04-26T16:08:36.882Z</time></trkpt><trkpt lat="40.6278233" lon="15.2351183"><ele>106.33333333333334</ele><time>2026-04-26T16:08:37.882Z</time></trkpt><trkpt lat="40.62791" lon="15.2348533"><ele>106.0</ele><time>2026-04-26T16:08:38.882Z</time></trkpt><trkpt lat="40.627995" lon="15.23459"><ele>106.0</ele><time>2026-04-26T16:08:39.882Z</time></trkpt><trkpt lat="40.6280717" lon="15.23432"><ele>106.0</ele><time>2026-04-26T16:08:40.882Z</time></trkpt><trkpt lat="40.62815" lon="15.2340467"><ele>106.0</ele><time>2026-04-26T16:08:41.883Z</time></trkpt><trkpt lat="40.628225" lon="15.2337733"><ele>106.0</ele><time>2026-04-26T16:08:42.882Z</time></trkpt><trkpt lat="40.6282933" lon="15.2334967"><ele>106.0</ele><time>2026-04-26T16:08:43.882Z</time></trkpt><trkpt lat="40.6283533" lon="15.233215"><ele>106.0</ele><time>2026-04-26T16:08:44.883Z</time></trkpt><trkpt lat="40.6284067" lon="15.232925"><ele>106.0</ele><time>2026-04-26T16:08:45.882Z</time></trkpt><trkpt lat="40.6284483" lon="15.232635"><ele>106.0</ele><time>2026-04-26T16:08:46.883Z</time></trkpt><trkpt lat="40.6284983" lon="15.232355"><ele>106.0</ele><time>2026-04-26T16:08:47.882Z</time></trkpt><trkpt lat="40.62854" lon="15.232065"><ele>106.0</ele><time>2026-04-26T16:08:48.883Z</time></trkpt><trkpt lat="40.6285683" lon="15.231775"><ele>106.0</ele><time>2026-04-26T16:08:49.883Z</time></trkpt><trkpt lat="40.628595" lon="15.2314883"><ele>106.0</ele><time>2026-04-26T16:08:50.882Z</time></trkpt><trkpt lat="40.6286167" lon="15.2311983"><ele>105.33333333333334</ele><time>2026-04-26T16:08:51.882Z</time></trkpt><trkpt lat="40.628635" lon="15.2309017"><ele>104.66666666666666</ele><time>2026-04-26T16:08:52.883Z</time></trkpt><trkpt lat="40.6286467" lon="15.2306117"><ele>104.0</ele><time>2026-04-26T16:08:53.882Z</time></trkpt><trkpt lat="40.6286583" lon="15.2303217"><ele>101.66666666666666</ele><time>2026-04-26T16:08:54.882Z</time></trkpt><trkpt lat="40.6286617" lon="15.2300317"><ele>99.33333333333334</ele><time>2026-04-26T16:08:55.882Z</time></trkpt><trkpt lat="40.6286617" lon="15.2297367"><ele>97.0</ele><time>2026-04-26T16:08:56.882Z</time></trkpt><trkpt lat="40.628665" lon="15.2294467"><ele>94.0</ele><time>2026-04-26T16:08:57.883Z</time></trkpt><trkpt lat="40.6286717" lon="15.2291533"><ele>91.0</ele><time>2026-04-26T16:08:58.883Z</time></trkpt><trkpt lat="40.6286783" lon="15.2288667"><ele>88.0</ele><time>2026-04-26T16:08:59.882Z</time></trkpt><trkpt lat="40.62868" lon="15.2285767"><ele>84.66666666666666</ele><time>2026-04-26T16:09:00.883Z</time></trkpt><trkpt lat="40.6286817" lon="15.2282833"><ele>81.33333333333333</ele><time>2026-04-26T16:09:01.883Z</time></trkpt><trkpt lat="40.6286883" lon="15.2279933"><ele>78.0</ele><time>2026-04-26T16:09:02.882Z</time></trkpt><trkpt lat="40.6287033" lon="15.2277017"><ele>76.66666666666667</ele><time>2026-04-26T16:09:03.883Z</time></trkpt><trkpt lat="40.6287183" lon="15.22741"><ele>75.33333333333334</ele><time>2026-04-26T16:09:04.882Z</time></trkpt><trkpt lat="40.628735" lon="15.22712"><ele>74.0</ele><time>2026-04-26T16:09:05.882Z</time></trkpt><trkpt lat="40.62875" lon="15.226825"><ele>73.66666666666667</ele><time>2026-04-26T16:09:06.883Z</time></trkpt><trkpt lat="40.62876" lon="15.22654"><ele>73.33333333333333</ele><time>2026-04-26T16:09:07.882Z</time></trkpt><trkpt lat="40.628765" lon="15.2262533"><ele>73.0</ele><time>2026-04-26T16:09:08.882Z</time></trkpt><trkpt lat="40.628772" lon="15.2259611"><ele>72.66666666666666</ele><time>2026-04-26T16:09:09.882Z</time></trkpt><trkpt lat="40.6287776" lon="15.2256697"><ele>72.33333333333333</ele><time>2026-04-26T16:09:10.882Z</time></trkpt><trkpt lat="40.6287873" lon="15.2253797"><ele>72.0</ele><time>2026-04-26T16:09:11.883Z</time></trkpt><trkpt lat="40.628795" lon="15.2250907"><ele>71.66666666666667</ele><time>2026-04-26T16:09:12.882Z</time></trkpt><trkpt lat="40.6288008" lon="15.224801"><ele>71.33333333333334</ele><time>2026-04-26T16:09:13.883Z</time></trkpt><trkpt lat="40.628806" lon="15.2245111"><ele>71.0</ele><time>2026-04-26T16:09:14.883Z</time></trkpt><trkpt lat="40.6288088" lon="15.224221"><ele>73.0</ele><time>2026-04-26T16:09:15.882Z</time></trkpt><trkpt lat="40.6288108" lon="15.2239335"><ele>75.0</ele><time>2026-04-26T16:09:16.882Z</time></trkpt><trkpt lat="40.6288138" lon="15.2236414"><ele>77.0</ele><time>2026-04-26T16:09:17.882Z</time></trkpt><trkpt lat="40.6288204" lon="15.2233473"><ele>79.0</ele><time>2026-04-26T16:09:18.882Z</time></trkpt><trkpt lat="40.6288248" lon="15.2230598"><ele>81.0</ele><time>2026-04-26T16:09:19.883Z</time></trkpt><trkpt lat="40.628832" lon="15.2227692"><ele>83.0</ele><time>2026-04-26T16:09:20.882Z</time></trkpt><trkpt lat="40.6288401" lon="15.2224805"><ele>86.66666666666667</ele><time>2026-04-26T16:09:21.883Z</time></trkpt><trkpt lat="40.6288447" lon="15.2221889"><ele>90.33333333333333</ele><time>2026-04-26T16:09:22.882Z</time></trkpt><trkpt lat="40.628852" lon="15.2218923"><ele>94.0</ele><time>2026-04-26T16:09:23.883Z</time></trkpt><trkpt lat="40.6288577" lon="15.2216007"><ele>100.0</ele><time>2026-04-26T16:09:24.882Z</time></trkpt><trkpt lat="40.6288681" lon="15.2213101"><ele>106.0</ele><time>2026-04-26T16:09:25.882Z</time></trkpt><trkpt lat="40.6288784" lon="15.2210161"><ele>112.0</ele><time>2026-04-26T16:09:26.883Z</time></trkpt><trkpt lat="40.628891" lon="15.2207152"><ele>119.5</ele><time>2026-04-26T16:09:27.882Z</time></trkpt><trkpt lat="40.6289043" lon="15.2204083"><ele>127.0</ele><time>2026-04-26T16:09:28.882Z</time></trkpt><trkpt lat="40.6289165" lon="15.2201049"><ele>132.0</ele><time>2026-04-26T16:09:29.882Z</time></trkpt><trkpt lat="40.6289272" lon="15.2198012"><ele>137.0</ele><time>2026-04-26T16:09:30.882Z</time></trkpt><trkpt lat="40.6289355" lon="15.219504"><ele>75.0</ele><time>2026-04-26T16:09:31.882Z</time></trkpt><trkpt lat="40.627785" lon="15.2071683"><ele>75.0</ele><time>2026-04-26T16:10:14.882Z</time></trkpt><trkpt lat="40.6277171" lon="15.2068893"><ele>75.0</ele><time>2026-04-26T16:10:15.881Z</time></trkpt><trkpt lat="40.6276485" lon="15.2066142"><ele>75.0</ele><time>2026-04-26T16:10:16.881Z</time></trkpt><trkpt lat="40.6275852" lon="15.2063329"><ele>78.0</ele><time>2026-04-26T16:10:17.882Z</time></trkpt><trkpt lat="40.6275234" lon="15.2060547"><ele>81.0</ele><time>2026-04-26T16:10:18.881Z</time></trkpt><trkpt lat="40.6274581" lon="15.2057689"><ele>84.0</ele><time>2026-04-26T16:10:19.882Z</time></trkpt><trkpt lat="40.6273937" lon="15.2054857"><ele>90.5</ele><time>2026-04-26T16:10:20.882Z</time></trkpt><trkpt lat="40.6273312" lon="15.2052008"><ele>97.0</ele><time>2026-04-26T16:10:21.881Z</time></trkpt><trkpt lat="40.627263" lon="15.2049144"><ele>100.66666666666667</ele><time>2026-04-26T16:10:22.882Z</time></trkpt><trkpt lat="40.6271869" lon="15.2046363"><ele>104.33333333333334</ele><time>2026-04-26T16:10:23.881Z</time></trkpt><trkpt lat="40.627105" lon="15.204372"><ele>108.0</ele><time>2026-04-26T16:10:24.882Z</time></trkpt><trkpt lat="40.6263933" lon="15.1983633"><ele>98.66666666666667</ele><time>2026-04-26T16:10:45.882Z</time></trkpt><trkpt lat="40.6263911" lon="15.1980766"><ele>89.33333333333334</ele><time>2026-04-26T16:10:46.881Z</time></trkpt><trkpt lat="40.6263907" lon="15.1977856"><ele>80.0</ele><time>2026-04-26T16:10:47.882Z</time></trkpt><trkpt lat="40.6263971" lon="15.1974925"><ele>80.0</ele><time>2026-04-26T16:10:48.882Z</time></trkpt><trkpt lat="40.6264108" lon="15.197199"><ele>80.0</ele><time>2026-04-26T16:10:49.882Z</time></trkpt><trkpt lat="40.6264312" lon="15.1969094"><ele>80.0</ele><time>2026-04-26T16:10:50.881Z</time></trkpt><trkpt lat="40.6264536" lon="15.1966212"><ele>79.33333333333334</ele><time>2026-04-26T16:10:51.881Z</time></trkpt><trkpt lat="40.6264778" lon="15.1963325"><ele>78.66666666666667</ele><time>2026-04-26T16:10:52.881Z</time></trkpt><trkpt lat="40.6265096" lon="15.1960452"><ele>78.0</ele><time>2026-04-26T16:10:53.882Z</time></trkpt><trkpt lat="40.6265446" lon="15.1957593"><ele>76.66666666666667</ele><time>2026-04-26T16:10:54.882Z</time></trkpt><trkpt lat="40.626582" lon="15.1954693"><ele>75.33333333333334</ele><time>2026-04-26T16:10:55.882Z</time></trkpt><trkpt lat="40.6266213" lon="15.195183"><ele>74.0</ele><time>2026-04-26T16:10:56.881Z</time></trkpt><trkpt lat="40.6266588" lon="15.1948981"><ele>73.33333333333334</ele><time>2026-04-26T16:10:57.881Z</time></trkpt><trkpt lat="40.626698" lon="15.1946096"><ele>72.66666666666667</ele><time>2026-04-26T16:10:58.881Z</time></trkpt><trkpt lat="40.6267411" lon="15.1943263"><ele>72.0</ele><time>2026-04-26T16:10:59.881Z</time></trkpt><trkpt lat="40.6267844" lon="15.1940419"><ele>71.0</ele><time>2026-04-26T16:11:00.881Z</time></trkpt><trkpt lat="40.6268277" lon="15.1937538"><ele>70.0</ele><time>2026-04-26T16:11:01.882Z</time></trkpt><trkpt lat="40.626871" lon="15.1934668"><ele>69.0</ele><time>2026-04-26T16:11:02.882Z</time></trkpt><trkpt lat="40.6269121" lon="15.1931812"><ele>69.33333333333333</ele><time>2026-04-26T16:11:03.881Z</time></trkpt><trkpt lat="40.6269524" lon="15.1928933"><ele>69.66666666666666</ele><time>2026-04-26T16:11:04.881Z</time></trkpt><trkpt lat="40.6269891" lon="15.192605"><ele>70.0</ele><time>2026-04-26T16:11:05.881Z</time></trkpt><trkpt lat="40.6270281" lon="15.1923176"><ele>70.0</ele><time>2026-04-26T16:11:06.881Z</time></trkpt><trkpt lat="40.6270643" lon="15.1920342"><ele>70.0</ele><time>2026-04-26T16:11:07.881Z</time></trkpt><trkpt lat="40.6270985" lon="15.1917485"><ele>70.0</ele><time>2026-04-26T16:11:08.881Z</time></trkpt><trkpt lat="40.6271297" lon="15.1914604"><ele>69.66666666666666</ele><time>2026-04-26T16:11:09.882Z</time></trkpt><trkpt lat="40.6271589" lon="15.1911731"><ele>69.33333333333333</ele><time>2026-04-26T16:11:10.881Z</time></trkpt><trkpt lat="40.6271852" lon="15.1908814"><ele>69.0</ele><time>2026-04-26T16:11:11.882Z</time></trkpt><trkpt lat="40.6272049" lon="15.1905902"><ele>68.66666666666667</ele><time>2026-04-26T16:11:12.881Z</time></trkpt><trkpt lat="40.6272201" lon="15.1902985"><ele>68.33333333333334</ele><time>2026-04-26T16:11:13.882Z</time></trkpt><trkpt lat="40.6272328" lon="15.1900073"><ele>68.0</ele><time>2026-04-26T16:11:14.882Z</time></trkpt><trkpt lat="40.6272436" lon="15.1897152"><ele>66.66666666666667</ele><time>2026-04-26T16:11:15.881Z</time></trkpt><trkpt lat="40.6272458" lon="15.1894245"><ele>65.33333333333333</ele><time>2026-04-26T16:11:16.882Z</time></trkpt><trkpt lat="40.6272441" lon="15.1891323"><ele>64.0</ele><time>2026-04-26T16:11:17.881Z</time></trkpt><trkpt lat="40.6272435" lon="15.1888413"><ele>64.0</ele><time>2026-04-26T16:11:18.881Z</time></trkpt><trkpt lat="40.627241" lon="15.1885525"><ele>64.0</ele><time>2026-04-26T16:11:19.882Z</time></trkpt><trkpt lat="40.6272379" lon="15.1882636"><ele>64.0</ele><time>2026-04-26T16:11:20.882Z</time></trkpt><trkpt lat="40.6272312" lon="15.1879797"><ele>64.33333333333333</ele><time>2026-04-26T16:11:21.882Z</time></trkpt><trkpt lat="40.6272176" lon="15.1876941"><ele>64.66666666666667</ele><time>2026-04-26T16:11:22.881Z</time></trkpt><trkpt lat="40.6271949" lon="15.1874038"><ele>65.0</ele><time>2026-04-26T16:11:23.882Z</time></trkpt><trkpt lat="40.6271637" lon="15.1871107"><ele>65.66666666666667</ele><time>2026-04-26T16:11:24.882Z</time></trkpt><trkpt lat="40.6271242" lon="15.1868228"><ele>66.33333333333333</ele><time>2026-04-26T16:11:25.882Z</time></trkpt><trkpt lat="40.627083" lon="15.186539"><ele>67.0</ele><time>2026-04-26T16:11:26.881Z</time></trkpt><trkpt lat="40.627038" lon="15.1862553"><ele>67.0</ele><time>2026-04-26T16:11:27.882Z</time></trkpt><trkpt lat="40.6269894" lon="15.1859707"><ele>67.0</ele><time>2026-04-26T16:11:28.882Z</time></trkpt><trkpt lat="40.6269398" lon="15.1856876"><ele>67.0</ele><time>2026-04-26T16:11:29.881Z</time></trkpt><trkpt lat="40.6268888" lon="15.1854048"><ele>66.33333333333333</ele><time>2026-04-26T16:11:30.881Z</time></trkpt><trkpt lat="40.6268315" lon="15.1851239"><ele>65.66666666666667</ele><time>2026-04-26T16:11:31.882Z</time></trkpt><trkpt lat="40.6267711" lon="15.184848"><ele>65.0</ele><time>2026-04-26T16:11:32.882Z</time></trkpt><trkpt lat="40.6266996" lon="15.1845722"><ele>66.33333333333334</ele><time>2026-04-26T16:11:33.882Z</time></trkpt><trkpt lat="40.626628" lon="15.1842963"><ele>67.66666666666667</ele><time>2026-04-26T16:11:34.882Z</time></trkpt><trkpt lat="40.6265482" lon="15.1840216"><ele>69.0</ele><time>2026-04-26T16:11:35.881Z</time></trkpt><trkpt lat="40.6264673" lon="15.1837496"><ele>69.66666666666667</ele><time>2026-04-26T16:11:36.882Z</time></trkpt><trkpt lat="40.6263835" lon="15.1834796"><ele>70.33333333333334</ele><time>2026-04-26T16:11:37.882Z</time></trkpt><trkpt lat="40.626299" lon="15.1832114"><ele>71.0</ele><time>2026-04-26T16:11:38.881Z</time></trkpt><trkpt lat="40.6262027" lon="15.1829466"><ele>69.33333333333334</ele><time>2026-04-26T16:11:39.882Z</time></trkpt><trkpt lat="40.6260984" lon="15.1826839"><ele>67.66666666666667</ele><time>2026-04-26T16:11:40.881Z</time></trkpt><trkpt lat="40.6259972" lon="15.1824276"><ele>66.0</ele><time>2026-04-26T16:11:41.882Z</time></trkpt><trkpt lat="40.6258924" lon="15.1821728"><ele>66.0</ele><time>2026-04-26T16:11:42.882Z</time></trkpt><trkpt lat="40.6257837" lon="15.1819196"><ele>66.0</ele><time>2026-04-26T16:11:43.881Z</time></trkpt><trkpt lat="40.6256697" lon="15.1816668"><ele>66.0</ele><time>2026-04-26T16:11:44.882Z</time></trkpt><trkpt lat="40.6255503" lon="15.1814176"><ele>66.33333333333333</ele><time>2026-04-26T16:11:45.882Z</time></trkpt><trkpt lat="40.625427" lon="15.1811676"><ele>66.66666666666666</ele><time>2026-04-26T16:11:46.881Z</time></trkpt><trkpt lat="40.6253024" lon="15.1809274"><ele>67.0</ele><time>2026-04-26T16:11:47.882Z</time></trkpt><trkpt lat="40.6251764" lon="15.1806958"><ele>72.5</ele><time>2026-04-26T16:11:48.881Z</time></trkpt><trkpt lat="40.625044" lon="15.1804579"><ele>78.0</ele><time>2026-04-26T16:11:49.881Z</time></trkpt><trkpt lat="40.6249122" lon="15.1802148"><ele>78.0</ele><time>2026-04-26T16:11:50.881Z</time></trkpt><trkpt lat="40.6247964" lon="15.1799774"><ele>78.0</ele><time>2026-04-26T16:11:51.882Z</time></trkpt><trkpt lat="40.624668" lon="15.1797233"><ele>78.0</ele><time>2026-04-26T16:11:52.881Z</time></trkpt><trkpt lat="40.6245273" lon="15.1794756"><ele>83.0</ele><time>2026-04-26T16:11:53.881Z</time></trkpt><trkpt lat="40.6243904" lon="15.1792308"><ele>88.0</ele><time>2026-04-26T16:11:54.882Z</time></trkpt><trkpt lat="40.624258" lon="15.178991"><ele>57.0</ele><time>2026-04-26T16:11:55.881Z</time></trkpt><trkpt lat="40.6192236" lon="15.1705796"><ele>57.0</ele><time>2026-04-26T16:12:32.882Z</time></trkpt><trkpt lat="40.6191236" lon="15.1703025"><ele>57.0</ele><time>2026-04-26T16:12:33.882Z</time></trkpt><trkpt lat="40.6190383" lon="15.1700282"><ele>56.66666666666667</ele><time>2026-04-26T16:12:34.882Z</time></trkpt><trkpt lat="40.6189458" lon="15.1697629"><ele>56.333333333333336</ele><time>2026-04-26T16:12:35.882Z</time></trkpt><trkpt lat="40.6188498" lon="15.1695003"><ele>56.0</ele><time>2026-04-26T16:12:36.882Z</time></trkpt><trkpt lat="40.6187546" lon="15.1692334"><ele>55.66666666666667</ele><time>2026-04-26T16:12:37.881Z</time></trkpt><trkpt lat="40.6186627" lon="15.1689698"><ele>55.33333333333333</ele><time>2026-04-26T16:12:38.881Z</time></trkpt><trkpt lat="40.6185779" lon="15.1687033"><ele>55.0</ele><time>2026-04-26T16:12:39.881Z</time></trkpt><trkpt lat="40.6184962" lon="15.1684376"><ele>53.666666666666664</ele><time>2026-04-26T16:12:40.882Z</time></trkpt><trkpt lat="40.6184137" lon="15.168171"><ele>52.33333333333333</ele><time>2026-04-26T16:12:41.882Z</time></trkpt><trkpt lat="40.6183289" lon="15.1678963"><ele>51.0</ele><time>2026-04-26T16:12:42.881Z</time></trkpt><trkpt lat="40.6182509" lon="15.1676222"><ele>51.33333333333333</ele><time>2026-04-26T16:12:43.882Z</time></trkpt><trkpt lat="40.618174" lon="15.1673487"><ele>51.666666666666664</ele><time>2026-04-26T16:12:44.881Z</time></trkpt><trkpt lat="40.6180984" lon="15.1670739"><ele>52.0</ele><time>2026-04-26T16:12:45.882Z</time></trkpt><trkpt lat="40.6180221" lon="15.1667991"><ele>51.33333333333333</ele><time>2026-04-26T16:12:46.882Z</time></trkpt><trkpt lat="40.617948" lon="15.166524"><ele>50.66666666666667</ele><time>2026-04-26T16:12:47.881Z</time></trkpt><trkpt lat="40.6178729" lon="15.1662511"><ele>50.0</ele><time>2026-04-26T16:12:48.881Z</time></trkpt><trkpt lat="40.617798" lon="15.1659766"><ele>50.0</ele><time>2026-04-26T16:12:49.881Z</time></trkpt><trkpt lat="40.6177264" lon="15.1657003"><ele>50.0</ele><time>2026-04-26T16:12:50.881Z</time></trkpt><trkpt lat="40.6176572" lon="15.1654248"><ele>50.0</ele><time>2026-04-26T16:12:51.881Z</time></trkpt><trkpt lat="40.6175874" lon="15.1651484"><ele>50.333333333333336</ele><time>2026-04-26T16:12:52.881Z</time></trkpt><trkpt lat="40.6175137" lon="15.1648732"><ele>50.66666666666667</ele><time>2026-04-26T16:12:53.881Z</time></trkpt><trkpt lat="40.6174395" lon="15.1645984"><ele>51.0</ele><time>2026-04-26T16:12:54.882Z</time></trkpt><trkpt lat="40.6173635" lon="15.1643262"><ele>51.0</ele><time>2026-04-26T16:12:55.882Z</time></trkpt><trkpt lat="40.6172871" lon="15.1640544"><ele>51.0</ele><time>2026-04-26T16:12:56.881Z</time></trkpt><trkpt lat="40.6172104" lon="15.1637814"><ele>51.0</ele><time>2026-04-26T16:12:57.881Z</time></trkpt><trkpt lat="40.6171373" lon="15.1635045"><ele>51.66666666666667</ele><time>2026-04-26T16:12:58.881Z</time></trkpt><trkpt lat="40.6170652" lon="15.1632275"><ele>52.333333333333336</ele><time>2026-04-26T16:12:59.881Z</time></trkpt><trkpt lat="40.6169898" lon="15.1629519"><ele>53.0</ele><time>2026-04-26T16:13:00.881Z</time></trkpt><trkpt lat="40.6169195" lon="15.162678"><ele>53.0</ele><time>2026-04-26T16:13:01.882Z</time></trkpt><trkpt lat="40.6168459" lon="15.1624034"><ele>53.0</ele><time>2026-04-26T16:13:02.882Z</time></trkpt><trkpt lat="40.6167724" lon="15.1621321"><ele>53.0</ele><time>2026-04-26T16:13:03.881Z</time></trkpt><trkpt lat="40.6166978" lon="15.1618618"><ele>53.0</ele><time>2026-04-26T16:13:04.881Z</time></trkpt><trkpt lat="40.616623" lon="15.1615894"><ele>53.0</ele><time>2026-04-26T16:13:05.881Z</time></trkpt><trkpt lat="40.6165492" lon="15.1613151"><ele>53.0</ele><time>2026-04-26T16:13:06.882Z</time></trkpt><trkpt lat="40.6164746" lon="15.161039"><ele>53.0</ele><time>2026-04-26T16:13:07.882Z</time></trkpt><trkpt lat="40.6163997" lon="15.1607613"><ele>53.0</ele><time>2026-04-26T16:13:08.881Z</time></trkpt><trkpt lat="40.6163259" lon="15.1604807"><ele>53.0</ele><time>2026-04-26T16:13:09.881Z</time></trkpt><trkpt lat="40.6162525" lon="15.1602016"><ele>52.66666666666667</ele><time>2026-04-26T16:13:10.881Z</time></trkpt><trkpt lat="40.6161787" lon="15.1599227"><ele>52.33333333333333</ele><time>2026-04-26T16:13:11.881Z</time></trkpt><trkpt lat="40.6161054" lon="15.1596441"><ele>52.0</ele><time>2026-04-26T16:13:12.881Z</time></trkpt><trkpt lat="40.6160345" lon="15.1593706"><ele>51.666666666666664</ele><time>2026-04-26T16:13:13.881Z</time></trkpt><trkpt lat="40.6159618" lon="15.1590961"><ele>51.33333333333333</ele><time>2026-04-26T16:13:14.881Z</time></trkpt><trkpt lat="40.6158903" lon="15.1588242"><ele>51.0</ele><time>2026-04-26T16:13:15.882Z</time></trkpt><trkpt lat="40.6158173" lon="15.1585514"><ele>50.66666666666667</ele><time>2026-04-26T16:13:16.881Z</time></trkpt><trkpt lat="40.6157453" lon="15.158277"><ele>50.333333333333336</ele><time>2026-04-26T16:13:17.882Z</time></trkpt><trkpt lat="40.6156735" lon="15.1580033"><ele>50.0</ele><time>2026-04-26T16:13:18.881Z</time></trkpt><trkpt lat="40.615603" lon="15.1577298"><ele>50.0</ele><time>2026-04-26T16:13:19.882Z</time></trkpt><trkpt lat="40.6155269" lon="15.1574576"><ele>50.0</ele><time>2026-04-26T16:13:20.881Z</time></trkpt><trkpt lat="40.6154551" lon="15.1571858"><ele>50.0</ele><time>2026-04-26T16:13:21.881Z</time></trkpt><trkpt lat="40.6153822" lon="15.1569153"><ele>50.66666666666667</ele><time>2026-04-26T16:13:22.881Z</time></trkpt><trkpt lat="40.6153114" lon="15.1566402"><ele>51.33333333333333</ele><time>2026-04-26T16:13:23.882Z</time></trkpt><trkpt lat="40.6152411" lon="15.1563676"><ele>52.0</ele><time>2026-04-26T16:13:24.881Z</time></trkpt><trkpt lat="40.6151675" lon="15.1560923"><ele>52.0</ele><time>2026-04-26T16:13:25.881Z</time></trkpt><trkpt lat="40.6150929" lon="15.1558137"><ele>52.0</ele><time>2026-04-26T16:13:26.882Z</time></trkpt><trkpt lat="40.6150205" lon="15.1555388"><ele>52.0</ele><time>2026-04-26T16:13:27.881Z</time></trkpt><trkpt lat="40.6149463" lon="15.1552629"><ele>52.0</ele><time>2026-04-26T16:13:28.882Z</time></trkpt><trkpt lat="40.6148775" lon="15.1549938"><ele>52.0</ele><time>2026-04-26T16:13:29.881Z</time></trkpt><trkpt lat="40.614809" lon="15.154719"><ele>52.0</ele><time>2026-04-26T16:13:30.881Z</time></trkpt><trkpt lat="40.6147346" lon="15.1544404"><ele>53.0</ele><time>2026-04-26T16:13:31.882Z</time></trkpt><trkpt lat="40.6146597" lon="15.1541607"><ele>54.0</ele><time>2026-04-26T16:13:32.882Z</time></trkpt><trkpt lat="40.6145847" lon="15.1538843"><ele>55.0</ele><time>2026-04-26T16:13:33.881Z</time></trkpt><trkpt lat="40.614511" lon="15.1536089"><ele>55.0</ele><time>2026-04-26T16:13:34.882Z</time></trkpt><trkpt lat="40.6144375" lon="15.1533362"><ele>55.0</ele><time>2026-04-26T16:13:35.882Z</time></trkpt><trkpt lat="40.6143665" lon="15.1530654"><ele>55.0</ele><time>2026-04-26T16:13:36.882Z</time></trkpt><trkpt lat="40.6142938" lon="15.1527928"><ele>56.666666666666664</ele><time>2026-04-26T16:13:37.882Z</time></trkpt><trkpt lat="40.6142231" lon="15.1525173"><ele>58.33333333333333</ele><time>2026-04-26T16:13:38.881Z</time></trkpt><trkpt lat="40.6141507" lon="15.1522385"><ele>60.0</ele><time>2026-04-26T16:13:39.882Z</time></trkpt><trkpt lat="40.6140843" lon="15.1519598"><ele>62.33333333333333</ele><time>2026-04-26T16:13:40.882Z</time></trkpt><trkpt lat="40.614018" lon="15.1516812"><ele>64.66666666666666</ele><time>2026-04-26T16:13:41.882Z</time></trkpt><trkpt lat="40.613956" lon="15.1514062"><ele>67.0</ele><time>2026-04-26T16:13:42.882Z</time></trkpt><trkpt lat="40.6138988" lon="15.1511295"><ele>69.66666666666666</ele><time>2026-04-26T16:13:43.881Z</time></trkpt><trkpt lat="40.6138442" lon="15.1508511"><ele>72.33333333333333</ele><time>2026-04-26T16:13:44.881Z</time></trkpt><trkpt lat="40.6137915" lon="15.1505674"><ele>75.0</ele><time>2026-04-26T16:13:45.882Z</time></trkpt><trkpt lat="40.6137431" lon="15.1502848"><ele>75.0</ele><time>2026-04-26T16:13:46.881Z</time></trkpt><trkpt lat="40.613699" lon="15.1499999"><ele>75.0</ele><time>2026-04-26T16:13:47.882Z</time></trkpt><trkpt lat="40.6136605" lon="15.1497161"><ele>75.0</ele><time>2026-04-26T16:13:48.881Z</time></trkpt><trkpt lat="40.6136323" lon="15.1494299"><ele>71.33333333333333</ele><time>2026-04-26T16:13:49.881Z</time></trkpt><trkpt lat="40.613609" lon="15.149143"><ele>67.66666666666666</ele><time>2026-04-26T16:13:50.882Z</time></trkpt><trkpt lat="40.6135911" lon="15.1488548"><ele>64.0</ele><time>2026-04-26T16:13:51.881Z</time></trkpt><trkpt lat="40.6135801" lon="15.1485674"><ele>64.0</ele><time>2026-04-26T16:13:52.882Z</time></trkpt><trkpt lat="40.6135733" lon="15.1482766"><ele>64.0</ele><time>2026-04-26T16:13:53.881Z</time></trkpt><trkpt lat="40.613569" lon="15.1479888"><ele>64.0</ele><time>2026-04-26T16:13:54.881Z</time></trkpt><trkpt lat="40.6135686" lon="15.1476993"><ele>63.33333333333333</ele><time>2026-04-26T16:13:55.882Z</time></trkpt><trkpt lat="40.6135739" lon="15.1474056"><ele>62.66666666666667</ele><time>2026-04-26T16:13:56.881Z</time></trkpt><trkpt lat="40.6135807" lon="15.1471097"><ele>62.0</ele><time>2026-04-26T16:13:57.881Z</time></trkpt><trkpt lat="40.6135906" lon="15.1468195"><ele>61.0</ele><time>2026-04-26T16:13:58.881Z</time></trkpt><trkpt lat="40.6136009" lon="15.1465321"><ele>60.0</ele><time>2026-04-26T16:13:59.882Z</time></trkpt><trkpt lat="40.6136118" lon="15.1462457"><ele>59.0</ele><time>2026-04-26T16:14:00.881Z</time></trkpt><trkpt lat="40.6136257" lon="15.1459553"><ele>58.333333333333336</ele><time>2026-04-26T16:14:01.882Z</time></trkpt><trkpt lat="40.6136379" lon="15.1456672"><ele>57.66666666666667</ele><time>2026-04-26T16:14:02.882Z</time></trkpt><trkpt lat="40.6136476" lon="15.1453751"><ele>57.0</ele><time>2026-04-26T16:14:03.882Z</time></trkpt><trkpt lat="40.6136504" lon="15.1450832"><ele>57.33333333333333</ele><time>2026-04-26T16:14:04.882Z</time></trkpt><trkpt lat="40.6136502" lon="15.1447887"><ele>57.666666666666664</ele><time>2026-04-26T16:14:05.881Z</time></trkpt><trkpt lat="40.6136475" lon="15.1445013"><ele>58.0</ele><time>2026-04-26T16:14:06.881Z</time></trkpt><trkpt lat="40.61364" lon="15.1442111"><ele>58.33333333333333</ele><time>2026-04-26T16:14:07.882Z</time></trkpt><trkpt lat="40.6136271" lon="15.1439231"><ele>58.66666666666667</ele><time>2026-04-26T16:14:08.882Z</time></trkpt><trkpt lat="40.6136083" lon="15.1436371"><ele>59.0</ele><time>2026-04-26T16:14:09.881Z</time></trkpt><trkpt lat="40.6135814" lon="15.143352"><ele>60.0</ele><time>2026-04-26T16:14:10.881Z</time></trkpt><trkpt lat="40.613549" lon="15.1430662"><ele>61.0</ele><time>2026-04-26T16:14:11.881Z</time></trkpt><trkpt lat="40.6135091" lon="15.14278"><ele>62.0</ele><time>2026-04-26T16:14:12.882Z</time></trkpt><trkpt lat="40.6134643" lon="15.1424928"><ele>64.0</ele><time>2026-04-26T16:14:13.882Z</time></trkpt><trkpt lat="40.613415" lon="15.1422086"><ele>66.0</ele><time>2026-04-26T16:14:14.881Z</time></trkpt><trkpt lat="40.6133604" lon="15.1419243"><ele>68.0</ele><time>2026-04-26T16:14:15.882Z</time></trkpt><trkpt lat="40.6133014" lon="15.1416388"><ele>70.33333333333334</ele><time>2026-04-26T16:14:16.882Z</time></trkpt><trkpt lat="40.6132377" lon="15.1413586"><ele>72.66666666666667</ele><time>2026-04-26T16:14:17.881Z</time></trkpt><trkpt lat="40.6131696" lon="15.1410799"><ele>75.0</ele><time>2026-04-26T16:14:18.881Z</time></trkpt><trkpt lat="40.6130979" lon="15.1408041"><ele>77.33333333333333</ele><time>2026-04-26T16:14:19.882Z</time></trkpt><trkpt lat="40.6130206" lon="15.1405311"><ele>79.66666666666666</ele><time>2026-04-26T16:14:20.882Z</time></trkpt><trkpt lat="40.6129358" lon="15.1402661"><ele>82.0</ele><time>2026-04-26T16:14:21.882Z</time></trkpt><trkpt lat="40.6128454" lon="15.140002"><ele>78.66666666666666</ele><time>2026-04-26T16:14:22.882Z</time></trkpt><trkpt lat="40.612753" lon="15.1397416"><ele>75.33333333333333</ele><time>2026-04-26T16:14:23.881Z</time></trkpt><trkpt lat="40.6126565" lon="15.1394786"><ele>72.0</ele><time>2026-04-26T16:14:24.882Z</time></trkpt><trkpt lat="40.6125554" lon="15.1392174"><ele>73.33333333333333</ele><time>2026-04-26T16:14:25.882Z</time></trkpt><trkpt lat="40.612452" lon="15.1389589"><ele>74.66666666666666</ele><time>2026-04-26T16:14:26.881Z</time></trkpt><trkpt lat="40.6123483" lon="15.1387017"><ele>76.0</ele><time>2026-04-26T16:14:27.882Z</time></trkpt><trkpt lat="40.6122433" lon="15.1384517"><ele>77.0</ele><time>2026-04-26T16:14:28.882Z</time></trkpt><trkpt lat="40.6121433" lon="15.1381917"><ele>78.0</ele><time>2026-04-26T16:14:29.881Z</time></trkpt><trkpt lat="40.612035" lon="15.1379383"><ele>79.0</ele><time>2026-04-26T16:14:30.881Z</time></trkpt><trkpt lat="40.6119317" lon="15.1376833"><ele>75.66666666666666</ele><time>2026-04-26T16:14:31.881Z</time></trkpt><trkpt lat="40.6118217" lon="15.13743"><ele>72.33333333333333</ele><time>2026-04-26T16:14:32.881Z</time></trkpt><trkpt lat="40.61172" lon="15.13718"><ele>69.0</ele><time>2026-04-26T16:14:33.881Z</time></trkpt><trkpt lat="40.6116083" lon="15.1369333"><ele>69.0</ele><time>2026-04-26T16:14:34.881Z</time></trkpt><trkpt lat="40.6115017" lon="15.136685"><ele>69.0</ele><time>2026-04-26T16:14:35.882Z</time></trkpt><trkpt lat="40.61139" lon="15.1364317"><ele>69.0</ele><time>2026-04-26T16:14:36.882Z</time></trkpt><trkpt lat="40.61128" lon="15.1361767"><ele>71.0</ele><time>2026-04-26T16:14:37.881Z</time></trkpt><trkpt lat="40.611175" lon="15.1359233"><ele>73.0</ele><time>2026-04-26T16:14:38.882Z</time></trkpt><trkpt lat="40.6110683" lon="15.13567"><ele>75.0</ele><time>2026-04-26T16:14:39.881Z</time></trkpt><trkpt lat="40.6109567" lon="15.135415"><ele>77.66666666666667</ele><time>2026-04-26T16:14:40.881Z</time></trkpt><trkpt lat="40.61085" lon="15.1351567"><ele>80.33333333333334</ele><time>2026-04-26T16:14:41.881Z</time></trkpt><trkpt lat="40.61074" lon="15.1349033"><ele>83.0</ele><time>2026-04-26T16:14:42.882Z</time></trkpt><trkpt lat="40.61063" lon="15.13465"><ele>86.66666666666667</ele><time>2026-04-26T16:14:43.882Z</time></trkpt><trkpt lat="40.6105217" lon="15.1344"><ele>90.33333333333333</ele><time>2026-04-26T16:14:44.881Z</time></trkpt><trkpt lat="40.6104217" lon="15.1341617"><ele>94.0</ele><time>2026-04-26T16:14:45.881Z</time></trkpt><trkpt lat="40.6103167" lon="15.1339183"><ele>96.33333333333333</ele><time>2026-04-26T16:14:46.881Z</time></trkpt><trkpt lat="40.6102133" lon="15.1336683"><ele>98.66666666666666</ele><time>2026-04-26T16:14:47.882Z</time></trkpt><trkpt lat="40.6101083" lon="15.133415"><ele>101.0</ele><time>2026-04-26T16:14:48.882Z</time></trkpt><trkpt lat="40.6100033" lon="15.133165"><ele>102.0</ele><time>2026-04-26T16:14:49.882Z</time></trkpt><trkpt lat="40.6099417" lon="15.1329833"><ele>103.0</ele><time>2026-04-26T16:14:50.881Z</time></trkpt><trkpt lat="40.6091567" lon="15.131215"><ele>88.0</ele><time>2026-04-26T16:14:57.883Z</time></trkpt><trkpt lat="40.60902" lon="15.1309017"><ele>73.0</ele><time>2026-04-26T16:14:58.882Z</time></trkpt><trkpt lat="40.608905" lon="15.1306183"><ele>65.0</ele><time>2026-04-26T16:14:59.883Z</time></trkpt><trkpt lat="40.6088017" lon="15.1303417"><ele>57.0</ele><time>2026-04-26T16:15:00.882Z</time></trkpt><trkpt lat="40.6087133" lon="15.1300717"><ele>57.33333333333333</ele><time>2026-04-26T16:15:01.882Z</time></trkpt><trkpt lat="40.6086233" lon="15.1298033"><ele>57.666666666666664</ele><time>2026-04-26T16:15:02.883Z</time></trkpt><trkpt lat="40.6085433" lon="15.129545"><ele>58.0</ele><time>2026-04-26T16:15:03.883Z</time></trkpt><trkpt lat="40.6084567" lon="15.1292783"><ele>65.0</ele><time>2026-04-26T16:15:04.882Z</time></trkpt><trkpt lat="40.6083767" lon="15.1290033"><ele>72.0</ele><time>2026-04-26T16:15:05.883Z</time></trkpt><trkpt lat="40.6082983" lon="15.1287317"><ele>79.0</ele><time>2026-04-26T16:15:06.883Z</time></trkpt><trkpt lat="40.6082283" lon="15.1284633"><ele>85.33333333333333</ele><time>2026-04-26T16:15:07.883Z</time></trkpt><trkpt lat="40.6081533" lon="15.1281917"><ele>91.66666666666666</ele><time>2026-04-26T16:15:08.882Z</time></trkpt><trkpt lat="40.6080867" lon="15.1279083"><ele>98.0</ele><time>2026-04-26T16:15:09.883Z</time></trkpt><trkpt lat="40.6080217" lon="15.1276283"><ele>101.5</ele><time>2026-04-26T16:15:10.883Z</time></trkpt><trkpt lat="40.6079633" lon="15.1273433"><ele>105.0</ele><time>2026-04-26T16:15:11.883Z</time></trkpt><trkpt lat="40.60791" lon="15.1270533"><ele>105.0</ele><time>2026-04-26T16:15:12.883Z</time></trkpt><trkpt lat="40.6078617" lon="15.1267667"><ele>105.0</ele><time>2026-04-26T16:15:13.882Z</time></trkpt><trkpt lat="40.6078067" lon="15.12649"><ele>105.0</ele><time>2026-04-26T16:15:14.883Z</time></trkpt><trkpt lat="40.607755" lon="15.126215"><ele>104.0</ele><time>2026-04-26T16:15:15.883Z</time></trkpt><trkpt lat="40.6077067" lon="15.1259367"><ele>103.0</ele><time>2026-04-26T16:15:16.883Z</time></trkpt><trkpt lat="40.607655" lon="15.1256483"><ele>102.0</ele><time>2026-04-26T16:15:17.883Z</time></trkpt><trkpt lat="40.6076183" lon="15.1253617"><ele>102.0</ele><time>2026-04-26T16:15:18.882Z</time></trkpt><trkpt lat="40.60759" lon="15.1250667"><ele>102.0</ele><time>2026-04-26T16:15:19.882Z</time></trkpt><trkpt lat="40.60756" lon="15.1247783"><ele>102.0</ele><time>2026-04-26T16:15:20.882Z</time></trkpt><trkpt lat="40.607535" lon="15.1244883"><ele>101.0</ele><time>2026-04-26T16:15:21.882Z</time></trkpt><trkpt lat="40.6075067" lon="15.124205"><ele>100.0</ele><time>2026-04-26T16:15:22.882Z</time></trkpt><trkpt lat="40.6074833" lon="15.1239217"><ele>99.0</ele><time>2026-04-26T16:15:23.883Z</time></trkpt><trkpt lat="40.6074567" lon="15.12364"><ele>95.66666666666667</ele><time>2026-04-26T16:15:24.882Z</time></trkpt><trkpt lat="40.607425" lon="15.123355"><ele>92.33333333333334</ele><time>2026-04-26T16:15:25.882Z</time></trkpt><trkpt lat="40.6073983" lon="15.1230683"><ele>89.0</ele><time>2026-04-26T16:15:26.883Z</time></trkpt><trkpt lat="40.607375" lon="15.1227833"><ele>89.0</ele><time>2026-04-26T16:15:27.883Z</time></trkpt><trkpt lat="40.6073467" lon="15.122495"><ele>89.0</ele><time>2026-04-26T16:15:28.882Z</time></trkpt><trkpt lat="40.6073217" lon="15.1222083"><ele>89.0</ele><time>2026-04-26T16:15:29.882Z</time></trkpt><trkpt lat="40.6073" lon="15.1219183"><ele>93.66666666666667</ele><time>2026-04-26T16:15:30.883Z</time></trkpt><trkpt lat="40.607275" lon="15.12163"><ele>98.33333333333334</ele><time>2026-04-26T16:15:31.883Z</time></trkpt><trkpt lat="40.6072533" lon="15.1213417"><ele>103.0</ele><time>2026-04-26T16:15:32.883Z</time></trkpt><trkpt lat="40.6072317" lon="15.1210467"><ele>104.0</ele><time>2026-04-26T16:15:33.882Z</time></trkpt><trkpt lat="40.6072083" lon="15.1207583"><ele>105.0</ele><time>2026-04-26T16:15:34.882Z</time></trkpt><trkpt lat="40.6071833" lon="15.120465"><ele>106.0</ele><time>2026-04-26T16:15:35.883Z</time></trkpt><trkpt lat="40.6071567" lon="15.1201783"><ele>107.0</ele><time>2026-04-26T16:15:36.882Z</time></trkpt><trkpt lat="40.6071333" lon="15.1198933"><ele>108.0</ele><time>2026-04-26T16:15:37.883Z</time></trkpt><trkpt lat="40.6071067" lon="15.119605"><ele>109.0</ele><time>2026-04-26T16:15:38.883Z</time></trkpt><trkpt lat="40.60709" lon="15.119315"><ele>108.66666666666667</ele><time>2026-04-26T16:15:39.883Z</time></trkpt><trkpt lat="40.60707" lon="15.1190267"><ele>108.33333333333334</ele><time>2026-04-26T16:15:40.882Z</time></trkpt><trkpt lat="40.6070533" lon="15.11874"><ele>108.0</ele><time>2026-04-26T16:15:41.883Z</time></trkpt><trkpt lat="40.6070217" lon="15.1184483"><ele>108.0</ele><time>2026-04-26T16:15:42.882Z</time></trkpt><trkpt lat="40.6069967" lon="15.1181567"><ele>108.0</ele><time>2026-04-26T16:15:43.883Z</time></trkpt><trkpt lat="40.6069667" lon="15.1178733"><ele>108.0</ele><time>2026-04-26T16:15:44.882Z</time></trkpt><trkpt lat="40.606945" lon="15.1175883"><ele>107.0</ele><time>2026-04-26T16:15:45.882Z</time></trkpt><trkpt lat="40.6069183" lon="15.1172983"><ele>106.0</ele><time>2026-04-26T16:15:46.883Z</time></trkpt><trkpt lat="40.606885" lon="15.1170067"><ele>105.0</ele><time>2026-04-26T16:15:47.883Z</time></trkpt><trkpt lat="40.6068533" lon="15.1167167"><ele>105.0</ele><time>2026-04-26T16:15:48.883Z</time></trkpt><trkpt lat="40.606825" lon="15.116425"><ele>105.0</ele><time>2026-04-26T16:15:49.883Z</time></trkpt><trkpt lat="40.6068" lon="15.1161367"><ele>105.0</ele><time>2026-04-26T16:15:50.882Z</time></trkpt><trkpt lat="40.6067783" lon="15.1158433"><ele>106.0</ele><time>2026-04-26T16:15:51.883Z</time></trkpt><trkpt lat="40.6067533" lon="15.1155533"><ele>107.0</ele><time>2026-04-26T16:15:52.883Z</time></trkpt><trkpt lat="40.606735" lon="15.1152633"><ele>108.0</ele><time>2026-04-26T16:15:53.882Z</time></trkpt><trkpt lat="40.6067317" lon="15.11498"><ele>107.66666666666666</ele><time>2026-04-26T16:15:54.883Z</time></trkpt><trkpt lat="40.6067067" lon="15.114685"><ele>107.33333333333333</ele><time>2026-04-26T16:15:55.882Z</time></trkpt><trkpt lat="40.606685" lon="15.1143933"><ele>107.0</ele><time>2026-04-26T16:15:56.883Z</time></trkpt><trkpt lat="40.6066683" lon="15.1141017"><ele>107.0</ele><time>2026-04-26T16:15:57.883Z</time></trkpt><trkpt lat="40.606655" lon="15.1138133"><ele>107.0</ele><time>2026-04-26T16:15:58.882Z</time></trkpt><trkpt lat="40.60664" lon="15.1135233"><ele>107.0</ele><time>2026-04-26T16:15:59.883Z</time></trkpt><trkpt lat="40.606625" lon="15.1132333"><ele>107.0</ele><time>2026-04-26T16:16:00.882Z</time></trkpt><trkpt lat="40.60661" lon="15.1129433"><ele>107.0</ele><time>2026-04-26T16:16:01.883Z</time></trkpt><trkpt lat="40.60659" lon="15.1126533"><ele>107.0</ele><time>2026-04-26T16:16:02.883Z</time></trkpt><trkpt lat="40.60657" lon="15.1123617"><ele>106.33333333333333</ele><time>2026-04-26T16:16:03.882Z</time></trkpt><trkpt lat="40.6065483" lon="15.112065"><ele>105.66666666666666</ele><time>2026-04-26T16:16:04.883Z</time></trkpt><trkpt lat="40.6065317" lon="15.1117817"><ele>105.0</ele><time>2026-04-26T16:16:05.882Z</time></trkpt><trkpt lat="40.60651" lon="15.1114933"><ele>105.0</ele><time>2026-04-26T16:16:06.882Z</time></trkpt><trkpt lat="40.6064967" lon="15.111205"><ele>105.0</ele><time>2026-04-26T16:16:07.883Z</time></trkpt><trkpt lat="40.6064817" lon="15.110915"><ele>105.0</ele><time>2026-04-26T16:16:08.883Z</time></trkpt><trkpt lat="40.6064633" lon="15.11062"><ele>105.0</ele><time>2026-04-26T16:16:09.883Z</time></trkpt><trkpt lat="40.6064483" lon="15.1103317"><ele>105.0</ele><time>2026-04-26T16:16:10.882Z</time></trkpt><trkpt lat="40.6064383" lon="15.11004"><ele>105.0</ele><time>2026-04-26T16:16:11.883Z</time></trkpt><trkpt lat="40.60643" lon="15.1097483"><ele>104.66666666666666</ele><time>2026-04-26T16:16:12.882Z</time></trkpt><trkpt lat="40.6064217" lon="15.1094583"><ele>104.33333333333333</ele><time>2026-04-26T16:16:13.882Z</time></trkpt><trkpt lat="40.606405" lon="15.1091667"><ele>104.0</ele><time>2026-04-26T16:16:14.882Z</time></trkpt><trkpt lat="40.6063883" lon="15.108875"><ele>102.66666666666666</ele><time>2026-04-26T16:16:15.882Z</time></trkpt><trkpt lat="40.6063783" lon="15.1085917"><ele>101.33333333333334</ele><time>2026-04-26T16:16:16.883Z</time></trkpt><trkpt lat="40.60637" lon="15.1083033"><ele>100.0</ele><time>2026-04-26T16:16:17.883Z</time></trkpt><trkpt lat="40.60635" lon="15.1080117"><ele>99.33333333333334</ele><time>2026-04-26T16:16:18.883Z</time></trkpt><trkpt lat="40.6063383" lon="15.1077183"><ele>98.66666666666666</ele><time>2026-04-26T16:16:19.883Z</time></trkpt><trkpt lat="40.6063217" lon="15.1074267"><ele>98.0</ele><time>2026-04-26T16:16:20.883Z</time></trkpt><trkpt lat="40.6063067" lon="15.1071367"><ele>98.0</ele><time>2026-04-26T16:16:21.882Z</time></trkpt><trkpt lat="40.606285" lon="15.106845"><ele>98.0</ele><time>2026-04-26T16:16:22.882Z</time></trkpt><trkpt lat="40.6062683" lon="15.1065567"><ele>98.0</ele><time>2026-04-26T16:16:23.883Z</time></trkpt><trkpt lat="40.60625" lon="15.1062633"><ele>99.0</ele><time>2026-04-26T16:16:24.882Z</time></trkpt><trkpt lat="40.60623" lon="15.105975"><ele>100.0</ele><time>2026-04-26T16:16:25.882Z</time></trkpt><trkpt lat="40.606215" lon="15.105685"><ele>101.0</ele><time>2026-04-26T16:16:26.883Z</time></trkpt><trkpt lat="40.6062033" lon="15.10539"><ele>101.0</ele><time>2026-04-26T16:16:27.883Z</time></trkpt><trkpt lat="40.606185" lon="15.105105"><ele>101.0</ele><time>2026-04-26T16:16:28.883Z</time></trkpt><trkpt lat="40.6061717" lon="15.1048117"><ele>101.0</ele><time>2026-04-26T16:16:29.882Z</time></trkpt><trkpt lat="40.606165" lon="15.10452"><ele>101.33333333333333</ele><time>2026-04-26T16:16:30.883Z</time></trkpt><trkpt lat="40.606165" lon="15.1042283"><ele>101.66666666666666</ele><time>2026-04-26T16:16:31.883Z</time></trkpt><trkpt lat="40.6061717" lon="15.10394"><ele>102.0</ele><time>2026-04-26T16:16:32.883Z</time></trkpt><trkpt lat="40.606175" lon="15.1036433"><ele>101.0</ele><time>2026-04-26T16:16:33.882Z</time></trkpt><trkpt lat="40.6061883" lon="15.103355"><ele>100.0</ele><time>2026-04-26T16:16:34.883Z</time></trkpt><trkpt lat="40.606205" lon="15.1030667"><ele>99.0</ele><time>2026-04-26T16:16:35.882Z</time></trkpt><trkpt lat="40.606225" lon="15.1027767"><ele>97.66666666666667</ele><time>2026-04-26T16:16:36.883Z</time></trkpt><trkpt lat="40.606255" lon="15.1024867"><ele>96.33333333333334</ele><time>2026-04-26T16:16:37.883Z</time></trkpt><trkpt lat="40.6062917" lon="15.1022033"><ele>95.0</ele><time>2026-04-26T16:16:38.882Z</time></trkpt><trkpt lat="40.6063317" lon="15.1019167"><ele>94.66666666666667</ele><time>2026-04-26T16:16:39.883Z</time></trkpt><trkpt lat="40.6063733" lon="15.10163"><ele>94.33333333333333</ele><time>2026-04-26T16:16:40.882Z</time></trkpt><trkpt lat="40.606415" lon="15.1013467"><ele>94.0</ele><time>2026-04-26T16:16:41.882Z</time></trkpt><trkpt lat="40.6064617" lon="15.1010633"><ele>94.33333333333333</ele><time>2026-04-26T16:16:42.883Z</time></trkpt><trkpt lat="40.60651" lon="15.1007767"><ele>94.66666666666667</ele><time>2026-04-26T16:16:43.882Z</time></trkpt><trkpt lat="40.6065617" lon="15.1004917"><ele>95.0</ele><time>2026-04-26T16:16:44.882Z</time></trkpt><trkpt lat="40.6066133" lon="15.10021"><ele>95.0</ele><time>2026-04-26T16:16:45.883Z</time></trkpt><trkpt lat="40.6066683" lon="15.0999267"><ele>95.0</ele><time>2026-04-26T16:16:46.883Z</time></trkpt><trkpt lat="40.60672" lon="15.099645"><ele>95.0</ele><time>2026-04-26T16:16:47.882Z</time></trkpt><trkpt lat="40.6067717" lon="15.09936"><ele>95.33333333333334</ele><time>2026-04-26T16:16:48.883Z</time></trkpt><trkpt lat="40.6068233" lon="15.099085"><ele>95.66666666666667</ele><time>2026-04-26T16:16:49.883Z</time></trkpt><trkpt lat="40.606875" lon="15.0987983"><ele>96.0</ele><time>2026-04-26T16:16:50.882Z</time></trkpt><trkpt lat="40.6069317" lon="15.09852"><ele>95.66666666666667</ele><time>2026-04-26T16:16:51.883Z</time></trkpt><trkpt lat="40.606995" lon="15.09824"><ele>95.33333333333334</ele><time>2026-04-26T16:16:52.883Z</time></trkpt><trkpt lat="40.60706" lon="15.0979617"><ele>95.0</ele><time>2026-04-26T16:16:53.882Z</time></trkpt><trkpt lat="40.6071217" lon="15.0976833"><ele>95.33333333333334</ele><time>2026-04-26T16:16:54.882Z</time></trkpt><trkpt lat="40.607185" lon="15.0974"><ele>95.66666666666667</ele><time>2026-04-26T16:16:55.882Z</time></trkpt><trkpt lat="40.6072533" lon="15.0971233"><ele>96.0</ele><time>2026-04-26T16:16:56.882Z</time></trkpt><trkpt lat="40.6073217" lon="15.096845"><ele>96.0</ele><time>2026-04-26T16:16:57.882Z</time></trkpt><trkpt lat="40.607395" lon="15.0965667"><ele>96.0</ele><time>2026-04-26T16:16:58.882Z</time></trkpt><trkpt lat="40.607465" lon="15.0962983"><ele>96.0</ele><time>2026-04-26T16:16:59.883Z</time></trkpt><trkpt lat="40.60754" lon="15.096025"><ele>96.0</ele><time>2026-04-26T16:17:00.882Z</time></trkpt><trkpt lat="40.6076233" lon="15.0957533"><ele>96.0</ele><time>2026-04-26T16:17:01.882Z</time></trkpt><trkpt lat="40.6077067" lon="15.0954833"><ele>96.0</ele><time>2026-04-26T16:17:02.882Z</time></trkpt><trkpt lat="40.60779" lon="15.095215"><ele>96.0</ele><time>2026-04-26T16:17:03.883Z</time></trkpt><trkpt lat="40.607875" lon="15.094945"><ele>96.0</ele><time>2026-04-26T16:17:04.883Z</time></trkpt><trkpt lat="40.607965" lon="15.0946767"><ele>96.0</ele><time>2026-04-26T16:17:05.882Z</time></trkpt><trkpt lat="40.608055" lon="15.0944117"><ele>96.0</ele><time>2026-04-26T16:17:06.883Z</time></trkpt><trkpt lat="40.6081483" lon="15.09415"><ele>96.0</ele><time>2026-04-26T16:17:07.883Z</time></trkpt><trkpt lat="40.6082383" lon="15.093885"><ele>96.0</ele><time>2026-04-26T16:17:08.883Z</time></trkpt><trkpt lat="40.608325" lon="15.0936183"><ele>95.66666666666667</ele><time>2026-04-26T16:17:09.883Z</time></trkpt><trkpt lat="40.6084133" lon="15.09335"><ele>95.33333333333334</ele><time>2026-04-26T16:17:10.883Z</time></trkpt><trkpt lat="40.6085033" lon="15.0930867"><ele>95.0</ele><time>2026-04-26T16:17:11.883Z</time></trkpt><trkpt lat="40.6086017" lon="15.0928233"><ele>95.33333333333334</ele><time>2026-04-26T16:17:12.882Z</time></trkpt><trkpt lat="40.6086933" lon="15.0925533"><ele>95.66666666666667</ele><time>2026-04-26T16:17:13.883Z</time></trkpt><trkpt lat="40.608775" lon="15.092285"><ele>96.0</ele><time>2026-04-26T16:17:14.883Z</time></trkpt><trkpt lat="40.6088567" lon="15.092015"><ele>96.0</ele><time>2026-04-26T16:17:15.882Z</time></trkpt><trkpt lat="40.6089433" lon="15.0917433"><ele>96.0</ele><time>2026-04-26T16:17:16.883Z</time></trkpt><trkpt lat="40.6090183" lon="15.0914717"><ele>96.0</ele><time>2026-04-26T16:17:17.883Z</time></trkpt><trkpt lat="40.6090933" lon="15.0912017"><ele>96.0</ele><time>2026-04-26T16:17:18.883Z</time></trkpt><trkpt lat="40.60916" lon="15.0909233"><ele>96.0</ele><time>2026-04-26T16:17:19.882Z</time></trkpt><trkpt lat="40.609225" lon="15.09064"><ele>96.0</ele><time>2026-04-26T16:17:20.883Z</time></trkpt><trkpt lat="40.609285" lon="15.0903617"><ele>96.0</ele><time>2026-04-26T16:17:21.882Z</time></trkpt><trkpt lat="40.6093383" lon="15.0900767"><ele>96.0</ele><time>2026-04-26T16:17:22.882Z</time></trkpt><trkpt lat="40.609385" lon="15.0897967"><ele>96.0</ele><time>2026-04-26T16:17:23.882Z</time></trkpt><trkpt lat="40.6094333" lon="15.08951"><ele>95.33333333333333</ele><time>2026-04-26T16:17:24.883Z</time></trkpt><trkpt lat="40.60947" lon="15.0892367"><ele>94.66666666666666</ele><time>2026-04-26T16:17:25.883Z</time></trkpt><trkpt lat="40.6094983" lon="15.0889383"><ele>94.0</ele><time>2026-04-26T16:17:26.883Z</time></trkpt><trkpt lat="40.6095217" lon="15.088645"><ele>94.0</ele><time>2026-04-26T16:17:27.883Z</time></trkpt><trkpt lat="40.60955" lon="15.0883583"><ele>94.0</ele><time>2026-04-26T16:17:28.883Z</time></trkpt><trkpt lat="40.60958" lon="15.0880667"><ele>94.0</ele><time>2026-04-26T16:17:29.883Z</time></trkpt><trkpt lat="40.6096083" lon="15.087775"><ele>93.0</ele><time>2026-04-26T16:17:30.883Z</time></trkpt><trkpt lat="40.6096283" lon="15.08749"><ele>92.0</ele><time>2026-04-26T16:17:31.882Z</time></trkpt><trkpt lat="40.6096483" lon="15.0872017"><ele>91.0</ele><time>2026-04-26T16:17:32.882Z</time></trkpt><trkpt lat="40.6096683" lon="15.086915"><ele>89.66666666666666</ele><time>2026-04-26T16:17:33.883Z</time></trkpt><trkpt lat="40.6096867" lon="15.08662"><ele>88.33333333333333</ele><time>2026-04-26T16:17:34.883Z</time></trkpt><trkpt lat="40.6097067" lon="15.086335"><ele>87.0</ele><time>2026-04-26T16:17:35.882Z</time></trkpt><trkpt lat="40.6097233" lon="15.0860467"><ele>87.0</ele><time>2026-04-26T16:17:36.883Z</time></trkpt><trkpt lat="40.6097383" lon="15.08576"><ele>87.0</ele><time>2026-04-26T16:17:37.883Z</time></trkpt><trkpt lat="40.609755" lon="15.085465"><ele>87.0</ele><time>2026-04-26T16:17:38.883Z</time></trkpt><trkpt lat="40.60977" lon="15.085175"><ele>88.0</ele><time>2026-04-26T16:17:39.883Z</time></trkpt><trkpt lat="40.6097833" lon="15.0848867"><ele>89.0</ele><time>2026-04-26T16:17:40.882Z</time></trkpt><trkpt lat="40.6098033" lon="15.0845967"><ele>90.0</ele><time>2026-04-26T16:17:41.882Z</time></trkpt><trkpt lat="40.6098133" lon="15.08431"><ele>90.0</ele><time>2026-04-26T16:17:42.882Z</time></trkpt><trkpt lat="40.6098267" lon="15.0840183"><ele>90.0</ele><time>2026-04-26T16:17:43.882Z</time></trkpt><trkpt lat="40.6098333" lon="15.083725"><ele>90.0</ele><time>2026-04-26T16:17:44.883Z</time></trkpt><trkpt lat="40.6098417" lon="15.0834333"><ele>90.33333333333333</ele><time>2026-04-26T16:17:45.882Z</time></trkpt><trkpt lat="40.60985" lon="15.0831417"><ele>90.66666666666666</ele><time>2026-04-26T16:17:46.883Z</time></trkpt><trkpt lat="40.6098567" lon="15.0828533"><ele>91.0</ele><time>2026-04-26T16:17:47.882Z</time></trkpt><trkpt lat="40.60986" lon="15.0825667"><ele>91.0</ele><time>2026-04-26T16:17:48.882Z</time></trkpt><trkpt lat="40.6098567" lon="15.082275"><ele>91.0</ele><time>2026-04-26T16:17:49.882Z</time></trkpt><trkpt lat="40.6098517" lon="15.0819833"><ele>91.0</ele><time>2026-04-26T16:17:50.883Z</time></trkpt><trkpt lat="40.6098417" lon="15.0816917"><ele>90.66666666666666</ele><time>2026-04-26T16:17:51.882Z</time></trkpt><trkpt lat="40.6098367" lon="15.0813933"><ele>90.33333333333333</ele><time>2026-04-26T16:17:52.883Z</time></trkpt><trkpt lat="40.6098217" lon="15.0811033"><ele>90.0</ele><time>2026-04-26T16:17:53.882Z</time></trkpt><trkpt lat="40.6098067" lon="15.0808117"><ele>89.66666666666667</ele><time>2026-04-26T16:17:54.883Z</time></trkpt><trkpt lat="40.6097833" lon="15.0805217"><ele>89.33333333333334</ele><time>2026-04-26T16:17:55.883Z</time></trkpt><trkpt lat="40.6097667" lon="15.0802333"><ele>89.0</ele><time>2026-04-26T16:17:56.882Z</time></trkpt><trkpt lat="40.6097367" lon="15.0799417"><ele>89.0</ele><time>2026-04-26T16:17:57.882Z</time></trkpt><trkpt lat="40.6097017" lon="15.0796533"><ele>89.0</ele><time>2026-04-26T16:17:58.883Z</time></trkpt><trkpt lat="40.6096683" lon="15.0793617"><ele>89.0</ele><time>2026-04-26T16:17:59.883Z</time></trkpt><trkpt lat="40.6096283" lon="15.0790717"><ele>88.66666666666667</ele><time>2026-04-26T16:18:00.883Z</time></trkpt><trkpt lat="40.6095917" lon="15.0787833"><ele>88.33333333333333</ele><time>2026-04-26T16:18:01.883Z</time></trkpt><trkpt lat="40.60955" lon="15.0785017"><ele>88.0</ele><time>2026-04-26T16:18:02.883Z</time></trkpt><trkpt lat="40.6095067" lon="15.0782133"><ele>86.0</ele><time>2026-04-26T16:18:03.882Z</time></trkpt><trkpt lat="40.6094633" lon="15.077925"><ele>84.0</ele><time>2026-04-26T16:18:04.883Z</time></trkpt><trkpt lat="40.609415" lon="15.07764"><ele>82.0</ele><time>2026-04-26T16:18:05.882Z</time></trkpt><trkpt lat="40.6093583" lon="15.0773583"><ele>81.66666666666666</ele><time>2026-04-26T16:18:06.883Z</time></trkpt><trkpt lat="40.6093017" lon="15.0770767"><ele>81.33333333333333</ele><time>2026-04-26T16:18:07.883Z</time></trkpt><trkpt lat="40.6092417" lon="15.0767983"><ele>81.0</ele><time>2026-04-26T16:18:08.883Z</time></trkpt><trkpt lat="40.6091833" lon="15.0765183"><ele>81.0</ele><time>2026-04-26T16:18:09.883Z</time></trkpt><trkpt lat="40.6091317" lon="15.0762367"><ele>81.0</ele><time>2026-04-26T16:18:10.883Z</time></trkpt><trkpt lat="40.60908" lon="15.07595"><ele>81.0</ele><time>2026-04-26T16:18:11.883Z</time></trkpt><trkpt lat="40.609025" lon="15.07567"><ele>80.66666666666667</ele><time>2026-04-26T16:18:12.883Z</time></trkpt><trkpt lat="40.60897" lon="15.0753883"><ele>80.33333333333334</ele><time>2026-04-26T16:18:13.882Z</time></trkpt><trkpt lat="40.608925" lon="15.0751033"><ele>80.0</ele><time>2026-04-26T16:18:14.883Z</time></trkpt><trkpt lat="40.6088783" lon="15.0748117"><ele>80.0</ele><time>2026-04-26T16:18:15.883Z</time></trkpt><trkpt lat="40.6088217" lon="15.0745367"><ele>80.0</ele><time>2026-04-26T16:18:16.883Z</time></trkpt><trkpt lat="40.608765" lon="15.07425"><ele>80.0</ele><time>2026-04-26T16:18:17.883Z</time></trkpt><trkpt lat="40.6087083" lon="15.0739683"><ele>78.66666666666667</ele><time>2026-04-26T16:18:18.883Z</time></trkpt><trkpt lat="40.6086533" lon="15.0736867"><ele>77.33333333333333</ele><time>2026-04-26T16:18:19.883Z</time></trkpt><trkpt lat="40.6085983" lon="15.073405"><ele>76.0</ele><time>2026-04-26T16:18:20.882Z</time></trkpt><trkpt lat="40.6085433" lon="15.073125"><ele>76.0</ele><time>2026-04-26T16:18:21.883Z</time></trkpt><trkpt lat="40.6084883" lon="15.0728433"><ele>76.0</ele><time>2026-04-26T16:18:22.883Z</time></trkpt><trkpt lat="40.6084367" lon="15.0725667"><ele>76.0</ele><time>2026-04-26T16:18:23.882Z</time></trkpt><trkpt lat="40.6083917" lon="15.0722733"><ele>76.0</ele><time>2026-04-26T16:18:24.883Z</time></trkpt><trkpt lat="40.608335" lon="15.072"><ele>76.0</ele><time>2026-04-26T16:18:25.882Z</time></trkpt><trkpt lat="40.60828" lon="15.0717117"><ele>76.0</ele><time>2026-04-26T16:18:26.882Z</time></trkpt><trkpt lat="40.60823" lon="15.07143"><ele>75.0</ele><time>2026-04-26T16:18:27.883Z</time></trkpt><trkpt lat="40.608185" lon="15.07115"><ele>74.0</ele><time>2026-04-26T16:18:28.883Z</time></trkpt><trkpt lat="40.6081417" lon="15.070865"><ele>73.0</ele><time>2026-04-26T16:18:29.882Z</time></trkpt><trkpt lat="40.608105" lon="15.0705767"><ele>72.33333333333333</ele><time>2026-04-26T16:18:30.883Z</time></trkpt><trkpt lat="40.6080733" lon="15.0702933"><ele>71.66666666666667</ele><time>2026-04-26T16:18:31.882Z</time></trkpt><trkpt lat="40.6080433" lon="15.070005"><ele>71.0</ele><time>2026-04-26T16:18:32.882Z</time></trkpt><trkpt lat="40.6080183" lon="15.069715"><ele>71.0</ele><time>2026-04-26T16:18:33.883Z</time></trkpt><trkpt lat="40.6079917" lon="15.0694267"><ele>71.0</ele><time>2026-04-26T16:18:34.882Z</time></trkpt><trkpt lat="40.6079683" lon="15.06914"><ele>71.0</ele><time>2026-04-26T16:18:35.883Z</time></trkpt><trkpt lat="40.60795" lon="15.0688517"><ele>71.0</ele><time>2026-04-26T16:18:36.882Z</time></trkpt><trkpt lat="40.6079333" lon="15.0685583"><ele>71.0</ele><time>2026-04-26T16:18:37.883Z</time></trkpt><trkpt lat="40.6079183" lon="15.0682683"><ele>71.0</ele><time>2026-04-26T16:18:38.883Z</time></trkpt><trkpt lat="40.6079033" lon="15.0679767"><ele>71.33333333333334</ele><time>2026-04-26T16:18:39.882Z</time></trkpt><trkpt lat="40.607895" lon="15.06769"><ele>71.66666666666667</ele><time>2026-04-26T16:18:40.883Z</time></trkpt><trkpt lat="40.6078817" lon="15.0674"><ele>72.0</ele><time>2026-04-26T16:18:41.882Z</time></trkpt><trkpt lat="40.60787" lon="15.06711"><ele>72.33333333333333</ele><time>2026-04-26T16:18:42.882Z</time></trkpt><trkpt lat="40.60786" lon="15.06682"><ele>72.66666666666666</ele><time>2026-04-26T16:18:43.883Z</time></trkpt><trkpt lat="40.607855" lon="15.0665233"><ele>73.0</ele><time>2026-04-26T16:18:44.882Z</time></trkpt><trkpt lat="40.6078533" lon="15.0662317"><ele>73.0</ele><time>2026-04-26T16:18:45.882Z</time></trkpt><trkpt lat="40.6078517" lon="15.0659417"><ele>73.0</ele><time>2026-04-26T16:18:46.883Z</time></trkpt><trkpt lat="40.6078533" lon="15.0656533"><ele>73.0</ele><time>2026-04-26T16:18:47.883Z</time></trkpt><trkpt lat="40.60786" lon="15.0653567"><ele>73.0</ele><time>2026-04-26T16:18:48.882Z</time></trkpt><trkpt lat="40.6078617" lon="15.0650733"><ele>73.0</ele><time>2026-04-26T16:18:49.883Z</time></trkpt><trkpt lat="40.6078617" lon="15.064785"><ele>73.0</ele><time>2026-04-26T16:18:50.883Z</time></trkpt><trkpt lat="40.6078617" lon="15.0644933"><ele>73.33333333333333</ele><time>2026-04-26T16:18:51.883Z</time></trkpt><trkpt lat="40.6078633" lon="15.0642017"><ele>73.66666666666667</ele><time>2026-04-26T16:18:52.882Z</time></trkpt><trkpt lat="40.607865" lon="15.06391"><ele>74.0</ele><time>2026-04-26T16:18:53.883Z</time></trkpt><trkpt lat="40.60787" lon="15.0636217"><ele>74.66666666666667</ele><time>2026-04-26T16:18:54.882Z</time></trkpt><trkpt lat="40.6078767" lon="15.0633367"><ele>75.33333333333333</ele><time>2026-04-26T16:18:55.882Z</time></trkpt><trkpt lat="40.60788" lon="15.0630417"><ele>76.0</ele><time>2026-04-26T16:18:56.883Z</time></trkpt><trkpt lat="40.607885" lon="15.0627517"><ele>76.33333333333333</ele><time>2026-04-26T16:18:57.882Z</time></trkpt><trkpt lat="40.6078867" lon="15.0624633"><ele>76.66666666666667</ele><time>2026-04-26T16:18:58.882Z</time></trkpt><trkpt lat="40.607885" lon="15.0621767"><ele>77.0</ele><time>2026-04-26T16:18:59.883Z</time></trkpt><trkpt lat="40.607885" lon="15.0618867"><ele>78.33333333333334</ele><time>2026-04-26T16:19:00.883Z</time></trkpt><trkpt lat="40.6078817" lon="15.0615983"><ele>79.66666666666667</ele><time>2026-04-26T16:19:01.883Z</time></trkpt><trkpt lat="40.6078783" lon="15.06131"><ele>81.0</ele><time>2026-04-26T16:19:02.883Z</time></trkpt><trkpt lat="40.60788" lon="15.061015"><ele>81.66666666666667</ele><time>2026-04-26T16:19:03.883Z</time></trkpt><trkpt lat="40.6078833" lon="15.06073"><ele>82.33333333333334</ele><time>2026-04-26T16:19:04.882Z</time></trkpt><trkpt lat="40.60788" lon="15.0604317"><ele>83.0</ele><time>2026-04-26T16:19:05.883Z</time></trkpt><trkpt lat="40.60788" lon="15.0601367"><ele>82.66666666666667</ele><time>2026-04-26T16:19:06.883Z</time></trkpt><trkpt lat="40.60788" lon="15.0598467"><ele>82.33333333333333</ele><time>2026-04-26T16:19:07.882Z</time></trkpt><trkpt lat="40.6078783" lon="15.0595567"><ele>82.0</ele><time>2026-04-26T16:19:08.883Z</time></trkpt><trkpt lat="40.6078783" lon="15.059275"><ele>82.33333333333333</ele><time>2026-04-26T16:19:09.882Z</time></trkpt><trkpt lat="40.6078767" lon="15.0589833"><ele>82.66666666666667</ele><time>2026-04-26T16:19:10.882Z</time></trkpt><trkpt lat="40.6078783" lon="15.0586933"><ele>83.0</ele><time>2026-04-26T16:19:11.883Z</time></trkpt><trkpt lat="40.6078783" lon="15.058405"><ele>83.33333333333334</ele><time>2026-04-26T16:19:12.883Z</time></trkpt><trkpt lat="40.6078817" lon="15.0581167"><ele>83.66666666666667</ele><time>2026-04-26T16:19:13.882Z</time></trkpt><trkpt lat="40.6078833" lon="15.057825"><ele>84.0</ele><time>2026-04-26T16:19:14.882Z</time></trkpt><trkpt lat="40.6078833" lon="15.0575367"><ele>83.66666666666667</ele><time>2026-04-26T16:19:15.883Z</time></trkpt><trkpt lat="40.6078833" lon="15.0572433"><ele>83.33333333333334</ele><time>2026-04-26T16:19:16.883Z</time></trkpt><trkpt lat="40.6078833" lon="15.0569517"><ele>83.0</ele><time>2026-04-26T16:19:17.882Z</time></trkpt><trkpt lat="40.6078817" lon="15.0566633"><ele>83.33333333333334</ele><time>2026-04-26T16:19:18.882Z</time></trkpt><trkpt lat="40.6078833" lon="15.0563733"><ele>83.66666666666667</ele><time>2026-04-26T16:19:19.883Z</time></trkpt><trkpt lat="40.6078833" lon="15.0560833"><ele>84.0</ele><time>2026-04-26T16:19:20.882Z</time></trkpt><trkpt lat="40.6078783" lon="15.0557917"><ele>83.66666666666667</ele><time>2026-04-26T16:19:21.882Z</time></trkpt><trkpt lat="40.60788" lon="15.0555"><ele>83.33333333333334</ele><time>2026-04-26T16:19:22.883Z</time></trkpt><trkpt lat="40.6078717" lon="15.0552083"><ele>83.0</ele><time>2026-04-26T16:19:23.882Z</time></trkpt><trkpt lat="40.6078817" lon="15.054925"><ele>83.0</ele><time>2026-04-26T16:19:24.883Z</time></trkpt><trkpt lat="40.607885" lon="15.0546333"><ele>83.0</ele><time>2026-04-26T16:19:25.883Z</time></trkpt><trkpt lat="40.607885" lon="15.054345"><ele>83.0</ele><time>2026-04-26T16:19:26.882Z</time></trkpt><trkpt lat="40.607885" lon="15.0540567"><ele>83.0</ele><time>2026-04-26T16:19:27.883Z</time></trkpt><trkpt lat="40.60789" lon="15.0537717"><ele>83.0</ele><time>2026-04-26T16:19:28.882Z</time></trkpt><trkpt lat="40.6078933" lon="15.0534833"><ele>83.0</ele><time>2026-04-26T16:19:29.883Z</time></trkpt><trkpt lat="40.6078917" lon="15.053195"><ele>82.66666666666667</ele><time>2026-04-26T16:19:30.882Z</time></trkpt><trkpt lat="40.6078933" lon="15.0529033"><ele>82.33333333333333</ele><time>2026-04-26T16:19:31.883Z</time></trkpt><trkpt lat="40.607895" lon="15.0526067"><ele>82.0</ele><time>2026-04-26T16:19:32.883Z</time></trkpt><trkpt lat="40.6078883" lon="15.0523167"><ele>81.66666666666666</ele><time>2026-04-26T16:19:33.882Z</time></trkpt><trkpt lat="40.6078833" lon="15.0520283"><ele>81.33333333333333</ele><time>2026-04-26T16:19:34.883Z</time></trkpt><trkpt lat="40.6078817" lon="15.05173"><ele>81.0</ele><time>2026-04-26T16:19:35.882Z</time></trkpt><trkpt lat="40.6078783" lon="15.0514383"><ele>80.33333333333333</ele><time>2026-04-26T16:19:36.883Z</time></trkpt><trkpt lat="40.6078783" lon="15.0511433"><ele>79.66666666666666</ele><time>2026-04-26T16:19:37.883Z</time></trkpt><trkpt lat="40.6078767" lon="15.0508517"><ele>79.0</ele><time>2026-04-26T16:19:38.883Z</time></trkpt><trkpt lat="40.6078733" lon="15.050565"><ele>79.0</ele><time>2026-04-26T16:19:39.882Z</time></trkpt><trkpt lat="40.607875" lon="15.0502783"><ele>79.0</ele><time>2026-04-26T16:19:40.883Z</time></trkpt><trkpt lat="40.6078683" lon="15.04999"><ele>79.0</ele><time>2026-04-26T16:19:41.882Z</time></trkpt><trkpt lat="40.6078517" lon="15.049695"><ele>79.0</ele><time>2026-04-26T16:19:42.883Z</time></trkpt><trkpt lat="40.6078333" lon="15.0494033"><ele>79.0</ele><time>2026-04-26T16:19:43.883Z</time></trkpt><trkpt lat="40.6078117" lon="15.04911"><ele>79.0</ele><time>2026-04-26T16:19:44.882Z</time></trkpt><trkpt lat="40.6077867" lon="15.0488217"><ele>78.33333333333333</ele><time>2026-04-26T16:19:45.882Z</time></trkpt><trkpt lat="40.6077583" lon="15.04853"><ele>77.66666666666667</ele><time>2026-04-26T16:19:46.883Z</time></trkpt><trkpt lat="40.60773" lon="15.0482433"><ele>77.0</ele><time>2026-04-26T16:19:47.882Z</time></trkpt><trkpt lat="40.60769" lon="15.0479583"><ele>77.0</ele><time>2026-04-26T16:19:48.883Z</time></trkpt><trkpt lat="40.60765" lon="15.0476733"><ele>77.0</ele><time>2026-04-26T16:19:49.882Z</time></trkpt><trkpt lat="40.6076083" lon="15.0473867"><ele>77.0</ele><time>2026-04-26T16:19:50.882Z</time></trkpt><trkpt lat="40.6075667" lon="15.0471017"><ele>77.0</ele><time>2026-04-26T16:19:51.882Z</time></trkpt><trkpt lat="40.6075183" lon="15.046815"><ele>77.0</ele><time>2026-04-26T16:19:52.883Z</time></trkpt><trkpt lat="40.6074733" lon="15.0465333"><ele>77.0</ele><time>2026-04-26T16:19:53.883Z</time></trkpt><trkpt lat="40.607435" lon="15.046245"><ele>77.33333333333334</ele><time>2026-04-26T16:19:54.883Z</time></trkpt><trkpt lat="40.6073983" lon="15.04596"><ele>77.66666666666667</ele><time>2026-04-26T16:19:55.882Z</time></trkpt><trkpt lat="40.60736" lon="15.0456833"><ele>78.0</ele><time>2026-04-26T16:19:56.882Z</time></trkpt><trkpt lat="40.60732" lon="15.045405"><ele>78.33333333333333</ele><time>2026-04-26T16:19:57.883Z</time></trkpt><trkpt lat="40.607275" lon="15.0451217"><ele>78.66666666666666</ele><time>2026-04-26T16:19:58.882Z</time></trkpt><trkpt lat="40.6072267" lon="15.044835"><ele>79.0</ele><time>2026-04-26T16:19:59.883Z</time></trkpt><trkpt lat="40.60718" lon="15.0445467"><ele>81.33333333333333</ele><time>2026-04-26T16:20:00.883Z</time></trkpt><trkpt lat="40.60714" lon="15.0442617"><ele>83.66666666666667</ele><time>2026-04-26T16:20:01.883Z</time></trkpt><trkpt lat="40.6070933" lon="15.0439783"><ele>86.0</ele><time>2026-04-26T16:20:02.883Z</time></trkpt><trkpt lat="40.60705" lon="15.0436983"><ele>85.66666666666667</ele><time>2026-04-26T16:20:03.882Z</time></trkpt><trkpt lat="40.607005" lon="15.0434183"><ele>85.33333333333333</ele><time>2026-04-26T16:20:04.883Z</time></trkpt><trkpt lat="40.6069583" lon="15.0431383"><ele>85.0</ele><time>2026-04-26T16:20:05.883Z</time></trkpt><trkpt lat="40.6069133" lon="15.0428533"><ele>85.0</ele><time>2026-04-26T16:20:06.882Z</time></trkpt><trkpt lat="40.6068767" lon="15.0425667"><ele>85.0</ele><time>2026-04-26T16:20:07.882Z</time></trkpt><trkpt lat="40.6068333" lon="15.042275"><ele>85.0</ele><time>2026-04-26T16:20:08.883Z</time></trkpt><trkpt lat="40.606785" lon="15.041985"><ele>88.66666666666666</ele><time>2026-04-26T16:20:09.882Z</time></trkpt><trkpt lat="40.6067283" lon="15.0417"><ele>92.33333333333333</ele><time>2026-04-26T16:20:10.882Z</time></trkpt><trkpt lat="40.6066703" lon="15.0414191"><ele>96.0</ele><time>2026-04-26T16:20:11.883Z</time></trkpt><trkpt lat="40.6065986" lon="15.041148"><ele>100.0</ele><time>2026-04-26T16:20:12.883Z</time></trkpt><trkpt lat="40.6065222" lon="15.0408793"><ele>104.0</ele><time>2026-04-26T16:20:13.883Z</time></trkpt><trkpt lat="40.6064399" lon="15.0406118"><ele>108.0</ele><time>2026-04-26T16:20:14.882Z</time></trkpt><trkpt lat="40.6063534" lon="15.0403463"><ele>105.33333333333334</ele><time>2026-04-26T16:20:15.882Z</time></trkpt><trkpt lat="40.6062623" lon="15.0400801"><ele>102.66666666666667</ele><time>2026-04-26T16:20:16.882Z</time></trkpt><trkpt lat="40.6061673" lon="15.0398173"><ele>100.0</ele><time>2026-04-26T16:20:17.883Z</time></trkpt><trkpt lat="40.6060723" lon="15.0395537"><ele>100.0</ele><time>2026-04-26T16:20:18.883Z</time></trkpt><trkpt lat="40.6059739" lon="15.0392894"><ele>100.0</ele><time>2026-04-26T16:20:19.882Z</time></trkpt><trkpt lat="40.6058756" lon="15.0390226"><ele>100.0</ele><time>2026-04-26T16:20:20.883Z</time></trkpt><trkpt lat="40.6057794" lon="15.0387556"><ele>102.33333333333334</ele><time>2026-04-26T16:20:21.882Z</time></trkpt><trkpt lat="40.6056821" lon="15.0384956"><ele>104.66666666666666</ele><time>2026-04-26T16:20:22.882Z</time></trkpt><trkpt lat="40.6055853" lon="15.0382333"><ele>107.0</ele><time>2026-04-26T16:20:23.882Z</time></trkpt><trkpt lat="40.6054905" lon="15.0379702"><ele>109.66666666666666</ele><time>2026-04-26T16:20:24.883Z</time></trkpt><trkpt lat="40.6053967" lon="15.0377058"><ele>112.33333333333334</ele><time>2026-04-26T16:20:25.882Z</time></trkpt><trkpt lat="40.6053021" lon="15.0374422"><ele>115.0</ele><time>2026-04-26T16:20:26.882Z</time></trkpt><trkpt lat="40.605205" lon="15.0371822"><ele>111.66666666666667</ele><time>2026-04-26T16:20:27.882Z</time></trkpt><trkpt lat="40.6051105" lon="15.0369188"><ele>108.33333333333334</ele><time>2026-04-26T16:20:28.882Z</time></trkpt><trkpt lat="40.6050145" lon="15.0366577"><ele>105.0</ele><time>2026-04-26T16:20:29.882Z</time></trkpt><trkpt lat="40.6049169" lon="15.0363952"><ele>105.0</ele><time>2026-04-26T16:20:30.882Z</time></trkpt><trkpt lat="40.6048223" lon="15.0361335"><ele>105.0</ele><time>2026-04-26T16:20:31.882Z</time></trkpt><trkpt lat="40.6047262" lon="15.0358681"><ele>105.0</ele><time>2026-04-26T16:20:32.882Z</time></trkpt><trkpt lat="40.6046285" lon="15.035604"><ele>102.0</ele><time>2026-04-26T16:20:33.883Z</time></trkpt><trkpt lat="40.6045327" lon="15.0353393"><ele>99.0</ele><time>2026-04-26T16:20:34.882Z</time></trkpt><trkpt lat="40.6044353" lon="15.0350782"><ele>96.0</ele><time>2026-04-26T16:20:35.883Z</time></trkpt><trkpt lat="40.6043396" lon="15.0348155"><ele>96.0</ele><time>2026-04-26T16:20:36.882Z</time></trkpt><trkpt lat="40.6042439" lon="15.0345499"><ele>96.0</ele><time>2026-04-26T16:20:37.883Z</time></trkpt><trkpt lat="40.6041534" lon="15.0342881"><ele>96.0</ele><time>2026-04-26T16:20:38.882Z</time></trkpt><trkpt lat="40.6040657" lon="15.0340255"><ele>99.0</ele><time>2026-04-26T16:20:39.883Z</time></trkpt><trkpt lat="40.6039791" lon="15.0337632"><ele>102.0</ele><time>2026-04-26T16:20:40.882Z</time></trkpt><trkpt lat="40.6039011" lon="15.0334936"><ele>105.0</ele><time>2026-04-26T16:20:41.882Z</time></trkpt><trkpt lat="40.6038285" lon="15.0332204"><ele>107.0</ele><time>2026-04-26T16:20:42.883Z</time></trkpt><trkpt lat="40.603758" lon="15.0329474"><ele>109.0</ele><time>2026-04-26T16:20:43.882Z</time></trkpt><trkpt lat="40.6036947" lon="15.0326692"><ele>111.0</ele><time>2026-04-26T16:20:44.883Z</time></trkpt><trkpt lat="40.6036403" lon="15.0323859"><ele>107.66666666666666</ele><time>2026-04-26T16:20:45.883Z</time></trkpt><trkpt lat="40.6035912" lon="15.0321004"><ele>104.33333333333333</ele><time>2026-04-26T16:20:46.882Z</time></trkpt><trkpt lat="40.6035507" lon="15.0318178"><ele>101.0</ele><time>2026-04-26T16:20:47.882Z</time></trkpt><trkpt lat="40.603514" lon="15.0315306"><ele>101.0</ele><time>2026-04-26T16:20:48.883Z</time></trkpt><trkpt lat="40.6034752" lon="15.0312413"><ele>101.0</ele><time>2026-04-26T16:20:49.882Z</time></trkpt><trkpt lat="40.6034424" lon="15.0309523"><ele>101.0</ele><time>2026-04-26T16:20:50.882Z</time></trkpt><trkpt lat="40.6034139" lon="15.0306633"><ele>101.33333333333333</ele><time>2026-04-26T16:20:51.883Z</time></trkpt><trkpt lat="40.6033934" lon="15.030377"><ele>101.66666666666666</ele><time>2026-04-26T16:20:52.883Z</time></trkpt><trkpt lat="40.6033769" lon="15.0300873"><ele>102.0</ele><time>2026-04-26T16:20:53.882Z</time></trkpt><trkpt lat="40.6033592" lon="15.0297987"><ele>100.66666666666666</ele><time>2026-04-26T16:20:54.883Z</time></trkpt><trkpt lat="40.6033422" lon="15.0295103"><ele>99.33333333333333</ele><time>2026-04-26T16:20:55.883Z</time></trkpt><trkpt lat="40.6033255" lon="15.0292227"><ele>98.0</ele><time>2026-04-26T16:20:56.882Z</time></trkpt><trkpt lat="40.6033076" lon="15.0289315"><ele>98.0</ele><time>2026-04-26T16:20:57.882Z</time></trkpt><trkpt lat="40.6032838" lon="15.0286416"><ele>98.0</ele><time>2026-04-26T16:20:58.883Z</time></trkpt><trkpt lat="40.6032664" lon="15.0283545"><ele>98.0</ele><time>2026-04-26T16:20:59.882Z</time></trkpt><trkpt lat="40.6032571" lon="15.0280579"><ele>97.33333333333333</ele><time>2026-04-26T16:21:00.882Z</time></trkpt><trkpt lat="40.603245" lon="15.0277658"><ele>96.66666666666666</ele><time>2026-04-26T16:21:01.883Z</time></trkpt><trkpt lat="40.6032287" lon="15.0274764"><ele>96.0</ele><time>2026-04-26T16:21:02.882Z</time></trkpt><trkpt lat="40.6032086" lon="15.0271879"><ele>95.0</ele><time>2026-04-26T16:21:03.883Z</time></trkpt><trkpt lat="40.6031829" lon="15.0268996"><ele>94.0</ele><time>2026-04-26T16:21:04.883Z</time></trkpt><trkpt lat="40.6031611" lon="15.02661"><ele>93.0</ele><time>2026-04-26T16:21:05.882Z</time></trkpt><trkpt lat="40.6031372" lon="15.0263215"><ele>92.66666666666667</ele><time>2026-04-26T16:21:06.883Z</time></trkpt><trkpt lat="40.6031124" lon="15.0260334"><ele>92.33333333333334</ele><time>2026-04-26T16:21:07.882Z</time></trkpt><trkpt lat="40.6030818" lon="15.0257426"><ele>92.0</ele><time>2026-04-26T16:21:08.883Z</time></trkpt><trkpt lat="40.6030466" lon="15.0254547"><ele>92.0</ele><time>2026-04-26T16:21:09.883Z</time></trkpt><trkpt lat="40.6030068" lon="15.0251678"><ele>92.0</ele><time>2026-04-26T16:21:10.883Z</time></trkpt><trkpt lat="40.6029651" lon="15.0248826"><ele>92.0</ele><time>2026-04-26T16:21:11.883Z</time></trkpt><trkpt lat="40.6029243" lon="15.0245978"><ele>94.0</ele><time>2026-04-26T16:21:12.882Z</time></trkpt><trkpt lat="40.6028808" lon="15.0243155"><ele>96.0</ele><time>2026-04-26T16:21:13.882Z</time></trkpt><trkpt lat="40.6028374" lon="15.02403"><ele>98.0</ele><time>2026-04-26T16:21:14.883Z</time></trkpt><trkpt lat="40.6027949" lon="15.0237432"><ele>94.0</ele><time>2026-04-26T16:21:15.883Z</time></trkpt><trkpt lat="40.602753" lon="15.0234542"><ele>90.0</ele><time>2026-04-26T16:21:16.882Z</time></trkpt><trkpt lat="40.6027094" lon="15.0231673"><ele>86.0</ele><time>2026-04-26T16:21:17.883Z</time></trkpt><trkpt lat="40.6026667" lon="15.0228839"><ele>86.0</ele><time>2026-04-26T16:21:18.882Z</time></trkpt><trkpt lat="40.6026235" lon="15.0225957"><ele>86.0</ele><time>2026-04-26T16:21:19.882Z</time></trkpt><trkpt lat="40.6025794" lon="15.0223087"><ele>86.0</ele><time>2026-04-26T16:21:20.883Z</time></trkpt><trkpt lat="40.6025367" lon="15.0220195"><ele>87.33333333333334</ele><time>2026-04-26T16:21:21.882Z</time></trkpt><trkpt lat="40.6024893" lon="15.0217352"><ele>88.66666666666667</ele><time>2026-04-26T16:21:22.883Z</time></trkpt><trkpt lat="40.6024399" lon="15.0214552"><ele>90.0</ele><time>2026-04-26T16:21:23.882Z</time></trkpt><trkpt lat="40.6023924" lon="15.0211703"><ele>93.0</ele><time>2026-04-26T16:21:24.882Z</time></trkpt><trkpt lat="40.6023467" lon="15.0208829"><ele>96.0</ele><time>2026-04-26T16:21:25.883Z</time></trkpt><trkpt lat="40.6022991" lon="15.0205984"><ele>99.0</ele><time>2026-04-26T16:21:26.882Z</time></trkpt><trkpt lat="40.602251" lon="15.0203123"><ele>101.66666666666666</ele><time>2026-04-26T16:21:27.883Z</time></trkpt><trkpt lat="40.6022015" lon="15.0200241"><ele>104.33333333333333</ele><time>2026-04-26T16:21:28.883Z</time></trkpt><trkpt lat="40.6021516" lon="15.0197445"><ele>107.0</ele><time>2026-04-26T16:21:29.882Z</time></trkpt><trkpt lat="40.6021041" lon="15.0194589"><ele>109.33333333333333</ele><time>2026-04-26T16:21:30.883Z</time></trkpt><trkpt lat="40.6020585" lon="15.0191711"><ele>111.66666666666666</ele><time>2026-04-26T16:21:31.883Z</time></trkpt><trkpt lat="40.6020154" lon="15.0188841"><ele>114.0</ele><time>2026-04-26T16:21:32.882Z</time></trkpt><trkpt lat="40.6019722" lon="15.0185984"><ele>105.66666666666667</ele><time>2026-04-26T16:21:33.883Z</time></trkpt><trkpt lat="40.6019288" lon="15.0183105"><ele>97.33333333333334</ele><time>2026-04-26T16:21:34.882Z</time></trkpt><trkpt lat="40.601882" lon="15.0180298"><ele>89.0</ele><time>2026-04-26T16:21:35.882Z</time></trkpt><trkpt lat="40.6018341" lon="15.0177523"><ele>90.0</ele><time>2026-04-26T16:21:36.883Z</time></trkpt><trkpt lat="40.6017883" lon="15.0174708"><ele>91.0</ele><time>2026-04-26T16:21:37.883Z</time></trkpt><trkpt lat="40.6017479" lon="15.0171893"><ele>92.0</ele><time>2026-04-26T16:21:38.882Z</time></trkpt><trkpt lat="40.6017054" lon="15.0169062"><ele>92.66666666666667</ele><time>2026-04-26T16:21:39.882Z</time></trkpt><trkpt lat="40.6016623" lon="15.0166208"><ele>93.33333333333333</ele><time>2026-04-26T16:21:40.883Z</time></trkpt><trkpt lat="40.6016167" lon="15.0163419"><ele>94.0</ele><time>2026-04-26T16:21:41.883Z</time></trkpt><trkpt lat="40.6015701" lon="15.0160581"><ele>95.33333333333333</ele><time>2026-04-26T16:21:42.883Z</time></trkpt><trkpt lat="40.6015215" lon="15.0157737"><ele>96.66666666666666</ele><time>2026-04-26T16:21:43.883Z</time></trkpt><trkpt lat="40.601473" lon="15.0154914"><ele>98.0</ele><time>2026-04-26T16:21:44.883Z</time></trkpt><trkpt lat="40.6014267" lon="15.0152069"><ele>98.0</ele><time>2026-04-26T16:21:45.882Z</time></trkpt><trkpt lat="40.6013826" lon="15.0149221"><ele>98.0</ele><time>2026-04-26T16:21:46.882Z</time></trkpt><trkpt lat="40.6013356" lon="15.0146373"><ele>98.0</ele><time>2026-04-26T16:21:47.883Z</time></trkpt><trkpt lat="40.6012886" lon="15.0143519"><ele>98.33333333333333</ele><time>2026-04-26T16:21:48.882Z</time></trkpt><trkpt lat="40.6012481" lon="15.0140667"><ele>98.66666666666666</ele><time>2026-04-26T16:21:49.883Z</time></trkpt><trkpt lat="40.6012112" lon="15.01378"><ele>99.0</ele><time>2026-04-26T16:21:50.883Z</time></trkpt><trkpt lat="40.601184" lon="15.0134882"><ele>94.0</ele><time>2026-04-26T16:21:51.883Z</time></trkpt><trkpt lat="40.6011603" lon="15.0131959"><ele>89.0</ele><time>2026-04-26T16:21:52.883Z</time></trkpt><trkpt lat="40.6011405" lon="15.0129045"><ele>84.0</ele><time>2026-04-26T16:21:53.883Z</time></trkpt><trkpt lat="40.6011228" lon="15.0126165"><ele>84.66666666666667</ele><time>2026-04-26T16:21:54.882Z</time></trkpt><trkpt lat="40.6011035" lon="15.0123297"><ele>85.33333333333334</ele><time>2026-04-26T16:21:55.883Z</time></trkpt><trkpt lat="40.601085" lon="15.0120406"><ele>86.0</ele><time>2026-04-26T16:21:56.882Z</time></trkpt><trkpt lat="40.6010654" lon="15.0117527"><ele>84.66666666666667</ele><time>2026-04-26T16:21:57.882Z</time></trkpt><trkpt lat="40.6010442" lon="15.0114616"><ele>83.33333333333333</ele><time>2026-04-26T16:21:58.882Z</time></trkpt><trkpt lat="40.6010239" lon="15.0111691"><ele>82.0</ele><time>2026-04-26T16:21:59.883Z</time></trkpt><trkpt lat="40.6010002" lon="15.0108785"><ele>81.33333333333333</ele><time>2026-04-26T16:22:00.882Z</time></trkpt><trkpt lat="40.6009779" lon="15.0105882"><ele>80.66666666666667</ele><time>2026-04-26T16:22:01.883Z</time></trkpt><trkpt lat="40.6009586" lon="15.0102977"><ele>80.0</ele><time>2026-04-26T16:22:02.882Z</time></trkpt><trkpt lat="40.6009434" lon="15.0100029"><ele>80.33333333333334</ele><time>2026-04-26T16:22:03.882Z</time></trkpt><trkpt lat="40.6009331" lon="15.0097124"><ele>80.66666666666667</ele><time>2026-04-26T16:22:04.882Z</time></trkpt><trkpt lat="40.6009287" lon="15.0094271"><ele>81.0</ele><time>2026-04-26T16:22:05.883Z</time></trkpt><trkpt lat="40.600932" lon="15.0091409"><ele>81.0</ele><time>2026-04-26T16:22:06.882Z</time></trkpt><trkpt lat="40.6009447" lon="15.0088496"><ele>81.0</ele><time>2026-04-26T16:22:07.882Z</time></trkpt><trkpt lat="40.6009659" lon="15.0085546"><ele>81.0</ele><time>2026-04-26T16:22:08.882Z</time></trkpt><trkpt lat="40.6009886" lon="15.0082646"><ele>80.0</ele><time>2026-04-26T16:22:09.883Z</time></trkpt><trkpt lat="40.6010154" lon="15.0079772"><ele>79.0</ele><time>2026-04-26T16:22:10.883Z</time></trkpt><trkpt lat="40.6010501" lon="15.0076881"><ele>78.0</ele><time>2026-04-26T16:22:11.882Z</time></trkpt><trkpt lat="40.6010899" lon="15.007401"><ele>77.0</ele><time>2026-04-26T16:22:12.882Z</time></trkpt><trkpt lat="40.6011392" lon="15.0071119"><ele>76.0</ele><time>2026-04-26T16:22:13.882Z</time></trkpt><trkpt lat="40.6011994" lon="15.0068351"><ele>75.0</ele><time>2026-04-26T16:22:14.882Z</time></trkpt><trkpt lat="40.601275" lon="15.0065603"><ele>75.33333333333333</ele><time>2026-04-26T16:22:15.883Z</time></trkpt><trkpt lat="40.6013559" lon="15.0062888"><ele>75.66666666666666</ele><time>2026-04-26T16:22:16.882Z</time></trkpt><trkpt lat="40.6014424" lon="15.0060201"><ele>76.0</ele><time>2026-04-26T16:22:17.883Z</time></trkpt><trkpt lat="40.6015357" lon="15.0057575"><ele>76.0</ele><time>2026-04-26T16:22:18.883Z</time></trkpt><trkpt lat="40.6016345" lon="15.0054954"><ele>76.0</ele><time>2026-04-26T16:22:19.882Z</time></trkpt><trkpt lat="40.601739" lon="15.0052381"><ele>76.0</ele><time>2026-04-26T16:22:20.883Z</time></trkpt><trkpt lat="40.6018504" lon="15.004986"><ele>76.66666666666666</ele><time>2026-04-26T16:22:21.883Z</time></trkpt><trkpt lat="40.6019663" lon="15.0047356"><ele>77.33333333333333</ele><time>2026-04-26T16:22:22.883Z</time></trkpt><trkpt lat="40.6020908" lon="15.0044931"><ele>78.0</ele><time>2026-04-26T16:22:23.882Z</time></trkpt><trkpt lat="40.602224" lon="15.0042581"><ele>77.33333333333333</ele><time>2026-04-26T16:22:24.882Z</time></trkpt><trkpt lat="40.6023604" lon="15.0040309"><ele>76.66666666666666</ele><time>2026-04-26T16:22:25.883Z</time></trkpt><trkpt lat="40.6025059" lon="15.0038096"><ele>76.0</ele><time>2026-04-26T16:22:26.883Z</time></trkpt><trkpt lat="40.6026575" lon="15.0035958"><ele>76.0</ele><time>2026-04-26T16:22:27.882Z</time></trkpt><trkpt lat="40.6028143" lon="15.0033891"><ele>76.0</ele><time>2026-04-26T16:22:28.883Z</time></trkpt><trkpt lat="40.6029747" lon="15.0031867"><ele>76.0</ele><time>2026-04-26T16:22:29.883Z</time></trkpt><trkpt lat="40.6031393" lon="15.0029909"><ele>76.0</ele><time>2026-04-26T16:22:30.883Z</time></trkpt><trkpt lat="40.6033049" lon="15.0027953"><ele>76.0</ele><time>2026-04-26T16:22:31.883Z</time></trkpt><trkpt lat="40.603469" lon="15.0026003"><ele>76.0</ele><time>2026-04-26T16:22:32.883Z</time></trkpt><trkpt lat="40.6036325" lon="15.0024081"><ele>77.0</ele><time>2026-04-26T16:22:33.882Z</time></trkpt><trkpt lat="40.603799" lon="15.0022171"><ele>78.0</ele><time>2026-04-26T16:22:34.882Z</time></trkpt><trkpt lat="40.6039687" lon="15.00203"><ele>79.0</ele><time>2026-04-26T16:22:35.882Z</time></trkpt><trkpt lat="40.6041376" lon="15.0018431"><ele>79.0</ele><time>2026-04-26T16:22:36.882Z</time></trkpt><trkpt lat="40.6043073" lon="15.001659"><ele>79.0</ele><time>2026-04-26T16:22:37.883Z</time></trkpt><trkpt lat="40.6044772" lon="15.0014717"><ele>79.0</ele><time>2026-04-26T16:22:38.883Z</time></trkpt><trkpt lat="40.6046496" lon="15.0012814"><ele>79.0</ele><time>2026-04-26T16:22:39.883Z</time></trkpt><trkpt lat="40.6048203" lon="15.0010888"><ele>79.0</ele><time>2026-04-26T16:22:40.882Z</time></trkpt><trkpt lat="40.604988" lon="15.0009017"><ele>79.0</ele><time>2026-04-26T16:22:41.882Z</time></trkpt><trkpt lat="40.6051538" lon="15.0007161"><ele>79.0</ele><time>2026-04-26T16:22:42.883Z</time></trkpt><trkpt lat="40.6053226" lon="15.0005285"><ele>79.0</ele><time>2026-04-26T16:22:43.883Z</time></trkpt><trkpt lat="40.6054923" lon="15.0003431"><ele>79.0</ele><time>2026-04-26T16:22:44.882Z</time></trkpt><trkpt lat="40.6056653" lon="15.000156"><ele>79.66666666666666</ele><time>2026-04-26T16:22:45.883Z</time></trkpt><trkpt lat="40.6058358" lon="14.9999686"><ele>80.33333333333333</ele><time>2026-04-26T16:22:46.882Z</time></trkpt><trkpt lat="40.6060073" lon="14.9997814"><ele>81.0</ele><time>2026-04-26T16:22:47.882Z</time></trkpt><trkpt lat="40.6061756" lon="14.9995959"><ele>81.0</ele><time>2026-04-26T16:22:48.882Z</time></trkpt><trkpt lat="40.6063464" lon="14.9994094"><ele>81.0</ele><time>2026-04-26T16:22:49.882Z</time></trkpt><trkpt lat="40.6065154" lon="14.999224"><ele>81.0</ele><time>2026-04-26T16:22:50.882Z</time></trkpt><trkpt lat="40.6066852" lon="14.9990414"><ele>81.0</ele><time>2026-04-26T16:22:51.883Z</time></trkpt><trkpt lat="40.6068578" lon="14.9988621"><ele>81.0</ele><time>2026-04-26T16:22:52.883Z</time></trkpt><trkpt lat="40.6070362" lon="14.9986856"><ele>81.0</ele><time>2026-04-26T16:22:53.883Z</time></trkpt><trkpt lat="40.6072162" lon="14.9985118"><ele>81.0</ele><time>2026-04-26T16:22:54.882Z</time></trkpt><trkpt lat="40.6073986" lon="14.9983449"><ele>81.0</ele><time>2026-04-26T16:22:55.882Z</time></trkpt><trkpt lat="40.6075828" lon="14.9981886"><ele>81.0</ele><time>2026-04-26T16:22:56.882Z</time></trkpt><trkpt lat="40.6077696" lon="14.998036"><ele>81.66666666666667</ele><time>2026-04-26T16:22:57.881Z</time></trkpt><trkpt lat="40.6079633" lon="14.9978898"><ele>82.33333333333334</ele><time>2026-04-26T16:22:58.881Z</time></trkpt><trkpt lat="40.6081586" lon="14.997747"><ele>83.0</ele><time>2026-04-26T16:22:59.882Z</time></trkpt><trkpt lat="40.6083543" lon="14.9976123"><ele>82.66666666666667</ele><time>2026-04-26T16:23:00.881Z</time></trkpt><trkpt lat="40.6085547" lon="14.9974809"><ele>82.33333333333333</ele><time>2026-04-26T16:23:01.881Z</time></trkpt><trkpt lat="40.6087538" lon="14.9973472"><ele>82.0</ele><time>2026-04-26T16:23:02.882Z</time></trkpt><trkpt lat="40.6089515" lon="14.9972207"><ele>82.0</ele><time>2026-04-26T16:23:03.882Z</time></trkpt><trkpt lat="40.6091521" lon="14.9970918"><ele>82.0</ele><time>2026-04-26T16:23:04.882Z</time></trkpt><trkpt lat="40.6093533" lon="14.9969587"><ele>82.0</ele><time>2026-04-26T16:23:05.881Z</time></trkpt><trkpt lat="40.6095501" lon="14.996829"><ele>82.0</ele><time>2026-04-26T16:23:06.881Z</time></trkpt><trkpt lat="40.6097467" lon="14.996699"><ele>82.0</ele><time>2026-04-26T16:23:07.881Z</time></trkpt><trkpt lat="40.609943" lon="14.9965656"><ele>82.0</ele><time>2026-04-26T16:23:08.882Z</time></trkpt><trkpt lat="40.6101357" lon="14.9964275"><ele>85.33333333333333</ele><time>2026-04-26T16:23:09.881Z</time></trkpt><trkpt lat="40.61033" lon="14.9962902"><ele>88.66666666666667</ele><time>2026-04-26T16:23:10.882Z</time></trkpt><trkpt lat="40.610528" lon="14.996151"><ele>92.0</ele><time>2026-04-26T16:23:11.881Z</time></trkpt><trkpt lat="40.6107197" lon="14.9960051"><ele>92.0</ele><time>2026-04-26T16:23:12.881Z</time></trkpt><trkpt lat="40.6109078" lon="14.9958517"><ele>92.0</ele><time>2026-04-26T16:23:13.882Z</time></trkpt><trkpt lat="40.6110916" lon="14.9956884"><ele>92.0</ele><time>2026-04-26T16:23:14.882Z</time></trkpt><trkpt lat="40.6112691" lon="14.9955194"><ele>91.66666666666667</ele><time>2026-04-26T16:23:15.882Z</time></trkpt><trkpt lat="40.6114402" lon="14.9953424"><ele>91.33333333333333</ele><time>2026-04-26T16:23:16.882Z</time></trkpt><trkpt lat="40.6116106" lon="14.9951568"><ele>91.0</ele><time>2026-04-26T16:23:17.881Z</time></trkpt><trkpt lat="40.6117817" lon="14.9949747"><ele>91.0</ele><time>2026-04-26T16:23:18.882Z</time></trkpt><trkpt lat="40.6119531" lon="14.9947905"><ele>91.0</ele><time>2026-04-26T16:23:19.881Z</time></trkpt><trkpt lat="40.6121233" lon="14.9946056"><ele>91.0</ele><time>2026-04-26T16:23:20.882Z</time></trkpt><trkpt lat="40.6122906" lon="14.994423"><ele>92.33333333333333</ele><time>2026-04-26T16:23:21.881Z</time></trkpt><trkpt lat="40.6124606" lon="14.9942331"><ele>93.66666666666667</ele><time>2026-04-26T16:23:22.881Z</time></trkpt><trkpt lat="40.6126243" lon="14.9940429"><ele>95.0</ele><time>2026-04-26T16:23:23.881Z</time></trkpt><trkpt lat="40.6127898" lon="14.9938581"><ele>96.0</ele><time>2026-04-26T16:23:24.881Z</time></trkpt><trkpt lat="40.6129575" lon="14.9936669"><ele>97.0</ele><time>2026-04-26T16:23:25.882Z</time></trkpt><trkpt lat="40.6131286" lon="14.9934795"><ele>98.0</ele><time>2026-04-26T16:23:26.881Z</time></trkpt><trkpt lat="40.6133022" lon="14.9932915"><ele>98.0</ele><time>2026-04-26T16:23:27.881Z</time></trkpt><trkpt lat="40.6134675" lon="14.9930997"><ele>98.0</ele><time>2026-04-26T16:23:28.881Z</time></trkpt><trkpt lat="40.61363" lon="14.9929003"><ele>98.0</ele><time>2026-04-26T16:23:29.882Z</time></trkpt><trkpt lat="40.6137907" lon="14.9927001"><ele>99.66666666666666</ele><time>2026-04-26T16:23:30.881Z</time></trkpt><trkpt lat="40.6139518" lon="14.9924936"><ele>101.33333333333334</ele><time>2026-04-26T16:23:31.881Z</time></trkpt><trkpt lat="40.6141077" lon="14.9922844"><ele>103.0</ele><time>2026-04-26T16:23:32.882Z</time></trkpt><trkpt lat="40.6142611" lon="14.9920721"><ele>103.0</ele><time>2026-04-26T16:23:33.882Z</time></trkpt><trkpt lat="40.6144101" lon="14.991857"><ele>103.0</ele><time>2026-04-26T16:23:34.882Z</time></trkpt><trkpt lat="40.6145541" lon="14.9916386"><ele>103.0</ele><time>2026-04-26T16:23:35.882Z</time></trkpt><trkpt lat="40.6146934" lon="14.9914106"><ele>104.66666666666667</ele><time>2026-04-26T16:23:36.881Z</time></trkpt><trkpt lat="40.6148289" lon="14.99118"><ele>106.33333333333334</ele><time>2026-04-26T16:23:37.881Z</time></trkpt><trkpt lat="40.6149608" lon="14.9909443"><ele>108.0</ele><time>2026-04-26T16:23:38.881Z</time></trkpt><trkpt lat="40.6150902" lon="14.9907051"><ele>107.0</ele><time>2026-04-26T16:23:39.882Z</time></trkpt><trkpt lat="40.6152157" lon="14.9904667"><ele>106.0</ele><time>2026-04-26T16:23:40.881Z</time></trkpt><trkpt lat="40.615348" lon="14.9902279"><ele>105.0</ele><time>2026-04-26T16:23:41.882Z</time></trkpt><trkpt lat="40.6154849" lon="14.9899975"><ele>101.0</ele><time>2026-04-26T16:23:42.881Z</time></trkpt><trkpt lat="40.61562" lon="14.9897621"><ele>97.0</ele><time>2026-04-26T16:23:43.881Z</time></trkpt><trkpt lat="40.6157503" lon="14.9895212"><ele>93.0</ele><time>2026-04-26T16:23:44.882Z</time></trkpt><trkpt lat="40.6158781" lon="14.9892819"><ele>91.33333333333333</ele><time>2026-04-26T16:23:45.881Z</time></trkpt><trkpt lat="40.6160027" lon="14.989042"><ele>89.66666666666666</ele><time>2026-04-26T16:23:46.881Z</time></trkpt><trkpt lat="40.6161267" lon="14.9888014"><ele>88.0</ele><time>2026-04-26T16:23:47.881Z</time></trkpt><trkpt lat="40.6162488" lon="14.9885635"><ele>85.33333333333333</ele><time>2026-04-26T16:23:48.881Z</time></trkpt><trkpt lat="40.6163681" lon="14.9883193"><ele>82.66666666666667</ele><time>2026-04-26T16:23:49.881Z</time></trkpt><trkpt lat="40.6164831" lon="14.9880639"><ele>80.0</ele><time>2026-04-26T16:23:50.882Z</time></trkpt><trkpt lat="40.6165936" lon="14.9878042"><ele>80.0</ele><time>2026-04-26T16:23:51.881Z</time></trkpt><trkpt lat="40.6166984" lon="14.9875428"><ele>80.0</ele><time>2026-04-26T16:23:52.882Z</time></trkpt><trkpt lat="40.6167962" lon="14.987282"><ele>80.0</ele><time>2026-04-26T16:23:53.882Z</time></trkpt><trkpt lat="40.6168888" lon="14.9870158"><ele>78.0</ele><time>2026-04-26T16:23:54.882Z</time></trkpt><trkpt lat="40.6169729" lon="14.986749"><ele>76.0</ele><time>2026-04-26T16:23:55.882Z</time></trkpt><trkpt lat="40.6170496" lon="14.9864778"><ele>74.0</ele><time>2026-04-26T16:23:56.881Z</time></trkpt><trkpt lat="40.6171217" lon="14.9862022"><ele>72.33333333333334</ele><time>2026-04-26T16:23:57.881Z</time></trkpt><trkpt lat="40.617188" lon="14.9859231"><ele>70.66666666666667</ele><time>2026-04-26T16:23:58.881Z</time></trkpt><trkpt lat="40.6172464" lon="14.9856425"><ele>69.0</ele><time>2026-04-26T16:23:59.882Z</time></trkpt><trkpt lat="40.6172954" lon="14.9853597"><ele>69.0</ele><time>2026-04-26T16:24:00.881Z</time></trkpt><trkpt lat="40.6173383" lon="14.9850788"><ele>69.0</ele><time>2026-04-26T16:24:01.882Z</time></trkpt><trkpt lat="40.6173768" lon="14.9847951"><ele>69.0</ele><time>2026-04-26T16:24:02.881Z</time></trkpt><trkpt lat="40.6174128" lon="14.9845099"><ele>69.0</ele><time>2026-04-26T16:24:03.882Z</time></trkpt><trkpt lat="40.6174526" lon="14.9842209"><ele>69.0</ele><time>2026-04-26T16:24:04.881Z</time></trkpt><trkpt lat="40.6174891" lon="14.9839296"><ele>69.0</ele><time>2026-04-26T16:24:05.882Z</time></trkpt><trkpt lat="40.6175257" lon="14.9836464"><ele>69.33333333333333</ele><time>2026-04-26T16:24:06.881Z</time></trkpt><trkpt lat="40.6175601" lon="14.9833631"><ele>69.66666666666666</ele><time>2026-04-26T16:24:07.881Z</time></trkpt><trkpt lat="40.617596" lon="14.9830764"><ele>70.0</ele><time>2026-04-26T16:24:08.882Z</time></trkpt><trkpt lat="40.6176325" lon="14.9827893"><ele>70.66666666666666</ele><time>2026-04-26T16:24:09.881Z</time></trkpt><trkpt lat="40.6176726" lon="14.9825022"><ele>71.33333333333333</ele><time>2026-04-26T16:24:10.882Z</time></trkpt><trkpt lat="40.6177162" lon="14.9822157"><ele>72.0</ele><time>2026-04-26T16:24:11.881Z</time></trkpt><trkpt lat="40.6177664" lon="14.9819323"><ele>72.33333333333333</ele><time>2026-04-26T16:24:12.882Z</time></trkpt><trkpt lat="40.6178257" lon="14.9816506"><ele>72.66666666666666</ele><time>2026-04-26T16:24:13.881Z</time></trkpt><trkpt lat="40.6178902" lon="14.9813731"><ele>73.0</ele><time>2026-04-26T16:24:14.882Z</time></trkpt><trkpt lat="40.6179666" lon="14.9810962"><ele>72.0</ele><time>2026-04-26T16:24:15.881Z</time></trkpt><trkpt lat="40.6180439" lon="14.9808238"><ele>71.0</ele><time>2026-04-26T16:24:16.881Z</time></trkpt><trkpt lat="40.6181413" lon="14.9805547"><ele>70.0</ele><time>2026-04-26T16:24:17.882Z</time></trkpt><trkpt lat="40.6182422" lon="14.9802929"><ele>70.0</ele><time>2026-04-26T16:24:18.882Z</time></trkpt><trkpt lat="40.6183437" lon="14.9800334"><ele>70.0</ele><time>2026-04-26T16:24:19.882Z</time></trkpt><trkpt lat="40.6184494" lon="14.9797757"><ele>70.0</ele><time>2026-04-26T16:24:20.881Z</time></trkpt><trkpt lat="40.6185569" lon="14.9795241"><ele>70.33333333333333</ele><time>2026-04-26T16:24:21.881Z</time></trkpt><trkpt lat="40.618671" lon="14.9792707"><ele>70.66666666666667</ele><time>2026-04-26T16:24:22.882Z</time></trkpt><trkpt lat="40.6187897" lon="14.9790268"><ele>71.0</ele><time>2026-04-26T16:24:23.881Z</time></trkpt><trkpt lat="40.618907" lon="14.978779"><ele>71.0</ele><time>2026-04-26T16:24:24.881Z</time></trkpt><trkpt lat="40.6190239" lon="14.9785345"><ele>71.0</ele><time>2026-04-26T16:24:25.882Z</time></trkpt><trkpt lat="40.6191406" lon="14.9782872"><ele>71.0</ele><time>2026-04-26T16:24:26.881Z</time></trkpt><trkpt lat="40.6192573" lon="14.9780352"><ele>71.0</ele><time>2026-04-26T16:24:27.881Z</time></trkpt><trkpt lat="40.6193683" lon="14.9777829"><ele>71.0</ele><time>2026-04-26T16:24:28.881Z</time></trkpt><trkpt lat="40.6194764" lon="14.9775282"><ele>71.0</ele><time>2026-04-26T16:24:29.882Z</time></trkpt><trkpt lat="40.6195753" lon="14.9772738"><ele>71.0</ele><time>2026-04-26T16:24:30.882Z</time></trkpt><trkpt lat="40.6196736" lon="14.9770121"><ele>71.0</ele><time>2026-04-26T16:24:31.881Z</time></trkpt><trkpt lat="40.6197632" lon="14.9767458"><ele>71.0</ele><time>2026-04-26T16:24:32.881Z</time></trkpt><trkpt lat="40.6198491" lon="14.9764784"><ele>71.0</ele><time>2026-04-26T16:24:33.882Z</time></trkpt><trkpt lat="40.6199306" lon="14.9762061"><ele>71.0</ele><time>2026-04-26T16:24:34.882Z</time></trkpt><trkpt lat="40.6200112" lon="14.9759335"><ele>71.0</ele><time>2026-04-26T16:24:35.881Z</time></trkpt><trkpt lat="40.6200857" lon="14.9756597"><ele>71.0</ele><time>2026-04-26T16:24:36.881Z</time></trkpt><trkpt lat="40.620157" lon="14.975387"><ele>71.0</ele><time>2026-04-26T16:24:37.882Z</time></trkpt><trkpt lat="40.6202274" lon="14.9751086"><ele>71.0</ele><time>2026-04-26T16:24:38.881Z</time></trkpt><trkpt lat="40.6202885" lon="14.9748259"><ele>70.33333333333334</ele><time>2026-04-26T16:24:39.882Z</time></trkpt><trkpt lat="40.6203416" lon="14.9745457"><ele>69.66666666666667</ele><time>2026-04-26T16:24:40.882Z</time></trkpt><trkpt lat="40.6203869" lon="14.9742642"><ele>69.0</ele><time>2026-04-26T16:24:41.882Z</time></trkpt><trkpt lat="40.6204321" lon="14.9739798"><ele>69.0</ele><time>2026-04-26T16:24:42.881Z</time></trkpt><trkpt lat="40.6204759" lon="14.9736937"><ele>69.0</ele><time>2026-04-26T16:24:43.881Z</time></trkpt><trkpt lat="40.6205091" lon="14.9733969"><ele>69.0</ele><time>2026-04-26T16:24:44.882Z</time></trkpt><trkpt lat="40.6205449" lon="14.9731145"><ele>69.0</ele><time>2026-04-26T16:24:45.881Z</time></trkpt><trkpt lat="40.6205718" lon="14.9728204"><ele>69.0</ele><time>2026-04-26T16:24:46.882Z</time></trkpt><trkpt lat="40.6205924" lon="14.9725278"><ele>69.0</ele><time>2026-04-26T16:24:47.881Z</time></trkpt><trkpt lat="40.6206085" lon="14.9722368"><ele>67.66666666666667</ele><time>2026-04-26T16:24:48.881Z</time></trkpt><trkpt lat="40.6206196" lon="14.9719464"><ele>66.33333333333334</ele><time>2026-04-26T16:24:49.882Z</time></trkpt><trkpt lat="40.6206257" lon="14.9716576"><ele>65.0</ele><time>2026-04-26T16:24:50.881Z</time></trkpt><trkpt lat="40.6206299" lon="14.9713679"><ele>64.66666666666667</ele><time>2026-04-26T16:24:51.882Z</time></trkpt><trkpt lat="40.6206326" lon="14.9710817"><ele>64.33333333333333</ele><time>2026-04-26T16:24:52.882Z</time></trkpt><trkpt lat="40.6206413" lon="14.9707939"><ele>64.0</ele><time>2026-04-26T16:24:53.881Z</time></trkpt><trkpt lat="40.620645" lon="14.9704992"><ele>65.0</ele><time>2026-04-26T16:24:54.882Z</time></trkpt><trkpt lat="40.6206522" lon="14.9702055"><ele>66.0</ele><time>2026-04-26T16:24:55.881Z</time></trkpt><trkpt lat="40.6206599" lon="14.9699133"><ele>67.0</ele><time>2026-04-26T16:24:56.882Z</time></trkpt><trkpt lat="40.6206693" lon="14.9696228"><ele>67.0</ele><time>2026-04-26T16:24:57.882Z</time></trkpt><trkpt lat="40.6206804" lon="14.9693336"><ele>67.0</ele><time>2026-04-26T16:24:58.882Z</time></trkpt><trkpt lat="40.6206919" lon="14.9690428"><ele>67.0</ele><time>2026-04-26T16:24:59.881Z</time></trkpt><trkpt lat="40.6207035" lon="14.9687514"><ele>66.66666666666666</ele><time>2026-04-26T16:25:00.881Z</time></trkpt><trkpt lat="40.6207141" lon="14.9684631"><ele>66.33333333333333</ele><time>2026-04-26T16:25:01.881Z</time></trkpt><trkpt lat="40.6207263" lon="14.9681714"><ele>66.0</ele><time>2026-04-26T16:25:02.881Z</time></trkpt><trkpt lat="40.6207394" lon="14.9678785"><ele>66.0</ele><time>2026-04-26T16:25:03.881Z</time></trkpt><trkpt lat="40.6207553" lon="14.9675842"><ele>66.0</ele><time>2026-04-26T16:25:04.882Z</time></trkpt><trkpt lat="40.6207783" lon="14.9672908"><ele>66.0</ele><time>2026-04-26T16:25:05.882Z</time></trkpt><trkpt lat="40.620803" lon="14.9669988"><ele>65.33333333333333</ele><time>2026-04-26T16:25:06.882Z</time></trkpt><trkpt lat="40.6208276" lon="14.9667086"><ele>64.66666666666666</ele><time>2026-04-26T16:25:07.881Z</time></trkpt><trkpt lat="40.6208502" lon="14.9664196"><ele>64.0</ele><time>2026-04-26T16:25:08.882Z</time></trkpt><trkpt lat="40.6208759" lon="14.9661325"><ele>63.0</ele><time>2026-04-26T16:25:09.882Z</time></trkpt><trkpt lat="40.6209057" lon="14.9658461"><ele>62.0</ele><time>2026-04-26T16:25:10.882Z</time></trkpt><trkpt lat="40.6209459" lon="14.9655584"><ele>61.0</ele><time>2026-04-26T16:25:11.881Z</time></trkpt><trkpt lat="40.6209897" lon="14.9652717"><ele>60.33333333333333</ele><time>2026-04-26T16:25:12.882Z</time></trkpt><trkpt lat="40.6210424" lon="14.9649877"><ele>59.66666666666667</ele><time>2026-04-26T16:25:13.882Z</time></trkpt><trkpt lat="40.6210999" lon="14.9647096"><ele>59.0</ele><time>2026-04-26T16:25:14.882Z</time></trkpt><trkpt lat="40.6211592" lon="14.9644329"><ele>59.66666666666667</ele><time>2026-04-26T16:25:15.881Z</time></trkpt><trkpt lat="40.6212212" lon="14.9641555"><ele>60.33333333333333</ele><time>2026-04-26T16:25:16.882Z</time></trkpt><trkpt lat="40.6212818" lon="14.9638763"><ele>61.0</ele><time>2026-04-26T16:25:17.881Z</time></trkpt><trkpt lat="40.6213444" lon="14.9635965"><ele>60.33333333333333</ele><time>2026-04-26T16:25:18.881Z</time></trkpt><trkpt lat="40.62141" lon="14.9633166"><ele>59.66666666666667</ele><time>2026-04-26T16:25:19.881Z</time></trkpt><trkpt lat="40.6214784" lon="14.9630369"><ele>59.0</ele><time>2026-04-26T16:25:20.882Z</time></trkpt><trkpt lat="40.6215482" lon="14.962757"><ele>58.333333333333336</ele><time>2026-04-26T16:25:21.882Z</time></trkpt><trkpt lat="40.6216166" lon="14.9624809"><ele>57.66666666666667</ele><time>2026-04-26T16:25:22.882Z</time></trkpt><trkpt lat="40.6216886" lon="14.9622068"><ele>57.0</ele><time>2026-04-26T16:25:23.882Z</time></trkpt><trkpt lat="40.6217616" lon="14.9619284"><ele>57.33333333333333</ele><time>2026-04-26T16:25:24.881Z</time></trkpt><trkpt lat="40.6218337" lon="14.9616537"><ele>57.666666666666664</ele><time>2026-04-26T16:25:25.882Z</time></trkpt><trkpt lat="40.6219042" lon="14.961379"><ele>58.0</ele><time>2026-04-26T16:25:26.882Z</time></trkpt><trkpt lat="40.6219755" lon="14.9611029"><ele>58.666666666666664</ele><time>2026-04-26T16:25:27.881Z</time></trkpt><trkpt lat="40.622046" lon="14.9608261"><ele>59.33333333333333</ele><time>2026-04-26T16:25:28.881Z</time></trkpt><trkpt lat="40.6221174" lon="14.9605508"><ele>60.0</ele><time>2026-04-26T16:25:29.882Z</time></trkpt><trkpt lat="40.6221921" lon="14.9602797"><ele>60.33333333333333</ele><time>2026-04-26T16:25:30.881Z</time></trkpt><trkpt lat="40.622267" lon="14.9600074"><ele>60.666666666666664</ele><time>2026-04-26T16:25:31.881Z</time></trkpt><trkpt lat="40.6223409" lon="14.9597342"><ele>61.0</ele><time>2026-04-26T16:25:32.881Z</time></trkpt><trkpt lat="40.6224144" lon="14.959461"><ele>61.0</ele><time>2026-04-26T16:25:33.882Z</time></trkpt><trkpt lat="40.622489" lon="14.9591875"><ele>61.0</ele><time>2026-04-26T16:25:34.882Z</time></trkpt><trkpt lat="40.622564" lon="14.9589127"><ele>61.0</ele><time>2026-04-26T16:25:35.881Z</time></trkpt><trkpt lat="40.6226415" lon="14.9586353"><ele>61.33333333333333</ele><time>2026-04-26T16:25:36.882Z</time></trkpt><trkpt lat="40.6227169" lon="14.9583597"><ele>61.66666666666667</ele><time>2026-04-26T16:25:37.882Z</time></trkpt><trkpt lat="40.622792" lon="14.9580885"><ele>62.0</ele><time>2026-04-26T16:25:38.881Z</time></trkpt><trkpt lat="40.622867" lon="14.9578184"><ele>62.333333333333336</ele><time>2026-04-26T16:25:39.881Z</time></trkpt><trkpt lat="40.6229431" lon="14.9575466"><ele>62.66666666666667</ele><time>2026-04-26T16:25:40.882Z</time></trkpt><trkpt lat="40.6230217" lon="14.9572785"><ele>63.0</ele><time>2026-04-26T16:25:41.881Z</time></trkpt><trkpt lat="40.6231065" lon="14.9570075"><ele>63.66666666666667</ele><time>2026-04-26T16:25:42.882Z</time></trkpt><trkpt lat="40.6231923" lon="14.9567385"><ele>64.33333333333334</ele><time>2026-04-26T16:25:43.881Z</time></trkpt><trkpt lat="40.6232786" lon="14.9564705"><ele>65.0</ele><time>2026-04-26T16:25:44.882Z</time></trkpt><trkpt lat="40.6233629" lon="14.9562011"><ele>65.0</ele><time>2026-04-26T16:25:45.881Z</time></trkpt><trkpt lat="40.6234452" lon="14.9559339"><ele>65.0</ele><time>2026-04-26T16:25:46.882Z</time></trkpt><trkpt lat="40.623532" lon="14.9556657"><ele>65.0</ele><time>2026-04-26T16:25:47.881Z</time></trkpt><trkpt lat="40.6236209" lon="14.9554014"><ele>66.0</ele><time>2026-04-26T16:25:48.881Z</time></trkpt><trkpt lat="40.6237128" lon="14.9551324"><ele>67.0</ele><time>2026-04-26T16:25:49.882Z</time></trkpt><trkpt lat="40.6238178" lon="14.954872"><ele>68.0</ele><time>2026-04-26T16:25:50.881Z</time></trkpt><trkpt lat="40.6239271" lon="14.9546098"><ele>68.33333333333334</ele><time>2026-04-26T16:25:51.882Z</time></trkpt><trkpt lat="40.6240316" lon="14.9543519"><ele>68.66666666666667</ele><time>2026-04-26T16:25:52.882Z</time></trkpt><trkpt lat="40.624134" lon="14.9540963"><ele>69.0</ele><time>2026-04-26T16:25:53.882Z</time></trkpt><trkpt lat="40.6242303" lon="14.9538374"><ele>68.66666666666667</ele><time>2026-04-26T16:25:54.882Z</time></trkpt><trkpt lat="40.624328" lon="14.9535777"><ele>68.33333333333334</ele><time>2026-04-26T16:25:55.882Z</time></trkpt><trkpt lat="40.6244262" lon="14.9533201"><ele>68.0</ele><time>2026-04-26T16:25:56.882Z</time></trkpt><trkpt lat="40.6245258" lon="14.9530621"><ele>68.0</ele><time>2026-04-26T16:25:57.881Z</time></trkpt><trkpt lat="40.6246202" lon="14.9527936"><ele>68.0</ele><time>2026-04-26T16:25:58.881Z</time></trkpt><trkpt lat="40.6247288" lon="14.9525325"><ele>67.33333333333334</ele><time>2026-04-26T16:25:59.882Z</time></trkpt><trkpt lat="40.6248412" lon="14.9522758"><ele>66.66666666666667</ele><time>2026-04-26T16:26:00.881Z</time></trkpt><trkpt lat="40.6249466" lon="14.9520176"><ele>66.0</ele><time>2026-04-26T16:26:01.882Z</time></trkpt><trkpt lat="40.6250469" lon="14.9517605"><ele>65.0</ele><time>2026-04-26T16:26:02.882Z</time></trkpt><trkpt lat="40.6251456" lon="14.9515024"><ele>64.0</ele><time>2026-04-26T16:26:03.882Z</time></trkpt><trkpt lat="40.6252431" lon="14.9512406"><ele>63.0</ele><time>2026-04-26T16:26:04.881Z</time></trkpt><trkpt lat="40.6253436" lon="14.9509798"><ele>62.0</ele><time>2026-04-26T16:26:05.882Z</time></trkpt><trkpt lat="40.6254425" lon="14.950723"><ele>61.0</ele><time>2026-04-26T16:26:06.882Z</time></trkpt><trkpt lat="40.6255448" lon="14.9504625"><ele>60.0</ele><time>2026-04-26T16:26:07.882Z</time></trkpt><trkpt lat="40.6256479" lon="14.9502025"><ele>60.0</ele><time>2026-04-26T16:26:08.882Z</time></trkpt><trkpt lat="40.6257519" lon="14.9499429"><ele>60.0</ele><time>2026-04-26T16:26:09.882Z</time></trkpt><trkpt lat="40.6258554" lon="14.9496845"><ele>60.0</ele><time>2026-04-26T16:26:10.882Z</time></trkpt><trkpt lat="40.6259589" lon="14.9494261"><ele>60.0</ele><time>2026-04-26T16:26:11.881Z</time></trkpt><trkpt lat="40.6260622" lon="14.9491688"><ele>60.0</ele><time>2026-04-26T16:26:12.881Z</time></trkpt><trkpt lat="40.6261683" lon="14.9489077"><ele>60.0</ele><time>2026-04-26T16:26:13.882Z</time></trkpt><trkpt lat="40.6262673" lon="14.9486502"><ele>60.33333333333333</ele><time>2026-04-26T16:26:14.881Z</time></trkpt><trkpt lat="40.6263664" lon="14.9483895"><ele>60.666666666666664</ele><time>2026-04-26T16:26:15.882Z</time></trkpt><trkpt lat="40.6264676" lon="14.9481321"><ele>61.0</ele><time>2026-04-26T16:26:16.882Z</time></trkpt><trkpt lat="40.6265675" lon="14.9478727"><ele>61.0</ele><time>2026-04-26T16:26:17.881Z</time></trkpt><trkpt lat="40.6266681" lon="14.9476168"><ele>61.0</ele><time>2026-04-26T16:26:18.881Z</time></trkpt><trkpt lat="40.6267696" lon="14.947359"><ele>61.0</ele><time>2026-04-26T16:26:19.882Z</time></trkpt><trkpt lat="40.6268703" lon="14.9471005"><ele>61.0</ele><time>2026-04-26T16:26:20.881Z</time></trkpt><trkpt lat="40.6269701" lon="14.9468412"><ele>61.0</ele><time>2026-04-26T16:26:21.882Z</time></trkpt><trkpt lat="40.6270667" lon="14.9465788"><ele>61.0</ele><time>2026-04-26T16:26:22.882Z</time></trkpt><trkpt lat="40.6271588" lon="14.9463126"><ele>61.33333333333333</ele><time>2026-04-26T16:26:23.881Z</time></trkpt><trkpt lat="40.6272473" lon="14.9460489"><ele>61.66666666666667</ele><time>2026-04-26T16:26:24.882Z</time></trkpt><trkpt lat="40.6273324" lon="14.9457838"><ele>62.0</ele><time>2026-04-26T16:26:25.881Z</time></trkpt><trkpt lat="40.6274208" lon="14.9455186"><ele>62.0</ele><time>2026-04-26T16:26:26.881Z</time></trkpt><trkpt lat="40.6275059" lon="14.9452471"><ele>62.0</ele><time>2026-04-26T16:26:27.881Z</time></trkpt><trkpt lat="40.627585" lon="14.9449642"><ele>62.333333333333336</ele><time>2026-04-26T16:26:28.882Z</time></trkpt><trkpt lat="40.6276587" lon="14.9446924"><ele>62.66666666666667</ele><time>2026-04-26T16:26:29.881Z</time></trkpt><trkpt lat="40.627729" lon="14.944419"><ele>63.0</ele><time>2026-04-26T16:26:30.881Z</time></trkpt><trkpt lat="40.6277944" lon="14.94414"><ele>63.66666666666667</ele><time>2026-04-26T16:26:31.882Z</time></trkpt><trkpt lat="40.6278534" lon="14.9438598"><ele>64.33333333333334</ele><time>2026-04-26T16:26:32.881Z</time></trkpt><trkpt lat="40.6279124" lon="14.9435831"><ele>65.0</ele><time>2026-04-26T16:26:33.882Z</time></trkpt><trkpt lat="40.6279664" lon="14.9433039"><ele>65.0</ele><time>2026-04-26T16:26:34.881Z</time></trkpt><trkpt lat="40.6280163" lon="14.9430215"><ele>65.0</ele><time>2026-04-26T16:26:35.882Z</time></trkpt><trkpt lat="40.6280631" lon="14.9427365"><ele>65.0</ele><time>2026-04-26T16:26:36.881Z</time></trkpt><trkpt lat="40.6281088" lon="14.9424526"><ele>65.0</ele><time>2026-04-26T16:26:37.882Z</time></trkpt><trkpt lat="40.6281489" lon="14.9421665"><ele>65.0</ele><time>2026-04-26T16:26:38.881Z</time></trkpt><trkpt lat="40.6281835" lon="14.9418807"><ele>65.0</ele><time>2026-04-26T16:26:39.882Z</time></trkpt><trkpt lat="40.6282161" lon="14.9415917"><ele>65.0</ele><time>2026-04-26T16:26:40.881Z</time></trkpt><trkpt lat="40.6282421" lon="14.9413018"><ele>65.0</ele><time>2026-04-26T16:26:41.881Z</time></trkpt><trkpt lat="40.6282663" lon="14.9410068"><ele>65.0</ele><time>2026-04-26T16:26:42.882Z</time></trkpt><trkpt lat="40.628284" lon="14.9407152"><ele>64.66666666666667</ele><time>2026-04-26T16:26:43.882Z</time></trkpt><trkpt lat="40.6282975" lon="14.9404235"><ele>64.33333333333333</ele><time>2026-04-26T16:26:44.881Z</time></trkpt><trkpt lat="40.6283098" lon="14.9401353"><ele>64.0</ele><time>2026-04-26T16:26:45.882Z</time></trkpt><trkpt lat="40.6283204" lon="14.9398446"><ele>64.0</ele><time>2026-04-26T16:26:46.881Z</time></trkpt><trkpt lat="40.628339" lon="14.9395532"><ele>64.0</ele><time>2026-04-26T16:26:47.882Z</time></trkpt><trkpt lat="40.6283561" lon="14.9392594"><ele>64.0</ele><time>2026-04-26T16:26:48.882Z</time></trkpt><trkpt lat="40.6283717" lon="14.938966"><ele>64.0</ele><time>2026-04-26T16:26:49.882Z</time></trkpt><trkpt lat="40.6283858" lon="14.93867"><ele>64.0</ele><time>2026-04-26T16:26:50.882Z</time></trkpt><trkpt lat="40.6283993" lon="14.9383746"><ele>63.666666666666664</ele><time>2026-04-26T16:26:51.881Z</time></trkpt><trkpt lat="40.6284126" lon="14.9380819"><ele>63.33333333333333</ele><time>2026-04-26T16:26:52.881Z</time></trkpt><trkpt lat="40.6284285" lon="14.9377914"><ele>63.0</ele><time>2026-04-26T16:26:53.881Z</time></trkpt><trkpt lat="40.6284433" lon="14.9375027"><ele>62.0</ele><time>2026-04-26T16:26:54.882Z</time></trkpt><trkpt lat="40.6284596" lon="14.9372167"><ele>61.0</ele><time>2026-04-26T16:26:55.882Z</time></trkpt><trkpt lat="40.6284763" lon="14.9369278"><ele>60.0</ele><time>2026-04-26T16:26:56.882Z</time></trkpt><trkpt lat="40.6284951" lon="14.9366392"><ele>60.0</ele><time>2026-04-26T16:26:57.881Z</time></trkpt><trkpt lat="40.6285172" lon="14.9363521"><ele>60.0</ele><time>2026-04-26T16:26:58.881Z</time></trkpt><trkpt lat="40.6285403" lon="14.9360653"><ele>60.0</ele><time>2026-04-26T16:26:59.882Z</time></trkpt><trkpt lat="40.6285669" lon="14.9357811"><ele>59.66666666666667</ele><time>2026-04-26T16:27:00.882Z</time></trkpt><trkpt lat="40.6285995" lon="14.9354927"><ele>59.333333333333336</ele><time>2026-04-26T16:27:01.882Z</time></trkpt><trkpt lat="40.6286361" lon="14.9352045"><ele>59.0</ele><time>2026-04-26T16:27:02.882Z</time></trkpt><trkpt lat="40.628675" lon="14.9349188"><ele>59.0</ele><time>2026-04-26T16:27:03.882Z</time></trkpt><trkpt lat="40.628717" lon="14.9346361"><ele>59.0</ele><time>2026-04-26T16:27:04.882Z</time></trkpt><trkpt lat="40.6287682" lon="14.9343497"><ele>59.0</ele><time>2026-04-26T16:27:05.881Z</time></trkpt><trkpt lat="40.6288196" lon="14.9340624"><ele>58.66666666666667</ele><time>2026-04-26T16:27:06.881Z</time></trkpt><trkpt lat="40.628871" lon="14.9337769"><ele>58.33333333333333</ele><time>2026-04-26T16:27:07.882Z</time></trkpt><trkpt lat="40.6289263" lon="14.933493"><ele>58.0</ele><time>2026-04-26T16:27:08.881Z</time></trkpt><trkpt lat="40.6289861" lon="14.9332122"><ele>58.0</ele><time>2026-04-26T16:27:09.882Z</time></trkpt><trkpt lat="40.6290515" lon="14.9329327"><ele>58.0</ele><time>2026-04-26T16:27:10.882Z</time></trkpt><trkpt lat="40.6291201" lon="14.9326535"><ele>58.0</ele><time>2026-04-26T16:27:11.881Z</time></trkpt><trkpt lat="40.629192" lon="14.93238"><ele>58.33333333333333</ele><time>2026-04-26T16:27:12.882Z</time></trkpt><trkpt lat="40.629266" lon="14.9321068"><ele>58.66666666666667</ele><time>2026-04-26T16:27:13.882Z</time></trkpt><trkpt lat="40.6293439" lon="14.9318368"><ele>59.0</ele><time>2026-04-26T16:27:14.882Z</time></trkpt><trkpt lat="40.6294283" lon="14.9315647"><ele>59.0</ele><time>2026-04-26T16:27:15.881Z</time></trkpt><trkpt lat="40.6295177" lon="14.9312944"><ele>59.0</ele><time>2026-04-26T16:27:16.881Z</time></trkpt><trkpt lat="40.6296072" lon="14.9310176"><ele>59.0</ele><time>2026-04-26T16:27:17.881Z</time></trkpt><trkpt lat="40.6296956" lon="14.9307471"><ele>59.0</ele><time>2026-04-26T16:27:18.881Z</time></trkpt><trkpt lat="40.6297818" lon="14.9304807"><ele>59.0</ele><time>2026-04-26T16:27:19.882Z</time></trkpt><trkpt lat="40.6298681" lon="14.9302127"><ele>59.0</ele><time>2026-04-26T16:27:20.882Z</time></trkpt><trkpt lat="40.6299518" lon="14.9299457"><ele>59.0</ele><time>2026-04-26T16:27:21.881Z</time></trkpt><trkpt lat="40.6300418" lon="14.9296791"><ele>59.0</ele><time>2026-04-26T16:27:22.882Z</time></trkpt><trkpt lat="40.6301307" lon="14.9294125"><ele>59.333333333333336</ele><time>2026-04-26T16:27:23.882Z</time></trkpt><trkpt lat="40.6302206" lon="14.9291484"><ele>59.66666666666667</ele><time>2026-04-26T16:27:24.881Z</time></trkpt><trkpt lat="40.6303148" lon="14.9288802"><ele>60.0</ele><time>2026-04-26T16:27:25.881Z</time></trkpt><trkpt lat="40.6304017" lon="14.928614"><ele>58.66666666666667</ele><time>2026-04-26T16:27:26.881Z</time></trkpt><trkpt lat="40.6304884" lon="14.9283462"><ele>57.333333333333336</ele><time>2026-04-26T16:27:27.881Z</time></trkpt><trkpt lat="40.6305775" lon="14.9280803"><ele>56.0</ele><time>2026-04-26T16:27:28.882Z</time></trkpt><trkpt lat="40.6306684" lon="14.9278127"><ele>55.66666666666667</ele><time>2026-04-26T16:27:29.882Z</time></trkpt><trkpt lat="40.6307563" lon="14.9275457"><ele>55.33333333333333</ele><time>2026-04-26T16:27:30.882Z</time></trkpt><trkpt lat="40.6308432" lon="14.9272777"><ele>55.0</ele><time>2026-04-26T16:27:31.882Z</time></trkpt><trkpt lat="40.6309276" lon="14.9270108"><ele>55.0</ele><time>2026-04-26T16:27:32.882Z</time></trkpt><trkpt lat="40.6310124" lon="14.9267442"><ele>55.0</ele><time>2026-04-26T16:27:33.882Z</time></trkpt><trkpt lat="40.6310996" lon="14.9264754"><ele>55.0</ele><time>2026-04-26T16:27:34.881Z</time></trkpt><trkpt lat="40.6311877" lon="14.9262067"><ele>55.0</ele><time>2026-04-26T16:27:35.881Z</time></trkpt><trkpt lat="40.6312748" lon="14.9259369"><ele>55.0</ele><time>2026-04-26T16:27:36.882Z</time></trkpt><trkpt lat="40.6313641" lon="14.9256693"><ele>55.0</ele><time>2026-04-26T16:27:37.882Z</time></trkpt><trkpt lat="40.6314515" lon="14.9254023"><ele>54.33333333333333</ele><time>2026-04-26T16:27:38.881Z</time></trkpt><trkpt lat="40.631542" lon="14.9251345"><ele>53.66666666666667</ele><time>2026-04-26T16:27:39.882Z</time></trkpt><trkpt lat="40.6316341" lon="14.9248691"><ele>53.0</ele><time>2026-04-26T16:27:40.882Z</time></trkpt><trkpt lat="40.6317272" lon="14.9246041"><ele>52.66666666666667</ele><time>2026-04-26T16:27:41.881Z</time></trkpt><trkpt lat="40.6318205" lon="14.9243393"><ele>52.33333333333333</ele><time>2026-04-26T16:27:42.881Z</time></trkpt><trkpt lat="40.6319136" lon="14.9240743"><ele>52.0</ele><time>2026-04-26T16:27:43.882Z</time></trkpt><trkpt lat="40.6320014" lon="14.9238064"><ele>52.0</ele><time>2026-04-26T16:27:44.882Z</time></trkpt><trkpt lat="40.6320895" lon="14.923537"><ele>52.0</ele><time>2026-04-26T16:27:45.881Z</time></trkpt><trkpt lat="40.6321775" lon="14.9232707"><ele>52.0</ele><time>2026-04-26T16:27:46.881Z</time></trkpt><trkpt lat="40.6322651" lon="14.9230037"><ele>52.0</ele><time>2026-04-26T16:27:47.881Z</time></trkpt><trkpt lat="40.6323496" lon="14.9227383"><ele>52.0</ele><time>2026-04-26T16:27:48.881Z</time></trkpt><trkpt lat="40.6324365" lon="14.9224696"><ele>52.0</ele><time>2026-04-26T16:27:49.882Z</time></trkpt><trkpt lat="40.632527" lon="14.9222025"><ele>51.33333333333333</ele><time>2026-04-26T16:27:50.882Z</time></trkpt><trkpt lat="40.6326192" lon="14.9219397"><ele>50.66666666666667</ele><time>2026-04-26T16:27:51.881Z</time></trkpt><trkpt lat="40.6327111" lon="14.9216728"><ele>50.0</ele><time>2026-04-26T16:27:52.881Z</time></trkpt><trkpt lat="40.6328027" lon="14.9214061"><ele>50.333333333333336</ele><time>2026-04-26T16:27:53.882Z</time></trkpt><trkpt lat="40.6328912" lon="14.9211381"><ele>50.66666666666667</ele><time>2026-04-26T16:27:54.882Z</time></trkpt><trkpt lat="40.632977" lon="14.920871"><ele>51.0</ele><time>2026-04-26T16:27:55.881Z</time></trkpt><trkpt lat="40.6330645" lon="14.9206028"><ele>50.33333333333333</ele><time>2026-04-26T16:27:56.882Z</time></trkpt><trkpt lat="40.6331482" lon="14.9203354"><ele>49.666666666666664</ele><time>2026-04-26T16:27:57.881Z</time></trkpt><trkpt lat="40.6332341" lon="14.9200673"><ele>49.0</ele><time>2026-04-26T16:27:58.882Z</time></trkpt><trkpt lat="40.6333225" lon="14.9198017"><ele>48.666666666666664</ele><time>2026-04-26T16:27:59.882Z</time></trkpt><trkpt lat="40.6334099" lon="14.9195392"><ele>48.33333333333333</ele><time>2026-04-26T16:28:00.881Z</time></trkpt><trkpt lat="40.6335035" lon="14.9192728"><ele>48.0</ele><time>2026-04-26T16:28:01.881Z</time></trkpt><trkpt lat="40.6335923" lon="14.9190098"><ele>47.5</ele><time>2026-04-26T16:28:02.882Z</time></trkpt><trkpt lat="40.6336878" lon="14.9187427"><ele>47.0</ele><time>2026-04-26T16:28:03.882Z</time></trkpt><trkpt lat="40.6337798" lon="14.9184709"><ele>46.33333333333333</ele><time>2026-04-26T16:28:04.881Z</time></trkpt><trkpt lat="40.6338696" lon="14.9181967"><ele>45.666666666666664</ele><time>2026-04-26T16:28:05.881Z</time></trkpt><trkpt lat="40.633957" lon="14.9179269"><ele>45.0</ele><time>2026-04-26T16:28:06.881Z</time></trkpt><trkpt lat="40.6340457" lon="14.9176582"><ele>44.666666666666664</ele><time>2026-04-26T16:28:07.882Z</time></trkpt><trkpt lat="40.6341317" lon="14.917391"><ele>44.33333333333333</ele><time>2026-04-26T16:28:08.881Z</time></trkpt><trkpt lat="40.634215" lon="14.9171214"><ele>44.0</ele><time>2026-04-26T16:28:09.881Z</time></trkpt><trkpt lat="40.6342982" lon="14.9168516"><ele>43.33333333333333</ele><time>2026-04-26T16:28:10.882Z</time></trkpt><trkpt lat="40.6343853" lon="14.9165826"><ele>42.666666666666664</ele><time>2026-04-26T16:28:11.882Z</time></trkpt><trkpt lat="40.6344754" lon="14.9163158"><ele>42.0</ele><time>2026-04-26T16:28:12.882Z</time></trkpt><trkpt lat="40.6345663" lon="14.9160519"><ele>42.0</ele><time>2026-04-26T16:28:13.881Z</time></trkpt><trkpt lat="40.6346565" lon="14.9157873"><ele>42.0</ele><time>2026-04-26T16:28:14.881Z</time></trkpt><trkpt lat="40.6347482" lon="14.9155209"><ele>42.0</ele><time>2026-04-26T16:28:15.882Z</time></trkpt><trkpt lat="40.6348385" lon="14.9152506"><ele>42.0</ele><time>2026-04-26T16:28:16.881Z</time></trkpt><trkpt lat="40.6349358" lon="14.914983"><ele>42.0</ele><time>2026-04-26T16:28:17.881Z</time></trkpt><trkpt lat="40.6350207" lon="14.9147159"><ele>42.0</ele><time>2026-04-26T16:28:18.881Z</time></trkpt><trkpt lat="40.6351117" lon="14.9144406"><ele>41.333333333333336</ele><time>2026-04-26T16:28:19.882Z</time></trkpt><trkpt lat="40.6352032" lon="14.9141692"><ele>40.66666666666667</ele><time>2026-04-26T16:28:20.882Z</time></trkpt><trkpt lat="40.6352899" lon="14.9138988"><ele>40.0</ele><time>2026-04-26T16:28:21.882Z</time></trkpt><trkpt lat="40.6353765" lon="14.9136288"><ele>39.333333333333336</ele><time>2026-04-26T16:28:22.881Z</time></trkpt><trkpt lat="40.6354612" lon="14.9133611"><ele>38.666666666666664</ele><time>2026-04-26T16:28:23.882Z</time></trkpt><trkpt lat="40.6355433" lon="14.9130992"><ele>38.0</ele><time>2026-04-26T16:28:24.881Z</time></trkpt><trkpt lat="40.6356348" lon="14.9128373"><ele>38.33333333333333</ele><time>2026-04-26T16:28:25.882Z</time></trkpt><trkpt lat="40.6357265" lon="14.9125708"><ele>38.666666666666664</ele><time>2026-04-26T16:28:26.881Z</time></trkpt><trkpt lat="40.6358189" lon="14.9123068"><ele>39.0</ele><time>2026-04-26T16:28:27.882Z</time></trkpt><trkpt lat="40.6359052" lon="14.9120419"><ele>39.0</ele><time>2026-04-26T16:28:28.882Z</time></trkpt><trkpt lat="40.6359941" lon="14.9117769"><ele>39.0</ele><time>2026-04-26T16:28:29.882Z</time></trkpt><trkpt lat="40.6360838" lon="14.9115107"><ele>39.0</ele><time>2026-04-26T16:28:30.881Z</time></trkpt><trkpt lat="40.6361775" lon="14.9112333"><ele>39.0</ele><time>2026-04-26T16:28:31.881Z</time></trkpt><trkpt lat="40.6362716" lon="14.910976"><ele>39.0</ele><time>2026-04-26T16:28:32.882Z</time></trkpt><trkpt lat="40.6363639" lon="14.9107106"><ele>39.0</ele><time>2026-04-26T16:28:33.882Z</time></trkpt><trkpt lat="40.6364504" lon="14.9104416"><ele>38.333333333333336</ele><time>2026-04-26T16:28:34.881Z</time></trkpt><trkpt lat="40.6365356" lon="14.9101731"><ele>37.66666666666667</ele><time>2026-04-26T16:28:35.882Z</time></trkpt><trkpt lat="40.6366219" lon="14.9099035"><ele>37.0</ele><time>2026-04-26T16:28:36.882Z</time></trkpt><trkpt lat="40.636706" lon="14.909636"><ele>36.66666666666667</ele><time>2026-04-26T16:28:37.882Z</time></trkpt><trkpt lat="40.636792" lon="14.9093704"><ele>36.333333333333336</ele><time>2026-04-26T16:28:38.882Z</time></trkpt><trkpt lat="40.6368797" lon="14.9091042"><ele>36.0</ele><time>2026-04-26T16:28:39.881Z</time></trkpt><trkpt lat="40.6369712" lon="14.9088417"><ele>37.0</ele><time>2026-04-26T16:28:40.881Z</time></trkpt><trkpt lat="40.6370636" lon="14.9085778"><ele>38.0</ele><time>2026-04-26T16:28:41.882Z</time></trkpt><trkpt lat="40.6371618" lon="14.9083156"><ele>39.0</ele><time>2026-04-26T16:28:42.882Z</time></trkpt><trkpt lat="40.6372597" lon="14.9080564"><ele>39.333333333333336</ele><time>2026-04-26T16:28:43.882Z</time></trkpt><trkpt lat="40.6373569" lon="14.9078006"><ele>39.66666666666667</ele><time>2026-04-26T16:28:44.882Z</time></trkpt><trkpt lat="40.6374543" lon="14.9075352"><ele>40.0</ele><time>2026-04-26T16:28:45.882Z</time></trkpt><trkpt lat="40.6375636" lon="14.9072774"><ele>40.0</ele><time>2026-04-26T16:28:46.882Z</time></trkpt><trkpt lat="40.637673" lon="14.907021"><ele>40.0</ele><time>2026-04-26T16:28:47.882Z</time></trkpt><trkpt lat="40.6377849" lon="14.9067652"><ele>40.0</ele><time>2026-04-26T16:28:48.882Z</time></trkpt><trkpt lat="40.6378962" lon="14.9065128"><ele>40.0</ele><time>2026-04-26T16:28:49.882Z</time></trkpt><trkpt lat="40.6380055" lon="14.9062622"><ele>40.0</ele><time>2026-04-26T16:28:50.882Z</time></trkpt><trkpt lat="40.6381191" lon="14.9060132"><ele>40.0</ele><time>2026-04-26T16:28:51.882Z</time></trkpt><trkpt lat="40.6382338" lon="14.905766"><ele>39.66666666666667</ele><time>2026-04-26T16:28:52.881Z</time></trkpt><trkpt lat="40.6383482" lon="14.9055209"><ele>39.333333333333336</ele><time>2026-04-26T16:28:53.882Z</time></trkpt><trkpt lat="40.638463" lon="14.905275"><ele>39.0</ele><time>2026-04-26T16:28:54.881Z</time></trkpt><trkpt lat="40.6385767" lon="14.905026"><ele>39.333333333333336</ele><time>2026-04-26T16:28:55.881Z</time></trkpt><trkpt lat="40.6386871" lon="14.9047759"><ele>39.66666666666667</ele><time>2026-04-26T16:28:56.881Z</time></trkpt><trkpt lat="40.6387993" lon="14.9045247"><ele>40.0</ele><time>2026-04-26T16:28:57.882Z</time></trkpt><trkpt lat="40.6389135" lon="14.904272"><ele>39.66666666666667</ele><time>2026-04-26T16:28:58.881Z</time></trkpt><trkpt lat="40.6390284" lon="14.9040197"><ele>39.333333333333336</ele><time>2026-04-26T16:28:59.882Z</time></trkpt><trkpt lat="40.6391399" lon="14.9037704"><ele>39.0</ele><time>2026-04-26T16:29:00.881Z</time></trkpt><trkpt lat="40.6392569" lon="14.903514"><ele>39.333333333333336</ele><time>2026-04-26T16:29:01.881Z</time></trkpt><trkpt lat="40.639375" lon="14.9032683"><ele>39.66666666666667</ele><time>2026-04-26T16:29:02.881Z</time></trkpt><trkpt lat="40.6394935" lon="14.9030221"><ele>40.0</ele><time>2026-04-26T16:29:03.882Z</time></trkpt><trkpt lat="40.6396111" lon="14.9027759"><ele>40.0</ele><time>2026-04-26T16:29:04.881Z</time></trkpt><trkpt lat="40.6397264" lon="14.9025302"><ele>40.0</ele><time>2026-04-26T16:29:05.881Z</time></trkpt><trkpt lat="40.6398401" lon="14.9022801"><ele>40.0</ele><time>2026-04-26T16:29:06.882Z</time></trkpt><trkpt lat="40.6399546" lon="14.9020312"><ele>40.0</ele><time>2026-04-26T16:29:07.881Z</time></trkpt><trkpt lat="40.6400651" lon="14.9017811"><ele>40.0</ele><time>2026-04-26T16:29:08.882Z</time></trkpt><trkpt lat="40.6401788" lon="14.9015273"><ele>40.0</ele><time>2026-04-26T16:29:09.882Z</time></trkpt><trkpt lat="40.6402936" lon="14.9012737"><ele>40.0</ele><time>2026-04-26T16:29:10.882Z</time></trkpt><trkpt lat="40.6404117" lon="14.9010231"><ele>40.0</ele><time>2026-04-26T16:29:11.882Z</time></trkpt><trkpt lat="40.6405301" lon="14.9007767"><ele>40.0</ele><time>2026-04-26T16:29:12.881Z</time></trkpt><trkpt lat="40.640646" lon="14.9005302"><ele>40.0</ele><time>2026-04-26T16:29:13.882Z</time></trkpt><trkpt lat="40.6407624" lon="14.9002823"><ele>40.0</ele><time>2026-04-26T16:29:14.881Z</time></trkpt><trkpt lat="40.6408766" lon="14.900033"><ele>40.0</ele><time>2026-04-26T16:29:15.881Z</time></trkpt><trkpt lat="40.64099" lon="14.8997856"><ele>39.66666666666667</ele><time>2026-04-26T16:29:16.881Z</time></trkpt><trkpt lat="40.6411039" lon="14.8995359"><ele>39.333333333333336</ele><time>2026-04-26T16:29:17.881Z</time></trkpt><trkpt lat="40.6412149" lon="14.8992869"><ele>39.0</ele><time>2026-04-26T16:29:18.882Z</time></trkpt><trkpt lat="40.6413276" lon="14.8990324"><ele>38.666666666666664</ele><time>2026-04-26T16:29:19.882Z</time></trkpt><trkpt lat="40.6414383" lon="14.8987799"><ele>38.33333333333333</ele><time>2026-04-26T16:29:20.881Z</time></trkpt><trkpt lat="40.6415498" lon="14.8985314"><ele>38.0</ele><time>2026-04-26T16:29:21.881Z</time></trkpt><trkpt lat="40.6416627" lon="14.8982792"><ele>37.666666666666664</ele><time>2026-04-26T16:29:22.881Z</time></trkpt><trkpt lat="40.6417747" lon="14.89803"><ele>37.333333333333336</ele><time>2026-04-26T16:29:23.881Z</time></trkpt><trkpt lat="40.6418875" lon="14.8977816"><ele>37.0</ele><time>2026-04-26T16:29:24.882Z</time></trkpt><trkpt lat="40.6419995" lon="14.8975333"><ele>37.66666666666667</ele><time>2026-04-26T16:29:25.881Z</time></trkpt><trkpt lat="40.6421124" lon="14.8972838"><ele>38.333333333333336</ele><time>2026-04-26T16:29:26.881Z</time></trkpt><trkpt lat="40.6422244" lon="14.8970365"><ele>39.0</ele><time>2026-04-26T16:29:27.882Z</time></trkpt><trkpt lat="40.642337" lon="14.896789"><ele>39.0</ele><time>2026-04-26T16:29:28.882Z</time></trkpt><trkpt lat="40.6424493" lon="14.8965392"><ele>39.0</ele><time>2026-04-26T16:29:29.882Z</time></trkpt><trkpt lat="40.6425623" lon="14.8962905"><ele>39.0</ele><time>2026-04-26T16:29:30.881Z</time></trkpt><trkpt lat="40.6426695" lon="14.8960348"><ele>39.333333333333336</ele><time>2026-04-26T16:29:31.881Z</time></trkpt><trkpt lat="40.6427858" lon="14.895786"><ele>39.66666666666667</ele><time>2026-04-26T16:29:32.882Z</time></trkpt><trkpt lat="40.6429024" lon="14.8955321"><ele>40.0</ele><time>2026-04-26T16:29:33.881Z</time></trkpt><trkpt lat="40.6430153" lon="14.895282"><ele>40.333333333333336</ele><time>2026-04-26T16:29:34.881Z</time></trkpt><trkpt lat="40.6431238" lon="14.8950312"><ele>40.666666666666664</ele><time>2026-04-26T16:29:35.881Z</time></trkpt><trkpt lat="40.6432347" lon="14.8947798"><ele>41.0</ele><time>2026-04-26T16:29:36.881Z</time></trkpt><trkpt lat="40.6433464" lon="14.8945308"><ele>41.0</ele><time>2026-04-26T16:29:37.881Z</time></trkpt><trkpt lat="40.6434599" lon="14.8942838"><ele>41.0</ele><time>2026-04-26T16:29:38.882Z</time></trkpt><trkpt lat="40.6435759" lon="14.8940384"><ele>41.0</ele><time>2026-04-26T16:29:39.881Z</time></trkpt><trkpt lat="40.6436935" lon="14.8937896"><ele>41.666666666666664</ele><time>2026-04-26T16:29:40.881Z</time></trkpt><trkpt lat="40.6438105" lon="14.8935412"><ele>42.333333333333336</ele><time>2026-04-26T16:29:41.882Z</time></trkpt><trkpt lat="40.6439261" lon="14.8932927"><ele>43.0</ele><time>2026-04-26T16:29:42.882Z</time></trkpt><trkpt lat="40.6440414" lon="14.8930452"><ele>43.0</ele><time>2026-04-26T16:29:43.882Z</time></trkpt><trkpt lat="40.6441562" lon="14.8927962"><ele>43.0</ele><time>2026-04-26T16:29:44.882Z</time></trkpt><trkpt lat="40.6442691" lon="14.8925459"><ele>43.0</ele><time>2026-04-26T16:29:45.881Z</time></trkpt><trkpt lat="40.6443791" lon="14.8922904"><ele>44.0</ele><time>2026-04-26T16:29:46.881Z</time></trkpt><trkpt lat="40.6444901" lon="14.8920354"><ele>45.0</ele><time>2026-04-26T16:29:47.881Z</time></trkpt><trkpt lat="40.6446004" lon="14.8917816"><ele>46.0</ele><time>2026-04-26T16:29:48.881Z</time></trkpt><trkpt lat="40.6447093" lon="14.891528"><ele>46.0</ele><time>2026-04-26T16:29:49.882Z</time></trkpt><trkpt lat="40.6448204" lon="14.8912732"><ele>46.0</ele><time>2026-04-26T16:29:50.881Z</time></trkpt><trkpt lat="40.6449315" lon="14.8910199"><ele>46.0</ele><time>2026-04-26T16:29:51.881Z</time></trkpt><trkpt lat="40.6450441" lon="14.8907694"><ele>46.333333333333336</ele><time>2026-04-26T16:29:52.882Z</time></trkpt><trkpt lat="40.6451585" lon="14.8905179"><ele>46.666666666666664</ele><time>2026-04-26T16:29:53.881Z</time></trkpt><trkpt lat="40.6452709" lon="14.8902661"><ele>47.0</ele><time>2026-04-26T16:29:54.882Z</time></trkpt><trkpt lat="40.6453796" lon="14.8900163"><ele>47.0</ele><time>2026-04-26T16:29:55.881Z</time></trkpt><trkpt lat="40.6454879" lon="14.8897627"><ele>47.0</ele><time>2026-04-26T16:29:56.882Z</time></trkpt><trkpt lat="40.6455964" lon="14.8895102"><ele>47.0</ele><time>2026-04-26T16:29:57.881Z</time></trkpt><trkpt lat="40.6457037" lon="14.8892572"><ele>46.666666666666664</ele><time>2026-04-26T16:29:58.881Z</time></trkpt><trkpt lat="40.645816" lon="14.8890121"><ele>46.333333333333336</ele><time>2026-04-26T16:29:59.881Z</time></trkpt><trkpt lat="40.645931" lon="14.8887603"><ele>46.0</ele><time>2026-04-26T16:30:00.882Z</time></trkpt><trkpt lat="40.6460492" lon="14.8885143"><ele>45.5</ele><time>2026-04-26T16:30:01.882Z</time></trkpt><trkpt lat="40.6461664" lon="14.8882646"><ele>45.0</ele><time>2026-04-26T16:30:02.881Z</time></trkpt><trkpt lat="40.6462841" lon="14.8880072"><ele>45.0</ele><time>2026-04-26T16:30:03.882Z</time></trkpt><trkpt lat="40.6463962" lon="14.8877501"><ele>45.0</ele><time>2026-04-26T16:30:04.881Z</time></trkpt><trkpt lat="40.6465054" lon="14.8874966"><ele>45.0</ele><time>2026-04-26T16:30:05.881Z</time></trkpt><trkpt lat="40.6466169" lon="14.8872392"><ele>44.333333333333336</ele><time>2026-04-26T16:30:06.881Z</time></trkpt><trkpt lat="40.6467274" lon="14.8869869"><ele>43.66666666666667</ele><time>2026-04-26T16:30:07.882Z</time></trkpt><trkpt lat="40.6468407" lon="14.886732"><ele>43.0</ele><time>2026-04-26T16:30:08.882Z</time></trkpt><trkpt lat="40.6469505" lon="14.8864819"><ele>43.333333333333336</ele><time>2026-04-26T16:30:09.881Z</time></trkpt><trkpt lat="40.6470616" lon="14.8862309"><ele>43.666666666666664</ele><time>2026-04-26T16:30:10.882Z</time></trkpt><trkpt lat="40.6471743" lon="14.8859791"><ele>44.0</ele><time>2026-04-26T16:30:11.882Z</time></trkpt><trkpt lat="40.6472842" lon="14.8857234"><ele>44.0</ele><time>2026-04-26T16:30:12.882Z</time></trkpt><trkpt lat="40.6473941" lon="14.8854697"><ele>44.0</ele><time>2026-04-26T16:30:13.881Z</time></trkpt><trkpt lat="40.647506" lon="14.8852203"><ele>44.0</ele><time>2026-04-26T16:30:14.881Z</time></trkpt><trkpt lat="40.6476143" lon="14.884968"><ele>43.666666666666664</ele><time>2026-04-26T16:30:15.882Z</time></trkpt><trkpt lat="40.6477264" lon="14.8847163"><ele>43.333333333333336</ele><time>2026-04-26T16:30:16.882Z</time></trkpt><trkpt lat="40.6478423" lon="14.8844685"><ele>43.0</ele><time>2026-04-26T16:30:17.882Z</time></trkpt><trkpt lat="40.6479558" lon="14.8842175"><ele>42.66666666666667</ele><time>2026-04-26T16:30:18.881Z</time></trkpt><trkpt lat="40.6480667" lon="14.8839684"><ele>42.333333333333336</ele><time>2026-04-26T16:30:19.881Z</time></trkpt><trkpt lat="40.6481806" lon="14.8837126"><ele>42.0</ele><time>2026-04-26T16:30:20.881Z</time></trkpt><trkpt lat="40.6482913" lon="14.8834736"><ele>41.666666666666664</ele><time>2026-04-26T16:30:21.882Z</time></trkpt><trkpt lat="40.6483953" lon="14.8832339"><ele>41.33333333333333</ele><time>2026-04-26T16:30:22.881Z</time></trkpt><trkpt lat="40.6484979" lon="14.8829968"><ele>41.0</ele><time>2026-04-26T16:30:23.881Z</time></trkpt><trkpt lat="40.6485946" lon="14.8827644"><ele>41.0</ele><time>2026-04-26T16:30:24.882Z</time></trkpt><trkpt lat="40.6486973" lon="14.8825331"><ele>41.0</ele><time>2026-04-26T16:30:25.882Z</time></trkpt><trkpt lat="40.6487985" lon="14.8822991"><ele>41.0</ele><time>2026-04-26T16:30:26.882Z</time></trkpt><trkpt lat="40.6488952" lon="14.8820615"><ele>41.0</ele><time>2026-04-26T16:30:27.881Z</time></trkpt><trkpt lat="40.6489978" lon="14.881817"><ele>41.0</ele><time>2026-04-26T16:30:28.882Z</time></trkpt><trkpt lat="40.6491034" lon="14.8815712"><ele>41.0</ele><time>2026-04-26T16:30:29.881Z</time></trkpt><trkpt lat="40.6492107" lon="14.8813224"><ele>40.666666666666664</ele><time>2026-04-26T16:30:30.882Z</time></trkpt><trkpt lat="40.6493209" lon="14.8810724"><ele>40.333333333333336</ele><time>2026-04-26T16:30:31.882Z</time></trkpt><trkpt lat="40.6494348" lon="14.8808274"><ele>40.0</ele><time>2026-04-26T16:30:32.882Z</time></trkpt><trkpt lat="40.6495499" lon="14.8805829"><ele>40.0</ele><time>2026-04-26T16:30:33.881Z</time></trkpt><trkpt lat="40.6496582" lon="14.8803418"><ele>40.0</ele><time>2026-04-26T16:30:34.881Z</time></trkpt><trkpt lat="40.6497652" lon="14.8801013"><ele>40.0</ele><time>2026-04-26T16:30:35.881Z</time></trkpt><trkpt lat="40.6498722" lon="14.8798556"><ele>39.0</ele><time>2026-04-26T16:30:36.881Z</time></trkpt><trkpt lat="40.6499834" lon="14.8795873"><ele>38.0</ele><time>2026-04-26T16:30:37.881Z</time></trkpt><trkpt lat="40.6500909" lon="14.879331"><ele>38.0</ele><time>2026-04-26T16:30:38.881Z</time></trkpt><trkpt lat="40.6502041" lon="14.8790722"><ele>38.0</ele><time>2026-04-26T16:30:39.881Z</time></trkpt><trkpt lat="40.6503161" lon="14.8788216"><ele>38.0</ele><time>2026-04-26T16:30:40.882Z</time></trkpt><trkpt lat="40.6504291" lon="14.8785718"><ele>37.33333333333333</ele><time>2026-04-26T16:30:41.882Z</time></trkpt><trkpt lat="40.65054" lon="14.8783219"><ele>36.666666666666664</ele><time>2026-04-26T16:30:42.881Z</time></trkpt><trkpt lat="40.6506516" lon="14.8780694"><ele>36.0</ele><time>2026-04-26T16:30:43.881Z</time></trkpt><trkpt lat="40.6507631" lon="14.8778165"><ele>35.666666666666664</ele><time>2026-04-26T16:30:44.881Z</time></trkpt><trkpt lat="40.6508747" lon="14.8775647"><ele>35.33333333333333</ele><time>2026-04-26T16:30:45.882Z</time></trkpt><trkpt lat="40.6509876" lon="14.8773155"><ele>35.0</ele><time>2026-04-26T16:30:46.881Z</time></trkpt><trkpt lat="40.6511027" lon="14.8770698"><ele>35.33333333333333</ele><time>2026-04-26T16:30:47.881Z</time></trkpt><trkpt lat="40.6512154" lon="14.8768256"><ele>35.666666666666664</ele><time>2026-04-26T16:30:48.881Z</time></trkpt><trkpt lat="40.6513325" lon="14.8765637"><ele>36.0</ele><time>2026-04-26T16:30:49.882Z</time></trkpt><trkpt lat="40.6514387" lon="14.8763189"><ele>36.0</ele><time>2026-04-26T16:30:50.882Z</time></trkpt><trkpt lat="40.6515435" lon="14.8760754"><ele>36.0</ele><time>2026-04-26T16:30:51.881Z</time></trkpt><trkpt lat="40.6516523" lon="14.8758379"><ele>36.0</ele><time>2026-04-26T16:30:52.882Z</time></trkpt><trkpt lat="40.6517619" lon="14.8755973"><ele>36.0</ele><time>2026-04-26T16:30:53.882Z</time></trkpt><trkpt lat="40.6518691" lon="14.8753533"><ele>36.0</ele><time>2026-04-26T16:30:54.882Z</time></trkpt><trkpt lat="40.651976" lon="14.8751058"><ele>36.0</ele><time>2026-04-26T16:30:55.881Z</time></trkpt><trkpt lat="40.6520829" lon="14.8748628"><ele>35.333333333333336</ele><time>2026-04-26T16:30:56.881Z</time></trkpt><trkpt lat="40.6521877" lon="14.874625"><ele>34.66666666666667</ele><time>2026-04-26T16:30:57.881Z</time></trkpt><trkpt lat="40.6522887" lon="14.8743961"><ele>34.0</ele><time>2026-04-26T16:30:58.881Z</time></trkpt><trkpt lat="40.6523919" lon="14.8741725"><ele>32.5</ele><time>2026-04-26T16:30:59.881Z</time></trkpt><trkpt lat="40.6525967" lon="14.8737054"><ele>31.0</ele><time>2026-04-26T16:31:01.882Z</time></trkpt><trkpt lat="40.652705" lon="14.8734682"><ele>31.666666666666668</ele><time>2026-04-26T16:31:02.882Z</time></trkpt><trkpt lat="40.6528099" lon="14.8732318"><ele>32.333333333333336</ele><time>2026-04-26T16:31:03.881Z</time></trkpt><trkpt lat="40.652912" lon="14.8729904"><ele>33.0</ele><time>2026-04-26T16:31:04.881Z</time></trkpt><trkpt lat="40.6530143" lon="14.8727404"><ele>32.333333333333336</ele><time>2026-04-26T16:31:05.882Z</time></trkpt><trkpt lat="40.6531131" lon="14.8724894"><ele>31.666666666666668</ele><time>2026-04-26T16:31:06.881Z</time></trkpt><trkpt lat="40.6532127" lon="14.8722376"><ele>31.0</ele><time>2026-04-26T16:31:07.882Z</time></trkpt><trkpt lat="40.6533153" lon="14.8719857"><ele>31.333333333333336</ele><time>2026-04-26T16:31:08.882Z</time></trkpt><trkpt lat="40.6534204" lon="14.8717329"><ele>31.666666666666664</ele><time>2026-04-26T16:31:09.882Z</time></trkpt><trkpt lat="40.6535269" lon="14.8714781"><ele>32.0</ele><time>2026-04-26T16:31:10.881Z</time></trkpt><trkpt lat="40.6536313" lon="14.8712229"><ele>32.666666666666664</ele><time>2026-04-26T16:31:11.881Z</time></trkpt><trkpt lat="40.6537363" lon="14.87097"><ele>33.333333333333336</ele><time>2026-04-26T16:31:12.882Z</time></trkpt><trkpt lat="40.6538376" lon="14.8707165"><ele>34.0</ele><time>2026-04-26T16:31:13.882Z</time></trkpt><trkpt lat="40.6539384" lon="14.8704556"><ele>35.0</ele><time>2026-04-26T16:31:14.881Z</time></trkpt><trkpt lat="40.6540408" lon="14.8701951"><ele>36.0</ele><time>2026-04-26T16:31:15.882Z</time></trkpt><trkpt lat="40.6541418" lon="14.869936"><ele>37.0</ele><time>2026-04-26T16:31:16.881Z</time></trkpt><trkpt lat="40.6542447" lon="14.8696764"><ele>38.0</ele><time>2026-04-26T16:31:17.881Z</time></trkpt><trkpt lat="40.6543555" lon="14.8694182"><ele>39.0</ele><time>2026-04-26T16:31:18.882Z</time></trkpt><trkpt lat="40.6544693" lon="14.8691655"><ele>40.0</ele><time>2026-04-26T16:31:19.881Z</time></trkpt><trkpt lat="40.6545823" lon="14.8689177"><ele>41.0</ele><time>2026-04-26T16:31:20.882Z</time></trkpt><trkpt lat="40.6546931" lon="14.8686708"><ele>42.0</ele><time>2026-04-26T16:31:21.882Z</time></trkpt><trkpt lat="40.6547977" lon="14.8684176"><ele>43.0</ele><time>2026-04-26T16:31:22.881Z</time></trkpt><trkpt lat="40.6549004" lon="14.8681605"><ele>43.0</ele><time>2026-04-26T16:31:23.881Z</time></trkpt><trkpt lat="40.6550023" lon="14.867906"><ele>43.0</ele><time>2026-04-26T16:31:24.881Z</time></trkpt><trkpt lat="40.6551031" lon="14.8676493"><ele>43.0</ele><time>2026-04-26T16:31:25.882Z</time></trkpt><trkpt lat="40.6552103" lon="14.8673903"><ele>44.333333333333336</ele><time>2026-04-26T16:31:26.881Z</time></trkpt><trkpt lat="40.655314" lon="14.8671325"><ele>45.666666666666664</ele><time>2026-04-26T16:31:27.882Z</time></trkpt><trkpt lat="40.6554185" lon="14.8668754"><ele>47.0</ele><time>2026-04-26T16:31:28.882Z</time></trkpt><trkpt lat="40.6555259" lon="14.8666152"><ele>47.33333333333333</ele><time>2026-04-26T16:31:29.881Z</time></trkpt><trkpt lat="40.6556349" lon="14.866364"><ele>47.666666666666664</ele><time>2026-04-26T16:31:30.881Z</time></trkpt><trkpt lat="40.6557466" lon="14.8661131"><ele>48.0</ele><time>2026-04-26T16:31:31.881Z</time></trkpt><trkpt lat="40.6558605" lon="14.8658635"><ele>47.333333333333336</ele><time>2026-04-26T16:31:32.882Z</time></trkpt><trkpt lat="40.6559761" lon="14.865618"><ele>46.66666666666667</ele><time>2026-04-26T16:31:33.881Z</time></trkpt><trkpt lat="40.6560947" lon="14.8653762"><ele>46.0</ele><time>2026-04-26T16:31:34.882Z</time></trkpt><trkpt lat="40.6562206" lon="14.8651371"><ele>46.333333333333336</ele><time>2026-04-26T16:31:35.881Z</time></trkpt><trkpt lat="40.6563482" lon="14.8649018"><ele>46.666666666666664</ele><time>2026-04-26T16:31:36.882Z</time></trkpt><trkpt lat="40.6564814" lon="14.8646755"><ele>47.0</ele><time>2026-04-26T16:31:37.881Z</time></trkpt><trkpt lat="40.6566205" lon="14.8644563"><ele>47.33333333333333</ele><time>2026-04-26T16:31:38.882Z</time></trkpt><trkpt lat="40.6567677" lon="14.8642355"><ele>47.666666666666664</ele><time>2026-04-26T16:31:39.882Z</time></trkpt><trkpt lat="40.6569153" lon="14.8640226"><ele>48.0</ele><time>2026-04-26T16:31:40.882Z</time></trkpt><trkpt lat="40.6570668" lon="14.8638077"><ele>48.33333333333333</ele><time>2026-04-26T16:31:41.882Z</time></trkpt><trkpt lat="40.6572218" lon="14.8635999"><ele>48.666666666666664</ele><time>2026-04-26T16:31:42.881Z</time></trkpt><trkpt lat="40.6573843" lon="14.8634019"><ele>49.0</ele><time>2026-04-26T16:31:43.881Z</time></trkpt><trkpt lat="40.6575511" lon="14.8632079"><ele>49.0</ele><time>2026-04-26T16:31:44.881Z</time></trkpt><trkpt lat="40.6577212" lon="14.8630193"><ele>49.0</ele><time>2026-04-26T16:31:45.882Z</time></trkpt><trkpt lat="40.6578936" lon="14.8628376"><ele>49.0</ele><time>2026-04-26T16:31:46.881Z</time></trkpt><trkpt lat="40.6580664" lon="14.8626645"><ele>50.0</ele><time>2026-04-26T16:31:47.881Z</time></trkpt><trkpt lat="40.658244" lon="14.8624935"><ele>51.0</ele><time>2026-04-26T16:31:48.882Z</time></trkpt><trkpt lat="40.6584253" lon="14.8623242"><ele>52.0</ele><time>2026-04-26T16:31:49.882Z</time></trkpt><trkpt lat="40.6586109" lon="14.8621571"><ele>53.666666666666664</ele><time>2026-04-26T16:31:50.881Z</time></trkpt><trkpt lat="40.6587983" lon="14.8619957"><ele>55.33333333333333</ele><time>2026-04-26T16:31:51.881Z</time></trkpt><trkpt lat="40.6589883" lon="14.8618441"><ele>57.0</ele><time>2026-04-26T16:31:52.881Z</time></trkpt><trkpt lat="40.6591815" lon="14.8617006"><ele>57.0</ele><time>2026-04-26T16:31:53.882Z</time></trkpt><trkpt lat="40.6593742" lon="14.8615558"><ele>57.0</ele><time>2026-04-26T16:31:54.881Z</time></trkpt><trkpt lat="40.6595649" lon="14.8614063"><ele>57.0</ele><time>2026-04-26T16:31:55.881Z</time></trkpt><trkpt lat="40.6597558" lon="14.8612566"><ele>60.66666666666667</ele><time>2026-04-26T16:31:56.882Z</time></trkpt><trkpt lat="40.6599443" lon="14.8611047"><ele>64.33333333333334</ele><time>2026-04-26T16:31:57.881Z</time></trkpt><trkpt lat="40.6601326" lon="14.8609564"><ele>68.0</ele><time>2026-04-26T16:31:58.881Z</time></trkpt><trkpt lat="40.6603212" lon="14.8608117"><ele>68.66666666666667</ele><time>2026-04-26T16:31:59.882Z</time></trkpt><trkpt lat="40.6605112" lon="14.8606627"><ele>69.33333333333333</ele><time>2026-04-26T16:32:00.882Z</time></trkpt><trkpt lat="40.6607002" lon="14.8605169"><ele>70.0</ele><time>2026-04-26T16:32:01.882Z</time></trkpt><trkpt lat="40.6608928" lon="14.8603704"><ele>70.0</ele><time>2026-04-26T16:32:02.881Z</time></trkpt><trkpt lat="40.6610877" lon="14.8602309"><ele>70.0</ele><time>2026-04-26T16:32:03.882Z</time></trkpt><trkpt lat="40.6612859" lon="14.8600972"><ele>70.0</ele><time>2026-04-26T16:32:04.882Z</time></trkpt><trkpt lat="40.6614873" lon="14.8599734"><ele>70.0</ele><time>2026-04-26T16:32:05.881Z</time></trkpt><trkpt lat="40.6616896" lon="14.8598608"><ele>70.0</ele><time>2026-04-26T16:32:06.881Z</time></trkpt><trkpt lat="40.6618967" lon="14.8597563"><ele>70.0</ele><time>2026-04-26T16:32:07.882Z</time></trkpt><trkpt lat="40.6621052" lon="14.859654"><ele>73.0</ele><time>2026-04-26T16:32:08.882Z</time></trkpt><trkpt lat="40.6623128" lon="14.8595547"><ele>76.0</ele><time>2026-04-26T16:32:09.881Z</time></trkpt><trkpt lat="40.6625251" lon="14.8594674"><ele>79.0</ele><time>2026-04-26T16:32:10.882Z</time></trkpt><trkpt lat="40.6627427" lon="14.85939"><ele>83.66666666666666</ele><time>2026-04-26T16:32:11.881Z</time></trkpt><trkpt lat="40.6629602" lon="14.859323"><ele>88.33333333333333</ele><time>2026-04-26T16:32:12.882Z</time></trkpt><trkpt lat="40.6631677" lon="14.8592575"><ele>93.0</ele><time>2026-04-26T16:32:13.882Z</time></trkpt><trkpt lat="40.6633696" lon="14.8591775"><ele>93.0</ele><time>2026-04-26T16:32:14.881Z</time></trkpt><trkpt lat="40.6635697" lon="14.8590996"><ele>93.0</ele><time>2026-04-26T16:32:15.881Z</time></trkpt><trkpt lat="40.6637642" lon="14.8590213"><ele>93.0</ele><time>2026-04-26T16:32:16.882Z</time></trkpt><trkpt lat="40.6639573" lon="14.8589465"><ele>170.0</ele><time>2026-04-26T16:32:17.881Z</time></trkpt><trkpt lat="40.6649852" lon="14.8585738"><ele>112.0</ele><time>2026-04-26T16:32:22.98Z</time></trkpt><trkpt lat="40.6700817" lon="14.8584317"><ele>115.0</ele><time>2026-04-26T16:32:46.88Z</time></trkpt><trkpt lat="40.6702983" lon="14.8584133"><ele>118.0</ele><time>2026-04-26T16:32:47.879Z</time></trkpt><trkpt lat="40.67052" lon="14.8583967"><ele>121.0</ele><time>2026-04-26T16:32:48.879Z</time></trkpt><trkpt lat="40.6779283" lon="14.8577167"><ele>121.0</ele><time>2026-04-26T16:33:21.877Z</time></trkpt><trkpt lat="40.6781158" lon="14.8576591"><ele>121.0</ele><time>2026-04-26T16:33:22.877Z</time></trkpt><trkpt lat="40.6783185" lon="14.8576223"><ele>121.0</ele><time>2026-04-26T16:33:23.877Z</time></trkpt><trkpt lat="40.6785255" lon="14.8575942"><ele>118.66666666666667</ele><time>2026-04-26T16:33:24.878Z</time></trkpt><trkpt lat="40.6787395" lon="14.8575669"><ele>116.33333333333334</ele><time>2026-04-26T16:33:25.877Z</time></trkpt><trkpt lat="40.6789588" lon="14.8575387"><ele>114.0</ele><time>2026-04-26T16:33:26.878Z</time></trkpt><trkpt lat="40.6791784" lon="14.8575055"><ele>114.0</ele><time>2026-04-26T16:33:27.877Z</time></trkpt><trkpt lat="40.6793958" lon="14.8574662"><ele>114.0</ele><time>2026-04-26T16:33:28.877Z</time></trkpt><trkpt lat="40.679615" lon="14.8574213"><ele>114.0</ele><time>2026-04-26T16:33:29.878Z</time></trkpt><trkpt lat="40.6798369" lon="14.8573689"><ele>114.0</ele><time>2026-04-26T16:33:30.877Z</time></trkpt><trkpt lat="40.6800549" lon="14.8573145"><ele>114.0</ele><time>2026-04-26T16:33:31.878Z</time></trkpt><trkpt lat="40.6802728" lon="14.8572534"><ele>114.0</ele><time>2026-04-26T16:33:32.877Z</time></trkpt><trkpt lat="40.6804896" lon="14.8571858"><ele>114.0</ele><time>2026-04-26T16:33:33.878Z</time></trkpt><trkpt lat="40.6807034" lon="14.8571149"><ele>114.0</ele><time>2026-04-26T16:33:34.878Z</time></trkpt><trkpt lat="40.6809153" lon="14.8570325"><ele>114.0</ele><time>2026-04-26T16:33:35.877Z</time></trkpt><trkpt lat="40.6811278" lon="14.8569454"><ele>114.33333333333334</ele><time>2026-04-26T16:33:36.878Z</time></trkpt><trkpt lat="40.6813355" lon="14.8568536"><ele>114.66666666666667</ele><time>2026-04-26T16:33:37.878Z</time></trkpt><trkpt lat="40.6815419" lon="14.8567485"><ele>115.0</ele><time>2026-04-26T16:33:38.878Z</time></trkpt><trkpt lat="40.6817465" lon="14.8566313"><ele>115.33333333333334</ele><time>2026-04-26T16:33:39.878Z</time></trkpt><trkpt lat="40.681947" lon="14.8565036"><ele>115.66666666666666</ele><time>2026-04-26T16:33:40.877Z</time></trkpt><trkpt lat="40.6821466" lon="14.8563728"><ele>116.0</ele><time>2026-04-26T16:33:41.878Z</time></trkpt><trkpt lat="40.6823424" lon="14.8562424"><ele>116.0</ele><time>2026-04-26T16:33:42.878Z</time></trkpt><trkpt lat="40.6825358" lon="14.8561013"><ele>116.0</ele><time>2026-04-26T16:33:43.877Z</time></trkpt><trkpt lat="40.6827281" lon="14.8559539"><ele>116.0</ele><time>2026-04-26T16:33:44.877Z</time></trkpt><trkpt lat="40.6829156" lon="14.8558011"><ele>114.5</ele><time>2026-04-26T16:33:45.878Z</time></trkpt><trkpt lat="40.6831004" lon="14.8556415"><ele>113.0</ele><time>2026-04-26T16:33:46.878Z</time></trkpt><trkpt lat="40.6832866" lon="14.8554663"><ele>113.0</ele><time>2026-04-26T16:33:47.877Z</time></trkpt><trkpt lat="40.6834561" lon="14.8552891"><ele>113.0</ele><time>2026-04-26T16:33:48.878Z</time></trkpt><trkpt lat="40.6836226" lon="14.8551064"><ele>113.0</ele><time>2026-04-26T16:33:49.878Z</time></trkpt><trkpt lat="40.6837908" lon="14.854916"><ele>113.0</ele><time>2026-04-26T16:33:50.877Z</time></trkpt><trkpt lat="40.6839591" lon="14.8547233"><ele>113.0</ele><time>2026-04-26T16:33:51.877Z</time></trkpt><trkpt lat="40.684112" lon="14.85452"><ele>113.0</ele><time>2026-04-26T16:33:52.878Z</time></trkpt><trkpt lat="40.6842593" lon="14.8543115"><ele>113.0</ele><time>2026-04-26T16:33:53.877Z</time></trkpt><trkpt lat="40.6844052" lon="14.8540969"><ele>113.0</ele><time>2026-04-26T16:33:54.878Z</time></trkpt><trkpt lat="40.6845489" lon="14.8538755"><ele>113.0</ele><time>2026-04-26T16:33:55.877Z</time></trkpt><trkpt lat="40.6846883" lon="14.8536442"><ele>113.66666666666666</ele><time>2026-04-26T16:33:56.877Z</time></trkpt><trkpt lat="40.6848236" lon="14.8534098"><ele>114.33333333333334</ele><time>2026-04-26T16:33:57.877Z</time></trkpt><trkpt lat="40.6849562" lon="14.853171"><ele>115.0</ele><time>2026-04-26T16:33:58.878Z</time></trkpt><trkpt lat="40.685082" lon="14.8529304"><ele>115.0</ele><time>2026-04-26T16:33:59.877Z</time></trkpt><trkpt lat="40.6852045" lon="14.8526829"><ele>115.0</ele><time>2026-04-26T16:34:00.878Z</time></trkpt><trkpt lat="40.6853206" lon="14.8524324"><ele>115.0</ele><time>2026-04-26T16:34:01.878Z</time></trkpt><trkpt lat="40.6854281" lon="14.852181"><ele>115.33333333333334</ele><time>2026-04-26T16:34:02.878Z</time></trkpt><trkpt lat="40.6855295" lon="14.8519225"><ele>115.66666666666666</ele><time>2026-04-26T16:34:03.877Z</time></trkpt><trkpt lat="40.6856312" lon="14.8516574"><ele>116.0</ele><time>2026-04-26T16:34:04.877Z</time></trkpt><trkpt lat="40.6857221" lon="14.8513928"><ele>114.66666666666666</ele><time>2026-04-26T16:34:05.877Z</time></trkpt><trkpt lat="40.6858083" lon="14.8511256"><ele>113.33333333333334</ele><time>2026-04-26T16:34:06.877Z</time></trkpt><trkpt lat="40.685895" lon="14.8508567"><ele>112.0</ele><time>2026-04-26T16:34:07.877Z</time></trkpt><trkpt lat="40.6859786" lon="14.8505925"><ele>112.0</ele><time>2026-04-26T16:34:08.877Z</time></trkpt><trkpt lat="40.6860612" lon="14.8503268"><ele>112.0</ele><time>2026-04-26T16:34:09.877Z</time></trkpt><trkpt lat="40.6861435" lon="14.8500601"><ele>112.0</ele><time>2026-04-26T16:34:10.878Z</time></trkpt><trkpt lat="40.6862196" lon="14.8497942"><ele>112.0</ele><time>2026-04-26T16:34:11.877Z</time></trkpt><trkpt lat="40.6862927" lon="14.8495248"><ele>112.0</ele><time>2026-04-26T16:34:12.878Z</time></trkpt><trkpt lat="40.6863613" lon="14.8492498"><ele>112.0</ele><time>2026-04-26T16:34:13.877Z</time></trkpt><trkpt lat="40.6864287" lon="14.848971"><ele>112.0</ele><time>2026-04-26T16:34:14.877Z</time></trkpt><trkpt lat="40.6864956" lon="14.848691"><ele>112.0</ele><time>2026-04-26T16:34:15.877Z</time></trkpt><trkpt lat="40.6865635" lon="14.8484134"><ele>112.0</ele><time>2026-04-26T16:34:16.878Z</time></trkpt><trkpt lat="40.6866305" lon="14.848139"><ele>112.0</ele><time>2026-04-26T16:34:17.878Z</time></trkpt><trkpt lat="40.686702" lon="14.8478617"><ele>112.0</ele><time>2026-04-26T16:34:18.878Z</time></trkpt><trkpt lat="40.6867726" lon="14.8475809"><ele>112.0</ele><time>2026-04-26T16:34:19.878Z</time></trkpt><trkpt lat="40.6868427" lon="14.8473032"><ele>114.33333333333334</ele><time>2026-04-26T16:34:20.878Z</time></trkpt><trkpt lat="40.6869125" lon="14.8470251"><ele>116.66666666666666</ele><time>2026-04-26T16:34:21.877Z</time></trkpt><trkpt lat="40.6869817" lon="14.8467478"><ele>119.0</ele><time>2026-04-26T16:34:22.877Z</time></trkpt><trkpt lat="40.6870503" lon="14.846471"><ele>120.0</ele><time>2026-04-26T16:34:23.878Z</time></trkpt><trkpt lat="40.6871194" lon="14.8461954"><ele>121.0</ele><time>2026-04-26T16:34:24.878Z</time></trkpt><trkpt lat="40.6871925" lon="14.8459163"><ele>122.0</ele><time>2026-04-26T16:34:25.878Z</time></trkpt><trkpt lat="40.6872651" lon="14.845637"><ele>122.66666666666666</ele><time>2026-04-26T16:34:26.878Z</time></trkpt><trkpt lat="40.6873369" lon="14.8453609"><ele>123.33333333333334</ele><time>2026-04-26T16:34:27.877Z</time></trkpt><trkpt lat="40.6874078" lon="14.8450879"><ele>124.0</ele><time>2026-04-26T16:34:28.877Z</time></trkpt><trkpt lat="40.6874881" lon="14.8448166"><ele>124.66666666666667</ele><time>2026-04-26T16:34:29.877Z</time></trkpt><trkpt lat="40.6875701" lon="14.8445469"><ele>125.33333333333334</ele><time>2026-04-26T16:34:30.877Z</time></trkpt><trkpt lat="40.6876453" lon="14.844277"><ele>126.0</ele><time>2026-04-26T16:34:31.877Z</time></trkpt><trkpt lat="40.6877202" lon="14.8440071"><ele>126.66666666666666</ele><time>2026-04-26T16:34:32.877Z</time></trkpt><trkpt lat="40.6877963" lon="14.8437348"><ele>127.33333333333333</ele><time>2026-04-26T16:34:33.877Z</time></trkpt><trkpt lat="40.6878729" lon="14.8434652"><ele>128.0</ele><time>2026-04-26T16:34:34.878Z</time></trkpt><trkpt lat="40.6879558" lon="14.843199"><ele>128.5</ele><time>2026-04-26T16:34:35.878Z</time></trkpt><trkpt lat="40.6880489" lon="14.8429292"><ele>129.0</ele><time>2026-04-26T16:34:36.877Z</time></trkpt><trkpt lat="40.688138" lon="14.8426559"><ele>129.33333333333334</ele><time>2026-04-26T16:34:37.877Z</time></trkpt><trkpt lat="40.6882318" lon="14.8423906"><ele>129.66666666666669</ele><time>2026-04-26T16:34:38.877Z</time></trkpt><trkpt lat="40.688331" lon="14.8421303"><ele>130.0</ele><time>2026-04-26T16:34:39.877Z</time></trkpt><trkpt lat="40.6884292" lon="14.8418683"><ele>130.33333333333334</ele><time>2026-04-26T16:34:40.878Z</time></trkpt><trkpt lat="40.6885303" lon="14.8416078"><ele>130.66666666666666</ele><time>2026-04-26T16:34:41.877Z</time></trkpt><trkpt lat="40.6886338" lon="14.8413481"><ele>131.0</ele><time>2026-04-26T16:34:42.878Z</time></trkpt><trkpt lat="40.688743" lon="14.8410925"><ele>133.0</ele><time>2026-04-26T16:34:43.878Z</time></trkpt><trkpt lat="40.6888511" lon="14.8408427"><ele>135.0</ele><time>2026-04-26T16:34:44.878Z</time></trkpt><trkpt lat="40.6889597" lon="14.8405918"><ele>137.0</ele><time>2026-04-26T16:34:45.877Z</time></trkpt><trkpt lat="40.6890712" lon="14.8403409"><ele>137.33333333333331</ele><time>2026-04-26T16:34:46.877Z</time></trkpt><trkpt lat="40.6891818" lon="14.8401005"><ele>137.66666666666666</ele><time>2026-04-26T16:34:47.877Z</time></trkpt><trkpt lat="40.6893026" lon="14.8398489"><ele>138.0</ele><time>2026-04-26T16:34:48.878Z</time></trkpt><trkpt lat="40.6894304" lon="14.8396101"><ele>139.0</ele><time>2026-04-26T16:34:49.878Z</time></trkpt><trkpt lat="40.6895593" lon="14.8393714"><ele>140.0</ele><time>2026-04-26T16:34:50.877Z</time></trkpt><trkpt lat="40.6896894" lon="14.8391334"><ele>141.0</ele><time>2026-04-26T16:34:51.877Z</time></trkpt><trkpt lat="40.6898177" lon="14.8388996"><ele>141.33333333333334</ele><time>2026-04-26T16:34:52.878Z</time></trkpt><trkpt lat="40.689948" lon="14.8386705"><ele>141.66666666666669</ele><time>2026-04-26T16:34:53.877Z</time></trkpt><trkpt lat="40.6900838" lon="14.8384419"><ele>142.0</ele><time>2026-04-26T16:34:54.878Z</time></trkpt><trkpt lat="40.6902208" lon="14.8382171"><ele>143.66666666666669</ele><time>2026-04-26T16:34:55.878Z</time></trkpt><trkpt lat="40.690362" lon="14.8379926"><ele>145.33333333333334</ele><time>2026-04-26T16:34:56.877Z</time></trkpt><trkpt lat="40.690504" lon="14.8377691"><ele>147.0</ele><time>2026-04-26T16:34:57.877Z</time></trkpt><trkpt lat="40.6906474" lon="14.8375502"><ele>148.0</ele><time>2026-04-26T16:34:58.877Z</time></trkpt><trkpt lat="40.6907898" lon="14.8373341"><ele>149.0</ele><time>2026-04-26T16:34:59.878Z</time></trkpt><trkpt lat="40.6909342" lon="14.8371164"><ele>150.0</ele><time>2026-04-26T16:35:00.878Z</time></trkpt><trkpt lat="40.6910808" lon="14.8369003"><ele>150.33333333333334</ele><time>2026-04-26T16:35:01.877Z</time></trkpt><trkpt lat="40.6912275" lon="14.8366865"><ele>150.66666666666669</ele><time>2026-04-26T16:35:02.877Z</time></trkpt><trkpt lat="40.6913773" lon="14.8364747"><ele>151.0</ele><time>2026-04-26T16:35:03.877Z</time></trkpt><trkpt lat="40.6915278" lon="14.8362652"><ele>151.0</ele><time>2026-04-26T16:35:04.877Z</time></trkpt><trkpt lat="40.6916808" lon="14.836055"><ele>151.0</ele><time>2026-04-26T16:35:05.878Z</time></trkpt><trkpt lat="40.6918341" lon="14.8358439"><ele>151.0</ele><time>2026-04-26T16:35:06.878Z</time></trkpt><trkpt lat="40.6919862" lon="14.8356301"><ele>152.33333333333334</ele><time>2026-04-26T16:35:07.878Z</time></trkpt><trkpt lat="40.6921392" lon="14.8354182"><ele>153.66666666666666</ele><time>2026-04-26T16:35:08.877Z</time></trkpt><trkpt lat="40.6922905" lon="14.8352073"><ele>155.0</ele><time>2026-04-26T16:35:09.878Z</time></trkpt><trkpt lat="40.6924456" lon="14.8349938"><ele>155.33333333333331</ele><time>2026-04-26T16:35:10.878Z</time></trkpt><trkpt lat="40.6926019" lon="14.8347863"><ele>155.66666666666666</ele><time>2026-04-26T16:35:11.877Z</time></trkpt><trkpt lat="40.6927587" lon="14.8345795"><ele>156.0</ele><time>2026-04-26T16:35:12.877Z</time></trkpt><trkpt lat="40.6929172" lon="14.8343732"><ele>156.66666666666666</ele><time>2026-04-26T16:35:13.878Z</time></trkpt><trkpt lat="40.6930771" lon="14.8341717"><ele>157.33333333333331</ele><time>2026-04-26T16:35:14.877Z</time></trkpt><trkpt lat="40.693239" lon="14.8339733"><ele>158.0</ele><time>2026-04-26T16:35:15.878Z</time></trkpt><trkpt lat="40.6933999" lon="14.8337781"><ele>158.0</ele><time>2026-04-26T16:35:16.877Z</time></trkpt><trkpt lat="40.6935573" lon="14.8335826"><ele>158.0</ele><time>2026-04-26T16:35:17.878Z</time></trkpt><trkpt lat="40.6937199" lon="14.8333693"><ele>158.0</ele><time>2026-04-26T16:35:18.877Z</time></trkpt><trkpt lat="40.6938815" lon="14.8331696"><ele>159.0</ele><time>2026-04-26T16:35:19.878Z</time></trkpt><trkpt lat="40.6940354" lon="14.8329659"><ele>160.0</ele><time>2026-04-26T16:35:20.878Z</time></trkpt><trkpt lat="40.694191" lon="14.8327559"><ele>161.0</ele><time>2026-04-26T16:35:21.877Z</time></trkpt><trkpt lat="40.6943437" lon="14.8325467"><ele>162.66666666666666</ele><time>2026-04-26T16:35:22.878Z</time></trkpt><trkpt lat="40.6944968" lon="14.8323412"><ele>164.33333333333334</ele><time>2026-04-26T16:35:23.878Z</time></trkpt><trkpt lat="40.6946481" lon="14.8321329"><ele>166.0</ele><time>2026-04-26T16:35:24.878Z</time></trkpt><trkpt lat="40.6947967" lon="14.8319175"><ele>166.0</ele><time>2026-04-26T16:35:25.878Z</time></trkpt><trkpt lat="40.694942" lon="14.8316957"><ele>166.0</ele><time>2026-04-26T16:35:26.877Z</time></trkpt><trkpt lat="40.6950879" lon="14.8314789"><ele>166.0</ele><time>2026-04-26T16:35:27.878Z</time></trkpt><trkpt lat="40.6952331" lon="14.8312595"><ele>167.66666666666669</ele><time>2026-04-26T16:35:28.877Z</time></trkpt><trkpt lat="40.6953787" lon="14.8310391"><ele>169.33333333333334</ele><time>2026-04-26T16:35:29.877Z</time></trkpt><trkpt lat="40.6955188" lon="14.8308164"><ele>171.0</ele><time>2026-04-26T16:35:30.877Z</time></trkpt><trkpt lat="40.6956566" lon="14.8305903"><ele>172.0</ele><time>2026-04-26T16:35:31.877Z</time></trkpt><trkpt lat="40.6957925" lon="14.8303594"><ele>173.0</ele><time>2026-04-26T16:35:32.877Z</time></trkpt><trkpt lat="40.6959246" lon="14.8301247"><ele>174.0</ele><time>2026-04-26T16:35:33.878Z</time></trkpt><trkpt lat="40.696056" lon="14.8298883"><ele>175.0</ele><time>2026-04-26T16:35:34.877Z</time></trkpt><trkpt lat="40.6961821" lon="14.8296534"><ele>176.0</ele><time>2026-04-26T16:35:35.877Z</time></trkpt><trkpt lat="40.6963103" lon="14.8294165"><ele>177.0</ele><time>2026-04-26T16:35:36.878Z</time></trkpt><trkpt lat="40.6964394" lon="14.8291835"><ele>178.0</ele><time>2026-04-26T16:35:37.877Z</time></trkpt><trkpt lat="40.6965612" lon="14.8289328"><ele>179.0</ele><time>2026-04-26T16:35:38.878Z</time></trkpt><trkpt lat="40.6966759" lon="14.828677"><ele>178.33333333333331</ele><time>2026-04-26T16:35:39.878Z</time></trkpt><trkpt lat="40.6967899" lon="14.8284223"><ele>177.66666666666666</ele><time>2026-04-26T16:35:40.878Z</time></trkpt><trkpt lat="40.6969025" lon="14.828169"><ele>177.0</ele><time>2026-04-26T16:35:41.877Z</time></trkpt><trkpt lat="40.6970097" lon="14.8279122"><ele>177.66666666666666</ele><time>2026-04-26T16:35:42.878Z</time></trkpt><trkpt lat="40.6971153" lon="14.8276566"><ele>178.33333333333331</ele><time>2026-04-26T16:35:43.878Z</time></trkpt><trkpt lat="40.69722" lon="14.8273989"><ele>179.0</ele><time>2026-04-26T16:35:44.877Z</time></trkpt><trkpt lat="40.6973191" lon="14.8271379"><ele>179.0</ele><time>2026-04-26T16:35:45.877Z</time></trkpt><trkpt lat="40.6974131" lon="14.8268734"><ele>179.0</ele><time>2026-04-26T16:35:46.877Z</time></trkpt><trkpt lat="40.6975033" lon="14.8266068"><ele>179.0</ele><time>2026-04-26T16:35:47.878Z</time></trkpt><trkpt lat="40.6975829" lon="14.8263372"><ele>179.0</ele><time>2026-04-26T16:35:48.878Z</time></trkpt><trkpt lat="40.6976662" lon="14.8260633"><ele>179.0</ele><time>2026-04-26T16:35:49.878Z</time></trkpt><trkpt lat="40.6977487" lon="14.8257895"><ele>179.0</ele><time>2026-04-26T16:35:50.877Z</time></trkpt><trkpt lat="40.6978304" lon="14.8255158"><ele>179.0</ele><time>2026-04-26T16:35:51.877Z</time></trkpt><trkpt lat="40.6979135" lon="14.825241"><ele>179.0</ele><time>2026-04-26T16:35:52.878Z</time></trkpt><trkpt lat="40.6979838" lon="14.8249656"><ele>179.0</ele><time>2026-04-26T16:35:53.878Z</time></trkpt><trkpt lat="40.6980503" lon="14.8246875"><ele>177.66666666666666</ele><time>2026-04-26T16:35:54.878Z</time></trkpt><trkpt lat="40.6981127" lon="14.8244086"><ele>176.33333333333334</ele><time>2026-04-26T16:35:55.878Z</time></trkpt><trkpt lat="40.6981723" lon="14.8241284"><ele>175.0</ele><time>2026-04-26T16:35:56.878Z</time></trkpt><trkpt lat="40.6982312" lon="14.8238455"><ele>175.0</ele><time>2026-04-26T16:35:57.878Z</time></trkpt><trkpt lat="40.6982896" lon="14.8235634"><ele>175.0</ele><time>2026-04-26T16:35:58.877Z</time></trkpt><trkpt lat="40.6983479" lon="14.8232827"><ele>175.0</ele><time>2026-04-26T16:35:59.877Z</time></trkpt><trkpt lat="40.698405" lon="14.8230025"><ele>175.33333333333334</ele><time>2026-04-26T16:36:00.877Z</time></trkpt><trkpt lat="40.6984571" lon="14.8227198"><ele>175.66666666666666</ele><time>2026-04-26T16:36:01.878Z</time></trkpt><trkpt lat="40.698501" lon="14.8224373"><ele>176.0</ele><time>2026-04-26T16:36:02.878Z</time></trkpt><trkpt lat="40.6985445" lon="14.8221489"><ele>176.33333333333331</ele><time>2026-04-26T16:36:03.878Z</time></trkpt><trkpt lat="40.6985821" lon="14.8218614"><ele>176.66666666666666</ele><time>2026-04-26T16:36:04.877Z</time></trkpt><trkpt lat="40.6986157" lon="14.8215766"><ele>177.0</ele><time>2026-04-26T16:36:05.878Z</time></trkpt><trkpt lat="40.6986488" lon="14.821293"><ele>177.33333333333334</ele><time>2026-04-26T16:36:06.878Z</time></trkpt><trkpt lat="40.6986776" lon="14.8210084"><ele>177.66666666666669</ele><time>2026-04-26T16:36:07.878Z</time></trkpt><trkpt lat="40.6987107" lon="14.8207221"><ele>178.0</ele><time>2026-04-26T16:36:08.877Z</time></trkpt><trkpt lat="40.698742" lon="14.8204378"><ele>178.66666666666669</ele><time>2026-04-26T16:36:09.878Z</time></trkpt><trkpt lat="40.6987767" lon="14.8201541"><ele>179.33333333333334</ele><time>2026-04-26T16:36:10.878Z</time></trkpt><trkpt lat="40.698814" lon="14.8198646"><ele>180.0</ele><time>2026-04-26T16:36:11.877Z</time></trkpt><trkpt lat="40.6988429" lon="14.8195761"><ele>181.0</ele><time>2026-04-26T16:36:12.877Z</time></trkpt><trkpt lat="40.698876" lon="14.8192832"><ele>182.0</ele><time>2026-04-26T16:36:13.878Z</time></trkpt><trkpt lat="40.6989032" lon="14.8189912"><ele>183.0</ele><time>2026-04-26T16:36:14.878Z</time></trkpt><trkpt lat="40.6989424" lon="14.818691"><ele>184.5</ele><time>2026-04-26T16:36:15.877Z</time></trkpt><trkpt lat="40.6989864" lon="14.8183831"><ele>186.0</ele><time>2026-04-26T16:36:16.878Z</time></trkpt><trkpt lat="40.6990329" lon="14.8180753"><ele>186.0</ele><time>2026-04-26T16:36:17.878Z</time></trkpt><trkpt lat="40.6990851" lon="14.8177666"><ele>186.0</ele><time>2026-04-26T16:36:18.877Z</time></trkpt><trkpt lat="40.6995233" lon="14.8111317"><ele>182.66666666666666</ele><time>2026-04-26T16:36:41.88Z</time></trkpt><trkpt lat="40.699525" lon="14.8108438"><ele>179.33333333333331</ele><time>2026-04-26T16:36:42.88Z</time></trkpt><trkpt lat="40.6995223" lon="14.8105628"><ele>176.0</ele><time>2026-04-26T16:36:43.88Z</time></trkpt><trkpt lat="40.6995167" lon="14.8102878"><ele>176.66666666666666</ele><time>2026-04-26T16:36:44.88Z</time></trkpt><trkpt lat="40.6995042" lon="14.8100212"><ele>177.33333333333334</ele><time>2026-04-26T16:36:45.88Z</time></trkpt><trkpt lat="40.6994901" lon="14.809766"><ele>178.0</ele><time>2026-04-26T16:36:46.88Z</time></trkpt><trkpt lat="40.6994723" lon="14.8095223"><ele>177.33333333333334</ele><time>2026-04-26T16:36:47.88Z</time></trkpt><trkpt lat="40.6994534" lon="14.8092909"><ele>176.66666666666666</ele><time>2026-04-26T16:36:48.881Z</time></trkpt><trkpt lat="40.6994337" lon="14.8090851"><ele>176.0</ele><time>2026-04-26T16:36:49.881Z</time></trkpt><trkpt lat="40.6994192" lon="14.808904"><ele>174.66666666666666</ele><time>2026-04-26T16:36:50.881Z</time></trkpt><trkpt lat="40.6994043" lon="14.8087549"><ele>173.33333333333331</ele><time>2026-04-26T16:36:51.88Z</time></trkpt><trkpt lat="40.6993914" lon="14.808632"><ele>172.0</ele><time>2026-04-26T16:36:52.881Z</time></trkpt><trkpt lat="40.699386" lon="14.8085281"><ele>170.66666666666666</ele><time>2026-04-26T16:36:53.88Z</time></trkpt><trkpt lat="40.6993788" lon="14.8084287"><ele>169.33333333333334</ele><time>2026-04-26T16:36:54.881Z</time></trkpt><trkpt lat="40.6993704" lon="14.8083288"><ele>168.0</ele><time>2026-04-26T16:36:55.881Z</time></trkpt><trkpt lat="40.6993573" lon="14.8082174"><ele>166.4</ele><time>2026-04-26T16:36:56.881Z</time></trkpt><trkpt lat="40.6993402" lon="14.8080951"><ele>164.8</ele><time>2026-04-26T16:36:57.88Z</time></trkpt><trkpt lat="40.699322" lon="14.8079636"><ele>163.2</ele><time>2026-04-26T16:36:58.88Z</time></trkpt><trkpt lat="40.6993038" lon="14.8078191"><ele>161.6</ele><time>2026-04-26T16:36:59.881Z</time></trkpt><trkpt lat="40.6992801" lon="14.8076727"><ele>160.0</ele><time>2026-04-26T16:37:00.881Z</time></trkpt><trkpt lat="40.6992548" lon="14.8075203"><ele>158.25</ele><time>2026-04-26T16:37:01.88Z</time></trkpt><trkpt lat="40.6992308" lon="14.8073716"><ele>156.5</ele><time>2026-04-26T16:37:02.881Z</time></trkpt><trkpt lat="40.6992032" lon="14.8072246"><ele>154.75</ele><time>2026-04-26T16:37:03.88Z</time></trkpt><trkpt lat="40.6991788" lon="14.8070785"><ele>153.0</ele><time>2026-04-26T16:37:04.881Z</time></trkpt><trkpt lat="40.6991518" lon="14.8069342"><ele>153.4</ele><time>2026-04-26T16:37:05.881Z</time></trkpt><trkpt lat="40.69913" lon="14.8068004"><ele>153.8</ele><time>2026-04-26T16:37:06.88Z</time></trkpt><trkpt lat="40.6991058" lon="14.8066723"><ele>154.2</ele><time>2026-04-26T16:37:07.881Z</time></trkpt><trkpt lat="40.6990786" lon="14.8065546"><ele>154.6</ele><time>2026-04-26T16:37:08.88Z</time></trkpt><trkpt lat="40.699056" lon="14.8064479"><ele>155.0</ele><time>2026-04-26T16:37:09.88Z</time></trkpt><trkpt lat="40.6990314" lon="14.8063455"><ele>155.0</ele><time>2026-04-26T16:37:10.881Z</time></trkpt><trkpt lat="40.6990076" lon="14.8062454"><ele>155.0</ele><time>2026-04-26T16:37:11.881Z</time></trkpt><trkpt lat="40.6989914" lon="14.8061441"><ele>155.0</ele><time>2026-04-26T16:37:12.881Z</time></trkpt><trkpt lat="40.6989696" lon="14.8060384"><ele>155.0</ele><time>2026-04-26T16:37:13.881Z</time></trkpt><trkpt lat="40.698949" lon="14.8059252"><ele>155.0</ele><time>2026-04-26T16:37:14.881Z</time></trkpt><trkpt lat="40.6989264" lon="14.8057955"><ele>155.0</ele><time>2026-04-26T16:37:15.881Z</time></trkpt><trkpt lat="40.6988933" lon="14.8056516"><ele>155.5</ele><time>2026-04-26T16:37:16.881Z</time></trkpt><trkpt lat="40.6988575" lon="14.805502"><ele>156.0</ele><time>2026-04-26T16:37:17.88Z</time></trkpt><trkpt lat="40.69882" lon="14.8053413"><ele>156.5</ele><time>2026-04-26T16:37:18.88Z</time></trkpt><trkpt lat="40.6987744" lon="14.8051645"><ele>157.0</ele><time>2026-04-26T16:37:19.881Z</time></trkpt><trkpt lat="40.6987296" lon="14.804979"><ele>155.25</ele><time>2026-04-26T16:37:20.88Z</time></trkpt><trkpt lat="40.6986825" lon="14.8047994"><ele>153.5</ele><time>2026-04-26T16:37:21.88Z</time></trkpt><trkpt lat="40.6986379" lon="14.8046351"><ele>151.75</ele><time>2026-04-26T16:37:22.881Z</time></trkpt><trkpt lat="40.6985978" lon="14.8044856"><ele>150.0</ele><time>2026-04-26T16:37:23.88Z</time></trkpt><trkpt lat="40.6985604" lon="14.8043442"><ele>147.0</ele><time>2026-04-26T16:37:24.881Z</time></trkpt><trkpt lat="40.6985268" lon="14.8042034"><ele>144.0</ele><time>2026-04-26T16:37:25.881Z</time></trkpt><trkpt lat="40.6984948" lon="14.8040536"><ele>141.0</ele><time>2026-04-26T16:37:26.881Z</time></trkpt><trkpt lat="40.6984578" lon="14.8038933"><ele>138.0</ele><time>2026-04-26T16:37:27.88Z</time></trkpt><trkpt lat="40.6984218" lon="14.8037279"><ele>138.0</ele><time>2026-04-26T16:37:28.881Z</time></trkpt><trkpt lat="40.6983867" lon="14.8035633"><ele>138.0</ele><time>2026-04-26T16:37:29.881Z</time></trkpt><trkpt lat="40.69835" lon="14.8033883"><ele>138.0</ele><time>2026-04-26T16:37:30.881Z</time></trkpt><trkpt lat="40.6983133" lon="14.8032083"><ele>138.0</ele><time>2026-04-26T16:37:31.881Z</time></trkpt><trkpt lat="40.69828" lon="14.8030317"><ele>138.75</ele><time>2026-04-26T16:37:32.88Z</time></trkpt><trkpt lat="40.6982417" lon="14.80285"><ele>139.5</ele><time>2026-04-26T16:37:33.881Z</time></trkpt><trkpt lat="40.6982" lon="14.8026667"><ele>140.25</ele><time>2026-04-26T16:37:34.88Z</time></trkpt><trkpt lat="40.69816" lon="14.8024883"><ele>141.0</ele><time>2026-04-26T16:37:35.881Z</time></trkpt><trkpt lat="40.6981167" lon="14.802305"><ele>141.5</ele><time>2026-04-26T16:37:36.881Z</time></trkpt><trkpt lat="40.69808" lon="14.8021183"><ele>142.0</ele><time>2026-04-26T16:37:37.881Z</time></trkpt><trkpt lat="40.698035" lon="14.8019383"><ele>142.5</ele><time>2026-04-26T16:37:38.881Z</time></trkpt><trkpt lat="40.6979883" lon="14.80175"><ele>143.0</ele><time>2026-04-26T16:37:39.88Z</time></trkpt><trkpt lat="40.697945" lon="14.801555"><ele>143.0</ele><time>2026-04-26T16:37:40.88Z</time></trkpt><trkpt lat="40.6979017" lon="14.8013617"><ele>143.0</ele><time>2026-04-26T16:37:41.881Z</time></trkpt><trkpt lat="40.6978533" lon="14.8011667"><ele>143.0</ele><time>2026-04-26T16:37:42.88Z</time></trkpt><trkpt lat="40.6978017" lon="14.800975"><ele>139.0</ele><time>2026-04-26T16:37:43.88Z</time></trkpt><trkpt lat="40.6977567" lon="14.8007817"><ele>135.0</ele><time>2026-04-26T16:37:44.88Z</time></trkpt><trkpt lat="40.6977133" lon="14.8005733"><ele>131.0</ele><time>2026-04-26T16:37:45.881Z</time></trkpt><trkpt lat="40.69767" lon="14.8003533"><ele>129.0</ele><time>2026-04-26T16:37:46.88Z</time></trkpt><trkpt lat="40.697605" lon="14.8001283"><ele>127.0</ele><time>2026-04-26T16:37:47.881Z</time></trkpt><trkpt lat="40.697535" lon="14.7999017"><ele>125.0</ele><time>2026-04-26T16:37:48.88Z</time></trkpt><trkpt lat="40.6974733" lon="14.7996767"><ele>125.0</ele><time>2026-04-26T16:37:49.88Z</time></trkpt><trkpt lat="40.697425" lon="14.7994533"><ele>125.0</ele><time>2026-04-26T16:37:50.881Z</time></trkpt><trkpt lat="40.6973783" lon="14.7992267"><ele>125.0</ele><time>2026-04-26T16:37:51.88Z</time></trkpt><trkpt lat="40.69734" lon="14.7989967"><ele>125.0</ele><time>2026-04-26T16:37:52.881Z</time></trkpt><trkpt lat="40.697305" lon="14.7987583"><ele>125.0</ele><time>2026-04-26T16:37:53.88Z</time></trkpt><trkpt lat="40.69728" lon="14.7985167"><ele>125.0</ele><time>2026-04-26T16:37:54.881Z</time></trkpt><trkpt lat="40.697255" lon="14.7982717"><ele>123.33333333333333</ele><time>2026-04-26T16:37:55.88Z</time></trkpt><trkpt lat="40.6972317" lon="14.7980283"><ele>121.66666666666666</ele><time>2026-04-26T16:37:56.88Z</time></trkpt><trkpt lat="40.697205" lon="14.797785"><ele>120.0</ele><time>2026-04-26T16:37:57.88Z</time></trkpt><trkpt lat="40.6971833" lon="14.7975417"><ele>118.66666666666666</ele><time>2026-04-26T16:37:58.881Z</time></trkpt><trkpt lat="40.6971633" lon="14.7973033"><ele>117.33333333333333</ele><time>2026-04-26T16:37:59.88Z</time></trkpt><trkpt lat="40.6971483" lon="14.7970817"><ele>116.0</ele><time>2026-04-26T16:38:00.88Z</time></trkpt><trkpt lat="40.69714" lon="14.7968867"><ele>115.0</ele><time>2026-04-26T16:38:01.88Z</time></trkpt><trkpt lat="40.69713" lon="14.7967"><ele>114.0</ele><time>2026-04-26T16:38:02.88Z</time></trkpt><trkpt lat="40.6971217" lon="14.7965167"><ele>113.0</ele><time>2026-04-26T16:38:03.88Z</time></trkpt><trkpt lat="40.6971167" lon="14.7963417"><ele>112.0</ele><time>2026-04-26T16:38:04.88Z</time></trkpt><trkpt lat="40.6971167" lon="14.7961633"><ele>111.5</ele><time>2026-04-26T16:38:05.88Z</time></trkpt><trkpt lat="40.6971183" lon="14.795995"><ele>111.0</ele><time>2026-04-26T16:38:06.881Z</time></trkpt><trkpt lat="40.6971233" lon="14.7958283"><ele>110.5</ele><time>2026-04-26T16:38:07.88Z</time></trkpt><trkpt lat="40.6971283" lon="14.7956583"><ele>110.0</ele><time>2026-04-26T16:38:08.881Z</time></trkpt><trkpt lat="40.6971283" lon="14.7954817"><ele>110.0</ele><time>2026-04-26T16:38:09.881Z</time></trkpt><trkpt lat="40.697125" lon="14.7953"><ele>110.0</ele><time>2026-04-26T16:38:10.881Z</time></trkpt><trkpt lat="40.6971133" lon="14.7951083"><ele>110.0</ele><time>2026-04-26T16:38:11.881Z</time></trkpt><trkpt lat="40.697105" lon="14.794905"><ele>110.0</ele><time>2026-04-26T16:38:12.88Z</time></trkpt><trkpt lat="40.6971183" lon="14.7946883"><ele>111.0</ele><time>2026-04-26T16:38:13.881Z</time></trkpt><trkpt lat="40.6971417" lon="14.7944617"><ele>112.0</ele><time>2026-04-26T16:38:14.88Z</time></trkpt><trkpt lat="40.697175" lon="14.79423"><ele>113.0</ele><time>2026-04-26T16:38:15.88Z</time></trkpt><trkpt lat="40.6972067" lon="14.7940033"><ele>113.66666666666666</ele><time>2026-04-26T16:38:16.881Z</time></trkpt><trkpt lat="40.6972317" lon="14.7937833"><ele>114.33333333333334</ele><time>2026-04-26T16:38:17.881Z</time></trkpt><trkpt lat="40.697255" lon="14.7935567"><ele>115.0</ele><time>2026-04-26T16:38:18.881Z</time></trkpt><trkpt lat="40.697275" lon="14.7933317"><ele>115.0</ele><time>2026-04-26T16:38:19.88Z</time></trkpt><trkpt lat="40.6972867" lon="14.7931133"><ele>115.0</ele><time>2026-04-26T16:38:20.88Z</time></trkpt><trkpt lat="40.6973083" lon="14.7928833"><ele>115.0</ele><time>2026-04-26T16:38:21.88Z</time></trkpt><trkpt lat="40.6973317" lon="14.792655"><ele>113.33333333333334</ele><time>2026-04-26T16:38:22.88Z</time></trkpt><trkpt lat="40.697355" lon="14.79243"><ele>111.66666666666666</ele><time>2026-04-26T16:38:23.88Z</time></trkpt><trkpt lat="40.6973733" lon="14.7921983"><ele>110.0</ele><time>2026-04-26T16:38:24.88Z</time></trkpt><trkpt lat="40.69739" lon="14.7919733"><ele>108.33333333333333</ele><time>2026-04-26T16:38:25.881Z</time></trkpt><trkpt lat="40.69741" lon="14.7917533"><ele>106.66666666666666</ele><time>2026-04-26T16:38:26.881Z</time></trkpt><trkpt lat="40.6974267" lon="14.7915267"><ele>105.0</ele><time>2026-04-26T16:38:27.88Z</time></trkpt><trkpt lat="40.6974433" lon="14.7913033"><ele>105.0</ele><time>2026-04-26T16:38:28.88Z</time></trkpt><trkpt lat="40.6974583" lon="14.7910817"><ele>105.0</ele><time>2026-04-26T16:38:29.881Z</time></trkpt><trkpt lat="40.6974717" lon="14.790855"><ele>105.0</ele><time>2026-04-26T16:38:30.881Z</time></trkpt><trkpt lat="40.6974817" lon="14.7906317"><ele>103.66666666666666</ele><time>2026-04-26T16:38:31.881Z</time></trkpt><trkpt lat="40.69749" lon="14.7904017"><ele>102.33333333333333</ele><time>2026-04-26T16:38:32.88Z</time></trkpt><trkpt lat="40.6974917" lon="14.790175"><ele>101.0</ele><time>2026-04-26T16:38:33.88Z</time></trkpt><trkpt lat="40.6974983" lon="14.7899483"><ele>99.66666666666666</ele><time>2026-04-26T16:38:34.881Z</time></trkpt><trkpt lat="40.6974967" lon="14.78972"><ele>98.33333333333334</ele><time>2026-04-26T16:38:35.881Z</time></trkpt><trkpt lat="40.697495" lon="14.78948"><ele>97.0</ele><time>2026-04-26T16:38:36.88Z</time></trkpt><trkpt lat="40.697485" lon="14.789255"><ele>96.66666666666667</ele><time>2026-04-26T16:38:37.88Z</time></trkpt><trkpt lat="40.6974767" lon="14.789045"><ele>96.33333333333334</ele><time>2026-04-26T16:38:38.88Z</time></trkpt><trkpt lat="40.6974583" lon="14.7888383"><ele>96.0</ele><time>2026-04-26T16:38:39.881Z</time></trkpt><trkpt lat="40.6974367" lon="14.7886417"><ele>94.5</ele><time>2026-04-26T16:38:40.88Z</time></trkpt><trkpt lat="40.6974117" lon="14.78845"><ele>93.0</ele><time>2026-04-26T16:38:41.88Z</time></trkpt><trkpt lat="40.6973883" lon="14.7882683"><ele>91.5</ele><time>2026-04-26T16:38:42.88Z</time></trkpt><trkpt lat="40.6973633" lon="14.78811"><ele>90.0</ele><time>2026-04-26T16:38:43.88Z</time></trkpt><trkpt lat="40.6973433" lon="14.787965"><ele>90.0</ele><time>2026-04-26T16:38:44.881Z</time></trkpt><trkpt lat="40.6973267" lon="14.7878417"><ele>90.0</ele><time>2026-04-26T16:38:45.881Z</time></trkpt><trkpt lat="40.6973183" lon="14.7877333"><ele>90.0</ele><time>2026-04-26T16:38:46.881Z</time></trkpt><trkpt lat="40.6973083" lon="14.7876367"><ele>90.0</ele><time>2026-04-26T16:38:47.88Z</time></trkpt><trkpt lat="40.6973" lon="14.78755"><ele>90.0</ele><time>2026-04-26T16:38:48.881Z</time></trkpt><trkpt lat="40.697275" lon="14.787395"><ele>90.0</ele><time>2026-04-26T16:38:50.88Z</time></trkpt><trkpt lat="40.6972567" lon="14.7873033"><ele>89.0</ele><time>2026-04-26T16:38:51.88Z</time></trkpt><trkpt lat="40.6972367" lon="14.7871917"><ele>88.0</ele><time>2026-04-26T16:38:52.881Z</time></trkpt><trkpt lat="40.6972117" lon="14.7870567"><ele>87.0</ele><time>2026-04-26T16:38:53.88Z</time></trkpt><trkpt lat="40.6971833" lon="14.7868983"><ele>86.0</ele><time>2026-04-26T16:38:54.881Z</time></trkpt><trkpt lat="40.697155" lon="14.7867383"><ele>85.0</ele><time>2026-04-26T16:38:55.88Z</time></trkpt><trkpt lat="40.6971267" lon="14.7865767"><ele>85.0</ele><time>2026-04-26T16:38:56.88Z</time></trkpt><trkpt lat="40.6971" lon="14.78642"><ele>85.0</ele><time>2026-04-26T16:38:57.881Z</time></trkpt><trkpt lat="40.69707" lon="14.7862667"><ele>85.0</ele><time>2026-04-26T16:38:58.88Z</time></trkpt><trkpt lat="40.6970433" lon="14.7861083"><ele>85.0</ele><time>2026-04-26T16:38:59.88Z</time></trkpt><trkpt lat="40.6970117" lon="14.7859483"><ele>84.5</ele><time>2026-04-26T16:39:00.88Z</time></trkpt><trkpt lat="40.6969783" lon="14.7857933"><ele>84.0</ele><time>2026-04-26T16:39:01.881Z</time></trkpt><trkpt lat="40.6969467" lon="14.7856267"><ele>83.5</ele><time>2026-04-26T16:39:02.881Z</time></trkpt><trkpt lat="40.6969083" lon="14.7854667"><ele>83.0</ele><time>2026-04-26T16:39:03.88Z</time></trkpt><trkpt lat="40.69688" lon="14.78531"><ele>80.60000000000001</ele><time>2026-04-26T16:39:04.881Z</time></trkpt><trkpt lat="40.6968533" lon="14.78516"><ele>78.2</ele><time>2026-04-26T16:39:05.881Z</time></trkpt><trkpt lat="40.6968233" lon="14.7850133"><ele>75.8</ele><time>2026-04-26T16:39:06.88Z</time></trkpt><trkpt lat="40.6967967" lon="14.7848683"><ele>73.4</ele><time>2026-04-26T16:39:07.881Z</time></trkpt><trkpt lat="40.6967717" lon="14.7847383"><ele>71.0</ele><time>2026-04-26T16:39:08.88Z</time></trkpt><trkpt lat="40.69674" lon="14.7845967"><ele>71.0</ele><time>2026-04-26T16:39:09.88Z</time></trkpt><trkpt lat="40.6967033" lon="14.7844517"><ele>71.0</ele><time>2026-04-26T16:39:10.881Z</time></trkpt><trkpt lat="40.696665" lon="14.7843067"><ele>71.0</ele><time>2026-04-26T16:39:11.881Z</time></trkpt><trkpt lat="40.6966283" lon="14.7841617"><ele>71.0</ele><time>2026-04-26T16:39:12.881Z</time></trkpt><trkpt lat="40.6966" lon="14.7840233"><ele>71.0</ele><time>2026-04-26T16:39:13.88Z</time></trkpt><trkpt lat="40.6965817" lon="14.783895"><ele>71.0</ele><time>2026-04-26T16:39:14.881Z</time></trkpt><trkpt lat="40.69656" lon="14.78377"><ele>71.0</ele><time>2026-04-26T16:39:15.881Z</time></trkpt><trkpt lat="40.6965383" lon="14.7836583"><ele>71.0</ele><time>2026-04-26T16:39:16.881Z</time></trkpt><trkpt lat="40.6965233" lon="14.783555"><ele>71.0</ele><time>2026-04-26T16:39:17.88Z</time></trkpt><trkpt lat="40.696505" lon="14.783455"><ele>71.0</ele><time>2026-04-26T16:39:18.881Z</time></trkpt><trkpt lat="40.6964883" lon="14.7833517"><ele>71.5</ele><time>2026-04-26T16:39:19.881Z</time></trkpt><trkpt lat="40.69647" lon="14.7832283"><ele>72.0</ele><time>2026-04-26T16:39:20.88Z</time></trkpt><trkpt lat="40.696455" lon="14.78309"><ele>72.5</ele><time>2026-04-26T16:39:21.88Z</time></trkpt><trkpt lat="40.6964383" lon="14.78293"><ele>73.0</ele><time>2026-04-26T16:39:22.881Z</time></trkpt><trkpt lat="40.6964233" lon="14.7827583"><ele>72.5</ele><time>2026-04-26T16:39:23.881Z</time></trkpt><trkpt lat="40.6964183" lon="14.782585"><ele>72.0</ele><time>2026-04-26T16:39:24.881Z</time></trkpt><trkpt lat="40.69643" lon="14.7824017"><ele>71.5</ele><time>2026-04-26T16:39:25.881Z</time></trkpt><trkpt lat="40.69645" lon="14.7822133"><ele>71.0</ele><time>2026-04-26T16:39:26.881Z</time></trkpt><trkpt lat="40.69648" lon="14.7820217"><ele>70.33333333333334</ele><time>2026-04-26T16:39:27.88Z</time></trkpt><trkpt lat="40.69652" lon="14.78183"><ele>69.66666666666667</ele><time>2026-04-26T16:39:28.88Z</time></trkpt><trkpt lat="40.696575" lon="14.7816383"><ele>69.0</ele><time>2026-04-26T16:39:29.881Z</time></trkpt><trkpt lat="40.696635" lon="14.7814583"><ele>69.0</ele><time>2026-04-26T16:39:30.88Z</time></trkpt><trkpt lat="40.6967" lon="14.78129"><ele>69.0</ele><time>2026-04-26T16:39:31.88Z</time></trkpt><trkpt lat="40.6967667" lon="14.781155"><ele>69.0</ele><time>2026-04-26T16:39:32.88Z</time></trkpt><trkpt lat="40.6968317" lon="14.7810383"><ele>69.0</ele><time>2026-04-26T16:39:33.88Z</time></trkpt><trkpt lat="40.696905" lon="14.780935"><ele>72.0</ele><time>2026-04-26T16:39:34.88Z</time></trkpt><trkpt lat="40.69698" lon="14.78084"><ele>75.0</ele><time>2026-04-26T16:39:35.88Z</time></trkpt><trkpt lat="40.6970617" lon="14.78074"><ele>78.0</ele><time>2026-04-26T16:39:36.88Z</time></trkpt><trkpt lat="40.6971333" lon="14.7806483"><ele>81.0</ele><time>2026-04-26T16:39:37.88Z</time></trkpt><trkpt lat="40.6972017" lon="14.7805583"><ele>84.0</ele><time>2026-04-26T16:39:38.88Z</time></trkpt><trkpt lat="40.697265" lon="14.7804733"><ele>84.0</ele><time>2026-04-26T16:39:39.88Z</time></trkpt><trkpt lat="40.6973517" lon="14.7804117"><ele>84.0</ele><time>2026-04-26T16:39:40.88Z</time></trkpt><trkpt lat="40.697425" lon="14.7803333"><ele>84.0</ele><time>2026-04-26T16:39:41.88Z</time></trkpt><trkpt lat="40.6975067" lon="14.78026"><ele>84.0</ele><time>2026-04-26T16:39:42.881Z</time></trkpt><trkpt lat="40.6975867" lon="14.7801867"><ele>84.0</ele><time>2026-04-26T16:39:43.881Z</time></trkpt><trkpt lat="40.6976667" lon="14.7801117"><ele>83.80000000000001</ele><time>2026-04-26T16:39:44.881Z</time></trkpt><trkpt lat="40.6977517" lon="14.780035"><ele>83.60000000000001</ele><time>2026-04-26T16:39:45.88Z</time></trkpt><trkpt lat="40.6978417" lon="14.7799567"><ele>83.4</ele><time>2026-04-26T16:39:46.881Z</time></trkpt><trkpt lat="40.6979383" lon="14.7798767"><ele>83.2</ele><time>2026-04-26T16:39:47.88Z</time></trkpt><trkpt lat="40.6980383" lon="14.779795"><ele>83.0</ele><time>2026-04-26T16:39:48.88Z</time></trkpt><trkpt lat="40.6981417" lon="14.7796967"><ele>83.0</ele><time>2026-04-26T16:39:49.88Z</time></trkpt><trkpt lat="40.6982483" lon="14.7796067"><ele>83.0</ele><time>2026-04-26T16:39:50.881Z</time></trkpt><trkpt lat="40.6983617" lon="14.7795383"><ele>83.0</ele><time>2026-04-26T16:39:51.881Z</time></trkpt><trkpt lat="40.69847" lon="14.77947"><ele>83.0</ele><time>2026-04-26T16:39:52.88Z</time></trkpt><trkpt lat="40.698585" lon="14.7794117"><ele>81.75</ele><time>2026-04-26T16:39:53.881Z</time></trkpt><trkpt lat="40.6986983" lon="14.7793633"><ele>80.5</ele><time>2026-04-26T16:39:54.881Z</time></trkpt><trkpt lat="40.69881" lon="14.77932"><ele>79.25</ele><time>2026-04-26T16:39:55.881Z</time></trkpt><trkpt lat="40.6989183" lon="14.7792817"><ele>78.0</ele><time>2026-04-26T16:39:56.881Z</time></trkpt><trkpt lat="40.6990333" lon="14.7792517"><ele>75.75</ele><time>2026-04-26T16:39:57.881Z</time></trkpt><trkpt lat="40.6991567" lon="14.7792167"><ele>73.5</ele><time>2026-04-26T16:39:58.88Z</time></trkpt><trkpt lat="40.69929" lon="14.7791667"><ele>71.25</ele><time>2026-04-26T16:39:59.88Z</time></trkpt><trkpt lat="40.6994283" lon="14.7791417"><ele>69.0</ele><time>2026-04-26T16:40:00.881Z</time></trkpt><trkpt lat="40.6995683" lon="14.7791117"><ele>68.75</ele><time>2026-04-26T16:40:01.88Z</time></trkpt><trkpt lat="40.6997117" lon="14.7790867"><ele>68.5</ele><time>2026-04-26T16:40:02.88Z</time></trkpt><trkpt lat="40.6998583" lon="14.7790533"><ele>68.25</ele><time>2026-04-26T16:40:03.88Z</time></trkpt><trkpt lat="40.700005" lon="14.7790317"><ele>68.0</ele><time>2026-04-26T16:40:04.881Z</time></trkpt><trkpt lat="40.7001533" lon="14.7789983"><ele>69.66666666666667</ele><time>2026-04-26T16:40:05.881Z</time></trkpt><trkpt lat="40.7003067" lon="14.7789767"><ele>71.33333333333333</ele><time>2026-04-26T16:40:06.88Z</time></trkpt><trkpt lat="40.70047" lon="14.778955"><ele>73.0</ele><time>2026-04-26T16:40:07.881Z</time></trkpt><trkpt lat="40.70063" lon="14.7789383"><ele>73.0</ele><time>2026-04-26T16:40:08.88Z</time></trkpt><trkpt lat="40.7007933" lon="14.7789167"><ele>73.0</ele><time>2026-04-26T16:40:09.88Z</time></trkpt><trkpt lat="40.7009533" lon="14.7788933"><ele>73.0</ele><time>2026-04-26T16:40:10.881Z</time></trkpt><trkpt lat="40.7011133" lon="14.77887"><ele>75.0</ele><time>2026-04-26T16:40:11.88Z</time></trkpt><trkpt lat="40.70128" lon="14.778845"><ele>77.0</ele><time>2026-04-26T16:40:12.88Z</time></trkpt><trkpt lat="40.7014433" lon="14.7788217"><ele>79.0</ele><time>2026-04-26T16:40:13.881Z</time></trkpt><trkpt lat="40.701605" lon="14.7788017"><ele>79.0</ele><time>2026-04-26T16:40:14.88Z</time></trkpt><trkpt lat="40.70177" lon="14.7787783"><ele>79.0</ele><time>2026-04-26T16:40:15.88Z</time></trkpt><trkpt lat="40.7019383" lon="14.7787567"><ele>79.0</ele><time>2026-04-26T16:40:16.881Z</time></trkpt><trkpt lat="40.702105" lon="14.7787317"><ele>80.66666666666666</ele><time>2026-04-26T16:40:17.881Z</time></trkpt><trkpt lat="40.7022733" lon="14.7787167"><ele>82.33333333333333</ele><time>2026-04-26T16:40:18.88Z</time></trkpt><trkpt lat="40.70244" lon="14.7786967"><ele>84.0</ele><time>2026-04-26T16:40:19.881Z</time></trkpt><trkpt lat="40.7026083" lon="14.7786833"><ele>85.33333333333333</ele><time>2026-04-26T16:40:20.88Z</time></trkpt><trkpt lat="40.7027733" lon="14.7786667"><ele>86.66666666666666</ele><time>2026-04-26T16:40:21.881Z</time></trkpt><trkpt lat="40.7029383" lon="14.778645"><ele>88.0</ele><time>2026-04-26T16:40:22.88Z</time></trkpt><trkpt lat="40.703105" lon="14.7786217"><ele>88.0</ele><time>2026-04-26T16:40:23.881Z</time></trkpt><trkpt lat="40.7032667" lon="14.7786017"><ele>88.0</ele><time>2026-04-26T16:40:24.88Z</time></trkpt><trkpt lat="40.7034283" lon="14.7785833"><ele>88.0</ele><time>2026-04-26T16:40:25.881Z</time></trkpt><trkpt lat="40.70359" lon="14.77856"><ele>88.0</ele><time>2026-04-26T16:40:26.88Z</time></trkpt><trkpt lat="40.7037533" lon="14.7785417"><ele>88.0</ele><time>2026-04-26T16:40:27.88Z</time></trkpt><trkpt lat="40.7039167" lon="14.7785167"><ele>88.0</ele><time>2026-04-26T16:40:28.881Z</time></trkpt><trkpt lat="40.704075" lon="14.7784917"><ele>87.0</ele><time>2026-04-26T16:40:29.881Z</time></trkpt><trkpt lat="40.7042333" lon="14.778465"><ele>86.0</ele><time>2026-04-26T16:40:30.88Z</time></trkpt><trkpt lat="40.7043867" lon="14.77845"><ele>85.0</ele><time>2026-04-26T16:40:31.881Z</time></trkpt><trkpt lat="40.704545" lon="14.7784467"><ele>85.0</ele><time>2026-04-26T16:40:32.881Z</time></trkpt><trkpt lat="40.7047083" lon="14.77846"><ele>85.0</ele><time>2026-04-26T16:40:33.881Z</time></trkpt><trkpt lat="40.704875" lon="14.7784717"><ele>85.0</ele><time>2026-04-26T16:40:34.88Z</time></trkpt><trkpt lat="40.7050433" lon="14.7784867"><ele>86.33333333333333</ele><time>2026-04-26T16:40:35.881Z</time></trkpt><trkpt lat="40.7052083" lon="14.7785233"><ele>87.66666666666667</ele><time>2026-04-26T16:40:36.881Z</time></trkpt><trkpt lat="40.7053817" lon="14.7785683"><ele>89.0</ele><time>2026-04-26T16:40:37.881Z</time></trkpt><trkpt lat="40.7055583" lon="14.77863"><ele>89.33333333333334</ele><time>2026-04-26T16:40:38.88Z</time></trkpt><trkpt lat="40.705735" lon="14.7786933"><ele>89.66666666666667</ele><time>2026-04-26T16:40:39.881Z</time></trkpt><trkpt lat="40.705915" lon="14.778755"><ele>90.0</ele><time>2026-04-26T16:40:40.881Z</time></trkpt><trkpt lat="40.706095" lon="14.77883"><ele>90.66666666666667</ele><time>2026-04-26T16:40:41.88Z</time></trkpt><trkpt lat="40.7062717" lon="14.7789167"><ele>91.33333333333334</ele><time>2026-04-26T16:40:42.88Z</time></trkpt><trkpt lat="40.70645" lon="14.779005"><ele>92.0</ele><time>2026-04-26T16:40:43.881Z</time></trkpt><trkpt lat="40.7066267" lon="14.7791017"><ele>92.0</ele><time>2026-04-26T16:40:44.881Z</time></trkpt><trkpt lat="40.706805" lon="14.779205"><ele>92.0</ele><time>2026-04-26T16:40:45.881Z</time></trkpt><trkpt lat="40.706985" lon="14.7793083"><ele>92.0</ele><time>2026-04-26T16:40:46.88Z</time></trkpt><trkpt lat="40.707175" lon="14.7794067"><ele>96.0</ele><time>2026-04-26T16:40:47.88Z</time></trkpt><trkpt lat="40.7073467" lon="14.7795133"><ele>100.0</ele><time>2026-04-26T16:40:48.88Z</time></trkpt><trkpt lat="40.7075267" lon="14.7796117"><ele>104.0</ele><time>2026-04-26T16:40:49.881Z</time></trkpt><trkpt lat="40.7076983" lon="14.7797117"><ele>104.0</ele><time>2026-04-26T16:40:50.881Z</time></trkpt><trkpt lat="40.7078767" lon="14.7798083"><ele>104.0</ele><time>2026-04-26T16:40:51.881Z</time></trkpt><trkpt lat="40.7080567" lon="14.7799133"><ele>104.0</ele><time>2026-04-26T16:40:52.88Z</time></trkpt><trkpt lat="40.7082283" lon="14.780015"><ele>104.0</ele><time>2026-04-26T16:40:53.88Z</time></trkpt><trkpt lat="40.70841" lon="14.780105"><ele>104.0</ele><time>2026-04-26T16:40:54.88Z</time></trkpt><trkpt lat="40.7085967" lon="14.7801817"><ele>104.0</ele><time>2026-04-26T16:40:55.881Z</time></trkpt><trkpt lat="40.7087867" lon="14.7802483"><ele>109.66666666666666</ele><time>2026-04-26T16:40:56.881Z</time></trkpt><trkpt lat="40.7089867" lon="14.7802967"><ele>115.33333333333334</ele><time>2026-04-26T16:40:57.881Z</time></trkpt><trkpt lat="40.7091867" lon="14.7803183"><ele>121.0</ele><time>2026-04-26T16:40:58.88Z</time></trkpt><trkpt lat="40.709385" lon="14.7803267"><ele>121.66666666666667</ele><time>2026-04-26T16:40:59.881Z</time></trkpt><trkpt lat="40.7095933" lon="14.7803233"><ele>122.33333333333334</ele><time>2026-04-26T16:41:00.88Z</time></trkpt><trkpt lat="40.7098" lon="14.7803117"><ele>123.0</ele><time>2026-04-26T16:41:01.88Z</time></trkpt><trkpt lat="40.7100083" lon="14.7802983"><ele>123.0</ele><time>2026-04-26T16:41:02.88Z</time></trkpt><trkpt lat="40.7102133" lon="14.7802783"><ele>123.0</ele><time>2026-04-26T16:41:03.881Z</time></trkpt><trkpt lat="40.710425" lon="14.7802283"><ele>123.0</ele><time>2026-04-26T16:41:04.88Z</time></trkpt><trkpt lat="40.7106333" lon="14.7801783"><ele>120.0</ele><time>2026-04-26T16:41:05.881Z</time></trkpt><trkpt lat="40.7108383" lon="14.7801083"><ele>117.0</ele><time>2026-04-26T16:41:06.88Z</time></trkpt><trkpt lat="40.7110417" lon="14.78003"><ele>114.0</ele><time>2026-04-26T16:41:07.881Z</time></trkpt><trkpt lat="40.7112417" lon="14.779935"><ele>114.0</ele><time>2026-04-26T16:41:08.88Z</time></trkpt><trkpt lat="40.711445" lon="14.77984"><ele>114.0</ele><time>2026-04-26T16:41:09.881Z</time></trkpt><trkpt lat="40.7116467" lon="14.7797533"><ele>114.0</ele><time>2026-04-26T16:41:10.881Z</time></trkpt><trkpt lat="40.71185" lon="14.7796667"><ele>116.66666666666666</ele><time>2026-04-26T16:41:11.881Z</time></trkpt><trkpt lat="40.7120517" lon="14.7795833"><ele>119.33333333333333</ele><time>2026-04-26T16:41:12.881Z</time></trkpt><trkpt lat="40.7122533" lon="14.7795033"><ele>122.0</ele><time>2026-04-26T16:41:13.881Z</time></trkpt><trkpt lat="40.7124533" lon="14.7794383"><ele>122.0</ele><time>2026-04-26T16:41:14.88Z</time></trkpt><trkpt lat="40.71265" lon="14.7793767"><ele>122.0</ele><time>2026-04-26T16:41:15.88Z</time></trkpt><trkpt lat="40.7128533" lon="14.7793133"><ele>122.0</ele><time>2026-04-26T16:41:16.881Z</time></trkpt><trkpt lat="40.7130583" lon="14.7792567"><ele>121.0</ele><time>2026-04-26T16:41:17.88Z</time></trkpt><trkpt lat="40.7132633" lon="14.77921"><ele>120.0</ele><time>2026-04-26T16:41:18.881Z</time></trkpt><trkpt lat="40.7134733" lon="14.77916"><ele>119.0</ele><time>2026-04-26T16:41:19.88Z</time></trkpt><trkpt lat="40.7136817" lon="14.7791133"><ele>118.33333333333333</ele><time>2026-04-26T16:41:20.881Z</time></trkpt><trkpt lat="40.71389" lon="14.77907"><ele>117.66666666666666</ele><time>2026-04-26T16:41:21.88Z</time></trkpt><trkpt lat="40.714095" lon="14.7790333"><ele>117.0</ele><time>2026-04-26T16:41:22.881Z</time></trkpt><trkpt lat="40.714295" lon="14.7789983"><ele>121.0</ele><time>2026-04-26T16:41:23.88Z</time></trkpt><trkpt lat="40.7144933" lon="14.7789583"><ele>125.0</ele><time>2026-04-26T16:41:24.881Z</time></trkpt><trkpt lat="40.71469" lon="14.77892"><ele>129.0</ele><time>2026-04-26T16:41:25.881Z</time></trkpt><trkpt lat="40.7148833" lon="14.7788833"><ele>129.0</ele><time>2026-04-26T16:41:26.881Z</time></trkpt><trkpt lat="40.715075" lon="14.7788567"><ele>129.0</ele><time>2026-04-26T16:41:27.88Z</time></trkpt><trkpt lat="40.7152633" lon="14.7788183"><ele>129.0</ele><time>2026-04-26T16:41:28.881Z</time></trkpt><trkpt lat="40.71546" lon="14.7787967"><ele>132.66666666666666</ele><time>2026-04-26T16:41:29.881Z</time></trkpt><trkpt lat="40.715645" lon="14.778765"><ele>136.33333333333331</ele><time>2026-04-26T16:41:30.88Z</time></trkpt><trkpt lat="40.71583" lon="14.7787433"><ele>140.0</ele><time>2026-04-26T16:41:31.881Z</time></trkpt><trkpt lat="40.7160117" lon="14.7787183"><ele>145.66666666666666</ele><time>2026-04-26T16:41:32.88Z</time></trkpt><trkpt lat="40.7161817" lon="14.7786867"><ele>151.33333333333334</ele><time>2026-04-26T16:41:33.88Z</time></trkpt><trkpt lat="40.7163467" lon="14.77866"><ele>157.0</ele><time>2026-04-26T16:41:34.881Z</time></trkpt><trkpt lat="40.716505" lon="14.7786367"><ele>157.0</ele><time>2026-04-26T16:41:35.88Z</time></trkpt><trkpt lat="40.7166617" lon="14.7786117"><ele>157.0</ele><time>2026-04-26T16:41:36.881Z</time></trkpt><trkpt lat="40.716815" lon="14.77858"><ele>157.0</ele><time>2026-04-26T16:41:37.881Z</time></trkpt><trkpt lat="40.7169567" lon="14.77856"><ele>159.75</ele><time>2026-04-26T16:41:38.881Z</time></trkpt><trkpt lat="40.7170883" lon="14.778545"><ele>162.5</ele><time>2026-04-26T16:41:39.88Z</time></trkpt><trkpt lat="40.71721" lon="14.77853"><ele>165.25</ele><time>2026-04-26T16:41:40.88Z</time></trkpt><trkpt lat="40.7173283" lon="14.778515"><ele>168.0</ele><time>2026-04-26T16:41:41.881Z</time></trkpt><trkpt lat="40.71745" lon="14.778495"><ele>160.75</ele><time>2026-04-26T16:41:42.88Z</time></trkpt><trkpt lat="40.7175717" lon="14.7784783"><ele>153.5</ele><time>2026-04-26T16:41:43.881Z</time></trkpt><trkpt lat="40.7177" lon="14.7784617"><ele>146.25</ele><time>2026-04-26T16:41:44.88Z</time></trkpt><trkpt lat="40.7178283" lon="14.778445"><ele>139.0</ele><time>2026-04-26T16:41:45.881Z</time></trkpt><trkpt lat="40.717955" lon="14.7784367"><ele>139.0</ele><time>2026-04-26T16:41:46.88Z</time></trkpt><trkpt lat="40.718075" lon="14.778425"><ele>139.0</ele><time>2026-04-26T16:41:47.881Z</time></trkpt><trkpt lat="40.7181983" lon="14.7783967"><ele>139.0</ele><time>2026-04-26T16:41:48.88Z</time></trkpt><trkpt lat="40.7183217" lon="14.7783617"><ele>139.0</ele><time>2026-04-26T16:41:49.881Z</time></trkpt><trkpt lat="40.7184383" lon="14.7783333"><ele>139.0</ele><time>2026-04-26T16:41:50.881Z</time></trkpt><trkpt lat="40.7185533" lon="14.7783083"><ele>139.0</ele><time>2026-04-26T16:41:51.881Z</time></trkpt><trkpt lat="40.718665" lon="14.7782817"><ele>139.0</ele><time>2026-04-26T16:41:52.88Z</time></trkpt><trkpt lat="40.7187667" lon="14.7782517"><ele>139.0</ele><time>2026-04-26T16:41:53.881Z</time></trkpt><trkpt lat="40.718855" lon="14.778225"><ele>139.0</ele><time>2026-04-26T16:41:54.88Z</time></trkpt><trkpt lat="40.71894" lon="14.7782033"><ele>138.66666666666669</ele><time>2026-04-26T16:41:55.881Z</time></trkpt><trkpt lat="40.71902" lon="14.7781833"><ele>138.33333333333334</ele><time>2026-04-26T16:41:56.88Z</time></trkpt><trkpt lat="40.7191" lon="14.7781683"><ele>138.0</ele><time>2026-04-26T16:41:57.88Z</time></trkpt><trkpt lat="40.7191833" lon="14.7781483"><ele>137.66666666666666</ele><time>2026-04-26T16:41:58.881Z</time></trkpt><trkpt lat="40.7192667" lon="14.7781333"><ele>137.33333333333331</ele><time>2026-04-26T16:41:59.881Z</time></trkpt><trkpt lat="40.7193667" lon="14.7781217"><ele>137.0</ele><time>2026-04-26T16:42:00.88Z</time></trkpt><trkpt lat="40.7194683" lon="14.7781033"><ele>138.0</ele><time>2026-04-26T16:42:01.881Z</time></trkpt><trkpt lat="40.719575" lon="14.778085"><ele>139.0</ele><time>2026-04-26T16:42:02.88Z</time></trkpt><trkpt lat="40.71969" lon="14.7780617"><ele>140.0</ele><time>2026-04-26T16:42:03.88Z</time></trkpt><trkpt lat="40.7198183" lon="14.77803"><ele>141.0</ele><time>2026-04-26T16:42:04.881Z</time></trkpt><trkpt lat="40.7199717" lon="14.7780183"><ele>141.0</ele><time>2026-04-26T16:42:05.881Z</time></trkpt><trkpt lat="40.72012" lon="14.7779883"><ele>141.0</ele><time>2026-04-26T16:42:06.88Z</time></trkpt><trkpt lat="40.7202667" lon="14.7779583"><ele>141.0</ele><time>2026-04-26T16:42:07.881Z</time></trkpt><trkpt lat="40.7204183" lon="14.7779183"><ele>141.66666666666666</ele><time>2026-04-26T16:42:08.881Z</time></trkpt><trkpt lat="40.7205733" lon="14.7778783"><ele>142.33333333333331</ele><time>2026-04-26T16:42:09.881Z</time></trkpt><trkpt lat="40.7207367" lon="14.7778317"><ele>143.0</ele><time>2026-04-26T16:42:10.881Z</time></trkpt><trkpt lat="40.7209017" lon="14.7777767"><ele>143.0</ele><time>2026-04-26T16:42:11.88Z</time></trkpt><trkpt lat="40.7210633" lon="14.7777017"><ele>143.0</ele><time>2026-04-26T16:42:12.881Z</time></trkpt><trkpt lat="40.721225" lon="14.777625"><ele>143.0</ele><time>2026-04-26T16:42:13.88Z</time></trkpt><trkpt lat="40.7213783" lon="14.7775417"><ele>144.33333333333331</ele><time>2026-04-26T16:42:14.88Z</time></trkpt><trkpt lat="40.72153" lon="14.7774567"><ele>145.66666666666666</ele><time>2026-04-26T16:42:15.88Z</time></trkpt><trkpt lat="40.7216833" lon="14.7773567"><ele>147.0</ele><time>2026-04-26T16:42:16.881Z</time></trkpt><trkpt lat="40.721825" lon="14.77726"><ele>156.33333333333334</ele><time>2026-04-26T16:42:17.881Z</time></trkpt><trkpt lat="40.72196" lon="14.7771633"><ele>165.66666666666669</ele><time>2026-04-26T16:42:18.881Z</time></trkpt><trkpt lat="40.7221" lon="14.7770633"><ele>175.0</ele><time>2026-04-26T16:42:19.88Z</time></trkpt><trkpt lat="40.7222433" lon="14.7769583"><ele>175.0</ele><time>2026-04-26T16:42:20.88Z</time></trkpt><trkpt lat="40.7223917" lon="14.7768533"><ele>175.0</ele><time>2026-04-26T16:42:21.88Z</time></trkpt><trkpt lat="40.72254" lon="14.7767467"><ele>175.0</ele><time>2026-04-26T16:42:22.881Z</time></trkpt><trkpt lat="40.723125" lon="14.7762333"><ele>168.5</ele><time>2026-04-26T16:42:26.883Z</time></trkpt><trkpt lat="40.723525" lon="14.7762233"><ele>162.0</ele><time>2026-04-26T16:42:28.883Z</time></trkpt><trkpt lat="40.7236567" lon="14.77617"><ele>160.0</ele><time>2026-04-26T16:42:29.883Z</time></trkpt><trkpt lat="40.7237917" lon="14.7761167"><ele>158.0</ele><time>2026-04-26T16:42:30.884Z</time></trkpt><trkpt lat="40.723925" lon="14.7760583"><ele>156.0</ele><time>2026-04-26T16:42:31.883Z</time></trkpt><trkpt lat="40.7240517" lon="14.77601"><ele>154.0</ele><time>2026-04-26T16:42:32.883Z</time></trkpt><trkpt lat="40.7241917" lon="14.77597"><ele>152.75</ele><time>2026-04-26T16:42:33.884Z</time></trkpt><trkpt lat="40.7243283" lon="14.7759367"><ele>151.5</ele><time>2026-04-26T16:42:34.884Z</time></trkpt><trkpt lat="40.7244583" lon="14.7759033"><ele>150.25</ele><time>2026-04-26T16:42:35.884Z</time></trkpt><trkpt lat="40.7245933" lon="14.7758683"><ele>149.0</ele><time>2026-04-26T16:42:36.883Z</time></trkpt><trkpt lat="40.7247283" lon="14.775845"><ele>149.0</ele><time>2026-04-26T16:42:37.884Z</time></trkpt><trkpt lat="40.72486" lon="14.7758333"><ele>149.0</ele><time>2026-04-26T16:42:38.884Z</time></trkpt><trkpt lat="40.7249733" lon="14.7758217"><ele>149.0</ele><time>2026-04-26T16:42:39.884Z</time></trkpt><trkpt lat="40.7250883" lon="14.7758167"><ele>149.0</ele><time>2026-04-26T16:42:40.883Z</time></trkpt><trkpt lat="40.7251983" lon="14.7758067"><ele>150.5</ele><time>2026-04-26T16:42:41.883Z</time></trkpt><trkpt lat="40.7253067" lon="14.7757917"><ele>152.0</ele><time>2026-04-26T16:42:42.883Z</time></trkpt><trkpt lat="40.7254217" lon="14.775775"><ele>153.5</ele><time>2026-04-26T16:42:43.883Z</time></trkpt><trkpt lat="40.725535" lon="14.7757633"><ele>155.0</ele><time>2026-04-26T16:42:44.884Z</time></trkpt><trkpt lat="40.7256467" lon="14.775745"><ele>155.0</ele><time>2026-04-26T16:42:45.884Z</time></trkpt><trkpt lat="40.7257633" lon="14.7757333"><ele>155.0</ele><time>2026-04-26T16:42:46.883Z</time></trkpt><trkpt lat="40.7258883" lon="14.775725"><ele>155.0</ele><time>2026-04-26T16:42:47.884Z</time></trkpt><trkpt lat="40.7260233" lon="14.7757167"><ele>155.0</ele><time>2026-04-26T16:42:48.884Z</time></trkpt><trkpt lat="40.726165" lon="14.7757117"><ele>155.66666666666666</ele><time>2026-04-26T16:42:49.883Z</time></trkpt><trkpt lat="40.7263133" lon="14.7756933"><ele>156.33333333333334</ele><time>2026-04-26T16:42:50.884Z</time></trkpt><trkpt lat="40.7264633" lon="14.77568"><ele>157.0</ele><time>2026-04-26T16:42:51.883Z</time></trkpt><trkpt lat="40.7266167" lon="14.7756733"><ele>157.0</ele><time>2026-04-26T16:42:52.884Z</time></trkpt><trkpt lat="40.7267717" lon="14.7756683"><ele>157.0</ele><time>2026-04-26T16:42:53.884Z</time></trkpt><trkpt lat="40.7269333" lon="14.7756583"><ele>157.0</ele><time>2026-04-26T16:42:54.884Z</time></trkpt><trkpt lat="40.727095" lon="14.7756517"><ele>158.33333333333334</ele><time>2026-04-26T16:42:55.884Z</time></trkpt><trkpt lat="40.727265" lon="14.7756367"><ele>159.66666666666666</ele><time>2026-04-26T16:42:56.883Z</time></trkpt><trkpt lat="40.7274333" lon="14.7756233"><ele>161.0</ele><time>2026-04-26T16:42:57.884Z</time></trkpt><trkpt lat="40.727595" lon="14.77561"><ele>161.66666666666666</ele><time>2026-04-26T16:42:58.883Z</time></trkpt><trkpt lat="40.7277483" lon="14.77559"><ele>162.33333333333334</ele><time>2026-04-26T16:42:59.883Z</time></trkpt><trkpt lat="40.7279033" lon="14.7755833"><ele>163.0</ele><time>2026-04-26T16:43:00.883Z</time></trkpt><trkpt lat="40.728065" lon="14.7755633"><ele>163.0</ele><time>2026-04-26T16:43:01.884Z</time></trkpt><trkpt lat="40.72823" lon="14.7755567"><ele>163.0</ele><time>2026-04-26T16:43:02.883Z</time></trkpt><trkpt lat="40.7283967" lon="14.77555"><ele>163.0</ele><time>2026-04-26T16:43:03.883Z</time></trkpt><trkpt lat="40.7285633" lon="14.77555"><ele>164.33333333333334</ele><time>2026-04-26T16:43:04.883Z</time></trkpt><trkpt lat="40.72873" lon="14.7755517"><ele>165.66666666666666</ele><time>2026-04-26T16:43:05.884Z</time></trkpt><trkpt lat="40.7288967" lon="14.77554"><ele>167.0</ele><time>2026-04-26T16:43:06.883Z</time></trkpt><trkpt lat="40.7290617" lon="14.7755317"><ele>167.0</ele><time>2026-04-26T16:43:07.883Z</time></trkpt><trkpt lat="40.7292333" lon="14.77552"><ele>167.0</ele><time>2026-04-26T16:43:08.884Z</time></trkpt><trkpt lat="40.7294067" lon="14.7755017"><ele>167.0</ele><time>2026-04-26T16:43:09.883Z</time></trkpt><trkpt lat="40.7295833" lon="14.7754917"><ele>168.66666666666666</ele><time>2026-04-26T16:43:10.884Z</time></trkpt><trkpt lat="40.72976" lon="14.77548"><ele>170.33333333333334</ele><time>2026-04-26T16:43:11.883Z</time></trkpt><trkpt lat="40.7299467" lon="14.7754633"><ele>172.0</ele><time>2026-04-26T16:43:12.884Z</time></trkpt><trkpt lat="40.7301333" lon="14.775445"><ele>172.33333333333334</ele><time>2026-04-26T16:43:13.883Z</time></trkpt><trkpt lat="40.730305" lon="14.7754367"><ele>172.66666666666666</ele><time>2026-04-26T16:43:14.884Z</time></trkpt><trkpt lat="40.7304667" lon="14.775425"><ele>173.0</ele><time>2026-04-26T16:43:15.884Z</time></trkpt><trkpt lat="40.7306167" lon="14.7754133"><ele>173.0</ele><time>2026-04-26T16:43:16.884Z</time></trkpt><trkpt lat="40.730745" lon="14.7753983"><ele>173.0</ele><time>2026-04-26T16:43:17.883Z</time></trkpt><trkpt lat="40.7308567" lon="14.7753883"><ele>173.0</ele><time>2026-04-26T16:43:18.884Z</time></trkpt><trkpt lat="40.73096" lon="14.7753867"><ele>173.0</ele><time>2026-04-26T16:43:19.884Z</time></trkpt><trkpt lat="40.7310433" lon="14.775385"><ele>173.0</ele><time>2026-04-26T16:43:20.884Z</time></trkpt><trkpt lat="40.7311283" lon="14.7753867"><ele>172.0</ele><time>2026-04-26T16:43:21.883Z</time></trkpt><trkpt lat="40.7312317" lon="14.7753833"><ele>171.0</ele><time>2026-04-26T16:43:22.884Z</time></trkpt><trkpt lat="40.7313467" lon="14.7753867"><ele>170.0</ele><time>2026-04-26T16:43:23.883Z</time></trkpt><trkpt lat="40.7314717" lon="14.7753933"><ele>169.0</ele><time>2026-04-26T16:43:24.884Z</time></trkpt><trkpt lat="40.7315933" lon="14.7754"><ele>169.0</ele><time>2026-04-26T16:43:25.884Z</time></trkpt><trkpt lat="40.7317117" lon="14.7754"><ele>169.0</ele><time>2026-04-26T16:43:26.884Z</time></trkpt><trkpt lat="40.7318317" lon="14.7754017"><ele>169.0</ele><time>2026-04-26T16:43:27.884Z</time></trkpt><trkpt lat="40.73195" lon="14.7754033"><ele>169.0</ele><time>2026-04-26T16:43:28.884Z</time></trkpt><trkpt lat="40.732075" lon="14.7754083"><ele>168.75</ele><time>2026-04-26T16:43:29.883Z</time></trkpt><trkpt lat="40.7322117" lon="14.7754167"><ele>168.5</ele><time>2026-04-26T16:43:30.883Z</time></trkpt><trkpt lat="40.7323633" lon="14.7754333"><ele>168.25</ele><time>2026-04-26T16:43:31.884Z</time></trkpt><trkpt lat="40.73252" lon="14.77545"><ele>168.0</ele><time>2026-04-26T16:43:32.883Z</time></trkpt><trkpt lat="40.7326617" lon="14.7754667"><ele>169.0</ele><time>2026-04-26T16:43:33.883Z</time></trkpt><trkpt lat="40.7328" lon="14.775495"><ele>170.0</ele><time>2026-04-26T16:43:34.884Z</time></trkpt><trkpt lat="40.7329233" lon="14.7755233"><ele>171.0</ele><time>2026-04-26T16:43:35.884Z</time></trkpt><trkpt lat="40.7330383" lon="14.7755533"><ele>172.0</ele><time>2026-04-26T16:43:36.884Z</time></trkpt><trkpt lat="40.7331583" lon="14.7755833"><ele>172.0</ele><time>2026-04-26T16:43:37.883Z</time></trkpt><trkpt lat="40.7332733" lon="14.7756133"><ele>172.0</ele><time>2026-04-26T16:43:38.884Z</time></trkpt><trkpt lat="40.7333883" lon="14.775655"><ele>172.0</ele><time>2026-04-26T16:43:39.883Z</time></trkpt><trkpt lat="40.7335067" lon="14.7757067"><ele>172.0</ele><time>2026-04-26T16:43:40.884Z</time></trkpt><trkpt lat="40.7336267" lon="14.7757633"><ele>171.75</ele><time>2026-04-26T16:43:41.884Z</time></trkpt><trkpt lat="40.7337567" lon="14.7758167"><ele>171.5</ele><time>2026-04-26T16:43:42.883Z</time></trkpt><trkpt lat="40.7338983" lon="14.7758717"><ele>171.25</ele><time>2026-04-26T16:43:43.883Z</time></trkpt><trkpt lat="40.7340367" lon="14.77593"><ele>171.0</ele><time>2026-04-26T16:43:44.883Z</time></trkpt><trkpt lat="40.7341867" lon="14.7759867"><ele>172.66666666666666</ele><time>2026-04-26T16:43:45.883Z</time></trkpt><trkpt lat="40.734335" lon="14.7760567"><ele>174.33333333333331</ele><time>2026-04-26T16:43:46.883Z</time></trkpt><trkpt lat="40.7344883" lon="14.7761283"><ele>176.0</ele><time>2026-04-26T16:43:47.883Z</time></trkpt><trkpt lat="40.7346433" lon="14.776205"><ele>176.0</ele><time>2026-04-26T16:43:48.884Z</time></trkpt><trkpt lat="40.7348" lon="14.7762833"><ele>176.0</ele><time>2026-04-26T16:43:49.884Z</time></trkpt><trkpt lat="40.7349567" lon="14.7763717"><ele>176.0</ele><time>2026-04-26T16:43:50.884Z</time></trkpt><trkpt lat="40.7351133" lon="14.7764533"><ele>175.66666666666666</ele><time>2026-04-26T16:43:51.884Z</time></trkpt><trkpt lat="40.7352667" lon="14.7765383"><ele>175.33333333333334</ele><time>2026-04-26T16:43:52.883Z</time></trkpt><trkpt lat="40.735415" lon="14.776635"><ele>175.0</ele><time>2026-04-26T16:43:53.884Z</time></trkpt><trkpt lat="40.7355567" lon="14.7767317"><ele>175.0</ele><time>2026-04-26T16:43:54.884Z</time></trkpt><trkpt lat="40.7356983" lon="14.776825"><ele>175.0</ele><time>2026-04-26T16:43:55.884Z</time></trkpt><trkpt lat="40.735835" lon="14.7769233"><ele>175.0</ele><time>2026-04-26T16:43:56.883Z</time></trkpt><trkpt lat="40.7359717" lon="14.7770233"><ele>177.0</ele><time>2026-04-26T16:43:57.884Z</time></trkpt><trkpt lat="40.7361067" lon="14.77713"><ele>179.0</ele><time>2026-04-26T16:43:58.883Z</time></trkpt><trkpt lat="40.7362417" lon="14.7772383"><ele>181.0</ele><time>2026-04-26T16:43:59.883Z</time></trkpt><trkpt lat="40.736375" lon="14.7773517"><ele>181.0</ele><time>2026-04-26T16:44:00.884Z</time></trkpt><trkpt lat="40.7365083" lon="14.7774683"><ele>181.0</ele><time>2026-04-26T16:44:01.883Z</time></trkpt><trkpt lat="40.7366367" lon="14.7775867"><ele>181.0</ele><time>2026-04-26T16:44:02.883Z</time></trkpt><trkpt lat="40.7367683" lon="14.77771"><ele>183.0</ele><time>2026-04-26T16:44:03.883Z</time></trkpt><trkpt lat="40.7369033" lon="14.777835"><ele>185.0</ele><time>2026-04-26T16:44:04.884Z</time></trkpt><trkpt lat="40.7370367" lon="14.77796"><ele>187.0</ele><time>2026-04-26T16:44:05.884Z</time></trkpt><trkpt lat="40.737165" lon="14.7780917"><ele>187.0</ele><time>2026-04-26T16:44:06.884Z</time></trkpt><trkpt lat="40.737295" lon="14.7782267"><ele>187.0</ele><time>2026-04-26T16:44:07.884Z</time></trkpt><trkpt lat="40.737425" lon="14.778365"><ele>187.0</ele><time>2026-04-26T16:44:08.884Z</time></trkpt><trkpt lat="40.7375567" lon="14.7785067"><ele>188.0</ele><time>2026-04-26T16:44:09.883Z</time></trkpt><trkpt lat="40.73768" lon="14.7786483"><ele>189.0</ele><time>2026-04-26T16:44:10.884Z</time></trkpt><trkpt lat="40.7378017" lon="14.77879"><ele>190.0</ele><time>2026-04-26T16:44:11.884Z</time></trkpt><trkpt lat="40.7379233" lon="14.7789283"><ele>190.66666666666669</ele><time>2026-04-26T16:44:12.883Z</time></trkpt><trkpt lat="40.7380467" lon="14.779065"><ele>191.33333333333334</ele><time>2026-04-26T16:44:13.883Z</time></trkpt><trkpt lat="40.738165" lon="14.77921"><ele>192.0</ele><time>2026-04-26T16:44:14.883Z</time></trkpt><trkpt lat="40.7382933" lon="14.7793533"><ele>193.33333333333331</ele><time>2026-04-26T16:44:15.883Z</time></trkpt><trkpt lat="40.7384233" lon="14.779495"><ele>194.66666666666666</ele><time>2026-04-26T16:44:16.883Z</time></trkpt><trkpt lat="40.7385517" lon="14.7796433"><ele>196.0</ele><time>2026-04-26T16:44:17.883Z</time></trkpt><trkpt lat="40.7386783" lon="14.7797917"><ele>196.66666666666666</ele><time>2026-04-26T16:44:18.883Z</time></trkpt><trkpt lat="40.738805" lon="14.7799383"><ele>197.33333333333331</ele><time>2026-04-26T16:44:19.884Z</time></trkpt><trkpt lat="40.7389317" lon="14.7800933"><ele>198.0</ele><time>2026-04-26T16:44:20.883Z</time></trkpt><trkpt lat="40.73906" lon="14.7802417"><ele>200.0</ele><time>2026-04-26T16:44:21.883Z</time></trkpt><trkpt lat="40.739185" lon="14.7803883"><ele>202.0</ele><time>2026-04-26T16:44:22.883Z</time></trkpt><trkpt lat="40.739315" lon="14.7805267"><ele>204.0</ele><time>2026-04-26T16:44:23.883Z</time></trkpt><trkpt lat="40.7394383" lon="14.780675"><ele>205.33333333333331</ele><time>2026-04-26T16:44:24.884Z</time></trkpt><trkpt lat="40.7395617" lon="14.7808217"><ele>206.66666666666666</ele><time>2026-04-26T16:44:25.884Z</time></trkpt><trkpt lat="40.7396933" lon="14.7809683"><ele>208.0</ele><time>2026-04-26T16:44:26.883Z</time></trkpt><trkpt lat="40.7398233" lon="14.7811267"><ele>208.66666666666666</ele><time>2026-04-26T16:44:27.883Z</time></trkpt><trkpt lat="40.7399617" lon="14.7812567"><ele>209.33333333333331</ele><time>2026-04-26T16:44:28.884Z</time></trkpt><trkpt lat="40.7400917" lon="14.7814167"><ele>210.0</ele><time>2026-04-26T16:44:29.883Z</time></trkpt><trkpt lat="40.7402233" lon="14.7815733"><ele>210.0</ele><time>2026-04-26T16:44:30.883Z</time></trkpt><trkpt lat="40.7403583" lon="14.78173"><ele>210.0</ele><time>2026-04-26T16:44:31.883Z</time></trkpt><trkpt lat="40.74049" lon="14.7818767"><ele>210.0</ele><time>2026-04-26T16:44:32.884Z</time></trkpt><trkpt lat="40.7406283" lon="14.7820133"><ele>212.0</ele><time>2026-04-26T16:44:33.883Z</time></trkpt><trkpt lat="40.740765" lon="14.7821533"><ele>214.0</ele><time>2026-04-26T16:44:34.883Z</time></trkpt><trkpt lat="40.7409033" lon="14.7822867"><ele>216.0</ele><time>2026-04-26T16:44:35.884Z</time></trkpt><trkpt lat="40.7410383" lon="14.7824217"><ele>214.66666666666669</ele><time>2026-04-26T16:44:36.884Z</time></trkpt><trkpt lat="40.7411733" lon="14.7825533"><ele>213.33333333333334</ele><time>2026-04-26T16:44:37.884Z</time></trkpt><trkpt lat="40.74131" lon="14.782685"><ele>212.0</ele><time>2026-04-26T16:44:38.883Z</time></trkpt><trkpt lat="40.7414483" lon="14.7828167"><ele>215.0</ele><time>2026-04-26T16:44:39.883Z</time></trkpt><trkpt lat="40.7415867" lon="14.78294"><ele>218.0</ele><time>2026-04-26T16:44:40.883Z</time></trkpt><trkpt lat="40.741725" lon="14.7830683"><ele>221.0</ele><time>2026-04-26T16:44:41.884Z</time></trkpt><trkpt lat="40.74186" lon="14.7831917"><ele>221.33333333333334</ele><time>2026-04-26T16:44:42.884Z</time></trkpt><trkpt lat="40.7420017" lon="14.783305"><ele>221.66666666666669</ele><time>2026-04-26T16:44:43.883Z</time></trkpt><trkpt lat="40.742145" lon="14.7834183"><ele>222.0</ele><time>2026-04-26T16:44:44.884Z</time></trkpt><trkpt lat="40.7422883" lon="14.7835267"><ele>221.0</ele><time>2026-04-26T16:44:45.884Z</time></trkpt><trkpt lat="40.74243" lon="14.783635"><ele>220.0</ele><time>2026-04-26T16:44:46.884Z</time></trkpt><trkpt lat="40.7425883" lon="14.78373"><ele>219.0</ele><time>2026-04-26T16:44:47.884Z</time></trkpt><trkpt lat="40.74274" lon="14.7838317"><ele>219.0</ele><time>2026-04-26T16:44:48.883Z</time></trkpt><trkpt lat="40.7428867" lon="14.7839367"><ele>219.0</ele><time>2026-04-26T16:44:49.884Z</time></trkpt><trkpt lat="40.743035" lon="14.7840417"><ele>219.0</ele><time>2026-04-26T16:44:50.883Z</time></trkpt><trkpt lat="40.7431817" lon="14.7841383"><ele>219.0</ele><time>2026-04-26T16:44:51.884Z</time></trkpt><trkpt lat="40.74333" lon="14.7842267"><ele>219.0</ele><time>2026-04-26T16:44:52.884Z</time></trkpt><trkpt lat="40.743475" lon="14.78432"><ele>219.0</ele><time>2026-04-26T16:44:53.884Z</time></trkpt><trkpt lat="40.7436283" lon="14.78441"><ele>220.33333333333331</ele><time>2026-04-26T16:44:54.883Z</time></trkpt><trkpt lat="40.7437817" lon="14.7844917"><ele>221.66666666666666</ele><time>2026-04-26T16:44:55.884Z</time></trkpt><trkpt lat="40.743935" lon="14.7845867"><ele>223.0</ele><time>2026-04-26T16:44:56.884Z</time></trkpt><trkpt lat="40.74409" lon="14.7846667"><ele>223.0</ele><time>2026-04-26T16:44:57.883Z</time></trkpt><trkpt lat="40.7442433" lon="14.7847467"><ele>223.0</ele><time>2026-04-26T16:44:58.884Z</time></trkpt><trkpt lat="40.7443933" lon="14.78482"><ele>223.0</ele><time>2026-04-26T16:44:59.883Z</time></trkpt><trkpt lat="40.7445467" lon="14.7848933"><ele>222.0</ele><time>2026-04-26T16:45:00.884Z</time></trkpt><trkpt lat="40.744695" lon="14.784965"><ele>221.0</ele><time>2026-04-26T16:45:01.883Z</time></trkpt><trkpt lat="40.7448467" lon="14.785035"><ele>220.0</ele><time>2026-04-26T16:45:02.884Z</time></trkpt><trkpt lat="40.7449983" lon="14.7850983"><ele>220.0</ele><time>2026-04-26T16:45:03.883Z</time></trkpt><trkpt lat="40.74515" lon="14.7851667"><ele>220.0</ele><time>2026-04-26T16:45:04.883Z</time></trkpt><trkpt lat="40.7453067" lon="14.7852317"><ele>220.0</ele><time>2026-04-26T16:45:05.884Z</time></trkpt><trkpt lat="40.7454717" lon="14.7853017"><ele>222.33333333333331</ele><time>2026-04-26T16:45:06.883Z</time></trkpt><trkpt lat="40.7456483" lon="14.7853667"><ele>224.66666666666669</ele><time>2026-04-26T16:45:07.883Z</time></trkpt><trkpt lat="40.7458283" lon="14.7854333"><ele>227.0</ele><time>2026-04-26T16:45:08.884Z</time></trkpt><trkpt lat="40.746015" lon="14.7855083"><ele>229.0</ele><time>2026-04-26T16:45:09.883Z</time></trkpt><trkpt lat="40.7461933" lon="14.78557"><ele>231.0</ele><time>2026-04-26T16:45:10.884Z</time></trkpt><trkpt lat="40.74637" lon="14.7856367"><ele>233.0</ele><time>2026-04-26T16:45:11.884Z</time></trkpt><trkpt lat="40.7465333" lon="14.7856883"><ele>233.0</ele><time>2026-04-26T16:45:12.884Z</time></trkpt><trkpt lat="40.7466967" lon="14.78573"><ele>233.0</ele><time>2026-04-26T16:45:13.884Z</time></trkpt><trkpt lat="40.746845" lon="14.785775"><ele>233.0</ele><time>2026-04-26T16:45:14.884Z</time></trkpt><trkpt lat="40.7469917" lon="14.785815"><ele>231.25</ele><time>2026-04-26T16:45:15.883Z</time></trkpt><trkpt lat="40.747135" lon="14.7858517"><ele>229.5</ele><time>2026-04-26T16:45:16.884Z</time></trkpt><trkpt lat="40.7472733" lon="14.7858683"><ele>227.75</ele><time>2026-04-26T16:45:17.883Z</time></trkpt><trkpt lat="40.7474117" lon="14.78589"><ele>226.0</ele><time>2026-04-26T16:45:18.884Z</time></trkpt><trkpt lat="40.747555" lon="14.78591"><ele>226.0</ele><time>2026-04-26T16:45:19.884Z</time></trkpt><trkpt lat="40.7476933" lon="14.7859317"><ele>226.0</ele><time>2026-04-26T16:45:20.883Z</time></trkpt><trkpt lat="40.7478383" lon="14.7859583"><ele>226.0</ele><time>2026-04-26T16:45:21.883Z</time></trkpt><trkpt lat="40.7479817" lon="14.7859833"><ele>226.0</ele><time>2026-04-26T16:45:22.884Z</time></trkpt><trkpt lat="40.7481233" lon="14.786015"><ele>226.25</ele><time>2026-04-26T16:45:23.884Z</time></trkpt><trkpt lat="40.748265" lon="14.786045"><ele>226.5</ele><time>2026-04-26T16:45:24.884Z</time></trkpt><trkpt lat="40.7484133" lon="14.786075"><ele>226.75</ele><time>2026-04-26T16:45:25.884Z</time></trkpt><trkpt lat="40.7485617" lon="14.7860967"><ele>227.0</ele><time>2026-04-26T16:45:26.884Z</time></trkpt><trkpt lat="40.748715" lon="14.786125"><ele>226.0</ele><time>2026-04-26T16:45:27.883Z</time></trkpt><trkpt lat="40.7488683" lon="14.7861567"><ele>225.0</ele><time>2026-04-26T16:45:28.883Z</time></trkpt><trkpt lat="40.7490217" lon="14.7861817"><ele>224.0</ele><time>2026-04-26T16:45:29.884Z</time></trkpt><trkpt lat="40.749175" lon="14.7862117"><ele>224.0</ele><time>2026-04-26T16:45:30.883Z</time></trkpt><trkpt lat="40.7493317" lon="14.786245"><ele>224.0</ele><time>2026-04-26T16:45:31.883Z</time></trkpt><trkpt lat="40.7494967" lon="14.7862833"><ele>224.0</ele><time>2026-04-26T16:45:32.884Z</time></trkpt><trkpt lat="40.749665" lon="14.7863117"><ele>223.66666666666669</ele><time>2026-04-26T16:45:33.884Z</time></trkpt><trkpt lat="40.74984" lon="14.7863483"><ele>223.33333333333331</ele><time>2026-04-26T16:45:34.884Z</time></trkpt><trkpt lat="40.750015" lon="14.78638"><ele>223.0</ele><time>2026-04-26T16:45:35.884Z</time></trkpt><trkpt lat="40.750195" lon="14.7864183"><ele>223.33333333333331</ele><time>2026-04-26T16:45:36.883Z</time></trkpt><trkpt lat="40.750375" lon="14.7864583"><ele>223.66666666666669</ele><time>2026-04-26T16:45:37.883Z</time></trkpt><trkpt lat="40.7505467" lon="14.7864933"><ele>224.0</ele><time>2026-04-26T16:45:38.884Z</time></trkpt><trkpt lat="40.75072" lon="14.786525"><ele>224.0</ele><time>2026-04-26T16:45:39.883Z</time></trkpt><trkpt lat="40.7508967" lon="14.7865567"><ele>224.0</ele><time>2026-04-26T16:45:40.884Z</time></trkpt><trkpt lat="40.75107" lon="14.7865883"><ele>224.0</ele><time>2026-04-26T16:45:41.883Z</time></trkpt><trkpt lat="40.75124" lon="14.7866233"><ele>223.66666666666669</ele><time>2026-04-26T16:45:42.883Z</time></trkpt><trkpt lat="40.75141" lon="14.78666"><ele>223.33333333333331</ele><time>2026-04-26T16:45:43.884Z</time></trkpt><trkpt lat="40.7515767" lon="14.786675"><ele>223.0</ele><time>2026-04-26T16:45:44.884Z</time></trkpt><trkpt lat="40.7517483" lon="14.7867183"><ele>222.66666666666666</ele><time>2026-04-26T16:45:45.884Z</time></trkpt><trkpt lat="40.7519083" lon="14.7867633"><ele>222.33333333333331</ele><time>2026-04-26T16:45:46.884Z</time></trkpt><trkpt lat="40.7520683" lon="14.786805"><ele>222.0</ele><time>2026-04-26T16:45:47.884Z</time></trkpt><trkpt lat="40.7522317" lon="14.786845"><ele>223.33333333333331</ele><time>2026-04-26T16:45:48.883Z</time></trkpt><trkpt lat="40.7523917" lon="14.7868817"><ele>224.66666666666666</ele><time>2026-04-26T16:45:49.884Z</time></trkpt><trkpt lat="40.7525517" lon="14.7869117"><ele>226.0</ele><time>2026-04-26T16:45:50.884Z</time></trkpt><trkpt lat="40.752705" lon="14.786945"><ele>225.66666666666666</ele><time>2026-04-26T16:45:51.883Z</time></trkpt><trkpt lat="40.7528667" lon="14.7869767"><ele>225.33333333333331</ele><time>2026-04-26T16:45:52.884Z</time></trkpt><trkpt lat="40.7530217" lon="14.7870033"><ele>225.0</ele><time>2026-04-26T16:45:53.884Z</time></trkpt><trkpt lat="40.7531817" lon="14.7870333"><ele>225.0</ele><time>2026-04-26T16:45:54.883Z</time></trkpt><trkpt lat="40.753335" lon="14.7870633"><ele>225.0</ele><time>2026-04-26T16:45:55.884Z</time></trkpt><trkpt lat="40.7534917" lon="14.7870967"><ele>225.0</ele><time>2026-04-26T16:45:56.883Z</time></trkpt><trkpt lat="40.7536533" lon="14.7871317"><ele>225.66666666666669</ele><time>2026-04-26T16:45:57.883Z</time></trkpt><trkpt lat="40.75381" lon="14.7871583"><ele>226.33333333333334</ele><time>2026-04-26T16:45:58.883Z</time></trkpt><trkpt lat="40.7539717" lon="14.78719"><ele>227.0</ele><time>2026-04-26T16:45:59.884Z</time></trkpt><trkpt lat="40.7541317" lon="14.7872233"><ele>227.0</ele><time>2026-04-26T16:46:00.883Z</time></trkpt><trkpt lat="40.7542917" lon="14.7872533"><ele>227.0</ele><time>2026-04-26T16:46:01.884Z</time></trkpt><trkpt lat="40.7544483" lon="14.787285"><ele>227.0</ele><time>2026-04-26T16:46:02.883Z</time></trkpt><trkpt lat="40.7546083" lon="14.787315"><ele>228.33333333333334</ele><time>2026-04-26T16:46:03.883Z</time></trkpt><trkpt lat="40.7547667" lon="14.7873483"><ele>229.66666666666669</ele><time>2026-04-26T16:46:04.884Z</time></trkpt><trkpt lat="40.754925" lon="14.7873817"><ele>231.0</ele><time>2026-04-26T16:46:05.884Z</time></trkpt><trkpt lat="40.7550883" lon="14.7874083"><ele>232.33333333333331</ele><time>2026-04-26T16:46:06.884Z</time></trkpt><trkpt lat="40.75525" lon="14.78744"><ele>233.66666666666666</ele><time>2026-04-26T16:46:07.883Z</time></trkpt><trkpt lat="40.755415" lon="14.787475"><ele>235.0</ele><time>2026-04-26T16:46:08.884Z</time></trkpt><trkpt lat="40.7555817" lon="14.78751"><ele>235.0</ele><time>2026-04-26T16:46:09.883Z</time></trkpt><trkpt lat="40.7557467" lon="14.7875433"><ele>235.0</ele><time>2026-04-26T16:46:10.883Z</time></trkpt><trkpt lat="40.7559167" lon="14.7875733"><ele>235.0</ele><time>2026-04-26T16:46:11.883Z</time></trkpt><trkpt lat="40.7560883" lon="14.7876067"><ele>235.33333333333331</ele><time>2026-04-26T16:46:12.883Z</time></trkpt><trkpt lat="40.7562533" lon="14.7876483"><ele>235.66666666666669</ele><time>2026-04-26T16:46:13.884Z</time></trkpt><trkpt lat="40.7564083" lon="14.78768"><ele>236.0</ele><time>2026-04-26T16:46:14.883Z</time></trkpt><trkpt lat="40.7565517" lon="14.78771"><ele>236.5</ele><time>2026-04-26T16:46:15.884Z</time></trkpt><trkpt lat="40.7566883" lon="14.7877367"><ele>237.0</ele><time>2026-04-26T16:46:16.884Z</time></trkpt><trkpt lat="40.7568183" lon="14.7877683"><ele>237.5</ele><time>2026-04-26T16:46:17.883Z</time></trkpt><trkpt lat="40.75695" lon="14.78779"><ele>238.0</ele><time>2026-04-26T16:46:18.884Z</time></trkpt><trkpt lat="40.7570683" lon="14.7878083"><ele>238.4</ele><time>2026-04-26T16:46:19.883Z</time></trkpt><trkpt lat="40.75718" lon="14.7878383"><ele>238.8</ele><time>2026-04-26T16:46:20.883Z</time></trkpt><trkpt lat="40.7572883" lon="14.7878633"><ele>239.2</ele><time>2026-04-26T16:46:21.883Z</time></trkpt><trkpt lat="40.757375" lon="14.7879133"><ele>239.6</ele><time>2026-04-26T16:46:22.883Z</time></trkpt><trkpt lat="40.7574383" lon="14.7879767"><ele>240.0</ele><time>2026-04-26T16:46:23.884Z</time></trkpt><trkpt lat="40.7574767" lon="14.7880633"><ele>240.0</ele><time>2026-04-26T16:46:24.883Z</time></trkpt><trkpt lat="40.7574867" lon="14.78816"><ele>240.0</ele><time>2026-04-26T16:46:25.884Z</time></trkpt><trkpt lat="40.7574617" lon="14.7882517"><ele>240.0</ele><time>2026-04-26T16:46:26.884Z</time></trkpt><trkpt lat="40.7574033" lon="14.7883133"><ele>240.0</ele><time>2026-04-26T16:46:27.883Z</time></trkpt><trkpt lat="40.7573233" lon="14.7883583"><ele>240.0</ele><time>2026-04-26T16:46:28.883Z</time></trkpt><trkpt lat="40.7572367" lon="14.78838"><ele>240.0</ele><time>2026-04-26T16:46:29.883Z</time></trkpt><trkpt lat="40.75713" lon="14.78838"><ele>240.0</ele><time>2026-04-26T16:46:30.884Z</time></trkpt><trkpt lat="40.7570417" lon="14.78837"><ele>240.0</ele><time>2026-04-26T16:46:31.883Z</time></trkpt><trkpt lat="40.75697" lon="14.7883617"><ele>240.0</ele><time>2026-04-26T16:46:32.884Z</time></trkpt><trkpt lat="40.7569067" lon="14.7883433"><ele>240.0</ele><time>2026-04-26T16:46:33.884Z</time></trkpt><trkpt lat="40.75678" lon="14.7883133"><ele>240.0</ele><time>2026-04-26T16:46:35.883Z</time></trkpt><trkpt lat="40.7567083" lon="14.78831"><ele>240.0</ele><time>2026-04-26T16:46:36.883Z</time></trkpt><trkpt lat="40.7566317" lon="14.7883067"><ele>239.66666666666666</ele><time>2026-04-26T16:46:37.884Z</time></trkpt><trkpt lat="40.7565567" lon="14.7882967"><ele>239.33333333333331</ele><time>2026-04-26T16:46:38.884Z</time></trkpt><trkpt lat="40.7564817" lon="14.7882917"><ele>239.0</ele><time>2026-04-26T16:46:39.883Z</time></trkpt><trkpt lat="40.7564033" lon="14.7882867"><ele>238.66666666666666</ele><time>2026-04-26T16:46:40.884Z</time></trkpt><trkpt lat="40.75632" lon="14.788275"><ele>238.33333333333331</ele><time>2026-04-26T16:46:41.884Z</time></trkpt><trkpt lat="40.7562367" lon="14.78826"><ele>238.0</ele><time>2026-04-26T16:46:42.883Z</time></trkpt><trkpt lat="40.7561483" lon="14.78824"><ele>237.99999999999997</ele><time>2026-04-26T16:46:43.884Z</time></trkpt><trkpt lat="40.7560583" lon="14.7882217"><ele>238.0</ele><time>2026-04-26T16:46:44.884Z</time></trkpt><trkpt lat="40.7559667" lon="14.788195"><ele>238.0</ele><time>2026-04-26T16:46:45.883Z</time></trkpt><trkpt lat="40.7558767" lon="14.7881683"><ele>238.0</ele><time>2026-04-26T16:46:46.883Z</time></trkpt><trkpt lat="40.7557883" lon="14.788145"><ele>237.99999999999997</ele><time>2026-04-26T16:46:47.884Z</time></trkpt><trkpt lat="40.7557083" lon="14.78812"><ele>238.0</ele><time>2026-04-26T16:46:48.884Z</time></trkpt><trkpt lat="40.7556367" lon="14.7880933"><ele>237.83333333333331</ele><time>2026-04-26T16:46:49.883Z</time></trkpt><trkpt lat="40.7555767" lon="14.7880633"><ele>237.66666666666666</ele><time>2026-04-26T16:46:50.883Z</time></trkpt><trkpt lat="40.7555267" lon="14.7879967"><ele>237.5</ele><time>2026-04-26T16:46:51.884Z</time></trkpt><trkpt lat="40.7554967" lon="14.78791"><ele>237.33333333333331</ele><time>2026-04-26T16:46:52.884Z</time></trkpt><trkpt lat="40.7554633" lon="14.7878167"><ele>237.16666666666666</ele><time>2026-04-26T16:46:53.883Z</time></trkpt><trkpt lat="40.755445" lon="14.7877083"><ele>237.0</ele><time>2026-04-26T16:46:54.884Z</time></trkpt><trkpt lat="40.75544" lon="14.787585"><ele>236.5</ele><time>2026-04-26T16:46:55.883Z</time></trkpt><trkpt lat="40.7554317" lon="14.7874567"><ele>236.0</ele><time>2026-04-26T16:46:56.883Z</time></trkpt><trkpt lat="40.7554283" lon="14.7873317"><ele>235.5</ele><time>2026-04-26T16:46:57.884Z</time></trkpt><trkpt lat="40.7554683" lon="14.7871333"><ele>235.0</ele><time>2026-04-26T16:46:58.883Z</time></trkpt><trkpt lat="40.7555217" lon="14.7869517"><ele>234.4</ele><time>2026-04-26T16:46:59.884Z</time></trkpt><trkpt lat="40.7555633" lon="14.7868017"><ele>233.8</ele><time>2026-04-26T16:47:00.884Z</time></trkpt><trkpt lat="40.7556017" lon="14.7866833"><ele>233.2</ele><time>2026-04-26T16:47:01.883Z</time></trkpt><trkpt lat="40.7556283" lon="14.786565"><ele>232.6</ele><time>2026-04-26T16:47:02.883Z</time></trkpt><trkpt lat="40.7556467" lon="14.78647"><ele>232.0</ele><time>2026-04-26T16:47:03.883Z</time></trkpt><trkpt lat="40.7556633" lon="14.7863817"><ele>231.99999999999997</ele><time>2026-04-26T16:47:04.884Z</time></trkpt><trkpt lat="40.755675" lon="14.786295"><ele>232.0</ele><time>2026-04-26T16:47:05.884Z</time></trkpt><trkpt lat="40.7556767" lon="14.7861917"><ele>232.0</ele><time>2026-04-26T16:47:06.884Z</time></trkpt><trkpt lat="40.7556683" lon="14.78608"><ele>232.0</ele><time>2026-04-26T16:47:07.884Z</time></trkpt><trkpt lat="40.7556533" lon="14.7859783"><ele>231.99999999999997</ele><time>2026-04-26T16:47:08.884Z</time></trkpt><trkpt lat="40.7556333" lon="14.7858833"><ele>232.0</ele><time>2026-04-26T16:47:09.884Z</time></trkpt><trkpt lat="40.75561" lon="14.785785"><ele>231.49999999999997</ele><time>2026-04-26T16:47:10.884Z</time></trkpt><trkpt lat="40.755585" lon="14.78569"><ele>231.0</ele><time>2026-04-26T16:47:11.883Z</time></trkpt><trkpt lat="40.7555583" lon="14.78559"><ele>230.5</ele><time>2026-04-26T16:47:12.884Z</time></trkpt><trkpt lat="40.7555217" lon="14.7854867"><ele>230.0</ele><time>2026-04-26T16:47:13.883Z</time></trkpt><trkpt lat="40.75548" lon="14.7853783"><ele>229.49999999999997</ele><time>2026-04-26T16:47:14.884Z</time></trkpt><trkpt lat="40.755445" lon="14.7852783"><ele>229.0</ele><time>2026-04-26T16:47:15.884Z</time></trkpt><trkpt lat="40.75541" lon="14.78518"><ele>228.49999999999997</ele><time>2026-04-26T16:47:16.883Z</time></trkpt><trkpt lat="40.7553767" lon="14.7850883"><ele>228.0</ele><time>2026-04-26T16:47:17.884Z</time></trkpt><trkpt lat="40.755345" lon="14.78499"><ele>227.5</ele><time>2026-04-26T16:47:18.884Z</time></trkpt><trkpt lat="40.7553133" lon="14.78489"><ele>227.0</ele><time>2026-04-26T16:47:19.883Z</time></trkpt><trkpt lat="40.75528" lon="14.784795"><ele>226.49999999999997</ele><time>2026-04-26T16:47:20.883Z</time></trkpt><trkpt lat="40.7552483" lon="14.7847"><ele>226.0</ele><time>2026-04-26T16:47:21.883Z</time></trkpt><trkpt lat="40.7552117" lon="14.7845967"><ele>225.8</ele><time>2026-04-26T16:47:22.884Z</time></trkpt><trkpt lat="40.75517" lon="14.78448"><ele>225.60000000000002</ele><time>2026-04-26T16:47:23.884Z</time></trkpt><trkpt lat="40.755135" lon="14.7843633"><ele>225.4</ele><time>2026-04-26T16:47:24.883Z</time></trkpt><trkpt lat="40.7550983" lon="14.7842533"><ele>225.2</ele><time>2026-04-26T16:47:25.883Z</time></trkpt><trkpt lat="40.7550633" lon="14.7841483"><ele>225.0</ele><time>2026-04-26T16:47:26.884Z</time></trkpt><trkpt lat="40.7550233" lon="14.78403"><ele>224.6</ele><time>2026-04-26T16:47:27.883Z</time></trkpt><trkpt lat="40.7549767" lon="14.7839117"><ele>224.2</ele><time>2026-04-26T16:47:28.884Z</time></trkpt><trkpt lat="40.7549267" lon="14.7837967"><ele>223.8</ele><time>2026-04-26T16:47:29.884Z</time></trkpt><trkpt lat="40.7548667" lon="14.783675"><ele>223.4</ele><time>2026-04-26T16:47:30.883Z</time></trkpt><trkpt lat="40.7547933" lon="14.78354"><ele>223.0</ele><time>2026-04-26T16:47:31.883Z</time></trkpt><trkpt lat="40.7547217" lon="14.7834117"><ele>222.4</ele><time>2026-04-26T16:47:32.884Z</time></trkpt><trkpt lat="40.7546683" lon="14.7832817"><ele>221.8</ele><time>2026-04-26T16:47:33.883Z</time></trkpt><trkpt lat="40.7546267" lon="14.783145"><ele>221.2</ele><time>2026-04-26T16:47:34.884Z</time></trkpt><trkpt lat="40.7546067" lon="14.7830217"><ele>220.6</ele><time>2026-04-26T16:47:35.883Z</time></trkpt><trkpt lat="40.7545933" lon="14.7828783"><ele>220.0</ele><time>2026-04-26T16:47:36.884Z</time></trkpt><trkpt lat="40.7545533" lon="14.7827367"><ele>219.0</ele><time>2026-04-26T16:47:37.884Z</time></trkpt><trkpt lat="40.7544783" lon="14.7826067"><ele>218.0</ele><time>2026-04-26T16:47:38.884Z</time></trkpt><trkpt lat="40.7543883" lon="14.782485"><ele>217.0</ele><time>2026-04-26T16:47:39.884Z</time></trkpt><trkpt lat="40.7543117" lon="14.7823467"><ele>216.0</ele><time>2026-04-26T16:47:40.884Z</time></trkpt><trkpt lat="40.7542383" lon="14.7821917"><ele>215.75</ele><time>2026-04-26T16:47:41.885Z</time></trkpt><trkpt lat="40.75417" lon="14.7820417"><ele>215.5</ele><time>2026-04-26T16:47:42.884Z</time></trkpt><trkpt lat="40.7541017" lon="14.7818917"><ele>215.25</ele><time>2026-04-26T16:47:43.884Z</time></trkpt><trkpt lat="40.754035" lon="14.7817417"><ele>215.0</ele><time>2026-04-26T16:47:44.885Z</time></trkpt><trkpt lat="40.7539717" lon="14.7815983"><ele>214.6</ele><time>2026-04-26T16:47:45.884Z</time></trkpt><trkpt lat="40.75391" lon="14.7814683"><ele>214.2</ele><time>2026-04-26T16:47:46.885Z</time></trkpt><trkpt lat="40.7538533" lon="14.7813467"><ele>213.8</ele><time>2026-04-26T16:47:47.885Z</time></trkpt><trkpt lat="40.7538033" lon="14.78123"><ele>213.4</ele><time>2026-04-26T16:47:48.885Z</time></trkpt><trkpt lat="40.7537767" lon="14.7811067"><ele>213.0</ele><time>2026-04-26T16:47:49.884Z</time></trkpt><trkpt lat="40.7537717" lon="14.78099"><ele>212.66666666666666</ele><time>2026-04-26T16:47:50.884Z</time></trkpt><trkpt lat="40.7537683" lon="14.780875"><ele>212.33333333333331</ele><time>2026-04-26T16:47:51.884Z</time></trkpt><trkpt lat="40.753745" lon="14.7807733"><ele>212.0</ele><time>2026-04-26T16:47:52.885Z</time></trkpt><trkpt lat="40.7537017" lon="14.7806933"><ele>211.66666666666666</ele><time>2026-04-26T16:47:53.884Z</time></trkpt><trkpt lat="40.7536433" lon="14.780635"><ele>211.33333333333331</ele><time>2026-04-26T16:47:54.884Z</time></trkpt><trkpt lat="40.753575" lon="14.78062"><ele>211.0</ele><time>2026-04-26T16:47:55.884Z</time></trkpt><trkpt lat="40.753505" lon="14.7806083"><ele>211.0</ele><time>2026-04-26T16:47:56.884Z</time></trkpt><trkpt lat="40.7534233" lon="14.780585"><ele>211.0</ele><time>2026-04-26T16:47:57.884Z</time></trkpt><trkpt lat="40.7533383" lon="14.7805283"><ele>211.0</ele><time>2026-04-26T16:47:58.885Z</time></trkpt><trkpt lat="40.75325" lon="14.7804317"><ele>211.0</ele><time>2026-04-26T16:47:59.884Z</time></trkpt><trkpt lat="40.75316" lon="14.7803117"><ele>211.0</ele><time>2026-04-26T16:48:00.884Z</time></trkpt><trkpt lat="40.7530667" lon="14.7801833"><ele>210.75</ele><time>2026-04-26T16:48:01.885Z</time></trkpt><trkpt lat="40.7529683" lon="14.7800583"><ele>210.5</ele><time>2026-04-26T16:48:02.884Z</time></trkpt><trkpt lat="40.7528683" lon="14.7799283"><ele>210.25</ele><time>2026-04-26T16:48:03.885Z</time></trkpt><trkpt lat="40.7527717" lon="14.7798017"><ele>210.0</ele><time>2026-04-26T16:48:04.885Z</time></trkpt><trkpt lat="40.752675" lon="14.779675"><ele>209.25</ele><time>2026-04-26T16:48:05.884Z</time></trkpt><trkpt lat="40.75258" lon="14.7795517"><ele>208.5</ele><time>2026-04-26T16:48:06.884Z</time></trkpt><trkpt lat="40.7524817" lon="14.77943"><ele>207.75</ele><time>2026-04-26T16:48:07.884Z</time></trkpt><trkpt lat="40.7523883" lon="14.779305"><ele>207.0</ele><time>2026-04-26T16:48:08.885Z</time></trkpt><trkpt lat="40.7522917" lon="14.77918"><ele>206.25</ele><time>2026-04-26T16:48:09.884Z</time></trkpt><trkpt lat="40.7522067" lon="14.7790533"><ele>205.5</ele><time>2026-04-26T16:48:10.884Z</time></trkpt><trkpt lat="40.752115" lon="14.77893"><ele>204.75</ele><time>2026-04-26T16:48:11.884Z</time></trkpt><trkpt lat="40.7520333" lon="14.778805"><ele>204.0</ele><time>2026-04-26T16:48:12.884Z</time></trkpt><trkpt lat="40.7519583" lon="14.7786767"><ele>204.0</ele><time>2026-04-26T16:48:13.884Z</time></trkpt><trkpt lat="40.75188" lon="14.7785483"><ele>204.0</ele><time>2026-04-26T16:48:14.885Z</time></trkpt><trkpt lat="40.7518017" lon="14.7784183"><ele>204.0</ele><time>2026-04-26T16:48:15.885Z</time></trkpt><trkpt lat="40.75172" lon="14.7782883"><ele>204.0</ele><time>2026-04-26T16:48:16.884Z</time></trkpt><trkpt lat="40.7516433" lon="14.7781583"><ele>203.25</ele><time>2026-04-26T16:48:17.885Z</time></trkpt><trkpt lat="40.7515683" lon="14.77803"><ele>202.5</ele><time>2026-04-26T16:48:18.884Z</time></trkpt><trkpt lat="40.7514983" lon="14.777905"><ele>201.75</ele><time>2026-04-26T16:48:19.885Z</time></trkpt><trkpt lat="40.7514233" lon="14.7777783"><ele>201.0</ele><time>2026-04-26T16:48:20.885Z</time></trkpt><trkpt lat="40.7513617" lon="14.777645"><ele>200.60000000000002</ele><time>2026-04-26T16:48:21.884Z</time></trkpt><trkpt lat="40.7513167" lon="14.7775117"><ele>200.2</ele><time>2026-04-26T16:48:22.885Z</time></trkpt><trkpt lat="40.7512767" lon="14.77738"><ele>199.8</ele><time>2026-04-26T16:48:23.884Z</time></trkpt><trkpt lat="40.7512517" lon="14.77726"><ele>199.39999999999998</ele><time>2026-04-26T16:48:24.884Z</time></trkpt><trkpt lat="40.75123" lon="14.7771333"><ele>199.0</ele><time>2026-04-26T16:48:25.884Z</time></trkpt><trkpt lat="40.7512067" lon="14.7770067"><ele>198.99999999999997</ele><time>2026-04-26T16:48:26.884Z</time></trkpt><trkpt lat="40.75119" lon="14.7768967"><ele>199.0</ele><time>2026-04-26T16:48:27.885Z</time></trkpt><trkpt lat="40.7511783" lon="14.77679"><ele>199.0</ele><time>2026-04-26T16:48:28.885Z</time></trkpt><trkpt lat="40.7511767" lon="14.7766833"><ele>199.0</ele><time>2026-04-26T16:48:29.885Z</time></trkpt><trkpt lat="40.7511783" lon="14.7765833"><ele>198.99999999999997</ele><time>2026-04-26T16:48:30.885Z</time></trkpt><trkpt lat="40.7512" lon="14.7765"><ele>199.0</ele><time>2026-04-26T16:48:31.884Z</time></trkpt><trkpt lat="40.75125" lon="14.7763633"><ele>198.33333333333331</ele><time>2026-04-26T16:48:33.885Z</time></trkpt><trkpt lat="40.75122" lon="14.77622"><ele>197.66666666666666</ele><time>2026-04-26T16:48:35.884Z</time></trkpt><trkpt lat="40.751165" lon="14.7761733"><ele>197.0</ele><time>2026-04-26T16:48:36.884Z</time></trkpt><trkpt lat="40.7510917" lon="14.7761567"><ele>196.33333333333331</ele><time>2026-04-26T16:48:37.884Z</time></trkpt><trkpt lat="40.7510117" lon="14.7761633"><ele>195.66666666666666</ele><time>2026-04-26T16:48:38.885Z</time></trkpt><trkpt lat="40.7509317" lon="14.77616"><ele>195.0</ele><time>2026-04-26T16:48:39.884Z</time></trkpt><trkpt lat="40.75086" lon="14.7761183"><ele>195.0</ele><time>2026-04-26T16:48:40.885Z</time></trkpt><trkpt lat="40.7507867" lon="14.7760617"><ele>195.0</ele><time>2026-04-26T16:48:41.885Z</time></trkpt><trkpt lat="40.7507167" lon="14.776005"><ele>195.0</ele><time>2026-04-26T16:48:42.885Z</time></trkpt><trkpt lat="40.7506633" lon="14.7759533"><ele>195.0</ele><time>2026-04-26T16:48:43.885Z</time></trkpt><trkpt lat="40.7505633" lon="14.775835"><ele>195.0</ele><time>2026-04-26T16:48:45.884Z</time></trkpt><trkpt lat="40.7505033" lon="14.7757717"><ele>195.0</ele><time>2026-04-26T16:48:46.884Z</time></trkpt><trkpt lat="40.7504433" lon="14.7757133"><ele>195.0</ele><time>2026-04-26T16:48:47.884Z</time></trkpt><trkpt lat="40.7503833" lon="14.7756667"><ele>195.0</ele><time>2026-04-26T16:48:48.884Z</time></trkpt><trkpt lat="40.7502867" lon="14.7755867"><ele>195.0</ele><time>2026-04-26T16:48:50.884Z</time></trkpt><trkpt lat="40.7502267" lon="14.7755183"><ele>195.0</ele><time>2026-04-26T16:48:52.884Z</time></trkpt><trkpt lat="40.7501717" lon="14.7754383"><ele>195.0</ele><time>2026-04-26T16:48:54.884Z</time></trkpt><trkpt lat="40.75011" lon="14.77535"><ele>195.0</ele><time>2026-04-26T16:48:56.884Z</time></trkpt><trkpt lat="40.7500283" lon="14.77522"><ele>195.0</ele><time>2026-04-26T16:48:58.885Z</time></trkpt><trkpt lat="40.7500017" lon="14.7751383"><ele>195.0</ele><time>2026-04-26T16:48:59.884Z</time></trkpt><trkpt lat="40.7499767" lon="14.7750433"><ele>195.0</ele><time>2026-04-26T16:49:00.885Z</time></trkpt><trkpt lat="40.7499567" lon="14.7749483"><ele>195.0</ele><time>2026-04-26T16:49:01.885Z</time></trkpt><trkpt lat="40.7499517" lon="14.7748367"><ele>195.0</ele><time>2026-04-26T16:49:02.884Z</time></trkpt><trkpt lat="40.749955" lon="14.774725"><ele>195.0</ele><time>2026-04-26T16:49:03.884Z</time></trkpt><trkpt lat="40.7499533" lon="14.7746117"><ele>195.0</ele><time>2026-04-26T16:49:04.884Z</time></trkpt><trkpt lat="40.7499533" lon="14.77449"><ele>195.0</ele><time>2026-04-26T16:49:05.884Z</time></trkpt><trkpt lat="40.7499517" lon="14.7743683"><ele>195.0</ele><time>2026-04-26T16:49:06.885Z</time></trkpt><trkpt lat="40.749945" lon="14.7742483"><ele>195.0</ele><time>2026-04-26T16:49:07.885Z</time></trkpt><trkpt lat="40.7499617" lon="14.7741317"><ele>195.0</ele><time>2026-04-26T16:49:08.885Z</time></trkpt><trkpt lat="40.7499717" lon="14.774025"><ele>195.0</ele><time>2026-04-26T16:49:09.885Z</time></trkpt><trkpt lat="40.7499717" lon="14.7739183"><ele>194.85714285714286</ele><time>2026-04-26T16:49:10.885Z</time></trkpt><trkpt lat="40.7499717" lon="14.7738183"><ele>194.71428571428572</ele><time>2026-04-26T16:49:11.884Z</time></trkpt><trkpt lat="40.749975" lon="14.7737183"><ele>194.57142857142856</ele><time>2026-04-26T16:49:12.885Z</time></trkpt><trkpt lat="40.749985" lon="14.7736217"><ele>194.42857142857144</ele><time>2026-04-26T16:49:13.884Z</time></trkpt><trkpt lat="40.7499883" lon="14.7735167"><ele>194.2857142857143</ele><time>2026-04-26T16:49:14.884Z</time></trkpt><trkpt lat="40.74999" lon="14.7734167"><ele>194.14285714285714</ele><time>2026-04-26T16:49:15.884Z</time></trkpt><trkpt lat="40.749985" lon="14.7733283"><ele>194.0</ele><time>2026-04-26T16:49:16.885Z</time></trkpt><trkpt lat="40.7499933" lon="14.7731867"><ele>194.83333333333334</ele><time>2026-04-26T16:49:18.884Z</time></trkpt><trkpt lat="40.75" lon="14.77306"><ele>195.66666666666669</ele><time>2026-04-26T16:49:20.885Z</time></trkpt><trkpt lat="40.75" lon="14.772935"><ele>196.5</ele><time>2026-04-26T16:49:22.885Z</time></trkpt><trkpt lat="40.749995" lon="14.7728483"><ele>197.33333333333331</ele><time>2026-04-26T16:49:24.884Z</time></trkpt><trkpt lat="40.7499917" lon="14.7727517"><ele>198.16666666666666</ele><time>2026-04-26T16:49:27.884Z</time></trkpt><trkpt lat="40.7499817" lon="14.7726233"><ele>199.0</ele><time>2026-04-26T16:49:30.885Z</time></trkpt><trkpt lat="40.74998" lon="14.7725067"><ele>199.0</ele><time>2026-04-26T16:49:32.884Z</time></trkpt><trkpt lat="40.7499767" lon="14.772365"><ele>199.0</ele><time>2026-04-26T16:49:34.885Z</time></trkpt><trkpt lat="40.749975" lon="14.7722083"><ele>199.0</ele><time>2026-04-26T16:49:36.884Z</time></trkpt><trkpt lat="40.7499767" lon="14.77206"><ele>199.0</ele><time>2026-04-26T16:49:38.884Z</time></trkpt><trkpt lat="40.7499817" lon="14.7719283"><ele>199.0</ele><time>2026-04-26T16:49:40.885Z</time></trkpt><trkpt lat="40.74999" lon="14.7718383"><ele>198.6</ele><time>2026-04-26T16:49:42.884Z</time></trkpt><trkpt lat="40.7499967" lon="14.77173"><ele>198.2</ele><time>2026-04-26T16:49:45.885Z</time></trkpt><trkpt lat="40.7499633" lon="14.771635"><ele>197.79999999999998</ele><time>2026-04-26T16:49:55.884Z</time></trkpt><trkpt lat="40.7498683" lon="14.7715383"><ele>197.39999999999998</ele><time>2026-04-26T16:49:57.884Z</time></trkpt><trkpt lat="40.7497683" lon="14.7714467"><ele>197.0</ele><time>2026-04-26T16:49:59.885Z</time></trkpt><trkpt lat="40.7497167" lon="14.771335"><ele>197.0</ele><time>2026-04-26T16:50:01.884Z</time></trkpt><trkpt lat="40.7497083" lon="14.7712033"><ele>197.0</ele><time>2026-04-26T16:50:03.885Z</time></trkpt><trkpt lat="40.7497483" lon="14.7710333"><ele>197.0</ele><time>2026-04-26T16:50:05.885Z</time></trkpt><trkpt lat="40.749765" lon="14.770925"><ele>197.0</ele><time>2026-04-26T16:50:06.884Z</time></trkpt><trkpt lat="40.7497767" lon="14.770805"><ele>197.0</ele><time>2026-04-26T16:50:07.885Z</time></trkpt><trkpt lat="40.7497967" lon="14.7706833"><ele>197.0</ele><time>2026-04-26T16:50:08.885Z</time></trkpt><trkpt lat="40.7498167" lon="14.7705583"><ele>197.0</ele><time>2026-04-26T16:50:09.884Z</time></trkpt><trkpt lat="40.749835" lon="14.77043"><ele>197.0</ele><time>2026-04-26T16:50:10.884Z</time></trkpt><trkpt lat="40.7498517" lon="14.7703017"><ele>197.0</ele><time>2026-04-26T16:50:11.884Z</time></trkpt><trkpt lat="40.7498517" lon="14.770185"><ele>197.0</ele><time>2026-04-26T16:50:12.885Z</time></trkpt><trkpt lat="40.749855" lon="14.7700867"><ele>197.39999999999998</ele><time>2026-04-26T16:50:13.885Z</time></trkpt><trkpt lat="40.7498633" lon="14.7699983"><ele>197.79999999999998</ele><time>2026-04-26T16:50:14.884Z</time></trkpt><trkpt lat="40.7498883" lon="14.7698667"><ele>198.2</ele><time>2026-04-26T16:50:16.885Z</time></trkpt><trkpt lat="40.749845" lon="14.769755"><ele>198.6</ele><time>2026-04-26T16:50:18.885Z</time></trkpt><trkpt lat="40.7497467" lon="14.7697433"><ele>199.0</ele><time>2026-04-26T16:50:20.885Z</time></trkpt><trkpt lat="40.7496467" lon="14.7698533"><ele>198.99999999999997</ele><time>2026-04-26T16:50:22.885Z</time></trkpt><trkpt lat="40.74958" lon="14.769875"><ele>199.0</ele><time>2026-04-26T16:50:23.885Z</time></trkpt><trkpt lat="40.7495117" lon="14.769855"><ele>199.0</ele><time>2026-04-26T16:50:24.885Z</time></trkpt><trkpt lat="40.7494417" lon="14.7698133"><ele>199.0</ele><time>2026-04-26T16:50:25.885Z</time></trkpt><trkpt lat="40.7493733" lon="14.7697683"><ele>199.0</ele><time>2026-04-26T16:50:26.884Z</time></trkpt><trkpt lat="40.7493033" lon="14.7697433"><ele>198.99999999999997</ele><time>2026-04-26T16:50:27.884Z</time></trkpt><trkpt lat="40.749235" lon="14.7697283"><ele>199.0</ele><time>2026-04-26T16:50:28.884Z</time></trkpt><trkpt lat="40.7491717" lon="14.7697083"><ele>198.49999999999997</ele><time>2026-04-26T16:50:29.885Z</time></trkpt><trkpt lat="40.7490733" lon="14.7696583"><ele>198.0</ele><time>2026-04-26T16:50:31.885Z</time></trkpt><trkpt lat="40.7489817" lon="14.7696617"><ele>197.5</ele><time>2026-04-26T16:50:33.884Z</time></trkpt><trkpt lat="40.7488967" lon="14.7696483"><ele>197.0</ele><time>2026-04-26T16:50:35.885Z</time></trkpt><trkpt lat="40.7488333" lon="14.76961"><ele>196.49999999999997</ele><time>2026-04-26T16:50:38.885Z</time></trkpt><trkpt lat="40.7488517" lon="14.7694983"><ele>196.0</ele><time>2026-04-26T16:50:41.885Z</time></trkpt><trkpt lat="40.7488967" lon="14.7693967"><ele>196.33333333333331</ele><time>2026-04-26T16:50:44.884Z</time></trkpt><trkpt lat="40.7489517" lon="14.7693"><ele>196.66666666666669</ele><time>2026-04-26T16:50:47.884Z</time></trkpt><trkpt lat="40.7490333" lon="14.76924"><ele>197.0</ele><time>2026-04-26T16:50:49.885Z</time></trkpt><trkpt lat="40.7485044" lon="14.7691035"><ele>197.25</ele><time>2026-04-26T16:53:16.859Z</time></trkpt><trkpt lat="40.7487067" lon="14.7689812"><ele>197.5</ele><time>2026-04-26T16:53:58.219Z</time></trkpt><trkpt lat="40.7487643" lon="14.7691671"><ele>197.75</ele><time>2026-04-26T16:54:47.73Z</time></trkpt><trkpt lat="40.7487428" lon="14.7690874"><ele>198.0</ele><time>2026-04-26T16:58:24.957Z</time></trkpt><trkpt lat="40.7488537" lon="14.7691083"><ele>198.0</ele><time>2026-04-26T17:02:17.066Z</time></trkpt><trkpt lat="40.7487801" lon="14.7691252"><ele>198.0</ele><time>2026-04-26T17:03:18.885Z</time></trkpt><trkpt lat="40.7487931" lon="14.7692078"><ele>198.0</ele><time>2026-04-26T17:03:48.884Z</time></trkpt><trkpt lat="40.74883" lon="14.7692753"><ele>198.0</ele><time>2026-04-26T17:04:20.884Z</time></trkpt><trkpt lat="40.7488798" lon="14.7693467"><ele>198.0</ele><time>2026-04-26T17:04:30.884Z</time></trkpt><trkpt lat="40.7489096" lon="14.7694511"><ele>198.0</ele><time>2026-04-26T17:04:32.884Z</time></trkpt><trkpt lat="40.7489391" lon="14.7695356"><ele>198.0</ele><time>2026-04-26T17:04:33.884Z</time></trkpt><trkpt lat="40.748965" lon="14.7696119"><ele>198.0</ele><time>2026-04-26T17:05:43.888Z</time></trkpt><trkpt lat="40.7488794" lon="14.7693536"><ele>198.0</ele><time>2026-04-26T17:11:04.403Z</time></trkpt><trkpt lat="40.7488097" lon="14.7691185"><ele>198.0</ele><time>2026-04-26T17:11:11.551Z</time></trkpt><trkpt lat="40.7488936" lon="14.7691203"><ele>198.0</ele><time>2026-04-26T17:23:20.883Z</time></trkpt><trkpt lat="40.7488427" lon="14.7690231"><ele>198.0</ele><time>2026-04-26T17:23:23.882Z</time></trkpt><trkpt lat="40.7488103" lon="14.7689255"><ele>198.0</ele><time>2026-04-26T17:23:28.909Z</time></trkpt><trkpt lat="40.7488021" lon="14.7691017"><ele>198.0</ele><time>2026-04-26T17:24:19.503Z</time></trkpt><trkpt lat="40.7488286" lon="14.7691818"><ele>198.0</ele><time>2026-04-26T17:28:15.895Z</time></trkpt><trkpt lat="40.7487747" lon="14.7691375"><ele>198.0</ele><time>2026-04-26T17:28:21.943Z</time></trkpt><trkpt lat="40.7487018" lon="14.7691596"><ele>198.0</ele><time>2026-04-26T17:35:02.882Z</time></trkpt><trkpt lat="40.7487038" lon="14.7692658"><ele>198.0</ele><time>2026-04-26T17:35:11.882Z</time></trkpt><trkpt lat="40.7487954" lon="14.7693009"><ele>198.0</ele><time>2026-04-26T17:35:17.908Z</time></trkpt><trkpt lat="40.7487524" lon="14.7692316"><ele>198.0</ele><time>2026-04-26T17:35:28.899Z</time></trkpt><trkpt lat="40.7486867" lon="14.7692346"><ele>198.0</ele><time>2026-04-26T17:35:30.882Z</time></trkpt><trkpt lat="40.7486233" lon="14.7692128"><ele>198.0</ele><time>2026-04-26T17:35:34.835Z</time></trkpt><trkpt lat="40.7485569" lon="14.7692049"><ele>198.0</ele><time>2026-04-26T17:35:39.889Z</time></trkpt><trkpt lat="40.7486165" lon="14.7691399"><ele>198.0</ele><time>2026-04-26T17:36:10.9Z</time></trkpt><trkpt lat="40.7486804" lon="14.7691498"><ele>198.0</ele><time>2026-04-26T17:36:26.882Z</time></trkpt><trkpt lat="40.7487454" lon="14.7691646"><ele>198.0</ele><time>2026-04-26T17:36:36.881Z</time></trkpt></trkseg></trk></gpx>